<?xml version="1.0" encoding="UTF-8" standalone="no" ?>
<gpx xmlns="http://www.topografix.com/GPX/1/1" xmlns:xsi="http://www.w3.org/2001/XMLSchema-instance" xsi:schemaLocation="http://www.topografix.com/GPX/1/1 http://www.topografix.com/GPX/1/1/gpx.xsd" version="1.1" creator="VisuGPX - https://www.visugpx.com">
  <metadata>
    <name>Gravel &amp; VTT tour Thudinien</name>
    <desc><![CDATA[
Voilà une très belle sortie  le Gravel VTT tour Thudinien une randonnée de 65 km entre les campanes et les bois de la région 

vidéo

https://www.youtube.com/watch?v=Cuj6FI0daAU]]></desc>
  </metadata>
  <trk>
    <name><![CDATA[Erquelinnes]]></name>
    <trkseg>
      <trkpt lat="50.33933" lon="4.32484">
        <ele>198.101913</ele>
        <time>2022-08-28T06:15:44Z</time>
      </trkpt>
      <trkpt lat="50.33931" lon="4.32483">
        <ele>198.075073</ele>
        <time>2022-08-28T06:15:45Z</time>
      </trkpt>
      <trkpt lat="50.33927" lon="4.3248">
        <ele>198.62027</ele>
        <time>2022-08-28T06:15:47Z</time>
      </trkpt>
      <trkpt lat="50.33923" lon="4.32476">
        <ele>198.613983</ele>
        <time>2022-08-28T06:15:49Z</time>
      </trkpt>
      <trkpt lat="50.33921" lon="4.32469">
        <ele>198.578918</ele>
        <time>2022-08-28T06:15:51Z</time>
      </trkpt>
      <trkpt lat="50.33921" lon="4.32461">
        <ele>198.519394</ele>
        <time>2022-08-28T06:15:53Z</time>
      </trkpt>
      <trkpt lat="50.33923" lon="4.32453">
        <ele>199.04213</ele>
        <time>2022-08-28T06:15:55Z</time>
      </trkpt>
      <trkpt lat="50.33925" lon="4.32445">
        <ele>199.050537</ele>
        <time>2022-08-28T06:15:57Z</time>
      </trkpt>
      <trkpt lat="50.33927" lon="4.32438">
        <ele>199.073669</ele>
        <time>2022-08-28T06:15:59Z</time>
      </trkpt>
      <trkpt lat="50.33929" lon="4.32429">
        <ele>198.516937</ele>
        <time>2022-08-28T06:16:01Z</time>
      </trkpt>
      <trkpt lat="50.33931" lon="4.32421">
        <ele>198.516937</ele>
        <time>2022-08-28T06:16:03Z</time>
      </trkpt>
      <trkpt lat="50.33931" lon="4.32412">
        <ele>198.52536</ele>
        <time>2022-08-28T06:16:05Z</time>
      </trkpt>
      <trkpt lat="50.33932" lon="4.32402">
        <ele>198.592636</ele>
        <time>2022-08-28T06:16:07Z</time>
      </trkpt>
      <trkpt lat="50.33934" lon="4.32393">
        <ele>198.612976</ele>
        <time>2022-08-28T06:16:09Z</time>
      </trkpt>
      <trkpt lat="50.33936" lon="4.32385">
        <ele>198.669769</ele>
        <time>2022-08-28T06:16:11Z</time>
      </trkpt>
      <trkpt lat="50.33939" lon="4.32376">
        <ele>198.749664</ele>
        <time>2022-08-28T06:16:13Z</time>
      </trkpt>
      <trkpt lat="50.33939" lon="4.32365">
        <ele>198.837982</ele>
        <time>2022-08-28T06:16:15Z</time>
      </trkpt>
      <trkpt lat="50.33939" lon="4.32356">
        <ele>198.943939</ele>
        <time>2022-08-28T06:16:17Z</time>
      </trkpt>
      <trkpt lat="50.33934" lon="4.32349">
        <ele>198.960175</ele>
        <time>2022-08-28T06:16:19Z</time>
      </trkpt>
      <trkpt lat="50.3393" lon="4.32344">
        <ele>199.098984</ele>
        <time>2022-08-28T06:16:21Z</time>
      </trkpt>
      <trkpt lat="50.33927" lon="4.32337">
        <ele>199.212555</ele>
        <time>2022-08-28T06:16:23Z</time>
      </trkpt>
      <trkpt lat="50.33928" lon="4.32329">
        <ele>199.397614</ele>
        <time>2022-08-28T06:16:25Z</time>
      </trkpt>
      <trkpt lat="50.33929" lon="4.32318">
        <ele>199.601639</ele>
        <time>2022-08-28T06:16:27Z</time>
      </trkpt>
      <trkpt lat="50.33931" lon="4.32307">
        <ele>199.289886</ele>
        <time>2022-08-28T06:16:29Z</time>
      </trkpt>
      <trkpt lat="50.33933" lon="4.32296">
        <ele>199.491806</ele>
        <time>2022-08-28T06:16:31Z</time>
      </trkpt>
      <trkpt lat="50.33935" lon="4.32285">
        <ele>199.761047</ele>
        <time>2022-08-28T06:16:33Z</time>
      </trkpt>
      <trkpt lat="50.33937" lon="4.32274">
        <ele>199.901352</ele>
        <time>2022-08-28T06:16:35Z</time>
      </trkpt>
      <trkpt lat="50.33939" lon="4.32263">
        <ele>199.570175</ele>
        <time>2022-08-28T06:16:37Z</time>
      </trkpt>
      <trkpt lat="50.33941" lon="4.32252">
        <ele>199.669037</ele>
        <time>2022-08-28T06:16:39Z</time>
      </trkpt>
      <trkpt lat="50.33943" lon="4.32241">
        <ele>199.913361</ele>
        <time>2022-08-28T06:16:41Z</time>
      </trkpt>
      <trkpt lat="50.33945" lon="4.32229">
        <ele>200.640442</ele>
        <time>2022-08-28T06:16:43Z</time>
      </trkpt>
      <trkpt lat="50.33947" lon="4.32219">
        <ele>200.911789</ele>
        <time>2022-08-28T06:16:45Z</time>
      </trkpt>
      <trkpt lat="50.33949" lon="4.32208">
        <ele>201.101105</ele>
        <time>2022-08-28T06:16:47Z</time>
      </trkpt>
      <trkpt lat="50.33951" lon="4.32197">
        <ele>201.340073</ele>
        <time>2022-08-28T06:16:49Z</time>
      </trkpt>
      <trkpt lat="50.33954" lon="4.3218">
        <ele>201.687881</ele>
        <time>2022-08-28T06:16:52Z</time>
      </trkpt>
      <trkpt lat="50.33955" lon="4.3217">
        <ele>201.925583</ele>
        <time>2022-08-28T06:16:54Z</time>
      </trkpt>
      <trkpt lat="50.33956" lon="4.32164">
        <ele>202.070755</ele>
        <time>2022-08-28T06:16:55Z</time>
      </trkpt>
      <trkpt lat="50.33959" lon="4.32155">
        <ele>202.305145</ele>
        <time>2022-08-28T06:16:56Z</time>
      </trkpt>
      <trkpt lat="50.33961" lon="4.32145">
        <ele>202.582855</ele>
        <time>2022-08-28T06:16:59Z</time>
      </trkpt>
      <trkpt lat="50.33963" lon="4.32135">
        <ele>202.843719</ele>
        <time>2022-08-28T06:17:01Z</time>
      </trkpt>
      <trkpt lat="50.33966" lon="4.32126">
        <ele>203.108826</ele>
        <time>2022-08-28T06:17:03Z</time>
      </trkpt>
      <trkpt lat="50.33968" lon="4.32114">
        <ele>203.451797</ele>
        <time>2022-08-28T06:17:05Z</time>
      </trkpt>
      <trkpt lat="50.3397" lon="4.32103">
        <ele>203.582245</ele>
        <time>2022-08-28T06:17:07Z</time>
      </trkpt>
      <trkpt lat="50.33972" lon="4.32092">
        <ele>203.790543</ele>
        <time>2022-08-28T06:17:09Z</time>
      </trkpt>
      <trkpt lat="50.33974" lon="4.3208">
        <ele>204.01384</ele>
        <time>2022-08-28T06:17:11Z</time>
      </trkpt>
      <trkpt lat="50.33977" lon="4.32069">
        <ele>204.234802</ele>
        <time>2022-08-28T06:17:13Z</time>
      </trkpt>
      <trkpt lat="50.33978" lon="4.32064">
        <ele>204.297928</ele>
        <time>2022-08-28T06:17:14Z</time>
      </trkpt>
      <trkpt lat="50.33979" lon="4.32051">
        <ele>204.502045</ele>
        <time>2022-08-28T06:17:16Z</time>
      </trkpt>
      <trkpt lat="50.33981" lon="4.32039">
        <ele>204.723419</ele>
        <time>2022-08-28T06:17:18Z</time>
      </trkpt>
      <trkpt lat="50.33983" lon="4.32028">
        <ele>204.934616</ele>
        <time>2022-08-28T06:17:20Z</time>
      </trkpt>
      <trkpt lat="50.33985" lon="4.32016">
        <ele>205.127884</ele>
        <time>2022-08-28T06:17:22Z</time>
      </trkpt>
      <trkpt lat="50.33987" lon="4.32004">
        <ele>205.397217</ele>
        <time>2022-08-28T06:17:24Z</time>
      </trkpt>
      <trkpt lat="50.33989" lon="4.31992">
        <ele>205.60556</ele>
        <time>2022-08-28T06:17:26Z</time>
      </trkpt>
      <trkpt lat="50.33991" lon="4.3198">
        <ele>205.832123</ele>
        <time>2022-08-28T06:17:28Z</time>
      </trkpt>
      <trkpt lat="50.33993" lon="4.31968">
        <ele>206.056732</ele>
        <time>2022-08-28T06:17:30Z</time>
      </trkpt>
      <trkpt lat="50.33995" lon="4.31959">
        <ele>206.295944</ele>
        <time>2022-08-28T06:17:32Z</time>
      </trkpt>
      <trkpt lat="50.33997" lon="4.31948">
        <ele>206.396439</ele>
        <time>2022-08-28T06:17:34Z</time>
      </trkpt>
      <trkpt lat="50.33999" lon="4.31938">
        <ele>206.596359</ele>
        <time>2022-08-28T06:17:36Z</time>
      </trkpt>
      <trkpt lat="50.34002" lon="4.31929">
        <ele>206.751221</ele>
        <time>2022-08-28T06:17:38Z</time>
      </trkpt>
      <trkpt lat="50.34007" lon="4.31924">
        <ele>206.873291</ele>
        <time>2022-08-28T06:17:40Z</time>
      </trkpt>
      <trkpt lat="50.34013" lon="4.31922">
        <ele>207.037476</ele>
        <time>2022-08-28T06:17:42Z</time>
      </trkpt>
      <trkpt lat="50.34016" lon="4.31922">
        <ele>207.20166</ele>
        <time>2022-08-28T06:17:44Z</time>
      </trkpt>
      <trkpt lat="50.34022" lon="4.31926">
        <ele>207.399536</ele>
        <time>2022-08-28T06:17:46Z</time>
      </trkpt>
      <trkpt lat="50.34025" lon="4.31933">
        <ele>207.475296</ele>
        <time>2022-08-28T06:17:48Z</time>
      </trkpt>
      <trkpt lat="50.3403" lon="4.31943">
        <ele>207.622635</ele>
        <time>2022-08-28T06:17:50Z</time>
      </trkpt>
      <trkpt lat="50.34033" lon="4.31954">
        <ele>207.769699</ele>
        <time>2022-08-28T06:17:52Z</time>
      </trkpt>
      <trkpt lat="50.34038" lon="4.31966">
        <ele>207.921219</ele>
        <time>2022-08-28T06:17:54Z</time>
      </trkpt>
      <trkpt lat="50.34041" lon="4.31978">
        <ele>208.161163</ele>
        <time>2022-08-28T06:17:56Z</time>
      </trkpt>
      <trkpt lat="50.34045" lon="4.31992">
        <ele>208.384308</ele>
        <time>2022-08-28T06:17:58Z</time>
      </trkpt>
      <trkpt lat="50.3405" lon="4.32005">
        <ele>208.588013</ele>
        <time>2022-08-28T06:18:00Z</time>
      </trkpt>
      <trkpt lat="50.34053" lon="4.32012">
        <ele>208.661774</ele>
        <time>2022-08-28T06:18:01Z</time>
      </trkpt>
      <trkpt lat="50.34057" lon="4.32025">
        <ele>208.792267</ele>
        <time>2022-08-28T06:18:03Z</time>
      </trkpt>
      <trkpt lat="50.34062" lon="4.32039">
        <ele>208.929108</ele>
        <time>2022-08-28T06:18:05Z</time>
      </trkpt>
      <trkpt lat="50.34068" lon="4.32053">
        <ele>209.040863</ele>
        <time>2022-08-28T06:18:07Z</time>
      </trkpt>
      <trkpt lat="50.34072" lon="4.32066">
        <ele>209.12088</ele>
        <time>2022-08-28T06:18:09Z</time>
      </trkpt>
      <trkpt lat="50.34079" lon="4.32087">
        <ele>209.296265</ele>
        <time>2022-08-28T06:18:12Z</time>
      </trkpt>
      <trkpt lat="50.34084" lon="4.32101">
        <ele>209.317581</ele>
        <time>2022-08-28T06:18:14Z</time>
      </trkpt>
      <trkpt lat="50.34089" lon="4.32115">
        <ele>209.324417</ele>
        <time>2022-08-28T06:18:16Z</time>
      </trkpt>
      <trkpt lat="50.34094" lon="4.3213">
        <ele>209.389648</ele>
        <time>2022-08-28T06:18:18Z</time>
      </trkpt>
      <trkpt lat="50.34098" lon="4.32143">
        <ele>209.397003</ele>
        <time>2022-08-28T06:18:20Z</time>
      </trkpt>
      <trkpt lat="50.34101" lon="4.32157">
        <ele>209.382278</ele>
        <time>2022-08-28T06:18:22Z</time>
      </trkpt>
      <trkpt lat="50.34105" lon="4.32171">
        <ele>209.342285</ele>
        <time>2022-08-28T06:18:24Z</time>
      </trkpt>
      <trkpt lat="50.34108" lon="4.32185">
        <ele>209.251755</ele>
        <time>2022-08-28T06:18:26Z</time>
      </trkpt>
      <trkpt lat="50.34111" lon="4.322">
        <ele>209.224411</ele>
        <time>2022-08-28T06:18:28Z</time>
      </trkpt>
      <trkpt lat="50.34112" lon="4.32214">
        <ele>209.274948</ele>
        <time>2022-08-28T06:18:30Z</time>
      </trkpt>
      <trkpt lat="50.34116" lon="4.3223">
        <ele>209.311569</ele>
        <time>2022-08-28T06:18:32Z</time>
      </trkpt>
      <trkpt lat="50.3412" lon="4.32245">
        <ele>209.267365</ele>
        <time>2022-08-28T06:18:34Z</time>
      </trkpt>
      <trkpt lat="50.34123" lon="4.3226">
        <ele>209.218948</ele>
        <time>2022-08-28T06:18:36Z</time>
      </trkpt>
      <trkpt lat="50.34126" lon="4.32275">
        <ele>209.197906</ele>
        <time>2022-08-28T06:18:38Z</time>
      </trkpt>
      <trkpt lat="50.34129" lon="4.32291">
        <ele>209.141068</ele>
        <time>2022-08-28T06:18:40Z</time>
      </trkpt>
      <trkpt lat="50.34131" lon="4.32306">
        <ele>209.056488</ele>
        <time>2022-08-28T06:18:42Z</time>
      </trkpt>
      <trkpt lat="50.34134" lon="4.32321">
        <ele>208.984909</ele>
        <time>2022-08-28T06:18:44Z</time>
      </trkpt>
      <trkpt lat="50.34137" lon="4.32336">
        <ele>208.95755</ele>
        <time>2022-08-28T06:18:46Z</time>
      </trkpt>
      <trkpt lat="50.34139" lon="4.32352">
        <ele>208.909103</ele>
        <time>2022-08-28T06:18:48Z</time>
      </trkpt>
      <trkpt lat="50.34141" lon="4.32367">
        <ele>208.85881</ele>
        <time>2022-08-28T06:18:50Z</time>
      </trkpt>
      <trkpt lat="50.34144" lon="4.32381">
        <ele>208.780182</ele>
        <time>2022-08-28T06:18:52Z</time>
      </trkpt>
      <trkpt lat="50.34147" lon="4.32396">
        <ele>208.718842</ele>
        <time>2022-08-28T06:18:54Z</time>
      </trkpt>
      <trkpt lat="50.34148" lon="4.32403">
        <ele>208.751129</ele>
        <time>2022-08-28T06:18:55Z</time>
      </trkpt>
      <trkpt lat="50.34152" lon="4.32417">
        <ele>208.683762</ele>
        <time>2022-08-28T06:18:56Z</time>
      </trkpt>
      <trkpt lat="50.34156" lon="4.32431">
        <ele>208.677368</ele>
        <time>2022-08-28T06:18:59Z</time>
      </trkpt>
      <trkpt lat="50.3416" lon="4.32444">
        <ele>208.619476</ele>
        <time>2022-08-28T06:19:01Z</time>
      </trkpt>
      <trkpt lat="50.34163" lon="4.32451">
        <ele>208.667892</ele>
        <time>2022-08-28T06:19:02Z</time>
      </trkpt>
      <trkpt lat="50.34166" lon="4.32464">
        <ele>208.639359</ele>
        <time>2022-08-28T06:19:04Z</time>
      </trkpt>
      <trkpt lat="50.34168" lon="4.32471">
        <ele>208.534134</ele>
        <time>2022-08-28T06:19:05Z</time>
      </trkpt>
      <trkpt lat="50.34172" lon="4.32483">
        <ele>208.513062</ele>
        <time>2022-08-28T06:19:07Z</time>
      </trkpt>
      <trkpt lat="50.34176" lon="4.32496">
        <ele>208.422531</ele>
        <time>2022-08-28T06:19:09Z</time>
      </trkpt>
      <trkpt lat="50.34181" lon="4.32509">
        <ele>208.344681</ele>
        <time>2022-08-28T06:19:11Z</time>
      </trkpt>
      <trkpt lat="50.34184" lon="4.32522">
        <ele>208.282791</ele>
        <time>2022-08-28T06:19:13Z</time>
      </trkpt>
      <trkpt lat="50.34187" lon="4.32535">
        <ele>208.285736</ele>
        <time>2022-08-28T06:19:15Z</time>
      </trkpt>
      <trkpt lat="50.34189" lon="4.32549">
        <ele>208.199432</ele>
        <time>2022-08-28T06:19:17Z</time>
      </trkpt>
      <trkpt lat="50.3419" lon="4.32564">
        <ele>208.068924</ele>
        <time>2022-08-28T06:19:19Z</time>
      </trkpt>
      <trkpt lat="50.34189" lon="4.32577">
        <ele>207.944748</ele>
        <time>2022-08-28T06:19:21Z</time>
      </trkpt>
      <trkpt lat="50.34189" lon="4.32591">
        <ele>207.850021</ele>
        <time>2022-08-28T06:19:23Z</time>
      </trkpt>
      <trkpt lat="50.34187" lon="4.32606">
        <ele>207.832687</ele>
        <time>2022-08-28T06:19:25Z</time>
      </trkpt>
      <trkpt lat="50.34186" lon="4.32621">
        <ele>207.826141</ele>
        <time>2022-08-28T06:19:27Z</time>
      </trkpt>
      <trkpt lat="50.34185" lon="4.32637">
        <ele>207.788254</ele>
        <time>2022-08-28T06:19:29Z</time>
      </trkpt>
      <trkpt lat="50.34185" lon="4.32652">
        <ele>207.784668</ele>
        <time>2022-08-28T06:19:31Z</time>
      </trkpt>
      <trkpt lat="50.34184" lon="4.32668">
        <ele>207.774902</ele>
        <time>2022-08-28T06:19:33Z</time>
      </trkpt>
      <trkpt lat="50.34183" lon="4.32682">
        <ele>207.673874</ele>
        <time>2022-08-28T06:19:35Z</time>
      </trkpt>
      <trkpt lat="50.34182" lon="4.32697">
        <ele>207.631104</ele>
        <time>2022-08-28T06:19:37Z</time>
      </trkpt>
      <trkpt lat="50.34183" lon="4.32712">
        <ele>207.603836</ele>
        <time>2022-08-28T06:19:39Z</time>
      </trkpt>
      <trkpt lat="50.34184" lon="4.32726">
        <ele>207.614777</ele>
        <time>2022-08-28T06:19:41Z</time>
      </trkpt>
      <trkpt lat="50.34187" lon="4.3274">
        <ele>207.56636</ele>
        <time>2022-08-28T06:19:43Z</time>
      </trkpt>
      <trkpt lat="50.3419" lon="4.32754">
        <ele>207.519119</ele>
        <time>2022-08-28T06:19:45Z</time>
      </trkpt>
      <trkpt lat="50.34194" lon="4.32767">
        <ele>207.67485</ele>
        <time>2022-08-28T06:19:47Z</time>
      </trkpt>
      <trkpt lat="50.34198" lon="4.3278">
        <ele>207.688629</ele>
        <time>2022-08-28T06:19:49Z</time>
      </trkpt>
      <trkpt lat="50.34202" lon="4.32793">
        <ele>207.73233</ele>
        <time>2022-08-28T06:19:50Z</time>
      </trkpt>
      <trkpt lat="50.34206" lon="4.32806">
        <ele>207.694427</ele>
        <time>2022-08-28T06:19:53Z</time>
      </trkpt>
      <trkpt lat="50.3421" lon="4.32819">
        <ele>207.751266</ele>
        <time>2022-08-28T06:19:55Z</time>
      </trkpt>
      <trkpt lat="50.34214" lon="4.32832">
        <ele>207.710861</ele>
        <time>2022-08-28T06:19:57Z</time>
      </trkpt>
      <trkpt lat="50.34218" lon="4.32845">
        <ele>207.742432</ele>
        <time>2022-08-28T06:19:59Z</time>
      </trkpt>
      <trkpt lat="50.34222" lon="4.32858">
        <ele>207.763504</ele>
        <time>2022-08-28T06:20:01Z</time>
      </trkpt>
      <trkpt lat="50.34226" lon="4.32871">
        <ele>207.872955</ele>
        <time>2022-08-28T06:20:03Z</time>
      </trkpt>
      <trkpt lat="50.34229" lon="4.32884">
        <ele>207.978683</ele>
        <time>2022-08-28T06:20:05Z</time>
      </trkpt>
      <trkpt lat="50.34233" lon="4.32897">
        <ele>208.012619</ele>
        <time>2022-08-28T06:20:07Z</time>
      </trkpt>
      <trkpt lat="50.34235" lon="4.32904">
        <ele>207.978928</ele>
        <time>2022-08-28T06:20:08Z</time>
      </trkpt>
      <trkpt lat="50.34239" lon="4.32916">
        <ele>207.964203</ele>
        <time>2022-08-28T06:20:10Z</time>
      </trkpt>
      <trkpt lat="50.34242" lon="4.32927">
        <ele>207.838943</ele>
        <time>2022-08-28T06:20:12Z</time>
      </trkpt>
      <trkpt lat="50.34246" lon="4.3294">
        <ele>207.918945</ele>
        <time>2022-08-28T06:20:14Z</time>
      </trkpt>
      <trkpt lat="50.3425" lon="4.32953">
        <ele>208.019989</ele>
        <time>2022-08-28T06:20:16Z</time>
      </trkpt>
      <trkpt lat="50.34254" lon="4.32966">
        <ele>207.954758</ele>
        <time>2022-08-28T06:20:18Z</time>
      </trkpt>
      <trkpt lat="50.34258" lon="4.32979">
        <ele>207.93869</ele>
        <time>2022-08-28T06:20:20Z</time>
      </trkpt>
      <trkpt lat="50.34263" lon="4.32992">
        <ele>207.959747</ele>
        <time>2022-08-28T06:20:22Z</time>
      </trkpt>
      <trkpt lat="50.34267" lon="4.33005">
        <ele>208.041428</ele>
        <time>2022-08-28T06:20:24Z</time>
      </trkpt>
      <trkpt lat="50.3427" lon="4.33018">
        <ele>207.997238</ele>
        <time>2022-08-28T06:20:26Z</time>
      </trkpt>
      <trkpt lat="50.34273" lon="4.33031">
        <ele>207.923584</ele>
        <time>2022-08-28T06:20:28Z</time>
      </trkpt>
      <trkpt lat="50.34276" lon="4.33044">
        <ele>207.918335</ele>
        <time>2022-08-28T06:20:30Z</time>
      </trkpt>
      <trkpt lat="50.34277" lon="4.33058">
        <ele>207.952545</ele>
        <time>2022-08-28T06:20:32Z</time>
      </trkpt>
      <trkpt lat="50.34278" lon="4.33066">
        <ele>207.925171</ele>
        <time>2022-08-28T06:20:33Z</time>
      </trkpt>
      <trkpt lat="50.34279" lon="4.3308">
        <ele>207.946579</ele>
        <time>2022-08-28T06:20:35Z</time>
      </trkpt>
      <trkpt lat="50.34279" lon="4.33095">
        <ele>208.000885</ele>
        <time>2022-08-28T06:20:37Z</time>
      </trkpt>
      <trkpt lat="50.3428" lon="4.33109">
        <ele>208.04509</ele>
        <time>2022-08-28T06:20:39Z</time>
      </trkpt>
      <trkpt lat="50.34281" lon="4.33123">
        <ele>208.137497</ele>
        <time>2022-08-28T06:20:41Z</time>
      </trkpt>
      <trkpt lat="50.34282" lon="4.33138">
        <ele>208.182419</ele>
        <time>2022-08-28T06:20:43Z</time>
      </trkpt>
      <trkpt lat="50.34282" lon="4.33153">
        <ele>208.190842</ele>
        <time>2022-08-28T06:20:45Z</time>
      </trkpt>
      <trkpt lat="50.34283" lon="4.33167">
        <ele>208.136108</ele>
        <time>2022-08-28T06:20:47Z</time>
      </trkpt>
      <trkpt lat="50.34283" lon="4.33182">
        <ele>208.332733</ele>
        <time>2022-08-28T06:20:49Z</time>
      </trkpt>
      <trkpt lat="50.34283" lon="4.33196">
        <ele>208.271698</ele>
        <time>2022-08-28T06:20:51Z</time>
      </trkpt>
      <trkpt lat="50.34284" lon="4.33211">
        <ele>208.252762</ele>
        <time>2022-08-28T06:20:53Z</time>
      </trkpt>
      <trkpt lat="50.34285" lon="4.33226">
        <ele>208.261154</ele>
        <time>2022-08-28T06:20:55Z</time>
      </trkpt>
      <trkpt lat="50.34285" lon="4.33241">
        <ele>208.336914</ele>
        <time>2022-08-28T06:20:57Z</time>
      </trkpt>
      <trkpt lat="50.34286" lon="4.33256">
        <ele>208.344208</ele>
        <time>2022-08-28T06:20:59Z</time>
      </trkpt>
      <trkpt lat="50.34287" lon="4.33271">
        <ele>208.526581</ele>
        <time>2022-08-28T06:21:01Z</time>
      </trkpt>
      <trkpt lat="50.34287" lon="4.33286">
        <ele>208.682343</ele>
        <time>2022-08-28T06:21:03Z</time>
      </trkpt>
      <trkpt lat="50.34288" lon="4.33301">
        <ele>208.703369</ele>
        <time>2022-08-28T06:21:05Z</time>
      </trkpt>
      <trkpt lat="50.34289" lon="4.33316">
        <ele>208.82547</ele>
        <time>2022-08-28T06:21:07Z</time>
      </trkpt>
      <trkpt lat="50.3429" lon="4.33331">
        <ele>208.970139</ele>
        <time>2022-08-28T06:21:09Z</time>
      </trkpt>
      <trkpt lat="50.34291" lon="4.33347">
        <ele>209.007935</ele>
        <time>2022-08-28T06:21:11Z</time>
      </trkpt>
      <trkpt lat="50.34292" lon="4.33362">
        <ele>208.998703</ele>
        <time>2022-08-28T06:21:13Z</time>
      </trkpt>
      <trkpt lat="50.34292" lon="4.33377">
        <ele>208.937668</ele>
        <time>2022-08-28T06:21:15Z</time>
      </trkpt>
      <trkpt lat="50.34293" lon="4.33392">
        <ele>208.956223</ele>
        <time>2022-08-28T06:21:17Z</time>
      </trkpt>
      <trkpt lat="50.34293" lon="4.33408">
        <ele>208.970978</ele>
        <time>2022-08-28T06:21:19Z</time>
      </trkpt>
      <trkpt lat="50.34294" lon="4.33425">
        <ele>209.069916</ele>
        <time>2022-08-28T06:21:21Z</time>
      </trkpt>
      <trkpt lat="50.34295" lon="4.33442">
        <ele>209.132004</ele>
        <time>2022-08-28T06:21:23Z</time>
      </trkpt>
      <trkpt lat="50.34296" lon="4.33458">
        <ele>209.102997</ele>
        <time>2022-08-28T06:21:25Z</time>
      </trkpt>
      <trkpt lat="50.34296" lon="4.33474">
        <ele>209.089722</ele>
        <time>2022-08-28T06:21:27Z</time>
      </trkpt>
      <trkpt lat="50.34295" lon="4.3349">
        <ele>209.109009</ele>
        <time>2022-08-28T06:21:29Z</time>
      </trkpt>
      <trkpt lat="50.34294" lon="4.33506">
        <ele>209.028519</ele>
        <time>2022-08-28T06:21:31Z</time>
      </trkpt>
      <trkpt lat="50.34293" lon="4.33521">
        <ele>209.236908</ele>
        <time>2022-08-28T06:21:33Z</time>
      </trkpt>
      <trkpt lat="50.34292" lon="4.33537">
        <ele>209.277664</ele>
        <time>2022-08-28T06:21:35Z</time>
      </trkpt>
      <trkpt lat="50.3429" lon="4.33552">
        <ele>209.21875</ele>
        <time>2022-08-28T06:21:37Z</time>
      </trkpt>
      <trkpt lat="50.34289" lon="4.33567">
        <ele>209.228271</ele>
        <time>2022-08-28T06:21:39Z</time>
      </trkpt>
      <trkpt lat="50.34288" lon="4.33581">
        <ele>209.137772</ele>
        <time>2022-08-28T06:21:41Z</time>
      </trkpt>
      <trkpt lat="50.34287" lon="4.33595">
        <ele>208.965744</ele>
        <time>2022-08-28T06:21:43Z</time>
      </trkpt>
      <trkpt lat="50.34286" lon="4.3361">
        <ele>208.894165</ele>
        <time>2022-08-28T06:21:45Z</time>
      </trkpt>
      <trkpt lat="50.34285" lon="4.33624">
        <ele>208.889938</ele>
        <time>2022-08-28T06:21:47Z</time>
      </trkpt>
      <trkpt lat="50.34283" lon="4.33639">
        <ele>208.854736</ele>
        <time>2022-08-28T06:21:49Z</time>
      </trkpt>
      <trkpt lat="50.34281" lon="4.33653">
        <ele>208.783157</ele>
        <time>2022-08-28T06:21:51Z</time>
      </trkpt>
      <trkpt lat="50.3428" lon="4.33668">
        <ele>208.779861</ele>
        <time>2022-08-28T06:21:53Z</time>
      </trkpt>
      <trkpt lat="50.34279" lon="4.33683">
        <ele>208.819138</ele>
        <time>2022-08-28T06:21:55Z</time>
      </trkpt>
      <trkpt lat="50.34279" lon="4.33697">
        <ele>208.874268</ele>
        <time>2022-08-28T06:21:57Z</time>
      </trkpt>
      <trkpt lat="50.34279" lon="4.33713">
        <ele>208.634323</ele>
        <time>2022-08-28T06:21:59Z</time>
      </trkpt>
      <trkpt lat="50.34279" lon="4.33728">
        <ele>208.499603</ele>
        <time>2022-08-28T06:22:01Z</time>
      </trkpt>
      <trkpt lat="50.3428" lon="4.33743">
        <ele>208.341721</ele>
        <time>2022-08-28T06:22:03Z</time>
      </trkpt>
      <trkpt lat="50.34281" lon="4.33758">
        <ele>208.349152</ele>
        <time>2022-08-28T06:22:05Z</time>
      </trkpt>
      <trkpt lat="50.34282" lon="4.33773">
        <ele>208.350739</ele>
        <time>2022-08-28T06:22:07Z</time>
      </trkpt>
      <trkpt lat="50.34283" lon="4.33788">
        <ele>208.376007</ele>
        <time>2022-08-28T06:22:09Z</time>
      </trkpt>
      <trkpt lat="50.34284" lon="4.33803">
        <ele>208.438477</ele>
        <time>2022-08-28T06:22:11Z</time>
      </trkpt>
      <trkpt lat="50.34285" lon="4.33817">
        <ele>208.377441</ele>
        <time>2022-08-28T06:22:13Z</time>
      </trkpt>
      <trkpt lat="50.34287" lon="4.33832">
        <ele>208.230103</ele>
        <time>2022-08-28T06:22:15Z</time>
      </trkpt>
      <trkpt lat="50.34288" lon="4.33847">
        <ele>208.231445</ele>
        <time>2022-08-28T06:22:17Z</time>
      </trkpt>
      <trkpt lat="50.3429" lon="4.33863">
        <ele>208.385132</ele>
        <time>2022-08-28T06:22:19Z</time>
      </trkpt>
      <trkpt lat="50.34292" lon="4.33878">
        <ele>208.349335</ele>
        <time>2022-08-28T06:22:21Z</time>
      </trkpt>
      <trkpt lat="50.34295" lon="4.33893">
        <ele>208.480179</ele>
        <time>2022-08-28T06:22:23Z</time>
      </trkpt>
      <trkpt lat="50.34297" lon="4.33907">
        <ele>208.571198</ele>
        <time>2022-08-28T06:22:25Z</time>
      </trkpt>
      <trkpt lat="50.34299" lon="4.33921">
        <ele>208.531891</ele>
        <time>2022-08-28T06:22:27Z</time>
      </trkpt>
      <trkpt lat="50.34302" lon="4.33935">
        <ele>208.547394</ele>
        <time>2022-08-28T06:22:29Z</time>
      </trkpt>
      <trkpt lat="50.34304" lon="4.33949">
        <ele>208.414764</ele>
        <time>2022-08-28T06:22:31Z</time>
      </trkpt>
      <trkpt lat="50.34307" lon="4.33964">
        <ele>208.538971</ele>
        <time>2022-08-28T06:22:33Z</time>
      </trkpt>
      <trkpt lat="50.3431" lon="4.33977">
        <ele>208.430099</ele>
        <time>2022-08-28T06:22:35Z</time>
      </trkpt>
      <trkpt lat="50.34312" lon="4.33991">
        <ele>208.493256</ele>
        <time>2022-08-28T06:22:37Z</time>
      </trkpt>
      <trkpt lat="50.34315" lon="4.34006">
        <ele>208.691086</ele>
        <time>2022-08-28T06:22:39Z</time>
      </trkpt>
      <trkpt lat="50.34318" lon="4.3402">
        <ele>208.714233</ele>
        <time>2022-08-28T06:22:41Z</time>
      </trkpt>
      <trkpt lat="50.34321" lon="4.34034">
        <ele>208.735504</ele>
        <time>2022-08-28T06:22:43Z</time>
      </trkpt>
      <trkpt lat="50.34325" lon="4.34047">
        <ele>208.794434</ele>
        <time>2022-08-28T06:22:45Z</time>
      </trkpt>
      <trkpt lat="50.34326" lon="4.34054">
        <ele>208.793457</ele>
        <time>2022-08-28T06:22:46Z</time>
      </trkpt>
      <trkpt lat="50.34329" lon="4.34068">
        <ele>208.799774</ele>
        <time>2022-08-28T06:22:48Z</time>
      </trkpt>
      <trkpt lat="50.34331" lon="4.34081">
        <ele>208.858719</ele>
        <time>2022-08-28T06:22:50Z</time>
      </trkpt>
      <trkpt lat="50.34335" lon="4.34095">
        <ele>208.741241</ele>
        <time>2022-08-28T06:22:52Z</time>
      </trkpt>
      <trkpt lat="50.34338" lon="4.34109">
        <ele>208.8237</ele>
        <time>2022-08-28T06:22:54Z</time>
      </trkpt>
      <trkpt lat="50.34341" lon="4.34123">
        <ele>208.825806</ele>
        <time>2022-08-28T06:22:56Z</time>
      </trkpt>
      <trkpt lat="50.34345" lon="4.34136">
        <ele>208.914215</ele>
        <time>2022-08-28T06:22:58Z</time>
      </trkpt>
      <trkpt lat="50.34348" lon="4.3415">
        <ele>208.855255</ele>
        <time>2022-08-28T06:23:00Z</time>
      </trkpt>
      <trkpt lat="50.34351" lon="4.34164">
        <ele>208.81955</ele>
        <time>2022-08-28T06:23:02Z</time>
      </trkpt>
      <trkpt lat="50.34354" lon="4.34177">
        <ele>208.926636</ele>
        <time>2022-08-28T06:23:04Z</time>
      </trkpt>
      <trkpt lat="50.34358" lon="4.34191">
        <ele>208.900299</ele>
        <time>2022-08-28T06:23:06Z</time>
      </trkpt>
      <trkpt lat="50.34361" lon="4.34204">
        <ele>208.941696</ele>
        <time>2022-08-28T06:23:08Z</time>
      </trkpt>
      <trkpt lat="50.34364" lon="4.34217">
        <ele>209.02092</ele>
        <time>2022-08-28T06:23:10Z</time>
      </trkpt>
      <trkpt lat="50.34367" lon="4.34229">
        <ele>209.014618</ele>
        <time>2022-08-28T06:23:12Z</time>
      </trkpt>
      <trkpt lat="50.3437" lon="4.34242">
        <ele>209.071487</ele>
        <time>2022-08-28T06:23:13Z</time>
      </trkpt>
      <trkpt lat="50.34373" lon="4.34254">
        <ele>209.050446</ele>
        <time>2022-08-28T06:23:16Z</time>
      </trkpt>
      <trkpt lat="50.34375" lon="4.34268">
        <ele>209.075684</ele>
        <time>2022-08-28T06:23:18Z</time>
      </trkpt>
      <trkpt lat="50.34374" lon="4.34281">
        <ele>209.092133</ele>
        <time>2022-08-28T06:23:20Z</time>
      </trkpt>
      <trkpt lat="50.34372" lon="4.34294">
        <ele>209.036987</ele>
        <time>2022-08-28T06:23:22Z</time>
      </trkpt>
      <trkpt lat="50.34369" lon="4.34307">
        <ele>209.081177</ele>
        <time>2022-08-28T06:23:24Z</time>
      </trkpt>
      <trkpt lat="50.34366" lon="4.3432">
        <ele>209.011505</ele>
        <time>2022-08-28T06:23:26Z</time>
      </trkpt>
      <trkpt lat="50.34362" lon="4.34333">
        <ele>208.9272</ele>
        <time>2022-08-28T06:23:28Z</time>
      </trkpt>
      <trkpt lat="50.3436" lon="4.3434">
        <ele>208.897736</ele>
        <time>2022-08-28T06:23:29Z</time>
      </trkpt>
      <trkpt lat="50.34356" lon="4.34353">
        <ele>208.828247</ele>
        <time>2022-08-28T06:23:31Z</time>
      </trkpt>
      <trkpt lat="50.34353" lon="4.34366">
        <ele>208.779449</ele>
        <time>2022-08-28T06:23:33Z</time>
      </trkpt>
      <trkpt lat="50.34349" lon="4.34379">
        <ele>208.819061</ele>
        <time>2022-08-28T06:23:35Z</time>
      </trkpt>
      <trkpt lat="50.34345" lon="4.34392">
        <ele>208.886429</ele>
        <time>2022-08-28T06:23:37Z</time>
      </trkpt>
      <trkpt lat="50.3434" lon="4.34411">
        <ele>208.918015</ele>
        <time>2022-08-28T06:23:40Z</time>
      </trkpt>
      <trkpt lat="50.34334" lon="4.34423">
        <ele>208.861176</ele>
        <time>2022-08-28T06:23:42Z</time>
      </trkpt>
      <trkpt lat="50.34328" lon="4.34433">
        <ele>208.858978</ele>
        <time>2022-08-28T06:23:44Z</time>
      </trkpt>
      <trkpt lat="50.34321" lon="4.34443">
        <ele>208.753693</ele>
        <time>2022-08-28T06:23:46Z</time>
      </trkpt>
      <trkpt lat="50.34314" lon="4.34453">
        <ele>208.818771</ele>
        <time>2022-08-28T06:23:48Z</time>
      </trkpt>
      <trkpt lat="50.34306" lon="4.34462">
        <ele>208.913498</ele>
        <time>2022-08-28T06:23:49Z</time>
      </trkpt>
      <trkpt lat="50.34297" lon="4.34472">
        <ele>208.862991</ele>
        <time>2022-08-28T06:23:52Z</time>
      </trkpt>
      <trkpt lat="50.34293" lon="4.34477">
        <ele>208.911407</ele>
        <time>2022-08-28T06:23:53Z</time>
      </trkpt>
      <trkpt lat="50.34285" lon="4.34487">
        <ele>208.915573</ele>
        <time>2022-08-28T06:23:55Z</time>
      </trkpt>
      <trkpt lat="50.34278" lon="4.34498">
        <ele>209.020798</ele>
        <time>2022-08-28T06:23:57Z</time>
      </trkpt>
      <trkpt lat="50.34272" lon="4.3451">
        <ele>209.056595</ele>
        <time>2022-08-28T06:23:59Z</time>
      </trkpt>
      <trkpt lat="50.34266" lon="4.34523">
        <ele>208.991333</ele>
        <time>2022-08-28T06:24:01Z</time>
      </trkpt>
      <trkpt lat="50.34262" lon="4.34536">
        <ele>209.13913</ele>
        <time>2022-08-28T06:24:03Z</time>
      </trkpt>
      <trkpt lat="50.34259" lon="4.3455">
        <ele>209.227539</ele>
        <time>2022-08-28T06:24:05Z</time>
      </trkpt>
      <trkpt lat="50.34257" lon="4.34566">
        <ele>209.337006</ele>
        <time>2022-08-28T06:24:07Z</time>
      </trkpt>
      <trkpt lat="50.34257" lon="4.34581">
        <ele>209.42453</ele>
        <time>2022-08-28T06:24:09Z</time>
      </trkpt>
      <trkpt lat="50.34258" lon="4.34595">
        <ele>209.449799</ele>
        <time>2022-08-28T06:24:11Z</time>
      </trkpt>
      <trkpt lat="50.34258" lon="4.34609">
        <ele>209.530594</ele>
        <time>2022-08-28T06:24:13Z</time>
      </trkpt>
      <trkpt lat="50.34259" lon="4.34622">
        <ele>209.515823</ele>
        <time>2022-08-28T06:24:15Z</time>
      </trkpt>
      <trkpt lat="50.34261" lon="4.34634">
        <ele>209.456879</ele>
        <time>2022-08-28T06:24:17Z</time>
      </trkpt>
      <trkpt lat="50.34265" lon="4.34645">
        <ele>209.444244</ele>
        <time>2022-08-28T06:24:19Z</time>
      </trkpt>
      <trkpt lat="50.34269" lon="4.34649">
        <ele>209.511276</ele>
        <time>2022-08-28T06:24:20Z</time>
      </trkpt>
      <trkpt lat="50.34276" lon="4.34657">
        <ele>209.542847</ele>
        <time>2022-08-28T06:24:22Z</time>
      </trkpt>
      <trkpt lat="50.34284" lon="4.34664">
        <ele>209.65654</ele>
        <time>2022-08-28T06:24:24Z</time>
      </trkpt>
      <trkpt lat="50.34292" lon="4.34671">
        <ele>209.766571</ele>
        <time>2022-08-28T06:24:26Z</time>
      </trkpt>
      <trkpt lat="50.343" lon="4.34677">
        <ele>209.62793</ele>
        <time>2022-08-28T06:24:28Z</time>
      </trkpt>
      <trkpt lat="50.34308" lon="4.34684">
        <ele>209.642548</ele>
        <time>2022-08-28T06:24:30Z</time>
      </trkpt>
      <trkpt lat="50.34315" lon="4.3469">
        <ele>209.646759</ele>
        <time>2022-08-28T06:24:32Z</time>
      </trkpt>
      <trkpt lat="50.34322" lon="4.34696">
        <ele>209.752029</ele>
        <time>2022-08-28T06:24:34Z</time>
      </trkpt>
      <trkpt lat="50.3433" lon="4.34702">
        <ele>209.907837</ele>
        <time>2022-08-28T06:24:36Z</time>
      </trkpt>
      <trkpt lat="50.34338" lon="4.34708">
        <ele>210.101563</ele>
        <time>2022-08-28T06:24:38Z</time>
      </trkpt>
      <trkpt lat="50.34346" lon="4.34715">
        <ele>210.12471</ele>
        <time>2022-08-28T06:24:40Z</time>
      </trkpt>
      <trkpt lat="50.34353" lon="4.34722">
        <ele>210.312103</ele>
        <time>2022-08-28T06:24:42Z</time>
      </trkpt>
      <trkpt lat="50.34361" lon="4.34728">
        <ele>210.482666</ele>
        <time>2022-08-28T06:24:44Z</time>
      </trkpt>
      <trkpt lat="50.34369" lon="4.34734">
        <ele>210.607422</ele>
        <time>2022-08-28T06:24:46Z</time>
      </trkpt>
      <trkpt lat="50.34376" lon="4.34739">
        <ele>210.699615</ele>
        <time>2022-08-28T06:24:48Z</time>
      </trkpt>
      <trkpt lat="50.34383" lon="4.34745">
        <ele>210.788055</ele>
        <time>2022-08-28T06:24:50Z</time>
      </trkpt>
      <trkpt lat="50.34391" lon="4.34751">
        <ele>210.889114</ele>
        <time>2022-08-28T06:24:51Z</time>
      </trkpt>
      <trkpt lat="50.34399" lon="4.34758">
        <ele>211.109009</ele>
        <time>2022-08-28T06:24:54Z</time>
      </trkpt>
      <trkpt lat="50.34407" lon="4.34765">
        <ele>211.199539</ele>
        <time>2022-08-28T06:24:56Z</time>
      </trkpt>
      <trkpt lat="50.34415" lon="4.34771">
        <ele>211.466965</ele>
        <time>2022-08-28T06:24:58Z</time>
      </trkpt>
      <trkpt lat="50.34422" lon="4.34777">
        <ele>211.708008</ele>
        <time>2022-08-28T06:25:00Z</time>
      </trkpt>
      <trkpt lat="50.3443" lon="4.34783">
        <ele>211.916824</ele>
        <time>2022-08-28T06:25:02Z</time>
      </trkpt>
      <trkpt lat="50.34437" lon="4.34789">
        <ele>212.136566</ele>
        <time>2022-08-28T06:25:04Z</time>
      </trkpt>
      <trkpt lat="50.34444" lon="4.34796">
        <ele>212.343216</ele>
        <time>2022-08-28T06:25:06Z</time>
      </trkpt>
      <trkpt lat="50.34448" lon="4.34799">
        <ele>212.427765</ele>
        <time>2022-08-28T06:25:07Z</time>
      </trkpt>
      <trkpt lat="50.34455" lon="4.34805">
        <ele>212.797043</ele>
        <time>2022-08-28T06:25:09Z</time>
      </trkpt>
      <trkpt lat="50.34462" lon="4.34812">
        <ele>212.8918</ele>
        <time>2022-08-28T06:25:11Z</time>
      </trkpt>
      <trkpt lat="50.34469" lon="4.34819">
        <ele>213.182404</ele>
        <time>2022-08-28T06:25:13Z</time>
      </trkpt>
      <trkpt lat="50.34475" lon="4.34828">
        <ele>213.119232</ele>
        <time>2022-08-28T06:25:15Z</time>
      </trkpt>
      <trkpt lat="50.3448" lon="4.34838">
        <ele>213.159256</ele>
        <time>2022-08-28T06:25:17Z</time>
      </trkpt>
      <trkpt lat="50.34482" lon="4.34846">
        <ele>213.220337</ele>
        <time>2022-08-28T06:25:19Z</time>
      </trkpt>
      <trkpt lat="50.34485" lon="4.34853">
        <ele>213.525681</ele>
        <time>2022-08-28T06:25:21Z</time>
      </trkpt>
      <trkpt lat="50.3449" lon="4.3486">
        <ele>213.572021</ele>
        <time>2022-08-28T06:25:23Z</time>
      </trkpt>
      <trkpt lat="50.34495" lon="4.34864">
        <ele>213.456207</ele>
        <time>2022-08-28T06:25:25Z</time>
      </trkpt>
      <trkpt lat="50.34502" lon="4.34865">
        <ele>213.510422</ele>
        <time>2022-08-28T06:25:27Z</time>
      </trkpt>
      <trkpt lat="50.34509" lon="4.34862">
        <ele>213.626709</ele>
        <time>2022-08-28T06:25:29Z</time>
      </trkpt>
      <trkpt lat="50.34516" lon="4.34861">
        <ele>213.723557</ele>
        <time>2022-08-28T06:25:31Z</time>
      </trkpt>
      <trkpt lat="50.34523" lon="4.34861">
        <ele>213.735352</ele>
        <time>2022-08-28T06:25:33Z</time>
      </trkpt>
      <trkpt lat="50.34531" lon="4.34862">
        <ele>213.843185</ele>
        <time>2022-08-28T06:25:35Z</time>
      </trkpt>
      <trkpt lat="50.34539" lon="4.34862">
        <ele>213.910965</ele>
        <time>2022-08-28T06:25:37Z</time>
      </trkpt>
      <trkpt lat="50.34547" lon="4.34861">
        <ele>213.86853</ele>
        <time>2022-08-28T06:25:39Z</time>
      </trkpt>
      <trkpt lat="50.34555" lon="4.34861">
        <ele>213.882278</ele>
        <time>2022-08-28T06:25:41Z</time>
      </trkpt>
      <trkpt lat="50.34564" lon="4.34859">
        <ele>213.880203</ele>
        <time>2022-08-28T06:25:43Z</time>
      </trkpt>
      <trkpt lat="50.34573" lon="4.34857">
        <ele>213.86467</ele>
        <time>2022-08-28T06:25:45Z</time>
      </trkpt>
      <trkpt lat="50.34583" lon="4.34854">
        <ele>213.726959</ele>
        <time>2022-08-28T06:25:47Z</time>
      </trkpt>
      <trkpt lat="50.34593" lon="4.34852">
        <ele>213.736252</ele>
        <time>2022-08-28T06:25:49Z</time>
      </trkpt>
      <trkpt lat="50.34602" lon="4.3485">
        <ele>213.734161</ele>
        <time>2022-08-28T06:25:51Z</time>
      </trkpt>
      <trkpt lat="50.34613" lon="4.34848">
        <ele>213.702545</ele>
        <time>2022-08-28T06:25:53Z</time>
      </trkpt>
      <trkpt lat="50.34623" lon="4.34848">
        <ele>213.732025</ele>
        <time>2022-08-28T06:25:55Z</time>
      </trkpt>
      <trkpt lat="50.34632" lon="4.3485">
        <ele>213.790573</ele>
        <time>2022-08-28T06:25:57Z</time>
      </trkpt>
      <trkpt lat="50.34642" lon="4.34852">
        <ele>213.60527</ele>
        <time>2022-08-28T06:25:59Z</time>
      </trkpt>
      <trkpt lat="50.34652" lon="4.34855">
        <ele>213.29155</ele>
        <time>2022-08-28T06:26:01Z</time>
      </trkpt>
      <trkpt lat="50.34661" lon="4.34858">
        <ele>213.17363</ele>
        <time>2022-08-28T06:26:03Z</time>
      </trkpt>
      <trkpt lat="50.34671" lon="4.34862">
        <ele>213.213654</ele>
        <time>2022-08-28T06:26:05Z</time>
      </trkpt>
      <trkpt lat="50.34681" lon="4.34865">
        <ele>213.220749</ele>
        <time>2022-08-28T06:26:07Z</time>
      </trkpt>
      <trkpt lat="50.3469" lon="4.34869">
        <ele>213.01236</ele>
        <time>2022-08-28T06:26:09Z</time>
      </trkpt>
      <trkpt lat="50.347" lon="4.34872">
        <ele>213.117722</ele>
        <time>2022-08-28T06:26:11Z</time>
      </trkpt>
      <trkpt lat="50.34709" lon="4.34873">
        <ele>213.071136</ele>
        <time>2022-08-28T06:26:13Z</time>
      </trkpt>
      <trkpt lat="50.34719" lon="4.34873">
        <ele>213.06723</ele>
        <time>2022-08-28T06:26:15Z</time>
      </trkpt>
      <trkpt lat="50.34729" lon="4.3487">
        <ele>213.0289</ele>
        <time>2022-08-28T06:26:17Z</time>
      </trkpt>
      <trkpt lat="50.34738" lon="4.34864">
        <ele>212.679398</ele>
        <time>2022-08-28T06:26:19Z</time>
      </trkpt>
      <trkpt lat="50.34748" lon="4.34858">
        <ele>212.561798</ele>
        <time>2022-08-28T06:26:21Z</time>
      </trkpt>
      <trkpt lat="50.34763" lon="4.3485">
        <ele>212.159592</ele>
        <time>2022-08-28T06:26:24Z</time>
      </trkpt>
      <trkpt lat="50.34773" lon="4.34844">
        <ele>211.949097</ele>
        <time>2022-08-28T06:26:26Z</time>
      </trkpt>
      <trkpt lat="50.34783" lon="4.34839">
        <ele>211.740646</ele>
        <time>2022-08-28T06:26:28Z</time>
      </trkpt>
      <trkpt lat="50.34793" lon="4.34834">
        <ele>211.620728</ele>
        <time>2022-08-28T06:26:30Z</time>
      </trkpt>
      <trkpt lat="50.34803" lon="4.34828">
        <ele>211.235428</ele>
        <time>2022-08-28T06:26:32Z</time>
      </trkpt>
      <trkpt lat="50.34813" lon="4.34822">
        <ele>210.949097</ele>
        <time>2022-08-28T06:26:34Z</time>
      </trkpt>
      <trkpt lat="50.34823" lon="4.34816">
        <ele>210.812225</ele>
        <time>2022-08-28T06:26:36Z</time>
      </trkpt>
      <trkpt lat="50.34833" lon="4.3481">
        <ele>210.532593</ele>
        <time>2022-08-28T06:26:38Z</time>
      </trkpt>
      <trkpt lat="50.34843" lon="4.34805">
        <ele>210.425217</ele>
        <time>2022-08-28T06:26:40Z</time>
      </trkpt>
      <trkpt lat="50.34853" lon="4.34799">
        <ele>210.427292</ele>
        <time>2022-08-28T06:26:42Z</time>
      </trkpt>
      <trkpt lat="50.34862" lon="4.34793">
        <ele>210.191162</ele>
        <time>2022-08-28T06:26:44Z</time>
      </trkpt>
      <trkpt lat="50.34871" lon="4.34786">
        <ele>209.982788</ele>
        <time>2022-08-28T06:26:46Z</time>
      </trkpt>
      <trkpt lat="50.34879" lon="4.34777">
        <ele>209.613937</ele>
        <time>2022-08-28T06:26:48Z</time>
      </trkpt>
      <trkpt lat="50.34882" lon="4.34762">
        <ele>209.44162</ele>
        <time>2022-08-28T06:26:50Z</time>
      </trkpt>
      <trkpt lat="50.34882" lon="4.34738">
        <ele>208.56723</ele>
        <time>2022-08-28T06:26:53Z</time>
      </trkpt>
      <trkpt lat="50.34881" lon="4.34723">
        <ele>208.012177</ele>
        <time>2022-08-28T06:26:55Z</time>
      </trkpt>
      <trkpt lat="50.3488" lon="4.34708">
        <ele>207.576447</ele>
        <time>2022-08-28T06:26:57Z</time>
      </trkpt>
      <trkpt lat="50.3488" lon="4.34693">
        <ele>207.25</ele>
        <time>2022-08-28T06:26:59Z</time>
      </trkpt>
      <trkpt lat="50.34879" lon="4.34678">
        <ele>206.932175</ele>
        <time>2022-08-28T06:27:01Z</time>
      </trkpt>
      <trkpt lat="50.34878" lon="4.34663">
        <ele>206.565948</ele>
        <time>2022-08-28T06:27:03Z</time>
      </trkpt>
      <trkpt lat="50.34877" lon="4.34648">
        <ele>206.332321</ele>
        <time>2022-08-28T06:27:05Z</time>
      </trkpt>
      <trkpt lat="50.34877" lon="4.34633">
        <ele>206.050079</ele>
        <time>2022-08-28T06:27:07Z</time>
      </trkpt>
      <trkpt lat="50.34876" lon="4.34618">
        <ele>205.843872</ele>
        <time>2022-08-28T06:27:09Z</time>
      </trkpt>
      <trkpt lat="50.34875" lon="4.34597">
        <ele>205.550781</ele>
        <time>2022-08-28T06:27:12Z</time>
      </trkpt>
      <trkpt lat="50.34874" lon="4.34582">
        <ele>205.428741</ele>
        <time>2022-08-28T06:27:14Z</time>
      </trkpt>
      <trkpt lat="50.34873" lon="4.34568">
        <ele>205.100418</ele>
        <time>2022-08-28T06:27:16Z</time>
      </trkpt>
      <trkpt lat="50.34872" lon="4.34553">
        <ele>204.723663</ele>
        <time>2022-08-28T06:27:18Z</time>
      </trkpt>
      <trkpt lat="50.34871" lon="4.34538">
        <ele>204.450134</ele>
        <time>2022-08-28T06:27:20Z</time>
      </trkpt>
      <trkpt lat="50.34871" lon="4.34523">
        <ele>204.11972</ele>
        <time>2022-08-28T06:27:22Z</time>
      </trkpt>
      <trkpt lat="50.3487" lon="4.34509">
        <ele>203.819092</ele>
        <time>2022-08-28T06:27:24Z</time>
      </trkpt>
      <trkpt lat="50.34869" lon="4.34494">
        <ele>203.779114</ele>
        <time>2022-08-28T06:27:26Z</time>
      </trkpt>
      <trkpt lat="50.34868" lon="4.3448">
        <ele>203.642349</ele>
        <time>2022-08-28T06:27:28Z</time>
      </trkpt>
      <trkpt lat="50.34868" lon="4.34473">
        <ele>203.530396</ele>
        <time>2022-08-28T06:27:29Z</time>
      </trkpt>
      <trkpt lat="50.34867" lon="4.34459">
        <ele>203.361725</ele>
        <time>2022-08-28T06:27:31Z</time>
      </trkpt>
      <trkpt lat="50.34866" lon="4.34446">
        <ele>203.187103</ele>
        <time>2022-08-28T06:27:33Z</time>
      </trkpt>
      <trkpt lat="50.34866" lon="4.34432">
        <ele>203.194077</ele>
        <time>2022-08-28T06:27:35Z</time>
      </trkpt>
      <trkpt lat="50.34865" lon="4.34419">
        <ele>203.27681</ele>
        <time>2022-08-28T06:27:37Z</time>
      </trkpt>
      <trkpt lat="50.34866" lon="4.34407">
        <ele>203.102188</ele>
        <time>2022-08-28T06:27:39Z</time>
      </trkpt>
      <trkpt lat="50.34867" lon="4.34397">
        <ele>202.884735</ele>
        <time>2022-08-28T06:27:41Z</time>
      </trkpt>
      <trkpt lat="50.3487" lon="4.34384">
        <ele>202.926804</ele>
        <time>2022-08-28T06:27:43Z</time>
      </trkpt>
      <trkpt lat="50.34874" lon="4.34371">
        <ele>202.738129</ele>
        <time>2022-08-28T06:27:45Z</time>
      </trkpt>
      <trkpt lat="50.34877" lon="4.34358">
        <ele>202.67923</ele>
        <time>2022-08-28T06:27:47Z</time>
      </trkpt>
      <trkpt lat="50.3488" lon="4.34347">
        <ele>202.631012</ele>
        <time>2022-08-28T06:27:49Z</time>
      </trkpt>
      <trkpt lat="50.34884" lon="4.34335">
        <ele>202.605759</ele>
        <time>2022-08-28T06:27:51Z</time>
      </trkpt>
      <trkpt lat="50.34888" lon="4.34321">
        <ele>202.391708</ele>
        <time>2022-08-28T06:27:53Z</time>
      </trkpt>
      <trkpt lat="50.34894" lon="4.3431">
        <ele>202.273895</ele>
        <time>2022-08-28T06:27:55Z</time>
      </trkpt>
      <trkpt lat="50.34902" lon="4.343">
        <ele>202.273926</ele>
        <time>2022-08-28T06:27:57Z</time>
      </trkpt>
      <trkpt lat="50.34909" lon="4.34289">
        <ele>201.584625</ele>
        <time>2022-08-28T06:27:59Z</time>
      </trkpt>
      <trkpt lat="50.34916" lon="4.34278">
        <ele>201.525726</ele>
        <time>2022-08-28T06:28:01Z</time>
      </trkpt>
      <trkpt lat="50.34922" lon="4.34268">
        <ele>201.435272</ele>
        <time>2022-08-28T06:28:03Z</time>
      </trkpt>
      <trkpt lat="50.3493" lon="4.34262">
        <ele>201.283813</ele>
        <time>2022-08-28T06:28:05Z</time>
      </trkpt>
      <trkpt lat="50.34938" lon="4.34263">
        <ele>201.110962</ele>
        <time>2022-08-28T06:28:07Z</time>
      </trkpt>
      <trkpt lat="50.34945" lon="4.34267">
        <ele>200.766006</ele>
        <time>2022-08-28T06:28:09Z</time>
      </trkpt>
      <trkpt lat="50.34948" lon="4.34268">
        <ele>200.662933</ele>
        <time>2022-08-28T06:28:10Z</time>
      </trkpt>
      <trkpt lat="50.34953" lon="4.34271">
        <ele>200.564911</ele>
        <time>2022-08-28T06:28:12Z</time>
      </trkpt>
      <trkpt lat="50.34958" lon="4.34273">
        <ele>200.318817</ele>
        <time>2022-08-28T06:28:14Z</time>
      </trkpt>
      <trkpt lat="50.34963" lon="4.34274">
        <ele>200.078827</ele>
        <time>2022-08-28T06:28:16Z</time>
      </trkpt>
      <trkpt lat="50.3497" lon="4.34273">
        <ele>199.90564</ele>
        <time>2022-08-28T06:28:18Z</time>
      </trkpt>
      <trkpt lat="50.34979" lon="4.34275">
        <ele>199.762619</ele>
        <time>2022-08-28T06:28:20Z</time>
      </trkpt>
      <trkpt lat="50.34986" lon="4.34275">
        <ele>199.862411</ele>
        <time>2022-08-28T06:28:22Z</time>
      </trkpt>
      <trkpt lat="50.34993" lon="4.34275">
        <ele>199.458588</ele>
        <time>2022-08-28T06:28:24Z</time>
      </trkpt>
      <trkpt lat="50.35" lon="4.34274">
        <ele>199.878998</ele>
        <time>2022-08-28T06:28:26Z</time>
      </trkpt>
      <trkpt lat="50.35003" lon="4.34273">
        <ele>199.759094</ele>
        <time>2022-08-28T06:28:27Z</time>
      </trkpt>
      <trkpt lat="50.35011" lon="4.34273">
        <ele>199.479385</ele>
        <time>2022-08-28T06:28:29Z</time>
      </trkpt>
      <trkpt lat="50.35021" lon="4.34276">
        <ele>199.288467</ele>
        <time>2022-08-28T06:28:31Z</time>
      </trkpt>
      <trkpt lat="50.35029" lon="4.34277">
        <ele>199.627548</ele>
        <time>2022-08-28T06:28:33Z</time>
      </trkpt>
      <trkpt lat="50.35039" lon="4.34278">
        <ele>199.41095</ele>
        <time>2022-08-28T06:28:35Z</time>
      </trkpt>
      <trkpt lat="50.35046" lon="4.34279">
        <ele>198.973419</ele>
        <time>2022-08-28T06:28:37Z</time>
      </trkpt>
      <trkpt lat="50.35054" lon="4.34278">
        <ele>199.439835</ele>
        <time>2022-08-28T06:28:39Z</time>
      </trkpt>
      <trkpt lat="50.35062" lon="4.34275">
        <ele>199.328384</ele>
        <time>2022-08-28T06:28:41Z</time>
      </trkpt>
      <trkpt lat="50.35074" lon="4.34274">
        <ele>199.216278</ele>
        <time>2022-08-28T06:28:43Z</time>
      </trkpt>
      <trkpt lat="50.35084" lon="4.34274">
        <ele>199.087418</ele>
        <time>2022-08-28T06:28:45Z</time>
      </trkpt>
      <trkpt lat="50.35092" lon="4.34273">
        <ele>198.665192</ele>
        <time>2022-08-28T06:28:47Z</time>
      </trkpt>
      <trkpt lat="50.35101" lon="4.34274">
        <ele>198.61264</ele>
        <time>2022-08-28T06:28:49Z</time>
      </trkpt>
      <trkpt lat="50.35109" lon="4.3428">
        <ele>198.46199</ele>
        <time>2022-08-28T06:28:51Z</time>
      </trkpt>
      <trkpt lat="50.35112" lon="4.3429">
        <ele>198.072174</ele>
        <time>2022-08-28T06:28:53Z</time>
      </trkpt>
      <trkpt lat="50.35115" lon="4.34299">
        <ele>197.977585</ele>
        <time>2022-08-28T06:28:55Z</time>
      </trkpt>
      <trkpt lat="50.35119" lon="4.3431">
        <ele>197.841385</ele>
        <time>2022-08-28T06:28:57Z</time>
      </trkpt>
      <trkpt lat="50.3512" lon="4.34323">
        <ele>197.62059</ele>
        <time>2022-08-28T06:28:59Z</time>
      </trkpt>
      <trkpt lat="50.35123" lon="4.34334">
        <ele>197.443817</ele>
        <time>2022-08-28T06:29:01Z</time>
      </trkpt>
      <trkpt lat="50.35124" lon="4.34345">
        <ele>197.067368</ele>
        <time>2022-08-28T06:29:03Z</time>
      </trkpt>
      <trkpt lat="50.35125" lon="4.34357">
        <ele>197.001358</ele>
        <time>2022-08-28T06:29:05Z</time>
      </trkpt>
      <trkpt lat="50.35127" lon="4.3437">
        <ele>196.441467</ele>
        <time>2022-08-28T06:29:07Z</time>
      </trkpt>
      <trkpt lat="50.35129" lon="4.34384">
        <ele>196.30014</ele>
        <time>2022-08-28T06:29:09Z</time>
      </trkpt>
      <trkpt lat="50.35132" lon="4.34397">
        <ele>196.161392</ele>
        <time>2022-08-28T06:29:11Z</time>
      </trkpt>
      <trkpt lat="50.35133" lon="4.34411">
        <ele>196.069229</ele>
        <time>2022-08-28T06:29:13Z</time>
      </trkpt>
      <trkpt lat="50.35135" lon="4.34424">
        <ele>195.574493</ele>
        <time>2022-08-28T06:29:15Z</time>
      </trkpt>
      <trkpt lat="50.35136" lon="4.34436">
        <ele>195.568375</ele>
        <time>2022-08-28T06:29:17Z</time>
      </trkpt>
      <trkpt lat="50.35137" lon="4.34447">
        <ele>195.614639</ele>
        <time>2022-08-28T06:29:19Z</time>
      </trkpt>
      <trkpt lat="50.35137" lon="4.34459">
        <ele>195.416962</ele>
        <time>2022-08-28T06:29:21Z</time>
      </trkpt>
      <trkpt lat="50.35138" lon="4.34471">
        <ele>195.430206</ele>
        <time>2022-08-28T06:29:23Z</time>
      </trkpt>
      <trkpt lat="50.35138" lon="4.34482">
        <ele>195.4216</ele>
        <time>2022-08-28T06:29:24Z</time>
      </trkpt>
      <trkpt lat="50.3514" lon="4.34494">
        <ele>195.564545</ele>
        <time>2022-08-28T06:29:27Z</time>
      </trkpt>
      <trkpt lat="50.35141" lon="4.34505">
        <ele>195.713776</ele>
        <time>2022-08-28T06:29:29Z</time>
      </trkpt>
      <trkpt lat="50.35141" lon="4.34518">
        <ele>196.311462</ele>
        <time>2022-08-28T06:29:31Z</time>
      </trkpt>
      <trkpt lat="50.35142" lon="4.34532">
        <ele>196.493591</ele>
        <time>2022-08-28T06:29:33Z</time>
      </trkpt>
      <trkpt lat="50.35145" lon="4.34546">
        <ele>196.668106</ele>
        <time>2022-08-28T06:29:35Z</time>
      </trkpt>
      <trkpt lat="50.35147" lon="4.34561">
        <ele>196.813171</ele>
        <time>2022-08-28T06:29:37Z</time>
      </trkpt>
      <trkpt lat="50.3515" lon="4.34577">
        <ele>196.85524</ele>
        <time>2022-08-28T06:29:39Z</time>
      </trkpt>
      <trkpt lat="50.35154" lon="4.34594">
        <ele>196.510849</ele>
        <time>2022-08-28T06:29:41Z</time>
      </trkpt>
      <trkpt lat="50.35157" lon="4.34611">
        <ele>197.237</ele>
        <time>2022-08-28T06:29:43Z</time>
      </trkpt>
      <trkpt lat="50.35158" lon="4.34625">
        <ele>197.459839</ele>
        <time>2022-08-28T06:29:45Z</time>
      </trkpt>
      <trkpt lat="50.35159" lon="4.34642">
        <ele>197.633087</ele>
        <time>2022-08-28T06:29:47Z</time>
      </trkpt>
      <trkpt lat="50.3516" lon="4.34658">
        <ele>197.76181</ele>
        <time>2022-08-28T06:29:49Z</time>
      </trkpt>
      <trkpt lat="50.3516" lon="4.34671">
        <ele>197.850128</ele>
        <time>2022-08-28T06:29:51Z</time>
      </trkpt>
      <trkpt lat="50.3516" lon="4.34687">
        <ele>198.06723</ele>
        <time>2022-08-28T06:29:53Z</time>
      </trkpt>
      <trkpt lat="50.3516" lon="4.34701">
        <ele>198.170258</ele>
        <time>2022-08-28T06:29:55Z</time>
      </trkpt>
      <trkpt lat="50.3516" lon="4.34723">
        <ele>198.176407</ele>
        <time>2022-08-28T06:29:58Z</time>
      </trkpt>
      <trkpt lat="50.35162" lon="4.34737">
        <ele>198.207962</ele>
        <time>2022-08-28T06:30:00Z</time>
      </trkpt>
      <trkpt lat="50.35164" lon="4.34755">
        <ele>198.315186</ele>
        <time>2022-08-28T06:30:02Z</time>
      </trkpt>
      <trkpt lat="50.35165" lon="4.34771">
        <ele>198.878494</ele>
        <time>2022-08-28T06:30:04Z</time>
      </trkpt>
      <trkpt lat="50.35165" lon="4.34783">
        <ele>198.849823</ele>
        <time>2022-08-28T06:30:06Z</time>
      </trkpt>
      <trkpt lat="50.35167" lon="4.34801">
        <ele>198.811981</ele>
        <time>2022-08-28T06:30:08Z</time>
      </trkpt>
      <trkpt lat="50.35169" lon="4.34817">
        <ele>198.889771</ele>
        <time>2022-08-28T06:30:10Z</time>
      </trkpt>
      <trkpt lat="50.3517" lon="4.34832">
        <ele>199.373993</ele>
        <time>2022-08-28T06:30:12Z</time>
      </trkpt>
      <trkpt lat="50.35171" lon="4.34845">
        <ele>198.917175</ele>
        <time>2022-08-28T06:30:14Z</time>
      </trkpt>
      <trkpt lat="50.35172" lon="4.34859">
        <ele>198.965546</ele>
        <time>2022-08-28T06:30:16Z</time>
      </trkpt>
      <trkpt lat="50.35171" lon="4.34874">
        <ele>198.889832</ele>
        <time>2022-08-28T06:30:18Z</time>
      </trkpt>
      <trkpt lat="50.35173" lon="4.34886">
        <ele>199.009308</ele>
        <time>2022-08-28T06:30:20Z</time>
      </trkpt>
      <trkpt lat="50.35175" lon="4.34903">
        <ele>199.526093</ele>
        <time>2022-08-28T06:30:22Z</time>
      </trkpt>
      <trkpt lat="50.35178" lon="4.34919">
        <ele>198.982895</ele>
        <time>2022-08-28T06:30:24Z</time>
      </trkpt>
      <trkpt lat="50.35179" lon="4.34934">
        <ele>198.983307</ele>
        <time>2022-08-28T06:30:26Z</time>
      </trkpt>
      <trkpt lat="50.35181" lon="4.34949">
        <ele>199.06131</ele>
        <time>2022-08-28T06:30:28Z</time>
      </trkpt>
      <trkpt lat="50.35182" lon="4.34966">
        <ele>199.082397</ele>
        <time>2022-08-28T06:30:30Z</time>
      </trkpt>
      <trkpt lat="50.35182" lon="4.34982">
        <ele>199.130768</ele>
        <time>2022-08-28T06:30:32Z</time>
      </trkpt>
      <trkpt lat="50.35181" lon="4.34999">
        <ele>198.578979</ele>
        <time>2022-08-28T06:30:34Z</time>
      </trkpt>
      <trkpt lat="50.3518" lon="4.35015">
        <ele>198.539017</ele>
        <time>2022-08-28T06:30:36Z</time>
      </trkpt>
      <trkpt lat="50.3518" lon="4.35031">
        <ele>198.534821</ele>
        <time>2022-08-28T06:30:38Z</time>
      </trkpt>
      <trkpt lat="50.35179" lon="4.35038">
        <ele>198.494843</ele>
        <time>2022-08-28T06:30:39Z</time>
      </trkpt>
      <trkpt lat="50.35178" lon="4.35054">
        <ele>198.844894</ele>
        <time>2022-08-28T06:30:41Z</time>
      </trkpt>
      <trkpt lat="50.35177" lon="4.35067">
        <ele>198.844894</ele>
        <time>2022-08-28T06:30:43Z</time>
      </trkpt>
      <trkpt lat="50.35177" lon="4.3508">
        <ele>198.967651</ele>
        <time>2022-08-28T06:30:45Z</time>
      </trkpt>
      <trkpt lat="50.35176" lon="4.35096">
        <ele>198.950836</ele>
        <time>2022-08-28T06:30:47Z</time>
      </trkpt>
      <trkpt lat="50.35177" lon="4.35109">
        <ele>199.196899</ele>
        <time>2022-08-28T06:30:49Z</time>
      </trkpt>
      <trkpt lat="50.35176" lon="4.35117">
        <ele>199.316772</ele>
        <time>2022-08-28T06:30:51Z</time>
      </trkpt>
      <trkpt lat="50.35176" lon="4.35129">
        <ele>198.977661</ele>
        <time>2022-08-28T06:30:52Z</time>
      </trkpt>
      <trkpt lat="50.35175" lon="4.35142">
        <ele>199.015259</ele>
        <time>2022-08-28T06:30:55Z</time>
      </trkpt>
      <trkpt lat="50.35174" lon="4.35158">
        <ele>199.262375</ele>
        <time>2022-08-28T06:30:57Z</time>
      </trkpt>
      <trkpt lat="50.35172" lon="4.35177">
        <ele>199.310745</ele>
        <time>2022-08-28T06:30:59Z</time>
      </trkpt>
      <trkpt lat="50.35172" lon="4.35184">
        <ele>199.357025</ele>
        <time>2022-08-28T06:31:00Z</time>
      </trkpt>
      <trkpt lat="50.3517" lon="4.35198">
        <ele>199.487091</ele>
        <time>2022-08-28T06:31:02Z</time>
      </trkpt>
      <trkpt lat="50.3517" lon="4.35215">
        <ele>199.543884</ele>
        <time>2022-08-28T06:31:04Z</time>
      </trkpt>
      <trkpt lat="50.35169" lon="4.35231">
        <ele>199.674423</ele>
        <time>2022-08-28T06:31:06Z</time>
      </trkpt>
      <trkpt lat="50.35169" lon="4.35249">
        <ele>199.718231</ele>
        <time>2022-08-28T06:31:08Z</time>
      </trkpt>
      <trkpt lat="50.35169" lon="4.35267">
        <ele>199.810577</ele>
        <time>2022-08-28T06:31:10Z</time>
      </trkpt>
      <trkpt lat="50.35167" lon="4.35287">
        <ele>199.772675</ele>
        <time>2022-08-28T06:31:12Z</time>
      </trkpt>
      <trkpt lat="50.35166" lon="4.35304">
        <ele>200.416718</ele>
        <time>2022-08-28T06:31:14Z</time>
      </trkpt>
      <trkpt lat="50.35166" lon="4.35322">
        <ele>201.007095</ele>
        <time>2022-08-28T06:31:16Z</time>
      </trkpt>
      <trkpt lat="50.35166" lon="4.35339">
        <ele>201.085007</ele>
        <time>2022-08-28T06:31:18Z</time>
      </trkpt>
      <trkpt lat="50.35165" lon="4.35353">
        <ele>200.954651</ele>
        <time>2022-08-28T06:31:20Z</time>
      </trkpt>
      <trkpt lat="50.35166" lon="4.35367">
        <ele>200.947357</ele>
        <time>2022-08-28T06:31:22Z</time>
      </trkpt>
      <trkpt lat="50.35166" lon="4.35389">
        <ele>201.1745</ele>
        <time>2022-08-28T06:31:25Z</time>
      </trkpt>
      <trkpt lat="50.35165" lon="4.35402">
        <ele>201.170303</ele>
        <time>2022-08-28T06:31:27Z</time>
      </trkpt>
      <trkpt lat="50.35164" lon="4.35419">
        <ele>200.698715</ele>
        <time>2022-08-28T06:31:29Z</time>
      </trkpt>
      <trkpt lat="50.35165" lon="4.35436">
        <ele>200.681885</ele>
        <time>2022-08-28T06:31:31Z</time>
      </trkpt>
      <trkpt lat="50.35167" lon="4.35452">
        <ele>200.576721</ele>
        <time>2022-08-28T06:31:33Z</time>
      </trkpt>
      <trkpt lat="50.35165" lon="4.35466">
        <ele>200.597748</ele>
        <time>2022-08-28T06:31:35Z</time>
      </trkpt>
      <trkpt lat="50.35162" lon="4.35478">
        <ele>200.631699</ele>
        <time>2022-08-28T06:31:37Z</time>
      </trkpt>
      <trkpt lat="50.35158" lon="4.3549">
        <ele>200.824417</ele>
        <time>2022-08-28T06:31:39Z</time>
      </trkpt>
      <trkpt lat="50.35152" lon="4.35501">
        <ele>200.999008</ele>
        <time>2022-08-28T06:31:41Z</time>
      </trkpt>
      <trkpt lat="50.35146" lon="4.35515">
        <ele>200.982895</ele>
        <time>2022-08-28T06:31:43Z</time>
      </trkpt>
      <trkpt lat="50.3514" lon="4.35529">
        <ele>201.064926</ele>
        <time>2022-08-28T06:31:45Z</time>
      </trkpt>
      <trkpt lat="50.35135" lon="4.35541">
        <ele>201.123444</ele>
        <time>2022-08-28T06:31:47Z</time>
      </trkpt>
      <trkpt lat="50.35129" lon="4.35556">
        <ele>200.690536</ele>
        <time>2022-08-28T06:31:49Z</time>
      </trkpt>
      <trkpt lat="50.35123" lon="4.3557">
        <ele>200.635864</ele>
        <time>2022-08-28T06:31:51Z</time>
      </trkpt>
      <trkpt lat="50.35117" lon="4.35582">
        <ele>200.709473</ele>
        <time>2022-08-28T06:31:53Z</time>
      </trkpt>
      <trkpt lat="50.35111" lon="4.35594">
        <ele>200.821945</ele>
        <time>2022-08-28T06:31:55Z</time>
      </trkpt>
      <trkpt lat="50.35104" lon="4.35605">
        <ele>200.404633</ele>
        <time>2022-08-28T06:31:57Z</time>
      </trkpt>
      <trkpt lat="50.35098" lon="4.35617">
        <ele>200.41716</ele>
        <time>2022-08-28T06:31:59Z</time>
      </trkpt>
      <trkpt lat="50.35091" lon="4.35629">
        <ele>200.549637</ele>
        <time>2022-08-28T06:32:01Z</time>
      </trkpt>
      <trkpt lat="50.35085" lon="4.35641">
        <ele>200.549622</ele>
        <time>2022-08-28T06:32:03Z</time>
      </trkpt>
      <trkpt lat="50.35078" lon="4.35652">
        <ele>200.633759</ele>
        <time>2022-08-28T06:32:05Z</time>
      </trkpt>
      <trkpt lat="50.35071" lon="4.35663">
        <ele>200.602341</ele>
        <time>2022-08-28T06:32:07Z</time>
      </trkpt>
      <trkpt lat="50.35065" lon="4.35674">
        <ele>200.809402</ele>
        <time>2022-08-28T06:32:09Z</time>
      </trkpt>
      <trkpt lat="50.35059" lon="4.35686">
        <ele>200.940948</ele>
        <time>2022-08-28T06:32:11Z</time>
      </trkpt>
      <trkpt lat="50.35053" lon="4.35696">
        <ele>201.01828</ele>
        <time>2022-08-28T06:32:13Z</time>
      </trkpt>
      <trkpt lat="50.35047" lon="4.35706">
        <ele>201.022125</ele>
        <time>2022-08-28T06:32:15Z</time>
      </trkpt>
      <trkpt lat="50.3504" lon="4.35717">
        <ele>201.062088</ele>
        <time>2022-08-28T06:32:17Z</time>
      </trkpt>
      <trkpt lat="50.35033" lon="4.3573">
        <ele>201.173996</ele>
        <time>2022-08-28T06:32:19Z</time>
      </trkpt>
      <trkpt lat="50.35027" lon="4.35741">
        <ele>200.955414</ele>
        <time>2022-08-28T06:32:21Z</time>
      </trkpt>
      <trkpt lat="50.3502" lon="4.35752">
        <ele>200.873383</ele>
        <time>2022-08-28T06:32:23Z</time>
      </trkpt>
      <trkpt lat="50.35014" lon="4.35763">
        <ele>200.934387</ele>
        <time>2022-08-28T06:32:25Z</time>
      </trkpt>
      <trkpt lat="50.35008" lon="4.35774">
        <ele>201.094269</ele>
        <time>2022-08-28T06:32:27Z</time>
      </trkpt>
      <trkpt lat="50.35001" lon="4.35784">
        <ele>201.136734</ele>
        <time>2022-08-28T06:32:29Z</time>
      </trkpt>
      <trkpt lat="50.34995" lon="4.35795">
        <ele>201.773682</ele>
        <time>2022-08-28T06:32:31Z</time>
      </trkpt>
      <trkpt lat="50.34989" lon="4.35805">
        <ele>201.777878</ele>
        <time>2022-08-28T06:32:33Z</time>
      </trkpt>
      <trkpt lat="50.34982" lon="4.35817">
        <ele>201.948288</ele>
        <time>2022-08-28T06:32:35Z</time>
      </trkpt>
      <trkpt lat="50.34975" lon="4.35828">
        <ele>202.016724</ele>
        <time>2022-08-28T06:32:37Z</time>
      </trkpt>
      <trkpt lat="50.34969" lon="4.35838">
        <ele>202.103363</ele>
        <time>2022-08-28T06:32:39Z</time>
      </trkpt>
      <trkpt lat="50.34963" lon="4.35849">
        <ele>202.158447</ele>
        <time>2022-08-28T06:32:41Z</time>
      </trkpt>
      <trkpt lat="50.34956" lon="4.3586">
        <ele>202.410599</ele>
        <time>2022-08-28T06:32:43Z</time>
      </trkpt>
      <trkpt lat="50.34951" lon="4.35871">
        <ele>202.524216</ele>
        <time>2022-08-28T06:32:45Z</time>
      </trkpt>
      <trkpt lat="50.34945" lon="4.35882">
        <ele>202.675095</ele>
        <time>2022-08-28T06:32:47Z</time>
      </trkpt>
      <trkpt lat="50.34938" lon="4.35892">
        <ele>202.75705</ele>
        <time>2022-08-28T06:32:49Z</time>
      </trkpt>
      <trkpt lat="50.34932" lon="4.35903">
        <ele>202.919037</ele>
        <time>2022-08-28T06:32:51Z</time>
      </trkpt>
      <trkpt lat="50.34926" lon="4.35915">
        <ele>203.052536</ele>
        <time>2022-08-28T06:32:53Z</time>
      </trkpt>
      <trkpt lat="50.34919" lon="4.35926">
        <ele>203.254974</ele>
        <time>2022-08-28T06:32:55Z</time>
      </trkpt>
      <trkpt lat="50.34913" lon="4.35936">
        <ele>203.451004</ele>
        <time>2022-08-28T06:32:57Z</time>
      </trkpt>
      <trkpt lat="50.34906" lon="4.35947">
        <ele>203.677826</ele>
        <time>2022-08-28T06:32:59Z</time>
      </trkpt>
      <trkpt lat="50.34901" lon="4.35958">
        <ele>203.757782</ele>
        <time>2022-08-28T06:33:01Z</time>
      </trkpt>
      <trkpt lat="50.34895" lon="4.35969">
        <ele>203.919388</ele>
        <time>2022-08-28T06:33:03Z</time>
      </trkpt>
      <trkpt lat="50.34889" lon="4.35979">
        <ele>204.030914</ele>
        <time>2022-08-28T06:33:05Z</time>
      </trkpt>
      <trkpt lat="50.34882" lon="4.35989">
        <ele>204.100342</ele>
        <time>2022-08-28T06:33:07Z</time>
      </trkpt>
      <trkpt lat="50.34876" lon="4.35999">
        <ele>204.211868</ele>
        <time>2022-08-28T06:33:09Z</time>
      </trkpt>
      <trkpt lat="50.3487" lon="4.36009">
        <ele>204.36969</ele>
        <time>2022-08-28T06:33:11Z</time>
      </trkpt>
      <trkpt lat="50.34867" lon="4.36015">
        <ele>204.44754</ele>
        <time>2022-08-28T06:33:12Z</time>
      </trkpt>
      <trkpt lat="50.34861" lon="4.36025">
        <ele>204.668457</ele>
        <time>2022-08-28T06:33:14Z</time>
      </trkpt>
      <trkpt lat="50.34855" lon="4.36036">
        <ele>204.801056</ele>
        <time>2022-08-28T06:33:16Z</time>
      </trkpt>
      <trkpt lat="50.34849" lon="4.36047">
        <ele>204.758957</ele>
        <time>2022-08-28T06:33:18Z</time>
      </trkpt>
      <trkpt lat="50.34843" lon="4.36057">
        <ele>204.900711</ele>
        <time>2022-08-28T06:33:20Z</time>
      </trkpt>
      <trkpt lat="50.34837" lon="4.36067">
        <ele>205.005524</ele>
        <time>2022-08-28T06:33:22Z</time>
      </trkpt>
      <trkpt lat="50.3483" lon="4.36078">
        <ele>205.125732</ele>
        <time>2022-08-28T06:33:24Z</time>
      </trkpt>
      <trkpt lat="50.34824" lon="4.36088">
        <ele>205.289871</ele>
        <time>2022-08-28T06:33:26Z</time>
      </trkpt>
      <trkpt lat="50.34818" lon="4.36098">
        <ele>205.340988</ele>
        <time>2022-08-28T06:33:28Z</time>
      </trkpt>
      <trkpt lat="50.34813" lon="4.36108">
        <ele>205.414642</ele>
        <time>2022-08-28T06:33:30Z</time>
      </trkpt>
      <trkpt lat="50.34807" lon="4.36117">
        <ele>205.497467</ele>
        <time>2022-08-28T06:33:32Z</time>
      </trkpt>
      <trkpt lat="50.348" lon="4.36126">
        <ele>205.648972</ele>
        <time>2022-08-28T06:33:34Z</time>
      </trkpt>
      <trkpt lat="50.34794" lon="4.36135">
        <ele>205.697388</ele>
        <time>2022-08-28T06:33:36Z</time>
      </trkpt>
      <trkpt lat="50.34789" lon="4.36144">
        <ele>205.779449</ele>
        <time>2022-08-28T06:33:38Z</time>
      </trkpt>
      <trkpt lat="50.34784" lon="4.36152">
        <ele>205.73735</ele>
        <time>2022-08-28T06:33:40Z</time>
      </trkpt>
      <trkpt lat="50.34779" lon="4.36156">
        <ele>205.798386</ele>
        <time>2022-08-28T06:33:42Z</time>
      </trkpt>
      <trkpt lat="50.34773" lon="4.36152">
        <ele>205.8573</ele>
        <time>2022-08-28T06:33:44Z</time>
      </trkpt>
      <trkpt lat="50.34767" lon="4.36144">
        <ele>205.977249</ele>
        <time>2022-08-28T06:33:46Z</time>
      </trkpt>
      <trkpt lat="50.34761" lon="4.36135">
        <ele>206.092987</ele>
        <time>2022-08-28T06:33:48Z</time>
      </trkpt>
      <trkpt lat="50.34754" lon="4.36126">
        <ele>206.135056</ele>
        <time>2022-08-28T06:33:50Z</time>
      </trkpt>
      <trkpt lat="50.34747" lon="4.36116">
        <ele>206.080353</ele>
        <time>2022-08-28T06:33:52Z</time>
      </trkpt>
      <trkpt lat="50.3474" lon="4.36106">
        <ele>206.112671</ele>
        <time>2022-08-28T06:33:54Z</time>
      </trkpt>
      <trkpt lat="50.34732" lon="4.36095">
        <ele>206.116867</ele>
        <time>2022-08-28T06:33:56Z</time>
      </trkpt>
      <trkpt lat="50.34724" lon="4.36084">
        <ele>206.123901</ele>
        <time>2022-08-28T06:33:58Z</time>
      </trkpt>
      <trkpt lat="50.34716" lon="4.36072">
        <ele>206.257813</ele>
        <time>2022-08-28T06:34:00Z</time>
      </trkpt>
      <trkpt lat="50.34708" lon="4.36061">
        <ele>206.329376</ele>
        <time>2022-08-28T06:34:02Z</time>
      </trkpt>
      <trkpt lat="50.347" lon="4.36048">
        <ele>206.419846</ele>
        <time>2022-08-28T06:34:04Z</time>
      </trkpt>
      <trkpt lat="50.34692" lon="4.36038">
        <ele>206.480911</ele>
        <time>2022-08-28T06:34:06Z</time>
      </trkpt>
      <trkpt lat="50.34683" lon="4.36028">
        <ele>206.430374</ele>
        <time>2022-08-28T06:34:08Z</time>
      </trkpt>
      <trkpt lat="50.34674" lon="4.36018">
        <ele>206.501923</ele>
        <time>2022-08-28T06:34:10Z</time>
      </trkpt>
      <trkpt lat="50.34664" lon="4.36006">
        <ele>206.521317</ele>
        <time>2022-08-28T06:34:12Z</time>
      </trkpt>
      <trkpt lat="50.34651" lon="4.35987">
        <ele>206.51709</ele>
        <time>2022-08-28T06:34:15Z</time>
      </trkpt>
      <trkpt lat="50.34644" lon="4.35972">
        <ele>206.550049</ele>
        <time>2022-08-28T06:34:17Z</time>
      </trkpt>
      <trkpt lat="50.34638" lon="4.35956">
        <ele>206.533203</ele>
        <time>2022-08-28T06:34:19Z</time>
      </trkpt>
      <trkpt lat="50.34634" lon="4.35939">
        <ele>206.554245</ele>
        <time>2022-08-28T06:34:21Z</time>
      </trkpt>
      <trkpt lat="50.3463" lon="4.35921">
        <ele>206.600189</ele>
        <time>2022-08-28T06:34:23Z</time>
      </trkpt>
      <trkpt lat="50.34623" lon="4.35906">
        <ele>206.530762</ele>
        <time>2022-08-28T06:34:25Z</time>
      </trkpt>
      <trkpt lat="50.34613" lon="4.35895">
        <ele>206.51181</ele>
        <time>2022-08-28T06:34:27Z</time>
      </trkpt>
      <trkpt lat="50.34602" lon="4.35886">
        <ele>206.436066</ele>
        <time>2022-08-28T06:34:29Z</time>
      </trkpt>
      <trkpt lat="50.34585" lon="4.35875">
        <ele>206.371857</ele>
        <time>2022-08-28T06:34:32Z</time>
      </trkpt>
      <trkpt lat="50.34573" lon="4.35868">
        <ele>206.314285</ele>
        <time>2022-08-28T06:34:34Z</time>
      </trkpt>
      <trkpt lat="50.34564" lon="4.35858">
        <ele>206.286911</ele>
        <time>2022-08-28T06:34:36Z</time>
      </trkpt>
      <trkpt lat="50.34557" lon="4.35846">
        <ele>206.223068</ele>
        <time>2022-08-28T06:34:38Z</time>
      </trkpt>
      <trkpt lat="50.34552" lon="4.35835">
        <ele>206.071564</ele>
        <time>2022-08-28T06:34:40Z</time>
      </trkpt>
      <trkpt lat="50.34548" lon="4.3582">
        <ele>206.023148</ele>
        <time>2022-08-28T06:34:42Z</time>
      </trkpt>
      <trkpt lat="50.34544" lon="4.35805">
        <ele>206.014725</ele>
        <time>2022-08-28T06:34:44Z</time>
      </trkpt>
      <trkpt lat="50.3454" lon="4.35793">
        <ele>205.842133</ele>
        <time>2022-08-28T06:34:45Z</time>
      </trkpt>
      <trkpt lat="50.34535" lon="4.35786">
        <ele>205.848434</ele>
        <time>2022-08-28T06:34:48Z</time>
      </trkpt>
      <trkpt lat="50.34529" lon="4.35783">
        <ele>205.717987</ele>
        <time>2022-08-28T06:34:50Z</time>
      </trkpt>
      <trkpt lat="50.34521" lon="4.35779">
        <ele>205.619629</ele>
        <time>2022-08-28T06:34:52Z</time>
      </trkpt>
      <trkpt lat="50.34513" lon="4.35776">
        <ele>205.524933</ele>
        <time>2022-08-28T06:34:54Z</time>
      </trkpt>
      <trkpt lat="50.34506" lon="4.35772">
        <ele>205.367111</ele>
        <time>2022-08-28T06:34:56Z</time>
      </trkpt>
      <trkpt lat="50.34499" lon="4.35768">
        <ele>205.249268</ele>
        <time>2022-08-28T06:34:58Z</time>
      </trkpt>
      <trkpt lat="50.34494" lon="4.35765">
        <ele>205.142258</ele>
        <time>2022-08-28T06:35:00Z</time>
      </trkpt>
      <trkpt lat="50.34491" lon="4.35763">
        <ele>205.068604</ele>
        <time>2022-08-28T06:35:02Z</time>
      </trkpt>
      <trkpt lat="50.34488" lon="4.35758">
        <ele>205.042313</ele>
        <time>2022-08-28T06:35:04Z</time>
      </trkpt>
      <trkpt lat="50.34483" lon="4.35754">
        <ele>205.006516</ele>
        <time>2022-08-28T06:35:06Z</time>
      </trkpt>
      <trkpt lat="50.34475" lon="4.35749">
        <ele>204.810837</ele>
        <time>2022-08-28T06:35:08Z</time>
      </trkpt>
      <trkpt lat="50.34467" lon="4.35744">
        <ele>204.745605</ele>
        <time>2022-08-28T06:35:10Z</time>
      </trkpt>
      <trkpt lat="50.3446" lon="4.35738">
        <ele>204.631989</ele>
        <time>2022-08-28T06:35:12Z</time>
      </trkpt>
      <trkpt lat="50.34454" lon="4.3573">
        <ele>204.567841</ele>
        <time>2022-08-28T06:35:14Z</time>
      </trkpt>
      <trkpt lat="50.34447" lon="4.35722">
        <ele>204.389008</ele>
        <time>2022-08-28T06:35:16Z</time>
      </trkpt>
      <trkpt lat="50.34441" lon="4.35714">
        <ele>204.363754</ele>
        <time>2022-08-28T06:35:18Z</time>
      </trkpt>
      <trkpt lat="50.34436" lon="4.3571">
        <ele>204.227005</ele>
        <time>2022-08-28T06:35:20Z</time>
      </trkpt>
      <trkpt lat="50.34428" lon="4.35701">
        <ele>204.144943</ele>
        <time>2022-08-28T06:35:22Z</time>
      </trkpt>
      <trkpt lat="50.34421" lon="4.35693">
        <ele>204.052185</ele>
        <time>2022-08-28T06:35:24Z</time>
      </trkpt>
      <trkpt lat="50.34416" lon="4.35687">
        <ele>203.99379</ele>
        <time>2022-08-28T06:35:26Z</time>
      </trkpt>
      <trkpt lat="50.34412" lon="4.35681">
        <ele>203.882294</ele>
        <time>2022-08-28T06:35:28Z</time>
      </trkpt>
      <trkpt lat="50.34406" lon="4.35674">
        <ele>203.707626</ele>
        <time>2022-08-28T06:35:30Z</time>
      </trkpt>
      <trkpt lat="50.34401" lon="4.35666">
        <ele>203.656586</ele>
        <time>2022-08-28T06:35:32Z</time>
      </trkpt>
      <trkpt lat="50.34395" lon="4.35659">
        <ele>203.669205</ele>
        <time>2022-08-28T06:35:34Z</time>
      </trkpt>
      <trkpt lat="50.34386" lon="4.35652">
        <ele>203.643951</ele>
        <time>2022-08-28T06:35:36Z</time>
      </trkpt>
      <trkpt lat="50.3438" lon="4.3564">
        <ele>203.49762</ele>
        <time>2022-08-28T06:35:38Z</time>
      </trkpt>
      <trkpt lat="50.34374" lon="4.35633">
        <ele>203.3694</ele>
        <time>2022-08-28T06:35:40Z</time>
      </trkpt>
      <trkpt lat="50.34368" lon="4.35627">
        <ele>203.295761</ele>
        <time>2022-08-28T06:35:42Z</time>
      </trkpt>
      <trkpt lat="50.34364" lon="4.35629">
        <ele>203.209488</ele>
        <time>2022-08-28T06:35:44Z</time>
      </trkpt>
      <trkpt lat="50.34361" lon="4.35638">
        <ele>203.120407</ele>
        <time>2022-08-28T06:35:46Z</time>
      </trkpt>
      <trkpt lat="50.34357" lon="4.35648">
        <ele>203.084641</ele>
        <time>2022-08-28T06:35:48Z</time>
      </trkpt>
      <trkpt lat="50.34353" lon="4.35658">
        <ele>203.120407</ele>
        <time>2022-08-28T06:35:50Z</time>
      </trkpt>
      <trkpt lat="50.34351" lon="4.35669">
        <ele>203.074844</ele>
        <time>2022-08-28T06:35:52Z</time>
      </trkpt>
      <trkpt lat="50.34353" lon="4.35679">
        <ele>203.167404</ele>
        <time>2022-08-28T06:35:54Z</time>
      </trkpt>
      <trkpt lat="50.34358" lon="4.35691">
        <ele>203.065643</ele>
        <time>2022-08-28T06:35:56Z</time>
      </trkpt>
      <trkpt lat="50.34363" lon="4.35704">
        <ele>203.082458</ele>
        <time>2022-08-28T06:35:58Z</time>
      </trkpt>
      <trkpt lat="50.34369" lon="4.35717">
        <ele>203.097183</ele>
        <time>2022-08-28T06:36:00Z</time>
      </trkpt>
      <trkpt lat="50.34374" lon="4.35732">
        <ele>202.964645</ele>
        <time>2022-08-28T06:36:02Z</time>
      </trkpt>
      <trkpt lat="50.34375" lon="4.35739">
        <ele>202.987579</ele>
        <time>2022-08-28T06:36:03Z</time>
      </trkpt>
      <trkpt lat="50.34382" lon="4.35759">
        <ele>202.945221</ele>
        <time>2022-08-28T06:36:06Z</time>
      </trkpt>
      <trkpt lat="50.34386" lon="4.35771">
        <ele>202.871078</ele>
        <time>2022-08-28T06:36:08Z</time>
      </trkpt>
      <trkpt lat="50.3439" lon="4.35783">
        <ele>202.934189</ele>
        <time>2022-08-28T06:36:10Z</time>
      </trkpt>
      <trkpt lat="50.34393" lon="4.35795">
        <ele>202.934204</ele>
        <time>2022-08-28T06:36:12Z</time>
      </trkpt>
      <trkpt lat="50.34397" lon="4.35806">
        <ele>202.89212</ele>
        <time>2022-08-28T06:36:14Z</time>
      </trkpt>
      <trkpt lat="50.344" lon="4.35818">
        <ele>202.896973</ele>
        <time>2022-08-28T06:36:16Z</time>
      </trkpt>
      <trkpt lat="50.34404" lon="4.3583">
        <ele>203.107391</ele>
        <time>2022-08-28T06:36:18Z</time>
      </trkpt>
      <trkpt lat="50.34407" lon="4.35842">
        <ele>203.093811</ele>
        <time>2022-08-28T06:36:20Z</time>
      </trkpt>
      <trkpt lat="50.34412" lon="4.35854">
        <ele>203.173889</ele>
        <time>2022-08-28T06:36:22Z</time>
      </trkpt>
      <trkpt lat="50.34415" lon="4.35867">
        <ele>203.237</ele>
        <time>2022-08-28T06:36:24Z</time>
      </trkpt>
      <trkpt lat="50.34419" lon="4.3588">
        <ele>203.16127</ele>
        <time>2022-08-28T06:36:26Z</time>
      </trkpt>
      <trkpt lat="50.34423" lon="4.35893">
        <ele>203.23703</ele>
        <time>2022-08-28T06:36:28Z</time>
      </trkpt>
      <trkpt lat="50.34426" lon="4.35906">
        <ele>203.247528</ele>
        <time>2022-08-28T06:36:30Z</time>
      </trkpt>
      <trkpt lat="50.3443" lon="4.35918">
        <ele>203.197113</ele>
        <time>2022-08-28T06:36:32Z</time>
      </trkpt>
      <trkpt lat="50.34434" lon="4.35931">
        <ele>203.151337</ele>
        <time>2022-08-28T06:36:34Z</time>
      </trkpt>
      <trkpt lat="50.34438" lon="4.35943">
        <ele>203.183685</ele>
        <time>2022-08-28T06:36:36Z</time>
      </trkpt>
      <trkpt lat="50.34441" lon="4.35956">
        <ele>203.253098</ele>
        <time>2022-08-28T06:36:38Z</time>
      </trkpt>
      <trkpt lat="50.34445" lon="4.35968">
        <ele>203.332733</ele>
        <time>2022-08-28T06:36:40Z</time>
      </trkpt>
      <trkpt lat="50.34449" lon="4.35981">
        <ele>203.309601</ele>
        <time>2022-08-28T06:36:42Z</time>
      </trkpt>
      <trkpt lat="50.34452" lon="4.35993">
        <ele>203.412674</ele>
        <time>2022-08-28T06:36:44Z</time>
      </trkpt>
      <trkpt lat="50.34456" lon="4.36005">
        <ele>203.455414</ele>
        <time>2022-08-28T06:36:46Z</time>
      </trkpt>
      <trkpt lat="50.3446" lon="4.36015">
        <ele>203.598511</ele>
        <time>2022-08-28T06:36:48Z</time>
      </trkpt>
      <trkpt lat="50.34466" lon="4.36025">
        <ele>203.724762</ele>
        <time>2022-08-28T06:36:50Z</time>
      </trkpt>
      <trkpt lat="50.34473" lon="4.36033">
        <ele>203.722641</ele>
        <time>2022-08-28T06:36:52Z</time>
      </trkpt>
      <trkpt lat="50.34479" lon="4.36042">
        <ele>203.762619</ele>
        <time>2022-08-28T06:36:54Z</time>
      </trkpt>
      <trkpt lat="50.34488" lon="4.36054">
        <ele>203.864105</ele>
        <time>2022-08-28T06:36:57Z</time>
      </trkpt>
      <trkpt lat="50.3449" lon="4.36062">
        <ele>203.87085</ele>
        <time>2022-08-28T06:36:59Z</time>
      </trkpt>
      <trkpt lat="50.34491" lon="4.36074">
        <ele>203.769836</ele>
        <time>2022-08-28T06:37:01Z</time>
      </trkpt>
      <trkpt lat="50.34489" lon="4.36085">
        <ele>203.83522</ele>
        <time>2022-08-28T06:37:03Z</time>
      </trkpt>
      <trkpt lat="50.34488" lon="4.36095">
        <ele>203.921494</ele>
        <time>2022-08-28T06:37:05Z</time>
      </trkpt>
      <trkpt lat="50.34488" lon="4.36102">
        <ele>204.037201</ele>
        <time>2022-08-28T06:37:07Z</time>
      </trkpt>
      <trkpt lat="50.34486" lon="4.36109">
        <ele>204.047729</ele>
        <time>2022-08-28T06:37:09Z</time>
      </trkpt>
      <trkpt lat="50.34486" lon="4.36112">
        <ele>204.089767</ele>
        <time>2022-08-28T06:37:10Z</time>
      </trkpt>
      <trkpt lat="50.34485" lon="4.36121">
        <ele>204.216019</ele>
        <time>2022-08-28T06:37:12Z</time>
      </trkpt>
      <trkpt lat="50.3448" lon="4.36132">
        <ele>204.22995</ele>
        <time>2022-08-28T06:37:14Z</time>
      </trkpt>
      <trkpt lat="50.34477" lon="4.36145">
        <ele>204.313934</ele>
        <time>2022-08-28T06:37:16Z</time>
      </trkpt>
      <trkpt lat="50.34472" lon="4.36159">
        <ele>204.322357</ele>
        <time>2022-08-28T06:37:18Z</time>
      </trkpt>
      <trkpt lat="50.34469" lon="4.36171">
        <ele>204.345505</ele>
        <time>2022-08-28T06:37:20Z</time>
      </trkpt>
      <trkpt lat="50.34467" lon="4.36185">
        <ele>204.332001</ele>
        <time>2022-08-28T06:37:22Z</time>
      </trkpt>
      <trkpt lat="50.34464" lon="4.36198">
        <ele>204.369858</ele>
        <time>2022-08-28T06:37:24Z</time>
      </trkpt>
      <trkpt lat="50.34463" lon="4.3621">
        <ele>204.386703</ele>
        <time>2022-08-28T06:37:26Z</time>
      </trkpt>
      <trkpt lat="50.34462" lon="4.36223">
        <ele>204.273056</ele>
        <time>2022-08-28T06:37:28Z</time>
      </trkpt>
      <trkpt lat="50.34462" lon="4.36237">
        <ele>204.192047</ele>
        <time>2022-08-28T06:37:30Z</time>
      </trkpt>
      <trkpt lat="50.34462" lon="4.3625">
        <ele>204.267807</ele>
        <time>2022-08-28T06:37:32Z</time>
      </trkpt>
      <trkpt lat="50.34462" lon="4.36262">
        <ele>204.192047</ele>
        <time>2022-08-28T06:37:34Z</time>
      </trkpt>
      <trkpt lat="50.34462" lon="4.36276">
        <ele>204.131042</ele>
        <time>2022-08-28T06:37:36Z</time>
      </trkpt>
      <trkpt lat="50.34463" lon="4.36289">
        <ele>204.176849</ele>
        <time>2022-08-28T06:37:38Z</time>
      </trkpt>
      <trkpt lat="50.34463" lon="4.36302">
        <ele>204.217834</ele>
        <time>2022-08-28T06:37:40Z</time>
      </trkpt>
      <trkpt lat="50.34463" lon="4.36316">
        <ele>204.249863</ele>
        <time>2022-08-28T06:37:42Z</time>
      </trkpt>
      <trkpt lat="50.34463" lon="4.36328">
        <ele>204.235138</ele>
        <time>2022-08-28T06:37:44Z</time>
      </trkpt>
      <trkpt lat="50.34463" lon="4.3634">
        <ele>203.94693</ele>
        <time>2022-08-28T06:37:46Z</time>
      </trkpt>
      <trkpt lat="50.34464" lon="4.36351">
        <ele>203.982697</ele>
        <time>2022-08-28T06:37:48Z</time>
      </trkpt>
      <trkpt lat="50.34465" lon="4.36363">
        <ele>204.000992</ele>
        <time>2022-08-28T06:37:50Z</time>
      </trkpt>
      <trkpt lat="50.34467" lon="4.36375">
        <ele>203.996811</ele>
        <time>2022-08-28T06:37:52Z</time>
      </trkpt>
      <trkpt lat="50.34469" lon="4.36388">
        <ele>204.043106</ele>
        <time>2022-08-28T06:37:54Z</time>
      </trkpt>
      <trkpt lat="50.3447" lon="4.36402">
        <ele>203.975449</ele>
        <time>2022-08-28T06:37:56Z</time>
      </trkpt>
      <trkpt lat="50.34472" lon="4.36416">
        <ele>203.97966</ele>
        <time>2022-08-28T06:37:58Z</time>
      </trkpt>
      <trkpt lat="50.34474" lon="4.3643">
        <ele>203.964935</ele>
        <time>2022-08-28T06:38:00Z</time>
      </trkpt>
      <trkpt lat="50.34475" lon="4.36442">
        <ele>203.941788</ele>
        <time>2022-08-28T06:38:02Z</time>
      </trkpt>
      <trkpt lat="50.34477" lon="4.36455">
        <ele>203.974564</ele>
        <time>2022-08-28T06:38:04Z</time>
      </trkpt>
      <trkpt lat="50.34478" lon="4.36467">
        <ele>203.978775</ele>
        <time>2022-08-28T06:38:06Z</time>
      </trkpt>
      <trkpt lat="50.34479" lon="4.36479">
        <ele>204.069244</ele>
        <time>2022-08-28T06:38:08Z</time>
      </trkpt>
      <trkpt lat="50.3448" lon="4.36491">
        <ele>204.102921</ele>
        <time>2022-08-28T06:38:10Z</time>
      </trkpt>
      <trkpt lat="50.34482" lon="4.36503">
        <ele>204.135529</ele>
        <time>2022-08-28T06:38:12Z</time>
      </trkpt>
      <trkpt lat="50.34484" lon="4.36515">
        <ele>204.192322</ele>
        <time>2022-08-28T06:38:14Z</time>
      </trkpt>
      <trkpt lat="50.34485" lon="4.3652">
        <ele>204.238617</ele>
        <time>2022-08-28T06:38:15Z</time>
      </trkpt>
      <trkpt lat="50.34486" lon="4.36532">
        <ele>204.306274</ele>
        <time>2022-08-28T06:38:17Z</time>
      </trkpt>
      <trkpt lat="50.34488" lon="4.36544">
        <ele>204.268402</ele>
        <time>2022-08-28T06:38:19Z</time>
      </trkpt>
      <trkpt lat="50.34489" lon="4.36556">
        <ele>204.255783</ele>
        <time>2022-08-28T06:38:21Z</time>
      </trkpt>
      <trkpt lat="50.34491" lon="4.36568">
        <ele>204.219025</ele>
        <time>2022-08-28T06:38:23Z</time>
      </trkpt>
      <trkpt lat="50.34493" lon="4.3658">
        <ele>204.248505</ele>
        <time>2022-08-28T06:38:25Z</time>
      </trkpt>
      <trkpt lat="50.34494" lon="4.36593">
        <ele>204.406906</ele>
        <time>2022-08-28T06:38:27Z</time>
      </trkpt>
      <trkpt lat="50.34496" lon="4.36606">
        <ele>204.5121</ele>
        <time>2022-08-28T06:38:29Z</time>
      </trkpt>
      <trkpt lat="50.34497" lon="4.36619">
        <ele>204.550629</ele>
        <time>2022-08-28T06:38:31Z</time>
      </trkpt>
      <trkpt lat="50.34499" lon="4.36632">
        <ele>204.668488</ele>
        <time>2022-08-28T06:38:33Z</time>
      </trkpt>
      <trkpt lat="50.34501" lon="4.36645">
        <ele>204.689529</ele>
        <time>2022-08-28T06:38:35Z</time>
      </trkpt>
      <trkpt lat="50.34502" lon="4.36659">
        <ele>204.765274</ele>
        <time>2022-08-28T06:38:37Z</time>
      </trkpt>
      <trkpt lat="50.34504" lon="4.36672">
        <ele>204.872589</ele>
        <time>2022-08-28T06:38:39Z</time>
      </trkpt>
      <trkpt lat="50.34505" lon="4.36686">
        <ele>204.963089</ele>
        <time>2022-08-28T06:38:41Z</time>
      </trkpt>
      <trkpt lat="50.34506" lon="4.367">
        <ele>205.047241</ele>
        <time>2022-08-28T06:38:43Z</time>
      </trkpt>
      <trkpt lat="50.34504" lon="4.36713">
        <ele>205.131424</ele>
        <time>2022-08-28T06:38:45Z</time>
      </trkpt>
      <trkpt lat="50.34502" lon="4.36725">
        <ele>205.270294</ele>
        <time>2022-08-28T06:38:47Z</time>
      </trkpt>
      <trkpt lat="50.345" lon="4.36738">
        <ele>205.188232</ele>
        <time>2022-08-28T06:38:49Z</time>
      </trkpt>
      <trkpt lat="50.34498" lon="4.36751">
        <ele>205.266083</ele>
        <time>2022-08-28T06:38:51Z</time>
      </trkpt>
      <trkpt lat="50.34496" lon="4.36765">
        <ele>205.258377</ele>
        <time>2022-08-28T06:38:53Z</time>
      </trkpt>
      <trkpt lat="50.34494" lon="4.36779">
        <ele>205.296265</ele>
        <time>2022-08-28T06:38:55Z</time>
      </trkpt>
      <trkpt lat="50.34493" lon="4.36794">
        <ele>205.42041</ele>
        <time>2022-08-28T06:38:57Z</time>
      </trkpt>
      <trkpt lat="50.34492" lon="4.36808">
        <ele>205.529541</ele>
        <time>2022-08-28T06:38:59Z</time>
      </trkpt>
      <trkpt lat="50.34491" lon="4.36823">
        <ele>205.752594</ele>
        <time>2022-08-28T06:39:01Z</time>
      </trkpt>
      <trkpt lat="50.3449" lon="4.36838">
        <ele>205.841507</ele>
        <time>2022-08-28T06:39:03Z</time>
      </trkpt>
      <trkpt lat="50.34489" lon="4.36853">
        <ele>205.999344</ele>
        <time>2022-08-28T06:39:05Z</time>
      </trkpt>
      <trkpt lat="50.34489" lon="4.36868">
        <ele>206.041428</ele>
        <time>2022-08-28T06:39:07Z</time>
      </trkpt>
      <trkpt lat="50.34488" lon="4.36883">
        <ele>206.198639</ele>
        <time>2022-08-28T06:39:09Z</time>
      </trkpt>
      <trkpt lat="50.34488" lon="4.36897">
        <ele>206.333328</ele>
        <time>2022-08-28T06:39:11Z</time>
      </trkpt>
      <trkpt lat="50.34487" lon="4.36912">
        <ele>206.196533</ele>
        <time>2022-08-28T06:39:13Z</time>
      </trkpt>
      <trkpt lat="50.34486" lon="4.36926">
        <ele>206.225983</ele>
        <time>2022-08-28T06:39:15Z</time>
      </trkpt>
      <trkpt lat="50.34486" lon="4.36941">
        <ele>206.308075</ele>
        <time>2022-08-28T06:39:17Z</time>
      </trkpt>
      <trkpt lat="50.34485" lon="4.36955">
        <ele>206.358566</ele>
        <time>2022-08-28T06:39:19Z</time>
      </trkpt>
      <trkpt lat="50.34484" lon="4.36969">
        <ele>206.425934</ele>
        <time>2022-08-28T06:39:21Z</time>
      </trkpt>
      <trkpt lat="50.34483" lon="4.36982">
        <ele>206.303864</ele>
        <time>2022-08-28T06:39:23Z</time>
      </trkpt>
      <trkpt lat="50.34483" lon="4.36996">
        <ele>206.305954</ele>
        <time>2022-08-28T06:39:25Z</time>
      </trkpt>
      <trkpt lat="50.34483" lon="4.37009">
        <ele>206.305954</ele>
        <time>2022-08-28T06:39:27Z</time>
      </trkpt>
      <trkpt lat="50.34482" lon="4.37023">
        <ele>206.33963</ele>
        <time>2022-08-28T06:39:29Z</time>
      </trkpt>
      <trkpt lat="50.34481" lon="4.37037">
        <ele>206.398529</ele>
        <time>2022-08-28T06:39:31Z</time>
      </trkpt>
      <trkpt lat="50.3448" lon="4.3705">
        <ele>206.475708</ele>
        <time>2022-08-28T06:39:33Z</time>
      </trkpt>
      <trkpt lat="50.34479" lon="4.37062">
        <ele>206.732498</ele>
        <time>2022-08-28T06:39:35Z</time>
      </trkpt>
      <trkpt lat="50.34478" lon="4.37075">
        <ele>206.793533</ele>
        <time>2022-08-28T06:39:37Z</time>
      </trkpt>
      <trkpt lat="50.34476" lon="4.37089">
        <ele>206.928253</ele>
        <time>2022-08-28T06:39:39Z</time>
      </trkpt>
      <trkpt lat="50.34475" lon="4.37103">
        <ele>206.991379</ele>
        <time>2022-08-28T06:39:41Z</time>
      </trkpt>
      <trkpt lat="50.34473" lon="4.37116">
        <ele>207.033478</ele>
        <time>2022-08-28T06:39:43Z</time>
      </trkpt>
      <trkpt lat="50.34472" lon="4.3713">
        <ele>207.090302</ele>
        <time>2022-08-28T06:39:45Z</time>
      </trkpt>
      <trkpt lat="50.34471" lon="4.37143">
        <ele>207.195587</ele>
        <time>2022-08-28T06:39:47Z</time>
      </trkpt>
      <trkpt lat="50.34469" lon="4.37157">
        <ele>207.29451</ele>
        <time>2022-08-28T06:39:49Z</time>
      </trkpt>
      <trkpt lat="50.34468" lon="4.37171">
        <ele>207.38501</ele>
        <time>2022-08-28T06:39:51Z</time>
      </trkpt>
      <trkpt lat="50.34467" lon="4.37184">
        <ele>207.563934</ele>
        <time>2022-08-28T06:39:53Z</time>
      </trkpt>
      <trkpt lat="50.34465" lon="4.37198">
        <ele>207.827057</ele>
        <time>2022-08-28T06:39:55Z</time>
      </trkpt>
      <trkpt lat="50.34464" lon="4.37211">
        <ele>207.879669</ele>
        <time>2022-08-28T06:39:57Z</time>
      </trkpt>
      <trkpt lat="50.34463" lon="4.37224">
        <ele>207.913361</ele>
        <time>2022-08-28T06:39:59Z</time>
      </trkpt>
      <trkpt lat="50.34461" lon="4.37237">
        <ele>208.060699</ele>
        <time>2022-08-28T06:40:01Z</time>
      </trkpt>
      <trkpt lat="50.3446" lon="4.37251">
        <ele>208.273285</ele>
        <time>2022-08-28T06:40:03Z</time>
      </trkpt>
      <trkpt lat="50.34459" lon="4.37263">
        <ele>208.582687</ele>
        <time>2022-08-28T06:40:05Z</time>
      </trkpt>
      <trkpt lat="50.34457" lon="4.37276">
        <ele>208.786896</ele>
        <time>2022-08-28T06:40:07Z</time>
      </trkpt>
      <trkpt lat="50.34456" lon="4.3729">
        <ele>208.904755</ele>
        <time>2022-08-28T06:40:09Z</time>
      </trkpt>
      <trkpt lat="50.34455" lon="4.37303">
        <ele>209.163651</ele>
        <time>2022-08-28T06:40:11Z</time>
      </trkpt>
      <trkpt lat="50.34454" lon="4.37316">
        <ele>209.546875</ele>
        <time>2022-08-28T06:40:13Z</time>
      </trkpt>
      <trkpt lat="50.34452" lon="4.37328">
        <ele>209.582672</ele>
        <time>2022-08-28T06:40:15Z</time>
      </trkpt>
      <trkpt lat="50.34451" lon="4.37339">
        <ele>209.736359</ele>
        <time>2022-08-28T06:40:17Z</time>
      </trkpt>
      <trkpt lat="50.34449" lon="4.37349">
        <ele>209.831085</ele>
        <time>2022-08-28T06:40:19Z</time>
      </trkpt>
      <trkpt lat="50.34444" lon="4.37355">
        <ele>209.980591</ele>
        <time>2022-08-28T06:40:21Z</time>
      </trkpt>
      <trkpt lat="50.34437" lon="4.37352">
        <ele>210.029007</ele>
        <time>2022-08-28T06:40:23Z</time>
      </trkpt>
      <trkpt lat="50.34429" lon="4.37346">
        <ele>210.119537</ele>
        <time>2022-08-28T06:40:24Z</time>
      </trkpt>
      <trkpt lat="50.3442" lon="4.3734">
        <ele>210.248444</ele>
        <time>2022-08-28T06:40:27Z</time>
      </trkpt>
      <trkpt lat="50.34412" lon="4.37334">
        <ele>210.329422</ele>
        <time>2022-08-28T06:40:29Z</time>
      </trkpt>
      <trkpt lat="50.34404" lon="4.37328">
        <ele>210.361038</ele>
        <time>2022-08-28T06:40:31Z</time>
      </trkpt>
      <trkpt lat="50.34396" lon="4.37322">
        <ele>210.32016</ele>
        <time>2022-08-28T06:40:33Z</time>
      </trkpt>
      <trkpt lat="50.34387" lon="4.37316">
        <ele>210.266602</ele>
        <time>2022-08-28T06:40:35Z</time>
      </trkpt>
      <trkpt lat="50.34379" lon="4.3731">
        <ele>210.354172</ele>
        <time>2022-08-28T06:40:37Z</time>
      </trkpt>
      <trkpt lat="50.3437" lon="4.37303">
        <ele>210.412872</ele>
        <time>2022-08-28T06:40:39Z</time>
      </trkpt>
      <trkpt lat="50.34362" lon="4.37297">
        <ele>210.629684</ele>
        <time>2022-08-28T06:40:41Z</time>
      </trkpt>
      <trkpt lat="50.34353" lon="4.37291">
        <ele>210.587601</ele>
        <time>2022-08-28T06:40:42Z</time>
      </trkpt>
      <trkpt lat="50.34344" lon="4.37285">
        <ele>210.647919</ele>
        <time>2022-08-28T06:40:45Z</time>
      </trkpt>
      <trkpt lat="50.34335" lon="4.37279">
        <ele>210.536346</ele>
        <time>2022-08-28T06:40:47Z</time>
      </trkpt>
      <trkpt lat="50.34326" lon="4.37272">
        <ele>210.348999</ele>
        <time>2022-08-28T06:40:49Z</time>
      </trkpt>
      <trkpt lat="50.34317" lon="4.37265">
        <ele>210.130081</ele>
        <time>2022-08-28T06:40:51Z</time>
      </trkpt>
      <trkpt lat="50.34308" lon="4.37259">
        <ele>209.881592</ele>
        <time>2022-08-28T06:40:53Z</time>
      </trkpt>
      <trkpt lat="50.34299" lon="4.37252">
        <ele>209.807907</ele>
        <time>2022-08-28T06:40:55Z</time>
      </trkpt>
      <trkpt lat="50.34289" lon="4.37245">
        <ele>209.66684</ele>
        <time>2022-08-28T06:40:57Z</time>
      </trkpt>
      <trkpt lat="50.3428" lon="4.37238">
        <ele>209.723709</ele>
        <time>2022-08-28T06:40:59Z</time>
      </trkpt>
      <trkpt lat="50.3427" lon="4.3723">
        <ele>209.567947</ele>
        <time>2022-08-28T06:41:01Z</time>
      </trkpt>
      <trkpt lat="50.34261" lon="4.37223">
        <ele>209.298508</ele>
        <time>2022-08-28T06:41:03Z</time>
      </trkpt>
      <trkpt lat="50.34251" lon="4.37216">
        <ele>209.216431</ele>
        <time>2022-08-28T06:41:05Z</time>
      </trkpt>
      <trkpt lat="50.34241" lon="4.37209">
        <ele>209.071167</ele>
        <time>2022-08-28T06:41:07Z</time>
      </trkpt>
      <trkpt lat="50.3423" lon="4.37202">
        <ele>208.904373</ele>
        <time>2022-08-28T06:41:09Z</time>
      </trkpt>
      <trkpt lat="50.34225" lon="4.37198">
        <ele>208.850189</ele>
        <time>2022-08-28T06:41:10Z</time>
      </trkpt>
      <trkpt lat="50.34214" lon="4.3719">
        <ele>208.755692</ele>
        <time>2022-08-28T06:41:12Z</time>
      </trkpt>
      <trkpt lat="50.34203" lon="4.37183">
        <ele>208.598068</ele>
        <time>2022-08-28T06:41:14Z</time>
      </trkpt>
      <trkpt lat="50.34192" lon="4.37176">
        <ele>208.514816</ele>
        <time>2022-08-28T06:41:16Z</time>
      </trkpt>
      <trkpt lat="50.34181" lon="4.37169">
        <ele>208.202026</ele>
        <time>2022-08-28T06:41:18Z</time>
      </trkpt>
      <trkpt lat="50.34168" lon="4.37162">
        <ele>207.92659</ele>
        <time>2022-08-28T06:41:20Z</time>
      </trkpt>
      <trkpt lat="50.34155" lon="4.37154">
        <ele>207.71611</ele>
        <time>2022-08-28T06:41:22Z</time>
      </trkpt>
      <trkpt lat="50.34142" lon="4.37146">
        <ele>207.521088</ele>
        <time>2022-08-28T06:41:24Z</time>
      </trkpt>
      <trkpt lat="50.34129" lon="4.37138">
        <ele>207.3414</ele>
        <time>2022-08-28T06:41:26Z</time>
      </trkpt>
      <trkpt lat="50.34116" lon="4.37129">
        <ele>207.217239</ele>
        <time>2022-08-28T06:41:28Z</time>
      </trkpt>
      <trkpt lat="50.34104" lon="4.37119">
        <ele>206.960495</ele>
        <time>2022-08-28T06:41:30Z</time>
      </trkpt>
      <trkpt lat="50.34091" lon="4.37109">
        <ele>207.046783</ele>
        <time>2022-08-28T06:41:32Z</time>
      </trkpt>
      <trkpt lat="50.34079" lon="4.37098">
        <ele>206.754272</ele>
        <time>2022-08-28T06:41:34Z</time>
      </trkpt>
      <trkpt lat="50.34066" lon="4.37088">
        <ele>206.558502</ele>
        <time>2022-08-28T06:41:36Z</time>
      </trkpt>
      <trkpt lat="50.3406" lon="4.37083">
        <ele>206.562714</ele>
        <time>2022-08-28T06:41:37Z</time>
      </trkpt>
      <trkpt lat="50.34048" lon="4.37072">
        <ele>206.445724</ele>
        <time>2022-08-28T06:41:39Z</time>
      </trkpt>
      <trkpt lat="50.34036" lon="4.37062">
        <ele>206.075272</ele>
        <time>2022-08-28T06:41:41Z</time>
      </trkpt>
      <trkpt lat="50.34023" lon="4.37052">
        <ele>205.028229</ele>
        <time>2022-08-28T06:41:43Z</time>
      </trkpt>
      <trkpt lat="50.34012" lon="4.37042">
        <ele>204.891388</ele>
        <time>2022-08-28T06:41:45Z</time>
      </trkpt>
      <trkpt lat="50.34" lon="4.37032">
        <ele>204.767227</ele>
        <time>2022-08-28T06:41:47Z</time>
      </trkpt>
      <trkpt lat="50.33987" lon="4.37022">
        <ele>204.556793</ele>
        <time>2022-08-28T06:41:49Z</time>
      </trkpt>
      <trkpt lat="50.33975" lon="4.37012">
        <ele>204.380524</ele>
        <time>2022-08-28T06:41:51Z</time>
      </trkpt>
      <trkpt lat="50.33963" lon="4.37001">
        <ele>204.16777</ele>
        <time>2022-08-28T06:41:53Z</time>
      </trkpt>
      <trkpt lat="50.3395" lon="4.36991">
        <ele>204.077927</ele>
        <time>2022-08-28T06:41:55Z</time>
      </trkpt>
      <trkpt lat="50.33936" lon="4.3698">
        <ele>203.709717</ele>
        <time>2022-08-28T06:41:57Z</time>
      </trkpt>
      <trkpt lat="50.33923" lon="4.36968">
        <ele>203.81311</ele>
        <time>2022-08-28T06:41:59Z</time>
      </trkpt>
      <trkpt lat="50.33909" lon="4.36958">
        <ele>203.777313</ele>
        <time>2022-08-28T06:42:01Z</time>
      </trkpt>
      <trkpt lat="50.33896" lon="4.36947">
        <ele>203.996292</ele>
        <time>2022-08-28T06:42:03Z</time>
      </trkpt>
      <trkpt lat="50.33881" lon="4.36936">
        <ele>203.941559</ele>
        <time>2022-08-28T06:42:05Z</time>
      </trkpt>
      <trkpt lat="50.33868" lon="4.36925">
        <ele>203.801361</ele>
        <time>2022-08-28T06:42:07Z</time>
      </trkpt>
      <trkpt lat="50.33853" lon="4.36917">
        <ele>203.633057</ele>
        <time>2022-08-28T06:42:09Z</time>
      </trkpt>
      <trkpt lat="50.33839" lon="4.36914">
        <ele>203.572052</ele>
        <time>2022-08-28T06:42:11Z</time>
      </trkpt>
      <trkpt lat="50.33825" lon="4.36913">
        <ele>203.182785</ele>
        <time>2022-08-28T06:42:13Z</time>
      </trkpt>
      <trkpt lat="50.33811" lon="4.36911">
        <ele>203.062881</ele>
        <time>2022-08-28T06:42:15Z</time>
      </trkpt>
      <trkpt lat="50.33798" lon="4.3691">
        <ele>202.978714</ele>
        <time>2022-08-28T06:42:17Z</time>
      </trkpt>
      <trkpt lat="50.33778" lon="4.36909">
        <ele>201.991272</ele>
        <time>2022-08-28T06:42:20Z</time>
      </trkpt>
      <trkpt lat="50.33765" lon="4.36908">
        <ele>201.749374</ele>
        <time>2022-08-28T06:42:22Z</time>
      </trkpt>
      <trkpt lat="50.33752" lon="4.36907">
        <ele>202.470245</ele>
        <time>2022-08-28T06:42:24Z</time>
      </trkpt>
      <trkpt lat="50.33739" lon="4.36906">
        <ele>202.207291</ele>
        <time>2022-08-28T06:42:26Z</time>
      </trkpt>
      <trkpt lat="50.33726" lon="4.36905">
        <ele>202.171524</ele>
        <time>2022-08-28T06:42:28Z</time>
      </trkpt>
      <trkpt lat="50.33713" lon="4.36905">
        <ele>201.982208</ele>
        <time>2022-08-28T06:42:30Z</time>
      </trkpt>
      <trkpt lat="50.33701" lon="4.36906">
        <ele>201.790787</ele>
        <time>2022-08-28T06:42:32Z</time>
      </trkpt>
      <trkpt lat="50.33688" lon="4.36907">
        <ele>201.101456</ele>
        <time>2022-08-28T06:42:34Z</time>
      </trkpt>
      <trkpt lat="50.33676" lon="4.36909">
        <ele>200.901581</ele>
        <time>2022-08-28T06:42:36Z</time>
      </trkpt>
      <trkpt lat="50.33664" lon="4.36913">
        <ele>200.851746</ele>
        <time>2022-08-28T06:42:38Z</time>
      </trkpt>
      <trkpt lat="50.33653" lon="4.36916">
        <ele>200.969543</ele>
        <time>2022-08-28T06:42:40Z</time>
      </trkpt>
      <trkpt lat="50.3364" lon="4.3692">
        <ele>200.262405</ele>
        <time>2022-08-28T06:42:42Z</time>
      </trkpt>
      <trkpt lat="50.33628" lon="4.36924">
        <ele>199.946655</ele>
        <time>2022-08-28T06:42:44Z</time>
      </trkpt>
      <trkpt lat="50.33616" lon="4.36927">
        <ele>199.746841</ele>
        <time>2022-08-28T06:42:46Z</time>
      </trkpt>
      <trkpt lat="50.33604" lon="4.36931">
        <ele>199.517563</ele>
        <time>2022-08-28T06:42:48Z</time>
      </trkpt>
      <trkpt lat="50.33592" lon="4.36935">
        <ele>199.115936</ele>
        <time>2022-08-28T06:42:50Z</time>
      </trkpt>
      <trkpt lat="50.3358" lon="4.3694">
        <ele>199.156052</ele>
        <time>2022-08-28T06:42:52Z</time>
      </trkpt>
      <trkpt lat="50.33569" lon="4.36945">
        <ele>198.481567</ele>
        <time>2022-08-28T06:42:54Z</time>
      </trkpt>
      <trkpt lat="50.33556" lon="4.36951">
        <ele>198.82486</ele>
        <time>2022-08-28T06:42:56Z</time>
      </trkpt>
      <trkpt lat="50.33544" lon="4.36958">
        <ele>198.427689</ele>
        <time>2022-08-28T06:42:58Z</time>
      </trkpt>
      <trkpt lat="50.33532" lon="4.36965">
        <ele>198.837799</ele>
        <time>2022-08-28T06:43:00Z</time>
      </trkpt>
      <trkpt lat="50.3352" lon="4.36973">
        <ele>198.799957</ele>
        <time>2022-08-28T06:43:02Z</time>
      </trkpt>
      <trkpt lat="50.33508" lon="4.36982">
        <ele>198.545532</ele>
        <time>2022-08-28T06:43:04Z</time>
      </trkpt>
      <trkpt lat="50.33497" lon="4.36991">
        <ele>198.196457</ele>
        <time>2022-08-28T06:43:06Z</time>
      </trkpt>
      <trkpt lat="50.33485" lon="4.37001">
        <ele>197.822266</ele>
        <time>2022-08-28T06:43:08Z</time>
      </trkpt>
      <trkpt lat="50.33473" lon="4.3701">
        <ele>197.500488</ele>
        <time>2022-08-28T06:43:10Z</time>
      </trkpt>
      <trkpt lat="50.33462" lon="4.3702">
        <ele>197.374313</ele>
        <time>2022-08-28T06:43:12Z</time>
      </trkpt>
      <trkpt lat="50.3345" lon="4.37029">
        <ele>197.077835</ele>
        <time>2022-08-28T06:43:14Z</time>
      </trkpt>
      <trkpt lat="50.33438" lon="4.37038">
        <ele>197.910614</ele>
        <time>2022-08-28T06:43:16Z</time>
      </trkpt>
      <trkpt lat="50.33426" lon="4.37046">
        <ele>197.351395</ele>
        <time>2022-08-28T06:43:18Z</time>
      </trkpt>
      <trkpt lat="50.33413" lon="4.37053">
        <ele>197.037445</ele>
        <time>2022-08-28T06:43:20Z</time>
      </trkpt>
      <trkpt lat="50.33402" lon="4.3706">
        <ele>196.585403</ele>
        <time>2022-08-28T06:43:22Z</time>
      </trkpt>
      <trkpt lat="50.33389" lon="4.37066">
        <ele>196.282425</ele>
        <time>2022-08-28T06:43:24Z</time>
      </trkpt>
      <trkpt lat="50.33376" lon="4.37072">
        <ele>195.610931</ele>
        <time>2022-08-28T06:43:26Z</time>
      </trkpt>
      <trkpt lat="50.33363" lon="4.37079">
        <ele>195.348099</ele>
        <time>2022-08-28T06:43:28Z</time>
      </trkpt>
      <trkpt lat="50.33349" lon="4.37086">
        <ele>195.112717</ele>
        <time>2022-08-28T06:43:30Z</time>
      </trkpt>
      <trkpt lat="50.33335" lon="4.37093">
        <ele>194.638458</ele>
        <time>2022-08-28T06:43:32Z</time>
      </trkpt>
      <trkpt lat="50.33321" lon="4.371">
        <ele>194.305496</ele>
        <time>2022-08-28T06:43:34Z</time>
      </trkpt>
      <trkpt lat="50.33307" lon="4.37107">
        <ele>193.851028</ele>
        <time>2022-08-28T06:43:36Z</time>
      </trkpt>
      <trkpt lat="50.33293" lon="4.37114">
        <ele>193.405533</ele>
        <time>2022-08-28T06:43:38Z</time>
      </trkpt>
      <trkpt lat="50.33279" lon="4.37121">
        <ele>192.917526</ele>
        <time>2022-08-28T06:43:40Z</time>
      </trkpt>
      <trkpt lat="50.33268" lon="4.37127">
        <ele>192.314407</ele>
        <time>2022-08-28T06:43:42Z</time>
      </trkpt>
      <trkpt lat="50.33259" lon="4.37134">
        <ele>191.805817</ele>
        <time>2022-08-28T06:43:44Z</time>
      </trkpt>
      <trkpt lat="50.33253" lon="4.37146">
        <ele>191.565598</ele>
        <time>2022-08-28T06:43:46Z</time>
      </trkpt>
      <trkpt lat="50.33249" lon="4.37162">
        <ele>191.155853</ele>
        <time>2022-08-28T06:43:48Z</time>
      </trkpt>
      <trkpt lat="50.33247" lon="4.3718">
        <ele>190.777618</ele>
        <time>2022-08-28T06:43:50Z</time>
      </trkpt>
      <trkpt lat="50.33247" lon="4.37198">
        <ele>190.294281</ele>
        <time>2022-08-28T06:43:52Z</time>
      </trkpt>
      <trkpt lat="50.3325" lon="4.37215">
        <ele>189.758423</ele>
        <time>2022-08-28T06:43:54Z</time>
      </trkpt>
      <trkpt lat="50.33255" lon="4.3723">
        <ele>189.41452</ele>
        <time>2022-08-28T06:43:56Z</time>
      </trkpt>
      <trkpt lat="50.33259" lon="4.37246">
        <ele>188.507965</ele>
        <time>2022-08-28T06:43:58Z</time>
      </trkpt>
      <trkpt lat="50.33263" lon="4.37261">
        <ele>188.03952</ele>
        <time>2022-08-28T06:44:00Z</time>
      </trkpt>
      <trkpt lat="50.33268" lon="4.37275">
        <ele>187.668381</ele>
        <time>2022-08-28T06:44:02Z</time>
      </trkpt>
      <trkpt lat="50.33272" lon="4.3729">
        <ele>187.396469</ele>
        <time>2022-08-28T06:44:04Z</time>
      </trkpt>
      <trkpt lat="50.33276" lon="4.37304">
        <ele>187.155365</ele>
        <time>2022-08-28T06:44:06Z</time>
      </trkpt>
      <trkpt lat="50.33279" lon="4.37318">
        <ele>186.730957</ele>
        <time>2022-08-28T06:44:08Z</time>
      </trkpt>
      <trkpt lat="50.33283" lon="4.37332">
        <ele>186.474304</ele>
        <time>2022-08-28T06:44:10Z</time>
      </trkpt>
      <trkpt lat="50.33287" lon="4.37346">
        <ele>186.34404</ele>
        <time>2022-08-28T06:44:12Z</time>
      </trkpt>
      <trkpt lat="50.3329" lon="4.37359">
        <ele>186.181335</ele>
        <time>2022-08-28T06:44:14Z</time>
      </trkpt>
      <trkpt lat="50.33292" lon="4.37372">
        <ele>185.973557</ele>
        <time>2022-08-28T06:44:16Z</time>
      </trkpt>
      <trkpt lat="50.33293" lon="4.37385">
        <ele>186.160507</ele>
        <time>2022-08-28T06:44:18Z</time>
      </trkpt>
      <trkpt lat="50.33291" lon="4.37398">
        <ele>186.106308</ele>
        <time>2022-08-28T06:44:20Z</time>
      </trkpt>
      <trkpt lat="50.33287" lon="4.37411">
        <ele>186.137817</ele>
        <time>2022-08-28T06:44:22Z</time>
      </trkpt>
      <trkpt lat="50.33283" lon="4.37425">
        <ele>186.068497</ele>
        <time>2022-08-28T06:44:24Z</time>
      </trkpt>
      <trkpt lat="50.33277" lon="4.37439">
        <ele>186.222458</ele>
        <time>2022-08-28T06:44:26Z</time>
      </trkpt>
      <trkpt lat="50.33272" lon="4.37453">
        <ele>186.350586</ele>
        <time>2022-08-28T06:44:28Z</time>
      </trkpt>
      <trkpt lat="50.33268" lon="4.37468">
        <ele>186.487152</ele>
        <time>2022-08-28T06:44:30Z</time>
      </trkpt>
      <trkpt lat="50.33263" lon="4.37483">
        <ele>186.856934</ele>
        <time>2022-08-28T06:44:32Z</time>
      </trkpt>
      <trkpt lat="50.33258" lon="4.37498">
        <ele>186.917862</ele>
        <time>2022-08-28T06:44:34Z</time>
      </trkpt>
      <trkpt lat="50.33253" lon="4.37514">
        <ele>187.036957</ele>
        <time>2022-08-28T06:44:36Z</time>
      </trkpt>
      <trkpt lat="50.33248" lon="4.37529">
        <ele>187.267868</ele>
        <time>2022-08-28T06:44:38Z</time>
      </trkpt>
      <trkpt lat="50.33243" lon="4.37544">
        <ele>187.418915</ele>
        <time>2022-08-28T06:44:40Z</time>
      </trkpt>
      <trkpt lat="50.33238" lon="4.3756">
        <ele>187.580215</ele>
        <time>2022-08-28T06:44:42Z</time>
      </trkpt>
      <trkpt lat="50.33233" lon="4.37575">
        <ele>187.561188</ele>
        <time>2022-08-28T06:44:44Z</time>
      </trkpt>
      <trkpt lat="50.33228" lon="4.37591">
        <ele>187.636826</ele>
        <time>2022-08-28T06:44:46Z</time>
      </trkpt>
      <trkpt lat="50.33223" lon="4.37606">
        <ele>187.691437</ele>
        <time>2022-08-28T06:44:48Z</time>
      </trkpt>
      <trkpt lat="50.33218" lon="4.37621">
        <ele>187.853165</ele>
        <time>2022-08-28T06:44:50Z</time>
      </trkpt>
      <trkpt lat="50.33213" lon="4.37637">
        <ele>187.664474</ele>
        <time>2022-08-28T06:44:52Z</time>
      </trkpt>
      <trkpt lat="50.33207" lon="4.37653">
        <ele>187.506943</ele>
        <time>2022-08-28T06:44:54Z</time>
      </trkpt>
      <trkpt lat="50.33202" lon="4.37669">
        <ele>187.45636</ele>
        <time>2022-08-28T06:44:56Z</time>
      </trkpt>
      <trkpt lat="50.33197" lon="4.37684">
        <ele>187.187592</ele>
        <time>2022-08-28T06:44:58Z</time>
      </trkpt>
      <trkpt lat="50.33191" lon="4.377">
        <ele>187.002747</ele>
        <time>2022-08-28T06:45:00Z</time>
      </trkpt>
      <trkpt lat="50.33186" lon="4.37716">
        <ele>187.002319</ele>
        <time>2022-08-28T06:45:02Z</time>
      </trkpt>
      <trkpt lat="50.3318" lon="4.37732">
        <ele>187.014496</ele>
        <time>2022-08-28T06:45:04Z</time>
      </trkpt>
      <trkpt lat="50.33175" lon="4.37748">
        <ele>186.800217</ele>
        <time>2022-08-28T06:45:06Z</time>
      </trkpt>
      <trkpt lat="50.33169" lon="4.37764">
        <ele>186.794083</ele>
        <time>2022-08-28T06:45:08Z</time>
      </trkpt>
      <trkpt lat="50.33164" lon="4.37779">
        <ele>186.697449</ele>
        <time>2022-08-28T06:45:10Z</time>
      </trkpt>
      <trkpt lat="50.33158" lon="4.37792">
        <ele>186.350739</ele>
        <time>2022-08-28T06:45:12Z</time>
      </trkpt>
      <trkpt lat="50.33149" lon="4.37798">
        <ele>186.319244</ele>
        <time>2022-08-28T06:45:14Z</time>
      </trkpt>
      <trkpt lat="50.33137" lon="4.37798">
        <ele>186.243622</ele>
        <time>2022-08-28T06:45:16Z</time>
      </trkpt>
      <trkpt lat="50.33126" lon="4.37789">
        <ele>186.218552</ele>
        <time>2022-08-28T06:45:18Z</time>
      </trkpt>
      <trkpt lat="50.33115" lon="4.37776">
        <ele>186.042267</ele>
        <time>2022-08-28T06:45:20Z</time>
      </trkpt>
      <trkpt lat="50.33103" lon="4.37762">
        <ele>185.886353</ele>
        <time>2022-08-28T06:45:22Z</time>
      </trkpt>
      <trkpt lat="50.33091" lon="4.37749">
        <ele>185.894409</ele>
        <time>2022-08-28T06:45:24Z</time>
      </trkpt>
      <trkpt lat="50.33079" lon="4.37739">
        <ele>185.662521</ele>
        <time>2022-08-28T06:45:26Z</time>
      </trkpt>
      <trkpt lat="50.33065" lon="4.37735">
        <ele>185.60791</ele>
        <time>2022-08-28T06:45:28Z</time>
      </trkpt>
      <trkpt lat="50.33052" lon="4.37739">
        <ele>185.374771</ele>
        <time>2022-08-28T06:45:30Z</time>
      </trkpt>
      <trkpt lat="50.33039" lon="4.37746">
        <ele>185.387497</ele>
        <time>2022-08-28T06:45:32Z</time>
      </trkpt>
      <trkpt lat="50.33028" lon="4.37755">
        <ele>185.488297</ele>
        <time>2022-08-28T06:45:34Z</time>
      </trkpt>
      <trkpt lat="50.33016" lon="4.37764">
        <ele>185.394745</ele>
        <time>2022-08-28T06:45:36Z</time>
      </trkpt>
      <trkpt lat="50.33006" lon="4.37772">
        <ele>185.445084</ele>
        <time>2022-08-28T06:45:38Z</time>
      </trkpt>
      <trkpt lat="50.32995" lon="4.37779">
        <ele>185.386261</ele>
        <time>2022-08-28T06:45:40Z</time>
      </trkpt>
      <trkpt lat="50.32985" lon="4.37784">
        <ele>185.369492</ele>
        <time>2022-08-28T06:45:42Z</time>
      </trkpt>
      <trkpt lat="50.32973" lon="4.37788">
        <ele>185.198761</ele>
        <time>2022-08-28T06:45:44Z</time>
      </trkpt>
      <trkpt lat="50.32961" lon="4.37793">
        <ele>185.083313</ele>
        <time>2022-08-28T06:45:46Z</time>
      </trkpt>
      <trkpt lat="50.32949" lon="4.37799">
        <ele>184.978165</ele>
        <time>2022-08-28T06:45:48Z</time>
      </trkpt>
      <trkpt lat="50.32937" lon="4.37804">
        <ele>184.856354</ele>
        <time>2022-08-28T06:45:50Z</time>
      </trkpt>
      <trkpt lat="50.32926" lon="4.37811">
        <ele>184.685562</ele>
        <time>2022-08-28T06:45:52Z</time>
      </trkpt>
      <trkpt lat="50.32915" lon="4.37819">
        <ele>184.466888</ele>
        <time>2022-08-28T06:45:54Z</time>
      </trkpt>
      <trkpt lat="50.32905" lon="4.37827">
        <ele>184.319885</ele>
        <time>2022-08-28T06:45:56Z</time>
      </trkpt>
      <trkpt lat="50.32897" lon="4.37835">
        <ele>184.194519</ele>
        <time>2022-08-28T06:45:58Z</time>
      </trkpt>
      <trkpt lat="50.32888" lon="4.37844">
        <ele>184.013367</ele>
        <time>2022-08-28T06:46:00Z</time>
      </trkpt>
      <trkpt lat="50.3288" lon="4.37852">
        <ele>183.921448</ele>
        <time>2022-08-28T06:46:02Z</time>
      </trkpt>
      <trkpt lat="50.32873" lon="4.37863">
        <ele>183.988373</ele>
        <time>2022-08-28T06:46:04Z</time>
      </trkpt>
      <trkpt lat="50.32867" lon="4.37873">
        <ele>183.939957</ele>
        <time>2022-08-28T06:46:06Z</time>
      </trkpt>
      <trkpt lat="50.32861" lon="4.37884">
        <ele>183.855988</ele>
        <time>2022-08-28T06:46:08Z</time>
      </trkpt>
      <trkpt lat="50.32855" lon="4.37895">
        <ele>183.878372</ele>
        <time>2022-08-28T06:46:10Z</time>
      </trkpt>
      <trkpt lat="50.3285" lon="4.37904">
        <ele>183.703949</ele>
        <time>2022-08-28T06:46:12Z</time>
      </trkpt>
      <trkpt lat="50.32842" lon="4.37913">
        <ele>183.691345</ele>
        <time>2022-08-28T06:46:14Z</time>
      </trkpt>
      <trkpt lat="50.32834" lon="4.37923">
        <ele>183.630432</ele>
        <time>2022-08-28T06:46:16Z</time>
      </trkpt>
      <trkpt lat="50.32825" lon="4.37932">
        <ele>183.60231</ele>
        <time>2022-08-28T06:46:18Z</time>
      </trkpt>
      <trkpt lat="50.32816" lon="4.3794">
        <ele>183.457413</ele>
        <time>2022-08-28T06:46:20Z</time>
      </trkpt>
      <trkpt lat="50.32807" lon="4.37949">
        <ele>183.583405</ele>
        <time>2022-08-28T06:46:22Z</time>
      </trkpt>
      <trkpt lat="50.32799" lon="4.37958">
        <ele>183.490982</ele>
        <time>2022-08-28T06:46:24Z</time>
      </trkpt>
      <trkpt lat="50.32793" lon="4.37967">
        <ele>183.653336</ele>
        <time>2022-08-28T06:46:26Z</time>
      </trkpt>
      <trkpt lat="50.32785" lon="4.37978">
        <ele>183.771301</ele>
        <time>2022-08-28T06:46:28Z</time>
      </trkpt>
      <trkpt lat="50.32778" lon="4.3799">
        <ele>183.916229</ele>
        <time>2022-08-28T06:46:30Z</time>
      </trkpt>
      <trkpt lat="50.32771" lon="4.37999">
        <ele>184.12413</ele>
        <time>2022-08-28T06:46:32Z</time>
      </trkpt>
      <trkpt lat="50.32766" lon="4.38008">
        <ele>184.303329</ele>
        <time>2022-08-28T06:46:34Z</time>
      </trkpt>
      <trkpt lat="50.32763" lon="4.38014">
        <ele>184.490463</ele>
        <time>2022-08-28T06:46:36Z</time>
      </trkpt>
      <trkpt lat="50.32759" lon="4.38021">
        <ele>184.695175</ele>
        <time>2022-08-28T06:46:38Z</time>
      </trkpt>
      <trkpt lat="50.32753" lon="4.38025">
        <ele>184.909409</ele>
        <time>2022-08-28T06:46:40Z</time>
      </trkpt>
      <trkpt lat="50.32744" lon="4.38026">
        <ele>185.173431</ele>
        <time>2022-08-28T06:46:42Z</time>
      </trkpt>
      <trkpt lat="50.32737" lon="4.38021">
        <ele>185.42601</ele>
        <time>2022-08-28T06:46:44Z</time>
      </trkpt>
      <trkpt lat="50.32729" lon="4.38016">
        <ele>185.631973</ele>
        <time>2022-08-28T06:46:46Z</time>
      </trkpt>
      <trkpt lat="50.32719" lon="4.38012">
        <ele>185.965927</ele>
        <time>2022-08-28T06:46:48Z</time>
      </trkpt>
      <trkpt lat="50.32711" lon="4.38004">
        <ele>186.264938</ele>
        <time>2022-08-28T06:46:50Z</time>
      </trkpt>
      <trkpt lat="50.32702" lon="4.37997">
        <ele>186.643036</ele>
        <time>2022-08-28T06:46:52Z</time>
      </trkpt>
      <trkpt lat="50.32694" lon="4.3799">
        <ele>187.046356</ele>
        <time>2022-08-28T06:46:54Z</time>
      </trkpt>
      <trkpt lat="50.32686" lon="4.37982">
        <ele>187.418182</ele>
        <time>2022-08-28T06:46:56Z</time>
      </trkpt>
      <trkpt lat="50.32678" lon="4.37974">
        <ele>187.584152</ele>
        <time>2022-08-28T06:46:57Z</time>
      </trkpt>
      <trkpt lat="50.32669" lon="4.37966">
        <ele>187.981064</ele>
        <time>2022-08-28T06:47:00Z</time>
      </trkpt>
      <trkpt lat="50.32661" lon="4.37958">
        <ele>188.493607</ele>
        <time>2022-08-28T06:47:02Z</time>
      </trkpt>
      <trkpt lat="50.32653" lon="4.3795">
        <ele>188.85498</ele>
        <time>2022-08-28T06:47:04Z</time>
      </trkpt>
      <trkpt lat="50.32644" lon="4.37942">
        <ele>189.235245</ele>
        <time>2022-08-28T06:47:06Z</time>
      </trkpt>
      <trkpt lat="50.32636" lon="4.37934">
        <ele>189.445343</ele>
        <time>2022-08-28T06:47:08Z</time>
      </trkpt>
      <trkpt lat="50.32628" lon="4.37925">
        <ele>189.771027</ele>
        <time>2022-08-28T06:47:10Z</time>
      </trkpt>
      <trkpt lat="50.32619" lon="4.37916">
        <ele>190.073898</ele>
        <time>2022-08-28T06:47:12Z</time>
      </trkpt>
      <trkpt lat="50.32609" lon="4.37908">
        <ele>190.38768</ele>
        <time>2022-08-28T06:47:14Z</time>
      </trkpt>
      <trkpt lat="50.326" lon="4.37899">
        <ele>190.745514</ele>
        <time>2022-08-28T06:47:16Z</time>
      </trkpt>
      <trkpt lat="50.32591" lon="4.37891">
        <ele>191.090637</ele>
        <time>2022-08-28T06:47:18Z</time>
      </trkpt>
      <trkpt lat="50.32582" lon="4.37882">
        <ele>191.360138</ele>
        <time>2022-08-28T06:47:20Z</time>
      </trkpt>
      <trkpt lat="50.32573" lon="4.37873">
        <ele>191.638168</ele>
        <time>2022-08-28T06:47:22Z</time>
      </trkpt>
      <trkpt lat="50.32565" lon="4.37863">
        <ele>191.84079</ele>
        <time>2022-08-28T06:47:24Z</time>
      </trkpt>
      <trkpt lat="50.32556" lon="4.37853">
        <ele>192.046768</ele>
        <time>2022-08-28T06:47:26Z</time>
      </trkpt>
      <trkpt lat="50.32547" lon="4.37843">
        <ele>192.269547</ele>
        <time>2022-08-28T06:47:28Z</time>
      </trkpt>
      <trkpt lat="50.32537" lon="4.37832">
        <ele>192.433472</ele>
        <time>2022-08-28T06:47:30Z</time>
      </trkpt>
      <trkpt lat="50.32526" lon="4.37821">
        <ele>192.647842</ele>
        <time>2022-08-28T06:47:32Z</time>
      </trkpt>
      <trkpt lat="50.32514" lon="4.37809">
        <ele>192.70459</ele>
        <time>2022-08-28T06:47:34Z</time>
      </trkpt>
      <trkpt lat="50.32502" lon="4.37797">
        <ele>192.88324</ele>
        <time>2022-08-28T06:47:36Z</time>
      </trkpt>
      <trkpt lat="50.32491" lon="4.37785">
        <ele>192.971512</ele>
        <time>2022-08-28T06:47:38Z</time>
      </trkpt>
      <trkpt lat="50.32481" lon="4.37774">
        <ele>192.988327</ele>
        <time>2022-08-28T06:47:40Z</time>
      </trkpt>
      <trkpt lat="50.32472" lon="4.37764">
        <ele>193.019852</ele>
        <time>2022-08-28T06:47:42Z</time>
      </trkpt>
      <trkpt lat="50.32465" lon="4.37757">
        <ele>192.958908</ele>
        <time>2022-08-28T06:47:44Z</time>
      </trkpt>
      <trkpt lat="50.3246" lon="4.37751">
        <ele>192.914764</ele>
        <time>2022-08-28T06:47:46Z</time>
      </trkpt>
      <trkpt lat="50.32452" lon="4.37745">
        <ele>192.84964</ele>
        <time>2022-08-28T06:47:48Z</time>
      </trkpt>
      <trkpt lat="50.32445" lon="4.3774">
        <ele>192.776077</ele>
        <time>2022-08-28T06:47:50Z</time>
      </trkpt>
      <trkpt lat="50.32437" lon="4.37735">
        <ele>192.660187</ele>
        <time>2022-08-28T06:47:52Z</time>
      </trkpt>
      <trkpt lat="50.32428" lon="4.3773">
        <ele>192.535004</ele>
        <time>2022-08-28T06:47:54Z</time>
      </trkpt>
      <trkpt lat="50.32419" lon="4.37725">
        <ele>192.391479</ele>
        <time>2022-08-28T06:47:56Z</time>
      </trkpt>
      <trkpt lat="50.32412" lon="4.37721">
        <ele>192.242264</ele>
        <time>2022-08-28T06:47:58Z</time>
      </trkpt>
      <trkpt lat="50.32404" lon="4.37716">
        <ele>192.114044</ele>
        <time>2022-08-28T06:48:00Z</time>
      </trkpt>
      <trkpt lat="50.32395" lon="4.37711">
        <ele>192.000534</ele>
        <time>2022-08-28T06:48:02Z</time>
      </trkpt>
      <trkpt lat="50.32387" lon="4.37707">
        <ele>191.969025</ele>
        <time>2022-08-28T06:48:04Z</time>
      </trkpt>
      <trkpt lat="50.32378" lon="4.37704">
        <ele>191.917114</ele>
        <time>2022-08-28T06:48:06Z</time>
      </trkpt>
      <trkpt lat="50.32369" lon="4.37704">
        <ele>191.824738</ele>
        <time>2022-08-28T06:48:08Z</time>
      </trkpt>
      <trkpt lat="50.32359" lon="4.37704">
        <ele>191.744873</ele>
        <time>2022-08-28T06:48:10Z</time>
      </trkpt>
      <trkpt lat="50.32349" lon="4.37705">
        <ele>191.700729</ele>
        <time>2022-08-28T06:48:12Z</time>
      </trkpt>
      <trkpt lat="50.3234" lon="4.37705">
        <ele>191.568314</ele>
        <time>2022-08-28T06:48:14Z</time>
      </trkpt>
      <trkpt lat="50.32329" lon="4.37704">
        <ele>191.526276</ele>
        <time>2022-08-28T06:48:16Z</time>
      </trkpt>
      <trkpt lat="50.32318" lon="4.37703">
        <ele>191.448517</ele>
        <time>2022-08-28T06:48:18Z</time>
      </trkpt>
      <trkpt lat="50.32307" lon="4.37701">
        <ele>191.374939</ele>
        <time>2022-08-28T06:48:20Z</time>
      </trkpt>
      <trkpt lat="50.32296" lon="4.37699">
        <ele>191.408554</ele>
        <time>2022-08-28T06:48:22Z</time>
      </trkpt>
      <trkpt lat="50.32286" lon="4.37697">
        <ele>191.387558</ele>
        <time>2022-08-28T06:48:24Z</time>
      </trkpt>
      <trkpt lat="50.32276" lon="4.37694">
        <ele>191.374969</ele>
        <time>2022-08-28T06:48:26Z</time>
      </trkpt>
      <trkpt lat="50.32266" lon="4.37692">
        <ele>191.448517</ele>
        <time>2022-08-28T06:48:28Z</time>
      </trkpt>
      <trkpt lat="50.32254" lon="4.37689">
        <ele>191.643982</ele>
        <time>2022-08-28T06:48:30Z</time>
      </trkpt>
      <trkpt lat="50.32242" lon="4.37685">
        <ele>191.667099</ele>
        <time>2022-08-28T06:48:32Z</time>
      </trkpt>
      <trkpt lat="50.3223" lon="4.37681">
        <ele>191.795303</ele>
        <time>2022-08-28T06:48:34Z</time>
      </trkpt>
      <trkpt lat="50.32219" lon="4.37678">
        <ele>191.909241</ele>
        <time>2022-08-28T06:48:36Z</time>
      </trkpt>
      <trkpt lat="50.32207" lon="4.37675">
        <ele>192.085754</ele>
        <time>2022-08-28T06:48:38Z</time>
      </trkpt>
      <trkpt lat="50.32195" lon="4.37672">
        <ele>192.209778</ele>
        <time>2022-08-28T06:48:40Z</time>
      </trkpt>
      <trkpt lat="50.32184" lon="4.37668">
        <ele>192.15094</ele>
        <time>2022-08-28T06:48:42Z</time>
      </trkpt>
      <trkpt lat="50.32171" lon="4.37665">
        <ele>192.176163</ele>
        <time>2022-08-28T06:48:44Z</time>
      </trkpt>
      <trkpt lat="50.32158" lon="4.37662">
        <ele>192.161438</ele>
        <time>2022-08-28T06:48:46Z</time>
      </trkpt>
      <trkpt lat="50.32146" lon="4.37658">
        <ele>192.012299</ele>
        <time>2022-08-28T06:48:48Z</time>
      </trkpt>
      <trkpt lat="50.32134" lon="4.37653">
        <ele>191.993271</ele>
        <time>2022-08-28T06:48:50Z</time>
      </trkpt>
      <trkpt lat="50.32122" lon="4.37648">
        <ele>191.961746</ele>
        <time>2022-08-28T06:48:52Z</time>
      </trkpt>
      <trkpt lat="50.3211" lon="4.37641">
        <ele>191.924652</ele>
        <time>2022-08-28T06:48:54Z</time>
      </trkpt>
      <trkpt lat="50.32098" lon="4.37636">
        <ele>191.891022</ele>
        <time>2022-08-28T06:48:56Z</time>
      </trkpt>
      <trkpt lat="50.32087" lon="4.3763">
        <ele>191.821671</ele>
        <time>2022-08-28T06:48:58Z</time>
      </trkpt>
      <trkpt lat="50.32075" lon="4.37623">
        <ele>191.727097</ele>
        <time>2022-08-28T06:49:00Z</time>
      </trkpt>
      <trkpt lat="50.32063" lon="4.37617">
        <ele>191.674561</ele>
        <time>2022-08-28T06:49:02Z</time>
      </trkpt>
      <trkpt lat="50.32052" lon="4.3761">
        <ele>191.600998</ele>
        <time>2022-08-28T06:49:04Z</time>
      </trkpt>
      <trkpt lat="50.3204" lon="4.37602">
        <ele>191.580719</ele>
        <time>2022-08-28T06:49:06Z</time>
      </trkpt>
      <trkpt lat="50.32029" lon="4.37593">
        <ele>191.463043</ele>
        <time>2022-08-28T06:49:08Z</time>
      </trkpt>
      <trkpt lat="50.32018" lon="4.37583">
        <ele>191.25705</ele>
        <time>2022-08-28T06:49:10Z</time>
      </trkpt>
      <trkpt lat="50.32006" lon="4.37572">
        <ele>191.181396</ele>
        <time>2022-08-28T06:49:12Z</time>
      </trkpt>
      <trkpt lat="50.31995" lon="4.37561">
        <ele>191.070023</ele>
        <time>2022-08-28T06:49:14Z</time>
      </trkpt>
      <trkpt lat="50.31984" lon="4.37549">
        <ele>190.988068</ele>
        <time>2022-08-28T06:49:16Z</time>
      </trkpt>
      <trkpt lat="50.31972" lon="4.37538">
        <ele>190.782104</ele>
        <time>2022-08-28T06:49:18Z</time>
      </trkpt>
      <trkpt lat="50.3196" lon="4.37527">
        <ele>190.624481</ele>
        <time>2022-08-28T06:49:20Z</time>
      </trkpt>
      <trkpt lat="50.31949" lon="4.37516">
        <ele>190.431183</ele>
        <time>2022-08-28T06:49:22Z</time>
      </trkpt>
      <trkpt lat="50.31937" lon="4.37505">
        <ele>190.279877</ele>
        <time>2022-08-28T06:49:24Z</time>
      </trkpt>
      <trkpt lat="50.31925" lon="4.37494">
        <ele>190.17691</ele>
        <time>2022-08-28T06:49:26Z</time>
      </trkpt>
      <trkpt lat="50.31913" lon="4.37482">
        <ele>190.015411</ele>
        <time>2022-08-28T06:49:28Z</time>
      </trkpt>
      <trkpt lat="50.31902" lon="4.37471">
        <ele>189.948151</ele>
        <time>2022-08-28T06:49:30Z</time>
      </trkpt>
      <trkpt lat="50.3189" lon="4.37459">
        <ele>189.771652</ele>
        <time>2022-08-28T06:49:32Z</time>
      </trkpt>
      <trkpt lat="50.31878" lon="4.37446">
        <ele>189.670792</ele>
        <time>2022-08-28T06:49:34Z</time>
      </trkpt>
      <trkpt lat="50.31867" lon="4.37434">
        <ele>189.441025</ele>
        <time>2022-08-28T06:49:36Z</time>
      </trkpt>
      <trkpt lat="50.31855" lon="4.3742">
        <ele>189.34436</ele>
        <time>2022-08-28T06:49:38Z</time>
      </trkpt>
      <trkpt lat="50.31844" lon="4.37406">
        <ele>189.159485</ele>
        <time>2022-08-28T06:49:40Z</time>
      </trkpt>
      <trkpt lat="50.31834" lon="4.37393">
        <ele>189.033432</ele>
        <time>2022-08-28T06:49:42Z</time>
      </trkpt>
      <trkpt lat="50.31822" lon="4.37379">
        <ele>188.81073</ele>
        <time>2022-08-28T06:49:44Z</time>
      </trkpt>
      <trkpt lat="50.31812" lon="4.37365">
        <ele>188.555771</ele>
        <time>2022-08-28T06:49:46Z</time>
      </trkpt>
      <trkpt lat="50.318" lon="4.37351">
        <ele>188.425522</ele>
        <time>2022-08-28T06:49:48Z</time>
      </trkpt>
      <trkpt lat="50.31789" lon="4.37337">
        <ele>188.276337</ele>
        <time>2022-08-28T06:49:50Z</time>
      </trkpt>
      <trkpt lat="50.31777" lon="4.37323">
        <ele>188.150284</ele>
        <time>2022-08-28T06:49:52Z</time>
      </trkpt>
      <trkpt lat="50.31765" lon="4.37307">
        <ele>188.146088</ele>
        <time>2022-08-28T06:49:54Z</time>
      </trkpt>
      <trkpt lat="50.31754" lon="4.37293">
        <ele>187.971695</ele>
        <time>2022-08-28T06:49:56Z</time>
      </trkpt>
      <trkpt lat="50.31743" lon="4.37279">
        <ele>187.82045</ele>
        <time>2022-08-28T06:49:58Z</time>
      </trkpt>
      <trkpt lat="50.31732" lon="4.37265">
        <ele>187.728165</ele>
        <time>2022-08-28T06:50:00Z</time>
      </trkpt>
      <trkpt lat="50.31722" lon="4.37252">
        <ele>187.667252</ele>
        <time>2022-08-28T06:50:02Z</time>
      </trkpt>
      <trkpt lat="50.31712" lon="4.37239">
        <ele>187.478241</ele>
        <time>2022-08-28T06:50:04Z</time>
      </trkpt>
      <trkpt lat="50.31704" lon="4.37228">
        <ele>187.305939</ele>
        <time>2022-08-28T06:50:06Z</time>
      </trkpt>
      <trkpt lat="50.317" lon="4.37222">
        <ele>187.142105</ele>
        <time>2022-08-28T06:50:08Z</time>
      </trkpt>
      <trkpt lat="50.31697" lon="4.37227">
        <ele>187.043365</ele>
        <time>2022-08-28T06:50:10Z</time>
      </trkpt>
      <trkpt lat="50.31699" lon="4.37234">
        <ele>186.871109</ele>
        <time>2022-08-28T06:50:12Z</time>
      </trkpt>
      <trkpt lat="50.31706" lon="4.3724">
        <ele>186.797592</ele>
        <time>2022-08-28T06:50:14Z</time>
      </trkpt>
      <trkpt lat="50.31712" lon="4.37243">
        <ele>186.57074</ele>
        <time>2022-08-28T06:50:16Z</time>
      </trkpt>
      <trkpt lat="50.31719" lon="4.37241">
        <ele>186.501419</ele>
        <time>2022-08-28T06:50:18Z</time>
      </trkpt>
      <trkpt lat="50.31726" lon="4.37234">
        <ele>186.4048</ele>
        <time>2022-08-28T06:50:20Z</time>
      </trkpt>
      <trkpt lat="50.31735" lon="4.37227">
        <ele>186.282959</ele>
        <time>2022-08-28T06:50:22Z</time>
      </trkpt>
      <trkpt lat="50.31744" lon="4.37219">
        <ele>186.190536</ele>
        <time>2022-08-28T06:50:24Z</time>
      </trkpt>
      <trkpt lat="50.31754" lon="4.37209">
        <ele>186.096054</ele>
        <time>2022-08-28T06:50:26Z</time>
      </trkpt>
      <trkpt lat="50.31766" lon="4.37198">
        <ele>186.142273</ele>
        <time>2022-08-28T06:50:28Z</time>
      </trkpt>
      <trkpt lat="50.31779" lon="4.37186">
        <ele>186.058258</ele>
        <time>2022-08-28T06:50:30Z</time>
      </trkpt>
      <trkpt lat="50.31793" lon="4.37173">
        <ele>185.753754</ele>
        <time>2022-08-28T06:50:32Z</time>
      </trkpt>
      <trkpt lat="50.31807" lon="4.37161">
        <ele>185.631927</ele>
        <time>2022-08-28T06:50:34Z</time>
      </trkpt>
      <trkpt lat="50.31822" lon="4.37148">
        <ele>185.482758</ele>
        <time>2022-08-28T06:50:36Z</time>
      </trkpt>
      <trkpt lat="50.31838" lon="4.37138">
        <ele>185.312836</ele>
        <time>2022-08-28T06:50:38Z</time>
      </trkpt>
      <trkpt lat="50.31854" lon="4.3713">
        <ele>185.241425</ele>
        <time>2022-08-28T06:50:40Z</time>
      </trkpt>
      <trkpt lat="50.3187" lon="4.37127">
        <ele>184.814987</ele>
        <time>2022-08-28T06:50:42Z</time>
      </trkpt>
      <trkpt lat="50.31887" lon="4.37127">
        <ele>184.493713</ele>
        <time>2022-08-28T06:50:44Z</time>
      </trkpt>
      <trkpt lat="50.31895" lon="4.37128">
        <ele>184.647003</ele>
        <time>2022-08-28T06:50:45Z</time>
      </trkpt>
      <trkpt lat="50.31911" lon="4.3713">
        <ele>184.336243</ele>
        <time>2022-08-28T06:50:47Z</time>
      </trkpt>
      <trkpt lat="50.31926" lon="4.37132">
        <ele>184.148041</ele>
        <time>2022-08-28T06:50:49Z</time>
      </trkpt>
      <trkpt lat="50.31942" lon="4.37134">
        <ele>184.002838</ele>
        <time>2022-08-28T06:50:51Z</time>
      </trkpt>
      <trkpt lat="50.31954" lon="4.37137">
        <ele>183.813828</ele>
        <time>2022-08-28T06:50:53Z</time>
      </trkpt>
      <trkpt lat="50.31965" lon="4.37138">
        <ele>183.610123</ele>
        <time>2022-08-28T06:50:55Z</time>
      </trkpt>
      <trkpt lat="50.31973" lon="4.37139">
        <ele>183.435837</ele>
        <time>2022-08-28T06:50:57Z</time>
      </trkpt>
      <trkpt lat="50.31979" lon="4.37135">
        <ele>183.112442</ele>
        <time>2022-08-28T06:50:59Z</time>
      </trkpt>
      <trkpt lat="50.31982" lon="4.37127">
        <ele>182.920288</ele>
        <time>2022-08-28T06:51:01Z</time>
      </trkpt>
      <trkpt lat="50.31982" lon="4.37118">
        <ele>182.683014</ele>
        <time>2022-08-28T06:51:02Z</time>
      </trkpt>
      <trkpt lat="50.31979" lon="4.37109">
        <ele>182.853363</ele>
        <time>2022-08-28T06:51:05Z</time>
      </trkpt>
      <trkpt lat="50.31977" lon="4.37099">
        <ele>182.563629</ele>
        <time>2022-08-28T06:51:07Z</time>
      </trkpt>
      <trkpt lat="50.31974" lon="4.37087">
        <ele>182.332672</ele>
        <time>2022-08-28T06:51:09Z</time>
      </trkpt>
      <trkpt lat="50.31971" lon="4.37074">
        <ele>181.925278</ele>
        <time>2022-08-28T06:51:11Z</time>
      </trkpt>
      <trkpt lat="50.31967" lon="4.37061">
        <ele>181.610367</ele>
        <time>2022-08-28T06:51:13Z</time>
      </trkpt>
      <trkpt lat="50.31963" lon="4.37047">
        <ele>181.539963</ele>
        <time>2022-08-28T06:51:15Z</time>
      </trkpt>
      <trkpt lat="50.3196" lon="4.37033">
        <ele>180.644257</ele>
        <time>2022-08-28T06:51:17Z</time>
      </trkpt>
      <trkpt lat="50.31956" lon="4.37018">
        <ele>180.32724</ele>
        <time>2022-08-28T06:51:19Z</time>
      </trkpt>
      <trkpt lat="50.31952" lon="4.37005">
        <ele>179.947067</ele>
        <time>2022-08-28T06:51:21Z</time>
      </trkpt>
      <trkpt lat="50.31949" lon="4.36991">
        <ele>179.753998</ele>
        <time>2022-08-28T06:51:23Z</time>
      </trkpt>
      <trkpt lat="50.31946" lon="4.36977">
        <ele>179.58609</ele>
        <time>2022-08-28T06:51:25Z</time>
      </trkpt>
      <trkpt lat="50.31943" lon="4.36962">
        <ele>179.164108</ele>
        <time>2022-08-28T06:51:27Z</time>
      </trkpt>
      <trkpt lat="50.3194" lon="4.36946">
        <ele>178.896729</ele>
        <time>2022-08-28T06:51:29Z</time>
      </trkpt>
      <trkpt lat="50.31937" lon="4.3693">
        <ele>178.567474</ele>
        <time>2022-08-28T06:51:31Z</time>
      </trkpt>
      <trkpt lat="50.31934" lon="4.36915">
        <ele>178.330276</ele>
        <time>2022-08-28T06:51:33Z</time>
      </trkpt>
      <trkpt lat="50.3193" lon="4.36901">
        <ele>178.128754</ele>
        <time>2022-08-28T06:51:35Z</time>
      </trkpt>
      <trkpt lat="50.31926" lon="4.36887">
        <ele>177.914063</ele>
        <time>2022-08-28T06:51:37Z</time>
      </trkpt>
      <trkpt lat="50.31923" lon="4.36874">
        <ele>177.786011</ele>
        <time>2022-08-28T06:51:39Z</time>
      </trkpt>
      <trkpt lat="50.31918" lon="4.3686">
        <ele>177.678986</ele>
        <time>2022-08-28T06:51:41Z</time>
      </trkpt>
      <trkpt lat="50.31914" lon="4.36845">
        <ele>177.495331</ele>
        <time>2022-08-28T06:51:43Z</time>
      </trkpt>
      <trkpt lat="50.31909" lon="4.36831">
        <ele>177.40506</ele>
        <time>2022-08-28T06:51:45Z</time>
      </trkpt>
      <trkpt lat="50.31905" lon="4.36815">
        <ele>176.800156</ele>
        <time>2022-08-28T06:51:47Z</time>
      </trkpt>
      <trkpt lat="50.319" lon="4.368">
        <ele>177.306427</ele>
        <time>2022-08-28T06:51:49Z</time>
      </trkpt>
      <trkpt lat="50.31895" lon="4.36784">
        <ele>177.368011</ele>
        <time>2022-08-28T06:51:51Z</time>
      </trkpt>
      <trkpt lat="50.31889" lon="4.36767">
        <ele>177.90654</ele>
        <time>2022-08-28T06:51:53Z</time>
      </trkpt>
      <trkpt lat="50.31884" lon="4.3675">
        <ele>177.879791</ele>
        <time>2022-08-28T06:51:55Z</time>
      </trkpt>
      <trkpt lat="50.31878" lon="4.36733">
        <ele>178.362106</ele>
        <time>2022-08-28T06:51:57Z</time>
      </trkpt>
      <trkpt lat="50.31873" lon="4.36716">
        <ele>178.261368</ele>
        <time>2022-08-28T06:51:59Z</time>
      </trkpt>
      <trkpt lat="50.31867" lon="4.36698">
        <ele>178.332932</ele>
        <time>2022-08-28T06:52:01Z</time>
      </trkpt>
      <trkpt lat="50.31861" lon="4.3668">
        <ele>177.739563</ele>
        <time>2022-08-28T06:52:03Z</time>
      </trkpt>
      <trkpt lat="50.31854" lon="4.36664">
        <ele>177.685013</ele>
        <time>2022-08-28T06:52:05Z</time>
      </trkpt>
      <trkpt lat="50.31846" lon="4.36647">
        <ele>177.792068</ele>
        <time>2022-08-28T06:52:07Z</time>
      </trkpt>
      <trkpt lat="50.31837" lon="4.36632">
        <ele>177.873917</ele>
        <time>2022-08-28T06:52:09Z</time>
      </trkpt>
      <trkpt lat="50.31828" lon="4.36616">
        <ele>177.947708</ele>
        <time>2022-08-28T06:52:11Z</time>
      </trkpt>
      <trkpt lat="50.3182" lon="4.36601">
        <ele>177.981277</ele>
        <time>2022-08-28T06:52:13Z</time>
      </trkpt>
      <trkpt lat="50.31812" lon="4.36586">
        <ele>177.790344</ele>
        <time>2022-08-28T06:52:15Z</time>
      </trkpt>
      <trkpt lat="50.31804" lon="4.36571">
        <ele>178.175507</ele>
        <time>2022-08-28T06:52:17Z</time>
      </trkpt>
      <trkpt lat="50.31794" lon="4.36557">
        <ele>179.17337</ele>
        <time>2022-08-28T06:52:19Z</time>
      </trkpt>
      <trkpt lat="50.31786" lon="4.36542">
        <ele>179.043259</ele>
        <time>2022-08-28T06:52:21Z</time>
      </trkpt>
      <trkpt lat="50.31778" lon="4.36528">
        <ele>178.864899</ele>
        <time>2022-08-28T06:52:23Z</time>
      </trkpt>
      <trkpt lat="50.3177" lon="4.36514">
        <ele>178.717987</ele>
        <time>2022-08-28T06:52:25Z</time>
      </trkpt>
      <trkpt lat="50.31761" lon="4.365">
        <ele>178.634064</ele>
        <time>2022-08-28T06:52:27Z</time>
      </trkpt>
      <trkpt lat="50.31752" lon="4.36487">
        <ele>178.497665</ele>
        <time>2022-08-28T06:52:29Z</time>
      </trkpt>
      <trkpt lat="50.31742" lon="4.36474">
        <ele>177.818451</ele>
        <time>2022-08-28T06:52:31Z</time>
      </trkpt>
      <trkpt lat="50.31732" lon="4.36462">
        <ele>177.536423</ele>
        <time>2022-08-28T06:52:33Z</time>
      </trkpt>
      <trkpt lat="50.31722" lon="4.36449">
        <ele>176.897827</ele>
        <time>2022-08-28T06:52:35Z</time>
      </trkpt>
      <trkpt lat="50.31713" lon="4.36437">
        <ele>176.699097</ele>
        <time>2022-08-28T06:52:37Z</time>
      </trkpt>
      <trkpt lat="50.31704" lon="4.36426">
        <ele>176.704529</ele>
        <time>2022-08-28T06:52:39Z</time>
      </trkpt>
      <trkpt lat="50.31694" lon="4.36414">
        <ele>176.513702</ele>
        <time>2022-08-28T06:52:41Z</time>
      </trkpt>
      <trkpt lat="50.31686" lon="4.36402">
        <ele>176.996658</ele>
        <time>2022-08-28T06:52:43Z</time>
      </trkpt>
      <trkpt lat="50.31678" lon="4.36388">
        <ele>177.104889</ele>
        <time>2022-08-28T06:52:45Z</time>
      </trkpt>
      <trkpt lat="50.31672" lon="4.36372">
        <ele>177.060837</ele>
        <time>2022-08-28T06:52:47Z</time>
      </trkpt>
      <trkpt lat="50.31668" lon="4.36356">
        <ele>176.94783</ele>
        <time>2022-08-28T06:52:49Z</time>
      </trkpt>
      <trkpt lat="50.31664" lon="4.36339">
        <ele>176.842911</ele>
        <time>2022-08-28T06:52:51Z</time>
      </trkpt>
      <trkpt lat="50.31661" lon="4.36322">
        <ele>176.692673</ele>
        <time>2022-08-28T06:52:53Z</time>
      </trkpt>
      <trkpt lat="50.31658" lon="4.36303">
        <ele>176.680084</ele>
        <time>2022-08-28T06:52:55Z</time>
      </trkpt>
      <trkpt lat="50.31657" lon="4.36284">
        <ele>176.577286</ele>
        <time>2022-08-28T06:52:57Z</time>
      </trkpt>
      <trkpt lat="50.31656" lon="4.36265">
        <ele>175.37381</ele>
        <time>2022-08-28T06:52:59Z</time>
      </trkpt>
      <trkpt lat="50.31655" lon="4.36247">
        <ele>174.701752</ele>
        <time>2022-08-28T06:53:01Z</time>
      </trkpt>
      <trkpt lat="50.31655" lon="4.36229">
        <ele>174.619324</ele>
        <time>2022-08-28T06:53:03Z</time>
      </trkpt>
      <trkpt lat="50.31654" lon="4.36212">
        <ele>174.615128</ele>
        <time>2022-08-28T06:53:05Z</time>
      </trkpt>
      <trkpt lat="50.31654" lon="4.36196">
        <ele>174.631897</ele>
        <time>2022-08-28T06:53:07Z</time>
      </trkpt>
      <trkpt lat="50.31654" lon="4.36179">
        <ele>174.618179</ele>
        <time>2022-08-28T06:53:09Z</time>
      </trkpt>
      <trkpt lat="50.31655" lon="4.36162">
        <ele>174.440414</ele>
        <time>2022-08-28T06:53:11Z</time>
      </trkpt>
      <trkpt lat="50.31655" lon="4.36145">
        <ele>174.490753</ele>
        <time>2022-08-28T06:53:13Z</time>
      </trkpt>
      <trkpt lat="50.31655" lon="4.36128">
        <ele>174.450912</ele>
        <time>2022-08-28T06:53:15Z</time>
      </trkpt>
      <trkpt lat="50.31655" lon="4.3611">
        <ele>174.481964</ele>
        <time>2022-08-28T06:53:17Z</time>
      </trkpt>
      <trkpt lat="50.31655" lon="4.36093">
        <ele>174.36261</ele>
        <time>2022-08-28T06:53:19Z</time>
      </trkpt>
      <trkpt lat="50.31655" lon="4.36076">
        <ele>174.378189</ele>
        <time>2022-08-28T06:53:21Z</time>
      </trkpt>
      <trkpt lat="50.31655" lon="4.36058">
        <ele>174.226746</ele>
        <time>2022-08-28T06:53:23Z</time>
      </trkpt>
      <trkpt lat="50.31655" lon="4.3604">
        <ele>174.116882</ele>
        <time>2022-08-28T06:53:25Z</time>
      </trkpt>
      <trkpt lat="50.31654" lon="4.36022">
        <ele>174.070343</ele>
        <time>2022-08-28T06:53:27Z</time>
      </trkpt>
      <trkpt lat="50.31653" lon="4.36004">
        <ele>174.629059</ele>
        <time>2022-08-28T06:53:29Z</time>
      </trkpt>
      <trkpt lat="50.31651" lon="4.35984">
        <ele>174.639221</ele>
        <time>2022-08-28T06:53:31Z</time>
      </trkpt>
      <trkpt lat="50.31649" lon="4.35965">
        <ele>174.614899</ele>
        <time>2022-08-28T06:53:33Z</time>
      </trkpt>
      <trkpt lat="50.31647" lon="4.35945">
        <ele>174.65477</ele>
        <time>2022-08-28T06:53:35Z</time>
      </trkpt>
      <trkpt lat="50.31644" lon="4.35926">
        <ele>174.763885</ele>
        <time>2022-08-28T06:53:37Z</time>
      </trkpt>
      <trkpt lat="50.31642" lon="4.35907">
        <ele>175.024521</ele>
        <time>2022-08-28T06:53:39Z</time>
      </trkpt>
      <trkpt lat="50.31639" lon="4.35889">
        <ele>174.682465</ele>
        <time>2022-08-28T06:53:41Z</time>
      </trkpt>
      <trkpt lat="50.31636" lon="4.35871">
        <ele>174.691452</ele>
        <time>2022-08-28T06:53:43Z</time>
      </trkpt>
      <trkpt lat="50.31632" lon="4.35852">
        <ele>174.804749</ele>
        <time>2022-08-28T06:53:45Z</time>
      </trkpt>
      <trkpt lat="50.31627" lon="4.35834">
        <ele>174.807709</ele>
        <time>2022-08-28T06:53:47Z</time>
      </trkpt>
      <trkpt lat="50.31623" lon="4.35816">
        <ele>174.883942</ele>
        <time>2022-08-28T06:53:49Z</time>
      </trkpt>
      <trkpt lat="50.31618" lon="4.35797">
        <ele>174.86673</ele>
        <time>2022-08-28T06:53:51Z</time>
      </trkpt>
      <trkpt lat="50.31613" lon="4.3578">
        <ele>174.818497</ele>
        <time>2022-08-28T06:53:53Z</time>
      </trkpt>
      <trkpt lat="50.31608" lon="4.35762">
        <ele>174.600357</ele>
        <time>2022-08-28T06:53:55Z</time>
      </trkpt>
      <trkpt lat="50.31604" lon="4.35744">
        <ele>174.472382</ele>
        <time>2022-08-28T06:53:57Z</time>
      </trkpt>
      <trkpt lat="50.31599" lon="4.35727">
        <ele>174.348602</ele>
        <time>2022-08-28T06:53:59Z</time>
      </trkpt>
      <trkpt lat="50.31594" lon="4.35709">
        <ele>174.270966</ele>
        <time>2022-08-28T06:54:01Z</time>
      </trkpt>
      <trkpt lat="50.31589" lon="4.35692">
        <ele>174.146103</ele>
        <time>2022-08-28T06:54:03Z</time>
      </trkpt>
      <trkpt lat="50.31584" lon="4.35674">
        <ele>174.02655</ele>
        <time>2022-08-28T06:54:05Z</time>
      </trkpt>
      <trkpt lat="50.31579" lon="4.35656">
        <ele>173.708511</ele>
        <time>2022-08-28T06:54:07Z</time>
      </trkpt>
      <trkpt lat="50.31574" lon="4.35637">
        <ele>173.552872</ele>
        <time>2022-08-28T06:54:09Z</time>
      </trkpt>
      <trkpt lat="50.31569" lon="4.35619">
        <ele>172.76828</ele>
        <time>2022-08-28T06:54:11Z</time>
      </trkpt>
      <trkpt lat="50.31564" lon="4.35601">
        <ele>172.373962</ele>
        <time>2022-08-28T06:54:13Z</time>
      </trkpt>
      <trkpt lat="50.31559" lon="4.35584">
        <ele>171.879059</ele>
        <time>2022-08-28T06:54:15Z</time>
      </trkpt>
      <trkpt lat="50.31553" lon="4.35566">
        <ele>171.520966</ele>
        <time>2022-08-28T06:54:17Z</time>
      </trkpt>
      <trkpt lat="50.31547" lon="4.35548">
        <ele>171.220993</ele>
        <time>2022-08-28T06:54:19Z</time>
      </trkpt>
      <trkpt lat="50.31541" lon="4.35529">
        <ele>171.251389</ele>
        <time>2022-08-28T06:54:21Z</time>
      </trkpt>
      <trkpt lat="50.31536" lon="4.35511">
        <ele>170.767334</ele>
        <time>2022-08-28T06:54:23Z</time>
      </trkpt>
      <trkpt lat="50.31531" lon="4.35494">
        <ele>170.526169</ele>
        <time>2022-08-28T06:54:25Z</time>
      </trkpt>
      <trkpt lat="50.31526" lon="4.35476">
        <ele>170.143906</ele>
        <time>2022-08-28T06:54:27Z</time>
      </trkpt>
      <trkpt lat="50.31521" lon="4.35458">
        <ele>169.675751</ele>
        <time>2022-08-28T06:54:29Z</time>
      </trkpt>
      <trkpt lat="50.31516" lon="4.35441">
        <ele>169.298492</ele>
        <time>2022-08-28T06:54:31Z</time>
      </trkpt>
      <trkpt lat="50.31512" lon="4.35423">
        <ele>169.008575</ele>
        <time>2022-08-28T06:54:33Z</time>
      </trkpt>
      <trkpt lat="50.31508" lon="4.35406">
        <ele>168.929291</ele>
        <time>2022-08-28T06:54:35Z</time>
      </trkpt>
      <trkpt lat="50.31503" lon="4.35389">
        <ele>168.61264</ele>
        <time>2022-08-28T06:54:37Z</time>
      </trkpt>
      <trkpt lat="50.315" lon="4.35374">
        <ele>168.336716</ele>
        <time>2022-08-28T06:54:39Z</time>
      </trkpt>
      <trkpt lat="50.315" lon="4.35361">
        <ele>168.06218</ele>
        <time>2022-08-28T06:54:41Z</time>
      </trkpt>
      <trkpt lat="50.31505" lon="4.35351">
        <ele>167.739624</ele>
        <time>2022-08-28T06:54:43Z</time>
      </trkpt>
      <trkpt lat="50.31513" lon="4.35342">
        <ele>167.381027</ele>
        <time>2022-08-28T06:54:45Z</time>
      </trkpt>
      <trkpt lat="50.31522" lon="4.35333">
        <ele>167.144501</ele>
        <time>2022-08-28T06:54:47Z</time>
      </trkpt>
      <trkpt lat="50.3153" lon="4.35324">
        <ele>166.899582</ele>
        <time>2022-08-28T06:54:49Z</time>
      </trkpt>
      <trkpt lat="50.31535" lon="4.35318">
        <ele>166.805222</ele>
        <time>2022-08-28T06:54:50Z</time>
      </trkpt>
      <trkpt lat="50.31543" lon="4.35308">
        <ele>166.550812</ele>
        <time>2022-08-28T06:54:52Z</time>
      </trkpt>
      <trkpt lat="50.31551" lon="4.35298">
        <ele>166.544525</ele>
        <time>2022-08-28T06:54:54Z</time>
      </trkpt>
      <trkpt lat="50.31558" lon="4.35289">
        <ele>166.666092</ele>
        <time>2022-08-28T06:54:56Z</time>
      </trkpt>
      <trkpt lat="50.31562" lon="4.35278">
        <ele>166.640305</ele>
        <time>2022-08-28T06:54:58Z</time>
      </trkpt>
      <trkpt lat="50.31561" lon="4.35266">
        <ele>166.533356</ele>
        <time>2022-08-28T06:55:00Z</time>
      </trkpt>
      <trkpt lat="50.31555" lon="4.35255">
        <ele>166.502274</ele>
        <time>2022-08-28T06:55:02Z</time>
      </trkpt>
      <trkpt lat="50.31548" lon="4.35242">
        <ele>166.669998</ele>
        <time>2022-08-28T06:55:04Z</time>
      </trkpt>
      <trkpt lat="50.31542" lon="4.35229">
        <ele>166.667892</ele>
        <time>2022-08-28T06:55:06Z</time>
      </trkpt>
      <trkpt lat="50.31537" lon="4.35216">
        <ele>166.75647</ele>
        <time>2022-08-28T06:55:08Z</time>
      </trkpt>
      <trkpt lat="50.31536" lon="4.35202">
        <ele>166.724548</ele>
        <time>2022-08-28T06:55:10Z</time>
      </trkpt>
      <trkpt lat="50.3154" lon="4.3519">
        <ele>166.571747</ele>
        <time>2022-08-28T06:55:12Z</time>
      </trkpt>
      <trkpt lat="50.31547" lon="4.35182">
        <ele>166.70015</ele>
        <time>2022-08-28T06:55:14Z</time>
      </trkpt>
      <trkpt lat="50.31556" lon="4.35174">
        <ele>166.74205</ele>
        <time>2022-08-28T06:55:16Z</time>
      </trkpt>
      <trkpt lat="50.31564" lon="4.35166">
        <ele>166.727371</ele>
        <time>2022-08-28T06:55:18Z</time>
      </trkpt>
      <trkpt lat="50.31573" lon="4.35157">
        <ele>166.661514</ele>
        <time>2022-08-28T06:55:20Z</time>
      </trkpt>
      <trkpt lat="50.31582" lon="4.35148">
        <ele>166.68399</ele>
        <time>2022-08-28T06:55:22Z</time>
      </trkpt>
      <trkpt lat="50.31592" lon="4.35138">
        <ele>166.785294</ele>
        <time>2022-08-28T06:55:24Z</time>
      </trkpt>
      <trkpt lat="50.31602" lon="4.35129">
        <ele>166.860504</ele>
        <time>2022-08-28T06:55:26Z</time>
      </trkpt>
      <trkpt lat="50.31613" lon="4.35119">
        <ele>166.948563</ele>
        <time>2022-08-28T06:55:28Z</time>
      </trkpt>
      <trkpt lat="50.31624" lon="4.35108">
        <ele>166.852142</ele>
        <time>2022-08-28T06:55:30Z</time>
      </trkpt>
      <trkpt lat="50.31634" lon="4.35097">
        <ele>167.075897</ele>
        <time>2022-08-28T06:55:32Z</time>
      </trkpt>
      <trkpt lat="50.31644" lon="4.35086">
        <ele>167.205917</ele>
        <time>2022-08-28T06:55:34Z</time>
      </trkpt>
      <trkpt lat="50.31655" lon="4.35074">
        <ele>167.338013</ele>
        <time>2022-08-28T06:55:36Z</time>
      </trkpt>
      <trkpt lat="50.31665" lon="4.35063">
        <ele>167.212204</ele>
        <time>2022-08-28T06:55:38Z</time>
      </trkpt>
      <trkpt lat="50.31674" lon="4.35054">
        <ele>167.094818</ele>
        <time>2022-08-28T06:55:40Z</time>
      </trkpt>
      <trkpt lat="50.31684" lon="4.35045">
        <ele>166.908249</ele>
        <time>2022-08-28T06:55:42Z</time>
      </trkpt>
      <trkpt lat="50.31693" lon="4.35037">
        <ele>166.811798</ele>
        <time>2022-08-28T06:55:44Z</time>
      </trkpt>
      <trkpt lat="50.31701" lon="4.35029">
        <ele>166.581192</ele>
        <time>2022-08-28T06:55:46Z</time>
      </trkpt>
      <trkpt lat="50.31709" lon="4.35022">
        <ele>166.470078</ele>
        <time>2022-08-28T06:55:48Z</time>
      </trkpt>
      <trkpt lat="50.31716" lon="4.35015">
        <ele>166.29126</ele>
        <time>2022-08-28T06:55:50Z</time>
      </trkpt>
      <trkpt lat="50.31724" lon="4.35008">
        <ele>166.297195</ele>
        <time>2022-08-28T06:55:52Z</time>
      </trkpt>
      <trkpt lat="50.31732" lon="4.35002">
        <ele>166.26152</ele>
        <time>2022-08-28T06:55:54Z</time>
      </trkpt>
      <trkpt lat="50.3174" lon="4.34996">
        <ele>166.120682</ele>
        <time>2022-08-28T06:55:56Z</time>
      </trkpt>
      <trkpt lat="50.31747" lon="4.34989">
        <ele>166.085037</ele>
        <time>2022-08-28T06:55:58Z</time>
      </trkpt>
      <trkpt lat="50.31755" lon="4.34985">
        <ele>166.089203</ele>
        <time>2022-08-28T06:56:00Z</time>
      </trkpt>
      <trkpt lat="50.3176" lon="4.34977">
        <ele>165.969452</ele>
        <time>2022-08-28T06:56:02Z</time>
      </trkpt>
      <trkpt lat="50.31762" lon="4.34964">
        <ele>166.034454</ele>
        <time>2022-08-28T06:56:04Z</time>
      </trkpt>
      <trkpt lat="50.31761" lon="4.34949">
        <ele>165.741241</ele>
        <time>2022-08-28T06:56:06Z</time>
      </trkpt>
      <trkpt lat="50.3176" lon="4.34936">
        <ele>165.749603</ele>
        <time>2022-08-28T06:56:08Z</time>
      </trkpt>
      <trkpt lat="50.31757" lon="4.34922">
        <ele>165.695114</ele>
        <time>2022-08-28T06:56:10Z</time>
      </trkpt>
      <trkpt lat="50.31756" lon="4.34908">
        <ele>165.660446</ele>
        <time>2022-08-28T06:56:12Z</time>
      </trkpt>
      <trkpt lat="50.31754" lon="4.34894">
        <ele>165.562546</ele>
        <time>2022-08-28T06:56:14Z</time>
      </trkpt>
      <trkpt lat="50.31752" lon="4.34881">
        <ele>165.231247</ele>
        <time>2022-08-28T06:56:16Z</time>
      </trkpt>
      <trkpt lat="50.31749" lon="4.34867">
        <ele>165.296234</ele>
        <time>2022-08-28T06:56:18Z</time>
      </trkpt>
      <trkpt lat="50.31747" lon="4.34852">
        <ele>165.396896</ele>
        <time>2022-08-28T06:56:20Z</time>
      </trkpt>
      <trkpt lat="50.31745" lon="4.34837">
        <ele>165.608612</ele>
        <time>2022-08-28T06:56:22Z</time>
      </trkpt>
      <trkpt lat="50.31743" lon="4.34822">
        <ele>165.526886</ele>
        <time>2022-08-28T06:56:24Z</time>
      </trkpt>
      <trkpt lat="50.31741" lon="4.34806">
        <ele>165.626541</ele>
        <time>2022-08-28T06:56:26Z</time>
      </trkpt>
      <trkpt lat="50.31739" lon="4.34791">
        <ele>165.632858</ele>
        <time>2022-08-28T06:56:28Z</time>
      </trkpt>
      <trkpt lat="50.31737" lon="4.34775">
        <ele>165.740387</ele>
        <time>2022-08-28T06:56:30Z</time>
      </trkpt>
      <trkpt lat="50.31735" lon="4.34761">
        <ele>165.741669</ele>
        <time>2022-08-28T06:56:32Z</time>
      </trkpt>
      <trkpt lat="50.31733" lon="4.34746">
        <ele>165.700104</ele>
        <time>2022-08-28T06:56:34Z</time>
      </trkpt>
      <trkpt lat="50.31731" lon="4.3473">
        <ele>165.811218</ele>
        <time>2022-08-28T06:56:36Z</time>
      </trkpt>
      <trkpt lat="50.31728" lon="4.34716">
        <ele>165.892975</ele>
        <time>2022-08-28T06:56:38Z</time>
      </trkpt>
      <trkpt lat="50.31726" lon="4.34702">
        <ele>165.934906</ele>
        <time>2022-08-28T06:56:40Z</time>
      </trkpt>
      <trkpt lat="50.31724" lon="4.34687">
        <ele>165.947296</ele>
        <time>2022-08-28T06:56:42Z</time>
      </trkpt>
      <trkpt lat="50.31722" lon="4.34671">
        <ele>165.980865</ele>
        <time>2022-08-28T06:56:44Z</time>
      </trkpt>
      <trkpt lat="50.3172" lon="4.34655">
        <ele>166.142242</ele>
        <time>2022-08-28T06:56:46Z</time>
      </trkpt>
      <trkpt lat="50.31718" lon="4.3464">
        <ele>166.182083</ele>
        <time>2022-08-28T06:56:48Z</time>
      </trkpt>
      <trkpt lat="50.31716" lon="4.34624">
        <ele>166.324646</ele>
        <time>2022-08-28T06:56:50Z</time>
      </trkpt>
      <trkpt lat="50.31714" lon="4.34609">
        <ele>166.323578</ele>
        <time>2022-08-28T06:56:52Z</time>
      </trkpt>
      <trkpt lat="50.31711" lon="4.34594">
        <ele>166.428864</ele>
        <time>2022-08-28T06:56:54Z</time>
      </trkpt>
      <trkpt lat="50.31709" lon="4.34579">
        <ele>166.472885</ele>
        <time>2022-08-28T06:56:56Z</time>
      </trkpt>
      <trkpt lat="50.31707" lon="4.34563">
        <ele>166.575623</ele>
        <time>2022-08-28T06:56:58Z</time>
      </trkpt>
      <trkpt lat="50.31705" lon="4.34548">
        <ele>166.54837</ele>
        <time>2022-08-28T06:57:00Z</time>
      </trkpt>
      <trkpt lat="50.31703" lon="4.34533">
        <ele>166.525299</ele>
        <time>2022-08-28T06:57:02Z</time>
      </trkpt>
      <trkpt lat="50.31701" lon="4.34517">
        <ele>166.745407</ele>
        <time>2022-08-28T06:57:04Z</time>
      </trkpt>
      <trkpt lat="50.31698" lon="4.34502">
        <ele>166.708618</ele>
        <time>2022-08-28T06:57:05Z</time>
      </trkpt>
      <trkpt lat="50.31696" lon="4.34486">
        <ele>166.714676</ele>
        <time>2022-08-28T06:57:08Z</time>
      </trkpt>
      <trkpt lat="50.31694" lon="4.3447">
        <ele>167.020172</ele>
        <time>2022-08-28T06:57:10Z</time>
      </trkpt>
      <trkpt lat="50.31692" lon="4.34455">
        <ele>167.032043</ele>
        <time>2022-08-28T06:57:12Z</time>
      </trkpt>
      <trkpt lat="50.3169" lon="4.34441">
        <ele>167.153641</ele>
        <time>2022-08-28T06:57:14Z</time>
      </trkpt>
      <trkpt lat="50.31688" lon="4.34427">
        <ele>167.207565</ele>
        <time>2022-08-28T06:57:16Z</time>
      </trkpt>
      <trkpt lat="50.31686" lon="4.34411">
        <ele>167.115326</ele>
        <time>2022-08-28T06:57:18Z</time>
      </trkpt>
      <trkpt lat="50.31685" lon="4.34396">
        <ele>167.266281</ele>
        <time>2022-08-28T06:57:20Z</time>
      </trkpt>
      <trkpt lat="50.31682" lon="4.34382">
        <ele>167.379517</ele>
        <time>2022-08-28T06:57:22Z</time>
      </trkpt>
      <trkpt lat="50.3168" lon="4.34367">
        <ele>167.332184</ele>
        <time>2022-08-28T06:57:24Z</time>
      </trkpt>
      <trkpt lat="50.31678" lon="4.34352">
        <ele>167.344391</ele>
        <time>2022-08-28T06:57:26Z</time>
      </trkpt>
      <trkpt lat="50.31677" lon="4.34338">
        <ele>167.516312</ele>
        <time>2022-08-28T06:57:28Z</time>
      </trkpt>
      <trkpt lat="50.31675" lon="4.34323">
        <ele>167.602982</ele>
        <time>2022-08-28T06:57:30Z</time>
      </trkpt>
      <trkpt lat="50.31673" lon="4.34309">
        <ele>167.716217</ele>
        <time>2022-08-28T06:57:32Z</time>
      </trkpt>
      <trkpt lat="50.31671" lon="4.34295">
        <ele>167.742996</ele>
        <time>2022-08-28T06:57:34Z</time>
      </trkpt>
      <trkpt lat="50.3167" lon="4.34281">
        <ele>167.847824</ele>
        <time>2022-08-28T06:57:36Z</time>
      </trkpt>
      <trkpt lat="50.31668" lon="4.34267">
        <ele>167.969437</ele>
        <time>2022-08-28T06:57:38Z</time>
      </trkpt>
      <trkpt lat="50.31666" lon="4.34252">
        <ele>168.033859</ele>
        <time>2022-08-28T06:57:40Z</time>
      </trkpt>
      <trkpt lat="50.31664" lon="4.34238">
        <ele>168.086273</ele>
        <time>2022-08-28T06:57:42Z</time>
      </trkpt>
      <trkpt lat="50.31662" lon="4.34224">
        <ele>168.310654</ele>
        <time>2022-08-28T06:57:44Z</time>
      </trkpt>
      <trkpt lat="50.31661" lon="4.3421">
        <ele>168.522461</ele>
        <time>2022-08-28T06:57:46Z</time>
      </trkpt>
      <trkpt lat="50.31659" lon="4.34197">
        <ele>168.669739</ele>
        <time>2022-08-28T06:57:48Z</time>
      </trkpt>
      <trkpt lat="50.31657" lon="4.34183">
        <ele>168.667648</ele>
        <time>2022-08-28T06:57:50Z</time>
      </trkpt>
      <trkpt lat="50.31655" lon="4.3417">
        <ele>168.899414</ele>
        <time>2022-08-28T06:57:52Z</time>
      </trkpt>
      <trkpt lat="50.31653" lon="4.34156">
        <ele>169.054596</ele>
        <time>2022-08-28T06:57:54Z</time>
      </trkpt>
      <trkpt lat="50.31652" lon="4.34143">
        <ele>169.32724</ele>
        <time>2022-08-28T06:57:56Z</time>
      </trkpt>
      <trkpt lat="50.3165" lon="4.34129">
        <ele>169.476715</ele>
        <time>2022-08-28T06:57:58Z</time>
      </trkpt>
      <trkpt lat="50.31648" lon="4.34116">
        <ele>169.732544</ele>
        <time>2022-08-28T06:58:00Z</time>
      </trkpt>
      <trkpt lat="50.31646" lon="4.34103">
        <ele>169.950653</ele>
        <time>2022-08-28T06:58:02Z</time>
      </trkpt>
      <trkpt lat="50.31645" lon="4.3409">
        <ele>170.068085</ele>
        <time>2022-08-28T06:58:04Z</time>
      </trkpt>
      <trkpt lat="50.31644" lon="4.34078">
        <ele>170.288666</ele>
        <time>2022-08-28T06:58:06Z</time>
      </trkpt>
      <trkpt lat="50.31642" lon="4.34064">
        <ele>170.546173</ele>
        <time>2022-08-28T06:58:08Z</time>
      </trkpt>
      <trkpt lat="50.3164" lon="4.34049">
        <ele>170.68808</ele>
        <time>2022-08-28T06:58:10Z</time>
      </trkpt>
      <trkpt lat="50.31638" lon="4.34034">
        <ele>170.979645</ele>
        <time>2022-08-28T06:58:12Z</time>
      </trkpt>
      <trkpt lat="50.31637" lon="4.3402">
        <ele>171.214523</ele>
        <time>2022-08-28T06:58:14Z</time>
      </trkpt>
      <trkpt lat="50.31637" lon="4.34007">
        <ele>171.105789</ele>
        <time>2022-08-28T06:58:16Z</time>
      </trkpt>
      <trkpt lat="50.31636" lon="4.33994">
        <ele>171.887741</ele>
        <time>2022-08-28T06:58:18Z</time>
      </trkpt>
      <trkpt lat="50.31635" lon="4.33981">
        <ele>172.143646</ele>
        <time>2022-08-28T06:58:20Z</time>
      </trkpt>
      <trkpt lat="50.31633" lon="4.33968">
        <ele>172.282669</ele>
        <time>2022-08-28T06:58:22Z</time>
      </trkpt>
      <trkpt lat="50.31633" lon="4.33955">
        <ele>172.381256</ele>
        <time>2022-08-28T06:58:24Z</time>
      </trkpt>
      <trkpt lat="50.31634" lon="4.33942">
        <ele>172.685394</ele>
        <time>2022-08-28T06:58:26Z</time>
      </trkpt>
      <trkpt lat="50.31634" lon="4.3393">
        <ele>172.794464</ele>
        <time>2022-08-28T06:58:28Z</time>
      </trkpt>
      <trkpt lat="50.31632" lon="4.3392">
        <ele>173.001892</ele>
        <time>2022-08-28T06:58:30Z</time>
      </trkpt>
      <trkpt lat="50.31628" lon="4.33916">
        <ele>173.265137</ele>
        <time>2022-08-28T06:58:32Z</time>
      </trkpt>
      <trkpt lat="50.31622" lon="4.33918">
        <ele>173.301971</ele>
        <time>2022-08-28T06:58:34Z</time>
      </trkpt>
      <trkpt lat="50.31617" lon="4.33924">
        <ele>173.470612</ele>
        <time>2022-08-28T06:58:36Z</time>
      </trkpt>
      <trkpt lat="50.31611" lon="4.33929">
        <ele>173.548874</ele>
        <time>2022-08-28T06:58:38Z</time>
      </trkpt>
      <trkpt lat="50.31605" lon="4.33935">
        <ele>173.746048</ele>
        <time>2022-08-28T06:58:40Z</time>
      </trkpt>
      <trkpt lat="50.31598" lon="4.33941">
        <ele>173.802673</ele>
        <time>2022-08-28T06:58:42Z</time>
      </trkpt>
      <trkpt lat="50.31592" lon="4.33946">
        <ele>173.935822</ele>
        <time>2022-08-28T06:58:44Z</time>
      </trkpt>
      <trkpt lat="50.31586" lon="4.33952">
        <ele>174.17215</ele>
        <time>2022-08-28T06:58:46Z</time>
      </trkpt>
      <trkpt lat="50.3158" lon="4.33956">
        <ele>174.313202</ele>
        <time>2022-08-28T06:58:48Z</time>
      </trkpt>
      <trkpt lat="50.31574" lon="4.33962">
        <ele>174.3992</ele>
        <time>2022-08-28T06:58:50Z</time>
      </trkpt>
      <trkpt lat="50.31567" lon="4.33968">
        <ele>174.512497</ele>
        <time>2022-08-28T06:58:52Z</time>
      </trkpt>
      <trkpt lat="50.31561" lon="4.33973">
        <ele>174.573334</ele>
        <time>2022-08-28T06:58:54Z</time>
      </trkpt>
      <trkpt lat="50.31554" lon="4.33979">
        <ele>175.078583</ele>
        <time>2022-08-28T06:58:56Z</time>
      </trkpt>
      <trkpt lat="50.31546" lon="4.33985">
        <ele>174.398239</ele>
        <time>2022-08-28T06:58:58Z</time>
      </trkpt>
      <trkpt lat="50.3154" lon="4.33991">
        <ele>174.46524</ele>
        <time>2022-08-28T06:59:00Z</time>
      </trkpt>
      <trkpt lat="50.31532" lon="4.33998">
        <ele>174.516068</ele>
        <time>2022-08-28T06:59:02Z</time>
      </trkpt>
      <trkpt lat="50.31524" lon="4.34004">
        <ele>174.719604</ele>
        <time>2022-08-28T06:59:04Z</time>
      </trkpt>
      <trkpt lat="50.31516" lon="4.34012">
        <ele>174.779877</ele>
        <time>2022-08-28T06:59:06Z</time>
      </trkpt>
      <trkpt lat="50.31507" lon="4.3402">
        <ele>174.849396</ele>
        <time>2022-08-28T06:59:08Z</time>
      </trkpt>
      <trkpt lat="50.31498" lon="4.34029">
        <ele>174.895538</ele>
        <time>2022-08-28T06:59:10Z</time>
      </trkpt>
      <trkpt lat="50.31489" lon="4.34038">
        <ele>174.84938</ele>
        <time>2022-08-28T06:59:12Z</time>
      </trkpt>
      <trkpt lat="50.3148" lon="4.34047">
        <ele>174.864624</ele>
        <time>2022-08-28T06:59:14Z</time>
      </trkpt>
      <trkpt lat="50.3147" lon="4.34057">
        <ele>174.785828</ele>
        <time>2022-08-28T06:59:16Z</time>
      </trkpt>
      <trkpt lat="50.3146" lon="4.34067">
        <ele>174.757721</ele>
        <time>2022-08-28T06:59:18Z</time>
      </trkpt>
      <trkpt lat="50.3145" lon="4.34077">
        <ele>174.731918</ele>
        <time>2022-08-28T06:59:20Z</time>
      </trkpt>
      <trkpt lat="50.3144" lon="4.34085">
        <ele>174.731918</ele>
        <time>2022-08-28T06:59:22Z</time>
      </trkpt>
      <trkpt lat="50.31429" lon="4.34091">
        <ele>174.677383</ele>
        <time>2022-08-28T06:59:24Z</time>
      </trkpt>
      <trkpt lat="50.31417" lon="4.34093">
        <ele>174.673035</ele>
        <time>2022-08-28T06:59:26Z</time>
      </trkpt>
      <trkpt lat="50.31405" lon="4.34094">
        <ele>174.484955</ele>
        <time>2022-08-28T06:59:28Z</time>
      </trkpt>
      <trkpt lat="50.31393" lon="4.34093">
        <ele>174.243683</ele>
        <time>2022-08-28T06:59:30Z</time>
      </trkpt>
      <trkpt lat="50.31382" lon="4.3409">
        <ele>174.210114</ele>
        <time>2022-08-28T06:59:32Z</time>
      </trkpt>
      <trkpt lat="50.31371" lon="4.34083">
        <ele>174.038101</ele>
        <time>2022-08-28T06:59:34Z</time>
      </trkpt>
      <trkpt lat="50.31363" lon="4.34071">
        <ele>173.978012</ele>
        <time>2022-08-28T06:59:36Z</time>
      </trkpt>
      <trkpt lat="50.31356" lon="4.34058">
        <ele>173.806015</ele>
        <time>2022-08-28T06:59:38Z</time>
      </trkpt>
      <trkpt lat="50.31349" lon="4.34045">
        <ele>173.587021</ele>
        <time>2022-08-28T06:59:40Z</time>
      </trkpt>
      <trkpt lat="50.31342" lon="4.34032">
        <ele>173.301254</ele>
        <time>2022-08-28T06:59:42Z</time>
      </trkpt>
      <trkpt lat="50.31335" lon="4.3402">
        <ele>173.194229</ele>
        <time>2022-08-28T06:59:44Z</time>
      </trkpt>
      <trkpt lat="50.31328" lon="4.34007">
        <ele>172.987091</ele>
        <time>2022-08-28T06:59:46Z</time>
      </trkpt>
      <trkpt lat="50.31321" lon="4.33995">
        <ele>172.829483</ele>
        <time>2022-08-28T06:59:48Z</time>
      </trkpt>
      <trkpt lat="50.31314" lon="4.33982">
        <ele>172.676361</ele>
        <time>2022-08-28T06:59:50Z</time>
      </trkpt>
      <trkpt lat="50.31306" lon="4.3397">
        <ele>172.449814</ele>
        <time>2022-08-28T06:59:52Z</time>
      </trkpt>
      <trkpt lat="50.31298" lon="4.33958">
        <ele>172.330231</ele>
        <time>2022-08-28T06:59:54Z</time>
      </trkpt>
      <trkpt lat="50.31291" lon="4.33945">
        <ele>172.036011</ele>
        <time>2022-08-28T06:59:56Z</time>
      </trkpt>
      <trkpt lat="50.31284" lon="4.33935">
        <ele>171.95787</ele>
        <time>2022-08-28T06:59:58Z</time>
      </trkpt>
      <trkpt lat="50.31278" lon="4.33922">
        <ele>171.743912</ele>
        <time>2022-08-28T07:00:00Z</time>
      </trkpt>
      <trkpt lat="50.31271" lon="4.33908">
        <ele>171.566223</ele>
        <time>2022-08-28T07:00:02Z</time>
      </trkpt>
      <trkpt lat="50.31268" lon="4.339">
        <ele>171.496994</ele>
        <time>2022-08-28T07:00:03Z</time>
      </trkpt>
      <trkpt lat="50.31262" lon="4.33886">
        <ele>171.327972</ele>
        <time>2022-08-28T07:00:05Z</time>
      </trkpt>
      <trkpt lat="50.31255" lon="4.33872">
        <ele>170.924423</ele>
        <time>2022-08-28T07:00:07Z</time>
      </trkpt>
      <trkpt lat="50.31248" lon="4.33858">
        <ele>170.733597</ele>
        <time>2022-08-28T07:00:09Z</time>
      </trkpt>
      <trkpt lat="50.31241" lon="4.33843">
        <ele>170.473572</ele>
        <time>2022-08-28T07:00:11Z</time>
      </trkpt>
      <trkpt lat="50.31235" lon="4.33828">
        <ele>170.194611</ele>
        <time>2022-08-28T07:00:13Z</time>
      </trkpt>
      <trkpt lat="50.31229" lon="4.33814">
        <ele>169.827713</ele>
        <time>2022-08-28T07:00:15Z</time>
      </trkpt>
      <trkpt lat="50.31223" lon="4.33799">
        <ele>169.5354</ele>
        <time>2022-08-28T07:00:17Z</time>
      </trkpt>
      <trkpt lat="50.31218" lon="4.33785">
        <ele>169.411682</ele>
        <time>2022-08-28T07:00:19Z</time>
      </trkpt>
      <trkpt lat="50.31212" lon="4.33771">
        <ele>169.264893</ele>
        <time>2022-08-28T07:00:21Z</time>
      </trkpt>
      <trkpt lat="50.31205" lon="4.33758">
        <ele>169.187302</ele>
        <time>2022-08-28T07:00:23Z</time>
      </trkpt>
      <trkpt lat="50.31197" lon="4.33748">
        <ele>168.971283</ele>
        <time>2022-08-28T07:00:25Z</time>
      </trkpt>
      <trkpt lat="50.31188" lon="4.33739">
        <ele>168.727997</ele>
        <time>2022-08-28T07:00:27Z</time>
      </trkpt>
      <trkpt lat="50.31178" lon="4.33732">
        <ele>168.470062</ele>
        <time>2022-08-28T07:00:29Z</time>
      </trkpt>
      <trkpt lat="50.31171" lon="4.33722">
        <ele>168.176468</ele>
        <time>2022-08-28T07:00:31Z</time>
      </trkpt>
      <trkpt lat="50.31167" lon="4.33708">
        <ele>167.998215</ele>
        <time>2022-08-28T07:00:33Z</time>
      </trkpt>
      <trkpt lat="50.31164" lon="4.33692">
        <ele>167.75708</ele>
        <time>2022-08-28T07:00:35Z</time>
      </trkpt>
      <trkpt lat="50.31163" lon="4.33675">
        <ele>167.520111</ele>
        <time>2022-08-28T07:00:37Z</time>
      </trkpt>
      <trkpt lat="50.31163" lon="4.33657">
        <ele>167.310959</ele>
        <time>2022-08-28T07:00:39Z</time>
      </trkpt>
      <trkpt lat="50.31161" lon="4.3364">
        <ele>167.09079</ele>
        <time>2022-08-28T07:00:41Z</time>
      </trkpt>
      <trkpt lat="50.31159" lon="4.33621">
        <ele>166.821823</ele>
        <time>2022-08-28T07:00:43Z</time>
      </trkpt>
      <trkpt lat="50.31157" lon="4.33603">
        <ele>166.50647</ele>
        <time>2022-08-28T07:00:45Z</time>
      </trkpt>
      <trkpt lat="50.31154" lon="4.33585">
        <ele>166.414215</ele>
        <time>2022-08-28T07:00:47Z</time>
      </trkpt>
      <trkpt lat="50.31154" lon="4.33572">
        <ele>166.256989</ele>
        <time>2022-08-28T07:00:49Z</time>
      </trkpt>
      <trkpt lat="50.3116" lon="4.33562">
        <ele>166.135406</ele>
        <time>2022-08-28T07:00:51Z</time>
      </trkpt>
      <trkpt lat="50.3117" lon="4.33557">
        <ele>165.896454</ele>
        <time>2022-08-28T07:00:53Z</time>
      </trkpt>
      <trkpt lat="50.31179" lon="4.33551">
        <ele>165.940704</ele>
        <time>2022-08-28T07:00:55Z</time>
      </trkpt>
      <trkpt lat="50.31189" lon="4.33547">
        <ele>165.720337</ele>
        <time>2022-08-28T07:00:57Z</time>
      </trkpt>
      <trkpt lat="50.31198" lon="4.33543">
        <ele>165.452011</ele>
        <time>2022-08-28T07:00:59Z</time>
      </trkpt>
      <trkpt lat="50.31207" lon="4.33539">
        <ele>165.271729</ele>
        <time>2022-08-28T07:01:01Z</time>
      </trkpt>
      <trkpt lat="50.31215" lon="4.33535">
        <ele>165.199677</ele>
        <time>2022-08-28T07:01:03Z</time>
      </trkpt>
      <trkpt lat="50.31224" lon="4.33532">
        <ele>165.006821</ele>
        <time>2022-08-28T07:01:05Z</time>
      </trkpt>
      <trkpt lat="50.31234" lon="4.33528">
        <ele>164.874756</ele>
        <time>2022-08-28T07:01:07Z</time>
      </trkpt>
      <trkpt lat="50.31243" lon="4.33525">
        <ele>164.751068</ele>
        <time>2022-08-28T07:01:09Z</time>
      </trkpt>
      <trkpt lat="50.31252" lon="4.33521">
        <ele>164.621094</ele>
        <time>2022-08-28T07:01:11Z</time>
      </trkpt>
      <trkpt lat="50.31262" lon="4.33518">
        <ele>164.530945</ele>
        <time>2022-08-28T07:01:13Z</time>
      </trkpt>
      <trkpt lat="50.31271" lon="4.33514">
        <ele>164.476425</ele>
        <time>2022-08-28T07:01:15Z</time>
      </trkpt>
      <trkpt lat="50.3128" lon="4.33511">
        <ele>164.449188</ele>
        <time>2022-08-28T07:01:17Z</time>
      </trkpt>
      <trkpt lat="50.31289" lon="4.33508">
        <ele>164.453369</ele>
        <time>2022-08-28T07:01:19Z</time>
      </trkpt>
      <trkpt lat="50.31292" lon="4.33505">
        <ele>164.430313</ele>
        <time>2022-08-28T07:01:20Z</time>
      </trkpt>
      <trkpt lat="50.313" lon="4.33502">
        <ele>164.451462</ele>
        <time>2022-08-28T07:01:22Z</time>
      </trkpt>
      <trkpt lat="50.31309" lon="4.33501">
        <ele>164.545792</ele>
        <time>2022-08-28T07:01:24Z</time>
      </trkpt>
      <trkpt lat="50.31318" lon="4.33499">
        <ele>164.687912</ele>
        <time>2022-08-28T07:01:26Z</time>
      </trkpt>
      <trkpt lat="50.31327" lon="4.33497">
        <ele>164.739624</ele>
        <time>2022-08-28T07:01:28Z</time>
      </trkpt>
      <trkpt lat="50.31336" lon="4.33493">
        <ele>164.917816</ele>
        <time>2022-08-28T07:01:30Z</time>
      </trkpt>
      <trkpt lat="50.31344" lon="4.33489">
        <ele>165.106476</ele>
        <time>2022-08-28T07:01:32Z</time>
      </trkpt>
      <trkpt lat="50.31351" lon="4.3348">
        <ele>165.307693</ele>
        <time>2022-08-28T07:01:34Z</time>
      </trkpt>
      <trkpt lat="50.31356" lon="4.33469">
        <ele>165.540161</ele>
        <time>2022-08-28T07:01:36Z</time>
      </trkpt>
      <trkpt lat="50.31357" lon="4.33455">
        <ele>165.772034</ele>
        <time>2022-08-28T07:01:38Z</time>
      </trkpt>
      <trkpt lat="50.31358" lon="4.33441">
        <ele>166.082306</ele>
        <time>2022-08-28T07:01:40Z</time>
      </trkpt>
      <trkpt lat="50.31359" lon="4.33427">
        <ele>166.436646</ele>
        <time>2022-08-28T07:01:42Z</time>
      </trkpt>
      <trkpt lat="50.3136" lon="4.33412">
        <ele>166.746536</ele>
        <time>2022-08-28T07:01:44Z</time>
      </trkpt>
      <trkpt lat="50.31361" lon="4.33397">
        <ele>167.029572</ele>
        <time>2022-08-28T07:01:46Z</time>
      </trkpt>
      <trkpt lat="50.31362" lon="4.33383">
        <ele>167.358765</ele>
        <time>2022-08-28T07:01:48Z</time>
      </trkpt>
      <trkpt lat="50.31363" lon="4.33368">
        <ele>167.530701</ele>
        <time>2022-08-28T07:01:50Z</time>
      </trkpt>
      <trkpt lat="50.31364" lon="4.33354">
        <ele>167.861984</ele>
        <time>2022-08-28T07:01:52Z</time>
      </trkpt>
      <trkpt lat="50.31364" lon="4.33339">
        <ele>168.184479</ele>
        <time>2022-08-28T07:01:54Z</time>
      </trkpt>
      <trkpt lat="50.31365" lon="4.33324">
        <ele>168.500992</ele>
        <time>2022-08-28T07:01:56Z</time>
      </trkpt>
      <trkpt lat="50.31366" lon="4.33309">
        <ele>168.830231</ele>
        <time>2022-08-28T07:01:58Z</time>
      </trkpt>
      <trkpt lat="50.31367" lon="4.33295">
        <ele>169.195129</ele>
        <time>2022-08-28T07:02:00Z</time>
      </trkpt>
      <trkpt lat="50.31368" lon="4.3328">
        <ele>169.540924</ele>
        <time>2022-08-28T07:02:02Z</time>
      </trkpt>
      <trkpt lat="50.3137" lon="4.33265">
        <ele>169.87619</ele>
        <time>2022-08-28T07:02:04Z</time>
      </trkpt>
      <trkpt lat="50.31373" lon="4.3325">
        <ele>170.258331</ele>
        <time>2022-08-28T07:02:06Z</time>
      </trkpt>
      <trkpt lat="50.31377" lon="4.33234">
        <ele>170.588303</ele>
        <time>2022-08-28T07:02:08Z</time>
      </trkpt>
      <trkpt lat="50.3138" lon="4.33218">
        <ele>170.902908</ele>
        <time>2022-08-28T07:02:10Z</time>
      </trkpt>
      <trkpt lat="50.31383" lon="4.33203">
        <ele>171.228012</ele>
        <time>2022-08-28T07:02:12Z</time>
      </trkpt>
      <trkpt lat="50.31386" lon="4.33188">
        <ele>171.60556</ele>
        <time>2022-08-28T07:02:14Z</time>
      </trkpt>
      <trkpt lat="50.31389" lon="4.33171">
        <ele>171.899216</ele>
        <time>2022-08-28T07:02:16Z</time>
      </trkpt>
      <trkpt lat="50.31391" lon="4.33156">
        <ele>172.255814</ele>
        <time>2022-08-28T07:02:18Z</time>
      </trkpt>
      <trkpt lat="50.31394" lon="4.33141">
        <ele>172.605087</ele>
        <time>2022-08-28T07:02:20Z</time>
      </trkpt>
      <trkpt lat="50.31396" lon="4.33126">
        <ele>172.944946</ele>
        <time>2022-08-28T07:02:22Z</time>
      </trkpt>
      <trkpt lat="50.31398" lon="4.33112">
        <ele>173.225128</ele>
        <time>2022-08-28T07:02:24Z</time>
      </trkpt>
      <trkpt lat="50.31399" lon="4.331">
        <ele>173.401352</ele>
        <time>2022-08-28T07:02:26Z</time>
      </trkpt>
      <trkpt lat="50.31401" lon="4.33091">
        <ele>173.764297</ele>
        <time>2022-08-28T07:02:28Z</time>
      </trkpt>
      <trkpt lat="50.31403" lon="4.33085">
        <ele>174.141937</ele>
        <time>2022-08-28T07:02:30Z</time>
      </trkpt>
      <trkpt lat="50.31404" lon="4.33083">
        <ele>174.429901</ele>
        <time>2022-08-28T07:02:32Z</time>
      </trkpt>
      <trkpt lat="50.31405" lon="4.3308">
        <ele>175.764755</ele>
        <time>2022-08-28T07:02:40Z</time>
      </trkpt>
      <trkpt lat="50.31405" lon="4.33075">
        <ele>176.060837</ele>
        <time>2022-08-28T07:02:42Z</time>
      </trkpt>
      <trkpt lat="50.31404" lon="4.33066">
        <ele>176.339996</ele>
        <time>2022-08-28T07:02:44Z</time>
      </trkpt>
      <trkpt lat="50.31404" lon="4.33055">
        <ele>176.644287</ele>
        <time>2022-08-28T07:02:46Z</time>
      </trkpt>
      <trkpt lat="50.31406" lon="4.33041">
        <ele>176.86673</ele>
        <time>2022-08-28T07:02:48Z</time>
      </trkpt>
      <trkpt lat="50.31408" lon="4.33025">
        <ele>177.143707</ele>
        <time>2022-08-28T07:02:50Z</time>
      </trkpt>
      <trkpt lat="50.31409" lon="4.3301">
        <ele>177.353561</ele>
        <time>2022-08-28T07:02:52Z</time>
      </trkpt>
      <trkpt lat="50.31409" lon="4.32994">
        <ele>177.519333</ele>
        <time>2022-08-28T07:02:54Z</time>
      </trkpt>
      <trkpt lat="50.31409" lon="4.32979">
        <ele>177.689331</ele>
        <time>2022-08-28T07:02:56Z</time>
      </trkpt>
      <trkpt lat="50.31409" lon="4.32963">
        <ele>177.819427</ele>
        <time>2022-08-28T07:02:58Z</time>
      </trkpt>
      <trkpt lat="50.3141" lon="4.32949">
        <ele>177.993622</ele>
        <time>2022-08-28T07:03:00Z</time>
      </trkpt>
      <trkpt lat="50.31411" lon="4.32943">
        <ele>178.073364</ele>
        <time>2022-08-28T07:03:01Z</time>
      </trkpt>
      <trkpt lat="50.31418" lon="4.32936">
        <ele>178.216095</ele>
        <time>2022-08-28T07:03:03Z</time>
      </trkpt>
      <trkpt lat="50.31427" lon="4.32937">
        <ele>178.3237</ele>
        <time>2022-08-28T07:03:05Z</time>
      </trkpt>
      <trkpt lat="50.31435" lon="4.32938">
        <ele>178.39505</ele>
        <time>2022-08-28T07:03:07Z</time>
      </trkpt>
      <trkpt lat="50.31445" lon="4.3294">
        <ele>178.449615</ele>
        <time>2022-08-28T07:03:09Z</time>
      </trkpt>
      <trkpt lat="50.31453" lon="4.3294">
        <ele>178.497894</ele>
        <time>2022-08-28T07:03:11Z</time>
      </trkpt>
      <trkpt lat="50.31463" lon="4.32942">
        <ele>178.560349</ele>
        <time>2022-08-28T07:03:13Z</time>
      </trkpt>
      <trkpt lat="50.31472" lon="4.32944">
        <ele>178.64035</ele>
        <time>2022-08-28T07:03:15Z</time>
      </trkpt>
      <trkpt lat="50.31481" lon="4.32946">
        <ele>178.709885</ele>
        <time>2022-08-28T07:03:17Z</time>
      </trkpt>
      <trkpt lat="50.31491" lon="4.32948">
        <ele>178.834198</ele>
        <time>2022-08-28T07:03:19Z</time>
      </trkpt>
      <trkpt lat="50.31501" lon="4.3295">
        <ele>178.88858</ele>
        <time>2022-08-28T07:03:21Z</time>
      </trkpt>
      <trkpt lat="50.31511" lon="4.32951">
        <ele>179.008224</ele>
        <time>2022-08-28T07:03:23Z</time>
      </trkpt>
      <trkpt lat="50.31521" lon="4.32953">
        <ele>179.092194</ele>
        <time>2022-08-28T07:03:25Z</time>
      </trkpt>
      <trkpt lat="50.3153" lon="4.32954">
        <ele>179.188751</ele>
        <time>2022-08-28T07:03:27Z</time>
      </trkpt>
      <trkpt lat="50.3154" lon="4.32956">
        <ele>179.297913</ele>
        <time>2022-08-28T07:03:29Z</time>
      </trkpt>
      <trkpt lat="50.31551" lon="4.32958">
        <ele>179.331512</ele>
        <time>2022-08-28T07:03:31Z</time>
      </trkpt>
      <trkpt lat="50.31561" lon="4.3296">
        <ele>179.503632</ele>
        <time>2022-08-28T07:03:33Z</time>
      </trkpt>
      <trkpt lat="50.3157" lon="4.32962">
        <ele>179.662506</ele>
        <time>2022-08-28T07:03:35Z</time>
      </trkpt>
      <trkpt lat="50.31581" lon="4.32963">
        <ele>179.859772</ele>
        <time>2022-08-28T07:03:37Z</time>
      </trkpt>
      <trkpt lat="50.31591" lon="4.32964">
        <ele>180.040009</ele>
        <time>2022-08-28T07:03:39Z</time>
      </trkpt>
      <trkpt lat="50.31603" lon="4.32965">
        <ele>180.200958</ele>
        <time>2022-08-28T07:03:41Z</time>
      </trkpt>
      <trkpt lat="50.31614" lon="4.32967">
        <ele>180.380463</ele>
        <time>2022-08-28T07:03:43Z</time>
      </trkpt>
      <trkpt lat="50.31625" lon="4.32968">
        <ele>180.597778</ele>
        <time>2022-08-28T07:03:45Z</time>
      </trkpt>
      <trkpt lat="50.31636" lon="4.32969">
        <ele>180.819183</ele>
        <time>2022-08-28T07:03:47Z</time>
      </trkpt>
      <trkpt lat="50.31647" lon="4.3297">
        <ele>180.995514</ele>
        <time>2022-08-28T07:03:49Z</time>
      </trkpt>
      <trkpt lat="50.31658" lon="4.32972">
        <ele>181.186844</ele>
        <time>2022-08-28T07:03:51Z</time>
      </trkpt>
      <trkpt lat="50.31669" lon="4.32975">
        <ele>181.352753</ele>
        <time>2022-08-28T07:03:53Z</time>
      </trkpt>
      <trkpt lat="50.31681" lon="4.32978">
        <ele>181.564789</ele>
        <time>2022-08-28T07:03:55Z</time>
      </trkpt>
      <trkpt lat="50.31693" lon="4.3298">
        <ele>181.732376</ele>
        <time>2022-08-28T07:03:57Z</time>
      </trkpt>
      <trkpt lat="50.31704" lon="4.32982">
        <ele>181.84549</ele>
        <time>2022-08-28T07:03:59Z</time>
      </trkpt>
      <trkpt lat="50.31715" lon="4.32984">
        <ele>181.967255</ele>
        <time>2022-08-28T07:04:01Z</time>
      </trkpt>
      <trkpt lat="50.31727" lon="4.32986">
        <ele>182.086929</ele>
        <time>2022-08-28T07:04:03Z</time>
      </trkpt>
      <trkpt lat="50.31739" lon="4.32987">
        <ele>182.154114</ele>
        <time>2022-08-28T07:04:05Z</time>
      </trkpt>
      <trkpt lat="50.31751" lon="4.32989">
        <ele>182.277985</ele>
        <time>2022-08-28T07:04:07Z</time>
      </trkpt>
      <trkpt lat="50.31762" lon="4.32989">
        <ele>182.330475</ele>
        <time>2022-08-28T07:04:09Z</time>
      </trkpt>
      <trkpt lat="50.31774" lon="4.32989">
        <ele>182.372467</ele>
        <time>2022-08-28T07:04:11Z</time>
      </trkpt>
      <trkpt lat="50.31786" lon="4.3299">
        <ele>182.380875</ele>
        <time>2022-08-28T07:04:13Z</time>
      </trkpt>
      <trkpt lat="50.31797" lon="4.32991">
        <ele>182.456451</ele>
        <time>2022-08-28T07:04:15Z</time>
      </trkpt>
      <trkpt lat="50.31809" lon="4.32991">
        <ele>182.473969</ele>
        <time>2022-08-28T07:04:17Z</time>
      </trkpt>
      <trkpt lat="50.3182" lon="4.32992">
        <ele>182.507904</ele>
        <time>2022-08-28T07:04:19Z</time>
      </trkpt>
      <trkpt lat="50.31831" lon="4.32992">
        <ele>182.531708</ele>
        <time>2022-08-28T07:04:21Z</time>
      </trkpt>
      <trkpt lat="50.31842" lon="4.32992">
        <ele>182.60202</ele>
        <time>2022-08-28T07:04:23Z</time>
      </trkpt>
      <trkpt lat="50.31854" lon="4.32992">
        <ele>182.612946</ele>
        <time>2022-08-28T07:04:25Z</time>
      </trkpt>
      <trkpt lat="50.31865" lon="4.32992">
        <ele>182.553192</ele>
        <time>2022-08-28T07:04:27Z</time>
      </trkpt>
      <trkpt lat="50.31876" lon="4.32992">
        <ele>182.647675</ele>
        <time>2022-08-28T07:04:29Z</time>
      </trkpt>
      <trkpt lat="50.31887" lon="4.32991">
        <ele>182.731384</ele>
        <time>2022-08-28T07:04:31Z</time>
      </trkpt>
      <trkpt lat="50.31898" lon="4.3299">
        <ele>182.800629</ele>
        <time>2022-08-28T07:04:33Z</time>
      </trkpt>
      <trkpt lat="50.31909" lon="4.3299">
        <ele>182.815323</ele>
        <time>2022-08-28T07:04:35Z</time>
      </trkpt>
      <trkpt lat="50.31921" lon="4.32989">
        <ele>182.836319</ele>
        <time>2022-08-28T07:04:37Z</time>
      </trkpt>
      <trkpt lat="50.31932" lon="4.32988">
        <ele>182.848923</ele>
        <time>2022-08-28T07:04:39Z</time>
      </trkpt>
      <trkpt lat="50.31944" lon="4.32988">
        <ele>182.888824</ele>
        <time>2022-08-28T07:04:41Z</time>
      </trkpt>
      <trkpt lat="50.31955" lon="4.32987">
        <ele>182.910995</ele>
        <time>2022-08-28T07:04:43Z</time>
      </trkpt>
      <trkpt lat="50.31967" lon="4.32985">
        <ele>182.967438</ele>
        <time>2022-08-28T07:04:45Z</time>
      </trkpt>
      <trkpt lat="50.31978" lon="4.32985">
        <ele>182.949615</ele>
        <time>2022-08-28T07:04:47Z</time>
      </trkpt>
      <trkpt lat="50.31989" lon="4.32984">
        <ele>183.006317</ele>
        <time>2022-08-28T07:04:49Z</time>
      </trkpt>
      <trkpt lat="50.31998" lon="4.32984">
        <ele>183.002106</ele>
        <time>2022-08-28T07:04:51Z</time>
      </trkpt>
      <trkpt lat="50.32006" lon="4.32982">
        <ele>183.048309</ele>
        <time>2022-08-28T07:04:53Z</time>
      </trkpt>
      <trkpt lat="50.3201" lon="4.32975">
        <ele>183.104996</ele>
        <time>2022-08-28T07:04:55Z</time>
      </trkpt>
      <trkpt lat="50.32011" lon="4.32963">
        <ele>183.070831</ele>
        <time>2022-08-28T07:04:57Z</time>
      </trkpt>
      <trkpt lat="50.32008" lon="4.3295">
        <ele>183.079254</ele>
        <time>2022-08-28T07:04:59Z</time>
      </trkpt>
      <trkpt lat="50.32007" lon="4.32935">
        <ele>182.334656</ele>
        <time>2022-08-28T07:05:01Z</time>
      </trkpt>
      <trkpt lat="50.32004" lon="4.3292">
        <ele>182.214996</ele>
        <time>2022-08-28T07:05:03Z</time>
      </trkpt>
      <trkpt lat="50.32002" lon="4.32905">
        <ele>182.055435</ele>
        <time>2022-08-28T07:05:05Z</time>
      </trkpt>
      <trkpt lat="50.32" lon="4.3289">
        <ele>181.774185</ele>
        <time>2022-08-28T07:05:07Z</time>
      </trkpt>
      <trkpt lat="50.31998" lon="4.32875">
        <ele>181.702789</ele>
        <time>2022-08-28T07:05:09Z</time>
      </trkpt>
      <trkpt lat="50.31996" lon="4.3286">
        <ele>181.574692</ele>
        <time>2022-08-28T07:05:11Z</time>
      </trkpt>
      <trkpt lat="50.31994" lon="4.32844">
        <ele>181.478119</ele>
        <time>2022-08-28T07:05:13Z</time>
      </trkpt>
      <trkpt lat="50.31992" lon="4.32828">
        <ele>181.194733</ele>
        <time>2022-08-28T07:05:15Z</time>
      </trkpt>
      <trkpt lat="50.3199" lon="4.32813">
        <ele>181.035172</ele>
        <time>2022-08-28T07:05:17Z</time>
      </trkpt>
      <trkpt lat="50.31988" lon="4.32798">
        <ele>180.868195</ele>
        <time>2022-08-28T07:05:19Z</time>
      </trkpt>
      <trkpt lat="50.31987" lon="4.32781">
        <ele>180.810501</ele>
        <time>2022-08-28T07:05:21Z</time>
      </trkpt>
      <trkpt lat="50.31986" lon="4.32765">
        <ele>180.556503</ele>
        <time>2022-08-28T07:05:23Z</time>
      </trkpt>
      <trkpt lat="50.31984" lon="4.32749">
        <ele>180.318085</ele>
        <time>2022-08-28T07:05:25Z</time>
      </trkpt>
      <trkpt lat="50.31982" lon="4.32734">
        <ele>180.201935</ele>
        <time>2022-08-28T07:05:27Z</time>
      </trkpt>
      <trkpt lat="50.31979" lon="4.32719">
        <ele>180.094849</ele>
        <time>2022-08-28T07:05:29Z</time>
      </trkpt>
      <trkpt lat="50.31976" lon="4.32704">
        <ele>179.775787</ele>
        <time>2022-08-28T07:05:31Z</time>
      </trkpt>
      <trkpt lat="50.31973" lon="4.32689">
        <ele>179.61203</ele>
        <time>2022-08-28T07:05:33Z</time>
      </trkpt>
      <trkpt lat="50.3197" lon="4.32674">
        <ele>179.387421</ele>
        <time>2022-08-28T07:05:35Z</time>
      </trkpt>
      <trkpt lat="50.31966" lon="4.32659">
        <ele>179.198456</ele>
        <time>2022-08-28T07:05:37Z</time>
      </trkpt>
      <trkpt lat="50.31962" lon="4.32645">
        <ele>178.982819</ele>
        <time>2022-08-28T07:05:39Z</time>
      </trkpt>
      <trkpt lat="50.31957" lon="4.32631">
        <ele>179.880951</ele>
        <time>2022-08-28T07:05:41Z</time>
      </trkpt>
      <trkpt lat="50.31953" lon="4.32618">
        <ele>179.771271</ele>
        <time>2022-08-28T07:05:43Z</time>
      </trkpt>
      <trkpt lat="50.31948" lon="4.32605">
        <ele>180.162109</ele>
        <time>2022-08-28T07:05:45Z</time>
      </trkpt>
      <trkpt lat="50.31943" lon="4.32592">
        <ele>180.189331</ele>
        <time>2022-08-28T07:05:47Z</time>
      </trkpt>
      <trkpt lat="50.31937" lon="4.3258">
        <ele>179.922729</ele>
        <time>2022-08-28T07:05:49Z</time>
      </trkpt>
      <trkpt lat="50.31932" lon="4.32568">
        <ele>179.738037</ele>
        <time>2022-08-28T07:05:51Z</time>
      </trkpt>
      <trkpt lat="50.31925" lon="4.32556">
        <ele>179.57431</ele>
        <time>2022-08-28T07:05:53Z</time>
      </trkpt>
      <trkpt lat="50.31919" lon="4.32544">
        <ele>179.029205</ele>
        <time>2022-08-28T07:05:55Z</time>
      </trkpt>
      <trkpt lat="50.31913" lon="4.32533">
        <ele>178.985138</ele>
        <time>2022-08-28T07:05:57Z</time>
      </trkpt>
      <trkpt lat="50.31906" lon="4.32522">
        <ele>178.858246</ele>
        <time>2022-08-28T07:05:59Z</time>
      </trkpt>
      <trkpt lat="50.31899" lon="4.32512">
        <ele>178.542282</ele>
        <time>2022-08-28T07:06:01Z</time>
      </trkpt>
      <trkpt lat="50.31891" lon="4.32503">
        <ele>178.443619</ele>
        <time>2022-08-28T07:06:03Z</time>
      </trkpt>
      <trkpt lat="50.31884" lon="4.32494">
        <ele>178.396454</ele>
        <time>2022-08-28T07:06:05Z</time>
      </trkpt>
      <trkpt lat="50.31878" lon="4.32487">
        <ele>178.20546</ele>
        <time>2022-08-28T07:06:07Z</time>
      </trkpt>
      <trkpt lat="50.31871" lon="4.32479">
        <ele>178.060501</ele>
        <time>2022-08-28T07:06:09Z</time>
      </trkpt>
      <trkpt lat="50.31864" lon="4.32471">
        <ele>177.800278</ele>
        <time>2022-08-28T07:06:11Z</time>
      </trkpt>
      <trkpt lat="50.31856" lon="4.32462">
        <ele>177.752014</ele>
        <time>2022-08-28T07:06:13Z</time>
      </trkpt>
      <trkpt lat="50.31848" lon="4.32452">
        <ele>177.558929</ele>
        <time>2022-08-28T07:06:15Z</time>
      </trkpt>
      <trkpt lat="50.31839" lon="4.32443">
        <ele>178.07782</ele>
        <time>2022-08-28T07:06:17Z</time>
      </trkpt>
      <trkpt lat="50.31831" lon="4.32433">
        <ele>177.888947</ele>
        <time>2022-08-28T07:06:19Z</time>
      </trkpt>
      <trkpt lat="50.31823" lon="4.32423">
        <ele>177.677002</ele>
        <time>2022-08-28T07:06:21Z</time>
      </trkpt>
      <trkpt lat="50.31814" lon="4.32414">
        <ele>177.007095</ele>
        <time>2022-08-28T07:06:23Z</time>
      </trkpt>
      <trkpt lat="50.31806" lon="4.32404">
        <ele>176.806168</ele>
        <time>2022-08-28T07:06:25Z</time>
      </trkpt>
      <trkpt lat="50.31799" lon="4.32394">
        <ele>176.178177</ele>
        <time>2022-08-28T07:06:27Z</time>
      </trkpt>
      <trkpt lat="50.31791" lon="4.32383">
        <ele>176.037582</ele>
        <time>2022-08-28T07:06:29Z</time>
      </trkpt>
      <trkpt lat="50.31784" lon="4.32371">
        <ele>175.90654</ele>
        <time>2022-08-28T07:06:31Z</time>
      </trkpt>
      <trkpt lat="50.31776" lon="4.32357">
        <ele>175.679947</ele>
        <time>2022-08-28T07:06:33Z</time>
      </trkpt>
      <trkpt lat="50.3177" lon="4.32345">
        <ele>176.148453</ele>
        <time>2022-08-28T07:06:35Z</time>
      </trkpt>
      <trkpt lat="50.31764" lon="4.32332">
        <ele>176.498383</ele>
        <time>2022-08-28T07:06:37Z</time>
      </trkpt>
      <trkpt lat="50.31758" lon="4.32319">
        <ele>176.320007</ele>
        <time>2022-08-28T07:06:39Z</time>
      </trkpt>
      <trkpt lat="50.31753" lon="4.32306">
        <ele>176.361969</ele>
        <time>2022-08-28T07:06:41Z</time>
      </trkpt>
      <trkpt lat="50.31749" lon="4.32293">
        <ele>176.248672</ele>
        <time>2022-08-28T07:06:43Z</time>
      </trkpt>
      <trkpt lat="50.31746" lon="4.32279">
        <ele>176.044037</ele>
        <time>2022-08-28T07:06:45Z</time>
      </trkpt>
      <trkpt lat="50.31741" lon="4.32266">
        <ele>175.815338</ele>
        <time>2022-08-28T07:06:47Z</time>
      </trkpt>
      <trkpt lat="50.31738" lon="4.32253">
        <ele>175.672882</ele>
        <time>2022-08-28T07:06:49Z</time>
      </trkpt>
      <trkpt lat="50.31735" lon="4.3224">
        <ele>175.591095</ele>
        <time>2022-08-28T07:06:51Z</time>
      </trkpt>
      <trkpt lat="50.31731" lon="4.32228">
        <ele>175.536545</ele>
        <time>2022-08-28T07:06:53Z</time>
      </trkpt>
      <trkpt lat="50.31728" lon="4.32215">
        <ele>175.230194</ele>
        <time>2022-08-28T07:06:55Z</time>
      </trkpt>
      <trkpt lat="50.31725" lon="4.32202">
        <ele>175.009903</ele>
        <time>2022-08-28T07:06:57Z</time>
      </trkpt>
      <trkpt lat="50.31722" lon="4.3219">
        <ele>174.305573</ele>
        <time>2022-08-28T07:06:59Z</time>
      </trkpt>
      <trkpt lat="50.31718" lon="4.32179">
        <ele>174.106293</ele>
        <time>2022-08-28T07:07:01Z</time>
      </trkpt>
      <trkpt lat="50.31715" lon="4.32167">
        <ele>173.911194</ele>
        <time>2022-08-28T07:07:03Z</time>
      </trkpt>
      <trkpt lat="50.31711" lon="4.32156">
        <ele>173.760147</ele>
        <time>2022-08-28T07:07:05Z</time>
      </trkpt>
      <trkpt lat="50.31707" lon="4.32144">
        <ele>173.539871</ele>
        <time>2022-08-28T07:07:07Z</time>
      </trkpt>
      <trkpt lat="50.31704" lon="4.32133">
        <ele>173.397232</ele>
        <time>2022-08-28T07:07:09Z</time>
      </trkpt>
      <trkpt lat="50.31701" lon="4.32121">
        <ele>173.117477</ele>
        <time>2022-08-28T07:07:11Z</time>
      </trkpt>
      <trkpt lat="50.31697" lon="4.32109">
        <ele>172.88765</ele>
        <time>2022-08-28T07:07:13Z</time>
      </trkpt>
      <trkpt lat="50.31693" lon="4.32096">
        <ele>172.48703</ele>
        <time>2022-08-28T07:07:15Z</time>
      </trkpt>
      <trkpt lat="50.31689" lon="4.32084">
        <ele>171.435547</ele>
        <time>2022-08-28T07:07:17Z</time>
      </trkpt>
      <trkpt lat="50.31684" lon="4.32072">
        <ele>171.240875</ele>
        <time>2022-08-28T07:07:19Z</time>
      </trkpt>
      <trkpt lat="50.31679" lon="4.3206">
        <ele>171.069427</ele>
        <time>2022-08-28T07:07:21Z</time>
      </trkpt>
      <trkpt lat="50.31674" lon="4.32047">
        <ele>170.515671</ele>
        <time>2022-08-28T07:07:23Z</time>
      </trkpt>
      <trkpt lat="50.31669" lon="4.32035">
        <ele>170.056427</ele>
        <time>2022-08-28T07:07:25Z</time>
      </trkpt>
      <trkpt lat="50.31664" lon="4.32022">
        <ele>169.974625</ele>
        <time>2022-08-28T07:07:27Z</time>
      </trkpt>
      <trkpt lat="50.31661" lon="4.3201">
        <ele>169.86557</ele>
        <time>2022-08-28T07:07:29Z</time>
      </trkpt>
      <trkpt lat="50.31657" lon="4.31997">
        <ele>169.387115</ele>
        <time>2022-08-28T07:07:31Z</time>
      </trkpt>
      <trkpt lat="50.31654" lon="4.31985">
        <ele>169.34729</ele>
        <time>2022-08-28T07:07:33Z</time>
      </trkpt>
      <trkpt lat="50.3165" lon="4.31972">
        <ele>169.08725</ele>
        <time>2022-08-28T07:07:35Z</time>
      </trkpt>
      <trkpt lat="50.31647" lon="4.31959">
        <ele>168.827209</ele>
        <time>2022-08-28T07:07:37Z</time>
      </trkpt>
      <trkpt lat="50.31644" lon="4.31948">
        <ele>168.514771</ele>
        <time>2022-08-28T07:07:39Z</time>
      </trkpt>
      <trkpt lat="50.31641" lon="4.31937">
        <ele>168.270203</ele>
        <time>2022-08-28T07:07:41Z</time>
      </trkpt>
      <trkpt lat="50.31638" lon="4.31926">
        <ele>168.014389</ele>
        <time>2022-08-28T07:07:43Z</time>
      </trkpt>
      <trkpt lat="50.31635" lon="4.31913">
        <ele>167.746002</ele>
        <time>2022-08-28T07:07:45Z</time>
      </trkpt>
      <trkpt lat="50.31633" lon="4.31898">
        <ele>167.469208</ele>
        <time>2022-08-28T07:07:47Z</time>
      </trkpt>
      <trkpt lat="50.3163" lon="4.31883">
        <ele>167.072922</ele>
        <time>2022-08-28T07:07:49Z</time>
      </trkpt>
      <trkpt lat="50.31627" lon="4.31866">
        <ele>166.729874</ele>
        <time>2022-08-28T07:07:51Z</time>
      </trkpt>
      <trkpt lat="50.31624" lon="4.31848">
        <ele>166.461517</ele>
        <time>2022-08-28T07:07:53Z</time>
      </trkpt>
      <trkpt lat="50.3162" lon="4.3183">
        <ele>166.270416</ele>
        <time>2022-08-28T07:07:55Z</time>
      </trkpt>
      <trkpt lat="50.31616" lon="4.3181">
        <ele>166.081757</ele>
        <time>2022-08-28T07:07:57Z</time>
      </trkpt>
      <trkpt lat="50.31611" lon="4.31791">
        <ele>165.949677</ele>
        <time>2022-08-28T07:07:59Z</time>
      </trkpt>
      <trkpt lat="50.31606" lon="4.3177">
        <ele>165.618835</ele>
        <time>2022-08-28T07:08:01Z</time>
      </trkpt>
      <trkpt lat="50.31601" lon="4.31749">
        <ele>165.416992</ele>
        <time>2022-08-28T07:08:03Z</time>
      </trkpt>
      <trkpt lat="50.31595" lon="4.31729">
        <ele>165.209488</ele>
        <time>2022-08-28T07:08:05Z</time>
      </trkpt>
      <trkpt lat="50.31589" lon="4.31708">
        <ele>164.949539</ele>
        <time>2022-08-28T07:08:07Z</time>
      </trkpt>
      <trkpt lat="50.31585" lon="4.31685">
        <ele>164.446457</ele>
        <time>2022-08-28T07:08:09Z</time>
      </trkpt>
      <trkpt lat="50.31584" lon="4.31662">
        <ele>164.203308</ele>
        <time>2022-08-28T07:08:11Z</time>
      </trkpt>
      <trkpt lat="50.31586" lon="4.31641">
        <ele>163.685623</ele>
        <time>2022-08-28T07:08:13Z</time>
      </trkpt>
      <trkpt lat="50.31589" lon="4.31619">
        <ele>163.394363</ele>
        <time>2022-08-28T07:08:15Z</time>
      </trkpt>
      <trkpt lat="50.31592" lon="4.31598">
        <ele>163.071609</ele>
        <time>2022-08-28T07:08:17Z</time>
      </trkpt>
      <trkpt lat="50.31595" lon="4.31576">
        <ele>162.549835</ele>
        <time>2022-08-28T07:08:19Z</time>
      </trkpt>
      <trkpt lat="50.31598" lon="4.31554">
        <ele>162.589874</ele>
        <time>2022-08-28T07:08:21Z</time>
      </trkpt>
      <trkpt lat="50.31601" lon="4.31531">
        <ele>162.093231</ele>
        <time>2022-08-28T07:08:23Z</time>
      </trkpt>
      <trkpt lat="50.31603" lon="4.31509">
        <ele>161.644867</ele>
        <time>2022-08-28T07:08:25Z</time>
      </trkpt>
      <trkpt lat="50.31603" lon="4.31487">
        <ele>161.204819</ele>
        <time>2022-08-28T07:08:27Z</time>
      </trkpt>
      <trkpt lat="50.31601" lon="4.31465">
        <ele>160.791534</ele>
        <time>2022-08-28T07:08:29Z</time>
      </trkpt>
      <trkpt lat="50.31596" lon="4.31442">
        <ele>160.400665</ele>
        <time>2022-08-28T07:08:31Z</time>
      </trkpt>
      <trkpt lat="50.31592" lon="4.31419">
        <ele>159.860184</ele>
        <time>2022-08-28T07:08:33Z</time>
      </trkpt>
      <trkpt lat="50.3159" lon="4.31397">
        <ele>159.271851</ele>
        <time>2022-08-28T07:08:35Z</time>
      </trkpt>
      <trkpt lat="50.31586" lon="4.31374">
        <ele>158.676941</ele>
        <time>2022-08-28T07:08:37Z</time>
      </trkpt>
      <trkpt lat="50.31578" lon="4.31352">
        <ele>158.23024</ele>
        <time>2022-08-28T07:08:39Z</time>
      </trkpt>
      <trkpt lat="50.3157" lon="4.3133">
        <ele>157.679443</ele>
        <time>2022-08-28T07:08:41Z</time>
      </trkpt>
      <trkpt lat="50.31562" lon="4.31309">
        <ele>156.837463</ele>
        <time>2022-08-28T07:08:43Z</time>
      </trkpt>
      <trkpt lat="50.31555" lon="4.31288">
        <ele>156.215637</ele>
        <time>2022-08-28T07:08:45Z</time>
      </trkpt>
      <trkpt lat="50.31548" lon="4.31269">
        <ele>155.582306</ele>
        <time>2022-08-28T07:08:47Z</time>
      </trkpt>
      <trkpt lat="50.31541" lon="4.3125">
        <ele>154.944519</ele>
        <time>2022-08-28T07:08:49Z</time>
      </trkpt>
      <trkpt lat="50.31537" lon="4.31233">
        <ele>154.107086</ele>
        <time>2022-08-28T07:08:51Z</time>
      </trkpt>
      <trkpt lat="50.31532" lon="4.31221">
        <ele>153.382645</ele>
        <time>2022-08-28T07:08:53Z</time>
      </trkpt>
      <trkpt lat="50.31529" lon="4.31215">
        <ele>152.754608</ele>
        <time>2022-08-28T07:08:55Z</time>
      </trkpt>
      <trkpt lat="50.31529" lon="4.31219">
        <ele>152.039886</ele>
        <time>2022-08-28T07:08:57Z</time>
      </trkpt>
      <trkpt lat="50.31532" lon="4.31221">
        <ele>151.80838</ele>
        <time>2022-08-28T07:08:59Z</time>
      </trkpt>
      <trkpt lat="50.31536" lon="4.31227">
        <ele>150.677231</ele>
        <time>2022-08-28T07:09:01Z</time>
      </trkpt>
      <trkpt lat="50.31537" lon="4.31233">
        <ele>150.07074</ele>
        <time>2022-08-28T07:09:03Z</time>
      </trkpt>
      <trkpt lat="50.31537" lon="4.31235">
        <ele>146.367996</ele>
        <time>2022-08-28T07:09:16Z</time>
      </trkpt>
      <trkpt lat="50.31538" lon="4.31232">
        <ele>145.922256</ele>
        <time>2022-08-28T07:09:18Z</time>
      </trkpt>
      <trkpt lat="50.31537" lon="4.31227">
        <ele>145.41214</ele>
        <time>2022-08-28T07:09:20Z</time>
      </trkpt>
      <trkpt lat="50.31533" lon="4.3122">
        <ele>144.9487</ele>
        <time>2022-08-28T07:09:22Z</time>
      </trkpt>
      <trkpt lat="50.31528" lon="4.31212">
        <ele>144.657867</ele>
        <time>2022-08-28T07:09:24Z</time>
      </trkpt>
      <trkpt lat="50.31519" lon="4.31206">
        <ele>144.302002</ele>
        <time>2022-08-28T07:09:26Z</time>
      </trkpt>
      <trkpt lat="50.31509" lon="4.312">
        <ele>144.005219</ele>
        <time>2022-08-28T07:09:28Z</time>
      </trkpt>
      <trkpt lat="50.31498" lon="4.31196">
        <ele>143.700943</ele>
        <time>2022-08-28T07:09:30Z</time>
      </trkpt>
      <trkpt lat="50.31487" lon="4.31192">
        <ele>143.577545</ele>
        <time>2022-08-28T07:09:32Z</time>
      </trkpt>
      <trkpt lat="50.31476" lon="4.31188">
        <ele>143.364166</ele>
        <time>2022-08-28T07:09:34Z</time>
      </trkpt>
      <trkpt lat="50.31465" lon="4.31182">
        <ele>143.167542</ele>
        <time>2022-08-28T07:09:36Z</time>
      </trkpt>
      <trkpt lat="50.31455" lon="4.31174">
        <ele>142.894287</ele>
        <time>2022-08-28T07:09:38Z</time>
      </trkpt>
      <trkpt lat="50.31445" lon="4.31165">
        <ele>142.677994</ele>
        <time>2022-08-28T07:09:40Z</time>
      </trkpt>
      <trkpt lat="50.31437" lon="4.31156">
        <ele>142.493927</ele>
        <time>2022-08-28T07:09:42Z</time>
      </trkpt>
      <trkpt lat="50.31428" lon="4.31147">
        <ele>142.413849</ele>
        <time>2022-08-28T07:09:44Z</time>
      </trkpt>
      <trkpt lat="50.3142" lon="4.31139">
        <ele>142.334351</ele>
        <time>2022-08-28T07:09:46Z</time>
      </trkpt>
      <trkpt lat="50.31411" lon="4.31132">
        <ele>142.217209</ele>
        <time>2022-08-28T07:09:48Z</time>
      </trkpt>
      <trkpt lat="50.31405" lon="4.31124">
        <ele>142.108444</ele>
        <time>2022-08-28T07:09:50Z</time>
      </trkpt>
      <trkpt lat="50.31398" lon="4.31118">
        <ele>142.04361</ele>
        <time>2022-08-28T07:09:52Z</time>
      </trkpt>
      <trkpt lat="50.31393" lon="4.31112">
        <ele>141.947403</ele>
        <time>2022-08-28T07:09:54Z</time>
      </trkpt>
      <trkpt lat="50.31387" lon="4.31105">
        <ele>141.873871</ele>
        <time>2022-08-28T07:09:56Z</time>
      </trkpt>
      <trkpt lat="50.31382" lon="4.31098">
        <ele>141.840408</ele>
        <time>2022-08-28T07:09:58Z</time>
      </trkpt>
      <trkpt lat="50.31375" lon="4.31092">
        <ele>141.91362</ele>
        <time>2022-08-28T07:10:00Z</time>
      </trkpt>
      <trkpt lat="50.31369" lon="4.31086">
        <ele>141.87915</ele>
        <time>2022-08-28T07:10:02Z</time>
      </trkpt>
      <trkpt lat="50.31363" lon="4.3108">
        <ele>141.90155</ele>
        <time>2022-08-28T07:10:04Z</time>
      </trkpt>
      <trkpt lat="50.31356" lon="4.31073">
        <ele>141.842133</ele>
        <time>2022-08-28T07:10:06Z</time>
      </trkpt>
      <trkpt lat="50.3135" lon="4.31066">
        <ele>141.841034</ele>
        <time>2022-08-28T07:10:08Z</time>
      </trkpt>
      <trkpt lat="50.31344" lon="4.31059">
        <ele>141.817642</ele>
        <time>2022-08-28T07:10:10Z</time>
      </trkpt>
      <trkpt lat="50.31337" lon="4.31053">
        <ele>141.882919</ele>
        <time>2022-08-28T07:10:12Z</time>
      </trkpt>
      <trkpt lat="50.31331" lon="4.31047">
        <ele>141.933136</ele>
        <time>2022-08-28T07:10:14Z</time>
      </trkpt>
      <trkpt lat="50.31324" lon="4.31041">
        <ele>142.002396</ele>
        <time>2022-08-28T07:10:16Z</time>
      </trkpt>
      <trkpt lat="50.31317" lon="4.31035">
        <ele>142.13205</ele>
        <time>2022-08-28T07:10:18Z</time>
      </trkpt>
      <trkpt lat="50.31311" lon="4.31029">
        <ele>142.303558</ele>
        <time>2022-08-28T07:10:20Z</time>
      </trkpt>
      <trkpt lat="50.31304" lon="4.31024">
        <ele>142.445786</ele>
        <time>2022-08-28T07:10:22Z</time>
      </trkpt>
      <trkpt lat="50.31298" lon="4.31018">
        <ele>142.466705</ele>
        <time>2022-08-28T07:10:24Z</time>
      </trkpt>
      <trkpt lat="50.31291" lon="4.31013">
        <ele>142.487625</ele>
        <time>2022-08-28T07:10:26Z</time>
      </trkpt>
      <trkpt lat="50.31285" lon="4.31007">
        <ele>142.560822</ele>
        <time>2022-08-28T07:10:28Z</time>
      </trkpt>
      <trkpt lat="50.31279" lon="4.31">
        <ele>142.615982</ele>
        <time>2022-08-28T07:10:30Z</time>
      </trkpt>
      <trkpt lat="50.31273" lon="4.30993">
        <ele>142.764328</ele>
        <time>2022-08-28T07:10:32Z</time>
      </trkpt>
      <trkpt lat="50.31268" lon="4.30986">
        <ele>142.845917</ele>
        <time>2022-08-28T07:10:34Z</time>
      </trkpt>
      <trkpt lat="50.31265" lon="4.30979">
        <ele>142.988144</ele>
        <time>2022-08-28T07:10:36Z</time>
      </trkpt>
      <trkpt lat="50.31261" lon="4.30971">
        <ele>143.065552</ele>
        <time>2022-08-28T07:10:38Z</time>
      </trkpt>
      <trkpt lat="50.31257" lon="4.30962">
        <ele>143.157608</ele>
        <time>2022-08-28T07:10:40Z</time>
      </trkpt>
      <trkpt lat="50.31255" lon="4.30953">
        <ele>143.231842</ele>
        <time>2022-08-28T07:10:42Z</time>
      </trkpt>
      <trkpt lat="50.31252" lon="4.30943">
        <ele>143.378876</ele>
        <time>2022-08-28T07:10:44Z</time>
      </trkpt>
      <trkpt lat="50.3125" lon="4.30933">
        <ele>143.507065</ele>
        <time>2022-08-28T07:10:46Z</time>
      </trkpt>
      <trkpt lat="50.31248" lon="4.30922">
        <ele>143.732025</ele>
        <time>2022-08-28T07:10:48Z</time>
      </trkpt>
      <trkpt lat="50.31246" lon="4.30912">
        <ele>143.898865</ele>
        <time>2022-08-28T07:10:50Z</time>
      </trkpt>
      <trkpt lat="50.31244" lon="4.30902">
        <ele>144.062531</ele>
        <time>2022-08-28T07:10:52Z</time>
      </trkpt>
      <trkpt lat="50.31242" lon="4.30893">
        <ele>144.261261</ele>
        <time>2022-08-28T07:10:54Z</time>
      </trkpt>
      <trkpt lat="50.3124" lon="4.30883">
        <ele>144.477295</ele>
        <time>2022-08-28T07:10:56Z</time>
      </trkpt>
      <trkpt lat="50.31238" lon="4.30874">
        <ele>144.694885</ele>
        <time>2022-08-28T07:10:58Z</time>
      </trkpt>
      <trkpt lat="50.31237" lon="4.30864">
        <ele>144.9104</ele>
        <time>2022-08-28T07:11:00Z</time>
      </trkpt>
      <trkpt lat="50.31236" lon="4.30855">
        <ele>145.186569</ele>
        <time>2022-08-28T07:11:02Z</time>
      </trkpt>
      <trkpt lat="50.31235" lon="4.30846">
        <ele>145.473221</ele>
        <time>2022-08-28T07:11:04Z</time>
      </trkpt>
      <trkpt lat="50.31234" lon="4.30836">
        <ele>145.814285</ele>
        <time>2022-08-28T07:11:06Z</time>
      </trkpt>
      <trkpt lat="50.31233" lon="4.30826">
        <ele>146.174179</ele>
        <time>2022-08-28T07:11:08Z</time>
      </trkpt>
      <trkpt lat="50.31231" lon="4.30817">
        <ele>146.524948</ele>
        <time>2022-08-28T07:11:10Z</time>
      </trkpt>
      <trkpt lat="50.31229" lon="4.30807">
        <ele>146.635864</ele>
        <time>2022-08-28T07:11:12Z</time>
      </trkpt>
      <trkpt lat="50.31226" lon="4.30799">
        <ele>147.097488</ele>
        <time>2022-08-28T07:11:14Z</time>
      </trkpt>
      <trkpt lat="50.31223" lon="4.30791">
        <ele>147.266998</ele>
        <time>2022-08-28T07:11:16Z</time>
      </trkpt>
      <trkpt lat="50.31221" lon="4.30782">
        <ele>147.582703</ele>
        <time>2022-08-28T07:11:18Z</time>
      </trkpt>
      <trkpt lat="50.31218" lon="4.30773">
        <ele>147.93013</ele>
        <time>2022-08-28T07:11:20Z</time>
      </trkpt>
      <trkpt lat="50.31216" lon="4.30763">
        <ele>148.327774</ele>
        <time>2022-08-28T07:11:22Z</time>
      </trkpt>
      <trkpt lat="50.31212" lon="4.30754">
        <ele>148.7108</ele>
        <time>2022-08-28T07:11:24Z</time>
      </trkpt>
      <trkpt lat="50.31208" lon="4.30746">
        <ele>149.152176</ele>
        <time>2022-08-28T07:11:26Z</time>
      </trkpt>
      <trkpt lat="50.31204" lon="4.30737">
        <ele>149.541473</ele>
        <time>2022-08-28T07:11:28Z</time>
      </trkpt>
      <trkpt lat="50.312" lon="4.30727">
        <ele>149.978256</ele>
        <time>2022-08-28T07:11:30Z</time>
      </trkpt>
      <trkpt lat="50.31197" lon="4.30718">
        <ele>150.39595</ele>
        <time>2022-08-28T07:11:32Z</time>
      </trkpt>
      <trkpt lat="50.31192" lon="4.30709">
        <ele>150.889969</ele>
        <time>2022-08-28T07:11:34Z</time>
      </trkpt>
      <trkpt lat="50.31188" lon="4.307">
        <ele>151.374863</ele>
        <time>2022-08-28T07:11:36Z</time>
      </trkpt>
      <trkpt lat="50.31183" lon="4.3069">
        <ele>151.310303</ele>
        <time>2022-08-28T07:11:38Z</time>
      </trkpt>
      <trkpt lat="50.31178" lon="4.30681">
        <ele>151.73111</ele>
        <time>2022-08-28T07:11:40Z</time>
      </trkpt>
      <trkpt lat="50.31174" lon="4.30671">
        <ele>152.074463</ele>
        <time>2022-08-28T07:11:42Z</time>
      </trkpt>
      <trkpt lat="50.3117" lon="4.30661">
        <ele>152.53299</ele>
        <time>2022-08-28T07:11:44Z</time>
      </trkpt>
      <trkpt lat="50.31166" lon="4.30651">
        <ele>152.907761</ele>
        <time>2022-08-28T07:11:46Z</time>
      </trkpt>
      <trkpt lat="50.31162" lon="4.30642">
        <ele>153.72702</ele>
        <time>2022-08-28T07:11:48Z</time>
      </trkpt>
      <trkpt lat="50.31157" lon="4.30631">
        <ele>154.059952</ele>
        <time>2022-08-28T07:11:50Z</time>
      </trkpt>
      <trkpt lat="50.31153" lon="4.30621">
        <ele>154.363571</ele>
        <time>2022-08-28T07:11:52Z</time>
      </trkpt>
      <trkpt lat="50.31149" lon="4.30611">
        <ele>154.650711</ele>
        <time>2022-08-28T07:11:54Z</time>
      </trkpt>
      <trkpt lat="50.31144" lon="4.306">
        <ele>154.978104</ele>
        <time>2022-08-28T07:11:56Z</time>
      </trkpt>
      <trkpt lat="50.31141" lon="4.3059">
        <ele>155.137558</ele>
        <time>2022-08-28T07:11:58Z</time>
      </trkpt>
      <trkpt lat="50.31138" lon="4.30579">
        <ele>155.426514</ele>
        <time>2022-08-28T07:12:00Z</time>
      </trkpt>
      <trkpt lat="50.31136" lon="4.30568">
        <ele>155.663132</ele>
        <time>2022-08-28T07:12:02Z</time>
      </trkpt>
      <trkpt lat="50.31134" lon="4.30556">
        <ele>155.889252</ele>
        <time>2022-08-28T07:12:04Z</time>
      </trkpt>
      <trkpt lat="50.31132" lon="4.30545">
        <ele>156.107086</ele>
        <time>2022-08-28T07:12:06Z</time>
      </trkpt>
      <trkpt lat="50.31131" lon="4.30533">
        <ele>156.346375</ele>
        <time>2022-08-28T07:12:08Z</time>
      </trkpt>
      <trkpt lat="50.31129" lon="4.30522">
        <ele>155.944809</ele>
        <time>2022-08-28T07:12:10Z</time>
      </trkpt>
      <trkpt lat="50.31128" lon="4.30511">
        <ele>156.185699</ele>
        <time>2022-08-28T07:12:12Z</time>
      </trkpt>
      <trkpt lat="50.31127" lon="4.30501">
        <ele>156.439133</ele>
        <time>2022-08-28T07:12:14Z</time>
      </trkpt>
      <trkpt lat="50.31126" lon="4.30491">
        <ele>156.589951</ele>
        <time>2022-08-28T07:12:16Z</time>
      </trkpt>
      <trkpt lat="50.31126" lon="4.30482">
        <ele>157.28479</ele>
        <time>2022-08-28T07:12:18Z</time>
      </trkpt>
      <trkpt lat="50.3113" lon="4.30474">
        <ele>157.446091</ele>
        <time>2022-08-28T07:12:20Z</time>
      </trkpt>
      <trkpt lat="50.31133" lon="4.30468">
        <ele>157.733124</ele>
        <time>2022-08-28T07:12:22Z</time>
      </trkpt>
      <trkpt lat="50.31138" lon="4.3046">
        <ele>157.963547</ele>
        <time>2022-08-28T07:12:24Z</time>
      </trkpt>
      <trkpt lat="50.31143" lon="4.30453">
        <ele>158.355392</ele>
        <time>2022-08-28T07:12:26Z</time>
      </trkpt>
      <trkpt lat="50.31148" lon="4.30448">
        <ele>158.091095</ele>
        <time>2022-08-28T07:12:28Z</time>
      </trkpt>
      <trkpt lat="50.31154" lon="4.30444">
        <ele>158.484985</ele>
        <time>2022-08-28T07:12:30Z</time>
      </trkpt>
      <trkpt lat="50.31159" lon="4.3044">
        <ele>158.658875</ele>
        <time>2022-08-28T07:12:32Z</time>
      </trkpt>
      <trkpt lat="50.31164" lon="4.30435">
        <ele>158.962662</ele>
        <time>2022-08-28T07:12:34Z</time>
      </trkpt>
      <trkpt lat="50.3117" lon="4.3043">
        <ele>159.438293</ele>
        <time>2022-08-28T07:12:36Z</time>
      </trkpt>
      <trkpt lat="50.31176" lon="4.30424">
        <ele>159.691818</ele>
        <time>2022-08-28T07:12:38Z</time>
      </trkpt>
      <trkpt lat="50.31181" lon="4.30418">
        <ele>159.861542</ele>
        <time>2022-08-28T07:12:40Z</time>
      </trkpt>
      <trkpt lat="50.31187" lon="4.30413">
        <ele>160.18042</ele>
        <time>2022-08-28T07:12:42Z</time>
      </trkpt>
      <trkpt lat="50.31192" lon="4.30406">
        <ele>160.561829</ele>
        <time>2022-08-28T07:12:44Z</time>
      </trkpt>
      <trkpt lat="50.31196" lon="4.30399">
        <ele>160.81955</ele>
        <time>2022-08-28T07:12:46Z</time>
      </trkpt>
      <trkpt lat="50.31201" lon="4.30392">
        <ele>161.23233</ele>
        <time>2022-08-28T07:12:48Z</time>
      </trkpt>
      <trkpt lat="50.31207" lon="4.30385">
        <ele>161.555038</ele>
        <time>2022-08-28T07:12:50Z</time>
      </trkpt>
      <trkpt lat="50.31212" lon="4.30377">
        <ele>162.451035</ele>
        <time>2022-08-28T07:12:52Z</time>
      </trkpt>
      <trkpt lat="50.31216" lon="4.30369">
        <ele>162.796844</ele>
        <time>2022-08-28T07:12:54Z</time>
      </trkpt>
      <trkpt lat="50.31221" lon="4.3036">
        <ele>163.165771</ele>
        <time>2022-08-28T07:12:56Z</time>
      </trkpt>
      <trkpt lat="50.31225" lon="4.30352">
        <ele>163.413406</ele>
        <time>2022-08-28T07:12:58Z</time>
      </trkpt>
      <trkpt lat="50.3123" lon="4.30343">
        <ele>163.69632</ele>
        <time>2022-08-28T07:13:00Z</time>
      </trkpt>
      <trkpt lat="50.31235" lon="4.30334">
        <ele>163.840927</ele>
        <time>2022-08-28T07:13:02Z</time>
      </trkpt>
      <trkpt lat="50.31239" lon="4.30325">
        <ele>164.063095</ele>
        <time>2022-08-28T07:13:04Z</time>
      </trkpt>
      <trkpt lat="50.31244" lon="4.30316">
        <ele>164.123871</ele>
        <time>2022-08-28T07:13:06Z</time>
      </trkpt>
      <trkpt lat="50.31249" lon="4.30307">
        <ele>164.457169</ele>
        <time>2022-08-28T07:13:08Z</time>
      </trkpt>
      <trkpt lat="50.31253" lon="4.30298">
        <ele>164.754364</ele>
        <time>2022-08-28T07:13:10Z</time>
      </trkpt>
      <trkpt lat="50.31257" lon="4.30288">
        <ele>165.117035</ele>
        <time>2022-08-28T07:13:12Z</time>
      </trkpt>
      <trkpt lat="50.31261" lon="4.30279">
        <ele>165.523712</ele>
        <time>2022-08-28T07:13:14Z</time>
      </trkpt>
      <trkpt lat="50.31265" lon="4.3027">
        <ele>165.739639</ele>
        <time>2022-08-28T07:13:16Z</time>
      </trkpt>
      <trkpt lat="50.31268" lon="4.30262">
        <ele>165.922028</ele>
        <time>2022-08-28T07:13:18Z</time>
      </trkpt>
      <trkpt lat="50.31271" lon="4.30253">
        <ele>166.234406</ele>
        <time>2022-08-28T07:13:20Z</time>
      </trkpt>
      <trkpt lat="50.31275" lon="4.30243">
        <ele>166.61351</ele>
        <time>2022-08-28T07:13:22Z</time>
      </trkpt>
      <trkpt lat="50.31279" lon="4.30231">
        <ele>166.892365</ele>
        <time>2022-08-28T07:13:24Z</time>
      </trkpt>
      <trkpt lat="50.31283" lon="4.30219">
        <ele>167.254486</ele>
        <time>2022-08-28T07:13:26Z</time>
      </trkpt>
      <trkpt lat="50.31287" lon="4.30208">
        <ele>168.192764</ele>
        <time>2022-08-28T07:13:28Z</time>
      </trkpt>
      <trkpt lat="50.31291" lon="4.30196">
        <ele>168.412918</ele>
        <time>2022-08-28T07:13:30Z</time>
      </trkpt>
      <trkpt lat="50.31295" lon="4.30185">
        <ele>168.685516</ele>
        <time>2022-08-28T07:13:32Z</time>
      </trkpt>
      <trkpt lat="50.31299" lon="4.30174">
        <ele>169.048309</ele>
        <time>2022-08-28T07:13:34Z</time>
      </trkpt>
      <trkpt lat="50.31303" lon="4.30164">
        <ele>169.446762</ele>
        <time>2022-08-28T07:13:36Z</time>
      </trkpt>
      <trkpt lat="50.31306" lon="4.30153">
        <ele>169.893463</ele>
        <time>2022-08-28T07:13:38Z</time>
      </trkpt>
      <trkpt lat="50.3131" lon="4.30143">
        <ele>170.299927</ele>
        <time>2022-08-28T07:13:40Z</time>
      </trkpt>
      <trkpt lat="50.31313" lon="4.30132">
        <ele>170.791306</ele>
        <time>2022-08-28T07:13:42Z</time>
      </trkpt>
      <trkpt lat="50.31316" lon="4.30122">
        <ele>171.126785</ele>
        <time>2022-08-28T07:13:44Z</time>
      </trkpt>
      <trkpt lat="50.31319" lon="4.3011">
        <ele>171.537888</ele>
        <time>2022-08-28T07:13:46Z</time>
      </trkpt>
      <trkpt lat="50.31323" lon="4.30099">
        <ele>171.900711</ele>
        <time>2022-08-28T07:13:48Z</time>
      </trkpt>
      <trkpt lat="50.31326" lon="4.30087">
        <ele>172.201096</ele>
        <time>2022-08-28T07:13:50Z</time>
      </trkpt>
      <trkpt lat="50.3133" lon="4.30076">
        <ele>172.486359</ele>
        <time>2022-08-28T07:13:52Z</time>
      </trkpt>
      <trkpt lat="50.31333" lon="4.30065">
        <ele>173.315674</ele>
        <time>2022-08-28T07:13:54Z</time>
      </trkpt>
      <trkpt lat="50.31337" lon="4.30055">
        <ele>173.657593</ele>
        <time>2022-08-28T07:13:56Z</time>
      </trkpt>
      <trkpt lat="50.31342" lon="4.30046">
        <ele>174.020462</ele>
        <time>2022-08-28T07:13:58Z</time>
      </trkpt>
      <trkpt lat="50.31346" lon="4.30038">
        <ele>174.192459</ele>
        <time>2022-08-28T07:14:00Z</time>
      </trkpt>
      <trkpt lat="50.31348" lon="4.30034">
        <ele>174.396454</ele>
        <time>2022-08-28T07:14:01Z</time>
      </trkpt>
      <trkpt lat="50.31353" lon="4.30025">
        <ele>174.646118</ele>
        <time>2022-08-28T07:14:03Z</time>
      </trkpt>
      <trkpt lat="50.31358" lon="4.30017">
        <ele>174.837006</ele>
        <time>2022-08-28T07:14:05Z</time>
      </trkpt>
      <trkpt lat="50.31363" lon="4.30009">
        <ele>175.118607</ele>
        <time>2022-08-28T07:14:07Z</time>
      </trkpt>
      <trkpt lat="50.31368" lon="4.30002">
        <ele>174.783173</ele>
        <time>2022-08-28T07:14:09Z</time>
      </trkpt>
      <trkpt lat="50.31374" lon="4.29994">
        <ele>175.026535</ele>
        <time>2022-08-28T07:14:11Z</time>
      </trkpt>
      <trkpt lat="50.31379" lon="4.29987">
        <ele>175.135651</ele>
        <time>2022-08-28T07:14:13Z</time>
      </trkpt>
      <trkpt lat="50.31385" lon="4.29979">
        <ele>175.234253</ele>
        <time>2022-08-28T07:14:15Z</time>
      </trkpt>
      <trkpt lat="50.31391" lon="4.29972">
        <ele>175.326569</ele>
        <time>2022-08-28T07:14:17Z</time>
      </trkpt>
      <trkpt lat="50.31397" lon="4.29965">
        <ele>175.362228</ele>
        <time>2022-08-28T07:14:19Z</time>
      </trkpt>
      <trkpt lat="50.31402" lon="4.29958">
        <ele>175.513306</ele>
        <time>2022-08-28T07:14:21Z</time>
      </trkpt>
      <trkpt lat="50.31408" lon="4.29951">
        <ele>175.716125</ele>
        <time>2022-08-28T07:14:23Z</time>
      </trkpt>
      <trkpt lat="50.31411" lon="4.29941">
        <ele>175.93219</ele>
        <time>2022-08-28T07:14:25Z</time>
      </trkpt>
      <trkpt lat="50.31411" lon="4.2993">
        <ele>176.002625</ele>
        <time>2022-08-28T07:14:27Z</time>
      </trkpt>
      <trkpt lat="50.3141" lon="4.29919">
        <ele>176.203979</ele>
        <time>2022-08-28T07:14:29Z</time>
      </trkpt>
      <trkpt lat="50.3141" lon="4.29907">
        <ele>175.850159</ele>
        <time>2022-08-28T07:14:31Z</time>
      </trkpt>
      <trkpt lat="50.31408" lon="4.29895">
        <ele>176.083099</ele>
        <time>2022-08-28T07:14:33Z</time>
      </trkpt>
      <trkpt lat="50.31407" lon="4.29884">
        <ele>176.118744</ele>
        <time>2022-08-28T07:14:35Z</time>
      </trkpt>
      <trkpt lat="50.31406" lon="4.29872">
        <ele>176.259369</ele>
        <time>2022-08-28T07:14:37Z</time>
      </trkpt>
      <trkpt lat="50.31405" lon="4.29858">
        <ele>176.433548</ele>
        <time>2022-08-28T07:14:39Z</time>
      </trkpt>
      <trkpt lat="50.31404" lon="4.29846">
        <ele>176.613983</ele>
        <time>2022-08-28T07:14:41Z</time>
      </trkpt>
      <trkpt lat="50.31403" lon="4.29834">
        <ele>176.190109</ele>
        <time>2022-08-28T07:14:43Z</time>
      </trkpt>
      <trkpt lat="50.31402" lon="4.29821">
        <ele>176.227875</ele>
        <time>2022-08-28T07:14:45Z</time>
      </trkpt>
      <trkpt lat="50.314" lon="4.29808">
        <ele>176.397873</ele>
        <time>2022-08-28T07:14:47Z</time>
      </trkpt>
      <trkpt lat="50.31399" lon="4.29794">
        <ele>176.960892</ele>
        <time>2022-08-28T07:14:49Z</time>
      </trkpt>
      <trkpt lat="50.31398" lon="4.2978">
        <ele>177.043976</ele>
        <time>2022-08-28T07:14:51Z</time>
      </trkpt>
      <trkpt lat="50.31397" lon="4.29767">
        <ele>177.220322</ele>
        <time>2022-08-28T07:14:53Z</time>
      </trkpt>
      <trkpt lat="50.31396" lon="4.29752">
        <ele>177.430206</ele>
        <time>2022-08-28T07:14:55Z</time>
      </trkpt>
      <trkpt lat="50.31395" lon="4.29738">
        <ele>177.684326</ele>
        <time>2022-08-28T07:14:57Z</time>
      </trkpt>
      <trkpt lat="50.31393" lon="4.29724">
        <ele>177.899811</ele>
        <time>2022-08-28T07:14:59Z</time>
      </trkpt>
      <trkpt lat="50.31391" lon="4.2971">
        <ele>178.104095</ele>
        <time>2022-08-28T07:15:01Z</time>
      </trkpt>
      <trkpt lat="50.3139" lon="4.29697">
        <ele>178.318741</ele>
        <time>2022-08-28T07:15:03Z</time>
      </trkpt>
      <trkpt lat="50.31388" lon="4.29682">
        <ele>178.471954</ele>
        <time>2022-08-28T07:15:05Z</time>
      </trkpt>
      <trkpt lat="50.31386" lon="4.29668">
        <ele>178.742584</ele>
        <time>2022-08-28T07:15:07Z</time>
      </trkpt>
      <trkpt lat="50.31385" lon="4.29653">
        <ele>178.326401</ele>
        <time>2022-08-28T07:15:09Z</time>
      </trkpt>
      <trkpt lat="50.31383" lon="4.29639">
        <ele>178.945038</ele>
        <time>2022-08-28T07:15:11Z</time>
      </trkpt>
      <trkpt lat="50.31382" lon="4.29625">
        <ele>179.009796</ele>
        <time>2022-08-28T07:15:13Z</time>
      </trkpt>
      <trkpt lat="50.31381" lon="4.29611">
        <ele>179.07486</ele>
        <time>2022-08-28T07:15:15Z</time>
      </trkpt>
      <trkpt lat="50.3138" lon="4.29598">
        <ele>178.756378</ele>
        <time>2022-08-28T07:15:17Z</time>
      </trkpt>
      <trkpt lat="50.3138" lon="4.29585">
        <ele>178.81723</ele>
        <time>2022-08-28T07:15:19Z</time>
      </trkpt>
      <trkpt lat="50.31379" lon="4.29571">
        <ele>178.810944</ele>
        <time>2022-08-28T07:15:21Z</time>
      </trkpt>
      <trkpt lat="50.31379" lon="4.29557">
        <ele>179.528152</ele>
        <time>2022-08-28T07:15:23Z</time>
      </trkpt>
      <trkpt lat="50.31379" lon="4.29544">
        <ele>179.746475</ele>
        <time>2022-08-28T07:15:25Z</time>
      </trkpt>
      <trkpt lat="50.31379" lon="4.2953">
        <ele>179.918579</ele>
        <time>2022-08-28T07:15:27Z</time>
      </trkpt>
      <trkpt lat="50.31379" lon="4.29516">
        <ele>180.0802</ele>
        <time>2022-08-28T07:15:29Z</time>
      </trkpt>
      <trkpt lat="50.31379" lon="4.29502">
        <ele>179.655838</ele>
        <time>2022-08-28T07:15:31Z</time>
      </trkpt>
      <trkpt lat="50.31379" lon="4.29488">
        <ele>179.850998</ele>
        <time>2022-08-28T07:15:33Z</time>
      </trkpt>
      <trkpt lat="50.31379" lon="4.29474">
        <ele>179.848907</ele>
        <time>2022-08-28T07:15:35Z</time>
      </trkpt>
      <trkpt lat="50.3138" lon="4.29461">
        <ele>179.936356</ele>
        <time>2022-08-28T07:15:37Z</time>
      </trkpt>
      <trkpt lat="50.31381" lon="4.29447">
        <ele>179.969772</ele>
        <time>2022-08-28T07:15:39Z</time>
      </trkpt>
      <trkpt lat="50.31382" lon="4.29432">
        <ele>180.186737</ele>
        <time>2022-08-28T07:15:41Z</time>
      </trkpt>
      <trkpt lat="50.31383" lon="4.29418">
        <ele>180.179108</ele>
        <time>2022-08-28T07:15:43Z</time>
      </trkpt>
      <trkpt lat="50.31384" lon="4.29403">
        <ele>180.222672</ele>
        <time>2022-08-28T07:15:45Z</time>
      </trkpt>
      <trkpt lat="50.31385" lon="4.29389">
        <ele>180.376099</ele>
        <time>2022-08-28T07:15:47Z</time>
      </trkpt>
      <trkpt lat="50.31387" lon="4.29374">
        <ele>181.037933</ele>
        <time>2022-08-28T07:15:49Z</time>
      </trkpt>
      <trkpt lat="50.31389" lon="4.2936">
        <ele>181.237381</ele>
        <time>2022-08-28T07:15:51Z</time>
      </trkpt>
      <trkpt lat="50.3139" lon="4.29345">
        <ele>181.378052</ele>
        <time>2022-08-28T07:15:53Z</time>
      </trkpt>
      <trkpt lat="50.31391" lon="4.2933">
        <ele>181.619507</ele>
        <time>2022-08-28T07:15:55Z</time>
      </trkpt>
      <trkpt lat="50.31393" lon="4.29315">
        <ele>181.84111</ele>
        <time>2022-08-28T07:15:57Z</time>
      </trkpt>
      <trkpt lat="50.31394" lon="4.29301">
        <ele>182.038483</ele>
        <time>2022-08-28T07:15:59Z</time>
      </trkpt>
      <trkpt lat="50.31396" lon="4.29285">
        <ele>182.345062</ele>
        <time>2022-08-28T07:16:01Z</time>
      </trkpt>
      <trkpt lat="50.31398" lon="4.2927">
        <ele>182.49202</ele>
        <time>2022-08-28T07:16:03Z</time>
      </trkpt>
      <trkpt lat="50.31399" lon="4.29255">
        <ele>182.624298</ele>
        <time>2022-08-28T07:16:05Z</time>
      </trkpt>
      <trkpt lat="50.31401" lon="4.29239">
        <ele>182.741623</ele>
        <time>2022-08-28T07:16:07Z</time>
      </trkpt>
      <trkpt lat="50.31402" lon="4.29224">
        <ele>182.858231</ele>
        <time>2022-08-28T07:16:09Z</time>
      </trkpt>
      <trkpt lat="50.31404" lon="4.29209">
        <ele>183.154282</ele>
        <time>2022-08-28T07:16:11Z</time>
      </trkpt>
      <trkpt lat="50.31406" lon="4.29193">
        <ele>183.320175</ele>
        <time>2022-08-28T07:16:13Z</time>
      </trkpt>
      <trkpt lat="50.31408" lon="4.29178">
        <ele>183.602859</ele>
        <time>2022-08-28T07:16:15Z</time>
      </trkpt>
      <trkpt lat="50.31409" lon="4.29162">
        <ele>183.73938</ele>
        <time>2022-08-28T07:16:17Z</time>
      </trkpt>
      <trkpt lat="50.31411" lon="4.29147">
        <ele>183.86821</ele>
        <time>2022-08-28T07:16:19Z</time>
      </trkpt>
      <trkpt lat="50.31413" lon="4.29131">
        <ele>184.02359</ele>
        <time>2022-08-28T07:16:21Z</time>
      </trkpt>
      <trkpt lat="50.31414" lon="4.29116">
        <ele>184.234238</ele>
        <time>2022-08-28T07:16:23Z</time>
      </trkpt>
      <trkpt lat="50.31416" lon="4.29101">
        <ele>184.465225</ele>
        <time>2022-08-28T07:16:25Z</time>
      </trkpt>
      <trkpt lat="50.31418" lon="4.29086">
        <ele>184.643738</ele>
        <time>2022-08-28T07:16:27Z</time>
      </trkpt>
      <trkpt lat="50.3142" lon="4.29071">
        <ele>184.784454</ele>
        <time>2022-08-28T07:16:29Z</time>
      </trkpt>
      <trkpt lat="50.31422" lon="4.29056">
        <ele>184.972229</ele>
        <time>2022-08-28T07:16:31Z</time>
      </trkpt>
      <trkpt lat="50.31423" lon="4.2904">
        <ele>185.157043</ele>
        <time>2022-08-28T07:16:33Z</time>
      </trkpt>
      <trkpt lat="50.31425" lon="4.29025">
        <ele>185.313614</ele>
        <time>2022-08-28T07:16:35Z</time>
      </trkpt>
      <trkpt lat="50.31427" lon="4.29009">
        <ele>185.484833</ele>
        <time>2022-08-28T07:16:37Z</time>
      </trkpt>
      <trkpt lat="50.31428" lon="4.28994">
        <ele>185.55043</ele>
        <time>2022-08-28T07:16:39Z</time>
      </trkpt>
      <trkpt lat="50.3143" lon="4.28979">
        <ele>185.586044</ele>
        <time>2022-08-28T07:16:41Z</time>
      </trkpt>
      <trkpt lat="50.31432" lon="4.28963">
        <ele>185.644836</ele>
        <time>2022-08-28T07:16:43Z</time>
      </trkpt>
      <trkpt lat="50.31434" lon="4.28948">
        <ele>185.674225</ele>
        <time>2022-08-28T07:16:45Z</time>
      </trkpt>
      <trkpt lat="50.31436" lon="4.28932">
        <ele>185.701569</ele>
        <time>2022-08-28T07:16:47Z</time>
      </trkpt>
      <trkpt lat="50.31438" lon="4.28916">
        <ele>185.752258</ele>
        <time>2022-08-28T07:16:49Z</time>
      </trkpt>
      <trkpt lat="50.3144" lon="4.289">
        <ele>185.742737</ele>
        <time>2022-08-28T07:16:51Z</time>
      </trkpt>
      <trkpt lat="50.31442" lon="4.28885">
        <ele>185.77005</ele>
        <time>2022-08-28T07:16:53Z</time>
      </trkpt>
      <trkpt lat="50.31443" lon="4.2887">
        <ele>185.722565</ele>
        <time>2022-08-28T07:16:55Z</time>
      </trkpt>
      <trkpt lat="50.31445" lon="4.28854">
        <ele>185.85498</ele>
        <time>2022-08-28T07:16:57Z</time>
      </trkpt>
      <trkpt lat="50.31447" lon="4.2884">
        <ele>185.800369</ele>
        <time>2022-08-28T07:16:59Z</time>
      </trkpt>
      <trkpt lat="50.31448" lon="4.28825">
        <ele>185.804306</ele>
        <time>2022-08-28T07:17:01Z</time>
      </trkpt>
      <trkpt lat="50.31449" lon="4.2881">
        <ele>185.779114</ele>
        <time>2022-08-28T07:17:03Z</time>
      </trkpt>
      <trkpt lat="50.3145" lon="4.28795">
        <ele>185.788773</ele>
        <time>2022-08-28T07:17:05Z</time>
      </trkpt>
      <trkpt lat="50.31451" lon="4.28779">
        <ele>185.740448</ele>
        <time>2022-08-28T07:17:07Z</time>
      </trkpt>
      <trkpt lat="50.31453" lon="4.28764">
        <ele>185.692505</ele>
        <time>2022-08-28T07:17:09Z</time>
      </trkpt>
      <trkpt lat="50.31455" lon="4.28749">
        <ele>185.648392</ele>
        <time>2022-08-28T07:17:11Z</time>
      </trkpt>
      <trkpt lat="50.31456" lon="4.28733">
        <ele>185.486679</ele>
        <time>2022-08-28T07:17:13Z</time>
      </trkpt>
      <trkpt lat="50.31458" lon="4.28718">
        <ele>185.578018</ele>
        <time>2022-08-28T07:17:15Z</time>
      </trkpt>
      <trkpt lat="50.3146" lon="4.28703">
        <ele>185.520172</ele>
        <time>2022-08-28T07:17:17Z</time>
      </trkpt>
      <trkpt lat="50.31462" lon="4.28688">
        <ele>185.559601</ele>
        <time>2022-08-28T07:17:19Z</time>
      </trkpt>
      <trkpt lat="50.31464" lon="4.28673">
        <ele>185.540802</ele>
        <time>2022-08-28T07:17:21Z</time>
      </trkpt>
      <trkpt lat="50.31465" lon="4.28658">
        <ele>185.568085</ele>
        <time>2022-08-28T07:17:23Z</time>
      </trkpt>
      <trkpt lat="50.31467" lon="4.28644">
        <ele>185.662613</ele>
        <time>2022-08-28T07:17:25Z</time>
      </trkpt>
      <trkpt lat="50.31469" lon="4.2863">
        <ele>185.780197</ele>
        <time>2022-08-28T07:17:27Z</time>
      </trkpt>
      <trkpt lat="50.3147" lon="4.28616">
        <ele>185.807129</ele>
        <time>2022-08-28T07:17:29Z</time>
      </trkpt>
      <trkpt lat="50.31471" lon="4.28602">
        <ele>185.792435</ele>
        <time>2022-08-28T07:17:31Z</time>
      </trkpt>
      <trkpt lat="50.31471" lon="4.28589">
        <ele>185.834442</ele>
        <time>2022-08-28T07:17:33Z</time>
      </trkpt>
      <trkpt lat="50.31471" lon="4.28576">
        <ele>185.851227</ele>
        <time>2022-08-28T07:17:35Z</time>
      </trkpt>
      <trkpt lat="50.31471" lon="4.28563">
        <ele>185.848587</ele>
        <time>2022-08-28T07:17:37Z</time>
      </trkpt>
      <trkpt lat="50.31471" lon="4.28551">
        <ele>185.671982</ele>
        <time>2022-08-28T07:17:39Z</time>
      </trkpt>
      <trkpt lat="50.31471" lon="4.28542">
        <ele>185.703735</ele>
        <time>2022-08-28T07:17:41Z</time>
      </trkpt>
      <trkpt lat="50.3147" lon="4.28536">
        <ele>185.693527</ele>
        <time>2022-08-28T07:17:43Z</time>
      </trkpt>
      <trkpt lat="50.31464" lon="4.28532">
        <ele>185.715668</ele>
        <time>2022-08-28T07:17:45Z</time>
      </trkpt>
      <trkpt lat="50.31457" lon="4.28533">
        <ele>185.712708</ele>
        <time>2022-08-28T07:17:47Z</time>
      </trkpt>
      <trkpt lat="50.31449" lon="4.28535">
        <ele>185.582138</ele>
        <time>2022-08-28T07:17:49Z</time>
      </trkpt>
      <trkpt lat="50.3144" lon="4.28538">
        <ele>185.491837</ele>
        <time>2022-08-28T07:17:51Z</time>
      </trkpt>
      <trkpt lat="50.31431" lon="4.28542">
        <ele>185.451935</ele>
        <time>2022-08-28T07:17:53Z</time>
      </trkpt>
      <trkpt lat="50.31421" lon="4.28546">
        <ele>185.281769</ele>
        <time>2022-08-28T07:17:55Z</time>
      </trkpt>
      <trkpt lat="50.3141" lon="4.2855">
        <ele>185.057037</ele>
        <time>2022-08-28T07:17:57Z</time>
      </trkpt>
      <trkpt lat="50.31399" lon="4.28555">
        <ele>184.731537</ele>
        <time>2022-08-28T07:17:59Z</time>
      </trkpt>
      <trkpt lat="50.31387" lon="4.28559">
        <ele>184.53392</ele>
        <time>2022-08-28T07:18:01Z</time>
      </trkpt>
      <trkpt lat="50.31376" lon="4.28564">
        <ele>184.309219</ele>
        <time>2022-08-28T07:18:03Z</time>
      </trkpt>
      <trkpt lat="50.31363" lon="4.28569">
        <ele>184.092911</ele>
        <time>2022-08-28T07:18:05Z</time>
      </trkpt>
      <trkpt lat="50.3135" lon="4.28574">
        <ele>183.916504</ele>
        <time>2022-08-28T07:18:07Z</time>
      </trkpt>
      <trkpt lat="50.31337" lon="4.2858">
        <ele>183.700226</ele>
        <time>2022-08-28T07:18:09Z</time>
      </trkpt>
      <trkpt lat="50.31323" lon="4.28585">
        <ele>183.301605</ele>
        <time>2022-08-28T07:18:11Z</time>
      </trkpt>
      <trkpt lat="50.3131" lon="4.28591">
        <ele>183.022324</ele>
        <time>2022-08-28T07:18:13Z</time>
      </trkpt>
      <trkpt lat="50.31296" lon="4.28597">
        <ele>182.717865</ele>
        <time>2022-08-28T07:18:15Z</time>
      </trkpt>
      <trkpt lat="50.31282" lon="4.28603">
        <ele>182.390854</ele>
        <time>2022-08-28T07:18:17Z</time>
      </trkpt>
      <trkpt lat="50.31267" lon="4.28609">
        <ele>182.050797</ele>
        <time>2022-08-28T07:18:19Z</time>
      </trkpt>
      <trkpt lat="50.31253" lon="4.28615">
        <ele>181.647675</ele>
        <time>2022-08-28T07:18:21Z</time>
      </trkpt>
      <trkpt lat="50.31238" lon="4.28621">
        <ele>181.250565</ele>
        <time>2022-08-28T07:18:23Z</time>
      </trkpt>
      <trkpt lat="50.31224" lon="4.28627">
        <ele>180.825317</ele>
        <time>2022-08-28T07:18:25Z</time>
      </trkpt>
      <trkpt lat="50.3121" lon="4.28634">
        <ele>180.432327</ele>
        <time>2022-08-28T07:18:27Z</time>
      </trkpt>
      <trkpt lat="50.31195" lon="4.28641">
        <ele>180.090164</ele>
        <time>2022-08-28T07:18:29Z</time>
      </trkpt>
      <trkpt lat="50.31182" lon="4.28648">
        <ele>179.716507</ele>
        <time>2022-08-28T07:18:31Z</time>
      </trkpt>
      <trkpt lat="50.31168" lon="4.28656">
        <ele>179.175003</ele>
        <time>2022-08-28T07:18:33Z</time>
      </trkpt>
      <trkpt lat="50.31154" lon="4.28664">
        <ele>178.740509</ele>
        <time>2022-08-28T07:18:35Z</time>
      </trkpt>
      <trkpt lat="50.31139" lon="4.28672">
        <ele>178.591507</ele>
        <time>2022-08-28T07:18:37Z</time>
      </trkpt>
      <trkpt lat="50.31126" lon="4.28682">
        <ele>178.224167</ele>
        <time>2022-08-28T07:18:39Z</time>
      </trkpt>
      <trkpt lat="50.31114" lon="4.28691">
        <ele>177.871796</ele>
        <time>2022-08-28T07:18:41Z</time>
      </trkpt>
      <trkpt lat="50.31102" lon="4.28695">
        <ele>177.380707</ele>
        <time>2022-08-28T07:18:43Z</time>
      </trkpt>
      <trkpt lat="50.3109" lon="4.28689">
        <ele>177.099487</ele>
        <time>2022-08-28T07:18:45Z</time>
      </trkpt>
      <trkpt lat="50.31083" lon="4.28673">
        <ele>176.637787</ele>
        <time>2022-08-28T07:18:47Z</time>
      </trkpt>
      <trkpt lat="50.31078" lon="4.28655">
        <ele>176.192917</ele>
        <time>2022-08-28T07:18:49Z</time>
      </trkpt>
      <trkpt lat="50.31074" lon="4.28638">
        <ele>175.777435</ele>
        <time>2022-08-28T07:18:51Z</time>
      </trkpt>
      <trkpt lat="50.31069" lon="4.28621">
        <ele>175.422806</ele>
        <time>2022-08-28T07:18:53Z</time>
      </trkpt>
      <trkpt lat="50.31066" lon="4.28605">
        <ele>175.026215</ele>
        <time>2022-08-28T07:18:55Z</time>
      </trkpt>
      <trkpt lat="50.31061" lon="4.28589">
        <ele>174.61499</ele>
        <time>2022-08-28T07:18:57Z</time>
      </trkpt>
      <trkpt lat="50.31058" lon="4.28572">
        <ele>174.205856</ele>
        <time>2022-08-28T07:18:59Z</time>
      </trkpt>
      <trkpt lat="50.31055" lon="4.28556">
        <ele>173.889038</ele>
        <time>2022-08-28T07:19:01Z</time>
      </trkpt>
      <trkpt lat="50.31052" lon="4.28538">
        <ele>173.452667</ele>
        <time>2022-08-28T07:19:03Z</time>
      </trkpt>
      <trkpt lat="50.31051" lon="4.2852">
        <ele>173.11911</ele>
        <time>2022-08-28T07:19:05Z</time>
      </trkpt>
      <trkpt lat="50.3105" lon="4.28501">
        <ele>172.751923</ele>
        <time>2022-08-28T07:19:07Z</time>
      </trkpt>
      <trkpt lat="50.31048" lon="4.28483">
        <ele>172.363846</ele>
        <time>2022-08-28T07:19:09Z</time>
      </trkpt>
      <trkpt lat="50.31047" lon="4.28464">
        <ele>172.059662</ele>
        <time>2022-08-28T07:19:11Z</time>
      </trkpt>
      <trkpt lat="50.31045" lon="4.28445">
        <ele>171.824738</ele>
        <time>2022-08-28T07:19:13Z</time>
      </trkpt>
      <trkpt lat="50.31043" lon="4.28426">
        <ele>171.623367</ele>
        <time>2022-08-28T07:19:15Z</time>
      </trkpt>
      <trkpt lat="50.31042" lon="4.28405">
        <ele>171.482819</ele>
        <time>2022-08-28T07:19:17Z</time>
      </trkpt>
      <trkpt lat="50.31039" lon="4.28385">
        <ele>171.161865</ele>
        <time>2022-08-28T07:19:19Z</time>
      </trkpt>
      <trkpt lat="50.31036" lon="4.28363">
        <ele>170.803268</ele>
        <time>2022-08-28T07:19:21Z</time>
      </trkpt>
      <trkpt lat="50.31035" lon="4.28343">
        <ele>170.529755</ele>
        <time>2022-08-28T07:19:23Z</time>
      </trkpt>
      <trkpt lat="50.31033" lon="4.28323">
        <ele>170.317871</ele>
        <time>2022-08-28T07:19:25Z</time>
      </trkpt>
      <trkpt lat="50.31031" lon="4.28305">
        <ele>170.03894</ele>
        <time>2022-08-28T07:19:27Z</time>
      </trkpt>
      <trkpt lat="50.3103" lon="4.28288">
        <ele>169.825027</ele>
        <time>2022-08-28T07:19:29Z</time>
      </trkpt>
      <trkpt lat="50.3103" lon="4.28271">
        <ele>169.658386</ele>
        <time>2022-08-28T07:19:31Z</time>
      </trkpt>
      <trkpt lat="50.31031" lon="4.28254">
        <ele>169.417206</ele>
        <time>2022-08-28T07:19:33Z</time>
      </trkpt>
      <trkpt lat="50.31034" lon="4.28238">
        <ele>169.404633</ele>
        <time>2022-08-28T07:19:35Z</time>
      </trkpt>
      <trkpt lat="50.31039" lon="4.28222">
        <ele>169.438171</ele>
        <time>2022-08-28T07:19:37Z</time>
      </trkpt>
      <trkpt lat="50.31043" lon="4.28206">
        <ele>169.310211</ele>
        <time>2022-08-28T07:19:39Z</time>
      </trkpt>
      <trkpt lat="50.31047" lon="4.28191">
        <ele>169.289246</ele>
        <time>2022-08-28T07:19:41Z</time>
      </trkpt>
      <trkpt lat="50.31051" lon="4.28176">
        <ele>169.178101</ele>
        <time>2022-08-28T07:19:43Z</time>
      </trkpt>
      <trkpt lat="50.31054" lon="4.2816">
        <ele>169.169708</ele>
        <time>2022-08-28T07:19:45Z</time>
      </trkpt>
      <trkpt lat="50.31058" lon="4.28145">
        <ele>169.100494</ele>
        <time>2022-08-28T07:19:47Z</time>
      </trkpt>
      <trkpt lat="50.31062" lon="4.28129">
        <ele>169.081619</ele>
        <time>2022-08-28T07:19:49Z</time>
      </trkpt>
      <trkpt lat="50.31065" lon="4.28113">
        <ele>169.144547</ele>
        <time>2022-08-28T07:19:51Z</time>
      </trkpt>
      <trkpt lat="50.31069" lon="4.28097">
        <ele>169.169037</ele>
        <time>2022-08-28T07:19:53Z</time>
      </trkpt>
      <trkpt lat="50.31073" lon="4.28082">
        <ele>169.238251</ele>
        <time>2022-08-28T07:19:55Z</time>
      </trkpt>
      <trkpt lat="50.31077" lon="4.28066">
        <ele>169.353607</ele>
        <time>2022-08-28T07:19:57Z</time>
      </trkpt>
      <trkpt lat="50.31081" lon="4.2805">
        <ele>169.527695</ele>
        <time>2022-08-28T07:19:59Z</time>
      </trkpt>
      <trkpt lat="50.31085" lon="4.28034">
        <ele>169.821259</ele>
        <time>2022-08-28T07:20:01Z</time>
      </trkpt>
      <trkpt lat="50.31089" lon="4.2802">
        <ele>169.923553</ele>
        <time>2022-08-28T07:20:03Z</time>
      </trkpt>
      <trkpt lat="50.31093" lon="4.28005">
        <ele>170.080887</ele>
        <time>2022-08-28T07:20:05Z</time>
      </trkpt>
      <trkpt lat="50.31096" lon="4.27991">
        <ele>170.177338</ele>
        <time>2022-08-28T07:20:07Z</time>
      </trkpt>
      <trkpt lat="50.31099" lon="4.27976">
        <ele>170.508942</ele>
        <time>2022-08-28T07:20:09Z</time>
      </trkpt>
      <trkpt lat="50.31102" lon="4.27963">
        <ele>170.642059</ele>
        <time>2022-08-28T07:20:11Z</time>
      </trkpt>
      <trkpt lat="50.31105" lon="4.27949">
        <ele>170.826599</ele>
        <time>2022-08-28T07:20:13Z</time>
      </trkpt>
      <trkpt lat="50.31108" lon="4.27935">
        <ele>171.02684</ele>
        <time>2022-08-28T07:20:15Z</time>
      </trkpt>
      <trkpt lat="50.31112" lon="4.27921">
        <ele>171.169495</ele>
        <time>2022-08-28T07:20:17Z</time>
      </trkpt>
      <trkpt lat="50.31115" lon="4.27905">
        <ele>171.276459</ele>
        <time>2022-08-28T07:20:19Z</time>
      </trkpt>
      <trkpt lat="50.31119" lon="4.2789">
        <ele>171.368744</ele>
        <time>2022-08-28T07:20:21Z</time>
      </trkpt>
      <trkpt lat="50.31123" lon="4.27875">
        <ele>171.62674</ele>
        <time>2022-08-28T07:20:23Z</time>
      </trkpt>
      <trkpt lat="50.31126" lon="4.27859">
        <ele>171.893555</ele>
        <time>2022-08-28T07:20:25Z</time>
      </trkpt>
      <trkpt lat="50.3113" lon="4.27842">
        <ele>172.129456</ele>
        <time>2022-08-28T07:20:27Z</time>
      </trkpt>
      <trkpt lat="50.31133" lon="4.27825">
        <ele>172.255219</ele>
        <time>2022-08-28T07:20:29Z</time>
      </trkpt>
      <trkpt lat="50.31136" lon="4.27808">
        <ele>172.429337</ele>
        <time>2022-08-28T07:20:31Z</time>
      </trkpt>
      <trkpt lat="50.31139" lon="4.27791">
        <ele>172.494354</ele>
        <time>2022-08-28T07:20:33Z</time>
      </trkpt>
      <trkpt lat="50.31141" lon="4.27774">
        <ele>172.746735</ele>
        <time>2022-08-28T07:20:35Z</time>
      </trkpt>
      <trkpt lat="50.31143" lon="4.27758">
        <ele>172.883087</ele>
        <time>2022-08-28T07:20:37Z</time>
      </trkpt>
      <trkpt lat="50.31144" lon="4.27741">
        <ele>173.040436</ele>
        <time>2022-08-28T07:20:39Z</time>
      </trkpt>
      <trkpt lat="50.31146" lon="4.27725">
        <ele>173.023666</ele>
        <time>2022-08-28T07:20:41Z</time>
      </trkpt>
      <trkpt lat="50.31147" lon="4.27709">
        <ele>172.791153</ele>
        <time>2022-08-28T07:20:43Z</time>
      </trkpt>
      <trkpt lat="50.31148" lon="4.27694">
        <ele>173.100723</ele>
        <time>2022-08-28T07:20:45Z</time>
      </trkpt>
      <trkpt lat="50.3115" lon="4.27679">
        <ele>173.335297</ele>
        <time>2022-08-28T07:20:47Z</time>
      </trkpt>
      <trkpt lat="50.31151" lon="4.27666">
        <ele>173.492737</ele>
        <time>2022-08-28T07:20:49Z</time>
      </trkpt>
      <trkpt lat="50.31153" lon="4.27654">
        <ele>173.698349</ele>
        <time>2022-08-28T07:20:51Z</time>
      </trkpt>
      <trkpt lat="50.31155" lon="4.27643">
        <ele>173.89975</ele>
        <time>2022-08-28T07:20:53Z</time>
      </trkpt>
      <trkpt lat="50.31154" lon="4.2763">
        <ele>173.525726</ele>
        <time>2022-08-28T07:20:55Z</time>
      </trkpt>
      <trkpt lat="50.31151" lon="4.27616">
        <ele>173.578156</ele>
        <time>2022-08-28T07:20:57Z</time>
      </trkpt>
      <trkpt lat="50.31146" lon="4.27603">
        <ele>173.754333</ele>
        <time>2022-08-28T07:20:59Z</time>
      </trkpt>
      <trkpt lat="50.31144" lon="4.27588">
        <ele>173.750137</ele>
        <time>2022-08-28T07:21:01Z</time>
      </trkpt>
      <trkpt lat="50.31144" lon="4.27573">
        <ele>173.810974</ele>
        <time>2022-08-28T07:21:03Z</time>
      </trkpt>
      <trkpt lat="50.31147" lon="4.27558">
        <ele>173.930573</ele>
        <time>2022-08-28T07:21:05Z</time>
      </trkpt>
      <trkpt lat="50.31151" lon="4.27543">
        <ele>174.112686</ele>
        <time>2022-08-28T07:21:07Z</time>
      </trkpt>
      <trkpt lat="50.31155" lon="4.27529">
        <ele>174.233353</ele>
        <time>2022-08-28T07:21:09Z</time>
      </trkpt>
      <trkpt lat="50.31159" lon="4.27515">
        <ele>174.443253</ele>
        <time>2022-08-28T07:21:11Z</time>
      </trkpt>
      <trkpt lat="50.31162" lon="4.275">
        <ele>174.59642</ele>
        <time>2022-08-28T07:21:13Z</time>
      </trkpt>
      <trkpt lat="50.31167" lon="4.27485">
        <ele>174.764267</ele>
        <time>2022-08-28T07:21:15Z</time>
      </trkpt>
      <trkpt lat="50.31171" lon="4.27469">
        <ele>174.835617</ele>
        <time>2022-08-28T07:21:17Z</time>
      </trkpt>
      <trkpt lat="50.31175" lon="4.27454">
        <ele>174.959442</ele>
        <time>2022-08-28T07:21:19Z</time>
      </trkpt>
      <trkpt lat="50.31178" lon="4.27437">
        <ele>175.089935</ele>
        <time>2022-08-28T07:21:21Z</time>
      </trkpt>
      <trkpt lat="50.3118" lon="4.27419">
        <ele>175.347855</ele>
        <time>2022-08-28T07:21:23Z</time>
      </trkpt>
      <trkpt lat="50.31182" lon="4.27401">
        <ele>175.935455</ele>
        <time>2022-08-28T07:21:25Z</time>
      </trkpt>
      <trkpt lat="50.31184" lon="4.27384">
        <ele>175.403305</ele>
        <time>2022-08-28T07:21:27Z</time>
      </trkpt>
      <trkpt lat="50.31185" lon="4.27366">
        <ele>175.480682</ele>
        <time>2022-08-28T07:21:29Z</time>
      </trkpt>
      <trkpt lat="50.31186" lon="4.2735">
        <ele>175.6129</ele>
        <time>2022-08-28T07:21:31Z</time>
      </trkpt>
      <trkpt lat="50.31188" lon="4.27333">
        <ele>175.810181</ele>
        <time>2022-08-28T07:21:33Z</time>
      </trkpt>
      <trkpt lat="50.3119" lon="4.27317">
        <ele>176.569366</ele>
        <time>2022-08-28T07:21:35Z</time>
      </trkpt>
      <trkpt lat="50.31193" lon="4.27301">
        <ele>176.669678</ele>
        <time>2022-08-28T07:21:37Z</time>
      </trkpt>
      <trkpt lat="50.31197" lon="4.27285">
        <ele>176.840363</ele>
        <time>2022-08-28T07:21:39Z</time>
      </trkpt>
      <trkpt lat="50.31202" lon="4.27271">
        <ele>177.123688</ele>
        <time>2022-08-28T07:21:41Z</time>
      </trkpt>
      <trkpt lat="50.31207" lon="4.27256">
        <ele>177.448975</ele>
        <time>2022-08-28T07:21:43Z</time>
      </trkpt>
      <trkpt lat="50.31211" lon="4.27242">
        <ele>177.639969</ele>
        <time>2022-08-28T07:21:45Z</time>
      </trkpt>
      <trkpt lat="50.31214" lon="4.27226">
        <ele>177.906525</ele>
        <time>2022-08-28T07:21:47Z</time>
      </trkpt>
      <trkpt lat="50.31216" lon="4.27208">
        <ele>178.152069</ele>
        <time>2022-08-28T07:21:49Z</time>
      </trkpt>
      <trkpt lat="50.31217" lon="4.2719">
        <ele>178.466919</ele>
        <time>2022-08-28T07:21:51Z</time>
      </trkpt>
      <trkpt lat="50.31219" lon="4.27173">
        <ele>178.649536</ele>
        <time>2022-08-28T07:21:53Z</time>
      </trkpt>
      <trkpt lat="50.31221" lon="4.27155">
        <ele>178.859421</ele>
        <time>2022-08-28T07:21:55Z</time>
      </trkpt>
      <trkpt lat="50.31223" lon="4.27136">
        <ele>179.144699</ele>
        <time>2022-08-28T07:21:57Z</time>
      </trkpt>
      <trkpt lat="50.31224" lon="4.27118">
        <ele>179.373489</ele>
        <time>2022-08-28T07:21:59Z</time>
      </trkpt>
      <trkpt lat="50.31226" lon="4.27099">
        <ele>179.53891</ele>
        <time>2022-08-28T07:22:01Z</time>
      </trkpt>
      <trkpt lat="50.31228" lon="4.27081">
        <ele>179.599976</ele>
        <time>2022-08-28T07:22:03Z</time>
      </trkpt>
      <trkpt lat="50.3123" lon="4.27062">
        <ele>179.668869</ele>
        <time>2022-08-28T07:22:05Z</time>
      </trkpt>
      <trkpt lat="50.31232" lon="4.27044">
        <ele>179.820099</ele>
        <time>2022-08-28T07:22:07Z</time>
      </trkpt>
      <trkpt lat="50.31234" lon="4.27025">
        <ele>180.453339</ele>
        <time>2022-08-28T07:22:09Z</time>
      </trkpt>
      <trkpt lat="50.31236" lon="4.27006">
        <ele>180.612869</ele>
        <time>2022-08-28T07:22:11Z</time>
      </trkpt>
      <trkpt lat="50.31238" lon="4.26987">
        <ele>180.724686</ele>
        <time>2022-08-28T07:22:13Z</time>
      </trkpt>
      <trkpt lat="50.31239" lon="4.26968">
        <ele>180.726776</ele>
        <time>2022-08-28T07:22:15Z</time>
      </trkpt>
      <trkpt lat="50.31241" lon="4.2695">
        <ele>180.720901</ele>
        <time>2022-08-28T07:22:17Z</time>
      </trkpt>
      <trkpt lat="50.31242" lon="4.26932">
        <ele>180.858856</ele>
        <time>2022-08-28T07:22:19Z</time>
      </trkpt>
      <trkpt lat="50.31244" lon="4.26913">
        <ele>180.882965</ele>
        <time>2022-08-28T07:22:21Z</time>
      </trkpt>
      <trkpt lat="50.31245" lon="4.26895">
        <ele>180.893478</ele>
        <time>2022-08-28T07:22:23Z</time>
      </trkpt>
      <trkpt lat="50.31245" lon="4.26876">
        <ele>181.067734</ele>
        <time>2022-08-28T07:22:25Z</time>
      </trkpt>
      <trkpt lat="50.31246" lon="4.26858">
        <ele>181.011063</ele>
        <time>2022-08-28T07:22:27Z</time>
      </trkpt>
      <trkpt lat="50.31247" lon="4.2684">
        <ele>181.029953</ele>
        <time>2022-08-28T07:22:29Z</time>
      </trkpt>
      <trkpt lat="50.31247" lon="4.26821">
        <ele>181.019485</ele>
        <time>2022-08-28T07:22:31Z</time>
      </trkpt>
      <trkpt lat="50.31248" lon="4.26802">
        <ele>180.96907</ele>
        <time>2022-08-28T07:22:33Z</time>
      </trkpt>
      <trkpt lat="50.31249" lon="4.26783">
        <ele>180.91243</ele>
        <time>2022-08-28T07:22:35Z</time>
      </trkpt>
      <trkpt lat="50.31249" lon="4.26764">
        <ele>180.943893</ele>
        <time>2022-08-28T07:22:37Z</time>
      </trkpt>
      <trkpt lat="50.3125" lon="4.26745">
        <ele>180.931488</ele>
        <time>2022-08-28T07:22:39Z</time>
      </trkpt>
      <trkpt lat="50.31252" lon="4.26726">
        <ele>181.011276</ele>
        <time>2022-08-28T07:22:41Z</time>
      </trkpt>
      <trkpt lat="50.31255" lon="4.26708">
        <ele>181.124634</ele>
        <time>2022-08-28T07:22:43Z</time>
      </trkpt>
      <trkpt lat="50.31259" lon="4.2669">
        <ele>181.133057</ele>
        <time>2022-08-28T07:22:45Z</time>
      </trkpt>
      <trkpt lat="50.31263" lon="4.26673">
        <ele>181.105759</ele>
        <time>2022-08-28T07:22:47Z</time>
      </trkpt>
      <trkpt lat="50.31266" lon="4.26655">
        <ele>181.030197</ele>
        <time>2022-08-28T07:22:49Z</time>
      </trkpt>
      <trkpt lat="50.3127" lon="4.26636">
        <ele>181.164551</ele>
        <time>2022-08-28T07:22:51Z</time>
      </trkpt>
      <trkpt lat="50.31274" lon="4.26617">
        <ele>181.206009</ele>
        <time>2022-08-28T07:22:53Z</time>
      </trkpt>
      <trkpt lat="50.31278" lon="4.26598">
        <ele>181.15564</ele>
        <time>2022-08-28T07:22:55Z</time>
      </trkpt>
      <trkpt lat="50.31282" lon="4.26579">
        <ele>181.06958</ele>
        <time>2022-08-28T07:22:57Z</time>
      </trkpt>
      <trkpt lat="50.31286" lon="4.2656">
        <ele>181.073761</ele>
        <time>2022-08-28T07:22:59Z</time>
      </trkpt>
      <trkpt lat="50.3129" lon="4.26542">
        <ele>181.054886</ele>
        <time>2022-08-28T07:23:01Z</time>
      </trkpt>
      <trkpt lat="50.31294" lon="4.26523">
        <ele>180.997162</ele>
        <time>2022-08-28T07:23:03Z</time>
      </trkpt>
      <trkpt lat="50.31298" lon="4.26505">
        <ele>181.026566</ele>
        <time>2022-08-28T07:23:05Z</time>
      </trkpt>
      <trkpt lat="50.31301" lon="4.26487">
        <ele>180.957245</ele>
        <time>2022-08-28T07:23:07Z</time>
      </trkpt>
      <trkpt lat="50.31305" lon="4.26468">
        <ele>180.965652</ele>
        <time>2022-08-28T07:23:09Z</time>
      </trkpt>
      <trkpt lat="50.3131" lon="4.26451">
        <ele>180.947815</ele>
        <time>2022-08-28T07:23:11Z</time>
      </trkpt>
      <trkpt lat="50.31314" lon="4.26433">
        <ele>180.954117</ele>
        <time>2022-08-28T07:23:13Z</time>
      </trkpt>
      <trkpt lat="50.31319" lon="4.26416">
        <ele>181.065353</ele>
        <time>2022-08-28T07:23:15Z</time>
      </trkpt>
      <trkpt lat="50.31325" lon="4.26399">
        <ele>180.98558</ele>
        <time>2022-08-28T07:23:17Z</time>
      </trkpt>
      <trkpt lat="50.31331" lon="4.26382">
        <ele>180.977188</ele>
        <time>2022-08-28T07:23:19Z</time>
      </trkpt>
      <trkpt lat="50.31337" lon="4.26365">
        <ele>180.981888</ele>
        <time>2022-08-28T07:23:21Z</time>
      </trkpt>
      <trkpt lat="50.31343" lon="4.26347">
        <ele>180.979782</ele>
        <time>2022-08-28T07:23:23Z</time>
      </trkpt>
      <trkpt lat="50.31349" lon="4.2633">
        <ele>180.988174</ele>
        <time>2022-08-28T07:23:25Z</time>
      </trkpt>
      <trkpt lat="50.31355" lon="4.26313">
        <ele>181.105743</ele>
        <time>2022-08-28T07:23:27Z</time>
      </trkpt>
      <trkpt lat="50.31361" lon="4.26297">
        <ele>181.133026</ele>
        <time>2022-08-28T07:23:29Z</time>
      </trkpt>
      <trkpt lat="50.31366" lon="4.2628">
        <ele>181.292587</ele>
        <time>2022-08-28T07:23:31Z</time>
      </trkpt>
      <trkpt lat="50.31372" lon="4.26264">
        <ele>181.172913</ele>
        <time>2022-08-28T07:23:33Z</time>
      </trkpt>
      <trkpt lat="50.31377" lon="4.26248">
        <ele>181.263214</ele>
        <time>2022-08-28T07:23:35Z</time>
      </trkpt>
      <trkpt lat="50.31383" lon="4.26233">
        <ele>181.544525</ele>
        <time>2022-08-28T07:23:37Z</time>
      </trkpt>
      <trkpt lat="50.31389" lon="4.26217">
        <ele>181.624313</ele>
        <time>2022-08-28T07:23:39Z</time>
      </trkpt>
      <trkpt lat="50.31396" lon="4.26201">
        <ele>181.689423</ele>
        <time>2022-08-28T07:23:41Z</time>
      </trkpt>
      <trkpt lat="50.31402" lon="4.26185">
        <ele>181.796478</ele>
        <time>2022-08-28T07:23:43Z</time>
      </trkpt>
      <trkpt lat="50.31409" lon="4.26168">
        <ele>181.880463</ele>
        <time>2022-08-28T07:23:45Z</time>
      </trkpt>
      <trkpt lat="50.31415" lon="4.26151">
        <ele>182.02327</ele>
        <time>2022-08-28T07:23:47Z</time>
      </trkpt>
      <trkpt lat="50.31422" lon="4.26134">
        <ele>182.174454</ele>
        <time>2022-08-28T07:23:49Z</time>
      </trkpt>
      <trkpt lat="50.31428" lon="4.26117">
        <ele>182.217468</ele>
        <time>2022-08-28T07:23:51Z</time>
      </trkpt>
      <trkpt lat="50.31435" lon="4.261">
        <ele>182.238434</ele>
        <time>2022-08-28T07:23:53Z</time>
      </trkpt>
      <trkpt lat="50.31442" lon="4.26082">
        <ele>182.316147</ele>
        <time>2022-08-28T07:23:55Z</time>
      </trkpt>
      <trkpt lat="50.31448" lon="4.26064">
        <ele>182.414825</ele>
        <time>2022-08-28T07:23:57Z</time>
      </trkpt>
      <trkpt lat="50.31455" lon="4.26047">
        <ele>182.455917</ele>
        <time>2022-08-28T07:23:59Z</time>
      </trkpt>
      <trkpt lat="50.31461" lon="4.26028">
        <ele>182.453827</ele>
        <time>2022-08-28T07:24:01Z</time>
      </trkpt>
      <trkpt lat="50.31468" lon="4.2601">
        <ele>182.528915</ele>
        <time>2022-08-28T07:24:03Z</time>
      </trkpt>
      <trkpt lat="50.31475" lon="4.25993">
        <ele>182.482727</ele>
        <time>2022-08-28T07:24:05Z</time>
      </trkpt>
      <trkpt lat="50.31481" lon="4.25976">
        <ele>182.407135</ele>
        <time>2022-08-28T07:24:07Z</time>
      </trkpt>
      <trkpt lat="50.31487" lon="4.2596">
        <ele>182.432343</ele>
        <time>2022-08-28T07:24:09Z</time>
      </trkpt>
      <trkpt lat="50.31492" lon="4.25947">
        <ele>182.346252</ele>
        <time>2022-08-28T07:24:11Z</time>
      </trkpt>
      <trkpt lat="50.31496" lon="4.25937">
        <ele>182.297958</ele>
        <time>2022-08-28T07:24:13Z</time>
      </trkpt>
      <trkpt lat="50.315" lon="4.2593">
        <ele>182.188782</ele>
        <time>2022-08-28T07:24:15Z</time>
      </trkpt>
      <trkpt lat="50.31503" lon="4.25923">
        <ele>181.943146</ele>
        <time>2022-08-28T07:24:17Z</time>
      </trkpt>
      <trkpt lat="50.31501" lon="4.25913">
        <ele>181.789856</ele>
        <time>2022-08-28T07:24:19Z</time>
      </trkpt>
      <trkpt lat="50.31496" lon="4.25905">
        <ele>181.590439</ele>
        <time>2022-08-28T07:24:21Z</time>
      </trkpt>
      <trkpt lat="50.31489" lon="4.25897">
        <ele>181.437164</ele>
        <time>2022-08-28T07:24:23Z</time>
      </trkpt>
      <trkpt lat="50.31483" lon="4.25888">
        <ele>181.189453</ele>
        <time>2022-08-28T07:24:25Z</time>
      </trkpt>
      <trkpt lat="50.31476" lon="4.25879">
        <ele>180.979507</ele>
        <time>2022-08-28T07:24:27Z</time>
      </trkpt>
      <trkpt lat="50.31469" lon="4.2587">
        <ele>180.67511</ele>
        <time>2022-08-28T07:24:29Z</time>
      </trkpt>
      <trkpt lat="50.31462" lon="4.25861">
        <ele>180.507156</ele>
        <time>2022-08-28T07:24:31Z</time>
      </trkpt>
      <trkpt lat="50.31454" lon="4.25852">
        <ele>180.351837</ele>
        <time>2022-08-28T07:24:33Z</time>
      </trkpt>
      <trkpt lat="50.31446" lon="4.25842">
        <ele>180.280472</ele>
        <time>2022-08-28T07:24:35Z</time>
      </trkpt>
      <trkpt lat="50.31438" lon="4.25831">
        <ele>180.055862</ele>
        <time>2022-08-28T07:24:37Z</time>
      </trkpt>
      <trkpt lat="50.3143" lon="4.25821">
        <ele>179.942505</ele>
        <time>2022-08-28T07:24:39Z</time>
      </trkpt>
      <trkpt lat="50.31423" lon="4.25809">
        <ele>179.601273</ele>
        <time>2022-08-28T07:24:41Z</time>
      </trkpt>
      <trkpt lat="50.31415" lon="4.25798">
        <ele>178.797943</ele>
        <time>2022-08-28T07:24:43Z</time>
      </trkpt>
      <trkpt lat="50.31407" lon="4.25786">
        <ele>178.38028</ele>
        <time>2022-08-28T07:24:45Z</time>
      </trkpt>
      <trkpt lat="50.31399" lon="4.25774">
        <ele>177.646286</ele>
        <time>2022-08-28T07:24:47Z</time>
      </trkpt>
      <trkpt lat="50.31392" lon="4.25763">
        <ele>177.483719</ele>
        <time>2022-08-28T07:24:49Z</time>
      </trkpt>
      <trkpt lat="50.31384" lon="4.25752">
        <ele>176.263214</ele>
        <time>2022-08-28T07:24:51Z</time>
      </trkpt>
      <trkpt lat="50.31377" lon="4.25741">
        <ele>176.16243</ele>
        <time>2022-08-28T07:24:53Z</time>
      </trkpt>
      <trkpt lat="50.31369" lon="4.25729">
        <ele>175.845551</ele>
        <time>2022-08-28T07:24:55Z</time>
      </trkpt>
      <trkpt lat="50.31361" lon="4.25718">
        <ele>175.635666</ele>
        <time>2022-08-28T07:24:57Z</time>
      </trkpt>
      <trkpt lat="50.31354" lon="4.25707">
        <ele>175.543335</ele>
        <time>2022-08-28T07:24:59Z</time>
      </trkpt>
      <trkpt lat="50.31346" lon="4.25695">
        <ele>175.192902</ele>
        <time>2022-08-28T07:25:01Z</time>
      </trkpt>
      <trkpt lat="50.31339" lon="4.25683">
        <ele>174.947357</ele>
        <time>2022-08-28T07:25:03Z</time>
      </trkpt>
      <trkpt lat="50.31331" lon="4.25671">
        <ele>174.72493</ele>
        <time>2022-08-28T07:25:05Z</time>
      </trkpt>
      <trkpt lat="50.31323" lon="4.25659">
        <ele>174.542358</ele>
        <time>2022-08-28T07:25:07Z</time>
      </trkpt>
      <trkpt lat="50.31314" lon="4.25647">
        <ele>174.891235</ele>
        <time>2022-08-28T07:25:09Z</time>
      </trkpt>
      <trkpt lat="50.31305" lon="4.25635">
        <ele>174.750641</ele>
        <time>2022-08-28T07:25:11Z</time>
      </trkpt>
      <trkpt lat="50.31297" lon="4.25623">
        <ele>174.637299</ele>
        <time>2022-08-28T07:25:13Z</time>
      </trkpt>
      <trkpt lat="50.31289" lon="4.25611">
        <ele>174.559631</ele>
        <time>2022-08-28T07:25:15Z</time>
      </trkpt>
      <trkpt lat="50.31281" lon="4.25598">
        <ele>174.209137</ele>
        <time>2022-08-28T07:25:17Z</time>
      </trkpt>
      <trkpt lat="50.31273" lon="4.25586">
        <ele>173.957306</ele>
        <time>2022-08-28T07:25:19Z</time>
      </trkpt>
      <trkpt lat="50.31265" lon="4.25574">
        <ele>173.713959</ele>
        <time>2022-08-28T07:25:21Z</time>
      </trkpt>
      <trkpt lat="50.31257" lon="4.25563">
        <ele>174.162567</ele>
        <time>2022-08-28T07:25:23Z</time>
      </trkpt>
      <trkpt lat="50.31249" lon="4.25552">
        <ele>174.202423</ele>
        <time>2022-08-28T07:25:25Z</time>
      </trkpt>
      <trkpt lat="50.31241" lon="4.25541">
        <ele>174.609985</ele>
        <time>2022-08-28T07:25:27Z</time>
      </trkpt>
      <trkpt lat="50.31233" lon="4.25531">
        <ele>175.028595</ele>
        <time>2022-08-28T07:25:29Z</time>
      </trkpt>
      <trkpt lat="50.31224" lon="4.2552">
        <ele>175.427032</ele>
        <time>2022-08-28T07:25:31Z</time>
      </trkpt>
      <trkpt lat="50.31216" lon="4.25509">
        <ele>175.653244</ele>
        <time>2022-08-28T07:25:33Z</time>
      </trkpt>
      <trkpt lat="50.31207" lon="4.25499">
        <ele>175.632263</ele>
        <time>2022-08-28T07:25:35Z</time>
      </trkpt>
      <trkpt lat="50.31198" lon="4.25489">
        <ele>175.602905</ele>
        <time>2022-08-28T07:25:37Z</time>
      </trkpt>
      <trkpt lat="50.31189" lon="4.25479">
        <ele>175.518066</ele>
        <time>2022-08-28T07:25:39Z</time>
      </trkpt>
      <trkpt lat="50.3118" lon="4.25469">
        <ele>175.599152</ele>
        <time>2022-08-28T07:25:41Z</time>
      </trkpt>
      <trkpt lat="50.31172" lon="4.2546">
        <ele>175.641098</ele>
        <time>2022-08-28T07:25:43Z</time>
      </trkpt>
      <trkpt lat="50.31163" lon="4.2545">
        <ele>175.733429</ele>
        <time>2022-08-28T07:25:45Z</time>
      </trkpt>
      <trkpt lat="50.31155" lon="4.2544">
        <ele>175.783783</ele>
        <time>2022-08-28T07:25:47Z</time>
      </trkpt>
      <trkpt lat="50.31146" lon="4.25431">
        <ele>175.725037</ele>
        <time>2022-08-28T07:25:49Z</time>
      </trkpt>
      <trkpt lat="50.31138" lon="4.25421">
        <ele>175.067673</ele>
        <time>2022-08-28T07:25:51Z</time>
      </trkpt>
      <trkpt lat="50.31129" lon="4.25411">
        <ele>175.70195</ele>
        <time>2022-08-28T07:25:53Z</time>
      </trkpt>
      <trkpt lat="50.3112" lon="4.25402">
        <ele>175.50473</ele>
        <time>2022-08-28T07:25:55Z</time>
      </trkpt>
      <trkpt lat="50.31112" lon="4.25392">
        <ele>175.527786</ele>
        <time>2022-08-28T07:25:57Z</time>
      </trkpt>
      <trkpt lat="50.31103" lon="4.25382">
        <ele>176.189331</ele>
        <time>2022-08-28T07:25:59Z</time>
      </trkpt>
      <trkpt lat="50.31094" lon="4.25372">
        <ele>175.916962</ele>
        <time>2022-08-28T07:26:01Z</time>
      </trkpt>
      <trkpt lat="50.31086" lon="4.25362">
        <ele>176.183426</ele>
        <time>2022-08-28T07:26:03Z</time>
      </trkpt>
      <trkpt lat="50.31078" lon="4.25353">
        <ele>176.206512</ele>
        <time>2022-08-28T07:26:05Z</time>
      </trkpt>
      <trkpt lat="50.31069" lon="4.25343">
        <ele>175.757004</ele>
        <time>2022-08-28T07:26:07Z</time>
      </trkpt>
      <trkpt lat="50.3106" lon="4.25334">
        <ele>175.479904</ele>
        <time>2022-08-28T07:26:09Z</time>
      </trkpt>
      <trkpt lat="50.31051" lon="4.25324">
        <ele>176.141327</ele>
        <time>2022-08-28T07:26:11Z</time>
      </trkpt>
      <trkpt lat="50.31043" lon="4.25315">
        <ele>176.305023</ele>
        <time>2022-08-28T07:26:13Z</time>
      </trkpt>
      <trkpt lat="50.31035" lon="4.25305">
        <ele>176.485382</ele>
        <time>2022-08-28T07:26:15Z</time>
      </trkpt>
      <trkpt lat="50.31028" lon="4.25293">
        <ele>176.485397</ele>
        <time>2022-08-28T07:26:17Z</time>
      </trkpt>
      <trkpt lat="50.31021" lon="4.25282">
        <ele>176.937546</ele>
        <time>2022-08-28T07:26:19Z</time>
      </trkpt>
      <trkpt lat="50.31014" lon="4.2527">
        <ele>177.108307</ele>
        <time>2022-08-28T07:26:21Z</time>
      </trkpt>
      <trkpt lat="50.31008" lon="4.25257">
        <ele>177.370651</ele>
        <time>2022-08-28T07:26:23Z</time>
      </trkpt>
      <trkpt lat="50.31002" lon="4.25244">
        <ele>177.729568</ele>
        <time>2022-08-28T07:26:25Z</time>
      </trkpt>
      <trkpt lat="50.30996" lon="4.25231">
        <ele>177.975128</ele>
        <time>2022-08-28T07:26:27Z</time>
      </trkpt>
      <trkpt lat="50.3099" lon="4.25219">
        <ele>177.723709</ele>
        <time>2022-08-28T07:26:29Z</time>
      </trkpt>
      <trkpt lat="50.30985" lon="4.25207">
        <ele>177.981171</ele>
        <time>2022-08-28T07:26:31Z</time>
      </trkpt>
      <trkpt lat="50.30978" lon="4.25194">
        <ele>178.304443</ele>
        <time>2022-08-28T07:26:33Z</time>
      </trkpt>
      <trkpt lat="50.30972" lon="4.25182">
        <ele>177.814957</ele>
        <time>2022-08-28T07:26:35Z</time>
      </trkpt>
      <trkpt lat="50.30966" lon="4.25171">
        <ele>178.136002</ele>
        <time>2022-08-28T07:26:37Z</time>
      </trkpt>
      <trkpt lat="50.30961" lon="4.25158">
        <ele>178.459259</ele>
        <time>2022-08-28T07:26:39Z</time>
      </trkpt>
      <trkpt lat="50.30954" lon="4.25147">
        <ele>178.11882</ele>
        <time>2022-08-28T07:26:41Z</time>
      </trkpt>
      <trkpt lat="50.30949" lon="4.25136">
        <ele>178.743729</ele>
        <time>2022-08-28T07:26:43Z</time>
      </trkpt>
      <trkpt lat="50.30943" lon="4.25125">
        <ele>179.041809</ele>
        <time>2022-08-28T07:26:45Z</time>
      </trkpt>
      <trkpt lat="50.30938" lon="4.25115">
        <ele>179.373459</ele>
        <time>2022-08-28T07:26:47Z</time>
      </trkpt>
      <trkpt lat="50.30933" lon="4.25107">
        <ele>179.95842</ele>
        <time>2022-08-28T07:26:49Z</time>
      </trkpt>
      <trkpt lat="50.30929" lon="4.25099">
        <ele>180.054993</ele>
        <time>2022-08-28T07:26:51Z</time>
      </trkpt>
      <trkpt lat="50.30925" lon="4.25091">
        <ele>179.603271</ele>
        <time>2022-08-28T07:26:53Z</time>
      </trkpt>
      <trkpt lat="50.30921" lon="4.25083">
        <ele>179.873993</ele>
        <time>2022-08-28T07:26:55Z</time>
      </trkpt>
      <trkpt lat="50.30914" lon="4.25076">
        <ele>179.901428</ele>
        <time>2022-08-28T07:26:57Z</time>
      </trkpt>
      <trkpt lat="50.30907" lon="4.25069">
        <ele>180.058807</ele>
        <time>2022-08-28T07:26:59Z</time>
      </trkpt>
      <trkpt lat="50.30899" lon="4.25063">
        <ele>179.983215</ele>
        <time>2022-08-28T07:27:01Z</time>
      </trkpt>
      <trkpt lat="50.30891" lon="4.25057">
        <ele>180.075577</ele>
        <time>2022-08-28T07:27:03Z</time>
      </trkpt>
      <trkpt lat="50.30883" lon="4.25052">
        <ele>180.025177</ele>
        <time>2022-08-28T07:27:05Z</time>
      </trkpt>
      <trkpt lat="50.30874" lon="4.25052">
        <ele>179.987396</ele>
        <time>2022-08-28T07:27:07Z</time>
      </trkpt>
      <trkpt lat="50.30865" lon="4.25057">
        <ele>180.151154</ele>
        <time>2022-08-28T07:27:09Z</time>
      </trkpt>
      <trkpt lat="50.30856" lon="4.25063">
        <ele>180.797134</ele>
        <time>2022-08-28T07:27:11Z</time>
      </trkpt>
      <trkpt lat="50.30847" lon="4.25069">
        <ele>180.844727</ele>
        <time>2022-08-28T07:27:13Z</time>
      </trkpt>
      <trkpt lat="50.30838" lon="4.25074">
        <ele>180.849884</ele>
        <time>2022-08-28T07:27:15Z</time>
      </trkpt>
      <trkpt lat="50.3083" lon="4.25078">
        <ele>181.181549</ele>
        <time>2022-08-28T07:27:17Z</time>
      </trkpt>
      <trkpt lat="50.3082" lon="4.25084">
        <ele>181.32222</ele>
        <time>2022-08-28T07:27:19Z</time>
      </trkpt>
      <trkpt lat="50.3081" lon="4.25092">
        <ele>181.372604</ele>
        <time>2022-08-28T07:27:21Z</time>
      </trkpt>
      <trkpt lat="50.30801" lon="4.25098">
        <ele>181.553192</ele>
        <time>2022-08-28T07:27:23Z</time>
      </trkpt>
      <trkpt lat="50.30792" lon="4.25104">
        <ele>181.681763</ele>
        <time>2022-08-28T07:27:25Z</time>
      </trkpt>
      <trkpt lat="50.30782" lon="4.25111">
        <ele>181.788879</ele>
        <time>2022-08-28T07:27:27Z</time>
      </trkpt>
      <trkpt lat="50.30773" lon="4.25115">
        <ele>182.187805</ele>
        <time>2022-08-28T07:27:29Z</time>
      </trkpt>
      <trkpt lat="50.30763" lon="4.25122">
        <ele>182.385178</ele>
        <time>2022-08-28T07:27:31Z</time>
      </trkpt>
      <trkpt lat="50.30753" lon="4.25129">
        <ele>182.557373</ele>
        <time>2022-08-28T07:27:33Z</time>
      </trkpt>
      <trkpt lat="50.30744" lon="4.25135">
        <ele>182.744278</ele>
        <time>2022-08-28T07:27:35Z</time>
      </trkpt>
      <trkpt lat="50.30734" lon="4.25142">
        <ele>182.962677</ele>
        <time>2022-08-28T07:27:37Z</time>
      </trkpt>
      <trkpt lat="50.30724" lon="4.25149">
        <ele>183.256638</ele>
        <time>2022-08-28T07:27:39Z</time>
      </trkpt>
      <trkpt lat="50.30714" lon="4.25155">
        <ele>183.548553</ele>
        <time>2022-08-28T07:27:41Z</time>
      </trkpt>
      <trkpt lat="50.30703" lon="4.25162">
        <ele>183.897171</ele>
        <time>2022-08-28T07:27:43Z</time>
      </trkpt>
      <trkpt lat="50.30694" lon="4.2517">
        <ele>184.159683</ele>
        <time>2022-08-28T07:27:45Z</time>
      </trkpt>
      <trkpt lat="50.30684" lon="4.25176">
        <ele>184.600739</ele>
        <time>2022-08-28T07:27:47Z</time>
      </trkpt>
      <trkpt lat="50.30675" lon="4.25182">
        <ele>185.06076</ele>
        <time>2022-08-28T07:27:49Z</time>
      </trkpt>
      <trkpt lat="50.30666" lon="4.25186">
        <ele>185.426239</ele>
        <time>2022-08-28T07:27:51Z</time>
      </trkpt>
      <trkpt lat="50.30656" lon="4.2519">
        <ele>186.070419</ele>
        <time>2022-08-28T07:27:53Z</time>
      </trkpt>
      <trkpt lat="50.30647" lon="4.25196">
        <ele>186.579849</ele>
        <time>2022-08-28T07:27:55Z</time>
      </trkpt>
      <trkpt lat="50.30637" lon="4.252">
        <ele>186.897263</ele>
        <time>2022-08-28T07:27:57Z</time>
      </trkpt>
      <trkpt lat="50.30628" lon="4.25207">
        <ele>187.344727</ele>
        <time>2022-08-28T07:27:59Z</time>
      </trkpt>
      <trkpt lat="50.30618" lon="4.25214">
        <ele>187.664017</ele>
        <time>2022-08-28T07:28:01Z</time>
      </trkpt>
      <trkpt lat="50.30608" lon="4.2522">
        <ele>187.785812</ele>
        <time>2022-08-28T07:28:03Z</time>
      </trkpt>
      <trkpt lat="50.306" lon="4.25226">
        <ele>188.142975</ele>
        <time>2022-08-28T07:28:05Z</time>
      </trkpt>
      <trkpt lat="50.30593" lon="4.25231">
        <ele>188.472244</ele>
        <time>2022-08-28T07:28:07Z</time>
      </trkpt>
      <trkpt lat="50.30582" lon="4.25237">
        <ele>188.510086</ele>
        <time>2022-08-28T07:28:09Z</time>
      </trkpt>
      <trkpt lat="50.30573" lon="4.25243">
        <ele>188.613007</ele>
        <time>2022-08-28T07:28:11Z</time>
      </trkpt>
      <trkpt lat="50.30563" lon="4.2525">
        <ele>188.760056</ele>
        <time>2022-08-28T07:28:13Z</time>
      </trkpt>
      <trkpt lat="50.30553" lon="4.25257">
        <ele>188.75798</ele>
        <time>2022-08-28T07:28:15Z</time>
      </trkpt>
      <trkpt lat="50.30544" lon="4.25265">
        <ele>188.678177</ele>
        <time>2022-08-28T07:28:17Z</time>
      </trkpt>
      <trkpt lat="50.30536" lon="4.25273">
        <ele>188.892502</ele>
        <time>2022-08-28T07:28:19Z</time>
      </trkpt>
      <trkpt lat="50.30526" lon="4.2528">
        <ele>189.016449</ele>
        <time>2022-08-28T07:28:21Z</time>
      </trkpt>
      <trkpt lat="50.30517" lon="4.25285">
        <ele>189.066895</ele>
        <time>2022-08-28T07:28:23Z</time>
      </trkpt>
      <trkpt lat="50.3051" lon="4.25288">
        <ele>188.970261</ele>
        <time>2022-08-28T07:28:25Z</time>
      </trkpt>
      <trkpt lat="50.30503" lon="4.25293">
        <ele>189.090012</ele>
        <time>2022-08-28T07:28:27Z</time>
      </trkpt>
      <trkpt lat="50.30493" lon="4.25301">
        <ele>188.907227</ele>
        <time>2022-08-28T07:28:29Z</time>
      </trkpt>
      <trkpt lat="50.30485" lon="4.25309">
        <ele>188.701294</ele>
        <time>2022-08-28T07:28:31Z</time>
      </trkpt>
      <trkpt lat="50.30476" lon="4.2532">
        <ele>188.552078</ele>
        <time>2022-08-28T07:28:33Z</time>
      </trkpt>
      <trkpt lat="50.3047" lon="4.25331">
        <ele>188.333542</ele>
        <time>2022-08-28T07:28:35Z</time>
      </trkpt>
      <trkpt lat="50.30464" lon="4.25345">
        <ele>188.176086</ele>
        <time>2022-08-28T07:28:37Z</time>
      </trkpt>
      <trkpt lat="50.30458" lon="4.25357">
        <ele>188.028458</ele>
        <time>2022-08-28T07:28:39Z</time>
      </trkpt>
      <trkpt lat="50.30451" lon="4.25369">
        <ele>188.013748</ele>
        <time>2022-08-28T07:28:41Z</time>
      </trkpt>
      <trkpt lat="50.30445" lon="4.25381">
        <ele>187.988525</ele>
        <time>2022-08-28T07:28:43Z</time>
      </trkpt>
      <trkpt lat="50.30439" lon="4.25393">
        <ele>187.98642</ele>
        <time>2022-08-28T07:28:45Z</time>
      </trkpt>
      <trkpt lat="50.30432" lon="4.25405">
        <ele>187.841446</ele>
        <time>2022-08-28T07:28:47Z</time>
      </trkpt>
      <trkpt lat="50.30426" lon="4.25417">
        <ele>187.765839</ele>
        <time>2022-08-28T07:28:49Z</time>
      </trkpt>
      <trkpt lat="50.30421" lon="4.25428">
        <ele>187.899475</ele>
        <time>2022-08-28T07:28:51Z</time>
      </trkpt>
      <trkpt lat="50.30414" lon="4.25439">
        <ele>187.818054</ele>
        <time>2022-08-28T07:28:53Z</time>
      </trkpt>
      <trkpt lat="50.30408" lon="4.2545">
        <ele>187.887314</ele>
        <time>2022-08-28T07:28:55Z</time>
      </trkpt>
      <trkpt lat="50.30402" lon="4.25462">
        <ele>188.201813</ele>
        <time>2022-08-28T07:28:57Z</time>
      </trkpt>
      <trkpt lat="50.30397" lon="4.25473">
        <ele>188.451859</ele>
        <time>2022-08-28T07:28:59Z</time>
      </trkpt>
      <trkpt lat="50.30391" lon="4.25484">
        <ele>188.45816</ele>
        <time>2022-08-28T07:29:01Z</time>
      </trkpt>
      <trkpt lat="50.30385" lon="4.25496">
        <ele>188.539154</ele>
        <time>2022-08-28T07:29:03Z</time>
      </trkpt>
      <trkpt lat="50.30379" lon="4.25506">
        <ele>188.606369</ele>
        <time>2022-08-28T07:29:05Z</time>
      </trkpt>
      <trkpt lat="50.30373" lon="4.25517">
        <ele>188.667633</ele>
        <time>2022-08-28T07:29:07Z</time>
      </trkpt>
      <trkpt lat="50.30368" lon="4.25527">
        <ele>188.799896</ele>
        <time>2022-08-28T07:29:09Z</time>
      </trkpt>
      <trkpt lat="50.30362" lon="4.25537">
        <ele>188.858704</ele>
        <time>2022-08-28T07:29:11Z</time>
      </trkpt>
      <trkpt lat="50.30358" lon="4.25546">
        <ele>188.904922</ele>
        <time>2022-08-28T07:29:13Z</time>
      </trkpt>
      <trkpt lat="50.30353" lon="4.25554">
        <ele>189.018707</ele>
        <time>2022-08-28T07:29:15Z</time>
      </trkpt>
      <trkpt lat="50.30351" lon="4.25561">
        <ele>189.159332</ele>
        <time>2022-08-28T07:29:17Z</time>
      </trkpt>
      <trkpt lat="50.30349" lon="4.25568">
        <ele>189.352951</ele>
        <time>2022-08-28T07:29:19Z</time>
      </trkpt>
      <trkpt lat="50.30347" lon="4.25572">
        <ele>189.682861</ele>
        <time>2022-08-28T07:29:25Z</time>
      </trkpt>
      <trkpt lat="50.30344" lon="4.25573">
        <ele>189.905594</ele>
        <time>2022-08-28T07:29:27Z</time>
      </trkpt>
      <trkpt lat="50.30342" lon="4.25575">
        <ele>190.056854</ele>
        <time>2022-08-28T07:29:29Z</time>
      </trkpt>
      <trkpt lat="50.3034" lon="4.25577">
        <ele>190.354782</ele>
        <time>2022-08-28T07:29:31Z</time>
      </trkpt>
      <trkpt lat="50.30338" lon="4.2558">
        <ele>190.58252</ele>
        <time>2022-08-28T07:29:33Z</time>
      </trkpt>
      <trkpt lat="50.30336" lon="4.2559">
        <ele>189.961182</ele>
        <time>2022-08-28T07:33:07Z</time>
      </trkpt>
      <trkpt lat="50.30334" lon="4.25599">
        <ele>190.023148</ele>
        <time>2022-08-28T07:33:09Z</time>
      </trkpt>
      <trkpt lat="50.3033" lon="4.25605">
        <ele>190.077789</ele>
        <time>2022-08-28T07:33:11Z</time>
      </trkpt>
      <trkpt lat="50.30326" lon="4.25612">
        <ele>190.100891</ele>
        <time>2022-08-28T07:33:13Z</time>
      </trkpt>
      <trkpt lat="50.30322" lon="4.25621">
        <ele>190.227005</ele>
        <time>2022-08-28T07:33:15Z</time>
      </trkpt>
      <trkpt lat="50.30319" lon="4.25629">
        <ele>190.317368</ele>
        <time>2022-08-28T07:33:17Z</time>
      </trkpt>
      <trkpt lat="50.30314" lon="4.25637">
        <ele>190.264847</ele>
        <time>2022-08-28T07:33:19Z</time>
      </trkpt>
      <trkpt lat="50.30309" lon="4.25645">
        <ele>190.34259</ele>
        <time>2022-08-28T07:33:21Z</time>
      </trkpt>
      <trkpt lat="50.30304" lon="4.25655">
        <ele>190.318558</ele>
        <time>2022-08-28T07:33:23Z</time>
      </trkpt>
      <trkpt lat="50.30299" lon="4.25663">
        <ele>190.366394</ele>
        <time>2022-08-28T07:33:25Z</time>
      </trkpt>
      <trkpt lat="50.30294" lon="4.25671">
        <ele>190.481445</ele>
        <time>2022-08-28T07:33:27Z</time>
      </trkpt>
      <trkpt lat="50.3029" lon="4.25679">
        <ele>190.588623</ele>
        <time>2022-08-28T07:33:29Z</time>
      </trkpt>
      <trkpt lat="50.30285" lon="4.25689">
        <ele>190.794586</ele>
        <time>2022-08-28T07:33:31Z</time>
      </trkpt>
      <trkpt lat="50.3028" lon="4.25699">
        <ele>190.945786</ele>
        <time>2022-08-28T07:33:33Z</time>
      </trkpt>
      <trkpt lat="50.30276" lon="4.25708">
        <ele>190.960495</ele>
        <time>2022-08-28T07:33:35Z</time>
      </trkpt>
      <trkpt lat="50.30272" lon="4.25717">
        <ele>191.134918</ele>
        <time>2022-08-28T07:33:37Z</time>
      </trkpt>
      <trkpt lat="50.30267" lon="4.25727">
        <ele>191.200089</ele>
        <time>2022-08-28T07:33:39Z</time>
      </trkpt>
      <trkpt lat="50.30262" lon="4.25733">
        <ele>191.456512</ele>
        <time>2022-08-28T07:33:41Z</time>
      </trkpt>
      <trkpt lat="50.30256" lon="4.25744">
        <ele>191.72554</ele>
        <time>2022-08-28T07:33:43Z</time>
      </trkpt>
      <trkpt lat="50.3025" lon="4.25752">
        <ele>192.055542</ele>
        <time>2022-08-28T07:33:45Z</time>
      </trkpt>
      <trkpt lat="50.30244" lon="4.25761">
        <ele>192.272018</ele>
        <time>2022-08-28T07:33:47Z</time>
      </trkpt>
      <trkpt lat="50.30238" lon="4.25772">
        <ele>192.494949</ele>
        <time>2022-08-28T07:33:49Z</time>
      </trkpt>
      <trkpt lat="50.30231" lon="4.25783">
        <ele>192.681152</ele>
        <time>2022-08-28T07:33:51Z</time>
      </trkpt>
      <trkpt lat="50.30225" lon="4.25793">
        <ele>192.836685</ele>
        <time>2022-08-28T07:33:53Z</time>
      </trkpt>
      <trkpt lat="50.3022" lon="4.25802">
        <ele>192.979599</ele>
        <time>2022-08-28T07:33:55Z</time>
      </trkpt>
      <trkpt lat="50.30214" lon="4.2581">
        <ele>193.009033</ele>
        <time>2022-08-28T07:33:57Z</time>
      </trkpt>
      <trkpt lat="50.30211" lon="4.25819">
        <ele>193.233932</ele>
        <time>2022-08-28T07:33:59Z</time>
      </trkpt>
      <trkpt lat="50.30206" lon="4.25829">
        <ele>193.045074</ele>
        <time>2022-08-28T07:34:01Z</time>
      </trkpt>
      <trkpt lat="50.302" lon="4.25839">
        <ele>193.156479</ele>
        <time>2022-08-28T07:34:03Z</time>
      </trkpt>
      <trkpt lat="50.30195" lon="4.2585">
        <ele>193.379272</ele>
        <time>2022-08-28T07:34:05Z</time>
      </trkpt>
      <trkpt lat="50.30188" lon="4.25862">
        <ele>193.570541</ele>
        <time>2022-08-28T07:34:07Z</time>
      </trkpt>
      <trkpt lat="50.30182" lon="4.25874">
        <ele>193.904831</ele>
        <time>2022-08-28T07:34:09Z</time>
      </trkpt>
      <trkpt lat="50.30175" lon="4.25885">
        <ele>194.093384</ele>
        <time>2022-08-28T07:34:11Z</time>
      </trkpt>
      <trkpt lat="50.30167" lon="4.25899">
        <ele>194.312149</ele>
        <time>2022-08-28T07:34:13Z</time>
      </trkpt>
      <trkpt lat="50.3016" lon="4.25913">
        <ele>194.528656</ele>
        <time>2022-08-28T07:34:15Z</time>
      </trkpt>
      <trkpt lat="50.30154" lon="4.25925">
        <ele>194.346115</ele>
        <time>2022-08-28T07:34:17Z</time>
      </trkpt>
      <trkpt lat="50.30148" lon="4.25936">
        <ele>194.695038</ele>
        <time>2022-08-28T07:34:19Z</time>
      </trkpt>
      <trkpt lat="50.30145" lon="4.25941">
        <ele>194.742401</ele>
        <time>2022-08-28T07:34:21Z</time>
      </trkpt>
      <trkpt lat="50.30139" lon="4.25951">
        <ele>194.748718</ele>
        <time>2022-08-28T07:34:22Z</time>
      </trkpt>
      <trkpt lat="50.30131" lon="4.25963">
        <ele>194.757126</ele>
        <time>2022-08-28T07:34:25Z</time>
      </trkpt>
      <trkpt lat="50.30124" lon="4.25976">
        <ele>194.866409</ele>
        <time>2022-08-28T07:34:27Z</time>
      </trkpt>
      <trkpt lat="50.30117" lon="4.25987">
        <ele>194.897949</ele>
        <time>2022-08-28T07:34:29Z</time>
      </trkpt>
      <trkpt lat="50.30109" lon="4.25999">
        <ele>194.991425</ele>
        <time>2022-08-28T07:34:31Z</time>
      </trkpt>
      <trkpt lat="50.30101" lon="4.26013">
        <ele>195.034317</ele>
        <time>2022-08-28T07:34:33Z</time>
      </trkpt>
      <trkpt lat="50.30094" lon="4.26027">
        <ele>195.114212</ele>
        <time>2022-08-28T07:34:35Z</time>
      </trkpt>
      <trkpt lat="50.30089" lon="4.2604">
        <ele>195.385376</ele>
        <time>2022-08-28T07:34:37Z</time>
      </trkpt>
      <trkpt lat="50.30082" lon="4.26052">
        <ele>195.397995</ele>
        <time>2022-08-28T07:34:39Z</time>
      </trkpt>
      <trkpt lat="50.30074" lon="4.26064">
        <ele>195.395905</ele>
        <time>2022-08-28T07:34:41Z</time>
      </trkpt>
      <trkpt lat="50.30067" lon="4.26076">
        <ele>195.853806</ele>
        <time>2022-08-28T07:34:43Z</time>
      </trkpt>
      <trkpt lat="50.3006" lon="4.26088">
        <ele>195.876923</ele>
        <time>2022-08-28T07:34:45Z</time>
      </trkpt>
      <trkpt lat="50.30054" lon="4.26101">
        <ele>195.893753</ele>
        <time>2022-08-28T07:34:47Z</time>
      </trkpt>
      <trkpt lat="50.30047" lon="4.26115">
        <ele>195.866409</ele>
        <time>2022-08-28T07:34:49Z</time>
      </trkpt>
      <trkpt lat="50.30043" lon="4.26126">
        <ele>195.80069</ele>
        <time>2022-08-28T07:34:51Z</time>
      </trkpt>
      <trkpt lat="50.30036" lon="4.26136">
        <ele>195.768921</ele>
        <time>2022-08-28T07:34:53Z</time>
      </trkpt>
      <trkpt lat="50.30032" lon="4.26146">
        <ele>195.703751</ele>
        <time>2022-08-28T07:34:55Z</time>
      </trkpt>
      <trkpt lat="50.30026" lon="4.26156">
        <ele>196.231064</ele>
        <time>2022-08-28T07:34:57Z</time>
      </trkpt>
      <trkpt lat="50.30019" lon="4.26169">
        <ele>196.249985</ele>
        <time>2022-08-28T07:34:59Z</time>
      </trkpt>
      <trkpt lat="50.30013" lon="4.26182">
        <ele>196.22995</ele>
        <time>2022-08-28T07:35:01Z</time>
      </trkpt>
      <trkpt lat="50.30008" lon="4.26192">
        <ele>196.093307</ele>
        <time>2022-08-28T07:35:03Z</time>
      </trkpt>
      <trkpt lat="50.30002" lon="4.26206">
        <ele>196.745499</ele>
        <time>2022-08-28T07:35:05Z</time>
      </trkpt>
      <trkpt lat="50.29996" lon="4.26218">
        <ele>197.410538</ele>
        <time>2022-08-28T07:35:07Z</time>
      </trkpt>
      <trkpt lat="50.29992" lon="4.2623">
        <ele>197.479919</ele>
        <time>2022-08-28T07:35:09Z</time>
      </trkpt>
      <trkpt lat="50.29989" lon="4.26243">
        <ele>197.456802</ele>
        <time>2022-08-28T07:35:11Z</time>
      </trkpt>
      <trkpt lat="50.29987" lon="4.26255">
        <ele>197.435776</ele>
        <time>2022-08-28T07:35:13Z</time>
      </trkpt>
      <trkpt lat="50.29986" lon="4.26272">
        <ele>197.46521</ele>
        <time>2022-08-28T07:35:15Z</time>
      </trkpt>
      <trkpt lat="50.29982" lon="4.26287">
        <ele>197.381134</ele>
        <time>2022-08-28T07:35:17Z</time>
      </trkpt>
      <trkpt lat="50.29981" lon="4.26304">
        <ele>197.262604</ele>
        <time>2022-08-28T07:35:19Z</time>
      </trkpt>
      <trkpt lat="50.29978" lon="4.2632">
        <ele>197.216354</ele>
        <time>2022-08-28T07:35:21Z</time>
      </trkpt>
      <trkpt lat="50.29976" lon="4.26336">
        <ele>197.174301</ele>
        <time>2022-08-28T07:35:23Z</time>
      </trkpt>
      <trkpt lat="50.2997" lon="4.26351">
        <ele>197.247894</ele>
        <time>2022-08-28T07:35:25Z</time>
      </trkpt>
      <trkpt lat="50.29968" lon="4.26368">
        <ele>197.25</ele>
        <time>2022-08-28T07:35:27Z</time>
      </trkpt>
      <trkpt lat="50.29967" lon="4.26385">
        <ele>197.285736</ele>
        <time>2022-08-28T07:35:29Z</time>
      </trkpt>
      <trkpt lat="50.29964" lon="4.26401">
        <ele>197.246338</ele>
        <time>2022-08-28T07:35:31Z</time>
      </trkpt>
      <trkpt lat="50.29964" lon="4.26415">
        <ele>197.345184</ele>
        <time>2022-08-28T07:35:33Z</time>
      </trkpt>
      <trkpt lat="50.29961" lon="4.26427">
        <ele>197.347809</ele>
        <time>2022-08-28T07:35:35Z</time>
      </trkpt>
      <trkpt lat="50.29961" lon="4.2644">
        <ele>196.895844</ele>
        <time>2022-08-28T07:35:37Z</time>
      </trkpt>
      <trkpt lat="50.29958" lon="4.26453">
        <ele>196.881149</ele>
        <time>2022-08-28T07:35:39Z</time>
      </trkpt>
      <trkpt lat="50.29956" lon="4.2647">
        <ele>196.649567</ele>
        <time>2022-08-28T07:35:41Z</time>
      </trkpt>
      <trkpt lat="50.29955" lon="4.2649">
        <ele>196.554688</ele>
        <time>2022-08-28T07:35:43Z</time>
      </trkpt>
      <trkpt lat="50.29953" lon="4.26507">
        <ele>196.514923</ele>
        <time>2022-08-28T07:35:45Z</time>
      </trkpt>
      <trkpt lat="50.29952" lon="4.26524">
        <ele>195.752533</ele>
        <time>2022-08-28T07:35:47Z</time>
      </trkpt>
      <trkpt lat="50.2995" lon="4.26541">
        <ele>194.9263</ele>
        <time>2022-08-28T07:35:49Z</time>
      </trkpt>
      <trkpt lat="50.29948" lon="4.26559">
        <ele>194.831543</ele>
        <time>2022-08-28T07:35:51Z</time>
      </trkpt>
      <trkpt lat="50.29946" lon="4.26576">
        <ele>194.720505</ele>
        <time>2022-08-28T07:35:53Z</time>
      </trkpt>
      <trkpt lat="50.29946" lon="4.26594">
        <ele>194.667892</ele>
        <time>2022-08-28T07:35:55Z</time>
      </trkpt>
      <trkpt lat="50.29947" lon="4.26612">
        <ele>194.417725</ele>
        <time>2022-08-28T07:35:57Z</time>
      </trkpt>
      <trkpt lat="50.29945" lon="4.2663">
        <ele>194.430344</ele>
        <time>2022-08-28T07:35:59Z</time>
      </trkpt>
      <trkpt lat="50.29943" lon="4.26649">
        <ele>194.475311</ele>
        <time>2022-08-28T07:36:01Z</time>
      </trkpt>
      <trkpt lat="50.2994" lon="4.26665">
        <ele>194.378616</ele>
        <time>2022-08-28T07:36:03Z</time>
      </trkpt>
      <trkpt lat="50.29937" lon="4.26681">
        <ele>194.298706</ele>
        <time>2022-08-28T07:36:05Z</time>
      </trkpt>
      <trkpt lat="50.29936" lon="4.26697">
        <ele>194.16626</ele>
        <time>2022-08-28T07:36:07Z</time>
      </trkpt>
      <trkpt lat="50.29935" lon="4.26712">
        <ele>194.113693</ele>
        <time>2022-08-28T07:36:09Z</time>
      </trkpt>
      <trkpt lat="50.29934" lon="4.2673">
        <ele>193.972824</ele>
        <time>2022-08-28T07:36:11Z</time>
      </trkpt>
      <trkpt lat="50.29932" lon="4.26748">
        <ele>193.754272</ele>
        <time>2022-08-28T07:36:13Z</time>
      </trkpt>
      <trkpt lat="50.29933" lon="4.26765">
        <ele>193.510376</ele>
        <time>2022-08-28T07:36:15Z</time>
      </trkpt>
      <trkpt lat="50.29933" lon="4.26779">
        <ele>193.477081</ele>
        <time>2022-08-28T07:36:17Z</time>
      </trkpt>
      <trkpt lat="50.2993" lon="4.26789">
        <ele>193.565338</ele>
        <time>2022-08-28T07:36:19Z</time>
      </trkpt>
      <trkpt lat="50.29929" lon="4.26803">
        <ele>193.632614</ele>
        <time>2022-08-28T07:36:21Z</time>
      </trkpt>
      <trkpt lat="50.29929" lon="4.26818">
        <ele>193.672821</ele>
        <time>2022-08-28T07:36:23Z</time>
      </trkpt>
      <trkpt lat="50.29929" lon="4.2683">
        <ele>193.618454</ele>
        <time>2022-08-28T07:36:25Z</time>
      </trkpt>
      <trkpt lat="50.29929" lon="4.26846">
        <ele>193.631058</ele>
        <time>2022-08-28T07:36:27Z</time>
      </trkpt>
      <trkpt lat="50.29926" lon="4.26859">
        <ele>193.511993</ele>
        <time>2022-08-28T07:36:29Z</time>
      </trkpt>
      <trkpt lat="50.29926" lon="4.26873">
        <ele>193.546555</ele>
        <time>2022-08-28T07:36:31Z</time>
      </trkpt>
      <trkpt lat="50.29926" lon="4.26891">
        <ele>193.632904</ele>
        <time>2022-08-28T07:36:33Z</time>
      </trkpt>
      <trkpt lat="50.29924" lon="4.26911">
        <ele>193.57576</ele>
        <time>2022-08-28T07:36:35Z</time>
      </trkpt>
      <trkpt lat="50.29923" lon="4.26929">
        <ele>193.619949</ele>
        <time>2022-08-28T07:36:37Z</time>
      </trkpt>
      <trkpt lat="50.29928" lon="4.26951">
        <ele>193.682983</ele>
        <time>2022-08-28T07:36:39Z</time>
      </trkpt>
      <trkpt lat="50.29934" lon="4.26972">
        <ele>193.743942</ele>
        <time>2022-08-28T07:36:41Z</time>
      </trkpt>
      <trkpt lat="50.29939" lon="4.26991">
        <ele>193.472778</ele>
        <time>2022-08-28T07:36:43Z</time>
      </trkpt>
      <trkpt lat="50.29942" lon="4.27011">
        <ele>193.426559</ele>
        <time>2022-08-28T07:36:45Z</time>
      </trkpt>
      <trkpt lat="50.29946" lon="4.27027">
        <ele>193.357208</ele>
        <time>2022-08-28T07:36:47Z</time>
      </trkpt>
      <trkpt lat="50.29949" lon="4.27043">
        <ele>193.163849</ele>
        <time>2022-08-28T07:36:49Z</time>
      </trkpt>
      <trkpt lat="50.29953" lon="4.27057">
        <ele>193.104614</ele>
        <time>2022-08-28T07:36:51Z</time>
      </trkpt>
      <trkpt lat="50.29956" lon="4.2707">
        <ele>193.068878</ele>
        <time>2022-08-28T07:36:53Z</time>
      </trkpt>
      <trkpt lat="50.29958" lon="4.2708">
        <ele>193.045731</ele>
        <time>2022-08-28T07:36:55Z</time>
      </trkpt>
      <trkpt lat="50.2996" lon="4.27088">
        <ele>192.946945</ele>
        <time>2022-08-28T07:36:57Z</time>
      </trkpt>
      <trkpt lat="50.29958" lon="4.27095">
        <ele>192.86499</ele>
        <time>2022-08-28T07:36:59Z</time>
      </trkpt>
      <trkpt lat="50.29954" lon="4.27098">
        <ele>192.684235</ele>
        <time>2022-08-28T07:37:01Z</time>
      </trkpt>
      <trkpt lat="50.29947" lon="4.27095">
        <ele>192.375275</ele>
        <time>2022-08-28T07:37:03Z</time>
      </trkpt>
      <trkpt lat="50.2994" lon="4.27092">
        <ele>192.160934</ele>
        <time>2022-08-28T07:37:05Z</time>
      </trkpt>
      <trkpt lat="50.29933" lon="4.27088">
        <ele>192.043243</ele>
        <time>2022-08-28T07:37:07Z</time>
      </trkpt>
      <trkpt lat="50.29925" lon="4.27085">
        <ele>192.128464</ele>
        <time>2022-08-28T07:37:09Z</time>
      </trkpt>
      <trkpt lat="50.29917" lon="4.2708">
        <ele>191.710892</ele>
        <time>2022-08-28T07:37:11Z</time>
      </trkpt>
      <trkpt lat="50.29909" lon="4.27076">
        <ele>191.460693</ele>
        <time>2022-08-28T07:37:13Z</time>
      </trkpt>
      <trkpt lat="50.29902" lon="4.27072">
        <ele>191.055145</ele>
        <time>2022-08-28T07:37:15Z</time>
      </trkpt>
      <trkpt lat="50.29894" lon="4.27068">
        <ele>190.609711</ele>
        <time>2022-08-28T07:37:17Z</time>
      </trkpt>
      <trkpt lat="50.29887" lon="4.27064">
        <ele>190.14328</ele>
        <time>2022-08-28T07:37:19Z</time>
      </trkpt>
      <trkpt lat="50.29879" lon="4.2706">
        <ele>189.737717</ele>
        <time>2022-08-28T07:37:21Z</time>
      </trkpt>
      <trkpt lat="50.29871" lon="4.27055">
        <ele>189.397369</ele>
        <time>2022-08-28T07:37:23Z</time>
      </trkpt>
      <trkpt lat="50.29863" lon="4.27051">
        <ele>188.970856</ele>
        <time>2022-08-28T07:37:25Z</time>
      </trkpt>
      <trkpt lat="50.29854" lon="4.27047">
        <ele>188.630493</ele>
        <time>2022-08-28T07:37:27Z</time>
      </trkpt>
      <trkpt lat="50.29846" lon="4.27042">
        <ele>188.279678</ele>
        <time>2022-08-28T07:37:29Z</time>
      </trkpt>
      <trkpt lat="50.29837" lon="4.27038">
        <ele>187.867889</ele>
        <time>2022-08-28T07:37:31Z</time>
      </trkpt>
      <trkpt lat="50.29829" lon="4.27034">
        <ele>187.510529</ele>
        <time>2022-08-28T07:37:33Z</time>
      </trkpt>
      <trkpt lat="50.2982" lon="4.27029">
        <ele>187.094604</ele>
        <time>2022-08-28T07:37:35Z</time>
      </trkpt>
      <trkpt lat="50.29812" lon="4.27025">
        <ele>186.657684</ele>
        <time>2022-08-28T07:37:37Z</time>
      </trkpt>
      <trkpt lat="50.29802" lon="4.27021">
        <ele>186.519043</ele>
        <time>2022-08-28T07:37:39Z</time>
      </trkpt>
      <trkpt lat="50.29794" lon="4.27017">
        <ele>186.011993</ele>
        <time>2022-08-28T07:37:41Z</time>
      </trkpt>
      <trkpt lat="50.29784" lon="4.27013">
        <ele>185.804047</ele>
        <time>2022-08-28T07:37:43Z</time>
      </trkpt>
      <trkpt lat="50.29776" lon="4.27008">
        <ele>185.356735</ele>
        <time>2022-08-28T07:37:45Z</time>
      </trkpt>
      <trkpt lat="50.29767" lon="4.27003">
        <ele>185.016296</ele>
        <time>2022-08-28T07:37:47Z</time>
      </trkpt>
      <trkpt lat="50.29757" lon="4.26999">
        <ele>184.648666</ele>
        <time>2022-08-28T07:37:49Z</time>
      </trkpt>
      <trkpt lat="50.29748" lon="4.26994">
        <ele>184.496185</ele>
        <time>2022-08-28T07:37:51Z</time>
      </trkpt>
      <trkpt lat="50.29738" lon="4.2699">
        <ele>184.17482</ele>
        <time>2022-08-28T07:37:53Z</time>
      </trkpt>
      <trkpt lat="50.29729" lon="4.26985">
        <ele>183.918686</ele>
        <time>2022-08-28T07:37:55Z</time>
      </trkpt>
      <trkpt lat="50.29719" lon="4.2698">
        <ele>183.792694</ele>
        <time>2022-08-28T07:37:57Z</time>
      </trkpt>
      <trkpt lat="50.2971" lon="4.26974">
        <ele>183.519684</ele>
        <time>2022-08-28T07:37:59Z</time>
      </trkpt>
      <trkpt lat="50.29701" lon="4.26968">
        <ele>183.378998</ele>
        <time>2022-08-28T07:38:01Z</time>
      </trkpt>
      <trkpt lat="50.29691" lon="4.26963">
        <ele>183.244537</ele>
        <time>2022-08-28T07:38:03Z</time>
      </trkpt>
      <trkpt lat="50.29681" lon="4.26957">
        <ele>183.236145</ele>
        <time>2022-08-28T07:38:05Z</time>
      </trkpt>
      <trkpt lat="50.29672" lon="4.26952">
        <ele>183.045074</ele>
        <time>2022-08-28T07:38:07Z</time>
      </trkpt>
      <trkpt lat="50.2966" lon="4.26946">
        <ele>182.840546</ele>
        <time>2022-08-28T07:38:09Z</time>
      </trkpt>
      <trkpt lat="50.29649" lon="4.26941">
        <ele>182.848953</ele>
        <time>2022-08-28T07:38:11Z</time>
      </trkpt>
      <trkpt lat="50.29638" lon="4.26935">
        <ele>182.658417</ele>
        <time>2022-08-28T07:38:13Z</time>
      </trkpt>
      <trkpt lat="50.29625" lon="4.26929">
        <ele>182.748734</ele>
        <time>2022-08-28T07:38:15Z</time>
      </trkpt>
      <trkpt lat="50.29614" lon="4.26924">
        <ele>182.624878</ele>
        <time>2022-08-28T07:38:17Z</time>
      </trkpt>
      <trkpt lat="50.29602" lon="4.26918">
        <ele>182.57869</ele>
        <time>2022-08-28T07:38:19Z</time>
      </trkpt>
      <trkpt lat="50.29591" lon="4.26913">
        <ele>182.518311</ele>
        <time>2022-08-28T07:38:21Z</time>
      </trkpt>
      <trkpt lat="50.2958" lon="4.26907">
        <ele>182.599808</ele>
        <time>2022-08-28T07:38:23Z</time>
      </trkpt>
      <trkpt lat="50.29569" lon="4.26901">
        <ele>182.737335</ele>
        <time>2022-08-28T07:38:25Z</time>
      </trkpt>
      <trkpt lat="50.29558" lon="4.26895">
        <ele>182.641724</ele>
        <time>2022-08-28T07:38:27Z</time>
      </trkpt>
      <trkpt lat="50.29547" lon="4.26889">
        <ele>182.503906</ele>
        <time>2022-08-28T07:38:29Z</time>
      </trkpt>
      <trkpt lat="50.29536" lon="4.26883">
        <ele>182.436279</ele>
        <time>2022-08-28T07:38:31Z</time>
      </trkpt>
      <trkpt lat="50.29525" lon="4.26876">
        <ele>182.236374</ele>
        <time>2022-08-28T07:38:33Z</time>
      </trkpt>
      <trkpt lat="50.29513" lon="4.26868">
        <ele>182.049561</ele>
        <time>2022-08-28T07:38:35Z</time>
      </trkpt>
      <trkpt lat="50.29502" lon="4.26861">
        <ele>181.598175</ele>
        <time>2022-08-28T07:38:37Z</time>
      </trkpt>
      <trkpt lat="50.2949" lon="4.26854">
        <ele>181.474319</ele>
        <time>2022-08-28T07:38:39Z</time>
      </trkpt>
      <trkpt lat="50.29479" lon="4.2685">
        <ele>181.165771</ele>
        <time>2022-08-28T07:38:41Z</time>
      </trkpt>
      <trkpt lat="50.29466" lon="4.26849">
        <ele>180.926514</ele>
        <time>2022-08-28T07:38:43Z</time>
      </trkpt>
      <trkpt lat="50.29454" lon="4.26849">
        <ele>180.670441</ele>
        <time>2022-08-28T07:38:45Z</time>
      </trkpt>
      <trkpt lat="50.29442" lon="4.26849">
        <ele>180.512939</ele>
        <time>2022-08-28T07:38:47Z</time>
      </trkpt>
      <trkpt lat="50.2943" lon="4.26848">
        <ele>180.334518</ele>
        <time>2022-08-28T07:38:49Z</time>
      </trkpt>
      <trkpt lat="50.29419" lon="4.26845">
        <ele>180.17157</ele>
        <time>2022-08-28T07:38:51Z</time>
      </trkpt>
      <trkpt lat="50.29407" lon="4.26841">
        <ele>180.062393</ele>
        <time>2022-08-28T07:38:53Z</time>
      </trkpt>
      <trkpt lat="50.29396" lon="4.26836">
        <ele>179.946991</ele>
        <time>2022-08-28T07:38:55Z</time>
      </trkpt>
      <trkpt lat="50.29384" lon="4.26831">
        <ele>179.522873</ele>
        <time>2022-08-28T07:38:57Z</time>
      </trkpt>
      <trkpt lat="50.29372" lon="4.26825">
        <ele>179.905273</ele>
        <time>2022-08-28T07:38:59Z</time>
      </trkpt>
      <trkpt lat="50.29361" lon="4.26819">
        <ele>179.397339</ele>
        <time>2022-08-28T07:39:01Z</time>
      </trkpt>
      <trkpt lat="50.29349" lon="4.26814">
        <ele>178.986084</ele>
        <time>2022-08-28T07:39:03Z</time>
      </trkpt>
      <trkpt lat="50.29336" lon="4.26809">
        <ele>178.778702</ele>
        <time>2022-08-28T07:39:05Z</time>
      </trkpt>
      <trkpt lat="50.29324" lon="4.26803">
        <ele>178.507782</ele>
        <time>2022-08-28T07:39:07Z</time>
      </trkpt>
      <trkpt lat="50.29312" lon="4.26797">
        <ele>178.845154</ele>
        <time>2022-08-28T07:39:09Z</time>
      </trkpt>
      <trkpt lat="50.293" lon="4.26792">
        <ele>178.508698</ele>
        <time>2022-08-28T07:39:11Z</time>
      </trkpt>
      <trkpt lat="50.29289" lon="4.26786">
        <ele>178.380768</ele>
        <time>2022-08-28T07:39:13Z</time>
      </trkpt>
      <trkpt lat="50.29277" lon="4.2678">
        <ele>178.141907</ele>
        <time>2022-08-28T07:39:15Z</time>
      </trkpt>
      <trkpt lat="50.29266" lon="4.26775">
        <ele>178.052704</ele>
        <time>2022-08-28T07:39:17Z</time>
      </trkpt>
      <trkpt lat="50.29255" lon="4.2677">
        <ele>178.023346</ele>
        <time>2022-08-28T07:39:19Z</time>
      </trkpt>
      <trkpt lat="50.29244" lon="4.26766">
        <ele>177.98764</ele>
        <time>2022-08-28T07:39:21Z</time>
      </trkpt>
      <trkpt lat="50.29234" lon="4.26761">
        <ele>177.920486</ele>
        <time>2022-08-28T07:39:23Z</time>
      </trkpt>
      <trkpt lat="50.29224" lon="4.26756">
        <ele>177.601501</ele>
        <time>2022-08-28T07:39:25Z</time>
      </trkpt>
      <trkpt lat="50.29215" lon="4.26752">
        <ele>177.513367</ele>
        <time>2022-08-28T07:39:27Z</time>
      </trkpt>
      <trkpt lat="50.29206" lon="4.26749">
        <ele>177.152451</ele>
        <time>2022-08-28T07:39:29Z</time>
      </trkpt>
      <trkpt lat="50.29195" lon="4.26749">
        <ele>176.971298</ele>
        <time>2022-08-28T07:39:31Z</time>
      </trkpt>
      <trkpt lat="50.29185" lon="4.26749">
        <ele>176.698868</ele>
        <time>2022-08-28T07:39:33Z</time>
      </trkpt>
      <trkpt lat="50.29174" lon="4.26749">
        <ele>177.081146</ele>
        <time>2022-08-28T07:39:35Z</time>
      </trkpt>
      <trkpt lat="50.29165" lon="4.26748">
        <ele>177.001404</ele>
        <time>2022-08-28T07:39:37Z</time>
      </trkpt>
      <trkpt lat="50.29154" lon="4.26748">
        <ele>176.400742</ele>
        <time>2022-08-28T07:39:39Z</time>
      </trkpt>
      <trkpt lat="50.29143" lon="4.26748">
        <ele>176.463654</ele>
        <time>2022-08-28T07:39:41Z</time>
      </trkpt>
      <trkpt lat="50.29133" lon="4.26748">
        <ele>176.243347</ele>
        <time>2022-08-28T07:39:43Z</time>
      </trkpt>
      <trkpt lat="50.29123" lon="4.26748">
        <ele>176.14267</ele>
        <time>2022-08-28T07:39:45Z</time>
      </trkpt>
      <trkpt lat="50.29113" lon="4.26748">
        <ele>176.493546</ele>
        <time>2022-08-28T07:39:47Z</time>
      </trkpt>
      <trkpt lat="50.29103" lon="4.26748">
        <ele>176.161118</ele>
        <time>2022-08-28T07:39:49Z</time>
      </trkpt>
      <trkpt lat="50.29093" lon="4.26748">
        <ele>175.590439</ele>
        <time>2022-08-28T07:39:51Z</time>
      </trkpt>
      <trkpt lat="50.29083" lon="4.26747">
        <ele>175.614655</ele>
        <time>2022-08-28T07:39:53Z</time>
      </trkpt>
      <trkpt lat="50.29073" lon="4.26747">
        <ele>175.534927</ele>
        <time>2022-08-28T07:39:55Z</time>
      </trkpt>
      <trkpt lat="50.29063" lon="4.26746">
        <ele>175.579041</ele>
        <time>2022-08-28T07:39:57Z</time>
      </trkpt>
      <trkpt lat="50.29053" lon="4.26745">
        <ele>175.508774</ele>
        <time>2022-08-28T07:39:59Z</time>
      </trkpt>
      <trkpt lat="50.29043" lon="4.26744">
        <ele>175.049347</ele>
        <time>2022-08-28T07:40:01Z</time>
      </trkpt>
      <trkpt lat="50.29033" lon="4.26743">
        <ele>174.78093</ele>
        <time>2022-08-28T07:40:03Z</time>
      </trkpt>
      <trkpt lat="50.29023" lon="4.26742">
        <ele>174.883759</ele>
        <time>2022-08-28T07:40:05Z</time>
      </trkpt>
      <trkpt lat="50.29013" lon="4.26741">
        <ele>175.003464</ele>
        <time>2022-08-28T07:40:07Z</time>
      </trkpt>
      <trkpt lat="50.29002" lon="4.26741">
        <ele>175.179718</ele>
        <time>2022-08-28T07:40:09Z</time>
      </trkpt>
      <trkpt lat="50.28993" lon="4.2674">
        <ele>175.262207</ele>
        <time>2022-08-28T07:40:11Z</time>
      </trkpt>
      <trkpt lat="50.28982" lon="4.26739">
        <ele>175.282806</ele>
        <time>2022-08-28T07:40:13Z</time>
      </trkpt>
      <trkpt lat="50.28973" lon="4.26739">
        <ele>174.965118</ele>
        <time>2022-08-28T07:40:15Z</time>
      </trkpt>
      <trkpt lat="50.28963" lon="4.26738">
        <ele>175.174988</ele>
        <time>2022-08-28T07:40:17Z</time>
      </trkpt>
      <trkpt lat="50.28954" lon="4.26737">
        <ele>174.749435</ele>
        <time>2022-08-28T07:40:19Z</time>
      </trkpt>
      <trkpt lat="50.28944" lon="4.26737">
        <ele>174.916336</ele>
        <time>2022-08-28T07:40:21Z</time>
      </trkpt>
      <trkpt lat="50.28935" lon="4.26736">
        <ele>175.130371</ele>
        <time>2022-08-28T07:40:23Z</time>
      </trkpt>
      <trkpt lat="50.28926" lon="4.26736">
        <ele>175.469772</ele>
        <time>2022-08-28T07:40:25Z</time>
      </trkpt>
      <trkpt lat="50.28916" lon="4.26735">
        <ele>175.176056</ele>
        <time>2022-08-28T07:40:27Z</time>
      </trkpt>
      <trkpt lat="50.28907" lon="4.26734">
        <ele>175.54155</ele>
        <time>2022-08-28T07:40:29Z</time>
      </trkpt>
      <trkpt lat="50.28898" lon="4.26734">
        <ele>175.677292</ele>
        <time>2022-08-28T07:40:31Z</time>
      </trkpt>
      <trkpt lat="50.28889" lon="4.26732">
        <ele>175.842255</ele>
        <time>2022-08-28T07:40:33Z</time>
      </trkpt>
      <trkpt lat="50.2888" lon="4.26732">
        <ele>176.539276</ele>
        <time>2022-08-28T07:40:35Z</time>
      </trkpt>
      <trkpt lat="50.28871" lon="4.2673">
        <ele>176.518372</ele>
        <time>2022-08-28T07:40:37Z</time>
      </trkpt>
      <trkpt lat="50.28861" lon="4.2673">
        <ele>176.734528</ele>
        <time>2022-08-28T07:40:39Z</time>
      </trkpt>
      <trkpt lat="50.28853" lon="4.26729">
        <ele>177.162491</ele>
        <time>2022-08-28T07:40:41Z</time>
      </trkpt>
      <trkpt lat="50.28844" lon="4.26728">
        <ele>177.66803</ele>
        <time>2022-08-28T07:40:43Z</time>
      </trkpt>
      <trkpt lat="50.28834" lon="4.26728">
        <ele>177.976593</ele>
        <time>2022-08-28T07:40:45Z</time>
      </trkpt>
      <trkpt lat="50.28825" lon="4.26728">
        <ele>178.203247</ele>
        <time>2022-08-28T07:40:47Z</time>
      </trkpt>
      <trkpt lat="50.28816" lon="4.26727">
        <ele>178.431931</ele>
        <time>2022-08-28T07:40:49Z</time>
      </trkpt>
      <trkpt lat="50.28807" lon="4.26726">
        <ele>178.692184</ele>
        <time>2022-08-28T07:40:51Z</time>
      </trkpt>
      <trkpt lat="50.28797" lon="4.26725">
        <ele>178.933563</ele>
        <time>2022-08-28T07:40:53Z</time>
      </trkpt>
      <trkpt lat="50.28788" lon="4.26724">
        <ele>179.089264</ele>
        <time>2022-08-28T07:40:55Z</time>
      </trkpt>
      <trkpt lat="50.28778" lon="4.26723">
        <ele>179.24881</ele>
        <time>2022-08-28T07:40:57Z</time>
      </trkpt>
      <trkpt lat="50.28769" lon="4.26722">
        <ele>179.257217</ele>
        <time>2022-08-28T07:40:59Z</time>
      </trkpt>
      <trkpt lat="50.28759" lon="4.26722">
        <ele>179.909653</ele>
        <time>2022-08-28T07:41:01Z</time>
      </trkpt>
      <trkpt lat="50.2875" lon="4.26721">
        <ele>179.991531</ele>
        <time>2022-08-28T07:41:03Z</time>
      </trkpt>
      <trkpt lat="50.2874" lon="4.26719">
        <ele>180.231369</ele>
        <time>2022-08-28T07:41:05Z</time>
      </trkpt>
      <trkpt lat="50.2873" lon="4.26717">
        <ele>180.474396</ele>
        <time>2022-08-28T07:41:07Z</time>
      </trkpt>
      <trkpt lat="50.28721" lon="4.26715">
        <ele>180.577255</ele>
        <time>2022-08-28T07:41:09Z</time>
      </trkpt>
      <trkpt lat="50.28712" lon="4.26712">
        <ele>180.856064</ele>
        <time>2022-08-28T07:41:11Z</time>
      </trkpt>
      <trkpt lat="50.28702" lon="4.26709">
        <ele>181.005157</ele>
        <time>2022-08-28T07:41:13Z</time>
      </trkpt>
      <trkpt lat="50.28693" lon="4.26706">
        <ele>180.767563</ele>
        <time>2022-08-28T07:41:15Z</time>
      </trkpt>
      <trkpt lat="50.28683" lon="4.26702">
        <ele>180.984085</ele>
        <time>2022-08-28T07:41:17Z</time>
      </trkpt>
      <trkpt lat="50.28674" lon="4.26697">
        <ele>181.517227</ele>
        <time>2022-08-28T07:41:19Z</time>
      </trkpt>
      <trkpt lat="50.28664" lon="4.26693">
        <ele>181.846863</ele>
        <time>2022-08-28T07:41:21Z</time>
      </trkpt>
      <trkpt lat="50.28655" lon="4.26689">
        <ele>182.130325</ele>
        <time>2022-08-28T07:41:23Z</time>
      </trkpt>
      <trkpt lat="50.28646" lon="4.26685">
        <ele>182.529297</ele>
        <time>2022-08-28T07:41:25Z</time>
      </trkpt>
      <trkpt lat="50.28636" lon="4.26682">
        <ele>182.787613</ele>
        <time>2022-08-28T07:41:27Z</time>
      </trkpt>
      <trkpt lat="50.28627" lon="4.26679">
        <ele>183.052246</ele>
        <time>2022-08-28T07:41:29Z</time>
      </trkpt>
      <trkpt lat="50.28617" lon="4.26677">
        <ele>183.216034</ele>
        <time>2022-08-28T07:41:31Z</time>
      </trkpt>
      <trkpt lat="50.28608" lon="4.26674">
        <ele>183.507904</ele>
        <time>2022-08-28T07:41:33Z</time>
      </trkpt>
      <trkpt lat="50.28599" lon="4.26672">
        <ele>183.491943</ele>
        <time>2022-08-28T07:41:35Z</time>
      </trkpt>
      <trkpt lat="50.28589" lon="4.2667">
        <ele>183.798492</ele>
        <time>2022-08-28T07:41:37Z</time>
      </trkpt>
      <trkpt lat="50.2858" lon="4.26668">
        <ele>184.004272</ele>
        <time>2022-08-28T07:41:39Z</time>
      </trkpt>
      <trkpt lat="50.28571" lon="4.26667">
        <ele>184.284332</ele>
        <time>2022-08-28T07:41:41Z</time>
      </trkpt>
      <trkpt lat="50.28561" lon="4.26665">
        <ele>184.557373</ele>
        <time>2022-08-28T07:41:43Z</time>
      </trkpt>
      <trkpt lat="50.28552" lon="4.26664">
        <ele>184.861847</ele>
        <time>2022-08-28T07:41:45Z</time>
      </trkpt>
      <trkpt lat="50.28542" lon="4.26663">
        <ele>185.031952</ele>
        <time>2022-08-28T07:41:47Z</time>
      </trkpt>
      <trkpt lat="50.28532" lon="4.26661">
        <ele>185.244095</ele>
        <time>2022-08-28T07:41:49Z</time>
      </trkpt>
      <trkpt lat="50.28523" lon="4.26659">
        <ele>185.502731</ele>
        <time>2022-08-28T07:41:51Z</time>
      </trkpt>
      <trkpt lat="50.28513" lon="4.26658">
        <ele>185.593048</ele>
        <time>2022-08-28T07:41:53Z</time>
      </trkpt>
      <trkpt lat="50.28503" lon="4.26657">
        <ele>185.834564</ele>
        <time>2022-08-28T07:41:55Z</time>
      </trkpt>
      <trkpt lat="50.28494" lon="4.26655">
        <ele>185.987503</ele>
        <time>2022-08-28T07:41:57Z</time>
      </trkpt>
      <trkpt lat="50.28484" lon="4.26653">
        <ele>186.268707</ele>
        <time>2022-08-28T07:41:59Z</time>
      </trkpt>
      <trkpt lat="50.28475" lon="4.2665">
        <ele>186.449371</ele>
        <time>2022-08-28T07:42:01Z</time>
      </trkpt>
      <trkpt lat="50.28466" lon="4.26645">
        <ele>186.580475</ele>
        <time>2022-08-28T07:42:03Z</time>
      </trkpt>
      <trkpt lat="50.28453" lon="4.26636">
        <ele>186.96701</ele>
        <time>2022-08-28T07:42:06Z</time>
      </trkpt>
      <trkpt lat="50.28445" lon="4.26629">
        <ele>187.03215</ele>
        <time>2022-08-28T07:42:08Z</time>
      </trkpt>
      <trkpt lat="50.28436" lon="4.26623">
        <ele>187.248535</ele>
        <time>2022-08-28T07:42:10Z</time>
      </trkpt>
      <trkpt lat="50.28428" lon="4.26616">
        <ele>187.569977</ele>
        <time>2022-08-28T07:42:12Z</time>
      </trkpt>
      <trkpt lat="50.2842" lon="4.26609">
        <ele>187.857819</ele>
        <time>2022-08-28T07:42:14Z</time>
      </trkpt>
      <trkpt lat="50.28412" lon="4.26602">
        <ele>188.434616</ele>
        <time>2022-08-28T07:42:16Z</time>
      </trkpt>
      <trkpt lat="50.28404" lon="4.26596">
        <ele>188.823318</ele>
        <time>2022-08-28T07:42:18Z</time>
      </trkpt>
      <trkpt lat="50.28396" lon="4.26591">
        <ele>189.080948</ele>
        <time>2022-08-28T07:42:20Z</time>
      </trkpt>
      <trkpt lat="50.28387" lon="4.26587">
        <ele>189.462677</ele>
        <time>2022-08-28T07:42:22Z</time>
      </trkpt>
      <trkpt lat="50.28377" lon="4.26585">
        <ele>189.723236</ele>
        <time>2022-08-28T07:42:24Z</time>
      </trkpt>
      <trkpt lat="50.28368" lon="4.26584">
        <ele>190.0952</ele>
        <time>2022-08-28T07:42:26Z</time>
      </trkpt>
      <trkpt lat="50.28359" lon="4.26584">
        <ele>190.401962</ele>
        <time>2022-08-28T07:42:28Z</time>
      </trkpt>
      <trkpt lat="50.2835" lon="4.26585">
        <ele>190.624725</ele>
        <time>2022-08-28T07:42:30Z</time>
      </trkpt>
      <trkpt lat="50.2834" lon="4.26586">
        <ele>190.920746</ele>
        <time>2022-08-28T07:42:32Z</time>
      </trkpt>
      <trkpt lat="50.28331" lon="4.26586">
        <ele>191.332642</ele>
        <time>2022-08-28T07:42:34Z</time>
      </trkpt>
      <trkpt lat="50.28322" lon="4.26587">
        <ele>191.6595</ele>
        <time>2022-08-28T07:42:36Z</time>
      </trkpt>
      <trkpt lat="50.28313" lon="4.26588">
        <ele>192.019226</ele>
        <time>2022-08-28T07:42:38Z</time>
      </trkpt>
      <trkpt lat="50.28304" lon="4.26589">
        <ele>192.332626</ele>
        <time>2022-08-28T07:42:40Z</time>
      </trkpt>
      <trkpt lat="50.28295" lon="4.26589">
        <ele>193.1698</ele>
        <time>2022-08-28T07:42:42Z</time>
      </trkpt>
      <trkpt lat="50.28286" lon="4.2659">
        <ele>193.578842</ele>
        <time>2022-08-28T07:42:44Z</time>
      </trkpt>
      <trkpt lat="50.28277" lon="4.26591">
        <ele>193.761688</ele>
        <time>2022-08-28T07:42:46Z</time>
      </trkpt>
      <trkpt lat="50.28269" lon="4.26593">
        <ele>193.986588</ele>
        <time>2022-08-28T07:42:48Z</time>
      </trkpt>
      <trkpt lat="50.2826" lon="4.26594">
        <ele>194.309402</ele>
        <time>2022-08-28T07:42:50Z</time>
      </trkpt>
      <trkpt lat="50.28252" lon="4.26596">
        <ele>194.591064</ele>
        <time>2022-08-28T07:42:52Z</time>
      </trkpt>
      <trkpt lat="50.28243" lon="4.26598">
        <ele>194.797043</ele>
        <time>2022-08-28T07:42:54Z</time>
      </trkpt>
      <trkpt lat="50.28234" lon="4.26597">
        <ele>195.036667</ele>
        <time>2022-08-28T07:42:56Z</time>
      </trkpt>
      <trkpt lat="50.28225" lon="4.26594">
        <ele>195.198532</ele>
        <time>2022-08-28T07:42:58Z</time>
      </trkpt>
      <trkpt lat="50.28217" lon="4.26591">
        <ele>194.926361</ele>
        <time>2022-08-28T07:43:00Z</time>
      </trkpt>
      <trkpt lat="50.28208" lon="4.26587">
        <ele>195.168793</ele>
        <time>2022-08-28T07:43:02Z</time>
      </trkpt>
      <trkpt lat="50.282" lon="4.26583">
        <ele>195.347504</ele>
        <time>2022-08-28T07:43:04Z</time>
      </trkpt>
      <trkpt lat="50.28191" lon="4.26581">
        <ele>195.561951</ele>
        <time>2022-08-28T07:43:06Z</time>
      </trkpt>
      <trkpt lat="50.28182" lon="4.26578">
        <ele>195.778503</ele>
        <time>2022-08-28T07:43:08Z</time>
      </trkpt>
      <trkpt lat="50.28173" lon="4.26576">
        <ele>195.938293</ele>
        <time>2022-08-28T07:43:10Z</time>
      </trkpt>
      <trkpt lat="50.28166" lon="4.26574">
        <ele>196.171661</ele>
        <time>2022-08-28T07:43:12Z</time>
      </trkpt>
      <trkpt lat="50.2816" lon="4.26571">
        <ele>196.354584</ele>
        <time>2022-08-28T07:43:14Z</time>
      </trkpt>
      <trkpt lat="50.28156" lon="4.26569">
        <ele>196.622589</ele>
        <time>2022-08-28T07:43:16Z</time>
      </trkpt>
      <trkpt lat="50.28149" lon="4.26566">
        <ele>196.788681</ele>
        <time>2022-08-28T07:43:18Z</time>
      </trkpt>
      <trkpt lat="50.28141" lon="4.26562">
        <ele>197.003159</ele>
        <time>2022-08-28T07:43:20Z</time>
      </trkpt>
      <trkpt lat="50.28133" lon="4.26558">
        <ele>196.657852</ele>
        <time>2022-08-28T07:43:22Z</time>
      </trkpt>
      <trkpt lat="50.28124" lon="4.26555">
        <ele>196.828171</ele>
        <time>2022-08-28T07:43:24Z</time>
      </trkpt>
      <trkpt lat="50.28116" lon="4.2655">
        <ele>197.059448</ele>
        <time>2022-08-28T07:43:26Z</time>
      </trkpt>
      <trkpt lat="50.28108" lon="4.26546">
        <ele>197.339111</ele>
        <time>2022-08-28T07:43:28Z</time>
      </trkpt>
      <trkpt lat="50.28099" lon="4.26541">
        <ele>197.509506</ele>
        <time>2022-08-28T07:43:30Z</time>
      </trkpt>
      <trkpt lat="50.28091" lon="4.26537">
        <ele>197.75853</ele>
        <time>2022-08-28T07:43:32Z</time>
      </trkpt>
      <trkpt lat="50.28082" lon="4.26532">
        <ele>197.954102</ele>
        <time>2022-08-28T07:43:34Z</time>
      </trkpt>
      <trkpt lat="50.28072" lon="4.26528">
        <ele>198.183319</ele>
        <time>2022-08-28T07:43:36Z</time>
      </trkpt>
      <trkpt lat="50.28063" lon="4.26523">
        <ele>198.374664</ele>
        <time>2022-08-28T07:43:38Z</time>
      </trkpt>
      <trkpt lat="50.28054" lon="4.26519">
        <ele>199.061829</ele>
        <time>2022-08-28T07:43:40Z</time>
      </trkpt>
      <trkpt lat="50.28045" lon="4.26514">
        <ele>199.251099</ele>
        <time>2022-08-28T07:43:42Z</time>
      </trkpt>
      <trkpt lat="50.28035" lon="4.26509">
        <ele>199.438263</ele>
        <time>2022-08-28T07:43:44Z</time>
      </trkpt>
      <trkpt lat="50.28025" lon="4.26504">
        <ele>199.527481</ele>
        <time>2022-08-28T07:43:46Z</time>
      </trkpt>
      <trkpt lat="50.28016" lon="4.26498">
        <ele>199.609497</ele>
        <time>2022-08-28T07:43:48Z</time>
      </trkpt>
      <trkpt lat="50.28006" lon="4.26493">
        <ele>199.750397</ele>
        <time>2022-08-28T07:43:50Z</time>
      </trkpt>
      <trkpt lat="50.27996" lon="4.26488">
        <ele>199.927078</ele>
        <time>2022-08-28T07:43:52Z</time>
      </trkpt>
      <trkpt lat="50.27987" lon="4.26483">
        <ele>200.038544</ele>
        <time>2022-08-28T07:43:54Z</time>
      </trkpt>
      <trkpt lat="50.27977" lon="4.26478">
        <ele>200.147919</ele>
        <time>2022-08-28T07:43:56Z</time>
      </trkpt>
      <trkpt lat="50.27968" lon="4.26473">
        <ele>200.227844</ele>
        <time>2022-08-28T07:43:58Z</time>
      </trkpt>
      <trkpt lat="50.27958" lon="4.26469">
        <ele>200.330902</ele>
        <time>2022-08-28T07:44:00Z</time>
      </trkpt>
      <trkpt lat="50.27948" lon="4.26464">
        <ele>200.49498</ele>
        <time>2022-08-28T07:44:02Z</time>
      </trkpt>
      <trkpt lat="50.27939" lon="4.26459">
        <ele>200.560181</ele>
        <time>2022-08-28T07:44:04Z</time>
      </trkpt>
      <trkpt lat="50.2793" lon="4.26454">
        <ele>200.686386</ele>
        <time>2022-08-28T07:44:06Z</time>
      </trkpt>
      <trkpt lat="50.27921" lon="4.26449">
        <ele>200.788559</ele>
        <time>2022-08-28T07:44:08Z</time>
      </trkpt>
      <trkpt lat="50.27913" lon="4.26445">
        <ele>200.917572</ele>
        <time>2022-08-28T07:44:10Z</time>
      </trkpt>
      <trkpt lat="50.27905" lon="4.26442">
        <ele>200.959579</ele>
        <time>2022-08-28T07:44:12Z</time>
      </trkpt>
      <trkpt lat="50.279" lon="4.26435">
        <ele>201.111038</ele>
        <time>2022-08-28T07:44:14Z</time>
      </trkpt>
      <trkpt lat="50.27899" lon="4.26427">
        <ele>201.251343</ele>
        <time>2022-08-28T07:44:16Z</time>
      </trkpt>
      <trkpt lat="50.27898" lon="4.26421">
        <ele>201.434021</ele>
        <time>2022-08-28T07:44:18Z</time>
      </trkpt>
      <trkpt lat="50.27899" lon="4.26414">
        <ele>201.601257</ele>
        <time>2022-08-28T07:44:20Z</time>
      </trkpt>
      <trkpt lat="50.27899" lon="4.26409">
        <ele>201.822067</ele>
        <time>2022-08-28T07:44:22Z</time>
      </trkpt>
      <trkpt lat="50.279" lon="4.26404">
        <ele>201.990234</ele>
        <time>2022-08-28T07:44:24Z</time>
      </trkpt>
      <trkpt lat="50.27898" lon="4.264">
        <ele>202.148575</ele>
        <time>2022-08-28T07:44:26Z</time>
      </trkpt>
      <trkpt lat="50.27897" lon="4.26395">
        <ele>202.337097</ele>
        <time>2022-08-28T07:44:28Z</time>
      </trkpt>
      <trkpt lat="50.27898" lon="4.26383">
        <ele>202.475937</ele>
        <time>2022-08-28T07:44:30Z</time>
      </trkpt>
      <trkpt lat="50.27897" lon="4.26373">
        <ele>202.644318</ele>
        <time>2022-08-28T07:44:32Z</time>
      </trkpt>
      <trkpt lat="50.27897" lon="4.2636">
        <ele>202.86734</ele>
        <time>2022-08-28T07:44:34Z</time>
      </trkpt>
      <trkpt lat="50.27898" lon="4.26347">
        <ele>203.111404</ele>
        <time>2022-08-28T07:44:36Z</time>
      </trkpt>
      <trkpt lat="50.27898" lon="4.26335">
        <ele>203.326004</ele>
        <time>2022-08-28T07:44:38Z</time>
      </trkpt>
      <trkpt lat="50.27898" lon="4.26322">
        <ele>203.57428</ele>
        <time>2022-08-28T07:44:40Z</time>
      </trkpt>
      <trkpt lat="50.27899" lon="4.26309">
        <ele>203.784531</ele>
        <time>2022-08-28T07:44:42Z</time>
      </trkpt>
      <trkpt lat="50.27899" lon="4.26296">
        <ele>203.961273</ele>
        <time>2022-08-28T07:44:44Z</time>
      </trkpt>
      <trkpt lat="50.27897" lon="4.26283">
        <ele>204.236465</ele>
        <time>2022-08-28T07:44:46Z</time>
      </trkpt>
      <trkpt lat="50.27894" lon="4.26269">
        <ele>204.473053</ele>
        <time>2022-08-28T07:44:48Z</time>
      </trkpt>
      <trkpt lat="50.27893" lon="4.26256">
        <ele>204.534073</ele>
        <time>2022-08-28T07:44:50Z</time>
      </trkpt>
      <trkpt lat="50.27892" lon="4.2624">
        <ele>204.918503</ele>
        <time>2022-08-28T07:44:52Z</time>
      </trkpt>
      <trkpt lat="50.27892" lon="4.26226">
        <ele>205.191254</ele>
        <time>2022-08-28T07:44:54Z</time>
      </trkpt>
      <trkpt lat="50.27892" lon="4.26212">
        <ele>205.454987</ele>
        <time>2022-08-28T07:44:56Z</time>
      </trkpt>
      <trkpt lat="50.27893" lon="4.26198">
        <ele>205.564743</ele>
        <time>2022-08-28T07:44:58Z</time>
      </trkpt>
      <trkpt lat="50.27888" lon="4.2618">
        <ele>205.748901</ele>
        <time>2022-08-28T07:45:00Z</time>
      </trkpt>
      <trkpt lat="50.27885" lon="4.26163">
        <ele>206.054657</ele>
        <time>2022-08-28T07:45:02Z</time>
      </trkpt>
      <trkpt lat="50.27881" lon="4.26149">
        <ele>206.276611</ele>
        <time>2022-08-28T07:45:04Z</time>
      </trkpt>
      <trkpt lat="50.27879" lon="4.26135">
        <ele>206.594086</ele>
        <time>2022-08-28T07:45:06Z</time>
      </trkpt>
      <trkpt lat="50.27877" lon="4.2612">
        <ele>206.94632</ele>
        <time>2022-08-28T07:45:08Z</time>
      </trkpt>
      <trkpt lat="50.27875" lon="4.26106">
        <ele>207.280838</ele>
        <time>2022-08-28T07:45:10Z</time>
      </trkpt>
      <trkpt lat="50.27874" lon="4.26095">
        <ele>207.678467</ele>
        <time>2022-08-28T07:45:12Z</time>
      </trkpt>
      <trkpt lat="50.27874" lon="4.26082">
        <ele>208.001663</ele>
        <time>2022-08-28T07:45:14Z</time>
      </trkpt>
      <trkpt lat="50.27873" lon="4.26065">
        <ele>208.456421</ele>
        <time>2022-08-28T07:45:16Z</time>
      </trkpt>
      <trkpt lat="50.27871" lon="4.26047">
        <ele>208.797455</ele>
        <time>2022-08-28T07:45:18Z</time>
      </trkpt>
      <trkpt lat="50.27871" lon="4.2603">
        <ele>209.176392</ele>
        <time>2022-08-28T07:45:20Z</time>
      </trkpt>
      <trkpt lat="50.2787" lon="4.2601">
        <ele>209.681854</ele>
        <time>2022-08-28T07:45:22Z</time>
      </trkpt>
      <trkpt lat="50.27869" lon="4.25991">
        <ele>210.042358</ele>
        <time>2022-08-28T07:45:24Z</time>
      </trkpt>
      <trkpt lat="50.27866" lon="4.25972">
        <ele>210.454315</ele>
        <time>2022-08-28T07:45:26Z</time>
      </trkpt>
      <trkpt lat="50.27866" lon="4.25953">
        <ele>210.793365</ele>
        <time>2022-08-28T07:45:28Z</time>
      </trkpt>
      <trkpt lat="50.27865" lon="4.25935">
        <ele>211.098633</ele>
        <time>2022-08-28T07:45:30Z</time>
      </trkpt>
      <trkpt lat="50.27862" lon="4.25917">
        <ele>211.323898</ele>
        <time>2022-08-28T07:45:32Z</time>
      </trkpt>
      <trkpt lat="50.27859" lon="4.259">
        <ele>211.730255</ele>
        <time>2022-08-28T07:45:34Z</time>
      </trkpt>
      <trkpt lat="50.27861" lon="4.25882">
        <ele>212.076385</ele>
        <time>2022-08-28T07:45:36Z</time>
      </trkpt>
      <trkpt lat="50.27856" lon="4.25862">
        <ele>212.594391</ele>
        <time>2022-08-28T07:45:38Z</time>
      </trkpt>
      <trkpt lat="50.27853" lon="4.25844">
        <ele>213.096588</ele>
        <time>2022-08-28T07:45:40Z</time>
      </trkpt>
      <trkpt lat="50.2785" lon="4.25826">
        <ele>213.439255</ele>
        <time>2022-08-28T07:45:42Z</time>
      </trkpt>
      <trkpt lat="50.27846" lon="4.25807">
        <ele>214.306839</ele>
        <time>2022-08-28T07:45:44Z</time>
      </trkpt>
      <trkpt lat="50.27844" lon="4.25788">
        <ele>214.719772</ele>
        <time>2022-08-28T07:45:46Z</time>
      </trkpt>
      <trkpt lat="50.27842" lon="4.2577">
        <ele>214.918991</ele>
        <time>2022-08-28T07:45:48Z</time>
      </trkpt>
      <trkpt lat="50.27841" lon="4.25753">
        <ele>215.125534</ele>
        <time>2022-08-28T07:45:50Z</time>
      </trkpt>
      <trkpt lat="50.27842" lon="4.25735">
        <ele>215.464798</ele>
        <time>2022-08-28T07:45:52Z</time>
      </trkpt>
      <trkpt lat="50.27839" lon="4.25716">
        <ele>215.663666</ele>
        <time>2022-08-28T07:45:54Z</time>
      </trkpt>
      <trkpt lat="50.27834" lon="4.25699">
        <ele>215.931198</ele>
        <time>2022-08-28T07:45:56Z</time>
      </trkpt>
      <trkpt lat="50.27831" lon="4.25679">
        <ele>216.230377</ele>
        <time>2022-08-28T07:45:58Z</time>
      </trkpt>
      <trkpt lat="50.27827" lon="4.2566">
        <ele>216.441254</ele>
        <time>2022-08-28T07:46:00Z</time>
      </trkpt>
      <trkpt lat="50.27823" lon="4.25641">
        <ele>216.304398</ele>
        <time>2022-08-28T07:46:02Z</time>
      </trkpt>
      <trkpt lat="50.27817" lon="4.25621">
        <ele>216.405518</ele>
        <time>2022-08-28T07:46:04Z</time>
      </trkpt>
      <trkpt lat="50.27814" lon="4.25601">
        <ele>216.527145</ele>
        <time>2022-08-28T07:46:06Z</time>
      </trkpt>
      <trkpt lat="50.27811" lon="4.25582">
        <ele>216.616791</ele>
        <time>2022-08-28T07:46:08Z</time>
      </trkpt>
      <trkpt lat="50.2781" lon="4.25564">
        <ele>216.690521</ele>
        <time>2022-08-28T07:46:10Z</time>
      </trkpt>
      <trkpt lat="50.27807" lon="4.25548">
        <ele>216.840088</ele>
        <time>2022-08-28T07:46:12Z</time>
      </trkpt>
      <trkpt lat="50.27802" lon="4.25528">
        <ele>216.941208</ele>
        <time>2022-08-28T07:46:14Z</time>
      </trkpt>
      <trkpt lat="50.27801" lon="4.2551">
        <ele>216.91597</ele>
        <time>2022-08-28T07:46:16Z</time>
      </trkpt>
      <trkpt lat="50.27799" lon="4.25495">
        <ele>216.970703</ele>
        <time>2022-08-28T07:46:18Z</time>
      </trkpt>
      <trkpt lat="50.27798" lon="4.25477">
        <ele>216.986481</ele>
        <time>2022-08-28T07:46:20Z</time>
      </trkpt>
      <trkpt lat="50.27797" lon="4.25459">
        <ele>216.978073</ele>
        <time>2022-08-28T07:46:22Z</time>
      </trkpt>
      <trkpt lat="50.27795" lon="4.25444">
        <ele>216.562469</ele>
        <time>2022-08-28T07:46:24Z</time>
      </trkpt>
      <trkpt lat="50.27791" lon="4.25424">
        <ele>216.509811</ele>
        <time>2022-08-28T07:46:26Z</time>
      </trkpt>
      <trkpt lat="50.27787" lon="4.25406">
        <ele>216.571579</ele>
        <time>2022-08-28T07:46:28Z</time>
      </trkpt>
      <trkpt lat="50.27785" lon="4.25389">
        <ele>216.514694</ele>
        <time>2022-08-28T07:46:30Z</time>
      </trkpt>
      <trkpt lat="50.2778" lon="4.25372">
        <ele>216.196625</ele>
        <time>2022-08-28T07:46:32Z</time>
      </trkpt>
      <trkpt lat="50.27775" lon="4.25356">
        <ele>216.228241</ele>
        <time>2022-08-28T07:46:34Z</time>
      </trkpt>
      <trkpt lat="50.27773" lon="4.25342">
        <ele>216.22612</ele>
        <time>2022-08-28T07:46:36Z</time>
      </trkpt>
      <trkpt lat="50.2777" lon="4.25325">
        <ele>215.661896</ele>
        <time>2022-08-28T07:46:38Z</time>
      </trkpt>
      <trkpt lat="50.27766" lon="4.25312">
        <ele>215.436493</ele>
        <time>2022-08-28T07:46:40Z</time>
      </trkpt>
      <trkpt lat="50.27765" lon="4.25297">
        <ele>215.482513</ele>
        <time>2022-08-28T07:46:42Z</time>
      </trkpt>
      <trkpt lat="50.27765" lon="4.25283">
        <ele>215.484619</ele>
        <time>2022-08-28T07:46:44Z</time>
      </trkpt>
      <trkpt lat="50.27763" lon="4.25267">
        <ele>215.480057</ele>
        <time>2022-08-28T07:46:46Z</time>
      </trkpt>
      <trkpt lat="50.27759" lon="4.25251">
        <ele>215.50322</ele>
        <time>2022-08-28T07:46:48Z</time>
      </trkpt>
      <trkpt lat="50.27755" lon="4.25235">
        <ele>215.397873</ele>
        <time>2022-08-28T07:46:50Z</time>
      </trkpt>
      <trkpt lat="50.27753" lon="4.25218">
        <ele>215.208282</ele>
        <time>2022-08-28T07:46:52Z</time>
      </trkpt>
      <trkpt lat="50.27751" lon="4.25203">
        <ele>215.003983</ele>
        <time>2022-08-28T07:46:54Z</time>
      </trkpt>
      <trkpt lat="50.27748" lon="4.25186">
        <ele>214.888138</ele>
        <time>2022-08-28T07:46:56Z</time>
      </trkpt>
      <trkpt lat="50.27744" lon="4.25169">
        <ele>214.896576</ele>
        <time>2022-08-28T07:46:58Z</time>
      </trkpt>
      <trkpt lat="50.27743" lon="4.25152">
        <ele>214.660675</ele>
        <time>2022-08-28T07:47:00Z</time>
      </trkpt>
      <trkpt lat="50.27742" lon="4.25135">
        <ele>214.380524</ele>
        <time>2022-08-28T07:47:02Z</time>
      </trkpt>
      <trkpt lat="50.27739" lon="4.25118">
        <ele>214.224655</ele>
        <time>2022-08-28T07:47:04Z</time>
      </trkpt>
      <trkpt lat="50.27736" lon="4.25102">
        <ele>214.028778</ele>
        <time>2022-08-28T07:47:06Z</time>
      </trkpt>
      <trkpt lat="50.2773" lon="4.25086">
        <ele>213.856079</ele>
        <time>2022-08-28T07:47:08Z</time>
      </trkpt>
      <trkpt lat="50.27726" lon="4.25068">
        <ele>213.697052</ele>
        <time>2022-08-28T07:47:10Z</time>
      </trkpt>
      <trkpt lat="50.27723" lon="4.25054">
        <ele>213.562286</ele>
        <time>2022-08-28T07:47:12Z</time>
      </trkpt>
      <trkpt lat="50.27718" lon="4.25036">
        <ele>213.484344</ele>
        <time>2022-08-28T07:47:14Z</time>
      </trkpt>
      <trkpt lat="50.27713" lon="4.25018">
        <ele>213.334808</ele>
        <time>2022-08-28T07:47:16Z</time>
      </trkpt>
      <trkpt lat="50.2771" lon="4.24999">
        <ele>213.109406</ele>
        <time>2022-08-28T07:47:18Z</time>
      </trkpt>
      <trkpt lat="50.27708" lon="4.24982">
        <ele>213.420853</ele>
        <time>2022-08-28T07:47:20Z</time>
      </trkpt>
      <trkpt lat="50.27705" lon="4.24963">
        <ele>213.310989</ele>
        <time>2022-08-28T07:47:22Z</time>
      </trkpt>
      <trkpt lat="50.27701" lon="4.24946">
        <ele>213.249954</ele>
        <time>2022-08-28T07:47:24Z</time>
      </trkpt>
      <trkpt lat="50.27699" lon="4.2493">
        <ele>212.904617</ele>
        <time>2022-08-28T07:47:26Z</time>
      </trkpt>
      <trkpt lat="50.27696" lon="4.24915">
        <ele>212.686981</ele>
        <time>2022-08-28T07:47:28Z</time>
      </trkpt>
      <trkpt lat="50.27691" lon="4.24895">
        <ele>212.352142</ele>
        <time>2022-08-28T07:47:30Z</time>
      </trkpt>
      <trkpt lat="50.27688" lon="4.24877">
        <ele>212.137375</ele>
        <time>2022-08-28T07:47:32Z</time>
      </trkpt>
      <trkpt lat="50.27685" lon="4.2486">
        <ele>212.114212</ele>
        <time>2022-08-28T07:47:34Z</time>
      </trkpt>
      <trkpt lat="50.27684" lon="4.24843">
        <ele>212.032074</ele>
        <time>2022-08-28T07:47:36Z</time>
      </trkpt>
      <trkpt lat="50.27681" lon="4.24825">
        <ele>211.947754</ele>
        <time>2022-08-28T07:47:38Z</time>
      </trkpt>
      <trkpt lat="50.2768" lon="4.24807">
        <ele>211.821442</ele>
        <time>2022-08-28T07:47:40Z</time>
      </trkpt>
      <trkpt lat="50.27679" lon="4.2479">
        <ele>211.813019</ele>
        <time>2022-08-28T07:47:42Z</time>
      </trkpt>
      <trkpt lat="50.27676" lon="4.24773">
        <ele>211.789825</ele>
        <time>2022-08-28T07:47:44Z</time>
      </trkpt>
      <trkpt lat="50.27674" lon="4.24755">
        <ele>211.888794</ele>
        <time>2022-08-28T07:47:46Z</time>
      </trkpt>
      <trkpt lat="50.27672" lon="4.24737">
        <ele>211.973053</ele>
        <time>2022-08-28T07:47:48Z</time>
      </trkpt>
      <trkpt lat="50.27669" lon="4.24719">
        <ele>212.027557</ele>
        <time>2022-08-28T07:47:50Z</time>
      </trkpt>
      <trkpt lat="50.27669" lon="4.24702">
        <ele>212.02124</ele>
        <time>2022-08-28T07:47:52Z</time>
      </trkpt>
      <trkpt lat="50.27666" lon="4.24684">
        <ele>212.172821</ele>
        <time>2022-08-28T07:47:54Z</time>
      </trkpt>
      <trkpt lat="50.27664" lon="4.24667">
        <ele>212.046509</ele>
        <time>2022-08-28T07:47:56Z</time>
      </trkpt>
      <trkpt lat="50.27662" lon="4.24648">
        <ele>211.892822</ele>
        <time>2022-08-28T07:47:58Z</time>
      </trkpt>
      <trkpt lat="50.27656" lon="4.24629">
        <ele>211.739105</ele>
        <time>2022-08-28T07:48:00Z</time>
      </trkpt>
      <trkpt lat="50.2765" lon="4.24613">
        <ele>212.339767</ele>
        <time>2022-08-28T07:48:02Z</time>
      </trkpt>
      <trkpt lat="50.27648" lon="4.24597">
        <ele>212.350662</ele>
        <time>2022-08-28T07:48:04Z</time>
      </trkpt>
      <trkpt lat="50.27645" lon="4.2458">
        <ele>212.567474</ele>
        <time>2022-08-28T07:48:06Z</time>
      </trkpt>
      <trkpt lat="50.27642" lon="4.24563">
        <ele>212.677002</ele>
        <time>2022-08-28T07:48:08Z</time>
      </trkpt>
      <trkpt lat="50.27638" lon="4.24545">
        <ele>212.743332</ele>
        <time>2022-08-28T07:48:10Z</time>
      </trkpt>
      <trkpt lat="50.27636" lon="4.24529">
        <ele>212.949738</ele>
        <time>2022-08-28T07:48:12Z</time>
      </trkpt>
      <trkpt lat="50.27632" lon="4.24512">
        <ele>213.038132</ele>
        <time>2022-08-28T07:48:14Z</time>
      </trkpt>
      <trkpt lat="50.27628" lon="4.24492">
        <ele>213.187668</ele>
        <time>2022-08-28T07:48:16Z</time>
      </trkpt>
      <trkpt lat="50.27625" lon="4.24472">
        <ele>213.404617</ele>
        <time>2022-08-28T07:48:18Z</time>
      </trkpt>
      <trkpt lat="50.27622" lon="4.24456">
        <ele>213.625778</ele>
        <time>2022-08-28T07:48:20Z</time>
      </trkpt>
      <trkpt lat="50.27619" lon="4.24439">
        <ele>213.598419</ele>
        <time>2022-08-28T07:48:22Z</time>
      </trkpt>
      <trkpt lat="50.27617" lon="4.2442">
        <ele>213.446808</ele>
        <time>2022-08-28T07:48:24Z</time>
      </trkpt>
      <trkpt lat="50.27615" lon="4.24403">
        <ele>213.213089</ele>
        <time>2022-08-28T07:48:26Z</time>
      </trkpt>
      <trkpt lat="50.27611" lon="4.24383">
        <ele>213.202545</ele>
        <time>2022-08-28T07:48:28Z</time>
      </trkpt>
      <trkpt lat="50.27607" lon="4.24366">
        <ele>212.968826</ele>
        <time>2022-08-28T07:48:30Z</time>
      </trkpt>
      <trkpt lat="50.27605" lon="4.24349">
        <ele>212.613312</ele>
        <time>2022-08-28T07:48:32Z</time>
      </trkpt>
      <trkpt lat="50.27601" lon="4.24329">
        <ele>212.657516</ele>
        <time>2022-08-28T07:48:34Z</time>
      </trkpt>
      <trkpt lat="50.27599" lon="4.24309">
        <ele>212.621735</ele>
        <time>2022-08-28T07:48:36Z</time>
      </trkpt>
      <trkpt lat="50.27596" lon="4.24293">
        <ele>212.759918</ele>
        <time>2022-08-28T07:48:38Z</time>
      </trkpt>
      <trkpt lat="50.27592" lon="4.24273">
        <ele>212.788116</ele>
        <time>2022-08-28T07:48:40Z</time>
      </trkpt>
      <trkpt lat="50.27589" lon="4.24255">
        <ele>212.208527</ele>
        <time>2022-08-28T07:48:42Z</time>
      </trkpt>
      <trkpt lat="50.27585" lon="4.24237">
        <ele>212.111649</ele>
        <time>2022-08-28T07:48:44Z</time>
      </trkpt>
      <trkpt lat="50.2758" lon="4.24222">
        <ele>211.86528</ele>
        <time>2022-08-28T07:48:46Z</time>
      </trkpt>
      <trkpt lat="50.27573" lon="4.24211">
        <ele>211.759979</ele>
        <time>2022-08-28T07:48:48Z</time>
      </trkpt>
      <trkpt lat="50.27565" lon="4.24199">
        <ele>211.608398</ele>
        <time>2022-08-28T07:48:50Z</time>
      </trkpt>
      <trkpt lat="50.27557" lon="4.24189">
        <ele>211.300934</ele>
        <time>2022-08-28T07:48:52Z</time>
      </trkpt>
      <trkpt lat="50.27547" lon="4.24177">
        <ele>211.288284</ele>
        <time>2022-08-28T07:48:54Z</time>
      </trkpt>
      <trkpt lat="50.27537" lon="4.24167">
        <ele>211.142975</ele>
        <time>2022-08-28T07:48:56Z</time>
      </trkpt>
      <trkpt lat="50.27531" lon="4.2416">
        <ele>210.940796</ele>
        <time>2022-08-28T07:48:58Z</time>
      </trkpt>
      <trkpt lat="50.2752" lon="4.24144">
        <ele>210.700729</ele>
        <time>2022-08-28T07:49:00Z</time>
      </trkpt>
      <trkpt lat="50.27511" lon="4.24129">
        <ele>210.631927</ele>
        <time>2022-08-28T07:49:02Z</time>
      </trkpt>
      <trkpt lat="50.27505" lon="4.24118">
        <ele>210.478271</ele>
        <time>2022-08-28T07:49:04Z</time>
      </trkpt>
      <trkpt lat="50.275" lon="4.24111">
        <ele>210.425659</ele>
        <time>2022-08-28T07:49:06Z</time>
      </trkpt>
      <trkpt lat="50.27498" lon="4.24104">
        <ele>210.404617</ele>
        <time>2022-08-28T07:49:08Z</time>
      </trkpt>
      <trkpt lat="50.27496" lon="4.24095">
        <ele>210.191971</ele>
        <time>2022-08-28T07:49:10Z</time>
      </trkpt>
      <trkpt lat="50.27493" lon="4.24081">
        <ele>210.322433</ele>
        <time>2022-08-28T07:49:12Z</time>
      </trkpt>
      <trkpt lat="50.27491" lon="4.24066">
        <ele>210.092941</ele>
        <time>2022-08-28T07:49:14Z</time>
      </trkpt>
      <trkpt lat="50.27491" lon="4.24049">
        <ele>209.772949</ele>
        <time>2022-08-28T07:49:16Z</time>
      </trkpt>
      <trkpt lat="50.27492" lon="4.24032">
        <ele>209.546341</ele>
        <time>2022-08-28T07:49:18Z</time>
      </trkpt>
      <trkpt lat="50.27492" lon="4.24015">
        <ele>209.326569</ele>
        <time>2022-08-28T07:49:20Z</time>
      </trkpt>
      <trkpt lat="50.27493" lon="4.23998">
        <ele>209.086578</ele>
        <time>2022-08-28T07:49:22Z</time>
      </trkpt>
      <trkpt lat="50.27492" lon="4.2398">
        <ele>208.90976</ele>
        <time>2022-08-28T07:49:24Z</time>
      </trkpt>
      <trkpt lat="50.27492" lon="4.23964">
        <ele>208.720291</ele>
        <time>2022-08-28T07:49:26Z</time>
      </trkpt>
      <trkpt lat="50.27493" lon="4.23948">
        <ele>208.419312</ele>
        <time>2022-08-28T07:49:28Z</time>
      </trkpt>
      <trkpt lat="50.27495" lon="4.23933">
        <ele>208.231613</ele>
        <time>2022-08-28T07:49:30Z</time>
      </trkpt>
      <trkpt lat="50.27496" lon="4.23918">
        <ele>207.95166</ele>
        <time>2022-08-28T07:49:32Z</time>
      </trkpt>
      <trkpt lat="50.27499" lon="4.23904">
        <ele>207.583298</ele>
        <time>2022-08-28T07:49:34Z</time>
      </trkpt>
      <trkpt lat="50.27502" lon="4.2389">
        <ele>207.343353</ele>
        <time>2022-08-28T07:49:36Z</time>
      </trkpt>
      <trkpt lat="50.27506" lon="4.23876">
        <ele>206.993896</ele>
        <time>2022-08-28T07:49:38Z</time>
      </trkpt>
      <trkpt lat="50.2751" lon="4.23862">
        <ele>206.724442</ele>
        <time>2022-08-28T07:49:40Z</time>
      </trkpt>
      <trkpt lat="50.27513" lon="4.23848">
        <ele>206.459198</ele>
        <time>2022-08-28T07:49:42Z</time>
      </trkpt>
      <trkpt lat="50.27517" lon="4.23836">
        <ele>206.302734</ele>
        <time>2022-08-28T07:49:44Z</time>
      </trkpt>
      <trkpt lat="50.27519" lon="4.23823">
        <ele>206.187012</ele>
        <time>2022-08-28T07:49:46Z</time>
      </trkpt>
      <trkpt lat="50.27525" lon="4.23811">
        <ele>206.151215</ele>
        <time>2022-08-28T07:49:48Z</time>
      </trkpt>
      <trkpt lat="50.27532" lon="4.23798">
        <ele>206.024948</ele>
        <time>2022-08-28T07:49:50Z</time>
      </trkpt>
      <trkpt lat="50.27537" lon="4.23784">
        <ele>205.989166</ele>
        <time>2022-08-28T07:49:52Z</time>
      </trkpt>
      <trkpt lat="50.27542" lon="4.2377">
        <ele>206.012329</ele>
        <time>2022-08-28T07:49:54Z</time>
      </trkpt>
      <trkpt lat="50.27548" lon="4.23756">
        <ele>206.010208</ele>
        <time>2022-08-28T07:49:56Z</time>
      </trkpt>
      <trkpt lat="50.27553" lon="4.23742">
        <ele>206.050201</ele>
        <time>2022-08-28T07:49:58Z</time>
      </trkpt>
      <trkpt lat="50.27559" lon="4.23728">
        <ele>206.03125</ele>
        <time>2022-08-28T07:50:00Z</time>
      </trkpt>
      <trkpt lat="50.27564" lon="4.23714">
        <ele>206.067047</ele>
        <time>2022-08-28T07:50:02Z</time>
      </trkpt>
      <trkpt lat="50.27569" lon="4.23698">
        <ele>206.087204</ele>
        <time>2022-08-28T07:50:04Z</time>
      </trkpt>
      <trkpt lat="50.27574" lon="4.23685">
        <ele>206.169281</ele>
        <time>2022-08-28T07:50:06Z</time>
      </trkpt>
      <trkpt lat="50.2758" lon="4.23671">
        <ele>206.310303</ele>
        <time>2022-08-28T07:50:08Z</time>
      </trkpt>
      <trkpt lat="50.27586" lon="4.23657">
        <ele>206.501831</ele>
        <time>2022-08-28T07:50:10Z</time>
      </trkpt>
      <trkpt lat="50.2759" lon="4.23641">
        <ele>206.577927</ele>
        <time>2022-08-28T07:50:12Z</time>
      </trkpt>
      <trkpt lat="50.27591" lon="4.23624">
        <ele>206.69577</ele>
        <time>2022-08-28T07:50:14Z</time>
      </trkpt>
      <trkpt lat="50.27599" lon="4.23612">
        <ele>206.849411</ele>
        <time>2022-08-28T07:50:16Z</time>
      </trkpt>
      <trkpt lat="50.27605" lon="4.23599">
        <ele>207.038849</ele>
        <time>2022-08-28T07:50:18Z</time>
      </trkpt>
      <trkpt lat="50.27611" lon="4.23586">
        <ele>207.219879</ele>
        <time>2022-08-28T07:50:20Z</time>
      </trkpt>
      <trkpt lat="50.27616" lon="4.23572">
        <ele>207.211472</ele>
        <time>2022-08-28T07:50:22Z</time>
      </trkpt>
      <trkpt lat="50.27622" lon="4.23559">
        <ele>207.301971</ele>
        <time>2022-08-28T07:50:24Z</time>
      </trkpt>
      <trkpt lat="50.27626" lon="4.23546">
        <ele>207.438812</ele>
        <time>2022-08-28T07:50:26Z</time>
      </trkpt>
      <trkpt lat="50.2763" lon="4.23534">
        <ele>207.522995</ele>
        <time>2022-08-28T07:50:28Z</time>
      </trkpt>
      <trkpt lat="50.27634" lon="4.23525">
        <ele>207.701202</ele>
        <time>2022-08-28T07:50:30Z</time>
      </trkpt>
      <trkpt lat="50.2764" lon="4.23518">
        <ele>207.840118</ele>
        <time>2022-08-28T07:50:32Z</time>
      </trkpt>
      <trkpt lat="50.27647" lon="4.23516">
        <ele>207.907471</ele>
        <time>2022-08-28T07:50:34Z</time>
      </trkpt>
      <trkpt lat="50.27653" lon="4.23514">
        <ele>207.985352</ele>
        <time>2022-08-28T07:50:36Z</time>
      </trkpt>
      <trkpt lat="50.27661" lon="4.23512">
        <ele>208.094818</ele>
        <time>2022-08-28T07:50:38Z</time>
      </trkpt>
      <trkpt lat="50.27668" lon="4.23508">
        <ele>208.233795</ele>
        <time>2022-08-28T07:50:40Z</time>
      </trkpt>
      <trkpt lat="50.27675" lon="4.23501">
        <ele>208.332474</ele>
        <time>2022-08-28T07:50:42Z</time>
      </trkpt>
      <trkpt lat="50.27679" lon="4.23485">
        <ele>208.466095</ele>
        <time>2022-08-28T07:50:44Z</time>
      </trkpt>
      <trkpt lat="50.27683" lon="4.2347">
        <ele>208.663971</ele>
        <time>2022-08-28T07:50:46Z</time>
      </trkpt>
      <trkpt lat="50.27683" lon="4.23454">
        <ele>208.756592</ele>
        <time>2022-08-28T07:50:48Z</time>
      </trkpt>
      <trkpt lat="50.27686" lon="4.2344">
        <ele>208.816452</ele>
        <time>2022-08-28T07:50:50Z</time>
      </trkpt>
      <trkpt lat="50.27688" lon="4.23424">
        <ele>208.909088</ele>
        <time>2022-08-28T07:50:52Z</time>
      </trkpt>
      <trkpt lat="50.27688" lon="4.23408">
        <ele>209.066971</ele>
        <time>2022-08-28T07:50:54Z</time>
      </trkpt>
      <trkpt lat="50.27687" lon="4.23391">
        <ele>209.176422</ele>
        <time>2022-08-28T07:50:56Z</time>
      </trkpt>
      <trkpt lat="50.27686" lon="4.23374">
        <ele>209.302704</ele>
        <time>2022-08-28T07:50:58Z</time>
      </trkpt>
      <trkpt lat="50.27684" lon="4.23358">
        <ele>209.342651</ele>
        <time>2022-08-28T07:51:00Z</time>
      </trkpt>
      <trkpt lat="50.27684" lon="4.2334">
        <ele>209.391037</ele>
        <time>2022-08-28T07:51:02Z</time>
      </trkpt>
      <trkpt lat="50.27683" lon="4.23323">
        <ele>209.494186</ele>
        <time>2022-08-28T07:51:04Z</time>
      </trkpt>
      <trkpt lat="50.27683" lon="4.23305">
        <ele>209.479416</ele>
        <time>2022-08-28T07:51:06Z</time>
      </trkpt>
      <trkpt lat="50.27682" lon="4.23288">
        <ele>209.511017</ele>
        <time>2022-08-28T07:51:08Z</time>
      </trkpt>
      <trkpt lat="50.27683" lon="4.23271">
        <ele>209.48645</ele>
        <time>2022-08-28T07:51:10Z</time>
      </trkpt>
      <trkpt lat="50.27683" lon="4.23253">
        <ele>209.496979</ele>
        <time>2022-08-28T07:51:12Z</time>
      </trkpt>
      <trkpt lat="50.27683" lon="4.23235">
        <ele>209.494873</ele>
        <time>2022-08-28T07:51:14Z</time>
      </trkpt>
      <trkpt lat="50.27684" lon="4.23217">
        <ele>209.532761</ele>
        <time>2022-08-28T07:51:16Z</time>
      </trkpt>
      <trkpt lat="50.27686" lon="4.23198">
        <ele>209.448563</ele>
        <time>2022-08-28T07:51:18Z</time>
      </trkpt>
      <trkpt lat="50.27688" lon="4.2318">
        <ele>209.464676</ele>
        <time>2022-08-28T07:51:20Z</time>
      </trkpt>
      <trkpt lat="50.27689" lon="4.2316">
        <ele>209.432159</ele>
        <time>2022-08-28T07:51:22Z</time>
      </trkpt>
      <trkpt lat="50.2769" lon="4.23141">
        <ele>209.414185</ele>
        <time>2022-08-28T07:51:24Z</time>
      </trkpt>
      <trkpt lat="50.27692" lon="4.23122">
        <ele>209.348907</ele>
        <time>2022-08-28T07:51:26Z</time>
      </trkpt>
      <trkpt lat="50.27694" lon="4.23103">
        <ele>209.329803</ele>
        <time>2022-08-28T07:51:28Z</time>
      </trkpt>
      <trkpt lat="50.27694" lon="4.23085">
        <ele>209.258224</ele>
        <time>2022-08-28T07:51:30Z</time>
      </trkpt>
      <trkpt lat="50.27696" lon="4.23066">
        <ele>209.20256</ele>
        <time>2022-08-28T07:51:32Z</time>
      </trkpt>
      <trkpt lat="50.27697" lon="4.23047">
        <ele>209.133087</ele>
        <time>2022-08-28T07:51:34Z</time>
      </trkpt>
      <trkpt lat="50.27699" lon="4.23027">
        <ele>209.128876</ele>
        <time>2022-08-28T07:51:36Z</time>
      </trkpt>
      <trkpt lat="50.27703" lon="4.23007">
        <ele>209.120453</ele>
        <time>2022-08-28T07:51:38Z</time>
      </trkpt>
      <trkpt lat="50.27707" lon="4.22988">
        <ele>209.105804</ele>
        <time>2022-08-28T07:51:40Z</time>
      </trkpt>
      <trkpt lat="50.27712" lon="4.22969">
        <ele>209.027908</ele>
        <time>2022-08-28T07:51:42Z</time>
      </trkpt>
      <trkpt lat="50.27716" lon="4.2295">
        <ele>209.063675</ele>
        <time>2022-08-28T07:51:44Z</time>
      </trkpt>
      <trkpt lat="50.27721" lon="4.22931">
        <ele>209.080521</ele>
        <time>2022-08-28T07:51:46Z</time>
      </trkpt>
      <trkpt lat="50.27726" lon="4.22913">
        <ele>209.034225</ele>
        <time>2022-08-28T07:51:48Z</time>
      </trkpt>
      <trkpt lat="50.27733" lon="4.22896">
        <ele>209.032104</ele>
        <time>2022-08-28T07:51:50Z</time>
      </trkpt>
      <trkpt lat="50.27742" lon="4.22881">
        <ele>209.052567</ele>
        <time>2022-08-28T07:51:52Z</time>
      </trkpt>
      <trkpt lat="50.27753" lon="4.2287">
        <ele>209.073166</ele>
        <time>2022-08-28T07:51:54Z</time>
      </trkpt>
      <trkpt lat="50.27765" lon="4.2286">
        <ele>209.040573</ele>
        <time>2022-08-28T07:51:56Z</time>
      </trkpt>
      <trkpt lat="50.27776" lon="4.22852">
        <ele>209.074265</ele>
        <time>2022-08-28T07:51:58Z</time>
      </trkpt>
      <trkpt lat="50.27787" lon="4.22846">
        <ele>208.976044</ele>
        <time>2022-08-28T07:52:00Z</time>
      </trkpt>
      <trkpt lat="50.27799" lon="4.22837">
        <ele>208.907471</ele>
        <time>2022-08-28T07:52:02Z</time>
      </trkpt>
      <trkpt lat="50.27808" lon="4.22827">
        <ele>208.899048</ele>
        <time>2022-08-28T07:52:04Z</time>
      </trkpt>
      <trkpt lat="50.27819" lon="4.22817">
        <ele>208.858353</ele>
        <time>2022-08-28T07:52:06Z</time>
      </trkpt>
      <trkpt lat="50.27828" lon="4.22804">
        <ele>208.824554</ele>
        <time>2022-08-28T07:52:08Z</time>
      </trkpt>
      <trkpt lat="50.27837" lon="4.22793">
        <ele>208.881561</ele>
        <time>2022-08-28T07:52:10Z</time>
      </trkpt>
      <trkpt lat="50.27846" lon="4.22781">
        <ele>208.955246</ele>
        <time>2022-08-28T07:52:12Z</time>
      </trkpt>
      <trkpt lat="50.27856" lon="4.22769">
        <ele>208.942627</ele>
        <time>2022-08-28T07:52:14Z</time>
      </trkpt>
      <trkpt lat="50.27866" lon="4.2276">
        <ele>208.925781</ele>
        <time>2022-08-28T07:52:16Z</time>
      </trkpt>
      <trkpt lat="50.27876" lon="4.22751">
        <ele>208.898407</ele>
        <time>2022-08-28T07:52:18Z</time>
      </trkpt>
      <trkpt lat="50.27886" lon="4.22742">
        <ele>208.812088</ele>
        <time>2022-08-28T07:52:20Z</time>
      </trkpt>
      <trkpt lat="50.27895" lon="4.22729">
        <ele>208.900513</ele>
        <time>2022-08-28T07:52:22Z</time>
      </trkpt>
      <trkpt lat="50.27902" lon="4.22714">
        <ele>208.942627</ele>
        <time>2022-08-28T07:52:24Z</time>
      </trkpt>
      <trkpt lat="50.27907" lon="4.22697">
        <ele>208.883698</ele>
        <time>2022-08-28T07:52:26Z</time>
      </trkpt>
      <trkpt lat="50.2791" lon="4.22677">
        <ele>208.917358</ele>
        <time>2022-08-28T07:52:28Z</time>
      </trkpt>
      <trkpt lat="50.2791" lon="4.22656">
        <ele>208.915253</ele>
        <time>2022-08-28T07:52:30Z</time>
      </trkpt>
      <trkpt lat="50.27912" lon="4.22637">
        <ele>208.885788</ele>
        <time>2022-08-28T07:52:32Z</time>
      </trkpt>
      <trkpt lat="50.27913" lon="4.22617">
        <ele>208.899017</ele>
        <time>2022-08-28T07:52:34Z</time>
      </trkpt>
      <trkpt lat="50.27913" lon="4.22598">
        <ele>208.875443</ele>
        <time>2022-08-28T07:52:36Z</time>
      </trkpt>
      <trkpt lat="50.27913" lon="4.22579">
        <ele>208.826294</ele>
        <time>2022-08-28T07:52:38Z</time>
      </trkpt>
      <trkpt lat="50.27916" lon="4.2256">
        <ele>208.82901</ele>
        <time>2022-08-28T07:52:40Z</time>
      </trkpt>
      <trkpt lat="50.27919" lon="4.22541">
        <ele>208.855499</ele>
        <time>2022-08-28T07:52:42Z</time>
      </trkpt>
      <trkpt lat="50.27922" lon="4.22522">
        <ele>208.713303</ele>
        <time>2022-08-28T07:52:44Z</time>
      </trkpt>
      <trkpt lat="50.27925" lon="4.22503">
        <ele>208.631226</ele>
        <time>2022-08-28T07:52:46Z</time>
      </trkpt>
      <trkpt lat="50.27927" lon="4.22483">
        <ele>208.559662</ele>
        <time>2022-08-28T07:52:48Z</time>
      </trkpt>
      <trkpt lat="50.2793" lon="4.22464">
        <ele>208.4039</ele>
        <time>2022-08-28T07:52:50Z</time>
      </trkpt>
      <trkpt lat="50.27932" lon="4.22446">
        <ele>208.155518</ele>
        <time>2022-08-28T07:52:52Z</time>
      </trkpt>
      <trkpt lat="50.27935" lon="4.22427">
        <ele>208.054718</ele>
        <time>2022-08-28T07:52:54Z</time>
      </trkpt>
      <trkpt lat="50.27937" lon="4.22408">
        <ele>207.781097</ele>
        <time>2022-08-28T07:52:56Z</time>
      </trkpt>
      <trkpt lat="50.2794" lon="4.22389">
        <ele>207.585373</ele>
        <time>2022-08-28T07:52:58Z</time>
      </trkpt>
      <trkpt lat="50.27941" lon="4.22369">
        <ele>207.419098</ele>
        <time>2022-08-28T07:53:00Z</time>
      </trkpt>
      <trkpt lat="50.27942" lon="4.22349">
        <ele>207.109695</ele>
        <time>2022-08-28T07:53:02Z</time>
      </trkpt>
      <trkpt lat="50.27942" lon="4.22328">
        <ele>206.861359</ele>
        <time>2022-08-28T07:53:04Z</time>
      </trkpt>
      <trkpt lat="50.27941" lon="4.22307">
        <ele>206.587738</ele>
        <time>2022-08-28T07:53:05Z</time>
      </trkpt>
      <trkpt lat="50.2794" lon="4.22285">
        <ele>206.314178</ele>
        <time>2022-08-28T07:53:08Z</time>
      </trkpt>
      <trkpt lat="50.27939" lon="4.22264">
        <ele>206.137405</ele>
        <time>2022-08-28T07:53:10Z</time>
      </trkpt>
      <trkpt lat="50.27938" lon="4.22243">
        <ele>205.842804</ele>
        <time>2022-08-28T07:53:12Z</time>
      </trkpt>
      <trkpt lat="50.27937" lon="4.22221">
        <ele>205.436646</ele>
        <time>2022-08-28T07:53:14Z</time>
      </trkpt>
      <trkpt lat="50.27936" lon="4.22201">
        <ele>205.036865</ele>
        <time>2022-08-28T07:53:16Z</time>
      </trkpt>
      <trkpt lat="50.27935" lon="4.22182">
        <ele>204.57489</ele>
        <time>2022-08-28T07:53:18Z</time>
      </trkpt>
      <trkpt lat="50.27934" lon="4.22165">
        <ele>204.157898</ele>
        <time>2022-08-28T07:53:20Z</time>
      </trkpt>
      <trkpt lat="50.27933" lon="4.2215">
        <ele>203.801697</ele>
        <time>2022-08-28T07:53:22Z</time>
      </trkpt>
      <trkpt lat="50.27937" lon="4.22137">
        <ele>203.373383</ele>
        <time>2022-08-28T07:53:24Z</time>
      </trkpt>
      <trkpt lat="50.27944" lon="4.2213">
        <ele>202.918015</ele>
        <time>2022-08-28T07:53:26Z</time>
      </trkpt>
      <trkpt lat="50.27951" lon="4.2212">
        <ele>202.514069</ele>
        <time>2022-08-28T07:53:28Z</time>
      </trkpt>
      <trkpt lat="50.27959" lon="4.22109">
        <ele>202.042862</ele>
        <time>2022-08-28T07:53:30Z</time>
      </trkpt>
      <trkpt lat="50.27967" lon="4.22098">
        <ele>201.636841</ele>
        <time>2022-08-28T07:53:32Z</time>
      </trkpt>
      <trkpt lat="50.27975" lon="4.22086">
        <ele>201.151001</ele>
        <time>2022-08-28T07:53:34Z</time>
      </trkpt>
      <trkpt lat="50.27983" lon="4.22073">
        <ele>200.657562</ele>
        <time>2022-08-28T07:53:36Z</time>
      </trkpt>
      <trkpt lat="50.27992" lon="4.2206">
        <ele>200.146439</ele>
        <time>2022-08-28T07:53:38Z</time>
      </trkpt>
      <trkpt lat="50.28002" lon="4.22048">
        <ele>199.631165</ele>
        <time>2022-08-28T07:53:40Z</time>
      </trkpt>
      <trkpt lat="50.28013" lon="4.22038">
        <ele>198.920334</ele>
        <time>2022-08-28T07:53:42Z</time>
      </trkpt>
      <trkpt lat="50.28025" lon="4.2203">
        <ele>198.33371</ele>
        <time>2022-08-28T07:53:44Z</time>
      </trkpt>
      <trkpt lat="50.28038" lon="4.22023">
        <ele>197.631393</ele>
        <time>2022-08-28T07:53:46Z</time>
      </trkpt>
      <trkpt lat="50.28051" lon="4.22018">
        <ele>197.223419</ele>
        <time>2022-08-28T07:53:48Z</time>
      </trkpt>
      <trkpt lat="50.28064" lon="4.22014">
        <ele>196.447723</ele>
        <time>2022-08-28T07:53:50Z</time>
      </trkpt>
      <trkpt lat="50.28079" lon="4.2201">
        <ele>195.873734</ele>
        <time>2022-08-28T07:53:52Z</time>
      </trkpt>
      <trkpt lat="50.28092" lon="4.22007">
        <ele>195.533173</ele>
        <time>2022-08-28T07:53:54Z</time>
      </trkpt>
      <trkpt lat="50.28105" lon="4.22005">
        <ele>194.915131</ele>
        <time>2022-08-28T07:53:56Z</time>
      </trkpt>
      <trkpt lat="50.28114" lon="4.22005">
        <ele>194.368607</ele>
        <time>2022-08-28T07:53:58Z</time>
      </trkpt>
      <trkpt lat="50.28124" lon="4.22004">
        <ele>193.330856</ele>
        <time>2022-08-28T07:54:00Z</time>
      </trkpt>
      <trkpt lat="50.28133" lon="4.21999">
        <ele>192.635132</ele>
        <time>2022-08-28T07:54:02Z</time>
      </trkpt>
      <trkpt lat="50.28141" lon="4.21991">
        <ele>192.04306</ele>
        <time>2022-08-28T07:54:04Z</time>
      </trkpt>
      <trkpt lat="50.28148" lon="4.21982">
        <ele>191.341156</ele>
        <time>2022-08-28T07:54:06Z</time>
      </trkpt>
      <trkpt lat="50.28154" lon="4.21972">
        <ele>190.735916</ele>
        <time>2022-08-28T07:54:08Z</time>
      </trkpt>
      <trkpt lat="50.28159" lon="4.21959">
        <ele>190.10405</ele>
        <time>2022-08-28T07:54:10Z</time>
      </trkpt>
      <trkpt lat="50.28166" lon="4.21948">
        <ele>189.162766</ele>
        <time>2022-08-28T07:54:12Z</time>
      </trkpt>
      <trkpt lat="50.28172" lon="4.21935">
        <ele>188.610107</ele>
        <time>2022-08-28T07:54:14Z</time>
      </trkpt>
      <trkpt lat="50.28179" lon="4.21922">
        <ele>188.017822</ele>
        <time>2022-08-28T07:54:16Z</time>
      </trkpt>
      <trkpt lat="50.28186" lon="4.21909">
        <ele>187.153641</ele>
        <time>2022-08-28T07:54:18Z</time>
      </trkpt>
      <trkpt lat="50.28193" lon="4.21895">
        <ele>186.349045</ele>
        <time>2022-08-28T07:54:20Z</time>
      </trkpt>
      <trkpt lat="50.28198" lon="4.21884">
        <ele>185.693726</ele>
        <time>2022-08-28T07:54:22Z</time>
      </trkpt>
      <trkpt lat="50.28202" lon="4.21876">
        <ele>185.111847</ele>
        <time>2022-08-28T07:54:24Z</time>
      </trkpt>
      <trkpt lat="50.28206" lon="4.21867">
        <ele>184.662399</ele>
        <time>2022-08-28T07:54:26Z</time>
      </trkpt>
      <trkpt lat="50.2821" lon="4.21856">
        <ele>184.334717</ele>
        <time>2022-08-28T07:54:28Z</time>
      </trkpt>
      <trkpt lat="50.28216" lon="4.21846">
        <ele>183.45668</ele>
        <time>2022-08-28T07:54:30Z</time>
      </trkpt>
      <trkpt lat="50.28221" lon="4.21839">
        <ele>183.039703</ele>
        <time>2022-08-28T07:54:32Z</time>
      </trkpt>
      <trkpt lat="50.28224" lon="4.21833">
        <ele>182.394974</ele>
        <time>2022-08-28T07:54:34Z</time>
      </trkpt>
      <trkpt lat="50.28228" lon="4.21827">
        <ele>181.864059</ele>
        <time>2022-08-28T07:54:36Z</time>
      </trkpt>
      <trkpt lat="50.28233" lon="4.21819">
        <ele>181.234833</ele>
        <time>2022-08-28T07:54:38Z</time>
      </trkpt>
      <trkpt lat="50.28239" lon="4.21808">
        <ele>181.026855</ele>
        <time>2022-08-28T07:54:40Z</time>
      </trkpt>
      <trkpt lat="50.28246" lon="4.21794">
        <ele>180.371658</ele>
        <time>2022-08-28T07:54:42Z</time>
      </trkpt>
      <trkpt lat="50.28254" lon="4.21781">
        <ele>179.438141</ele>
        <time>2022-08-28T07:54:44Z</time>
      </trkpt>
      <trkpt lat="50.28262" lon="4.21767">
        <ele>178.289825</ele>
        <time>2022-08-28T07:54:46Z</time>
      </trkpt>
      <trkpt lat="50.2827" lon="4.21753">
        <ele>177.819656</ele>
        <time>2022-08-28T07:54:48Z</time>
      </trkpt>
      <trkpt lat="50.28278" lon="4.21738">
        <ele>177.233231</ele>
        <time>2022-08-28T07:54:50Z</time>
      </trkpt>
      <trkpt lat="50.28286" lon="4.21723">
        <ele>176.639328</ele>
        <time>2022-08-28T07:54:52Z</time>
      </trkpt>
      <trkpt lat="50.28294" lon="4.21709">
        <ele>176.057938</ele>
        <time>2022-08-28T07:54:54Z</time>
      </trkpt>
      <trkpt lat="50.28302" lon="4.21694">
        <ele>175.383759</ele>
        <time>2022-08-28T07:54:56Z</time>
      </trkpt>
      <trkpt lat="50.28311" lon="4.2168">
        <ele>174.985062</ele>
        <time>2022-08-28T07:54:58Z</time>
      </trkpt>
      <trkpt lat="50.28319" lon="4.21666">
        <ele>174.682922</ele>
        <time>2022-08-28T07:55:00Z</time>
      </trkpt>
      <trkpt lat="50.28327" lon="4.21653">
        <ele>174.198212</ele>
        <time>2022-08-28T07:55:02Z</time>
      </trkpt>
      <trkpt lat="50.28335" lon="4.21639">
        <ele>173.440948</ele>
        <time>2022-08-28T07:55:04Z</time>
      </trkpt>
      <trkpt lat="50.28344" lon="4.21625">
        <ele>172.797104</ele>
        <time>2022-08-28T07:55:06Z</time>
      </trkpt>
      <trkpt lat="50.28352" lon="4.21611">
        <ele>172.14595</ele>
        <time>2022-08-28T07:55:08Z</time>
      </trkpt>
      <trkpt lat="50.2836" lon="4.21598">
        <ele>171.690735</ele>
        <time>2022-08-28T07:55:10Z</time>
      </trkpt>
      <trkpt lat="50.28367" lon="4.21585">
        <ele>171.276535</ele>
        <time>2022-08-28T07:55:12Z</time>
      </trkpt>
      <trkpt lat="50.28373" lon="4.21571">
        <ele>170.923553</ele>
        <time>2022-08-28T07:55:14Z</time>
      </trkpt>
      <trkpt lat="50.2838" lon="4.21557">
        <ele>170.707123</ele>
        <time>2022-08-28T07:55:16Z</time>
      </trkpt>
      <trkpt lat="50.28386" lon="4.21543">
        <ele>170.307892</ele>
        <time>2022-08-28T07:55:18Z</time>
      </trkpt>
      <trkpt lat="50.28392" lon="4.21528">
        <ele>170.035233</ele>
        <time>2022-08-28T07:55:20Z</time>
      </trkpt>
      <trkpt lat="50.28398" lon="4.21514">
        <ele>169.812943</ele>
        <time>2022-08-28T07:55:22Z</time>
      </trkpt>
      <trkpt lat="50.28404" lon="4.21499">
        <ele>169.372467</ele>
        <time>2022-08-28T07:55:24Z</time>
      </trkpt>
      <trkpt lat="50.28411" lon="4.21484">
        <ele>169.684692</ele>
        <time>2022-08-28T07:55:26Z</time>
      </trkpt>
      <trkpt lat="50.28418" lon="4.21468">
        <ele>169.866974</ele>
        <time>2022-08-28T07:55:28Z</time>
      </trkpt>
      <trkpt lat="50.28424" lon="4.21453">
        <ele>169.516693</ele>
        <time>2022-08-28T07:55:30Z</time>
      </trkpt>
      <trkpt lat="50.28431" lon="4.21437">
        <ele>169.317413</ele>
        <time>2022-08-28T07:55:32Z</time>
      </trkpt>
      <trkpt lat="50.28438" lon="4.21421">
        <ele>169.046875</ele>
        <time>2022-08-28T07:55:34Z</time>
      </trkpt>
      <trkpt lat="50.28445" lon="4.21405">
        <ele>169.143356</ele>
        <time>2022-08-28T07:55:36Z</time>
      </trkpt>
      <trkpt lat="50.28451" lon="4.21389">
        <ele>169.007034</ele>
        <time>2022-08-28T07:55:38Z</time>
      </trkpt>
      <trkpt lat="50.28458" lon="4.21373">
        <ele>168.956207</ele>
        <time>2022-08-28T07:55:40Z</time>
      </trkpt>
      <trkpt lat="50.28466" lon="4.21356">
        <ele>168.834564</ele>
        <time>2022-08-28T07:55:42Z</time>
      </trkpt>
      <trkpt lat="50.28473" lon="4.2134">
        <ele>168.756989</ele>
        <time>2022-08-28T07:55:44Z</time>
      </trkpt>
      <trkpt lat="50.2848" lon="4.21325">
        <ele>168.807404</ele>
        <time>2022-08-28T07:55:46Z</time>
      </trkpt>
      <trkpt lat="50.28486" lon="4.21311">
        <ele>168.686615</ele>
        <time>2022-08-28T07:55:48Z</time>
      </trkpt>
      <trkpt lat="50.28493" lon="4.21297">
        <ele>168.799835</ele>
        <time>2022-08-28T07:55:50Z</time>
      </trkpt>
      <trkpt lat="50.285" lon="4.21284">
        <ele>168.730621</ele>
        <time>2022-08-28T07:55:52Z</time>
      </trkpt>
      <trkpt lat="50.28508" lon="4.21271">
        <ele>168.567062</ele>
        <time>2022-08-28T07:55:54Z</time>
      </trkpt>
      <trkpt lat="50.28516" lon="4.21259">
        <ele>168.563339</ele>
        <time>2022-08-28T07:55:56Z</time>
      </trkpt>
      <trkpt lat="50.28524" lon="4.21246">
        <ele>168.244659</ele>
        <time>2022-08-28T07:55:58Z</time>
      </trkpt>
      <trkpt lat="50.28531" lon="4.21233">
        <ele>168.19014</ele>
        <time>2022-08-28T07:56:00Z</time>
      </trkpt>
      <trkpt lat="50.28538" lon="4.2122">
        <ele>168.171448</ele>
        <time>2022-08-28T07:56:02Z</time>
      </trkpt>
      <trkpt lat="50.28546" lon="4.21208">
        <ele>168.022949</ele>
        <time>2022-08-28T07:56:04Z</time>
      </trkpt>
      <trkpt lat="50.28553" lon="4.21195">
        <ele>167.927902</ele>
        <time>2022-08-28T07:56:06Z</time>
      </trkpt>
      <trkpt lat="50.2856" lon="4.21182">
        <ele>167.732635</ele>
        <time>2022-08-28T07:56:08Z</time>
      </trkpt>
      <trkpt lat="50.28568" lon="4.21169">
        <ele>167.600571</ele>
        <time>2022-08-28T07:56:10Z</time>
      </trkpt>
      <trkpt lat="50.28576" lon="4.21157">
        <ele>167.491211</ele>
        <time>2022-08-28T07:56:12Z</time>
      </trkpt>
      <trkpt lat="50.28583" lon="4.21145">
        <ele>167.480713</ele>
        <time>2022-08-28T07:56:14Z</time>
      </trkpt>
      <trkpt lat="50.2859" lon="4.21132">
        <ele>167.107452</ele>
        <time>2022-08-28T07:56:16Z</time>
      </trkpt>
      <trkpt lat="50.28597" lon="4.2112">
        <ele>166.728012</ele>
        <time>2022-08-28T07:56:18Z</time>
      </trkpt>
      <trkpt lat="50.28605" lon="4.21108">
        <ele>166.444977</ele>
        <time>2022-08-28T07:56:20Z</time>
      </trkpt>
      <trkpt lat="50.28612" lon="4.21096">
        <ele>166.235794</ele>
        <time>2022-08-28T07:56:22Z</time>
      </trkpt>
      <trkpt lat="50.28619" lon="4.21084">
        <ele>166.151932</ele>
        <time>2022-08-28T07:56:24Z</time>
      </trkpt>
      <trkpt lat="50.28627" lon="4.21072">
        <ele>166.040817</ele>
        <time>2022-08-28T07:56:26Z</time>
      </trkpt>
      <trkpt lat="50.28635" lon="4.21061">
        <ele>165.811905</ele>
        <time>2022-08-28T07:56:28Z</time>
      </trkpt>
      <trkpt lat="50.28643" lon="4.2105">
        <ele>165.704987</ele>
        <time>2022-08-28T07:56:30Z</time>
      </trkpt>
      <trkpt lat="50.28651" lon="4.21039">
        <ele>165.457596</ele>
        <time>2022-08-28T07:56:32Z</time>
      </trkpt>
      <trkpt lat="50.2866" lon="4.21029">
        <ele>165.421951</ele>
        <time>2022-08-28T07:56:34Z</time>
      </trkpt>
      <trkpt lat="50.28668" lon="4.21019">
        <ele>165.367462</ele>
        <time>2022-08-28T07:56:36Z</time>
      </trkpt>
      <trkpt lat="50.28676" lon="4.21009">
        <ele>164.99437</ele>
        <time>2022-08-28T07:56:38Z</time>
      </trkpt>
      <trkpt lat="50.28684" lon="4.20999">
        <ele>164.837158</ele>
        <time>2022-08-28T07:56:40Z</time>
      </trkpt>
      <trkpt lat="50.28691" lon="4.20991">
        <ele>164.664932</ele>
        <time>2022-08-28T07:56:42Z</time>
      </trkpt>
      <trkpt lat="50.28698" lon="4.20982">
        <ele>164.538757</ele>
        <time>2022-08-28T07:56:44Z</time>
      </trkpt>
      <trkpt lat="50.28705" lon="4.20974">
        <ele>164.438843</ele>
        <time>2022-08-28T07:56:46Z</time>
      </trkpt>
      <trkpt lat="50.28712" lon="4.20967">
        <ele>164.447479</ele>
        <time>2022-08-28T07:56:48Z</time>
      </trkpt>
      <trkpt lat="50.28719" lon="4.20959">
        <ele>164.323822</ele>
        <time>2022-08-28T07:56:50Z</time>
      </trkpt>
      <trkpt lat="50.28726" lon="4.20951">
        <ele>164.166962</ele>
        <time>2022-08-28T07:56:52Z</time>
      </trkpt>
      <trkpt lat="50.28734" lon="4.20942">
        <ele>164.016083</ele>
        <time>2022-08-28T07:56:54Z</time>
      </trkpt>
      <trkpt lat="50.28742" lon="4.20934">
        <ele>163.875626</ele>
        <time>2022-08-28T07:56:56Z</time>
      </trkpt>
      <trkpt lat="50.2875" lon="4.20924">
        <ele>163.787613</ele>
        <time>2022-08-28T07:56:58Z</time>
      </trkpt>
      <trkpt lat="50.28758" lon="4.20914">
        <ele>163.942764</ele>
        <time>2022-08-28T07:57:00Z</time>
      </trkpt>
      <trkpt lat="50.28766" lon="4.20902">
        <ele>163.886169</ele>
        <time>2022-08-28T07:57:02Z</time>
      </trkpt>
      <trkpt lat="50.28774" lon="4.20892">
        <ele>163.858795</ele>
        <time>2022-08-28T07:57:04Z</time>
      </trkpt>
      <trkpt lat="50.28784" lon="4.20886">
        <ele>163.822418</ele>
        <time>2022-08-28T07:57:06Z</time>
      </trkpt>
      <trkpt lat="50.28795" lon="4.20883">
        <ele>163.736481</ele>
        <time>2022-08-28T07:57:08Z</time>
      </trkpt>
      <trkpt lat="50.28805" lon="4.20881">
        <ele>163.671509</ele>
        <time>2022-08-28T07:57:10Z</time>
      </trkpt>
      <trkpt lat="50.28816" lon="4.2088">
        <ele>163.589737</ele>
        <time>2022-08-28T07:57:12Z</time>
      </trkpt>
      <trkpt lat="50.28827" lon="4.20879">
        <ele>163.43219</ele>
        <time>2022-08-28T07:57:14Z</time>
      </trkpt>
      <trkpt lat="50.28838" lon="4.20877">
        <ele>163.363007</ele>
        <time>2022-08-28T07:57:16Z</time>
      </trkpt>
      <trkpt lat="50.2885" lon="4.20875">
        <ele>163.308517</ele>
        <time>2022-08-28T07:57:18Z</time>
      </trkpt>
      <trkpt lat="50.2886" lon="4.20874">
        <ele>163.189117</ele>
        <time>2022-08-28T07:57:20Z</time>
      </trkpt>
      <trkpt lat="50.28871" lon="4.20872">
        <ele>163.050812</ele>
        <time>2022-08-28T07:57:22Z</time>
      </trkpt>
      <trkpt lat="50.28881" lon="4.20872">
        <ele>162.967102</ele>
        <time>2022-08-28T07:57:24Z</time>
      </trkpt>
      <trkpt lat="50.2889" lon="4.20873">
        <ele>162.832962</ele>
        <time>2022-08-28T07:57:26Z</time>
      </trkpt>
      <trkpt lat="50.28897" lon="4.20871">
        <ele>162.696716</ele>
        <time>2022-08-28T07:57:28Z</time>
      </trkpt>
      <trkpt lat="50.289" lon="4.20862">
        <ele>162.621246</ele>
        <time>2022-08-28T07:57:30Z</time>
      </trkpt>
      <trkpt lat="50.28899" lon="4.20854">
        <ele>162.597504</ele>
        <time>2022-08-28T07:57:32Z</time>
      </trkpt>
      <trkpt lat="50.28895" lon="4.2085">
        <ele>162.626938</ele>
        <time>2022-08-28T07:57:34Z</time>
      </trkpt>
      <trkpt lat="50.28889" lon="4.2084">
        <ele>162.467484</ele>
        <time>2022-08-28T07:57:36Z</time>
      </trkpt>
      <trkpt lat="50.28883" lon="4.20828">
        <ele>162.356445</ele>
        <time>2022-08-28T07:57:38Z</time>
      </trkpt>
      <trkpt lat="50.28876" lon="4.20817">
        <ele>162.226593</ele>
        <time>2022-08-28T07:57:40Z</time>
      </trkpt>
      <trkpt lat="50.2887" lon="4.20805">
        <ele>162.070221</ele>
        <time>2022-08-28T07:57:42Z</time>
      </trkpt>
      <trkpt lat="50.28863" lon="4.20794">
        <ele>162.022125</ele>
        <time>2022-08-28T07:57:44Z</time>
      </trkpt>
      <trkpt lat="50.28857" lon="4.20782">
        <ele>161.926483</ele>
        <time>2022-08-28T07:57:46Z</time>
      </trkpt>
      <trkpt lat="50.28851" lon="4.2077">
        <ele>161.79863</ele>
        <time>2022-08-28T07:57:48Z</time>
      </trkpt>
      <trkpt lat="50.28845" lon="4.20757">
        <ele>161.798645</ele>
        <time>2022-08-28T07:57:50Z</time>
      </trkpt>
      <trkpt lat="50.28838" lon="4.20744">
        <ele>161.706512</ele>
        <time>2022-08-28T07:57:52Z</time>
      </trkpt>
      <trkpt lat="50.28832" lon="4.20731">
        <ele>161.685898</ele>
        <time>2022-08-28T07:57:54Z</time>
      </trkpt>
      <trkpt lat="50.28825" lon="4.20717">
        <ele>161.663406</ele>
        <time>2022-08-28T07:57:56Z</time>
      </trkpt>
      <trkpt lat="50.28819" lon="4.20704">
        <ele>161.62999</ele>
        <time>2022-08-28T07:57:58Z</time>
      </trkpt>
      <trkpt lat="50.28812" lon="4.2069">
        <ele>162.151978</ele>
        <time>2022-08-28T07:58:00Z</time>
      </trkpt>
      <trkpt lat="50.28805" lon="4.20677">
        <ele>162.16214</ele>
        <time>2022-08-28T07:58:02Z</time>
      </trkpt>
      <trkpt lat="50.28798" lon="4.20664">
        <ele>162.097153</ele>
        <time>2022-08-28T07:58:04Z</time>
      </trkpt>
      <trkpt lat="50.28791" lon="4.2065">
        <ele>162.189362</ele>
        <time>2022-08-28T07:58:06Z</time>
      </trkpt>
      <trkpt lat="50.28784" lon="4.20637">
        <ele>162.132782</ele>
        <time>2022-08-28T07:58:08Z</time>
      </trkpt>
      <trkpt lat="50.28777" lon="4.20623">
        <ele>161.996582</ele>
        <time>2022-08-28T07:58:10Z</time>
      </trkpt>
      <trkpt lat="50.28769" lon="4.20609">
        <ele>161.927444</ele>
        <time>2022-08-28T07:58:12Z</time>
      </trkpt>
      <trkpt lat="50.28762" lon="4.20595">
        <ele>162.049698</ele>
        <time>2022-08-28T07:58:14Z</time>
      </trkpt>
      <trkpt lat="50.28754" lon="4.20581">
        <ele>161.988831</ele>
        <time>2022-08-28T07:58:16Z</time>
      </trkpt>
      <trkpt lat="50.28746" lon="4.20567">
        <ele>161.89682</ele>
        <time>2022-08-28T07:58:18Z</time>
      </trkpt>
      <trkpt lat="50.28737" lon="4.20553">
        <ele>162.016098</ele>
        <time>2022-08-28T07:58:20Z</time>
      </trkpt>
      <trkpt lat="50.28729" lon="4.20538">
        <ele>162.000595</ele>
        <time>2022-08-28T07:58:22Z</time>
      </trkpt>
      <trkpt lat="50.28721" lon="4.20524">
        <ele>161.778503</ele>
        <time>2022-08-28T07:58:24Z</time>
      </trkpt>
      <trkpt lat="50.28713" lon="4.2051">
        <ele>161.590775</ele>
        <time>2022-08-28T07:58:26Z</time>
      </trkpt>
      <trkpt lat="50.28704" lon="4.20496">
        <ele>161.801163</ele>
        <time>2022-08-28T07:58:28Z</time>
      </trkpt>
      <trkpt lat="50.28696" lon="4.20482">
        <ele>161.778107</ele>
        <time>2022-08-28T07:58:30Z</time>
      </trkpt>
      <trkpt lat="50.28687" lon="4.20468">
        <ele>161.839508</ele>
        <time>2022-08-28T07:58:32Z</time>
      </trkpt>
      <trkpt lat="50.28678" lon="4.20454">
        <ele>161.988297</ele>
        <time>2022-08-28T07:58:34Z</time>
      </trkpt>
      <trkpt lat="50.2867" lon="4.2044">
        <ele>161.992477</ele>
        <time>2022-08-28T07:58:36Z</time>
      </trkpt>
      <trkpt lat="50.28662" lon="4.20425">
        <ele>161.933258</ele>
        <time>2022-08-28T07:58:38Z</time>
      </trkpt>
      <trkpt lat="50.28653" lon="4.20411">
        <ele>161.889725</ele>
        <time>2022-08-28T07:58:40Z</time>
      </trkpt>
      <trkpt lat="50.28645" lon="4.20397">
        <ele>161.573532</ele>
        <time>2022-08-28T07:58:42Z</time>
      </trkpt>
      <trkpt lat="50.28637" lon="4.20383">
        <ele>161.657318</ele>
        <time>2022-08-28T07:58:44Z</time>
      </trkpt>
      <trkpt lat="50.28629" lon="4.2037">
        <ele>161.726471</ele>
        <time>2022-08-28T07:58:46Z</time>
      </trkpt>
      <trkpt lat="50.28621" lon="4.20356">
        <ele>161.602829</ele>
        <time>2022-08-28T07:58:48Z</time>
      </trkpt>
      <trkpt lat="50.28613" lon="4.20343">
        <ele>161.655197</ele>
        <time>2022-08-28T07:58:50Z</time>
      </trkpt>
      <trkpt lat="50.28605" lon="4.20329">
        <ele>161.701294</ele>
        <time>2022-08-28T07:58:52Z</time>
      </trkpt>
      <trkpt lat="50.28597" lon="4.20315">
        <ele>161.527374</ele>
        <time>2022-08-28T07:58:54Z</time>
      </trkpt>
      <trkpt lat="50.28589" lon="4.20301">
        <ele>161.560913</ele>
        <time>2022-08-28T07:58:56Z</time>
      </trkpt>
      <trkpt lat="50.2858" lon="4.20287">
        <ele>161.820831</ele>
        <time>2022-08-28T07:58:58Z</time>
      </trkpt>
      <trkpt lat="50.28572" lon="4.20273">
        <ele>161.808258</ele>
        <time>2022-08-28T07:59:00Z</time>
      </trkpt>
      <trkpt lat="50.28564" lon="4.2026">
        <ele>161.873199</ele>
        <time>2022-08-28T07:59:02Z</time>
      </trkpt>
      <trkpt lat="50.28556" lon="4.20246">
        <ele>161.967499</ele>
        <time>2022-08-28T07:59:04Z</time>
      </trkpt>
      <trkpt lat="50.28548" lon="4.20232">
        <ele>162.193771</ele>
        <time>2022-08-28T07:59:06Z</time>
      </trkpt>
      <trkpt lat="50.2854" lon="4.20218">
        <ele>162.190826</ele>
        <time>2022-08-28T07:59:08Z</time>
      </trkpt>
      <trkpt lat="50.28533" lon="4.20204">
        <ele>161.921783</ele>
        <time>2022-08-28T07:59:10Z</time>
      </trkpt>
      <trkpt lat="50.28525" lon="4.2019">
        <ele>161.919052</ele>
        <time>2022-08-28T07:59:12Z</time>
      </trkpt>
      <trkpt lat="50.28517" lon="4.20176">
        <ele>161.747101</ele>
        <time>2022-08-28T07:59:14Z</time>
      </trkpt>
      <trkpt lat="50.28509" lon="4.20162">
        <ele>161.770615</ele>
        <time>2022-08-28T07:59:16Z</time>
      </trkpt>
      <trkpt lat="50.28502" lon="4.20148">
        <ele>161.806244</ele>
        <time>2022-08-28T07:59:18Z</time>
      </trkpt>
      <trkpt lat="50.28495" lon="4.20134">
        <ele>161.872482</ele>
        <time>2022-08-28T07:59:20Z</time>
      </trkpt>
      <trkpt lat="50.28489" lon="4.20119">
        <ele>161.90332</ele>
        <time>2022-08-28T07:59:22Z</time>
      </trkpt>
      <trkpt lat="50.28483" lon="4.20106">
        <ele>161.827713</ele>
        <time>2022-08-28T07:59:24Z</time>
      </trkpt>
      <trkpt lat="50.28478" lon="4.20092">
        <ele>161.787933</ele>
        <time>2022-08-28T07:59:26Z</time>
      </trkpt>
      <trkpt lat="50.28469" lon="4.20076">
        <ele>161.93042</ele>
        <time>2022-08-28T07:59:28Z</time>
      </trkpt>
      <trkpt lat="50.28462" lon="4.2006">
        <ele>161.987747</ele>
        <time>2022-08-28T07:59:30Z</time>
      </trkpt>
      <trkpt lat="50.28457" lon="4.20045">
        <ele>162.043701</ele>
        <time>2022-08-28T07:59:32Z</time>
      </trkpt>
      <trkpt lat="50.28451" lon="4.2003">
        <ele>161.989227</ele>
        <time>2022-08-28T07:59:34Z</time>
      </trkpt>
      <trkpt lat="50.28444" lon="4.20016">
        <ele>161.94313</ele>
        <time>2022-08-28T07:59:36Z</time>
      </trkpt>
      <trkpt lat="50.28437" lon="4.20003">
        <ele>161.563766</ele>
        <time>2022-08-28T07:59:38Z</time>
      </trkpt>
      <trkpt lat="50.28431" lon="4.19989">
        <ele>161.586823</ele>
        <time>2022-08-28T07:59:40Z</time>
      </trkpt>
      <trkpt lat="50.28427" lon="4.19974">
        <ele>161.415009</ele>
        <time>2022-08-28T07:59:42Z</time>
      </trkpt>
      <trkpt lat="50.28423" lon="4.19959">
        <ele>161.727493</ele>
        <time>2022-08-28T07:59:44Z</time>
      </trkpt>
      <trkpt lat="50.28419" lon="4.19942">
        <ele>161.645782</ele>
        <time>2022-08-28T07:59:46Z</time>
      </trkpt>
      <trkpt lat="50.28415" lon="4.19924">
        <ele>161.499115</ele>
        <time>2022-08-28T07:59:48Z</time>
      </trkpt>
      <trkpt lat="50.28411" lon="4.19907">
        <ele>161.461395</ele>
        <time>2022-08-28T07:59:50Z</time>
      </trkpt>
      <trkpt lat="50.28407" lon="4.19891">
        <ele>161.291656</ele>
        <time>2022-08-28T07:59:52Z</time>
      </trkpt>
      <trkpt lat="50.28405" lon="4.19874">
        <ele>161.044556</ele>
        <time>2022-08-28T07:59:54Z</time>
      </trkpt>
      <trkpt lat="50.28406" lon="4.19854">
        <ele>160.916733</ele>
        <time>2022-08-28T07:59:56Z</time>
      </trkpt>
      <trkpt lat="50.2841" lon="4.19832">
        <ele>160.604111</ele>
        <time>2022-08-28T07:59:58Z</time>
      </trkpt>
      <trkpt lat="50.28415" lon="4.19806">
        <ele>160.497269</ele>
        <time>2022-08-28T08:00:00Z</time>
      </trkpt>
      <trkpt lat="50.2842" lon="4.19781">
        <ele>160.211029</ele>
        <time>2022-08-28T08:00:02Z</time>
      </trkpt>
      <trkpt lat="50.28425" lon="4.19754">
        <ele>160.376923</ele>
        <time>2022-08-28T08:00:04Z</time>
      </trkpt>
      <trkpt lat="50.2843" lon="4.19728">
        <ele>159.913956</ele>
        <time>2022-08-28T08:00:06Z</time>
      </trkpt>
      <trkpt lat="50.2843" lon="4.197">
        <ele>159.606888</ele>
        <time>2022-08-28T08:00:08Z</time>
      </trkpt>
      <trkpt lat="50.28426" lon="4.1967">
        <ele>159.125107</ele>
        <time>2022-08-28T08:00:10Z</time>
      </trkpt>
      <trkpt lat="50.28416" lon="4.19642">
        <ele>158.579025</ele>
        <time>2022-08-28T08:00:12Z</time>
      </trkpt>
      <trkpt lat="50.28404" lon="4.19617">
        <ele>158.097397</ele>
        <time>2022-08-28T08:00:14Z</time>
      </trkpt>
      <trkpt lat="50.28391" lon="4.19594">
        <ele>157.513123</ele>
        <time>2022-08-28T08:00:16Z</time>
      </trkpt>
      <trkpt lat="50.28379" lon="4.19573">
        <ele>157.097122</ele>
        <time>2022-08-28T08:00:18Z</time>
      </trkpt>
      <trkpt lat="50.28368" lon="4.19556">
        <ele>156.431152</ele>
        <time>2022-08-28T08:00:20Z</time>
      </trkpt>
      <trkpt lat="50.28359" lon="4.19539">
        <ele>155.962128</ele>
        <time>2022-08-28T08:00:22Z</time>
      </trkpt>
      <trkpt lat="50.28352" lon="4.19524">
        <ele>155.304657</ele>
        <time>2022-08-28T08:00:24Z</time>
      </trkpt>
      <trkpt lat="50.2835" lon="4.19508">
        <ele>154.346161</ele>
        <time>2022-08-28T08:00:26Z</time>
      </trkpt>
      <trkpt lat="50.28351" lon="4.1949">
        <ele>153.958786</ele>
        <time>2022-08-28T08:00:28Z</time>
      </trkpt>
      <trkpt lat="50.28352" lon="4.19472">
        <ele>153.500153</ele>
        <time>2022-08-28T08:00:30Z</time>
      </trkpt>
      <trkpt lat="50.28353" lon="4.19457">
        <ele>153.162979</ele>
        <time>2022-08-28T08:00:32Z</time>
      </trkpt>
      <trkpt lat="50.28353" lon="4.19443">
        <ele>152.785995</ele>
        <time>2022-08-28T08:00:34Z</time>
      </trkpt>
      <trkpt lat="50.28352" lon="4.19429">
        <ele>152.566116</ele>
        <time>2022-08-28T08:00:36Z</time>
      </trkpt>
      <trkpt lat="50.28351" lon="4.19417">
        <ele>152.285492</ele>
        <time>2022-08-28T08:00:38Z</time>
      </trkpt>
      <trkpt lat="50.2835" lon="4.19407">
        <ele>152.064926</ele>
        <time>2022-08-28T08:00:40Z</time>
      </trkpt>
      <trkpt lat="50.2835" lon="4.19398">
        <ele>151.763397</ele>
        <time>2022-08-28T08:00:42Z</time>
      </trkpt>
      <trkpt lat="50.28355" lon="4.19394">
        <ele>151.683838</ele>
        <time>2022-08-28T08:00:44Z</time>
      </trkpt>
      <trkpt lat="50.28361" lon="4.19398">
        <ele>150.985947</ele>
        <time>2022-08-28T08:00:46Z</time>
      </trkpt>
      <trkpt lat="50.28367" lon="4.19402">
        <ele>150.828934</ele>
        <time>2022-08-28T08:00:48Z</time>
      </trkpt>
      <trkpt lat="50.28373" lon="4.19408">
        <ele>150.599823</ele>
        <time>2022-08-28T08:00:50Z</time>
      </trkpt>
      <trkpt lat="50.28381" lon="4.19414">
        <ele>150.393906</ele>
        <time>2022-08-28T08:00:52Z</time>
      </trkpt>
      <trkpt lat="50.2839" lon="4.19418">
        <ele>150.467194</ele>
        <time>2022-08-28T08:00:54Z</time>
      </trkpt>
      <trkpt lat="50.284" lon="4.19421">
        <ele>150.62001</ele>
        <time>2022-08-28T08:00:56Z</time>
      </trkpt>
      <trkpt lat="50.2841" lon="4.19424">
        <ele>150.386963</ele>
        <time>2022-08-28T08:00:58Z</time>
      </trkpt>
      <trkpt lat="50.2842" lon="4.19425">
        <ele>150.389038</ele>
        <time>2022-08-28T08:01:00Z</time>
      </trkpt>
      <trkpt lat="50.28429" lon="4.19424">
        <ele>150.324203</ele>
        <time>2022-08-28T08:01:02Z</time>
      </trkpt>
      <trkpt lat="50.28438" lon="4.19429">
        <ele>150.395355</ele>
        <time>2022-08-28T08:01:04Z</time>
      </trkpt>
      <trkpt lat="50.28447" lon="4.19435">
        <ele>150.278183</ele>
        <time>2022-08-28T08:01:06Z</time>
      </trkpt>
      <trkpt lat="50.28455" lon="4.19439">
        <ele>150.270721</ele>
        <time>2022-08-28T08:01:08Z</time>
      </trkpt>
      <trkpt lat="50.28463" lon="4.19439">
        <ele>150.356567</ele>
        <time>2022-08-28T08:01:10Z</time>
      </trkpt>
      <trkpt lat="50.28471" lon="4.19437">
        <ele>150.251892</ele>
        <time>2022-08-28T08:01:12Z</time>
      </trkpt>
      <trkpt lat="50.28482" lon="4.19433">
        <ele>149.92749</ele>
        <time>2022-08-28T08:01:14Z</time>
      </trkpt>
      <trkpt lat="50.28496" lon="4.19427">
        <ele>150.101334</ele>
        <time>2022-08-28T08:01:16Z</time>
      </trkpt>
      <trkpt lat="50.28511" lon="4.19421">
        <ele>149.820862</ele>
        <time>2022-08-28T08:01:18Z</time>
      </trkpt>
      <trkpt lat="50.28525" lon="4.19413">
        <ele>149.63945</ele>
        <time>2022-08-28T08:01:20Z</time>
      </trkpt>
      <trkpt lat="50.28539" lon="4.19403">
        <ele>149.199982</ele>
        <time>2022-08-28T08:01:22Z</time>
      </trkpt>
      <trkpt lat="50.28553" lon="4.19392">
        <ele>149.072311</ele>
        <time>2022-08-28T08:01:24Z</time>
      </trkpt>
      <trkpt lat="50.28568" lon="4.19381">
        <ele>148.678558</ele>
        <time>2022-08-28T08:01:26Z</time>
      </trkpt>
      <trkpt lat="50.28583" lon="4.19369">
        <ele>148.297699</ele>
        <time>2022-08-28T08:01:28Z</time>
      </trkpt>
      <trkpt lat="50.28597" lon="4.19357">
        <ele>147.929459</ele>
        <time>2022-08-28T08:01:30Z</time>
      </trkpt>
      <trkpt lat="50.28613" lon="4.19347">
        <ele>147.400116</ele>
        <time>2022-08-28T08:01:32Z</time>
      </trkpt>
      <trkpt lat="50.28628" lon="4.19336">
        <ele>147.278778</ele>
        <time>2022-08-28T08:01:34Z</time>
      </trkpt>
      <trkpt lat="50.28643" lon="4.19325">
        <ele>146.471161</ele>
        <time>2022-08-28T08:01:36Z</time>
      </trkpt>
      <trkpt lat="50.28655" lon="4.1931">
        <ele>146.201294</ele>
        <time>2022-08-28T08:01:38Z</time>
      </trkpt>
      <trkpt lat="50.28667" lon="4.19302">
        <ele>145.717987</ele>
        <time>2022-08-28T08:01:40Z</time>
      </trkpt>
      <trkpt lat="50.2868" lon="4.19298">
        <ele>144.973297</ele>
        <time>2022-08-28T08:01:42Z</time>
      </trkpt>
      <trkpt lat="50.28693" lon="4.19296">
        <ele>144.584229</ele>
        <time>2022-08-28T08:01:44Z</time>
      </trkpt>
      <trkpt lat="50.28705" lon="4.19297">
        <ele>144.10527</ele>
        <time>2022-08-28T08:01:46Z</time>
      </trkpt>
      <trkpt lat="50.28714" lon="4.19302">
        <ele>143.601166</ele>
        <time>2022-08-28T08:01:48Z</time>
      </trkpt>
      <trkpt lat="50.28722" lon="4.19303">
        <ele>142.85849</ele>
        <time>2022-08-28T08:01:50Z</time>
      </trkpt>
      <trkpt lat="50.2873" lon="4.19304">
        <ele>142.153519</ele>
        <time>2022-08-28T08:01:52Z</time>
      </trkpt>
      <trkpt lat="50.2874" lon="4.19307">
        <ele>141.636871</ele>
        <time>2022-08-28T08:01:54Z</time>
      </trkpt>
      <trkpt lat="50.28749" lon="4.19311">
        <ele>141.136871</ele>
        <time>2022-08-28T08:01:56Z</time>
      </trkpt>
      <trkpt lat="50.28758" lon="4.19317">
        <ele>140.283218</ele>
        <time>2022-08-28T08:01:58Z</time>
      </trkpt>
      <trkpt lat="50.28766" lon="4.19325">
        <ele>139.779129</ele>
        <time>2022-08-28T08:02:00Z</time>
      </trkpt>
      <trkpt lat="50.28772" lon="4.19335">
        <ele>139.415146</ele>
        <time>2022-08-28T08:02:02Z</time>
      </trkpt>
      <trkpt lat="50.28775" lon="4.19347">
        <ele>139.168365</ele>
        <time>2022-08-28T08:02:04Z</time>
      </trkpt>
      <trkpt lat="50.28779" lon="4.19358">
        <ele>139.208099</ele>
        <time>2022-08-28T08:02:06Z</time>
      </trkpt>
      <trkpt lat="50.28782" lon="4.1937">
        <ele>138.875946</ele>
        <time>2022-08-28T08:02:08Z</time>
      </trkpt>
      <trkpt lat="50.28785" lon="4.19381">
        <ele>138.725357</ele>
        <time>2022-08-28T08:02:10Z</time>
      </trkpt>
      <trkpt lat="50.2879" lon="4.19393">
        <ele>138.478607</ele>
        <time>2022-08-28T08:02:12Z</time>
      </trkpt>
      <trkpt lat="50.28793" lon="4.19405">
        <ele>138.236084</ele>
        <time>2022-08-28T08:02:14Z</time>
      </trkpt>
      <trkpt lat="50.28796" lon="4.19417">
        <ele>137.955673</ele>
        <time>2022-08-28T08:02:16Z</time>
      </trkpt>
      <trkpt lat="50.28799" lon="4.1943">
        <ele>137.945679</ele>
        <time>2022-08-28T08:02:18Z</time>
      </trkpt>
      <trkpt lat="50.28802" lon="4.19442">
        <ele>137.97229</ele>
        <time>2022-08-28T08:02:20Z</time>
      </trkpt>
      <trkpt lat="50.28804" lon="4.19455">
        <ele>138.179276</ele>
        <time>2022-08-28T08:02:22Z</time>
      </trkpt>
      <trkpt lat="50.28806" lon="4.19468">
        <ele>138.208542</ele>
        <time>2022-08-28T08:02:24Z</time>
      </trkpt>
      <trkpt lat="50.28808" lon="4.19481">
        <ele>138.363266</ele>
        <time>2022-08-28T08:02:26Z</time>
      </trkpt>
      <trkpt lat="50.2881" lon="4.19494">
        <ele>138.421814</ele>
        <time>2022-08-28T08:02:28Z</time>
      </trkpt>
      <trkpt lat="50.28813" lon="4.19507">
        <ele>138.474091</ele>
        <time>2022-08-28T08:02:30Z</time>
      </trkpt>
      <trkpt lat="50.28816" lon="4.19521">
        <ele>138.666412</ele>
        <time>2022-08-28T08:02:32Z</time>
      </trkpt>
      <trkpt lat="50.28819" lon="4.19533">
        <ele>138.86087</ele>
        <time>2022-08-28T08:02:34Z</time>
      </trkpt>
      <trkpt lat="50.28823" lon="4.19543">
        <ele>138.794037</ele>
        <time>2022-08-28T08:02:36Z</time>
      </trkpt>
      <trkpt lat="50.28828" lon="4.19553">
        <ele>138.969666</ele>
        <time>2022-08-28T08:02:38Z</time>
      </trkpt>
      <trkpt lat="50.28834" lon="4.19561">
        <ele>139.128571</ele>
        <time>2022-08-28T08:02:40Z</time>
      </trkpt>
      <trkpt lat="50.2884" lon="4.19569">
        <ele>139.257889</ele>
        <time>2022-08-28T08:02:42Z</time>
      </trkpt>
      <trkpt lat="50.28846" lon="4.19577">
        <ele>139.372742</ele>
        <time>2022-08-28T08:02:44Z</time>
      </trkpt>
      <trkpt lat="50.28855" lon="4.19585">
        <ele>139.504089</ele>
        <time>2022-08-28T08:02:46Z</time>
      </trkpt>
      <trkpt lat="50.28862" lon="4.19592">
        <ele>139.631638</ele>
        <time>2022-08-28T08:02:48Z</time>
      </trkpt>
      <trkpt lat="50.28871" lon="4.196">
        <ele>139.742462</ele>
        <time>2022-08-28T08:02:50Z</time>
      </trkpt>
      <trkpt lat="50.2888" lon="4.19607">
        <ele>139.89299</ele>
        <time>2022-08-28T08:02:52Z</time>
      </trkpt>
      <trkpt lat="50.28888" lon="4.19613">
        <ele>139.790527</ele>
        <time>2022-08-28T08:02:54Z</time>
      </trkpt>
      <trkpt lat="50.28895" lon="4.19616">
        <ele>140.175293</ele>
        <time>2022-08-28T08:02:56Z</time>
      </trkpt>
      <trkpt lat="50.28904" lon="4.19621">
        <ele>140.321686</ele>
        <time>2022-08-28T08:02:58Z</time>
      </trkpt>
      <trkpt lat="50.28913" lon="4.19623">
        <ele>140.436249</ele>
        <time>2022-08-28T08:03:00Z</time>
      </trkpt>
      <trkpt lat="50.28922" lon="4.19623">
        <ele>140.476563</ele>
        <time>2022-08-28T08:03:02Z</time>
      </trkpt>
      <trkpt lat="50.2893" lon="4.19623">
        <ele>140.562302</ele>
        <time>2022-08-28T08:03:04Z</time>
      </trkpt>
      <trkpt lat="50.28939" lon="4.19622">
        <ele>140.681503</ele>
        <time>2022-08-28T08:03:06Z</time>
      </trkpt>
      <trkpt lat="50.28948" lon="4.19621">
        <ele>140.7547</ele>
        <time>2022-08-28T08:03:08Z</time>
      </trkpt>
      <trkpt lat="50.28956" lon="4.1962">
        <ele>140.947098</ele>
        <time>2022-08-28T08:03:10Z</time>
      </trkpt>
      <trkpt lat="50.28964" lon="4.19618">
        <ele>140.98056</ele>
        <time>2022-08-28T08:03:12Z</time>
      </trkpt>
      <trkpt lat="50.28969" lon="4.19614">
        <ele>141.083038</ele>
        <time>2022-08-28T08:03:14Z</time>
      </trkpt>
      <trkpt lat="50.28974" lon="4.19608">
        <ele>141.233551</ele>
        <time>2022-08-28T08:03:16Z</time>
      </trkpt>
      <trkpt lat="50.2898" lon="4.19602">
        <ele>141.419693</ele>
        <time>2022-08-28T08:03:18Z</time>
      </trkpt>
      <trkpt lat="50.28984" lon="4.19595">
        <ele>141.509628</ele>
        <time>2022-08-28T08:03:20Z</time>
      </trkpt>
      <trkpt lat="50.28989" lon="4.19588">
        <ele>141.545502</ele>
        <time>2022-08-28T08:03:22Z</time>
      </trkpt>
      <trkpt lat="50.28993" lon="4.19581">
        <ele>141.593765</ele>
        <time>2022-08-28T08:03:24Z</time>
      </trkpt>
      <trkpt lat="50.28998" lon="4.19574">
        <ele>141.573257</ele>
        <time>2022-08-28T08:03:26Z</time>
      </trkpt>
      <trkpt lat="50.29003" lon="4.19567">
        <ele>141.530762</ele>
        <time>2022-08-28T08:03:28Z</time>
      </trkpt>
      <trkpt lat="50.29008" lon="4.1956">
        <ele>141.476395</ele>
        <time>2022-08-28T08:03:30Z</time>
      </trkpt>
      <trkpt lat="50.29013" lon="4.19553">
        <ele>141.530777</ele>
        <time>2022-08-28T08:03:32Z</time>
      </trkpt>
      <trkpt lat="50.29018" lon="4.19545">
        <ele>141.630341</ele>
        <time>2022-08-28T08:03:34Z</time>
      </trkpt>
      <trkpt lat="50.29023" lon="4.19538">
        <ele>141.430878</ele>
        <time>2022-08-28T08:03:36Z</time>
      </trkpt>
      <trkpt lat="50.29028" lon="4.19531">
        <ele>141.447723</ele>
        <time>2022-08-28T08:03:38Z</time>
      </trkpt>
      <trkpt lat="50.29034" lon="4.19524">
        <ele>141.318039</ele>
        <time>2022-08-28T08:03:40Z</time>
      </trkpt>
      <trkpt lat="50.2904" lon="4.19518">
        <ele>141.288757</ele>
        <time>2022-08-28T08:03:42Z</time>
      </trkpt>
      <trkpt lat="50.29046" lon="4.19515">
        <ele>141.203018</ele>
        <time>2022-08-28T08:03:44Z</time>
      </trkpt>
      <trkpt lat="50.29054" lon="4.19515">
        <ele>141.23674</ele>
        <time>2022-08-28T08:03:46Z</time>
      </trkpt>
      <trkpt lat="50.29061" lon="4.19515">
        <ele>141.247208</ele>
        <time>2022-08-28T08:03:48Z</time>
      </trkpt>
      <trkpt lat="50.29067" lon="4.19513">
        <ele>141.291122</ele>
        <time>2022-08-28T08:03:50Z</time>
      </trkpt>
      <trkpt lat="50.29073" lon="4.19513">
        <ele>141.245102</ele>
        <time>2022-08-28T08:03:52Z</time>
      </trkpt>
      <trkpt lat="50.29077" lon="4.19512">
        <ele>141.378967</ele>
        <time>2022-08-28T08:03:54Z</time>
      </trkpt>
      <trkpt lat="50.29082" lon="4.19512">
        <ele>141.573517</ele>
        <time>2022-08-28T08:03:56Z</time>
      </trkpt>
      <trkpt lat="50.29084" lon="4.19511">
        <ele>141.606979</ele>
        <time>2022-08-28T08:03:58Z</time>
      </trkpt>
      <trkpt lat="50.29087" lon="4.19511">
        <ele>141.732483</ele>
        <time>2022-08-28T08:04:00Z</time>
      </trkpt>
      <trkpt lat="50.29092" lon="4.1951">
        <ele>142.023254</ele>
        <time>2022-08-28T08:04:02Z</time>
      </trkpt>
      <trkpt lat="50.29096" lon="4.19507">
        <ele>142.213638</ele>
        <time>2022-08-28T08:04:04Z</time>
      </trkpt>
      <trkpt lat="50.29101" lon="4.19508">
        <ele>142.544159</ele>
        <time>2022-08-28T08:04:06Z</time>
      </trkpt>
      <trkpt lat="50.29105" lon="4.1951">
        <ele>142.827255</ele>
        <time>2022-08-28T08:04:08Z</time>
      </trkpt>
      <trkpt lat="50.29112" lon="4.19513">
        <ele>143.197556</ele>
        <time>2022-08-28T08:04:10Z</time>
      </trkpt>
      <trkpt lat="50.29117" lon="4.19517">
        <ele>143.691345</ele>
        <time>2022-08-28T08:04:12Z</time>
      </trkpt>
      <trkpt lat="50.29124" lon="4.19518">
        <ele>144.16713</ele>
        <time>2022-08-28T08:04:14Z</time>
      </trkpt>
      <trkpt lat="50.29129" lon="4.19516">
        <ele>144.693024</ele>
        <time>2022-08-28T08:04:16Z</time>
      </trkpt>
      <trkpt lat="50.29134" lon="4.19515">
        <ele>145.176208</ele>
        <time>2022-08-28T08:04:18Z</time>
      </trkpt>
      <trkpt lat="50.29141" lon="4.19514">
        <ele>145.410553</ele>
        <time>2022-08-28T08:04:20Z</time>
      </trkpt>
      <trkpt lat="50.29147" lon="4.19513">
        <ele>145.774582</ele>
        <time>2022-08-28T08:04:22Z</time>
      </trkpt>
      <trkpt lat="50.29156" lon="4.19517">
        <ele>146.082108</ele>
        <time>2022-08-28T08:04:24Z</time>
      </trkpt>
      <trkpt lat="50.29167" lon="4.19522">
        <ele>146.563324</ele>
        <time>2022-08-28T08:04:26Z</time>
      </trkpt>
      <trkpt lat="50.29178" lon="4.19526">
        <ele>147.071548</ele>
        <time>2022-08-28T08:04:28Z</time>
      </trkpt>
      <trkpt lat="50.29187" lon="4.19529">
        <ele>147.429352</ele>
        <time>2022-08-28T08:04:30Z</time>
      </trkpt>
      <trkpt lat="50.29196" lon="4.19531">
        <ele>147.963257</ele>
        <time>2022-08-28T08:04:32Z</time>
      </trkpt>
      <trkpt lat="50.29204" lon="4.19534">
        <ele>148.374146</ele>
        <time>2022-08-28T08:04:34Z</time>
      </trkpt>
      <trkpt lat="50.29213" lon="4.19536">
        <ele>148.597336</ele>
        <time>2022-08-28T08:04:36Z</time>
      </trkpt>
      <trkpt lat="50.29223" lon="4.19537">
        <ele>148.984467</ele>
        <time>2022-08-28T08:04:38Z</time>
      </trkpt>
      <trkpt lat="50.29232" lon="4.19539">
        <ele>149.321381</ele>
        <time>2022-08-28T08:04:40Z</time>
      </trkpt>
      <trkpt lat="50.29242" lon="4.19541">
        <ele>149.605667</ele>
        <time>2022-08-28T08:04:42Z</time>
      </trkpt>
      <trkpt lat="50.29251" lon="4.19543">
        <ele>149.842163</ele>
        <time>2022-08-28T08:04:44Z</time>
      </trkpt>
      <trkpt lat="50.29261" lon="4.19545">
        <ele>150.149841</ele>
        <time>2022-08-28T08:04:46Z</time>
      </trkpt>
      <trkpt lat="50.29271" lon="4.19548">
        <ele>150.283798</ele>
        <time>2022-08-28T08:04:48Z</time>
      </trkpt>
      <trkpt lat="50.2928" lon="4.1955">
        <ele>150.442886</ele>
        <time>2022-08-28T08:04:50Z</time>
      </trkpt>
      <trkpt lat="50.2929" lon="4.19552">
        <ele>150.474274</ele>
        <time>2022-08-28T08:04:52Z</time>
      </trkpt>
      <trkpt lat="50.29299" lon="4.19555">
        <ele>150.39473</ele>
        <time>2022-08-28T08:04:54Z</time>
      </trkpt>
      <trkpt lat="50.29309" lon="4.19558">
        <ele>150.300537</ele>
        <time>2022-08-28T08:04:56Z</time>
      </trkpt>
      <trkpt lat="50.29318" lon="4.19561">
        <ele>150.241913</ele>
        <time>2022-08-28T08:04:58Z</time>
      </trkpt>
      <trkpt lat="50.29327" lon="4.19563">
        <ele>150.246109</ele>
        <time>2022-08-28T08:05:00Z</time>
      </trkpt>
      <trkpt lat="50.29336" lon="4.19564">
        <ele>150.189606</ele>
        <time>2022-08-28T08:05:02Z</time>
      </trkpt>
      <trkpt lat="50.29344" lon="4.19566">
        <ele>150.237747</ele>
        <time>2022-08-28T08:05:04Z</time>
      </trkpt>
      <trkpt lat="50.29352" lon="4.19567">
        <ele>150.325607</ele>
        <time>2022-08-28T08:05:06Z</time>
      </trkpt>
      <trkpt lat="50.2936" lon="4.19568">
        <ele>150.223068</ele>
        <time>2022-08-28T08:05:08Z</time>
      </trkpt>
      <trkpt lat="50.29367" lon="4.1957">
        <ele>150.10582</ele>
        <time>2022-08-28T08:05:10Z</time>
      </trkpt>
      <trkpt lat="50.29375" lon="4.19572">
        <ele>149.963486</ele>
        <time>2022-08-28T08:05:12Z</time>
      </trkpt>
      <trkpt lat="50.29383" lon="4.19574">
        <ele>149.86058</ele>
        <time>2022-08-28T08:05:14Z</time>
      </trkpt>
      <trkpt lat="50.29392" lon="4.19576">
        <ele>149.813797</ele>
        <time>2022-08-28T08:05:16Z</time>
      </trkpt>
      <trkpt lat="50.294" lon="4.19578">
        <ele>149.746323</ele>
        <time>2022-08-28T08:05:18Z</time>
      </trkpt>
      <trkpt lat="50.29408" lon="4.1958">
        <ele>149.69191</ele>
        <time>2022-08-28T08:05:20Z</time>
      </trkpt>
      <trkpt lat="50.29415" lon="4.19582">
        <ele>149.580963</ele>
        <time>2022-08-28T08:05:22Z</time>
      </trkpt>
      <trkpt lat="50.29422" lon="4.19585">
        <ele>149.466217</ele>
        <time>2022-08-28T08:05:24Z</time>
      </trkpt>
      <trkpt lat="50.29429" lon="4.19587">
        <ele>149.277847</ele>
        <time>2022-08-28T08:05:26Z</time>
      </trkpt>
      <trkpt lat="50.29437" lon="4.19589">
        <ele>149.112488</ele>
        <time>2022-08-28T08:05:28Z</time>
      </trkpt>
      <trkpt lat="50.29443" lon="4.19591">
        <ele>148.930374</ele>
        <time>2022-08-28T08:05:30Z</time>
      </trkpt>
      <trkpt lat="50.29448" lon="4.19591">
        <ele>148.856125</ele>
        <time>2022-08-28T08:05:32Z</time>
      </trkpt>
      <trkpt lat="50.29451" lon="4.19586">
        <ele>148.925201</ele>
        <time>2022-08-28T08:05:34Z</time>
      </trkpt>
      <trkpt lat="50.2945" lon="4.19578">
        <ele>148.996368</ele>
        <time>2022-08-28T08:05:36Z</time>
      </trkpt>
      <trkpt lat="50.29451" lon="4.19568">
        <ele>148.958679</ele>
        <time>2022-08-28T08:05:38Z</time>
      </trkpt>
      <trkpt lat="50.29451" lon="4.19557">
        <ele>148.944031</ele>
        <time>2022-08-28T08:05:40Z</time>
      </trkpt>
      <trkpt lat="50.29453" lon="4.19545">
        <ele>148.914734</ele>
        <time>2022-08-28T08:05:42Z</time>
      </trkpt>
      <trkpt lat="50.29454" lon="4.19533">
        <ele>148.931473</ele>
        <time>2022-08-28T08:05:44Z</time>
      </trkpt>
      <trkpt lat="50.29456" lon="4.1952">
        <ele>149.038208</ele>
        <time>2022-08-28T08:05:46Z</time>
      </trkpt>
      <trkpt lat="50.29458" lon="4.19506">
        <ele>149.308212</ele>
        <time>2022-08-28T08:05:48Z</time>
      </trkpt>
      <trkpt lat="50.2946" lon="4.19491">
        <ele>149.350082</ele>
        <time>2022-08-28T08:05:50Z</time>
      </trkpt>
      <trkpt lat="50.29462" lon="4.19476">
        <ele>149.511276</ele>
        <time>2022-08-28T08:05:52Z</time>
      </trkpt>
      <trkpt lat="50.29465" lon="4.19461">
        <ele>149.636871</ele>
        <time>2022-08-28T08:05:54Z</time>
      </trkpt>
      <trkpt lat="50.29468" lon="4.19446">
        <ele>149.768738</ele>
        <time>2022-08-28T08:05:56Z</time>
      </trkpt>
      <trkpt lat="50.2947" lon="4.1943">
        <ele>149.853699</ele>
        <time>2022-08-28T08:05:58Z</time>
      </trkpt>
      <trkpt lat="50.29473" lon="4.19414">
        <ele>149.906021</ele>
        <time>2022-08-28T08:06:00Z</time>
      </trkpt>
      <trkpt lat="50.29476" lon="4.19399">
        <ele>150.071396</ele>
        <time>2022-08-28T08:06:02Z</time>
      </trkpt>
      <trkpt lat="50.29479" lon="4.19384">
        <ele>150.23259</ele>
        <time>2022-08-28T08:06:04Z</time>
      </trkpt>
      <trkpt lat="50.29482" lon="4.19368">
        <ele>150.460754</ele>
        <time>2022-08-28T08:06:06Z</time>
      </trkpt>
      <trkpt lat="50.29484" lon="4.19352">
        <ele>150.699371</ele>
        <time>2022-08-28T08:06:08Z</time>
      </trkpt>
      <trkpt lat="50.29487" lon="4.19336">
        <ele>150.966721</ele>
        <time>2022-08-28T08:06:10Z</time>
      </trkpt>
      <trkpt lat="50.2949" lon="4.19319">
        <ele>151.205368</ele>
        <time>2022-08-28T08:06:12Z</time>
      </trkpt>
      <trkpt lat="50.29493" lon="4.19303">
        <ele>151.428284</ele>
        <time>2022-08-28T08:06:14Z</time>
      </trkpt>
      <trkpt lat="50.29496" lon="4.19287">
        <ele>151.664871</ele>
        <time>2022-08-28T08:06:16Z</time>
      </trkpt>
      <trkpt lat="50.29498" lon="4.19271">
        <ele>152.920181</ele>
        <time>2022-08-28T08:06:18Z</time>
      </trkpt>
      <trkpt lat="50.29501" lon="4.19255">
        <ele>153.031128</ele>
        <time>2022-08-28T08:06:20Z</time>
      </trkpt>
      <trkpt lat="50.29503" lon="4.19239">
        <ele>153.397491</ele>
        <time>2022-08-28T08:06:22Z</time>
      </trkpt>
      <trkpt lat="50.29506" lon="4.19224">
        <ele>153.472855</ele>
        <time>2022-08-28T08:06:24Z</time>
      </trkpt>
      <trkpt lat="50.29509" lon="4.19208">
        <ele>153.636154</ele>
        <time>2022-08-28T08:06:26Z</time>
      </trkpt>
      <trkpt lat="50.29511" lon="4.19193">
        <ele>153.837173</ele>
        <time>2022-08-28T08:06:28Z</time>
      </trkpt>
      <trkpt lat="50.29514" lon="4.19177">
        <ele>154.031906</ele>
        <time>2022-08-28T08:06:30Z</time>
      </trkpt>
      <trkpt lat="50.29517" lon="4.19161">
        <ele>154.335526</ele>
        <time>2022-08-28T08:06:32Z</time>
      </trkpt>
      <trkpt lat="50.29521" lon="4.19146">
        <ele>154.551193</ele>
        <time>2022-08-28T08:06:34Z</time>
      </trkpt>
      <trkpt lat="50.29525" lon="4.1913">
        <ele>154.942825</ele>
        <time>2022-08-28T08:06:36Z</time>
      </trkpt>
      <trkpt lat="50.2953" lon="4.19114">
        <ele>155.179413</ele>
        <time>2022-08-28T08:06:38Z</time>
      </trkpt>
      <trkpt lat="50.29533" lon="4.19098">
        <ele>154.842712</ele>
        <time>2022-08-28T08:06:40Z</time>
      </trkpt>
      <trkpt lat="50.29538" lon="4.19082">
        <ele>155.48407</ele>
        <time>2022-08-28T08:06:42Z</time>
      </trkpt>
      <trkpt lat="50.29542" lon="4.19065">
        <ele>155.078247</ele>
        <time>2022-08-28T08:06:44Z</time>
      </trkpt>
      <trkpt lat="50.29547" lon="4.1905">
        <ele>155.847305</ele>
        <time>2022-08-28T08:06:46Z</time>
      </trkpt>
      <trkpt lat="50.29553" lon="4.19036">
        <ele>156.526352</ele>
        <time>2022-08-28T08:06:48Z</time>
      </trkpt>
      <trkpt lat="50.29561" lon="4.19022">
        <ele>156.562561</ele>
        <time>2022-08-28T08:06:50Z</time>
      </trkpt>
      <trkpt lat="50.29569" lon="4.19009">
        <ele>156.736359</ele>
        <time>2022-08-28T08:06:52Z</time>
      </trkpt>
      <trkpt lat="50.29577" lon="4.18996">
        <ele>156.956284</ele>
        <time>2022-08-28T08:06:54Z</time>
      </trkpt>
      <trkpt lat="50.29586" lon="4.18983">
        <ele>156.882996</ele>
        <time>2022-08-28T08:06:56Z</time>
      </trkpt>
      <trkpt lat="50.29594" lon="4.18971">
        <ele>156.415497</ele>
        <time>2022-08-28T08:06:58Z</time>
      </trkpt>
      <trkpt lat="50.29602" lon="4.18958">
        <ele>156.040192</ele>
        <time>2022-08-28T08:07:00Z</time>
      </trkpt>
      <trkpt lat="50.29611" lon="4.18946">
        <ele>156.23288</ele>
        <time>2022-08-28T08:07:02Z</time>
      </trkpt>
      <trkpt lat="50.29619" lon="4.18935">
        <ele>156.459778</ele>
        <time>2022-08-28T08:07:04Z</time>
      </trkpt>
      <trkpt lat="50.29627" lon="4.18923">
        <ele>156.706894</ele>
        <time>2022-08-28T08:07:06Z</time>
      </trkpt>
      <trkpt lat="50.29635" lon="4.18912">
        <ele>156.711075</ele>
        <time>2022-08-28T08:07:08Z</time>
      </trkpt>
      <trkpt lat="50.29642" lon="4.18901">
        <ele>156.792267</ele>
        <time>2022-08-28T08:07:10Z</time>
      </trkpt>
      <trkpt lat="50.2965" lon="4.18889">
        <ele>156.811127</ele>
        <time>2022-08-28T08:07:12Z</time>
      </trkpt>
      <trkpt lat="50.29657" lon="4.18877">
        <ele>156.817398</ele>
        <time>2022-08-28T08:07:14Z</time>
      </trkpt>
      <trkpt lat="50.29664" lon="4.18862">
        <ele>156.662384</ele>
        <time>2022-08-28T08:07:16Z</time>
      </trkpt>
      <trkpt lat="50.2967" lon="4.18847">
        <ele>156.710556</ele>
        <time>2022-08-28T08:07:18Z</time>
      </trkpt>
      <trkpt lat="50.29676" lon="4.18831">
        <ele>156.739883</ele>
        <time>2022-08-28T08:07:20Z</time>
      </trkpt>
      <trkpt lat="50.29681" lon="4.18815">
        <ele>157.221008</ele>
        <time>2022-08-28T08:07:22Z</time>
      </trkpt>
      <trkpt lat="50.29687" lon="4.18799">
        <ele>157.777588</ele>
        <time>2022-08-28T08:07:24Z</time>
      </trkpt>
      <trkpt lat="50.29692" lon="4.18783">
        <ele>157.349838</ele>
        <time>2022-08-28T08:07:26Z</time>
      </trkpt>
      <trkpt lat="50.29697" lon="4.18766">
        <ele>156.711624</ele>
        <time>2022-08-28T08:07:28Z</time>
      </trkpt>
      <trkpt lat="50.29703" lon="4.18749">
        <ele>155.584885</ele>
        <time>2022-08-28T08:07:30Z</time>
      </trkpt>
      <trkpt lat="50.29709" lon="4.18732">
        <ele>155.799683</ele>
        <time>2022-08-28T08:07:32Z</time>
      </trkpt>
      <trkpt lat="50.29714" lon="4.18715">
        <ele>155.617462</ele>
        <time>2022-08-28T08:07:34Z</time>
      </trkpt>
      <trkpt lat="50.29719" lon="4.18697">
        <ele>155.487625</ele>
        <time>2022-08-28T08:07:36Z</time>
      </trkpt>
      <trkpt lat="50.29726" lon="4.18681">
        <ele>155.397568</ele>
        <time>2022-08-28T08:07:38Z</time>
      </trkpt>
      <trkpt lat="50.29732" lon="4.18665">
        <ele>155.462479</ele>
        <time>2022-08-28T08:07:40Z</time>
      </trkpt>
      <trkpt lat="50.29739" lon="4.1865">
        <ele>155.452011</ele>
        <time>2022-08-28T08:07:42Z</time>
      </trkpt>
      <trkpt lat="50.29746" lon="4.18634">
        <ele>155.688446</ele>
        <time>2022-08-28T08:07:44Z</time>
      </trkpt>
      <trkpt lat="50.29752" lon="4.18619">
        <ele>155.474823</ele>
        <time>2022-08-28T08:07:46Z</time>
      </trkpt>
      <trkpt lat="50.29759" lon="4.18604">
        <ele>155.357544</ele>
        <time>2022-08-28T08:07:48Z</time>
      </trkpt>
      <trkpt lat="50.29766" lon="4.18588">
        <ele>155.708252</ele>
        <time>2022-08-28T08:07:50Z</time>
      </trkpt>
      <trkpt lat="50.29773" lon="4.18573">
        <ele>155.09938</ele>
        <time>2022-08-28T08:07:52Z</time>
      </trkpt>
      <trkpt lat="50.29781" lon="4.18559">
        <ele>154.950684</ele>
        <time>2022-08-28T08:07:54Z</time>
      </trkpt>
      <trkpt lat="50.29789" lon="4.18544">
        <ele>154.755951</ele>
        <time>2022-08-28T08:07:56Z</time>
      </trkpt>
      <trkpt lat="50.29796" lon="4.1853">
        <ele>154.709885</ele>
        <time>2022-08-28T08:07:58Z</time>
      </trkpt>
      <trkpt lat="50.29804" lon="4.18516">
        <ele>154.580048</ele>
        <time>2022-08-28T08:08:00Z</time>
      </trkpt>
      <trkpt lat="50.29811" lon="4.18502">
        <ele>154.265961</ele>
        <time>2022-08-28T08:08:02Z</time>
      </trkpt>
      <trkpt lat="50.29818" lon="4.18489">
        <ele>154.211563</ele>
        <time>2022-08-28T08:08:04Z</time>
      </trkpt>
      <trkpt lat="50.29824" lon="4.18477">
        <ele>154.025208</ele>
        <time>2022-08-28T08:08:06Z</time>
      </trkpt>
      <trkpt lat="50.29829" lon="4.18466">
        <ele>154.382813</ele>
        <time>2022-08-28T08:08:08Z</time>
      </trkpt>
      <trkpt lat="50.29834" lon="4.18458">
        <ele>154.345123</ele>
        <time>2022-08-28T08:08:10Z</time>
      </trkpt>
      <trkpt lat="50.29838" lon="4.18451">
        <ele>154.660889</ele>
        <time>2022-08-28T08:08:12Z</time>
      </trkpt>
      <trkpt lat="50.29841" lon="4.18444">
        <ele>154.368164</ele>
        <time>2022-08-28T08:08:14Z</time>
      </trkpt>
      <trkpt lat="50.2984" lon="4.18438">
        <ele>154.353516</ele>
        <time>2022-08-28T08:08:16Z</time>
      </trkpt>
      <trkpt lat="50.29836" lon="4.18436">
        <ele>154.206741</ele>
        <time>2022-08-28T08:08:18Z</time>
      </trkpt>
      <trkpt lat="50.2983" lon="4.18439">
        <ele>154.150192</ele>
        <time>2022-08-28T08:08:20Z</time>
      </trkpt>
      <trkpt lat="50.29822" lon="4.18445">
        <ele>153.779587</ele>
        <time>2022-08-28T08:08:22Z</time>
      </trkpt>
      <trkpt lat="50.29814" lon="4.18452">
        <ele>153.574432</ele>
        <time>2022-08-28T08:08:24Z</time>
      </trkpt>
      <trkpt lat="50.29805" lon="4.18458">
        <ele>152.767776</ele>
        <time>2022-08-28T08:08:26Z</time>
      </trkpt>
      <trkpt lat="50.29796" lon="4.18465">
        <ele>152.43486</ele>
        <time>2022-08-28T08:08:28Z</time>
      </trkpt>
      <trkpt lat="50.29786" lon="4.18471">
        <ele>152.13559</ele>
        <time>2022-08-28T08:08:30Z</time>
      </trkpt>
      <trkpt lat="50.29777" lon="4.18477">
        <ele>151.416916</ele>
        <time>2022-08-28T08:08:32Z</time>
      </trkpt>
      <trkpt lat="50.29768" lon="4.18484">
        <ele>151.531738</ele>
        <time>2022-08-28T08:08:34Z</time>
      </trkpt>
      <trkpt lat="50.2976" lon="4.1849">
        <ele>151.108932</ele>
        <time>2022-08-28T08:08:36Z</time>
      </trkpt>
      <trkpt lat="50.29751" lon="4.18496">
        <ele>150.838898</ele>
        <time>2022-08-28T08:08:38Z</time>
      </trkpt>
      <trkpt lat="50.29742" lon="4.18503">
        <ele>150.5345</ele>
        <time>2022-08-28T08:08:40Z</time>
      </trkpt>
      <trkpt lat="50.29733" lon="4.18508">
        <ele>150.212128</ele>
        <time>2022-08-28T08:08:42Z</time>
      </trkpt>
      <trkpt lat="50.29725" lon="4.18514">
        <ele>149.820831</ele>
        <time>2022-08-28T08:08:44Z</time>
      </trkpt>
      <trkpt lat="50.29715" lon="4.1852">
        <ele>148.882324</ele>
        <time>2022-08-28T08:08:46Z</time>
      </trkpt>
      <trkpt lat="50.29707" lon="4.18526">
        <ele>148.470062</ele>
        <time>2022-08-28T08:08:48Z</time>
      </trkpt>
      <trkpt lat="50.29697" lon="4.18531">
        <ele>148.047318</ele>
        <time>2022-08-28T08:08:50Z</time>
      </trkpt>
      <trkpt lat="50.29688" lon="4.18537">
        <ele>147.735474</ele>
        <time>2022-08-28T08:08:52Z</time>
      </trkpt>
      <trkpt lat="50.29678" lon="4.18544">
        <ele>147.298157</ele>
        <time>2022-08-28T08:08:54Z</time>
      </trkpt>
      <trkpt lat="50.29668" lon="4.1855">
        <ele>146.672974</ele>
        <time>2022-08-28T08:08:56Z</time>
      </trkpt>
      <trkpt lat="50.29659" lon="4.18557">
        <ele>145.999268</ele>
        <time>2022-08-28T08:08:58Z</time>
      </trkpt>
      <trkpt lat="50.2965" lon="4.18564">
        <ele>145.752518</ele>
        <time>2022-08-28T08:09:00Z</time>
      </trkpt>
      <trkpt lat="50.2964" lon="4.1857">
        <ele>145.494537</ele>
        <time>2022-08-28T08:09:02Z</time>
      </trkpt>
      <trkpt lat="50.29631" lon="4.18576">
        <ele>145.329224</ele>
        <time>2022-08-28T08:09:04Z</time>
      </trkpt>
      <trkpt lat="50.29622" lon="4.18584">
        <ele>145.069763</ele>
        <time>2022-08-28T08:09:06Z</time>
      </trkpt>
      <trkpt lat="50.29612" lon="4.18592">
        <ele>144.799835</ele>
        <time>2022-08-28T08:09:08Z</time>
      </trkpt>
      <trkpt lat="50.29604" lon="4.18599">
        <ele>144.691055</ele>
        <time>2022-08-28T08:09:10Z</time>
      </trkpt>
      <trkpt lat="50.29596" lon="4.18607">
        <ele>144.453491</ele>
        <time>2022-08-28T08:09:12Z</time>
      </trkpt>
      <trkpt lat="50.29587" lon="4.18615">
        <ele>144.323792</ele>
        <time>2022-08-28T08:09:14Z</time>
      </trkpt>
      <trkpt lat="50.29578" lon="4.18622">
        <ele>144.256836</ele>
        <time>2022-08-28T08:09:16Z</time>
      </trkpt>
      <trkpt lat="50.2957" lon="4.1863">
        <ele>143.986938</ele>
        <time>2022-08-28T08:09:18Z</time>
      </trkpt>
      <trkpt lat="50.29561" lon="4.18638">
        <ele>143.887589</ele>
        <time>2022-08-28T08:09:20Z</time>
      </trkpt>
      <trkpt lat="50.29552" lon="4.18645">
        <ele>143.700165</ele>
        <time>2022-08-28T08:09:22Z</time>
      </trkpt>
      <trkpt lat="50.29543" lon="4.18654">
        <ele>143.679276</ele>
        <time>2022-08-28T08:09:24Z</time>
      </trkpt>
      <trkpt lat="50.29533" lon="4.18662">
        <ele>143.54747</ele>
        <time>2022-08-28T08:09:26Z</time>
      </trkpt>
      <trkpt lat="50.29524" lon="4.18671">
        <ele>143.516098</ele>
        <time>2022-08-28T08:09:28Z</time>
      </trkpt>
      <trkpt lat="50.29514" lon="4.18679">
        <ele>143.319427</ele>
        <time>2022-08-28T08:09:30Z</time>
      </trkpt>
      <trkpt lat="50.29505" lon="4.18689">
        <ele>143.313141</ele>
        <time>2022-08-28T08:09:32Z</time>
      </trkpt>
      <trkpt lat="50.29496" lon="4.18699">
        <ele>143.175079</ele>
        <time>2022-08-28T08:09:34Z</time>
      </trkpt>
      <trkpt lat="50.29488" lon="4.1871">
        <ele>143.277573</ele>
        <time>2022-08-28T08:09:36Z</time>
      </trkpt>
      <trkpt lat="50.29479" lon="4.18722">
        <ele>143.580826</ele>
        <time>2022-08-28T08:09:38Z</time>
      </trkpt>
      <trkpt lat="50.29471" lon="4.18733">
        <ele>143.670746</ele>
        <time>2022-08-28T08:09:40Z</time>
      </trkpt>
      <trkpt lat="50.29462" lon="4.18744">
        <ele>143.553253</ele>
        <time>2022-08-28T08:09:42Z</time>
      </trkpt>
      <trkpt lat="50.29454" lon="4.18755">
        <ele>143.413681</ele>
        <time>2022-08-28T08:09:44Z</time>
      </trkpt>
      <trkpt lat="50.29445" lon="4.18765">
        <ele>143.29538</ele>
        <time>2022-08-28T08:09:46Z</time>
      </trkpt>
      <trkpt lat="50.29435" lon="4.18775">
        <ele>143.303741</ele>
        <time>2022-08-28T08:09:48Z</time>
      </trkpt>
      <trkpt lat="50.29427" lon="4.18784">
        <ele>143.261932</ele>
        <time>2022-08-28T08:09:50Z</time>
      </trkpt>
      <trkpt lat="50.29418" lon="4.18793">
        <ele>143.09671</ele>
        <time>2022-08-28T08:09:52Z</time>
      </trkpt>
      <trkpt lat="50.29409" lon="4.18801">
        <ele>142.940826</ele>
        <time>2022-08-28T08:09:54Z</time>
      </trkpt>
      <trkpt lat="50.294" lon="4.1881">
        <ele>142.855072</ele>
        <time>2022-08-28T08:09:56Z</time>
      </trkpt>
      <trkpt lat="50.29392" lon="4.18819">
        <ele>142.875137</ele>
        <time>2022-08-28T08:09:58Z</time>
      </trkpt>
      <trkpt lat="50.29384" lon="4.18828">
        <ele>142.833115</ele>
        <time>2022-08-28T08:10:00Z</time>
      </trkpt>
      <trkpt lat="50.29375" lon="4.18837">
        <ele>142.616608</ele>
        <time>2022-08-28T08:10:02Z</time>
      </trkpt>
      <trkpt lat="50.29366" lon="4.18846">
        <ele>142.493179</ele>
        <time>2022-08-28T08:10:04Z</time>
      </trkpt>
      <trkpt lat="50.29358" lon="4.18855">
        <ele>142.618683</ele>
        <time>2022-08-28T08:10:06Z</time>
      </trkpt>
      <trkpt lat="50.29349" lon="4.18864">
        <ele>142.710724</ele>
        <time>2022-08-28T08:10:08Z</time>
      </trkpt>
      <trkpt lat="50.29341" lon="4.18872">
        <ele>142.687134</ele>
        <time>2022-08-28T08:10:10Z</time>
      </trkpt>
      <trkpt lat="50.29332" lon="4.18879">
        <ele>142.567932</ele>
        <time>2022-08-28T08:10:12Z</time>
      </trkpt>
      <trkpt lat="50.29322" lon="4.1888">
        <ele>142.47171</ele>
        <time>2022-08-28T08:10:14Z</time>
      </trkpt>
      <trkpt lat="50.29312" lon="4.18878">
        <ele>142.426895</ele>
        <time>2022-08-28T08:10:16Z</time>
      </trkpt>
      <trkpt lat="50.29301" lon="4.18874">
        <ele>142.341156</ele>
        <time>2022-08-28T08:10:18Z</time>
      </trkpt>
      <trkpt lat="50.29289" lon="4.1887">
        <ele>142.236572</ele>
        <time>2022-08-28T08:10:20Z</time>
      </trkpt>
      <trkpt lat="50.29277" lon="4.18866">
        <ele>141.902313</ele>
        <time>2022-08-28T08:10:22Z</time>
      </trkpt>
      <trkpt lat="50.29265" lon="4.18863">
        <ele>141.789368</ele>
        <time>2022-08-28T08:10:24Z</time>
      </trkpt>
      <trkpt lat="50.29253" lon="4.18859">
        <ele>141.514496</ele>
        <time>2022-08-28T08:10:26Z</time>
      </trkpt>
      <trkpt lat="50.29241" lon="4.18854">
        <ele>141.466385</ele>
        <time>2022-08-28T08:10:28Z</time>
      </trkpt>
      <trkpt lat="50.2923" lon="4.18848">
        <ele>141.257233</ele>
        <time>2022-08-28T08:10:30Z</time>
      </trkpt>
      <trkpt lat="50.29218" lon="4.1884">
        <ele>141.152649</ele>
        <time>2022-08-28T08:10:32Z</time>
      </trkpt>
      <trkpt lat="50.29207" lon="4.1883">
        <ele>141.092026</ele>
        <time>2022-08-28T08:10:34Z</time>
      </trkpt>
      <trkpt lat="50.29195" lon="4.18821">
        <ele>140.770081</ele>
        <time>2022-08-28T08:10:36Z</time>
      </trkpt>
      <trkpt lat="50.29183" lon="4.18812">
        <ele>140.708191</ele>
        <time>2022-08-28T08:10:38Z</time>
      </trkpt>
      <trkpt lat="50.29172" lon="4.18806">
        <ele>140.415573</ele>
        <time>2022-08-28T08:10:40Z</time>
      </trkpt>
      <trkpt lat="50.29161" lon="4.18799">
        <ele>140.375824</ele>
        <time>2022-08-28T08:10:42Z</time>
      </trkpt>
      <trkpt lat="50.2915" lon="4.18793">
        <ele>140.116531</ele>
        <time>2022-08-28T08:10:44Z</time>
      </trkpt>
      <trkpt lat="50.29141" lon="4.18787">
        <ele>139.786148</ele>
        <time>2022-08-28T08:10:46Z</time>
      </trkpt>
      <trkpt lat="50.29133" lon="4.1878">
        <ele>139.537277</ele>
        <time>2022-08-28T08:10:48Z</time>
      </trkpt>
      <trkpt lat="50.29133" lon="4.18768">
        <ele>139.359528</ele>
        <time>2022-08-28T08:10:50Z</time>
      </trkpt>
      <trkpt lat="50.29134" lon="4.18757">
        <ele>139.136505</ele>
        <time>2022-08-28T08:10:52Z</time>
      </trkpt>
      <trkpt lat="50.29135" lon="4.18744">
        <ele>138.970642</ele>
        <time>2022-08-28T08:10:54Z</time>
      </trkpt>
      <trkpt lat="50.29134" lon="4.18726">
        <ele>138.851471</ele>
        <time>2022-08-28T08:10:56Z</time>
      </trkpt>
      <trkpt lat="50.29131" lon="4.18709">
        <ele>138.471725</ele>
        <time>2022-08-28T08:10:58Z</time>
      </trkpt>
      <trkpt lat="50.29127" lon="4.18695">
        <ele>138.413177</ele>
        <time>2022-08-28T08:11:00Z</time>
      </trkpt>
      <trkpt lat="50.29123" lon="4.18683">
        <ele>138.160187</ele>
        <time>2022-08-28T08:11:02Z</time>
      </trkpt>
      <trkpt lat="50.29119" lon="4.18677">
        <ele>138.057709</ele>
        <time>2022-08-28T08:11:04Z</time>
      </trkpt>
      <trkpt lat="50.29118" lon="4.18671">
        <ele>138.038895</ele>
        <time>2022-08-28T08:11:06Z</time>
      </trkpt>
      <trkpt lat="50.29118" lon="4.18663">
        <ele>137.823517</ele>
        <time>2022-08-28T08:11:08Z</time>
      </trkpt>
      <trkpt lat="50.2912" lon="4.18658">
        <ele>137.79422</ele>
        <time>2022-08-28T08:11:10Z</time>
      </trkpt>
      <trkpt lat="50.29123" lon="4.18656">
        <ele>137.668777</ele>
        <time>2022-08-28T08:11:12Z</time>
      </trkpt>
      <trkpt lat="50.29128" lon="4.18652">
        <ele>137.656219</ele>
        <time>2022-08-28T08:11:14Z</time>
      </trkpt>
      <trkpt lat="50.29133" lon="4.18649">
        <ele>137.411545</ele>
        <time>2022-08-28T08:11:16Z</time>
      </trkpt>
      <trkpt lat="50.29136" lon="4.18647">
        <ele>137.499298</ele>
        <time>2022-08-28T08:11:18Z</time>
      </trkpt>
      <trkpt lat="50.29141" lon="4.18647">
        <ele>137.522293</ele>
        <time>2022-08-28T08:11:20Z</time>
      </trkpt>
      <trkpt lat="50.29146" lon="4.18647">
        <ele>137.522293</ele>
        <time>2022-08-28T08:11:22Z</time>
      </trkpt>
      <trkpt lat="50.29151" lon="4.18647">
        <ele>137.421921</ele>
        <time>2022-08-28T08:11:24Z</time>
      </trkpt>
      <trkpt lat="50.29153" lon="4.18644">
        <ele>137.48674</ele>
        <time>2022-08-28T08:11:26Z</time>
      </trkpt>
      <trkpt lat="50.29157" lon="4.1864">
        <ele>137.603806</ele>
        <time>2022-08-28T08:11:28Z</time>
      </trkpt>
      <trkpt lat="50.2916" lon="4.18636">
        <ele>137.534821</ele>
        <time>2022-08-28T08:11:30Z</time>
      </trkpt>
      <trkpt lat="50.29165" lon="4.18635">
        <ele>137.572296</ele>
        <time>2022-08-28T08:11:32Z</time>
      </trkpt>
      <trkpt lat="50.29172" lon="4.18636">
        <ele>137.614792</ele>
        <time>2022-08-28T08:11:34Z</time>
      </trkpt>
      <trkpt lat="50.29179" lon="4.18635">
        <ele>137.733963</ele>
        <time>2022-08-28T08:11:36Z</time>
      </trkpt>
      <trkpt lat="50.29188" lon="4.18632">
        <ele>137.825974</ele>
        <time>2022-08-28T08:11:38Z</time>
      </trkpt>
      <trkpt lat="50.292" lon="4.18625">
        <ele>137.982803</ele>
        <time>2022-08-28T08:11:40Z</time>
      </trkpt>
      <trkpt lat="50.29208" lon="4.18624">
        <ele>138.058075</ele>
        <time>2022-08-28T08:11:42Z</time>
      </trkpt>
      <trkpt lat="50.29217" lon="4.1862">
        <ele>138.302689</ele>
        <time>2022-08-28T08:11:44Z</time>
      </trkpt>
      <trkpt lat="50.29225" lon="4.18618">
        <ele>138.547333</ele>
        <time>2022-08-28T08:11:46Z</time>
      </trkpt>
      <trkpt lat="50.29232" lon="4.18616">
        <ele>138.718781</ele>
        <time>2022-08-28T08:11:48Z</time>
      </trkpt>
      <trkpt lat="50.29242" lon="4.18614">
        <ele>138.846329</ele>
        <time>2022-08-28T08:11:50Z</time>
      </trkpt>
      <trkpt lat="50.29251" lon="4.18612">
        <ele>138.996887</ele>
        <time>2022-08-28T08:11:52Z</time>
      </trkpt>
      <trkpt lat="50.29259" lon="4.18609">
        <ele>139.199722</ele>
        <time>2022-08-28T08:11:54Z</time>
      </trkpt>
      <trkpt lat="50.29267" lon="4.18605">
        <ele>139.450638</ele>
        <time>2022-08-28T08:11:56Z</time>
      </trkpt>
      <trkpt lat="50.29274" lon="4.18603">
        <ele>139.630463</ele>
        <time>2022-08-28T08:11:58Z</time>
      </trkpt>
      <trkpt lat="50.29282" lon="4.18601">
        <ele>139.762207</ele>
        <time>2022-08-28T08:12:00Z</time>
      </trkpt>
      <trkpt lat="50.29289" lon="4.18601">
        <ele>139.928345</ele>
        <time>2022-08-28T08:12:02Z</time>
      </trkpt>
      <trkpt lat="50.29297" lon="4.18598">
        <ele>140.181381</ele>
        <time>2022-08-28T08:12:04Z</time>
      </trkpt>
      <trkpt lat="50.29305" lon="4.18597">
        <ele>140.375854</ele>
        <time>2022-08-28T08:12:06Z</time>
      </trkpt>
      <trkpt lat="50.29314" lon="4.18594">
        <ele>140.490875</ele>
        <time>2022-08-28T08:12:08Z</time>
      </trkpt>
      <trkpt lat="50.29324" lon="4.1859">
        <ele>140.687439</ele>
        <time>2022-08-28T08:12:10Z</time>
      </trkpt>
      <trkpt lat="50.29334" lon="4.18583">
        <ele>140.900757</ele>
        <time>2022-08-28T08:12:12Z</time>
      </trkpt>
      <trkpt lat="50.29344" lon="4.18577">
        <ele>141.222839</ele>
        <time>2022-08-28T08:12:14Z</time>
      </trkpt>
      <trkpt lat="50.29351" lon="4.18573">
        <ele>141.480484</ele>
        <time>2022-08-28T08:12:16Z</time>
      </trkpt>
      <trkpt lat="50.2936" lon="4.18568">
        <ele>141.694809</ele>
        <time>2022-08-28T08:12:18Z</time>
      </trkpt>
      <trkpt lat="50.2937" lon="4.1856">
        <ele>141.90654</ele>
        <time>2022-08-28T08:12:20Z</time>
      </trkpt>
      <trkpt lat="50.29378" lon="4.18552">
        <ele>142.157089</ele>
        <time>2022-08-28T08:12:22Z</time>
      </trkpt>
      <trkpt lat="50.29387" lon="4.18542">
        <ele>142.455597</ele>
        <time>2022-08-28T08:12:24Z</time>
      </trkpt>
      <trkpt lat="50.29399" lon="4.18523">
        <ele>142.62085</ele>
        <time>2022-08-28T08:12:26Z</time>
      </trkpt>
      <trkpt lat="50.29406" lon="4.18511">
        <ele>142.821655</ele>
        <time>2022-08-28T08:12:28Z</time>
      </trkpt>
      <trkpt lat="50.29412" lon="4.185">
        <ele>143.087311</ele>
        <time>2022-08-28T08:12:30Z</time>
      </trkpt>
      <trkpt lat="50.29419" lon="4.18488">
        <ele>143.28186</ele>
        <time>2022-08-28T08:12:32Z</time>
      </trkpt>
      <trkpt lat="50.29425" lon="4.18477">
        <ele>143.50148</ele>
        <time>2022-08-28T08:12:34Z</time>
      </trkpt>
      <trkpt lat="50.29433" lon="4.18466">
        <ele>143.750458</ele>
        <time>2022-08-28T08:12:36Z</time>
      </trkpt>
      <trkpt lat="50.29439" lon="4.18455">
        <ele>143.965912</ele>
        <time>2022-08-28T08:12:38Z</time>
      </trkpt>
      <trkpt lat="50.29445" lon="4.18443">
        <ele>144.157318</ele>
        <time>2022-08-28T08:12:40Z</time>
      </trkpt>
      <trkpt lat="50.2945" lon="4.18431">
        <ele>144.280609</ele>
        <time>2022-08-28T08:12:42Z</time>
      </trkpt>
      <trkpt lat="50.29456" lon="4.1842">
        <ele>144.396393</ele>
        <time>2022-08-28T08:12:44Z</time>
      </trkpt>
      <trkpt lat="50.29462" lon="4.18409">
        <ele>144.658234</ele>
        <time>2022-08-28T08:12:46Z</time>
      </trkpt>
      <trkpt lat="50.29468" lon="4.18397">
        <ele>144.909271</ele>
        <time>2022-08-28T08:12:48Z</time>
      </trkpt>
      <trkpt lat="50.29471" lon="4.18385">
        <ele>145.151947</ele>
        <time>2022-08-28T08:12:50Z</time>
      </trkpt>
      <trkpt lat="50.29475" lon="4.18374">
        <ele>145.166595</ele>
        <time>2022-08-28T08:12:52Z</time>
      </trkpt>
      <trkpt lat="50.2948" lon="4.18362">
        <ele>145.29213</ele>
        <time>2022-08-28T08:12:54Z</time>
      </trkpt>
      <trkpt lat="50.29484" lon="4.18351">
        <ele>145.51561</ele>
        <time>2022-08-28T08:12:56Z</time>
      </trkpt>
      <trkpt lat="50.29488" lon="4.1834">
        <ele>145.59201</ele>
        <time>2022-08-28T08:12:58Z</time>
      </trkpt>
      <trkpt lat="50.29491" lon="4.18329">
        <ele>145.746368</ele>
        <time>2022-08-28T08:13:00Z</time>
      </trkpt>
      <trkpt lat="50.29495" lon="4.1832">
        <ele>145.872375</ele>
        <time>2022-08-28T08:13:02Z</time>
      </trkpt>
      <trkpt lat="50.29497" lon="4.18309">
        <ele>145.900177</ele>
        <time>2022-08-28T08:13:04Z</time>
      </trkpt>
      <trkpt lat="50.29499" lon="4.18298">
        <ele>146.057114</ele>
        <time>2022-08-28T08:13:06Z</time>
      </trkpt>
      <trkpt lat="50.295" lon="4.18287">
        <ele>146.19191</ele>
        <time>2022-08-28T08:13:08Z</time>
      </trkpt>
      <trkpt lat="50.29501" lon="4.18275">
        <ele>146.318329</ele>
        <time>2022-08-28T08:13:10Z</time>
      </trkpt>
      <trkpt lat="50.29504" lon="4.18263">
        <ele>146.339264</ele>
        <time>2022-08-28T08:13:12Z</time>
      </trkpt>
      <trkpt lat="50.29504" lon="4.1825">
        <ele>146.502899</ele>
        <time>2022-08-28T08:13:14Z</time>
      </trkpt>
      <trkpt lat="50.29505" lon="4.18238">
        <ele>146.588974</ele>
        <time>2022-08-28T08:13:16Z</time>
      </trkpt>
      <trkpt lat="50.29504" lon="4.18225">
        <ele>146.658035</ele>
        <time>2022-08-28T08:13:18Z</time>
      </trkpt>
      <trkpt lat="50.29503" lon="4.18212">
        <ele>146.645477</ele>
        <time>2022-08-28T08:13:20Z</time>
      </trkpt>
      <trkpt lat="50.29501" lon="4.18196">
        <ele>146.600494</ele>
        <time>2022-08-28T08:13:22Z</time>
      </trkpt>
      <trkpt lat="50.29499" lon="4.18178">
        <ele>146.503479</ele>
        <time>2022-08-28T08:13:24Z</time>
      </trkpt>
      <trkpt lat="50.29495" lon="4.18158">
        <ele>146.44838</ele>
        <time>2022-08-28T08:13:26Z</time>
      </trkpt>
      <trkpt lat="50.29491" lon="4.18139">
        <ele>146.558914</ele>
        <time>2022-08-28T08:13:28Z</time>
      </trkpt>
      <trkpt lat="50.29487" lon="4.18121">
        <ele>146.561005</ele>
        <time>2022-08-28T08:13:30Z</time>
      </trkpt>
      <trkpt lat="50.29482" lon="4.18105">
        <ele>146.443863</ele>
        <time>2022-08-28T08:13:32Z</time>
      </trkpt>
      <trkpt lat="50.29475" lon="4.18091">
        <ele>146.403549</ele>
        <time>2022-08-28T08:13:34Z</time>
      </trkpt>
      <trkpt lat="50.29469" lon="4.18076">
        <ele>146.332413</ele>
        <time>2022-08-28T08:13:36Z</time>
      </trkpt>
      <trkpt lat="50.29464" lon="4.18061">
        <ele>146.188049</ele>
        <time>2022-08-28T08:13:38Z</time>
      </trkpt>
      <trkpt lat="50.29458" lon="4.18045">
        <ele>145.962082</ele>
        <time>2022-08-28T08:13:40Z</time>
      </trkpt>
      <trkpt lat="50.29453" lon="4.1803">
        <ele>145.863754</ele>
        <time>2022-08-28T08:13:42Z</time>
      </trkpt>
      <trkpt lat="50.29449" lon="4.18015">
        <ele>145.713104</ele>
        <time>2022-08-28T08:13:44Z</time>
      </trkpt>
      <trkpt lat="50.29445" lon="4.18">
        <ele>145.581314</ele>
        <time>2022-08-28T08:13:46Z</time>
      </trkpt>
      <trkpt lat="50.29442" lon="4.17985">
        <ele>145.361603</ele>
        <time>2022-08-28T08:13:48Z</time>
      </trkpt>
      <trkpt lat="50.29439" lon="4.17973">
        <ele>145.203781</ele>
        <time>2022-08-28T08:13:50Z</time>
      </trkpt>
      <trkpt lat="50.29435" lon="4.17961">
        <ele>144.953949</ele>
        <time>2022-08-28T08:13:52Z</time>
      </trkpt>
      <trkpt lat="50.29429" lon="4.17953">
        <ele>144.717529</ele>
        <time>2022-08-28T08:13:54Z</time>
      </trkpt>
      <trkpt lat="50.29421" lon="4.17946">
        <ele>144.464844</ele>
        <time>2022-08-28T08:13:56Z</time>
      </trkpt>
      <trkpt lat="50.29414" lon="4.17939">
        <ele>144.169556</ele>
        <time>2022-08-28T08:13:58Z</time>
      </trkpt>
      <trkpt lat="50.29403" lon="4.1793">
        <ele>143.87674</ele>
        <time>2022-08-28T08:14:00Z</time>
      </trkpt>
      <trkpt lat="50.29392" lon="4.17919">
        <ele>143.663376</ele>
        <time>2022-08-28T08:14:02Z</time>
      </trkpt>
      <trkpt lat="50.29381" lon="4.17905">
        <ele>143.220001</ele>
        <time>2022-08-28T08:14:04Z</time>
      </trkpt>
      <trkpt lat="50.29371" lon="4.17889">
        <ele>142.956482</ele>
        <time>2022-08-28T08:14:06Z</time>
      </trkpt>
      <trkpt lat="50.29361" lon="4.17872">
        <ele>142.5867</ele>
        <time>2022-08-28T08:14:08Z</time>
      </trkpt>
      <trkpt lat="50.29349" lon="4.17859">
        <ele>142.099304</ele>
        <time>2022-08-28T08:14:10Z</time>
      </trkpt>
      <trkpt lat="50.29336" lon="4.17845">
        <ele>141.80777</ele>
        <time>2022-08-28T08:14:12Z</time>
      </trkpt>
      <trkpt lat="50.29323" lon="4.1783">
        <ele>141.256256</ele>
        <time>2022-08-28T08:14:14Z</time>
      </trkpt>
      <trkpt lat="50.29311" lon="4.17812">
        <ele>140.109146</ele>
        <time>2022-08-28T08:14:16Z</time>
      </trkpt>
      <trkpt lat="50.29301" lon="4.17793">
        <ele>140.084396</ele>
        <time>2022-08-28T08:14:18Z</time>
      </trkpt>
      <trkpt lat="50.29289" lon="4.17775">
        <ele>139.760376</ele>
        <time>2022-08-28T08:14:20Z</time>
      </trkpt>
      <trkpt lat="50.29275" lon="4.17759">
        <ele>139.185394</ele>
        <time>2022-08-28T08:14:22Z</time>
      </trkpt>
      <trkpt lat="50.29263" lon="4.17745">
        <ele>138.584229</ele>
        <time>2022-08-28T08:14:24Z</time>
      </trkpt>
      <trkpt lat="50.2925" lon="4.17732">
        <ele>138.071304</ele>
        <time>2022-08-28T08:14:26Z</time>
      </trkpt>
      <trkpt lat="50.2924" lon="4.17719">
        <ele>137.345901</ele>
        <time>2022-08-28T08:14:28Z</time>
      </trkpt>
      <trkpt lat="50.29229" lon="4.17707">
        <ele>136.528442</ele>
        <time>2022-08-28T08:14:30Z</time>
      </trkpt>
      <trkpt lat="50.29219" lon="4.17697">
        <ele>135.786392</ele>
        <time>2022-08-28T08:14:32Z</time>
      </trkpt>
      <trkpt lat="50.2921" lon="4.17687">
        <ele>135.144684</ele>
        <time>2022-08-28T08:14:34Z</time>
      </trkpt>
      <trkpt lat="50.292" lon="4.17683">
        <ele>134.412201</ele>
        <time>2022-08-28T08:14:36Z</time>
      </trkpt>
      <trkpt lat="50.29191" lon="4.1768">
        <ele>133.684906</ele>
        <time>2022-08-28T08:14:38Z</time>
      </trkpt>
      <trkpt lat="50.29181" lon="4.17679">
        <ele>133.024521</ele>
        <time>2022-08-28T08:14:40Z</time>
      </trkpt>
      <trkpt lat="50.29172" lon="4.17678">
        <ele>132.217865</ele>
        <time>2022-08-28T08:14:42Z</time>
      </trkpt>
      <trkpt lat="50.29163" lon="4.17676">
        <ele>131.643188</ele>
        <time>2022-08-28T08:14:44Z</time>
      </trkpt>
      <trkpt lat="50.29158" lon="4.17669">
        <ele>131.037231</ele>
        <time>2022-08-28T08:14:46Z</time>
      </trkpt>
      <trkpt lat="50.29156" lon="4.17659">
        <ele>130.395721</ele>
        <time>2022-08-28T08:14:48Z</time>
      </trkpt>
      <trkpt lat="50.29155" lon="4.17649">
        <ele>129.726563</ele>
        <time>2022-08-28T08:14:50Z</time>
      </trkpt>
      <trkpt lat="50.29157" lon="4.1764">
        <ele>129.14357</ele>
        <time>2022-08-28T08:14:52Z</time>
      </trkpt>
      <trkpt lat="50.29158" lon="4.17632">
        <ele>128.713974</ele>
        <time>2022-08-28T08:14:54Z</time>
      </trkpt>
      <trkpt lat="50.29158" lon="4.17624">
        <ele>128.524139</ele>
        <time>2022-08-28T08:14:56Z</time>
      </trkpt>
      <trkpt lat="50.2916" lon="4.17615">
        <ele>128.79538</ele>
        <time>2022-08-28T08:14:58Z</time>
      </trkpt>
      <trkpt lat="50.2916" lon="4.17607">
        <ele>128.088501</ele>
        <time>2022-08-28T08:15:00Z</time>
      </trkpt>
      <trkpt lat="50.29159" lon="4.17599">
        <ele>127.925522</ele>
        <time>2022-08-28T08:15:02Z</time>
      </trkpt>
      <trkpt lat="50.29158" lon="4.1759">
        <ele>127.790817</ele>
        <time>2022-08-28T08:15:04Z</time>
      </trkpt>
      <trkpt lat="50.29157" lon="4.17582">
        <ele>127.758095</ele>
        <time>2022-08-28T08:15:06Z</time>
      </trkpt>
      <trkpt lat="50.29154" lon="4.17575">
        <ele>127.760178</ele>
        <time>2022-08-28T08:15:08Z</time>
      </trkpt>
      <trkpt lat="50.29151" lon="4.17569">
        <ele>127.827042</ele>
        <time>2022-08-28T08:15:10Z</time>
      </trkpt>
      <trkpt lat="50.29147" lon="4.17562">
        <ele>128.006699</ele>
        <time>2022-08-28T08:15:12Z</time>
      </trkpt>
      <trkpt lat="50.29143" lon="4.17555">
        <ele>128.15477</ele>
        <time>2022-08-28T08:15:14Z</time>
      </trkpt>
      <trkpt lat="50.29139" lon="4.17548">
        <ele>128.33989</ele>
        <time>2022-08-28T08:15:16Z</time>
      </trkpt>
      <trkpt lat="50.29136" lon="4.17541">
        <ele>128.667892</ele>
        <time>2022-08-28T08:15:18Z</time>
      </trkpt>
      <trkpt lat="50.29132" lon="4.17535">
        <ele>129.054413</ele>
        <time>2022-08-28T08:15:20Z</time>
      </trkpt>
      <trkpt lat="50.29129" lon="4.17528">
        <ele>128.935699</ele>
        <time>2022-08-28T08:15:22Z</time>
      </trkpt>
      <trkpt lat="50.29125" lon="4.17522">
        <ele>129.405792</ele>
        <time>2022-08-28T08:15:24Z</time>
      </trkpt>
      <trkpt lat="50.29121" lon="4.17515">
        <ele>129.911392</ele>
        <time>2022-08-28T08:15:26Z</time>
      </trkpt>
      <trkpt lat="50.29118" lon="4.1751">
        <ele>130.406555</ele>
        <time>2022-08-28T08:15:28Z</time>
      </trkpt>
      <trkpt lat="50.29116" lon="4.17504">
        <ele>130.935165</ele>
        <time>2022-08-28T08:15:30Z</time>
      </trkpt>
      <trkpt lat="50.29114" lon="4.17499">
        <ele>131.470062</ele>
        <time>2022-08-28T08:15:32Z</time>
      </trkpt>
      <trkpt lat="50.29112" lon="4.17495">
        <ele>131.975739</ele>
        <time>2022-08-28T08:15:34Z</time>
      </trkpt>
      <trkpt lat="50.29111" lon="4.1749">
        <ele>132.539673</ele>
        <time>2022-08-28T08:15:36Z</time>
      </trkpt>
      <trkpt lat="50.29112" lon="4.17485">
        <ele>132.796722</ele>
        <time>2022-08-28T08:15:38Z</time>
      </trkpt>
      <trkpt lat="50.29111" lon="4.17481">
        <ele>133.284393</ele>
        <time>2022-08-28T08:15:40Z</time>
      </trkpt>
      <trkpt lat="50.29112" lon="4.17477">
        <ele>133.800613</ele>
        <time>2022-08-28T08:15:42Z</time>
      </trkpt>
      <trkpt lat="50.29111" lon="4.17471">
        <ele>134.291016</ele>
        <time>2022-08-28T08:15:44Z</time>
      </trkpt>
      <trkpt lat="50.2911" lon="4.17465">
        <ele>134.739639</ele>
        <time>2022-08-28T08:15:46Z</time>
      </trkpt>
      <trkpt lat="50.29109" lon="4.17458">
        <ele>135.237152</ele>
        <time>2022-08-28T08:15:48Z</time>
      </trkpt>
      <trkpt lat="50.29108" lon="4.17453">
        <ele>135.71373</ele>
        <time>2022-08-28T08:15:50Z</time>
      </trkpt>
      <trkpt lat="50.29107" lon="4.17447">
        <ele>136.135986</ele>
        <time>2022-08-28T08:15:52Z</time>
      </trkpt>
      <trkpt lat="50.29107" lon="4.17441">
        <ele>136.579391</ele>
        <time>2022-08-28T08:15:54Z</time>
      </trkpt>
      <trkpt lat="50.29107" lon="4.17435">
        <ele>137.029068</ele>
        <time>2022-08-28T08:15:56Z</time>
      </trkpt>
      <trkpt lat="50.29107" lon="4.1743">
        <ele>137.459747</ele>
        <time>2022-08-28T08:15:58Z</time>
      </trkpt>
      <trkpt lat="50.29109" lon="4.17425">
        <ele>137.861176</ele>
        <time>2022-08-28T08:16:00Z</time>
      </trkpt>
      <trkpt lat="50.29112" lon="4.1742">
        <ele>138.815887</ele>
        <time>2022-08-28T08:16:02Z</time>
      </trkpt>
      <trkpt lat="50.29115" lon="4.17415">
        <ele>139.217361</ele>
        <time>2022-08-28T08:16:04Z</time>
      </trkpt>
      <trkpt lat="50.29117" lon="4.1741">
        <ele>139.625122</ele>
        <time>2022-08-28T08:16:06Z</time>
      </trkpt>
      <trkpt lat="50.2912" lon="4.17404">
        <ele>140.068451</ele>
        <time>2022-08-28T08:16:08Z</time>
      </trkpt>
      <trkpt lat="50.29123" lon="4.17399">
        <ele>140.426025</ele>
        <time>2022-08-28T08:16:10Z</time>
      </trkpt>
      <trkpt lat="50.29126" lon="4.17394">
        <ele>140.798279</ele>
        <time>2022-08-28T08:16:12Z</time>
      </trkpt>
      <trkpt lat="50.29129" lon="4.17389">
        <ele>141.197723</ele>
        <time>2022-08-28T08:16:14Z</time>
      </trkpt>
      <trkpt lat="50.29131" lon="4.17384">
        <ele>141.572067</ele>
        <time>2022-08-28T08:16:16Z</time>
      </trkpt>
      <trkpt lat="50.29136" lon="4.1738">
        <ele>141.726074</ele>
        <time>2022-08-28T08:16:18Z</time>
      </trkpt>
      <trkpt lat="50.2914" lon="4.17379">
        <ele>142.075348</ele>
        <time>2022-08-28T08:16:20Z</time>
      </trkpt>
      <trkpt lat="50.29144" lon="4.17382">
        <ele>142.442688</ele>
        <time>2022-08-28T08:16:22Z</time>
      </trkpt>
      <trkpt lat="50.29149" lon="4.17384">
        <ele>142.764801</ele>
        <time>2022-08-28T08:16:24Z</time>
      </trkpt>
      <trkpt lat="50.29153" lon="4.17387">
        <ele>143.119034</ele>
        <time>2022-08-28T08:16:26Z</time>
      </trkpt>
      <trkpt lat="50.29158" lon="4.17391">
        <ele>143.435638</ele>
        <time>2022-08-28T08:16:28Z</time>
      </trkpt>
      <trkpt lat="50.29165" lon="4.17394">
        <ele>143.74733</ele>
        <time>2022-08-28T08:16:30Z</time>
      </trkpt>
      <trkpt lat="50.29171" lon="4.17399">
        <ele>144.069489</ele>
        <time>2022-08-28T08:16:32Z</time>
      </trkpt>
      <trkpt lat="50.29178" lon="4.17402">
        <ele>144.377182</ele>
        <time>2022-08-28T08:16:34Z</time>
      </trkpt>
      <trkpt lat="50.29184" lon="4.17406">
        <ele>144.714584</ele>
        <time>2022-08-28T08:16:36Z</time>
      </trkpt>
      <trkpt lat="50.2919" lon="4.1741">
        <ele>145.055588</ele>
        <time>2022-08-28T08:16:38Z</time>
      </trkpt>
      <trkpt lat="50.29197" lon="4.17413">
        <ele>145.332901</ele>
        <time>2022-08-28T08:16:40Z</time>
      </trkpt>
      <trkpt lat="50.29205" lon="4.17414">
        <ele>145.547623</ele>
        <time>2022-08-28T08:16:42Z</time>
      </trkpt>
      <trkpt lat="50.29212" lon="4.17408">
        <ele>145.773575</ele>
        <time>2022-08-28T08:16:44Z</time>
      </trkpt>
      <trkpt lat="50.29217" lon="4.174">
        <ele>146.01001</ele>
        <time>2022-08-28T08:16:46Z</time>
      </trkpt>
      <trkpt lat="50.29221" lon="4.17393">
        <ele>146.18576</ele>
        <time>2022-08-28T08:16:48Z</time>
      </trkpt>
      <trkpt lat="50.29226" lon="4.17384">
        <ele>146.360748</ele>
        <time>2022-08-28T08:16:50Z</time>
      </trkpt>
      <trkpt lat="50.29229" lon="4.17375">
        <ele>146.555344</ele>
        <time>2022-08-28T08:16:52Z</time>
      </trkpt>
      <trkpt lat="50.29233" lon="4.17366">
        <ele>146.737396</ele>
        <time>2022-08-28T08:16:54Z</time>
      </trkpt>
      <trkpt lat="50.29237" lon="4.17357">
        <ele>146.948761</ele>
        <time>2022-08-28T08:16:56Z</time>
      </trkpt>
      <trkpt lat="50.29241" lon="4.17347">
        <ele>147.18808</ele>
        <time>2022-08-28T08:16:58Z</time>
      </trkpt>
      <trkpt lat="50.29246" lon="4.17338">
        <ele>147.474274</ele>
        <time>2022-08-28T08:17:00Z</time>
      </trkpt>
      <trkpt lat="50.2925" lon="4.17328">
        <ele>147.723312</ele>
        <time>2022-08-28T08:17:02Z</time>
      </trkpt>
      <trkpt lat="50.29256" lon="4.17319">
        <ele>147.989105</ele>
        <time>2022-08-28T08:17:04Z</time>
      </trkpt>
      <trkpt lat="50.29261" lon="4.1731">
        <ele>148.158661</ele>
        <time>2022-08-28T08:17:06Z</time>
      </trkpt>
      <trkpt lat="50.29268" lon="4.17302">
        <ele>148.422348</ele>
        <time>2022-08-28T08:17:08Z</time>
      </trkpt>
      <trkpt lat="50.29273" lon="4.17293">
        <ele>148.665146</ele>
        <time>2022-08-28T08:17:10Z</time>
      </trkpt>
      <trkpt lat="50.29279" lon="4.17285">
        <ele>149.012619</ele>
        <time>2022-08-28T08:17:12Z</time>
      </trkpt>
      <trkpt lat="50.29285" lon="4.17276">
        <ele>149.30127</ele>
        <time>2022-08-28T08:17:14Z</time>
      </trkpt>
      <trkpt lat="50.29292" lon="4.17267">
        <ele>149.600601</ele>
        <time>2022-08-28T08:17:16Z</time>
      </trkpt>
      <trkpt lat="50.29298" lon="4.17258">
        <ele>150.436569</ele>
        <time>2022-08-28T08:17:18Z</time>
      </trkpt>
      <trkpt lat="50.29305" lon="4.17249">
        <ele>150.615448</ele>
        <time>2022-08-28T08:17:20Z</time>
      </trkpt>
      <trkpt lat="50.29311" lon="4.1724">
        <ele>150.877853</ele>
        <time>2022-08-28T08:17:22Z</time>
      </trkpt>
      <trkpt lat="50.29318" lon="4.17231">
        <ele>151.202286</ele>
        <time>2022-08-28T08:17:24Z</time>
      </trkpt>
      <trkpt lat="50.29326" lon="4.17222">
        <ele>151.509628</ele>
        <time>2022-08-28T08:17:26Z</time>
      </trkpt>
      <trkpt lat="50.29333" lon="4.17213">
        <ele>151.817352</ele>
        <time>2022-08-28T08:17:28Z</time>
      </trkpt>
      <trkpt lat="50.29341" lon="4.17204">
        <ele>152.114609</ele>
        <time>2022-08-28T08:17:30Z</time>
      </trkpt>
      <trkpt lat="50.29348" lon="4.17196">
        <ele>152.301651</ele>
        <time>2022-08-28T08:17:32Z</time>
      </trkpt>
      <trkpt lat="50.29356" lon="4.17188">
        <ele>152.663803</ele>
        <time>2022-08-28T08:17:34Z</time>
      </trkpt>
      <trkpt lat="50.29363" lon="4.17179">
        <ele>152.745453</ele>
        <time>2022-08-28T08:17:36Z</time>
      </trkpt>
      <trkpt lat="50.29371" lon="4.1717">
        <ele>152.847992</ele>
        <time>2022-08-28T08:17:38Z</time>
      </trkpt>
      <trkpt lat="50.29379" lon="4.17162">
        <ele>152.995087</ele>
        <time>2022-08-28T08:17:40Z</time>
      </trkpt>
      <trkpt lat="50.29387" lon="4.17154">
        <ele>153.031998</ele>
        <time>2022-08-28T08:17:42Z</time>
      </trkpt>
      <trkpt lat="50.29395" lon="4.17146">
        <ele>152.97966</ele>
        <time>2022-08-28T08:17:44Z</time>
      </trkpt>
      <trkpt lat="50.29403" lon="4.17137">
        <ele>153.017349</ele>
        <time>2022-08-28T08:17:46Z</time>
      </trkpt>
      <trkpt lat="50.29411" lon="4.1713">
        <ele>152.998505</ele>
        <time>2022-08-28T08:17:48Z</time>
      </trkpt>
      <trkpt lat="50.2942" lon="4.17123">
        <ele>152.910583</ele>
        <time>2022-08-28T08:17:50Z</time>
      </trkpt>
      <trkpt lat="50.29429" lon="4.17116">
        <ele>152.722183</ele>
        <time>2022-08-28T08:17:52Z</time>
      </trkpt>
      <trkpt lat="50.29438" lon="4.1711">
        <ele>152.594467</ele>
        <time>2022-08-28T08:17:54Z</time>
      </trkpt>
      <trkpt lat="50.29447" lon="4.17104">
        <ele>152.426987</ele>
        <time>2022-08-28T08:17:56Z</time>
      </trkpt>
      <trkpt lat="50.29456" lon="4.17099">
        <ele>151.781509</ele>
        <time>2022-08-28T08:17:58Z</time>
      </trkpt>
      <trkpt lat="50.29466" lon="4.17094">
        <ele>151.623383</ele>
        <time>2022-08-28T08:18:00Z</time>
      </trkpt>
      <trkpt lat="50.29476" lon="4.1709">
        <ele>151.577332</ele>
        <time>2022-08-28T08:18:02Z</time>
      </trkpt>
      <trkpt lat="50.29486" lon="4.17086">
        <ele>151.409851</ele>
        <time>2022-08-28T08:18:04Z</time>
      </trkpt>
      <trkpt lat="50.29495" lon="4.17082">
        <ele>151.240662</ele>
        <time>2022-08-28T08:18:06Z</time>
      </trkpt>
      <trkpt lat="50.29505" lon="4.17078">
        <ele>150.974823</ele>
        <time>2022-08-28T08:18:08Z</time>
      </trkpt>
      <trkpt lat="50.29515" lon="4.17074">
        <ele>150.811539</ele>
        <time>2022-08-28T08:18:10Z</time>
      </trkpt>
      <trkpt lat="50.29524" lon="4.17068">
        <ele>150.600082</ele>
        <time>2022-08-28T08:18:12Z</time>
      </trkpt>
      <trkpt lat="50.29533" lon="4.17061">
        <ele>150.459824</ele>
        <time>2022-08-28T08:18:14Z</time>
      </trkpt>
      <trkpt lat="50.29542" lon="4.17054">
        <ele>150.281876</ele>
        <time>2022-08-28T08:18:16Z</time>
      </trkpt>
      <trkpt lat="50.29551" lon="4.17048">
        <ele>149.980453</ele>
        <time>2022-08-28T08:18:18Z</time>
      </trkpt>
      <trkpt lat="50.29561" lon="4.17042">
        <ele>149.838989</ele>
        <time>2022-08-28T08:18:20Z</time>
      </trkpt>
      <trkpt lat="50.2957" lon="4.17035">
        <ele>149.749023</ele>
        <time>2022-08-28T08:18:22Z</time>
      </trkpt>
      <trkpt lat="50.29581" lon="4.17029">
        <ele>149.624191</ele>
        <time>2022-08-28T08:18:24Z</time>
      </trkpt>
      <trkpt lat="50.29592" lon="4.17022">
        <ele>149.605347</ele>
        <time>2022-08-28T08:18:26Z</time>
      </trkpt>
      <trkpt lat="50.29603" lon="4.17015">
        <ele>149.43161</ele>
        <time>2022-08-28T08:18:28Z</time>
      </trkpt>
      <trkpt lat="50.29614" lon="4.17007">
        <ele>149.103073</ele>
        <time>2022-08-28T08:18:30Z</time>
      </trkpt>
      <trkpt lat="50.29625" lon="4.17">
        <ele>149.097076</ele>
        <time>2022-08-28T08:18:32Z</time>
      </trkpt>
      <trkpt lat="50.29636" lon="4.16992">
        <ele>148.942184</ele>
        <time>2022-08-28T08:18:34Z</time>
      </trkpt>
      <trkpt lat="50.29647" lon="4.16984">
        <ele>149.005692</ele>
        <time>2022-08-28T08:18:36Z</time>
      </trkpt>
      <trkpt lat="50.29658" lon="4.16975">
        <ele>148.988937</ele>
        <time>2022-08-28T08:18:38Z</time>
      </trkpt>
      <trkpt lat="50.2967" lon="4.16968">
        <ele>148.975784</ele>
        <time>2022-08-28T08:18:40Z</time>
      </trkpt>
      <trkpt lat="50.29681" lon="4.1696">
        <ele>148.853424</ele>
        <time>2022-08-28T08:18:42Z</time>
      </trkpt>
      <trkpt lat="50.29692" lon="4.16953">
        <ele>148.529007</ele>
        <time>2022-08-28T08:18:44Z</time>
      </trkpt>
      <trkpt lat="50.29704" lon="4.16946">
        <ele>148.485062</ele>
        <time>2022-08-28T08:18:46Z</time>
      </trkpt>
      <trkpt lat="50.29715" lon="4.16939">
        <ele>148.549927</ele>
        <time>2022-08-28T08:18:48Z</time>
      </trkpt>
      <trkpt lat="50.29727" lon="4.16933">
        <ele>148.267426</ele>
        <time>2022-08-28T08:18:50Z</time>
      </trkpt>
      <trkpt lat="50.29739" lon="4.16929">
        <ele>148.208832</ele>
        <time>2022-08-28T08:18:52Z</time>
      </trkpt>
      <trkpt lat="50.2975" lon="4.16928">
        <ele>148.102097</ele>
        <time>2022-08-28T08:18:54Z</time>
      </trkpt>
      <trkpt lat="50.29762" lon="4.16928">
        <ele>147.850998</ele>
        <time>2022-08-28T08:18:56Z</time>
      </trkpt>
      <trkpt lat="50.29773" lon="4.16928">
        <ele>147.790314</ele>
        <time>2022-08-28T08:18:58Z</time>
      </trkpt>
      <trkpt lat="50.29782" lon="4.16929">
        <ele>147.824081</ele>
        <time>2022-08-28T08:19:00Z</time>
      </trkpt>
      <trkpt lat="50.29792" lon="4.16929">
        <ele>147.932037</ele>
        <time>2022-08-28T08:19:02Z</time>
      </trkpt>
      <trkpt lat="50.298" lon="4.16929">
        <ele>147.768768</ele>
        <time>2022-08-28T08:19:04Z</time>
      </trkpt>
      <trkpt lat="50.29807" lon="4.16931">
        <ele>147.657852</ele>
        <time>2022-08-28T08:19:06Z</time>
      </trkpt>
      <trkpt lat="50.29812" lon="4.16932">
        <ele>147.631256</ele>
        <time>2022-08-28T08:19:08Z</time>
      </trkpt>
      <trkpt lat="50.29815" lon="4.16932">
        <ele>147.677307</ele>
        <time>2022-08-28T08:19:10Z</time>
      </trkpt>
      <trkpt lat="50.29816" lon="4.16932">
        <ele>147.829758</ele>
        <time>2022-08-28T08:19:12Z</time>
      </trkpt>
      <trkpt lat="50.29816" lon="4.16931">
        <ele>140.965256</ele>
        <time>2022-08-28T08:20:33Z</time>
      </trkpt>
      <trkpt lat="50.29819" lon="4.16932">
        <ele>140.862762</ele>
        <time>2022-08-28T08:20:35Z</time>
      </trkpt>
      <trkpt lat="50.29826" lon="4.16933">
        <ele>140.792038</ele>
        <time>2022-08-28T08:20:37Z</time>
      </trkpt>
      <trkpt lat="50.29833" lon="4.16933">
        <ele>140.760666</ele>
        <time>2022-08-28T08:20:39Z</time>
      </trkpt>
      <trkpt lat="50.29839" lon="4.16934">
        <ele>140.787872</ele>
        <time>2022-08-28T08:20:41Z</time>
      </trkpt>
      <trkpt lat="50.29846" lon="4.16935">
        <ele>140.852707</ele>
        <time>2022-08-28T08:20:43Z</time>
      </trkpt>
      <trkpt lat="50.29854" lon="4.16935">
        <ele>140.971939</ele>
        <time>2022-08-28T08:20:45Z</time>
      </trkpt>
      <trkpt lat="50.29862" lon="4.16936">
        <ele>141.076508</ele>
        <time>2022-08-28T08:20:47Z</time>
      </trkpt>
      <trkpt lat="50.2987" lon="4.16938">
        <ele>141.181076</ele>
        <time>2022-08-28T08:20:49Z</time>
      </trkpt>
      <trkpt lat="50.29879" lon="4.16939">
        <ele>141.191544</ele>
        <time>2022-08-28T08:20:51Z</time>
      </trkpt>
      <trkpt lat="50.29888" lon="4.1694">
        <ele>141.515778</ele>
        <time>2022-08-28T08:20:53Z</time>
      </trkpt>
      <trkpt lat="50.29898" lon="4.1694">
        <ele>141.708252</ele>
        <time>2022-08-28T08:20:55Z</time>
      </trkpt>
      <trkpt lat="50.29907" lon="4.16941">
        <ele>141.846298</ele>
        <time>2022-08-28T08:20:57Z</time>
      </trkpt>
      <trkpt lat="50.29915" lon="4.16941">
        <ele>142.061737</ele>
        <time>2022-08-28T08:20:59Z</time>
      </trkpt>
      <trkpt lat="50.29924" lon="4.16942">
        <ele>142.212326</ele>
        <time>2022-08-28T08:21:01Z</time>
      </trkpt>
      <trkpt lat="50.29934" lon="4.16942">
        <ele>142.714493</ele>
        <time>2022-08-28T08:21:03Z</time>
      </trkpt>
      <trkpt lat="50.29943" lon="4.16942">
        <ele>143.134995</ele>
        <time>2022-08-28T08:21:05Z</time>
      </trkpt>
      <trkpt lat="50.29952" lon="4.16942">
        <ele>143.599503</ele>
        <time>2022-08-28T08:21:07Z</time>
      </trkpt>
      <trkpt lat="50.29961" lon="4.16943">
        <ele>144.110016</ele>
        <time>2022-08-28T08:21:09Z</time>
      </trkpt>
      <trkpt lat="50.2997" lon="4.16943">
        <ele>144.528473</ele>
        <time>2022-08-28T08:21:11Z</time>
      </trkpt>
      <trkpt lat="50.29978" lon="4.16944">
        <ele>144.992264</ele>
        <time>2022-08-28T08:21:13Z</time>
      </trkpt>
      <trkpt lat="50.29987" lon="4.16945">
        <ele>145.605377</ele>
        <time>2022-08-28T08:21:15Z</time>
      </trkpt>
      <trkpt lat="50.29995" lon="4.16946">
        <ele>145.975296</ele>
        <time>2022-08-28T08:21:17Z</time>
      </trkpt>
      <trkpt lat="50.30004" lon="4.16948">
        <ele>146.22847</ele>
        <time>2022-08-28T08:21:19Z</time>
      </trkpt>
      <trkpt lat="50.30013" lon="4.16949">
        <ele>146.726471</ele>
        <time>2022-08-28T08:21:21Z</time>
      </trkpt>
      <trkpt lat="50.30021" lon="4.1695">
        <ele>147.157593</ele>
        <time>2022-08-28T08:21:23Z</time>
      </trkpt>
      <trkpt lat="50.3003" lon="4.1695">
        <ele>147.672379</ele>
        <time>2022-08-28T08:21:25Z</time>
      </trkpt>
      <trkpt lat="50.30039" lon="4.16951">
        <ele>148.126495</ele>
        <time>2022-08-28T08:21:27Z</time>
      </trkpt>
      <trkpt lat="50.30048" lon="4.16952">
        <ele>148.599442</ele>
        <time>2022-08-28T08:21:29Z</time>
      </trkpt>
      <trkpt lat="50.30057" lon="4.16953">
        <ele>149.12468</ele>
        <time>2022-08-28T08:21:31Z</time>
      </trkpt>
      <trkpt lat="50.30066" lon="4.16953">
        <ele>149.580917</ele>
        <time>2022-08-28T08:21:33Z</time>
      </trkpt>
      <trkpt lat="50.30076" lon="4.16954">
        <ele>150.164825</ele>
        <time>2022-08-28T08:21:35Z</time>
      </trkpt>
      <trkpt lat="50.30085" lon="4.16955">
        <ele>151.067657</ele>
        <time>2022-08-28T08:21:37Z</time>
      </trkpt>
      <trkpt lat="50.30095" lon="4.16956">
        <ele>151.479965</ele>
        <time>2022-08-28T08:21:39Z</time>
      </trkpt>
      <trkpt lat="50.30104" lon="4.16956">
        <ele>152.527298</ele>
        <time>2022-08-28T08:21:41Z</time>
      </trkpt>
      <trkpt lat="50.30113" lon="4.16958">
        <ele>152.983612</ele>
        <time>2022-08-28T08:21:43Z</time>
      </trkpt>
      <trkpt lat="50.30121" lon="4.16959">
        <ele>152.695999</ele>
        <time>2022-08-28T08:21:45Z</time>
      </trkpt>
      <trkpt lat="50.3013" lon="4.1696">
        <ele>152.887054</ele>
        <time>2022-08-28T08:21:47Z</time>
      </trkpt>
      <trkpt lat="50.30139" lon="4.16961">
        <ele>153.123474</ele>
        <time>2022-08-28T08:21:49Z</time>
      </trkpt>
      <trkpt lat="50.30148" lon="4.16962">
        <ele>153.348862</ele>
        <time>2022-08-28T08:21:51Z</time>
      </trkpt>
      <trkpt lat="50.30158" lon="4.16963">
        <ele>153.608475</ele>
        <time>2022-08-28T08:21:53Z</time>
      </trkpt>
      <trkpt lat="50.30169" lon="4.16963">
        <ele>153.736176</ele>
        <time>2022-08-28T08:21:55Z</time>
      </trkpt>
      <trkpt lat="50.30179" lon="4.16964">
        <ele>153.811569</ele>
        <time>2022-08-28T08:21:57Z</time>
      </trkpt>
      <trkpt lat="50.30191" lon="4.16964">
        <ele>153.909973</ele>
        <time>2022-08-28T08:21:59Z</time>
      </trkpt>
      <trkpt lat="50.30204" lon="4.16965">
        <ele>154.10051</ele>
        <time>2022-08-28T08:22:01Z</time>
      </trkpt>
      <trkpt lat="50.30216" lon="4.16966">
        <ele>154.106781</ele>
        <time>2022-08-28T08:22:03Z</time>
      </trkpt>
      <trkpt lat="50.30228" lon="4.16968">
        <ele>154.067017</ele>
        <time>2022-08-28T08:22:05Z</time>
      </trkpt>
      <trkpt lat="50.3024" lon="4.16969">
        <ele>154.083786</ele>
        <time>2022-08-28T08:22:07Z</time>
      </trkpt>
      <trkpt lat="50.30253" lon="4.16971">
        <ele>154.157059</ele>
        <time>2022-08-28T08:22:09Z</time>
      </trkpt>
      <trkpt lat="50.30268" lon="4.16973">
        <ele>154.085876</ele>
        <time>2022-08-28T08:22:11Z</time>
      </trkpt>
      <trkpt lat="50.30284" lon="4.16975">
        <ele>153.876556</ele>
        <time>2022-08-28T08:22:13Z</time>
      </trkpt>
      <trkpt lat="50.303" lon="4.16976">
        <ele>153.836761</ele>
        <time>2022-08-28T08:22:15Z</time>
      </trkpt>
      <trkpt lat="50.30317" lon="4.16976">
        <ele>153.157852</ele>
        <time>2022-08-28T08:22:17Z</time>
      </trkpt>
      <trkpt lat="50.30334" lon="4.16976">
        <ele>153.019684</ele>
        <time>2022-08-28T08:22:19Z</time>
      </trkpt>
      <trkpt lat="50.3035" lon="4.16974">
        <ele>152.81662</ele>
        <time>2022-08-28T08:22:21Z</time>
      </trkpt>
      <trkpt lat="50.30366" lon="4.16971">
        <ele>151.811096</ele>
        <time>2022-08-28T08:22:23Z</time>
      </trkpt>
      <trkpt lat="50.30383" lon="4.16968">
        <ele>151.322495</ele>
        <time>2022-08-28T08:22:25Z</time>
      </trkpt>
      <trkpt lat="50.30399" lon="4.16965">
        <ele>151.158539</ele>
        <time>2022-08-28T08:22:27Z</time>
      </trkpt>
      <trkpt lat="50.30417" lon="4.16965">
        <ele>150.714996</ele>
        <time>2022-08-28T08:22:29Z</time>
      </trkpt>
      <trkpt lat="50.30436" lon="4.16966">
        <ele>150.267761</ele>
        <time>2022-08-28T08:22:31Z</time>
      </trkpt>
      <trkpt lat="50.30455" lon="4.16969">
        <ele>149.947617</ele>
        <time>2022-08-28T08:22:33Z</time>
      </trkpt>
      <trkpt lat="50.30472" lon="4.16969">
        <ele>149.313492</ele>
        <time>2022-08-28T08:22:35Z</time>
      </trkpt>
      <trkpt lat="50.30489" lon="4.1697">
        <ele>148.382355</ele>
        <time>2022-08-28T08:22:37Z</time>
      </trkpt>
      <trkpt lat="50.30507" lon="4.16971">
        <ele>147.744354</ele>
        <time>2022-08-28T08:22:39Z</time>
      </trkpt>
      <trkpt lat="50.30524" lon="4.16972">
        <ele>146.999451</ele>
        <time>2022-08-28T08:22:41Z</time>
      </trkpt>
      <trkpt lat="50.3054" lon="4.16973">
        <ele>146.200134</ele>
        <time>2022-08-28T08:22:43Z</time>
      </trkpt>
      <trkpt lat="50.30557" lon="4.16974">
        <ele>145.62265</ele>
        <time>2022-08-28T08:22:45Z</time>
      </trkpt>
      <trkpt lat="50.30572" lon="4.16973">
        <ele>144.579086</ele>
        <time>2022-08-28T08:22:47Z</time>
      </trkpt>
      <trkpt lat="50.30588" lon="4.16968">
        <ele>143.683609</ele>
        <time>2022-08-28T08:22:49Z</time>
      </trkpt>
      <trkpt lat="50.30602" lon="4.16962">
        <ele>142.959625</ele>
        <time>2022-08-28T08:22:51Z</time>
      </trkpt>
      <trkpt lat="50.30616" lon="4.16959">
        <ele>142.299133</ele>
        <time>2022-08-28T08:22:53Z</time>
      </trkpt>
      <trkpt lat="50.30631" lon="4.16956">
        <ele>141.370499</ele>
        <time>2022-08-28T08:22:55Z</time>
      </trkpt>
      <trkpt lat="50.30644" lon="4.16954">
        <ele>140.573517</ele>
        <time>2022-08-28T08:22:57Z</time>
      </trkpt>
      <trkpt lat="50.30657" lon="4.16949">
        <ele>139.506927</ele>
        <time>2022-08-28T08:22:59Z</time>
      </trkpt>
      <trkpt lat="50.30669" lon="4.16944">
        <ele>139.207947</ele>
        <time>2022-08-28T08:23:01Z</time>
      </trkpt>
      <trkpt lat="50.30681" lon="4.16939">
        <ele>138.287979</ele>
        <time>2022-08-28T08:23:03Z</time>
      </trkpt>
      <trkpt lat="50.30693" lon="4.16933">
        <ele>137.49765</ele>
        <time>2022-08-28T08:23:05Z</time>
      </trkpt>
      <trkpt lat="50.30704" lon="4.16928">
        <ele>136.745056</ele>
        <time>2022-08-28T08:23:07Z</time>
      </trkpt>
      <trkpt lat="50.30714" lon="4.16923">
        <ele>136.090683</ele>
        <time>2022-08-28T08:23:09Z</time>
      </trkpt>
      <trkpt lat="50.30724" lon="4.16918">
        <ele>135.793854</ele>
        <time>2022-08-28T08:23:11Z</time>
      </trkpt>
      <trkpt lat="50.30734" lon="4.16912">
        <ele>134.573059</ele>
        <time>2022-08-28T08:23:13Z</time>
      </trkpt>
      <trkpt lat="50.30743" lon="4.16905">
        <ele>134.215652</ele>
        <time>2022-08-28T08:23:15Z</time>
      </trkpt>
      <trkpt lat="50.30752" lon="4.16898">
        <ele>133.546906</ele>
        <time>2022-08-28T08:23:17Z</time>
      </trkpt>
      <trkpt lat="50.30761" lon="4.1689">
        <ele>133.131134</ele>
        <time>2022-08-28T08:23:19Z</time>
      </trkpt>
      <trkpt lat="50.30769" lon="4.1688">
        <ele>132.357956</ele>
        <time>2022-08-28T08:23:21Z</time>
      </trkpt>
      <trkpt lat="50.30777" lon="4.16869">
        <ele>131.701935</ele>
        <time>2022-08-28T08:23:23Z</time>
      </trkpt>
      <trkpt lat="50.30784" lon="4.16857">
        <ele>130.995651</ele>
        <time>2022-08-28T08:23:25Z</time>
      </trkpt>
      <trkpt lat="50.30788" lon="4.16843">
        <ele>130.41275</ele>
        <time>2022-08-28T08:23:27Z</time>
      </trkpt>
      <trkpt lat="50.30791" lon="4.16826">
        <ele>129.907196</ele>
        <time>2022-08-28T08:23:29Z</time>
      </trkpt>
      <trkpt lat="50.30793" lon="4.1681">
        <ele>129.347275</ele>
        <time>2022-08-28T08:23:31Z</time>
      </trkpt>
      <trkpt lat="50.30797" lon="4.16794">
        <ele>128.522186</ele>
        <time>2022-08-28T08:23:33Z</time>
      </trkpt>
      <trkpt lat="50.30801" lon="4.16777">
        <ele>127.972183</ele>
        <time>2022-08-28T08:23:35Z</time>
      </trkpt>
      <trkpt lat="50.30804" lon="4.16761">
        <ele>127.644226</ele>
        <time>2022-08-28T08:23:37Z</time>
      </trkpt>
      <trkpt lat="50.30809" lon="4.16747">
        <ele>127.144859</ele>
        <time>2022-08-28T08:23:39Z</time>
      </trkpt>
      <trkpt lat="50.30812" lon="4.16734">
        <ele>126.342018</ele>
        <time>2022-08-28T08:23:41Z</time>
      </trkpt>
      <trkpt lat="50.30816" lon="4.16723">
        <ele>126.089249</ele>
        <time>2022-08-28T08:23:43Z</time>
      </trkpt>
      <trkpt lat="50.30819" lon="4.16712">
        <ele>125.84906</ele>
        <time>2022-08-28T08:23:45Z</time>
      </trkpt>
      <trkpt lat="50.30821" lon="4.16703">
        <ele>125.629738</ele>
        <time>2022-08-28T08:23:47Z</time>
      </trkpt>
      <trkpt lat="50.30822" lon="4.16695">
        <ele>125.487732</ele>
        <time>2022-08-28T08:23:49Z</time>
      </trkpt>
      <trkpt lat="50.30824" lon="4.16695">
        <ele>125.307167</ele>
        <time>2022-08-28T08:23:51Z</time>
      </trkpt>
      <trkpt lat="50.30824" lon="4.16699">
        <ele>125.234055</ele>
        <time>2022-08-28T08:23:53Z</time>
      </trkpt>
      <trkpt lat="50.30821" lon="4.16706">
        <ele>125.231956</ele>
        <time>2022-08-28T08:23:55Z</time>
      </trkpt>
      <trkpt lat="50.30818" lon="4.16714">
        <ele>125.231956</ele>
        <time>2022-08-28T08:23:57Z</time>
      </trkpt>
      <trkpt lat="50.30816" lon="4.16725">
        <ele>125.289268</ele>
        <time>2022-08-28T08:23:59Z</time>
      </trkpt>
      <trkpt lat="50.30814" lon="4.16738">
        <ele>125.21199</ele>
        <time>2022-08-28T08:24:01Z</time>
      </trkpt>
      <trkpt lat="50.30811" lon="4.16752">
        <ele>125.278809</ele>
        <time>2022-08-28T08:24:03Z</time>
      </trkpt>
      <trkpt lat="50.30809" lon="4.16766">
        <ele>125.336205</ele>
        <time>2022-08-28T08:24:05Z</time>
      </trkpt>
      <trkpt lat="50.30807" lon="4.16783">
        <ele>125.352921</ele>
        <time>2022-08-28T08:24:07Z</time>
      </trkpt>
      <trkpt lat="50.30806" lon="4.168">
        <ele>125.577675</ele>
        <time>2022-08-28T08:24:09Z</time>
      </trkpt>
      <trkpt lat="50.30806" lon="4.16819">
        <ele>125.533852</ele>
        <time>2022-08-28T08:24:11Z</time>
      </trkpt>
      <trkpt lat="50.30804" lon="4.16837">
        <ele>125.690445</ele>
        <time>2022-08-28T08:24:13Z</time>
      </trkpt>
      <trkpt lat="50.30803" lon="4.16855">
        <ele>125.947281</ele>
        <time>2022-08-28T08:24:15Z</time>
      </trkpt>
      <trkpt lat="50.30803" lon="4.16874">
        <ele>126.01619</ele>
        <time>2022-08-28T08:24:17Z</time>
      </trkpt>
      <trkpt lat="50.30801" lon="4.16892">
        <ele>126.051682</ele>
        <time>2022-08-28T08:24:19Z</time>
      </trkpt>
      <trkpt lat="50.308" lon="4.1691">
        <ele>126.112244</ele>
        <time>2022-08-28T08:24:21Z</time>
      </trkpt>
      <trkpt lat="50.30798" lon="4.16929">
        <ele>126.27932</ele>
        <time>2022-08-28T08:24:23Z</time>
      </trkpt>
      <trkpt lat="50.30796" lon="4.16947">
        <ele>126.306473</ele>
        <time>2022-08-28T08:24:25Z</time>
      </trkpt>
      <trkpt lat="50.30795" lon="4.16965">
        <ele>126.312744</ele>
        <time>2022-08-28T08:24:27Z</time>
      </trkpt>
      <trkpt lat="50.30793" lon="4.16982">
        <ele>126.331528</ele>
        <time>2022-08-28T08:24:29Z</time>
      </trkpt>
      <trkpt lat="50.30792" lon="4.16999">
        <ele>126.219681</ele>
        <time>2022-08-28T08:24:31Z</time>
      </trkpt>
      <trkpt lat="50.3079" lon="4.17016">
        <ele>126.273987</ele>
        <time>2022-08-28T08:24:33Z</time>
      </trkpt>
      <trkpt lat="50.30788" lon="4.17036">
        <ele>126.315758</ele>
        <time>2022-08-28T08:24:35Z</time>
      </trkpt>
      <trkpt lat="50.30787" lon="4.17053">
        <ele>126.198814</ele>
        <time>2022-08-28T08:24:37Z</time>
      </trkpt>
      <trkpt lat="50.30786" lon="4.1707">
        <ele>126.085121</ele>
        <time>2022-08-28T08:24:39Z</time>
      </trkpt>
      <trkpt lat="50.30785" lon="4.17085">
        <ele>126.060074</ele>
        <time>2022-08-28T08:24:41Z</time>
      </trkpt>
      <trkpt lat="50.30784" lon="4.17098">
        <ele>125.934776</ele>
        <time>2022-08-28T08:24:43Z</time>
      </trkpt>
      <trkpt lat="50.30784" lon="4.17116">
        <ele>125.872131</ele>
        <time>2022-08-28T08:24:45Z</time>
      </trkpt>
      <trkpt lat="50.30782" lon="4.17132">
        <ele>125.893982</ele>
        <time>2022-08-28T08:24:47Z</time>
      </trkpt>
      <trkpt lat="50.30779" lon="4.17147">
        <ele>125.785378</ele>
        <time>2022-08-28T08:24:49Z</time>
      </trkpt>
      <trkpt lat="50.30777" lon="4.17162">
        <ele>125.756912</ele>
        <time>2022-08-28T08:24:51Z</time>
      </trkpt>
      <trkpt lat="50.30776" lon="4.17178">
        <ele>125.650406</ele>
        <time>2022-08-28T08:24:53Z</time>
      </trkpt>
      <trkpt lat="50.30773" lon="4.17193">
        <ele>125.456223</ele>
        <time>2022-08-28T08:24:55Z</time>
      </trkpt>
      <trkpt lat="50.30771" lon="4.17207">
        <ele>125.199387</ele>
        <time>2022-08-28T08:24:57Z</time>
      </trkpt>
      <trkpt lat="50.30769" lon="4.17223">
        <ele>124.994751</ele>
        <time>2022-08-28T08:24:59Z</time>
      </trkpt>
      <trkpt lat="50.30767" lon="4.17238">
        <ele>124.775536</ele>
        <time>2022-08-28T08:25:01Z</time>
      </trkpt>
      <trkpt lat="50.30765" lon="4.17254">
        <ele>124.476791</ele>
        <time>2022-08-28T08:25:03Z</time>
      </trkpt>
      <trkpt lat="50.30764" lon="4.17269">
        <ele>124.343155</ele>
        <time>2022-08-28T08:25:05Z</time>
      </trkpt>
      <trkpt lat="50.30763" lon="4.17285">
        <ele>124.088417</ele>
        <time>2022-08-28T08:25:07Z</time>
      </trkpt>
      <trkpt lat="50.30761" lon="4.173">
        <ele>123.900497</ele>
        <time>2022-08-28T08:25:09Z</time>
      </trkpt>
      <trkpt lat="50.30759" lon="4.17315">
        <ele>123.766884</ele>
        <time>2022-08-28T08:25:11Z</time>
      </trkpt>
      <trkpt lat="50.30758" lon="4.1733">
        <ele>123.510033</ele>
        <time>2022-08-28T08:25:13Z</time>
      </trkpt>
      <trkpt lat="50.30755" lon="4.17344">
        <ele>123.326271</ele>
        <time>2022-08-28T08:25:15Z</time>
      </trkpt>
      <trkpt lat="50.30752" lon="4.17357">
        <ele>123.230225</ele>
        <time>2022-08-28T08:25:17Z</time>
      </trkpt>
      <trkpt lat="50.30748" lon="4.1737">
        <ele>123.180115</ele>
        <time>2022-08-28T08:25:19Z</time>
      </trkpt>
      <trkpt lat="50.30743" lon="4.17383">
        <ele>123.132095</ele>
        <time>2022-08-28T08:25:21Z</time>
      </trkpt>
      <trkpt lat="50.30738" lon="4.17396">
        <ele>123.061119</ele>
        <time>2022-08-28T08:25:23Z</time>
      </trkpt>
      <trkpt lat="50.30731" lon="4.17409">
        <ele>123.043076</ele>
        <time>2022-08-28T08:25:25Z</time>
      </trkpt>
      <trkpt lat="50.30725" lon="4.17421">
        <ele>122.919701</ele>
        <time>2022-08-28T08:25:27Z</time>
      </trkpt>
      <trkpt lat="50.30717" lon="4.17431">
        <ele>122.838364</ele>
        <time>2022-08-28T08:25:29Z</time>
      </trkpt>
      <trkpt lat="50.30709" lon="4.17441">
        <ele>122.771545</ele>
        <time>2022-08-28T08:25:31Z</time>
      </trkpt>
      <trkpt lat="50.307" lon="4.17449">
        <ele>122.723534</ele>
        <time>2022-08-28T08:25:33Z</time>
      </trkpt>
      <trkpt lat="50.30692" lon="4.17457">
        <ele>122.619156</ele>
        <time>2022-08-28T08:25:35Z</time>
      </trkpt>
      <trkpt lat="50.30685" lon="4.17466">
        <ele>122.579483</ele>
        <time>2022-08-28T08:25:37Z</time>
      </trkpt>
      <trkpt lat="50.30678" lon="4.17473">
        <ele>122.58783</ele>
        <time>2022-08-28T08:25:39Z</time>
      </trkpt>
      <trkpt lat="50.3067" lon="4.17481">
        <ele>122.562782</ele>
        <time>2022-08-28T08:25:41Z</time>
      </trkpt>
      <trkpt lat="50.30663" lon="4.17489">
        <ele>122.560814</ele>
        <time>2022-08-28T08:25:43Z</time>
      </trkpt>
      <trkpt lat="50.30653" lon="4.17494">
        <ele>122.408463</ele>
        <time>2022-08-28T08:25:45Z</time>
      </trkpt>
      <trkpt lat="50.30644" lon="4.17501">
        <ele>122.331223</ele>
        <time>2022-08-28T08:25:47Z</time>
      </trkpt>
      <trkpt lat="50.30636" lon="4.17509">
        <ele>122.483643</ele>
        <time>2022-08-28T08:25:49Z</time>
      </trkpt>
      <trkpt lat="50.30627" lon="4.17515">
        <ele>122.514969</ele>
        <time>2022-08-28T08:25:51Z</time>
      </trkpt>
      <trkpt lat="50.30619" lon="4.17523">
        <ele>122.577599</ele>
        <time>2022-08-28T08:25:53Z</time>
      </trkpt>
      <trkpt lat="50.30611" lon="4.17531">
        <ele>122.667374</ele>
        <time>2022-08-28T08:25:55Z</time>
      </trkpt>
      <trkpt lat="50.30602" lon="4.17538">
        <ele>122.619339</ele>
        <time>2022-08-28T08:25:57Z</time>
      </trkpt>
      <trkpt lat="50.30592" lon="4.17544">
        <ele>122.679886</ele>
        <time>2022-08-28T08:25:59Z</time>
      </trkpt>
      <trkpt lat="50.30583" lon="4.17551">
        <ele>122.65239</ele>
        <time>2022-08-28T08:26:01Z</time>
      </trkpt>
      <trkpt lat="50.30574" lon="4.17558">
        <ele>122.583511</ele>
        <time>2022-08-28T08:26:03Z</time>
      </trkpt>
      <trkpt lat="50.30565" lon="4.17563">
        <ele>122.720543</ele>
        <time>2022-08-28T08:26:05Z</time>
      </trkpt>
      <trkpt lat="50.30557" lon="4.17569">
        <ele>122.762497</ele>
        <time>2022-08-28T08:26:07Z</time>
      </trkpt>
      <trkpt lat="50.30547" lon="4.17574">
        <ele>123.004715</ele>
        <time>2022-08-28T08:26:09Z</time>
      </trkpt>
      <trkpt lat="50.30539" lon="4.17581">
        <ele>123.065269</ele>
        <time>2022-08-28T08:26:11Z</time>
      </trkpt>
      <trkpt lat="50.3053" lon="4.17589">
        <ele>123.107033</ele>
        <time>2022-08-28T08:26:13Z</time>
      </trkpt>
      <trkpt lat="50.30521" lon="4.17596">
        <ele>123.178024</ele>
        <time>2022-08-28T08:26:15Z</time>
      </trkpt>
      <trkpt lat="50.30512" lon="4.17603">
        <ele>123.315811</ele>
        <time>2022-08-28T08:26:17Z</time>
      </trkpt>
      <trkpt lat="50.30505" lon="4.17611">
        <ele>123.438988</ele>
        <time>2022-08-28T08:26:19Z</time>
      </trkpt>
      <trkpt lat="50.30496" lon="4.17619">
        <ele>123.493286</ele>
        <time>2022-08-28T08:26:21Z</time>
      </trkpt>
      <trkpt lat="50.30489" lon="4.17627">
        <ele>123.574707</ele>
        <time>2022-08-28T08:26:23Z</time>
      </trkpt>
      <trkpt lat="50.30481" lon="4.17635">
        <ele>123.910789</ele>
        <time>2022-08-28T08:26:25Z</time>
      </trkpt>
      <trkpt lat="50.30472" lon="4.1764">
        <ele>124.02562</ele>
        <time>2022-08-28T08:26:27Z</time>
      </trkpt>
      <trkpt lat="50.30463" lon="4.17647">
        <ele>124.219803</ele>
        <time>2022-08-28T08:26:29Z</time>
      </trkpt>
      <trkpt lat="50.30454" lon="4.17655">
        <ele>124.284523</ele>
        <time>2022-08-28T08:26:31Z</time>
      </trkpt>
      <trkpt lat="50.30446" lon="4.17663">
        <ele>124.290787</ele>
        <time>2022-08-28T08:26:33Z</time>
      </trkpt>
      <trkpt lat="50.30437" lon="4.17671">
        <ele>124.539291</ele>
        <time>2022-08-28T08:26:35Z</time>
      </trkpt>
      <trkpt lat="50.30428" lon="4.17678">
        <ele>124.576881</ele>
        <time>2022-08-28T08:26:37Z</time>
      </trkpt>
      <trkpt lat="50.3042" lon="4.17684">
        <ele>124.752281</ele>
        <time>2022-08-28T08:26:39Z</time>
      </trkpt>
      <trkpt lat="50.30411" lon="4.1769">
        <ele>124.762718</ele>
        <time>2022-08-28T08:26:41Z</time>
      </trkpt>
      <trkpt lat="50.30401" lon="4.1769">
        <ele>125.013626</ele>
        <time>2022-08-28T08:26:43Z</time>
      </trkpt>
      <trkpt lat="50.30393" lon="4.17696">
        <ele>125.067337</ele>
        <time>2022-08-28T08:26:45Z</time>
      </trkpt>
      <trkpt lat="50.30382" lon="4.17697">
        <ele>125.071518</ele>
        <time>2022-08-28T08:26:47Z</time>
      </trkpt>
      <trkpt lat="50.30372" lon="4.177">
        <ele>125.249023</ele>
        <time>2022-08-28T08:26:49Z</time>
      </trkpt>
      <trkpt lat="50.30365" lon="4.17705">
        <ele>125.23439</ele>
        <time>2022-08-28T08:26:51Z</time>
      </trkpt>
      <trkpt lat="50.30359" lon="4.17709">
        <ele>125.246925</ele>
        <time>2022-08-28T08:26:53Z</time>
      </trkpt>
      <trkpt lat="50.30349" lon="4.17708">
        <ele>125.420227</ele>
        <time>2022-08-28T08:26:55Z</time>
      </trkpt>
      <trkpt lat="50.30341" lon="4.1771">
        <ele>125.497482</ele>
        <time>2022-08-28T08:26:57Z</time>
      </trkpt>
      <trkpt lat="50.30335" lon="4.17713">
        <ele>125.653053</ele>
        <time>2022-08-28T08:26:59Z</time>
      </trkpt>
      <trkpt lat="50.30329" lon="4.17714">
        <ele>125.6614</ele>
        <time>2022-08-28T08:27:01Z</time>
      </trkpt>
      <trkpt lat="50.30324" lon="4.17714">
        <ele>125.874367</ele>
        <time>2022-08-28T08:27:03Z</time>
      </trkpt>
      <trkpt lat="50.30322" lon="4.17713">
        <ele>125.934921</ele>
        <time>2022-08-28T08:27:05Z</time>
      </trkpt>
      <trkpt lat="50.30317" lon="4.17719">
        <ele>126.014297</ele>
        <time>2022-08-28T08:27:07Z</time>
      </trkpt>
      <trkpt lat="50.30309" lon="4.17722">
        <ele>126.116615</ele>
        <time>2022-08-28T08:27:09Z</time>
      </trkpt>
      <trkpt lat="50.30302" lon="4.17726">
        <ele>126.135399</ele>
        <time>2022-08-28T08:27:11Z</time>
      </trkpt>
      <trkpt lat="50.30294" lon="4.1773">
        <ele>126.223145</ele>
        <time>2022-08-28T08:27:13Z</time>
      </trkpt>
      <trkpt lat="50.30286" lon="4.17735">
        <ele>126.315025</ele>
        <time>2022-08-28T08:27:15Z</time>
      </trkpt>
      <trkpt lat="50.30279" lon="4.17742">
        <ele>126.145859</ele>
        <time>2022-08-28T08:27:17Z</time>
      </trkpt>
      <trkpt lat="50.30271" lon="4.17748">
        <ele>126.25238</ele>
        <time>2022-08-28T08:27:19Z</time>
      </trkpt>
      <trkpt lat="50.30263" lon="4.17755">
        <ele>126.296249</ele>
        <time>2022-08-28T08:27:21Z</time>
      </trkpt>
      <trkpt lat="50.30257" lon="4.17765">
        <ele>126.390221</ele>
        <time>2022-08-28T08:27:23Z</time>
      </trkpt>
      <trkpt lat="50.30252" lon="4.17777">
        <ele>126.530151</ele>
        <time>2022-08-28T08:27:25Z</time>
      </trkpt>
      <trkpt lat="50.30246" lon="4.17787">
        <ele>126.587112</ele>
        <time>2022-08-28T08:27:27Z</time>
      </trkpt>
      <trkpt lat="50.30238" lon="4.17793">
        <ele>126.568314</ele>
        <time>2022-08-28T08:27:29Z</time>
      </trkpt>
      <trkpt lat="50.30232" lon="4.17803">
        <ele>126.689438</ele>
        <time>2022-08-28T08:27:31Z</time>
      </trkpt>
      <trkpt lat="50.30226" lon="4.17813">
        <ele>126.783409</ele>
        <time>2022-08-28T08:27:33Z</time>
      </trkpt>
      <trkpt lat="50.3022" lon="4.17822">
        <ele>126.883682</ele>
        <time>2022-08-28T08:27:35Z</time>
      </trkpt>
      <trkpt lat="50.30213" lon="4.17831">
        <ele>127.065392</ele>
        <time>2022-08-28T08:27:37Z</time>
      </trkpt>
      <trkpt lat="50.30206" lon="4.1784">
        <ele>127.214745</ele>
        <time>2022-08-28T08:27:39Z</time>
      </trkpt>
      <trkpt lat="50.30199" lon="4.17849">
        <ele>127.281578</ele>
        <time>2022-08-28T08:27:41Z</time>
      </trkpt>
      <trkpt lat="50.30193" lon="4.17859">
        <ele>127.441513</ele>
        <time>2022-08-28T08:27:43Z</time>
      </trkpt>
      <trkpt lat="50.30188" lon="4.17869">
        <ele>127.602333</ele>
        <time>2022-08-28T08:27:45Z</time>
      </trkpt>
      <trkpt lat="50.30182" lon="4.17879">
        <ele>127.875961</ele>
        <time>2022-08-28T08:27:47Z</time>
      </trkpt>
      <trkpt lat="50.30175" lon="4.17888">
        <ele>127.535789</ele>
        <time>2022-08-28T08:27:49Z</time>
      </trkpt>
      <trkpt lat="50.30169" lon="4.17899">
        <ele>127.381348</ele>
        <time>2022-08-28T08:27:51Z</time>
      </trkpt>
      <trkpt lat="50.30162" lon="4.17909">
        <ele>127.408493</ele>
        <time>2022-08-28T08:27:53Z</time>
      </trkpt>
      <trkpt lat="50.30156" lon="4.17919">
        <ele>127.408569</ele>
        <time>2022-08-28T08:27:55Z</time>
      </trkpt>
      <trkpt lat="50.30149" lon="4.17929">
        <ele>127.492126</ele>
        <time>2022-08-28T08:27:57Z</time>
      </trkpt>
      <trkpt lat="50.30143" lon="4.1794">
        <ele>127.671715</ele>
        <time>2022-08-28T08:27:59Z</time>
      </trkpt>
      <trkpt lat="50.30137" lon="4.1795">
        <ele>127.751099</ele>
        <time>2022-08-28T08:28:01Z</time>
      </trkpt>
      <trkpt lat="50.3013" lon="4.17959">
        <ele>127.832558</ele>
        <time>2022-08-28T08:28:03Z</time>
      </trkpt>
      <trkpt lat="50.30123" lon="4.17968">
        <ele>127.907753</ele>
        <time>2022-08-28T08:28:05Z</time>
      </trkpt>
      <trkpt lat="50.30117" lon="4.17978">
        <ele>128.139618</ele>
        <time>2022-08-28T08:28:07Z</time>
      </trkpt>
      <trkpt lat="50.3011" lon="4.17988">
        <ele>128.227341</ele>
        <time>2022-08-28T08:28:09Z</time>
      </trkpt>
      <trkpt lat="50.30103" lon="4.17998">
        <ele>128.390289</ele>
        <time>2022-08-28T08:28:11Z</time>
      </trkpt>
      <trkpt lat="50.30097" lon="4.18008">
        <ele>129.001022</ele>
        <time>2022-08-28T08:28:13Z</time>
      </trkpt>
      <trkpt lat="50.3009" lon="4.18017">
        <ele>129.062912</ele>
        <time>2022-08-28T08:28:15Z</time>
      </trkpt>
      <trkpt lat="50.30084" lon="4.18026">
        <ele>129.067093</ele>
        <time>2022-08-28T08:28:17Z</time>
      </trkpt>
      <trkpt lat="50.30078" lon="4.18035">
        <ele>129.215424</ele>
        <time>2022-08-28T08:28:19Z</time>
      </trkpt>
      <trkpt lat="50.30072" lon="4.18043">
        <ele>129.211258</ele>
        <time>2022-08-28T08:28:21Z</time>
      </trkpt>
      <trkpt lat="50.30067" lon="4.18049">
        <ele>129.266464</ele>
        <time>2022-08-28T08:28:23Z</time>
      </trkpt>
      <trkpt lat="50.30063" lon="4.18055">
        <ele>129.301971</ele>
        <time>2022-08-28T08:28:25Z</time>
      </trkpt>
      <trkpt lat="50.30058" lon="4.18061">
        <ele>129.304077</ele>
        <time>2022-08-28T08:28:27Z</time>
      </trkpt>
      <trkpt lat="50.30055" lon="4.18069">
        <ele>129.322876</ele>
        <time>2022-08-28T08:28:29Z</time>
      </trkpt>
      <trkpt lat="50.30052" lon="4.18078">
        <ele>129.821198</ele>
        <time>2022-08-28T08:28:31Z</time>
      </trkpt>
      <trkpt lat="50.30049" lon="4.18087">
        <ele>130.096771</ele>
        <time>2022-08-28T08:28:33Z</time>
      </trkpt>
      <trkpt lat="50.30047" lon="4.18095">
        <ele>130.378693</ele>
        <time>2022-08-28T08:28:35Z</time>
      </trkpt>
      <trkpt lat="50.30044" lon="4.18104">
        <ele>130.501923</ele>
        <time>2022-08-28T08:28:37Z</time>
      </trkpt>
      <trkpt lat="50.30042" lon="4.18113">
        <ele>130.580521</ele>
        <time>2022-08-28T08:28:39Z</time>
      </trkpt>
      <trkpt lat="50.30039" lon="4.18123">
        <ele>130.645386</ele>
        <time>2022-08-28T08:28:41Z</time>
      </trkpt>
      <trkpt lat="50.30036" lon="4.18134">
        <ele>130.738571</ele>
        <time>2022-08-28T08:28:43Z</time>
      </trkpt>
      <trkpt lat="50.30033" lon="4.18144">
        <ele>130.92337</ele>
        <time>2022-08-28T08:28:45Z</time>
      </trkpt>
      <trkpt lat="50.3003" lon="4.18154">
        <ele>131.550766</ele>
        <time>2022-08-28T08:28:47Z</time>
      </trkpt>
      <trkpt lat="50.30026" lon="4.18163">
        <ele>131.6427</ele>
        <time>2022-08-28T08:28:49Z</time>
      </trkpt>
      <trkpt lat="50.30023" lon="4.18173">
        <ele>131.793152</ele>
        <time>2022-08-28T08:28:51Z</time>
      </trkpt>
      <trkpt lat="50.3002" lon="4.18183">
        <ele>131.309845</ele>
        <time>2022-08-28T08:28:53Z</time>
      </trkpt>
      <trkpt lat="50.30018" lon="4.18194">
        <ele>131.475677</ele>
        <time>2022-08-28T08:28:55Z</time>
      </trkpt>
      <trkpt lat="50.30015" lon="4.18205">
        <ele>131.663727</ele>
        <time>2022-08-28T08:28:57Z</time>
      </trkpt>
      <trkpt lat="50.30013" lon="4.18216">
        <ele>131.690887</ele>
        <time>2022-08-28T08:28:59Z</time>
      </trkpt>
      <trkpt lat="50.30012" lon="4.18227">
        <ele>131.361191</ele>
        <time>2022-08-28T08:29:01Z</time>
      </trkpt>
      <trkpt lat="50.30011" lon="4.18238">
        <ele>131.582703</ele>
        <time>2022-08-28T08:29:03Z</time>
      </trkpt>
      <trkpt lat="50.3001" lon="4.18249">
        <ele>131.860626</ele>
        <time>2022-08-28T08:29:05Z</time>
      </trkpt>
      <trkpt lat="50.3001" lon="4.18259">
        <ele>132.093597</ele>
        <time>2022-08-28T08:29:07Z</time>
      </trkpt>
      <trkpt lat="50.30009" lon="4.18269">
        <ele>132.239883</ele>
        <time>2022-08-28T08:29:09Z</time>
      </trkpt>
      <trkpt lat="50.30011" lon="4.18278">
        <ele>132.477829</ele>
        <time>2022-08-28T08:29:11Z</time>
      </trkpt>
      <trkpt lat="50.30014" lon="4.18284">
        <ele>132.766083</ele>
        <time>2022-08-28T08:29:13Z</time>
      </trkpt>
      <trkpt lat="50.30021" lon="4.18285">
        <ele>133.123444</ele>
        <time>2022-08-28T08:29:15Z</time>
      </trkpt>
      <trkpt lat="50.30029" lon="4.18282">
        <ele>133.50589</ele>
        <time>2022-08-28T08:29:17Z</time>
      </trkpt>
      <trkpt lat="50.30039" lon="4.18278">
        <ele>133.829849</ele>
        <time>2022-08-28T08:29:19Z</time>
      </trkpt>
      <trkpt lat="50.30051" lon="4.1827">
        <ele>134.183807</ele>
        <time>2022-08-28T08:29:21Z</time>
      </trkpt>
      <trkpt lat="50.30064" lon="4.1826">
        <ele>134.463776</ele>
        <time>2022-08-28T08:29:23Z</time>
      </trkpt>
      <trkpt lat="50.30077" lon="4.18251">
        <ele>134.686127</ele>
        <time>2022-08-28T08:29:25Z</time>
      </trkpt>
      <trkpt lat="50.30091" lon="4.18242">
        <ele>134.896286</ele>
        <time>2022-08-28T08:29:27Z</time>
      </trkpt>
      <trkpt lat="50.30106" lon="4.18233">
        <ele>134.571915</ele>
        <time>2022-08-28T08:29:29Z</time>
      </trkpt>
      <trkpt lat="50.30121" lon="4.18227">
        <ele>134.695221</ele>
        <time>2022-08-28T08:29:31Z</time>
      </trkpt>
      <trkpt lat="50.30137" lon="4.18223">
        <ele>134.808075</ele>
        <time>2022-08-28T08:29:33Z</time>
      </trkpt>
      <trkpt lat="50.30151" lon="4.18219">
        <ele>134.436554</ele>
        <time>2022-08-28T08:29:35Z</time>
      </trkpt>
      <trkpt lat="50.30166" lon="4.18215">
        <ele>134.549408</ele>
        <time>2022-08-28T08:29:37Z</time>
      </trkpt>
      <trkpt lat="50.30179" lon="4.18212">
        <ele>134.737503</ele>
        <time>2022-08-28T08:29:39Z</time>
      </trkpt>
      <trkpt lat="50.30192" lon="4.18208">
        <ele>135.370178</ele>
        <time>2022-08-28T08:29:41Z</time>
      </trkpt>
      <trkpt lat="50.30204" lon="4.18205">
        <ele>135.338837</ele>
        <time>2022-08-28T08:29:43Z</time>
      </trkpt>
      <trkpt lat="50.30216" lon="4.18202">
        <ele>135.282394</ele>
        <time>2022-08-28T08:29:45Z</time>
      </trkpt>
      <trkpt lat="50.30226" lon="4.182">
        <ele>135.290756</ele>
        <time>2022-08-28T08:29:47Z</time>
      </trkpt>
      <trkpt lat="50.30236" lon="4.18199">
        <ele>135.241669</ele>
        <time>2022-08-28T08:29:49Z</time>
      </trkpt>
      <trkpt lat="50.30246" lon="4.18198">
        <ele>135.198685</ele>
        <time>2022-08-28T08:29:51Z</time>
      </trkpt>
      <trkpt lat="50.30257" lon="4.18196">
        <ele>135.123581</ele>
        <time>2022-08-28T08:29:53Z</time>
      </trkpt>
      <trkpt lat="50.30267" lon="4.18193">
        <ele>134.966827</ele>
        <time>2022-08-28T08:29:55Z</time>
      </trkpt>
      <trkpt lat="50.30277" lon="4.1819">
        <ele>134.229584</ele>
        <time>2022-08-28T08:29:57Z</time>
      </trkpt>
      <trkpt lat="50.30286" lon="4.18186">
        <ele>134.574936</ele>
        <time>2022-08-28T08:29:59Z</time>
      </trkpt>
      <trkpt lat="50.30294" lon="4.18178">
        <ele>134.384735</ele>
        <time>2022-08-28T08:30:01Z</time>
      </trkpt>
      <trkpt lat="50.30302" lon="4.18172">
        <ele>134.24469</ele>
        <time>2022-08-28T08:30:03Z</time>
      </trkpt>
      <trkpt lat="50.3031" lon="4.18164">
        <ele>134.181091</ele>
        <time>2022-08-28T08:30:05Z</time>
      </trkpt>
      <trkpt lat="50.30315" lon="4.18151">
        <ele>134.67276</ele>
        <time>2022-08-28T08:30:07Z</time>
      </trkpt>
      <trkpt lat="50.3032" lon="4.18139">
        <ele>134.645584</ele>
        <time>2022-08-28T08:30:09Z</time>
      </trkpt>
      <trkpt lat="50.30325" lon="4.18126">
        <ele>134.695755</ele>
        <time>2022-08-28T08:30:11Z</time>
      </trkpt>
      <trkpt lat="50.3033" lon="4.18112">
        <ele>134.802368</ele>
        <time>2022-08-28T08:30:13Z</time>
      </trkpt>
      <trkpt lat="50.30333" lon="4.18097">
        <ele>135.401688</ele>
        <time>2022-08-28T08:30:15Z</time>
      </trkpt>
      <trkpt lat="50.30336" lon="4.18083">
        <ele>135.424179</ele>
        <time>2022-08-28T08:30:17Z</time>
      </trkpt>
      <trkpt lat="50.30338" lon="4.1807">
        <ele>135.516159</ele>
        <time>2022-08-28T08:30:19Z</time>
      </trkpt>
      <trkpt lat="50.30341" lon="4.18057">
        <ele>135.685486</ele>
        <time>2022-08-28T08:30:21Z</time>
      </trkpt>
      <trkpt lat="50.30343" lon="4.18046">
        <ele>135.877808</ele>
        <time>2022-08-28T08:30:23Z</time>
      </trkpt>
      <trkpt lat="50.30345" lon="4.18038">
        <ele>136.099396</ele>
        <time>2022-08-28T08:30:25Z</time>
      </trkpt>
      <trkpt lat="50.30344" lon="4.18034">
        <ele>136.249908</ele>
        <time>2022-08-28T08:30:27Z</time>
      </trkpt>
      <trkpt lat="50.30342" lon="4.18037">
        <ele>136.471481</ele>
        <time>2022-08-28T08:30:29Z</time>
      </trkpt>
      <trkpt lat="50.30341" lon="4.18045">
        <ele>136.569733</ele>
        <time>2022-08-28T08:30:31Z</time>
      </trkpt>
      <trkpt lat="50.30341" lon="4.1805">
        <ele>136.739243</ele>
        <time>2022-08-28T08:30:33Z</time>
      </trkpt>
      <trkpt lat="50.30343" lon="4.18051">
        <ele>136.935455</ele>
        <time>2022-08-28T08:30:35Z</time>
      </trkpt>
      <trkpt lat="50.30343" lon="4.18051">
        <ele>137.747955</ele>
        <time>2022-08-28T08:30:37Z</time>
      </trkpt>
      <trkpt lat="50.30346" lon="4.18056">
        <ele>137.427704</ele>
        <time>2022-08-28T08:30:39Z</time>
      </trkpt>
      <trkpt lat="50.30352" lon="4.18061">
        <ele>137.624191</ele>
        <time>2022-08-28T08:30:41Z</time>
      </trkpt>
      <trkpt lat="50.30358" lon="4.18066">
        <ele>137.829041</ele>
        <time>2022-08-28T08:30:43Z</time>
      </trkpt>
      <trkpt lat="50.30362" lon="4.1807">
        <ele>137.935638</ele>
        <time>2022-08-28T08:30:45Z</time>
      </trkpt>
      <trkpt lat="50.30368" lon="4.18075">
        <ele>137.505463</ele>
        <time>2022-08-28T08:30:47Z</time>
      </trkpt>
      <trkpt lat="50.30374" lon="4.18081">
        <ele>137.584915</ele>
        <time>2022-08-28T08:30:49Z</time>
      </trkpt>
      <trkpt lat="50.3038" lon="4.18086">
        <ele>137.553558</ele>
        <time>2022-08-28T08:30:51Z</time>
      </trkpt>
      <trkpt lat="50.30386" lon="4.18091">
        <ele>137.486664</ele>
        <time>2022-08-28T08:30:53Z</time>
      </trkpt>
      <trkpt lat="50.30391" lon="4.18096">
        <ele>137.404099</ele>
        <time>2022-08-28T08:30:55Z</time>
      </trkpt>
      <trkpt lat="50.30397" lon="4.18101">
        <ele>137.331451</ele>
        <time>2022-08-28T08:30:57Z</time>
      </trkpt>
      <trkpt lat="50.30402" lon="4.18105">
        <ele>137.255737</ele>
        <time>2022-08-28T08:30:59Z</time>
      </trkpt>
      <trkpt lat="50.30407" lon="4.18109">
        <ele>137.036224</ele>
        <time>2022-08-28T08:31:01Z</time>
      </trkpt>
      <trkpt lat="50.3041" lon="4.18112">
        <ele>136.330353</ele>
        <time>2022-08-28T08:31:03Z</time>
      </trkpt>
      <trkpt lat="50.30414" lon="4.18114">
        <ele>136.033539</ele>
        <time>2022-08-28T08:31:05Z</time>
      </trkpt>
      <trkpt lat="50.30418" lon="4.18117">
        <ele>135.782715</ele>
        <time>2022-08-28T08:31:07Z</time>
      </trkpt>
      <trkpt lat="50.30421" lon="4.1812">
        <ele>135.517242</ele>
        <time>2022-08-28T08:31:09Z</time>
      </trkpt>
      <trkpt lat="50.30425" lon="4.18123">
        <ele>135.197464</ele>
        <time>2022-08-28T08:31:11Z</time>
      </trkpt>
      <trkpt lat="50.3043" lon="4.18127">
        <ele>134.825241</ele>
        <time>2022-08-28T08:31:13Z</time>
      </trkpt>
      <trkpt lat="50.30434" lon="4.18131">
        <ele>134.662521</ele>
        <time>2022-08-28T08:31:15Z</time>
      </trkpt>
      <trkpt lat="50.30439" lon="4.18135">
        <ele>134.332275</ele>
        <time>2022-08-28T08:31:17Z</time>
      </trkpt>
      <trkpt lat="50.30443" lon="4.18138">
        <ele>133.988815</ele>
        <time>2022-08-28T08:31:19Z</time>
      </trkpt>
      <trkpt lat="50.30447" lon="4.18143">
        <ele>133.675812</ele>
        <time>2022-08-28T08:31:21Z</time>
      </trkpt>
      <trkpt lat="50.30446" lon="4.1815">
        <ele>133.361664</ele>
        <time>2022-08-28T08:31:23Z</time>
      </trkpt>
      <trkpt lat="50.30444" lon="4.18161">
        <ele>133.089142</ele>
        <time>2022-08-28T08:31:25Z</time>
      </trkpt>
      <trkpt lat="50.30442" lon="4.18173">
        <ele>132.844589</ele>
        <time>2022-08-28T08:31:27Z</time>
      </trkpt>
      <trkpt lat="50.30438" lon="4.18188">
        <ele>132.44545</ele>
        <time>2022-08-28T08:31:29Z</time>
      </trkpt>
      <trkpt lat="50.30434" lon="4.18202">
        <ele>132.228088</ele>
        <time>2022-08-28T08:31:31Z</time>
      </trkpt>
      <trkpt lat="50.3043" lon="4.18216">
        <ele>132.103134</ele>
        <time>2022-08-28T08:31:33Z</time>
      </trkpt>
      <trkpt lat="50.30425" lon="4.18229">
        <ele>131.738541</ele>
        <time>2022-08-28T08:31:35Z</time>
      </trkpt>
      <trkpt lat="50.3042" lon="4.18244">
        <ele>131.665054</ele>
        <time>2022-08-28T08:31:37Z</time>
      </trkpt>
      <trkpt lat="50.30415" lon="4.18258">
        <ele>131.494156</ele>
        <time>2022-08-28T08:31:39Z</time>
      </trkpt>
      <trkpt lat="50.3041" lon="4.18273">
        <ele>131.548492</ele>
        <time>2022-08-28T08:31:41Z</time>
      </trkpt>
      <trkpt lat="50.30405" lon="4.18287">
        <ele>131.032776</ele>
        <time>2022-08-28T08:31:43Z</time>
      </trkpt>
      <trkpt lat="50.30402" lon="4.18301">
        <ele>132.10289</ele>
        <time>2022-08-28T08:31:45Z</time>
      </trkpt>
      <trkpt lat="50.30397" lon="4.18312">
        <ele>132.155655</ele>
        <time>2022-08-28T08:31:47Z</time>
      </trkpt>
      <trkpt lat="50.30393" lon="4.18322">
        <ele>132.184906</ele>
        <time>2022-08-28T08:31:49Z</time>
      </trkpt>
      <trkpt lat="50.30388" lon="4.1833">
        <ele>132.285233</ele>
        <time>2022-08-28T08:31:51Z</time>
      </trkpt>
      <trkpt lat="50.30383" lon="4.18337">
        <ele>132.415085</ele>
        <time>2022-08-28T08:31:53Z</time>
      </trkpt>
      <trkpt lat="50.30377" lon="4.18342">
        <ele>132.691971</ele>
        <time>2022-08-28T08:31:55Z</time>
      </trkpt>
      <trkpt lat="50.3037" lon="4.18346">
        <ele>132.849121</ele>
        <time>2022-08-28T08:31:57Z</time>
      </trkpt>
      <trkpt lat="50.30363" lon="4.1835">
        <ele>132.764084</ele>
        <time>2022-08-28T08:31:59Z</time>
      </trkpt>
      <trkpt lat="50.30355" lon="4.18354">
        <ele>132.847214</ele>
        <time>2022-08-28T08:32:01Z</time>
      </trkpt>
      <trkpt lat="50.30348" lon="4.18357">
        <ele>132.950195</ele>
        <time>2022-08-28T08:32:03Z</time>
      </trkpt>
      <trkpt lat="50.3034" lon="4.18362">
        <ele>133.572266</ele>
        <time>2022-08-28T08:32:05Z</time>
      </trkpt>
      <trkpt lat="50.30333" lon="4.18367">
        <ele>133.607788</ele>
        <time>2022-08-28T08:32:07Z</time>
      </trkpt>
      <trkpt lat="50.30327" lon="4.18373">
        <ele>133.856461</ele>
        <time>2022-08-28T08:32:09Z</time>
      </trkpt>
      <trkpt lat="50.3032" lon="4.18381">
        <ele>133.969284</ele>
        <time>2022-08-28T08:32:11Z</time>
      </trkpt>
      <trkpt lat="50.30315" lon="4.1839">
        <ele>134.126022</ele>
        <time>2022-08-28T08:32:13Z</time>
      </trkpt>
      <trkpt lat="50.30311" lon="4.184">
        <ele>134.46196</ele>
        <time>2022-08-28T08:32:15Z</time>
      </trkpt>
      <trkpt lat="50.30307" lon="4.18411">
        <ele>134.583527</ele>
        <time>2022-08-28T08:32:17Z</time>
      </trkpt>
      <trkpt lat="50.30303" lon="4.18422">
        <ele>134.865692</ele>
        <time>2022-08-28T08:32:19Z</time>
      </trkpt>
      <trkpt lat="50.30299" lon="4.18432">
        <ele>134.940948</ele>
        <time>2022-08-28T08:32:21Z</time>
      </trkpt>
      <trkpt lat="50.30294" lon="4.18443">
        <ele>135.515167</ele>
        <time>2022-08-28T08:32:23Z</time>
      </trkpt>
      <trkpt lat="50.30291" lon="4.18454">
        <ele>135.113388</ele>
        <time>2022-08-28T08:32:25Z</time>
      </trkpt>
      <trkpt lat="50.30287" lon="4.18465">
        <ele>135.240814</ele>
        <time>2022-08-28T08:32:27Z</time>
      </trkpt>
      <trkpt lat="50.30283" lon="4.18475">
        <ele>135.382416</ele>
        <time>2022-08-28T08:32:29Z</time>
      </trkpt>
      <trkpt lat="50.30278" lon="4.18485">
        <ele>135.566376</ele>
        <time>2022-08-28T08:32:31Z</time>
      </trkpt>
      <trkpt lat="50.30274" lon="4.18495">
        <ele>135.770142</ele>
        <time>2022-08-28T08:32:33Z</time>
      </trkpt>
      <trkpt lat="50.3027" lon="4.18505">
        <ele>135.919342</ele>
        <time>2022-08-28T08:32:35Z</time>
      </trkpt>
      <trkpt lat="50.30266" lon="4.18515">
        <ele>136.059006</ele>
        <time>2022-08-28T08:32:37Z</time>
      </trkpt>
      <trkpt lat="50.30262" lon="4.18524">
        <ele>136.393417</ele>
        <time>2022-08-28T08:32:39Z</time>
      </trkpt>
      <trkpt lat="50.30259" lon="4.18535">
        <ele>136.640076</ele>
        <time>2022-08-28T08:32:41Z</time>
      </trkpt>
      <trkpt lat="50.30255" lon="4.18545">
        <ele>136.905548</ele>
        <time>2022-08-28T08:32:43Z</time>
      </trkpt>
      <trkpt lat="50.30251" lon="4.18555">
        <ele>136.551849</ele>
        <time>2022-08-28T08:32:45Z</time>
      </trkpt>
      <trkpt lat="50.30247" lon="4.18566">
        <ele>136.721161</ele>
        <time>2022-08-28T08:32:47Z</time>
      </trkpt>
      <trkpt lat="50.30243" lon="4.18576">
        <ele>136.974075</ele>
        <time>2022-08-28T08:32:49Z</time>
      </trkpt>
      <trkpt lat="50.30239" lon="4.18586">
        <ele>137.170563</ele>
        <time>2022-08-28T08:32:51Z</time>
      </trkpt>
      <trkpt lat="50.30235" lon="4.18597">
        <ele>137.331512</ele>
        <time>2022-08-28T08:32:53Z</time>
      </trkpt>
      <trkpt lat="50.30231" lon="4.18607">
        <ele>137.540573</ele>
        <time>2022-08-28T08:32:55Z</time>
      </trkpt>
      <trkpt lat="50.30227" lon="4.18618">
        <ele>137.743378</ele>
        <time>2022-08-28T08:32:57Z</time>
      </trkpt>
      <trkpt lat="50.30222" lon="4.18629">
        <ele>137.981735</ele>
        <time>2022-08-28T08:32:59Z</time>
      </trkpt>
      <trkpt lat="50.30219" lon="4.1864">
        <ele>138.123901</ele>
        <time>2022-08-28T08:33:01Z</time>
      </trkpt>
      <trkpt lat="50.30214" lon="4.1865">
        <ele>138.400543</ele>
        <time>2022-08-28T08:33:03Z</time>
      </trkpt>
      <trkpt lat="50.3021" lon="4.18661">
        <ele>138.651459</ele>
        <time>2022-08-28T08:33:05Z</time>
      </trkpt>
      <trkpt lat="50.30206" lon="4.18672">
        <ele>138.910767</ele>
        <time>2022-08-28T08:33:07Z</time>
      </trkpt>
      <trkpt lat="50.30201" lon="4.18683">
        <ele>139.230667</ele>
        <time>2022-08-28T08:33:09Z</time>
      </trkpt>
      <trkpt lat="50.30197" lon="4.18694">
        <ele>139.46904</ele>
        <time>2022-08-28T08:33:11Z</time>
      </trkpt>
      <trkpt lat="50.30193" lon="4.18705">
        <ele>139.687592</ele>
        <time>2022-08-28T08:33:13Z</time>
      </trkpt>
      <trkpt lat="50.30189" lon="4.18715">
        <ele>139.911346</ele>
        <time>2022-08-28T08:33:15Z</time>
      </trkpt>
      <trkpt lat="50.30185" lon="4.18727">
        <ele>140.227173</ele>
        <time>2022-08-28T08:33:17Z</time>
      </trkpt>
      <trkpt lat="50.3018" lon="4.18737">
        <ele>140.536713</ele>
        <time>2022-08-28T08:33:19Z</time>
      </trkpt>
      <trkpt lat="50.30176" lon="4.18748">
        <ele>140.724945</ele>
        <time>2022-08-28T08:33:21Z</time>
      </trkpt>
      <trkpt lat="50.30172" lon="4.18759">
        <ele>141.009369</ele>
        <time>2022-08-28T08:33:23Z</time>
      </trkpt>
      <trkpt lat="50.30168" lon="4.1877">
        <ele>141.289597</ele>
        <time>2022-08-28T08:33:25Z</time>
      </trkpt>
      <trkpt lat="50.30163" lon="4.18781">
        <ele>141.538483</ele>
        <time>2022-08-28T08:33:27Z</time>
      </trkpt>
      <trkpt lat="50.30159" lon="4.18792">
        <ele>141.760178</ele>
        <time>2022-08-28T08:33:29Z</time>
      </trkpt>
      <trkpt lat="50.30154" lon="4.18803">
        <ele>141.954666</ele>
        <time>2022-08-28T08:33:31Z</time>
      </trkpt>
      <trkpt lat="50.3015" lon="4.18814">
        <ele>142.270432</ele>
        <time>2022-08-28T08:33:33Z</time>
      </trkpt>
      <trkpt lat="50.30145" lon="4.18824">
        <ele>142.458664</ele>
        <time>2022-08-28T08:33:35Z</time>
      </trkpt>
      <trkpt lat="50.3014" lon="4.18835">
        <ele>142.61972</ele>
        <time>2022-08-28T08:33:37Z</time>
      </trkpt>
      <trkpt lat="50.30135" lon="4.18845">
        <ele>142.776627</ele>
        <time>2022-08-28T08:33:39Z</time>
      </trkpt>
      <trkpt lat="50.3013" lon="4.18855">
        <ele>142.887497</ele>
        <time>2022-08-28T08:33:41Z</time>
      </trkpt>
      <trkpt lat="50.30125" lon="4.18865">
        <ele>143.052734</ele>
        <time>2022-08-28T08:33:43Z</time>
      </trkpt>
      <trkpt lat="50.30119" lon="4.18875">
        <ele>143.217316</ele>
        <time>2022-08-28T08:33:45Z</time>
      </trkpt>
      <trkpt lat="50.30114" lon="4.18885">
        <ele>143.305191</ele>
        <time>2022-08-28T08:33:47Z</time>
      </trkpt>
      <trkpt lat="50.30109" lon="4.18895">
        <ele>143.45163</ele>
        <time>2022-08-28T08:33:49Z</time>
      </trkpt>
      <trkpt lat="50.30104" lon="4.18905">
        <ele>143.73613</ele>
        <time>2022-08-28T08:33:51Z</time>
      </trkpt>
      <trkpt lat="50.301" lon="4.18916">
        <ele>143.959961</ele>
        <time>2022-08-28T08:33:53Z</time>
      </trkpt>
      <trkpt lat="50.30095" lon="4.18927">
        <ele>144.089676</ele>
        <time>2022-08-28T08:33:55Z</time>
      </trkpt>
      <trkpt lat="50.30091" lon="4.18939">
        <ele>144.188004</ele>
        <time>2022-08-28T08:33:57Z</time>
      </trkpt>
      <trkpt lat="50.30087" lon="4.1895">
        <ele>144.068756</ele>
        <time>2022-08-28T08:33:59Z</time>
      </trkpt>
      <trkpt lat="50.30083" lon="4.18962">
        <ele>144.229843</ele>
        <time>2022-08-28T08:34:01Z</time>
      </trkpt>
      <trkpt lat="50.30079" lon="4.18974">
        <ele>144.472565</ele>
        <time>2022-08-28T08:34:03Z</time>
      </trkpt>
      <trkpt lat="50.30074" lon="4.18986">
        <ele>144.608551</ele>
        <time>2022-08-28T08:34:05Z</time>
      </trkpt>
      <trkpt lat="50.3007" lon="4.18998">
        <ele>144.77803</ele>
        <time>2022-08-28T08:34:07Z</time>
      </trkpt>
      <trkpt lat="50.30066" lon="4.19009">
        <ele>144.981003</ele>
        <time>2022-08-28T08:34:09Z</time>
      </trkpt>
      <trkpt lat="50.30061" lon="4.19021">
        <ele>145.278091</ele>
        <time>2022-08-28T08:34:11Z</time>
      </trkpt>
      <trkpt lat="50.30056" lon="4.19032">
        <ele>145.414078</ele>
        <time>2022-08-28T08:34:13Z</time>
      </trkpt>
      <trkpt lat="50.30051" lon="4.19043">
        <ele>145.497757</ele>
        <time>2022-08-28T08:34:15Z</time>
      </trkpt>
      <trkpt lat="50.30045" lon="4.19054">
        <ele>145.698608</ele>
        <time>2022-08-28T08:34:17Z</time>
      </trkpt>
      <trkpt lat="50.30036" lon="4.1907">
        <ele>145.960144</ele>
        <time>2022-08-28T08:34:20Z</time>
      </trkpt>
      <trkpt lat="50.30031" lon="4.19081">
        <ele>146.165161</ele>
        <time>2022-08-28T08:34:22Z</time>
      </trkpt>
      <trkpt lat="50.30025" lon="4.19092">
        <ele>146.414154</ele>
        <time>2022-08-28T08:34:24Z</time>
      </trkpt>
      <trkpt lat="50.30019" lon="4.19102">
        <ele>146.59111</ele>
        <time>2022-08-28T08:34:26Z</time>
      </trkpt>
      <trkpt lat="50.30014" lon="4.19113">
        <ele>146.82756</ele>
        <time>2022-08-28T08:34:28Z</time>
      </trkpt>
      <trkpt lat="50.30008" lon="4.19124">
        <ele>147.015671</ele>
        <time>2022-08-28T08:34:30Z</time>
      </trkpt>
      <trkpt lat="50.30002" lon="4.19135">
        <ele>147.011505</ele>
        <time>2022-08-28T08:34:32Z</time>
      </trkpt>
      <trkpt lat="50.29997" lon="4.19145">
        <ele>147.218689</ele>
        <time>2022-08-28T08:34:34Z</time>
      </trkpt>
      <trkpt lat="50.29992" lon="4.19155">
        <ele>147.494934</ele>
        <time>2022-08-28T08:34:36Z</time>
      </trkpt>
      <trkpt lat="50.29986" lon="4.19166">
        <ele>147.827713</ele>
        <time>2022-08-28T08:34:38Z</time>
      </trkpt>
      <trkpt lat="50.2998" lon="4.19175">
        <ele>148.828903</ele>
        <time>2022-08-28T08:34:40Z</time>
      </trkpt>
      <trkpt lat="50.29974" lon="4.19184">
        <ele>148.93251</ele>
        <time>2022-08-28T08:34:42Z</time>
      </trkpt>
      <trkpt lat="50.29969" lon="4.19193">
        <ele>149.091614</ele>
        <time>2022-08-28T08:34:44Z</time>
      </trkpt>
      <trkpt lat="50.29964" lon="4.19202">
        <ele>149.333145</ele>
        <time>2022-08-28T08:34:46Z</time>
      </trkpt>
      <trkpt lat="50.29958" lon="4.19211">
        <ele>149.488037</ele>
        <time>2022-08-28T08:34:48Z</time>
      </trkpt>
      <trkpt lat="50.29952" lon="4.1922">
        <ele>149.441986</ele>
        <time>2022-08-28T08:34:50Z</time>
      </trkpt>
      <trkpt lat="50.29945" lon="4.19228">
        <ele>149.588501</ele>
        <time>2022-08-28T08:34:52Z</time>
      </trkpt>
      <trkpt lat="50.2994" lon="4.19237">
        <ele>149.877319</ele>
        <time>2022-08-28T08:34:54Z</time>
      </trkpt>
      <trkpt lat="50.29934" lon="4.19245">
        <ele>150.105499</ele>
        <time>2022-08-28T08:34:56Z</time>
      </trkpt>
      <trkpt lat="50.29927" lon="4.19254">
        <ele>150.465973</ele>
        <time>2022-08-28T08:34:58Z</time>
      </trkpt>
      <trkpt lat="50.29921" lon="4.19263">
        <ele>150.49736</ele>
        <time>2022-08-28T08:35:00Z</time>
      </trkpt>
      <trkpt lat="50.29915" lon="4.19272">
        <ele>150.590668</ele>
        <time>2022-08-28T08:35:02Z</time>
      </trkpt>
      <trkpt lat="50.2991" lon="4.1928">
        <ele>150.7435</ele>
        <time>2022-08-28T08:35:04Z</time>
      </trkpt>
      <trkpt lat="50.29904" lon="4.19289">
        <ele>150.806305</ele>
        <time>2022-08-28T08:35:06Z</time>
      </trkpt>
      <trkpt lat="50.29898" lon="4.19298">
        <ele>150.451691</ele>
        <time>2022-08-28T08:35:08Z</time>
      </trkpt>
      <trkpt lat="50.29892" lon="4.19308">
        <ele>150.462158</ele>
        <time>2022-08-28T08:35:10Z</time>
      </trkpt>
      <trkpt lat="50.29886" lon="4.19316">
        <ele>150.604202</ele>
        <time>2022-08-28T08:35:12Z</time>
      </trkpt>
      <trkpt lat="50.29881" lon="4.19325">
        <ele>150.958344</ele>
        <time>2022-08-28T08:35:14Z</time>
      </trkpt>
      <trkpt lat="50.29875" lon="4.19335">
        <ele>151.023163</ele>
        <time>2022-08-28T08:35:16Z</time>
      </trkpt>
      <trkpt lat="50.29869" lon="4.19343">
        <ele>151.069244</ele>
        <time>2022-08-28T08:35:18Z</time>
      </trkpt>
      <trkpt lat="50.29864" lon="4.19351">
        <ele>151.025269</ele>
        <time>2022-08-28T08:35:20Z</time>
      </trkpt>
      <trkpt lat="50.29859" lon="4.19359">
        <ele>150.51062</ele>
        <time>2022-08-28T08:35:22Z</time>
      </trkpt>
      <trkpt lat="50.29854" lon="4.19368">
        <ele>150.770142</ele>
        <time>2022-08-28T08:35:24Z</time>
      </trkpt>
      <trkpt lat="50.29849" lon="4.19377">
        <ele>150.831421</ele>
        <time>2022-08-28T08:35:26Z</time>
      </trkpt>
      <trkpt lat="50.29844" lon="4.19386">
        <ele>150.799332</ele>
        <time>2022-08-28T08:35:28Z</time>
      </trkpt>
      <trkpt lat="50.29839" lon="4.19396">
        <ele>151.064087</ele>
        <time>2022-08-28T08:35:30Z</time>
      </trkpt>
      <trkpt lat="50.29835" lon="4.19405">
        <ele>151.386475</ele>
        <time>2022-08-28T08:35:32Z</time>
      </trkpt>
      <trkpt lat="50.29831" lon="4.19416">
        <ele>151.518387</ele>
        <time>2022-08-28T08:35:34Z</time>
      </trkpt>
      <trkpt lat="50.29826" lon="4.19426">
        <ele>151.507904</ele>
        <time>2022-08-28T08:35:36Z</time>
      </trkpt>
      <trkpt lat="50.29821" lon="4.19437">
        <ele>151.322021</ele>
        <time>2022-08-28T08:35:38Z</time>
      </trkpt>
      <trkpt lat="50.29817" lon="4.19447">
        <ele>151.501617</ele>
        <time>2022-08-28T08:35:40Z</time>
      </trkpt>
      <trkpt lat="50.29813" lon="4.19457">
        <ele>151.8228</ele>
        <time>2022-08-28T08:35:42Z</time>
      </trkpt>
      <trkpt lat="50.29808" lon="4.19467">
        <ele>152.044769</ele>
        <time>2022-08-28T08:35:44Z</time>
      </trkpt>
      <trkpt lat="50.29802" lon="4.19478">
        <ele>152.283401</ele>
        <time>2022-08-28T08:35:46Z</time>
      </trkpt>
      <trkpt lat="50.29797" lon="4.1949">
        <ele>152.552948</ele>
        <time>2022-08-28T08:35:48Z</time>
      </trkpt>
      <trkpt lat="50.29791" lon="4.19501">
        <ele>153.719391</ele>
        <time>2022-08-28T08:35:50Z</time>
      </trkpt>
      <trkpt lat="50.29785" lon="4.19511">
        <ele>154.142334</ele>
        <time>2022-08-28T08:35:52Z</time>
      </trkpt>
      <trkpt lat="50.29779" lon="4.19521">
        <ele>154.40744</ele>
        <time>2022-08-28T08:35:54Z</time>
      </trkpt>
      <trkpt lat="50.29772" lon="4.19531">
        <ele>154.603104</ele>
        <time>2022-08-28T08:35:56Z</time>
      </trkpt>
      <trkpt lat="50.29766" lon="4.1954">
        <ele>154.753464</ele>
        <time>2022-08-28T08:35:58Z</time>
      </trkpt>
      <trkpt lat="50.29759" lon="4.19549">
        <ele>155.042435</ele>
        <time>2022-08-28T08:36:00Z</time>
      </trkpt>
      <trkpt lat="50.29752" lon="4.19559">
        <ele>155.330902</ele>
        <time>2022-08-28T08:36:02Z</time>
      </trkpt>
      <trkpt lat="50.29744" lon="4.19569">
        <ele>155.473312</ele>
        <time>2022-08-28T08:36:04Z</time>
      </trkpt>
      <trkpt lat="50.29737" lon="4.19579">
        <ele>155.58078</ele>
        <time>2022-08-28T08:36:06Z</time>
      </trkpt>
      <trkpt lat="50.2973" lon="4.1959">
        <ele>155.719696</ele>
        <time>2022-08-28T08:36:08Z</time>
      </trkpt>
      <trkpt lat="50.29722" lon="4.19601">
        <ele>155.900848</ele>
        <time>2022-08-28T08:36:10Z</time>
      </trkpt>
      <trkpt lat="50.29714" lon="4.19613">
        <ele>156.001373</ele>
        <time>2022-08-28T08:36:12Z</time>
      </trkpt>
      <trkpt lat="50.29707" lon="4.19625">
        <ele>156.466827</ele>
        <time>2022-08-28T08:36:14Z</time>
      </trkpt>
      <trkpt lat="50.297" lon="4.19636">
        <ele>156.724518</ele>
        <time>2022-08-28T08:36:16Z</time>
      </trkpt>
      <trkpt lat="50.29693" lon="4.19647">
        <ele>156.69516</ele>
        <time>2022-08-28T08:36:18Z</time>
      </trkpt>
      <trkpt lat="50.29687" lon="4.19658">
        <ele>157.211929</ele>
        <time>2022-08-28T08:36:20Z</time>
      </trkpt>
      <trkpt lat="50.2968" lon="4.19669">
        <ele>157.23497</ele>
        <time>2022-08-28T08:36:22Z</time>
      </trkpt>
      <trkpt lat="50.29674" lon="4.1968">
        <ele>157.098846</ele>
        <time>2022-08-28T08:36:24Z</time>
      </trkpt>
      <trkpt lat="50.29668" lon="4.19691">
        <ele>157.03183</ele>
        <time>2022-08-28T08:36:26Z</time>
      </trkpt>
      <trkpt lat="50.29662" lon="4.19701">
        <ele>157.001068</ele>
        <time>2022-08-28T08:36:28Z</time>
      </trkpt>
      <trkpt lat="50.29656" lon="4.19712">
        <ele>156.931976</ele>
        <time>2022-08-28T08:36:30Z</time>
      </trkpt>
      <trkpt lat="50.29649" lon="4.19722">
        <ele>156.227798</ele>
        <time>2022-08-28T08:36:32Z</time>
      </trkpt>
      <trkpt lat="50.29643" lon="4.19733">
        <ele>156.189972</ele>
        <time>2022-08-28T08:36:34Z</time>
      </trkpt>
      <trkpt lat="50.29637" lon="4.19743">
        <ele>156.294464</ele>
        <time>2022-08-28T08:36:36Z</time>
      </trkpt>
      <trkpt lat="50.29631" lon="4.19754">
        <ele>156.850739</ele>
        <time>2022-08-28T08:36:38Z</time>
      </trkpt>
      <trkpt lat="50.29625" lon="4.19767">
        <ele>157.012543</ele>
        <time>2022-08-28T08:36:40Z</time>
      </trkpt>
      <trkpt lat="50.29619" lon="4.19781">
        <ele>157.023041</ele>
        <time>2022-08-28T08:36:42Z</time>
      </trkpt>
      <trkpt lat="50.29614" lon="4.19794">
        <ele>157.086395</ele>
        <time>2022-08-28T08:36:44Z</time>
      </trkpt>
      <trkpt lat="50.29609" lon="4.19808">
        <ele>157.065445</ele>
        <time>2022-08-28T08:36:46Z</time>
      </trkpt>
      <trkpt lat="50.29603" lon="4.19823">
        <ele>157.02774</ele>
        <time>2022-08-28T08:36:48Z</time>
      </trkpt>
      <trkpt lat="50.29597" lon="4.19838">
        <ele>156.832993</ele>
        <time>2022-08-28T08:36:50Z</time>
      </trkpt>
      <trkpt lat="50.2959" lon="4.19856">
        <ele>157.06134</ele>
        <time>2022-08-28T08:36:52Z</time>
      </trkpt>
      <trkpt lat="50.29582" lon="4.19875">
        <ele>156.671356</ele>
        <time>2022-08-28T08:36:54Z</time>
      </trkpt>
      <trkpt lat="50.29573" lon="4.19893">
        <ele>156.943588</ele>
        <time>2022-08-28T08:36:56Z</time>
      </trkpt>
      <trkpt lat="50.29564" lon="4.1991">
        <ele>156.991547</ele>
        <time>2022-08-28T08:36:58Z</time>
      </trkpt>
      <trkpt lat="50.29553" lon="4.19925">
        <ele>157.207306</ele>
        <time>2022-08-28T08:37:00Z</time>
      </trkpt>
      <trkpt lat="50.29542" lon="4.19939">
        <ele>157.245026</ele>
        <time>2022-08-28T08:37:02Z</time>
      </trkpt>
      <trkpt lat="50.29532" lon="4.19954">
        <ele>156.751312</ele>
        <time>2022-08-28T08:37:04Z</time>
      </trkpt>
      <trkpt lat="50.29524" lon="4.19968">
        <ele>157.096939</ele>
        <time>2022-08-28T08:37:06Z</time>
      </trkpt>
      <trkpt lat="50.29516" lon="4.19983">
        <ele>156.914688</ele>
        <time>2022-08-28T08:37:08Z</time>
      </trkpt>
      <trkpt lat="50.29509" lon="4.19998">
        <ele>157.158997</ele>
        <time>2022-08-28T08:37:10Z</time>
      </trkpt>
      <trkpt lat="50.29503" lon="4.20013">
        <ele>156.947571</ele>
        <time>2022-08-28T08:37:12Z</time>
      </trkpt>
      <trkpt lat="50.29497" lon="4.20028">
        <ele>157.014221</ele>
        <time>2022-08-28T08:37:14Z</time>
      </trkpt>
      <trkpt lat="50.29491" lon="4.20043">
        <ele>156.850403</ele>
        <time>2022-08-28T08:37:16Z</time>
      </trkpt>
      <trkpt lat="50.29487" lon="4.20056">
        <ele>156.219467</ele>
        <time>2022-08-28T08:37:18Z</time>
      </trkpt>
      <trkpt lat="50.29482" lon="4.20068">
        <ele>155.989075</ele>
        <time>2022-08-28T08:37:20Z</time>
      </trkpt>
      <trkpt lat="50.29477" lon="4.20081">
        <ele>155.187485</ele>
        <time>2022-08-28T08:37:22Z</time>
      </trkpt>
      <trkpt lat="50.29472" lon="4.20093">
        <ele>155.558563</ele>
        <time>2022-08-28T08:37:24Z</time>
      </trkpt>
      <trkpt lat="50.29468" lon="4.20105">
        <ele>155.510391</ele>
        <time>2022-08-28T08:37:26Z</time>
      </trkpt>
      <trkpt lat="50.29464" lon="4.20118">
        <ele>156.032379</ele>
        <time>2022-08-28T08:37:28Z</time>
      </trkpt>
      <trkpt lat="50.29461" lon="4.20131">
        <ele>156.051239</ele>
        <time>2022-08-28T08:37:30Z</time>
      </trkpt>
      <trkpt lat="50.29457" lon="4.20143">
        <ele>155.860565</ele>
        <time>2022-08-28T08:37:32Z</time>
      </trkpt>
      <trkpt lat="50.29453" lon="4.20155">
        <ele>155.898285</ele>
        <time>2022-08-28T08:37:34Z</time>
      </trkpt>
      <trkpt lat="50.29449" lon="4.20168">
        <ele>155.067352</ele>
        <time>2022-08-28T08:37:36Z</time>
      </trkpt>
      <trkpt lat="50.29445" lon="4.20181">
        <ele>155.424072</ele>
        <time>2022-08-28T08:37:38Z</time>
      </trkpt>
      <trkpt lat="50.29441" lon="4.20194">
        <ele>155.31514</ele>
        <time>2022-08-28T08:37:40Z</time>
      </trkpt>
      <trkpt lat="50.29437" lon="4.20207">
        <ele>155.093063</ele>
        <time>2022-08-28T08:37:42Z</time>
      </trkpt>
      <trkpt lat="50.29433" lon="4.2022">
        <ele>155.675812</ele>
        <time>2022-08-28T08:37:44Z</time>
      </trkpt>
      <trkpt lat="50.29429" lon="4.20233">
        <ele>156.240204</ele>
        <time>2022-08-28T08:37:46Z</time>
      </trkpt>
      <trkpt lat="50.29425" lon="4.20246">
        <ele>156.590408</ele>
        <time>2022-08-28T08:37:48Z</time>
      </trkpt>
      <trkpt lat="50.29421" lon="4.2026">
        <ele>156.730911</ele>
        <time>2022-08-28T08:37:50Z</time>
      </trkpt>
      <trkpt lat="50.29417" lon="4.20273">
        <ele>156.976486</ele>
        <time>2022-08-28T08:37:52Z</time>
      </trkpt>
      <trkpt lat="50.29413" lon="4.20286">
        <ele>157.085419</ele>
        <time>2022-08-28T08:37:54Z</time>
      </trkpt>
      <trkpt lat="50.29409" lon="4.203">
        <ele>157.173859</ele>
        <time>2022-08-28T08:37:56Z</time>
      </trkpt>
      <trkpt lat="50.29404" lon="4.20313">
        <ele>157.28067</ele>
        <time>2022-08-28T08:37:58Z</time>
      </trkpt>
      <trkpt lat="50.294" lon="4.20326">
        <ele>157.435669</ele>
        <time>2022-08-28T08:38:00Z</time>
      </trkpt>
      <trkpt lat="50.29396" lon="4.20339">
        <ele>158.021515</ele>
        <time>2022-08-28T08:38:02Z</time>
      </trkpt>
      <trkpt lat="50.29392" lon="4.20353">
        <ele>157.677643</ele>
        <time>2022-08-28T08:38:04Z</time>
      </trkpt>
      <trkpt lat="50.29388" lon="4.20365">
        <ele>157.732101</ele>
        <time>2022-08-28T08:38:06Z</time>
      </trkpt>
      <trkpt lat="50.29384" lon="4.20377">
        <ele>157.268753</ele>
        <time>2022-08-28T08:38:08Z</time>
      </trkpt>
      <trkpt lat="50.29379" lon="4.20387">
        <ele>157.352524</ele>
        <time>2022-08-28T08:38:10Z</time>
      </trkpt>
      <trkpt lat="50.29373" lon="4.20398">
        <ele>157.444672</ele>
        <time>2022-08-28T08:38:12Z</time>
      </trkpt>
      <trkpt lat="50.29368" lon="4.20407">
        <ele>157.413254</ele>
        <time>2022-08-28T08:38:14Z</time>
      </trkpt>
      <trkpt lat="50.29362" lon="4.20416">
        <ele>157.570313</ele>
        <time>2022-08-28T08:38:16Z</time>
      </trkpt>
      <trkpt lat="50.29356" lon="4.20424">
        <ele>157.627899</ele>
        <time>2022-08-28T08:38:18Z</time>
      </trkpt>
      <trkpt lat="50.2935" lon="4.20432">
        <ele>157.699112</ele>
        <time>2022-08-28T08:38:20Z</time>
      </trkpt>
      <trkpt lat="50.29344" lon="4.20441">
        <ele>157.81221</ele>
        <time>2022-08-28T08:38:22Z</time>
      </trkpt>
      <trkpt lat="50.29337" lon="4.20449">
        <ele>157.260864</ele>
        <time>2022-08-28T08:38:24Z</time>
      </trkpt>
      <trkpt lat="50.2933" lon="4.20458">
        <ele>157.276047</ele>
        <time>2022-08-28T08:38:26Z</time>
      </trkpt>
      <trkpt lat="50.29323" lon="4.20467">
        <ele>157.229965</ele>
        <time>2022-08-28T08:38:28Z</time>
      </trkpt>
      <trkpt lat="50.29316" lon="4.20476">
        <ele>156.687042</ele>
        <time>2022-08-28T08:38:30Z</time>
      </trkpt>
      <trkpt lat="50.2931" lon="4.20485">
        <ele>156.649139</ele>
        <time>2022-08-28T08:38:32Z</time>
      </trkpt>
      <trkpt lat="50.29302" lon="4.20495">
        <ele>156.686829</ele>
        <time>2022-08-28T08:38:34Z</time>
      </trkpt>
      <trkpt lat="50.29295" lon="4.20504">
        <ele>156.640747</ele>
        <time>2022-08-28T08:38:36Z</time>
      </trkpt>
      <trkpt lat="50.29288" lon="4.20514">
        <ele>156.563248</ele>
        <time>2022-08-28T08:38:38Z</time>
      </trkpt>
      <trkpt lat="50.29281" lon="4.20524">
        <ele>156.576599</ele>
        <time>2022-08-28T08:38:40Z</time>
      </trkpt>
      <trkpt lat="50.29274" lon="4.20534">
        <ele>156.548325</ele>
        <time>2022-08-28T08:38:42Z</time>
      </trkpt>
      <trkpt lat="50.29266" lon="4.20544">
        <ele>157.135239</ele>
        <time>2022-08-28T08:38:44Z</time>
      </trkpt>
      <trkpt lat="50.29259" lon="4.20553">
        <ele>157.108017</ele>
        <time>2022-08-28T08:38:46Z</time>
      </trkpt>
      <trkpt lat="50.29252" lon="4.20563">
        <ele>157.047272</ele>
        <time>2022-08-28T08:38:48Z</time>
      </trkpt>
      <trkpt lat="50.29244" lon="4.20573">
        <ele>157.103806</ele>
        <time>2022-08-28T08:38:50Z</time>
      </trkpt>
      <trkpt lat="50.29237" lon="4.20582">
        <ele>157.246216</ele>
        <time>2022-08-28T08:38:52Z</time>
      </trkpt>
      <trkpt lat="50.29229" lon="4.20592">
        <ele>157.189667</ele>
        <time>2022-08-28T08:38:54Z</time>
      </trkpt>
      <trkpt lat="50.29221" lon="4.20602">
        <ele>156.714798</ele>
        <time>2022-08-28T08:38:56Z</time>
      </trkpt>
      <trkpt lat="50.29214" lon="4.20612">
        <ele>156.725281</ele>
        <time>2022-08-28T08:38:58Z</time>
      </trkpt>
      <trkpt lat="50.29207" lon="4.20622">
        <ele>156.264923</ele>
        <time>2022-08-28T08:39:00Z</time>
      </trkpt>
      <trkpt lat="50.29199" lon="4.20632">
        <ele>156.269104</ele>
        <time>2022-08-28T08:39:02Z</time>
      </trkpt>
      <trkpt lat="50.29192" lon="4.20642">
        <ele>156.308899</ele>
        <time>2022-08-28T08:39:04Z</time>
      </trkpt>
      <trkpt lat="50.29185" lon="4.20652">
        <ele>156.321472</ele>
        <time>2022-08-28T08:39:06Z</time>
      </trkpt>
      <trkpt lat="50.29178" lon="4.20662">
        <ele>156.256546</ele>
        <time>2022-08-28T08:39:08Z</time>
      </trkpt>
      <trkpt lat="50.29172" lon="4.20672">
        <ele>156.331955</ele>
        <time>2022-08-28T08:39:10Z</time>
      </trkpt>
      <trkpt lat="50.29166" lon="4.20683">
        <ele>156.365463</ele>
        <time>2022-08-28T08:39:12Z</time>
      </trkpt>
      <trkpt lat="50.2916" lon="4.20692">
        <ele>156.47229</ele>
        <time>2022-08-28T08:39:14Z</time>
      </trkpt>
      <trkpt lat="50.29155" lon="4.20703">
        <ele>156.434601</ele>
        <time>2022-08-28T08:39:16Z</time>
      </trkpt>
      <trkpt lat="50.2915" lon="4.20714">
        <ele>156.658157</ele>
        <time>2022-08-28T08:39:18Z</time>
      </trkpt>
      <trkpt lat="50.29145" lon="4.20726">
        <ele>156.793533</ele>
        <time>2022-08-28T08:39:20Z</time>
      </trkpt>
      <trkpt lat="50.29141" lon="4.20737">
        <ele>156.918152</ele>
        <time>2022-08-28T08:39:22Z</time>
      </trkpt>
      <trkpt lat="50.29137" lon="4.20748">
        <ele>156.886749</ele>
        <time>2022-08-28T08:39:24Z</time>
      </trkpt>
      <trkpt lat="50.29131" lon="4.2076">
        <ele>156.576294</ele>
        <time>2022-08-28T08:39:26Z</time>
      </trkpt>
      <trkpt lat="50.29126" lon="4.20771">
        <ele>156.708267</ele>
        <time>2022-08-28T08:39:28Z</time>
      </trkpt>
      <trkpt lat="50.29121" lon="4.20782">
        <ele>156.833527</ele>
        <time>2022-08-28T08:39:30Z</time>
      </trkpt>
      <trkpt lat="50.29114" lon="4.20793">
        <ele>156.892654</ele>
        <time>2022-08-28T08:39:32Z</time>
      </trkpt>
      <trkpt lat="50.29107" lon="4.20802">
        <ele>157.043472</ele>
        <time>2022-08-28T08:39:34Z</time>
      </trkpt>
      <trkpt lat="50.29099" lon="4.20809">
        <ele>157.765533</ele>
        <time>2022-08-28T08:39:36Z</time>
      </trkpt>
      <trkpt lat="50.29092" lon="4.20815">
        <ele>157.765579</ele>
        <time>2022-08-28T08:39:38Z</time>
      </trkpt>
      <trkpt lat="50.29084" lon="4.20823">
        <ele>158.59256</ele>
        <time>2022-08-28T08:39:40Z</time>
      </trkpt>
      <trkpt lat="50.29076" lon="4.20829">
        <ele>158.856552</ele>
        <time>2022-08-28T08:39:42Z</time>
      </trkpt>
      <trkpt lat="50.2907" lon="4.20839">
        <ele>158.955032</ele>
        <time>2022-08-28T08:39:44Z</time>
      </trkpt>
      <trkpt lat="50.29066" lon="4.20851">
        <ele>159.233688</ele>
        <time>2022-08-28T08:39:46Z</time>
      </trkpt>
      <trkpt lat="50.29065" lon="4.20866">
        <ele>159.397095</ele>
        <time>2022-08-28T08:39:48Z</time>
      </trkpt>
      <trkpt lat="50.29065" lon="4.20881">
        <ele>159.558411</ele>
        <time>2022-08-28T08:39:50Z</time>
      </trkpt>
      <trkpt lat="50.29065" lon="4.20896">
        <ele>159.820297</ele>
        <time>2022-08-28T08:39:52Z</time>
      </trkpt>
      <trkpt lat="50.29067" lon="4.20911">
        <ele>159.874786</ele>
        <time>2022-08-28T08:39:54Z</time>
      </trkpt>
      <trkpt lat="50.29068" lon="4.20925">
        <ele>160.038193</ele>
        <time>2022-08-28T08:39:56Z</time>
      </trkpt>
      <trkpt lat="50.29068" lon="4.2094">
        <ele>160.16391</ele>
        <time>2022-08-28T08:39:58Z</time>
      </trkpt>
      <trkpt lat="50.2907" lon="4.20954">
        <ele>160.216873</ele>
        <time>2022-08-28T08:40:00Z</time>
      </trkpt>
      <trkpt lat="50.29072" lon="4.20967">
        <ele>160.338379</ele>
        <time>2022-08-28T08:40:02Z</time>
      </trkpt>
      <trkpt lat="50.29076" lon="4.2098">
        <ele>160.501831</ele>
        <time>2022-08-28T08:40:04Z</time>
      </trkpt>
      <trkpt lat="50.29079" lon="4.20992">
        <ele>160.648468</ele>
        <time>2022-08-28T08:40:06Z</time>
      </trkpt>
      <trkpt lat="50.29083" lon="4.21004">
        <ele>160.757416</ele>
        <time>2022-08-28T08:40:08Z</time>
      </trkpt>
      <trkpt lat="50.29087" lon="4.21016">
        <ele>160.711761</ele>
        <time>2022-08-28T08:40:10Z</time>
      </trkpt>
      <trkpt lat="50.29091" lon="4.21028">
        <ele>160.811935</ele>
        <time>2022-08-28T08:40:12Z</time>
      </trkpt>
      <trkpt lat="50.29095" lon="4.2104">
        <ele>161.082245</ele>
        <time>2022-08-28T08:40:14Z</time>
      </trkpt>
      <trkpt lat="50.291" lon="4.21052">
        <ele>161.197495</ele>
        <time>2022-08-28T08:40:16Z</time>
      </trkpt>
      <trkpt lat="50.29104" lon="4.21065">
        <ele>161.365082</ele>
        <time>2022-08-28T08:40:18Z</time>
      </trkpt>
      <trkpt lat="50.29107" lon="4.21077">
        <ele>161.346222</ele>
        <time>2022-08-28T08:40:20Z</time>
      </trkpt>
      <trkpt lat="50.2911" lon="4.21089">
        <ele>161.335739</ele>
        <time>2022-08-28T08:40:22Z</time>
      </trkpt>
      <trkpt lat="50.29113" lon="4.21101">
        <ele>161.448883</ele>
        <time>2022-08-28T08:40:24Z</time>
      </trkpt>
      <trkpt lat="50.29116" lon="4.21113">
        <ele>161.406952</ele>
        <time>2022-08-28T08:40:26Z</time>
      </trkpt>
      <trkpt lat="50.29118" lon="4.21126">
        <ele>161.448868</ele>
        <time>2022-08-28T08:40:28Z</time>
      </trkpt>
      <trkpt lat="50.2912" lon="4.21139">
        <ele>161.499161</ele>
        <time>2022-08-28T08:40:30Z</time>
      </trkpt>
      <trkpt lat="50.29123" lon="4.21151">
        <ele>161.459351</ele>
        <time>2022-08-28T08:40:32Z</time>
      </trkpt>
      <trkpt lat="50.29125" lon="4.21164">
        <ele>161.49498</ele>
        <time>2022-08-28T08:40:34Z</time>
      </trkpt>
      <trkpt lat="50.29127" lon="4.21177">
        <ele>161.589279</ele>
        <time>2022-08-28T08:40:36Z</time>
      </trkpt>
      <trkpt lat="50.29128" lon="4.21191">
        <ele>161.673126</ele>
        <time>2022-08-28T08:40:38Z</time>
      </trkpt>
      <trkpt lat="50.29129" lon="4.21204">
        <ele>161.62912</ele>
        <time>2022-08-28T08:40:40Z</time>
      </trkpt>
      <trkpt lat="50.2913" lon="4.21217">
        <ele>161.716568</ele>
        <time>2022-08-28T08:40:42Z</time>
      </trkpt>
      <trkpt lat="50.2913" lon="4.2123">
        <ele>161.802032</ele>
        <time>2022-08-28T08:40:44Z</time>
      </trkpt>
      <trkpt lat="50.2913" lon="4.21242">
        <ele>161.747543</ele>
        <time>2022-08-28T08:40:46Z</time>
      </trkpt>
      <trkpt lat="50.29131" lon="4.21255">
        <ele>161.837692</ele>
        <time>2022-08-28T08:40:48Z</time>
      </trkpt>
      <trkpt lat="50.29131" lon="4.21269">
        <ele>162.001129</ele>
        <time>2022-08-28T08:40:50Z</time>
      </trkpt>
      <trkpt lat="50.29132" lon="4.21282">
        <ele>162.019928</ele>
        <time>2022-08-28T08:40:52Z</time>
      </trkpt>
      <trkpt lat="50.29133" lon="4.21295">
        <ele>162.024109</ele>
        <time>2022-08-28T08:40:54Z</time>
      </trkpt>
      <trkpt lat="50.29134" lon="4.21308">
        <ele>162.013626</ele>
        <time>2022-08-28T08:40:56Z</time>
      </trkpt>
      <trkpt lat="50.29136" lon="4.21322">
        <ele>162.179169</ele>
        <time>2022-08-28T08:40:58Z</time>
      </trkpt>
      <trkpt lat="50.29138" lon="4.21334">
        <ele>162.162399</ele>
        <time>2022-08-28T08:41:00Z</time>
      </trkpt>
      <trkpt lat="50.2914" lon="4.21347">
        <ele>162.277679</ele>
        <time>2022-08-28T08:41:02Z</time>
      </trkpt>
      <trkpt lat="50.29143" lon="4.21359">
        <ele>162.30072</ele>
        <time>2022-08-28T08:41:04Z</time>
      </trkpt>
      <trkpt lat="50.29147" lon="4.2137">
        <ele>162.290237</ele>
        <time>2022-08-28T08:41:06Z</time>
      </trkpt>
      <trkpt lat="50.2915" lon="4.21382">
        <ele>162.340546</ele>
        <time>2022-08-28T08:41:08Z</time>
      </trkpt>
      <trkpt lat="50.29154" lon="4.21393">
        <ele>162.441147</ele>
        <time>2022-08-28T08:41:10Z</time>
      </trkpt>
      <trkpt lat="50.29158" lon="4.21405">
        <ele>162.598465</ele>
        <time>2022-08-28T08:41:12Z</time>
      </trkpt>
      <trkpt lat="50.29162" lon="4.21416">
        <ele>162.703247</ele>
        <time>2022-08-28T08:41:14Z</time>
      </trkpt>
      <trkpt lat="50.29166" lon="4.21427">
        <ele>162.690674</ele>
        <time>2022-08-28T08:41:16Z</time>
      </trkpt>
      <trkpt lat="50.29171" lon="4.21438">
        <ele>162.756073</ele>
        <time>2022-08-28T08:41:18Z</time>
      </trkpt>
      <trkpt lat="50.29175" lon="4.21448">
        <ele>162.856979</ele>
        <time>2022-08-28T08:41:20Z</time>
      </trkpt>
      <trkpt lat="50.29179" lon="4.21459">
        <ele>163.000366</ele>
        <time>2022-08-28T08:41:22Z</time>
      </trkpt>
      <trkpt lat="50.29184" lon="4.21469">
        <ele>163.074158</ele>
        <time>2022-08-28T08:41:24Z</time>
      </trkpt>
      <trkpt lat="50.29188" lon="4.21479">
        <ele>163.252304</ele>
        <time>2022-08-28T08:41:26Z</time>
      </trkpt>
      <trkpt lat="50.29193" lon="4.21489">
        <ele>163.413666</ele>
        <time>2022-08-28T08:41:28Z</time>
      </trkpt>
      <trkpt lat="50.29197" lon="4.215">
        <ele>163.520538</ele>
        <time>2022-08-28T08:41:30Z</time>
      </trkpt>
      <trkpt lat="50.29202" lon="4.2151">
        <ele>163.694473</ele>
        <time>2022-08-28T08:41:32Z</time>
      </trkpt>
      <trkpt lat="50.29206" lon="4.21521">
        <ele>163.889404</ele>
        <time>2022-08-28T08:41:34Z</time>
      </trkpt>
      <trkpt lat="50.2921" lon="4.21531">
        <ele>163.797272</ele>
        <time>2022-08-28T08:41:36Z</time>
      </trkpt>
      <trkpt lat="50.29214" lon="4.21542">
        <ele>163.921066</ele>
        <time>2022-08-28T08:41:38Z</time>
      </trkpt>
      <trkpt lat="50.29218" lon="4.21553">
        <ele>164.034256</ele>
        <time>2022-08-28T08:41:40Z</time>
      </trkpt>
      <trkpt lat="50.29221" lon="4.21564">
        <ele>164.193558</ele>
        <time>2022-08-28T08:41:42Z</time>
      </trkpt>
      <trkpt lat="50.29225" lon="4.21575">
        <ele>164.22081</ele>
        <time>2022-08-28T08:41:44Z</time>
      </trkpt>
      <trkpt lat="50.29229" lon="4.21586">
        <ele>164.4039</ele>
        <time>2022-08-28T08:41:46Z</time>
      </trkpt>
      <trkpt lat="50.29233" lon="4.21597">
        <ele>164.47934</ele>
        <time>2022-08-28T08:41:48Z</time>
      </trkpt>
      <trkpt lat="50.29236" lon="4.21608">
        <ele>164.703598</ele>
        <time>2022-08-28T08:41:50Z</time>
      </trkpt>
      <trkpt lat="50.2924" lon="4.2162">
        <ele>164.776855</ele>
        <time>2022-08-28T08:41:52Z</time>
      </trkpt>
      <trkpt lat="50.29244" lon="4.21631">
        <ele>164.921509</ele>
        <time>2022-08-28T08:41:54Z</time>
      </trkpt>
      <trkpt lat="50.29247" lon="4.21643">
        <ele>165.011642</ele>
        <time>2022-08-28T08:41:56Z</time>
      </trkpt>
      <trkpt lat="50.29251" lon="4.21654">
        <ele>165.18869</ele>
        <time>2022-08-28T08:41:58Z</time>
      </trkpt>
      <trkpt lat="50.29255" lon="4.21664">
        <ele>165.368546</ele>
        <time>2022-08-28T08:42:00Z</time>
      </trkpt>
      <trkpt lat="50.29259" lon="4.21675">
        <ele>165.53801</ele>
        <time>2022-08-28T08:42:02Z</time>
      </trkpt>
      <trkpt lat="50.29263" lon="4.21686">
        <ele>165.680283</ele>
        <time>2022-08-28T08:42:04Z</time>
      </trkpt>
      <trkpt lat="50.29267" lon="4.21696">
        <ele>165.74736</ele>
        <time>2022-08-28T08:42:06Z</time>
      </trkpt>
      <trkpt lat="50.29271" lon="4.21707">
        <ele>165.929779</ele>
        <time>2022-08-28T08:42:08Z</time>
      </trkpt>
      <trkpt lat="50.29276" lon="4.21718">
        <ele>166.156204</ele>
        <time>2022-08-28T08:42:10Z</time>
      </trkpt>
      <trkpt lat="50.29279" lon="4.21729">
        <ele>166.340729</ele>
        <time>2022-08-28T08:42:12Z</time>
      </trkpt>
      <trkpt lat="50.29284" lon="4.2174">
        <ele>166.487488</ele>
        <time>2022-08-28T08:42:14Z</time>
      </trkpt>
      <trkpt lat="50.29288" lon="4.2175">
        <ele>166.581833</ele>
        <time>2022-08-28T08:42:16Z</time>
      </trkpt>
      <trkpt lat="50.29292" lon="4.2176">
        <ele>166.965256</ele>
        <time>2022-08-28T08:42:18Z</time>
      </trkpt>
      <trkpt lat="50.29296" lon="4.2177">
        <ele>167.123306</ele>
        <time>2022-08-28T08:42:20Z</time>
      </trkpt>
      <trkpt lat="50.293" lon="4.21781">
        <ele>167.282623</ele>
        <time>2022-08-28T08:42:22Z</time>
      </trkpt>
      <trkpt lat="50.29304" lon="4.21792">
        <ele>167.546814</ele>
        <time>2022-08-28T08:42:24Z</time>
      </trkpt>
      <trkpt lat="50.29308" lon="4.21802">
        <ele>167.642517</ele>
        <time>2022-08-28T08:42:26Z</time>
      </trkpt>
      <trkpt lat="50.29311" lon="4.21813">
        <ele>167.806305</ele>
        <time>2022-08-28T08:42:28Z</time>
      </trkpt>
      <trkpt lat="50.29315" lon="4.21823">
        <ele>168.145981</ele>
        <time>2022-08-28T08:42:30Z</time>
      </trkpt>
      <trkpt lat="50.29319" lon="4.21833">
        <ele>168.334702</ele>
        <time>2022-08-28T08:42:32Z</time>
      </trkpt>
      <trkpt lat="50.29324" lon="4.21843">
        <ele>168.389221</ele>
        <time>2022-08-28T08:42:34Z</time>
      </trkpt>
      <trkpt lat="50.29327" lon="4.21853">
        <ele>168.512924</ele>
        <time>2022-08-28T08:42:36Z</time>
      </trkpt>
      <trkpt lat="50.29331" lon="4.21862">
        <ele>168.732162</ele>
        <time>2022-08-28T08:42:38Z</time>
      </trkpt>
      <trkpt lat="50.29335" lon="4.21873">
        <ele>168.867172</ele>
        <time>2022-08-28T08:42:40Z</time>
      </trkpt>
      <trkpt lat="50.29339" lon="4.21883">
        <ele>168.982529</ele>
        <time>2022-08-28T08:42:42Z</time>
      </trkpt>
      <trkpt lat="50.29343" lon="4.21893">
        <ele>169.180756</ele>
        <time>2022-08-28T08:42:44Z</time>
      </trkpt>
      <trkpt lat="50.29347" lon="4.21903">
        <ele>169.505798</ele>
        <time>2022-08-28T08:42:46Z</time>
      </trkpt>
      <trkpt lat="50.29351" lon="4.21913">
        <ele>169.730194</ele>
        <time>2022-08-28T08:42:48Z</time>
      </trkpt>
      <trkpt lat="50.29355" lon="4.21924">
        <ele>169.927338</ele>
        <time>2022-08-28T08:42:50Z</time>
      </trkpt>
      <trkpt lat="50.29359" lon="4.21933">
        <ele>169.93573</ele>
        <time>2022-08-28T08:42:52Z</time>
      </trkpt>
      <trkpt lat="50.29363" lon="4.21944">
        <ele>169.998642</ele>
        <time>2022-08-28T08:42:54Z</time>
      </trkpt>
      <trkpt lat="50.29367" lon="4.21955">
        <ele>170.317444</ele>
        <time>2022-08-28T08:42:56Z</time>
      </trkpt>
      <trkpt lat="50.29371" lon="4.21965">
        <ele>170.558624</ele>
        <time>2022-08-28T08:42:58Z</time>
      </trkpt>
      <trkpt lat="50.29375" lon="4.21975">
        <ele>170.625732</ele>
        <time>2022-08-28T08:43:00Z</time>
      </trkpt>
      <trkpt lat="50.29379" lon="4.21985">
        <ele>170.933289</ele>
        <time>2022-08-28T08:43:02Z</time>
      </trkpt>
      <trkpt lat="50.29382" lon="4.21995">
        <ele>171.075912</ele>
        <time>2022-08-28T08:43:04Z</time>
      </trkpt>
      <trkpt lat="50.29386" lon="4.22005">
        <ele>171.382141</ele>
        <time>2022-08-28T08:43:06Z</time>
      </trkpt>
      <trkpt lat="50.2939" lon="4.22014">
        <ele>171.681793</ele>
        <time>2022-08-28T08:43:08Z</time>
      </trkpt>
      <trkpt lat="50.29394" lon="4.22024">
        <ele>171.893646</ele>
        <time>2022-08-28T08:43:10Z</time>
      </trkpt>
      <trkpt lat="50.29398" lon="4.22034">
        <ele>172.0327</ele>
        <time>2022-08-28T08:43:12Z</time>
      </trkpt>
      <trkpt lat="50.29402" lon="4.22044">
        <ele>172.321747</ele>
        <time>2022-08-28T08:43:14Z</time>
      </trkpt>
      <trkpt lat="50.29406" lon="4.22054">
        <ele>172.60495</ele>
        <time>2022-08-28T08:43:16Z</time>
      </trkpt>
      <trkpt lat="50.2941" lon="4.22064">
        <ele>172.672058</ele>
        <time>2022-08-28T08:43:18Z</time>
      </trkpt>
      <trkpt lat="50.29414" lon="4.22075">
        <ele>172.841156</ele>
        <time>2022-08-28T08:43:20Z</time>
      </trkpt>
      <trkpt lat="50.29418" lon="4.22085">
        <ele>173.151642</ele>
        <time>2022-08-28T08:43:22Z</time>
      </trkpt>
      <trkpt lat="50.29422" lon="4.22096">
        <ele>173.228043</ele>
        <time>2022-08-28T08:43:24Z</time>
      </trkpt>
      <trkpt lat="50.29426" lon="4.22106">
        <ele>173.839249</ele>
        <time>2022-08-28T08:43:26Z</time>
      </trkpt>
      <trkpt lat="50.2943" lon="4.22116">
        <ele>173.937851</ele>
        <time>2022-08-28T08:43:28Z</time>
      </trkpt>
      <trkpt lat="50.29433" lon="4.22125">
        <ele>174.126678</ele>
        <time>2022-08-28T08:43:30Z</time>
      </trkpt>
      <trkpt lat="50.29437" lon="4.22134">
        <ele>174.905701</ele>
        <time>2022-08-28T08:43:32Z</time>
      </trkpt>
      <trkpt lat="50.29441" lon="4.22142">
        <ele>175.203583</ele>
        <time>2022-08-28T08:43:34Z</time>
      </trkpt>
      <trkpt lat="50.29445" lon="4.2215">
        <ele>175.442566</ele>
        <time>2022-08-28T08:43:36Z</time>
      </trkpt>
      <trkpt lat="50.29448" lon="4.22159">
        <ele>175.54538</ele>
        <time>2022-08-28T08:43:38Z</time>
      </trkpt>
      <trkpt lat="50.29451" lon="4.22168">
        <ele>175.750992</ele>
        <time>2022-08-28T08:43:40Z</time>
      </trkpt>
      <trkpt lat="50.29455" lon="4.22177">
        <ele>176.069901</ele>
        <time>2022-08-28T08:43:42Z</time>
      </trkpt>
      <trkpt lat="50.29459" lon="4.22186">
        <ele>176.233566</ele>
        <time>2022-08-28T08:43:44Z</time>
      </trkpt>
      <trkpt lat="50.29464" lon="4.22196">
        <ele>176.348969</ele>
        <time>2022-08-28T08:43:46Z</time>
      </trkpt>
      <trkpt lat="50.29467" lon="4.22206">
        <ele>176.518951</ele>
        <time>2022-08-28T08:43:48Z</time>
      </trkpt>
      <trkpt lat="50.29471" lon="4.22215">
        <ele>176.686813</ele>
        <time>2022-08-28T08:43:50Z</time>
      </trkpt>
      <trkpt lat="50.29475" lon="4.22224">
        <ele>176.309616</ele>
        <time>2022-08-28T08:43:52Z</time>
      </trkpt>
      <trkpt lat="50.29479" lon="4.22234">
        <ele>176.492966</ele>
        <time>2022-08-28T08:43:54Z</time>
      </trkpt>
      <trkpt lat="50.29483" lon="4.22243">
        <ele>176.684357</ele>
        <time>2022-08-28T08:43:56Z</time>
      </trkpt>
      <trkpt lat="50.29487" lon="4.22253">
        <ele>176.952148</ele>
        <time>2022-08-28T08:43:58Z</time>
      </trkpt>
      <trkpt lat="50.29491" lon="4.22262">
        <ele>177.199753</ele>
        <time>2022-08-28T08:44:00Z</time>
      </trkpt>
      <trkpt lat="50.29495" lon="4.22272">
        <ele>177.392426</ele>
        <time>2022-08-28T08:44:02Z</time>
      </trkpt>
      <trkpt lat="50.29498" lon="4.2228">
        <ele>177.536377</ele>
        <time>2022-08-28T08:44:04Z</time>
      </trkpt>
      <trkpt lat="50.29501" lon="4.2229">
        <ele>177.727325</ele>
        <time>2022-08-28T08:44:06Z</time>
      </trkpt>
      <trkpt lat="50.29504" lon="4.22299">
        <ele>177.426468</ele>
        <time>2022-08-28T08:44:08Z</time>
      </trkpt>
      <trkpt lat="50.29507" lon="4.22309">
        <ele>177.69931</ele>
        <time>2022-08-28T08:44:10Z</time>
      </trkpt>
      <trkpt lat="50.29509" lon="4.22319">
        <ele>177.409225</ele>
        <time>2022-08-28T08:44:12Z</time>
      </trkpt>
      <trkpt lat="50.29513" lon="4.22327">
        <ele>177.709381</ele>
        <time>2022-08-28T08:44:14Z</time>
      </trkpt>
      <trkpt lat="50.29518" lon="4.22335">
        <ele>177.885864</ele>
        <time>2022-08-28T08:44:16Z</time>
      </trkpt>
      <trkpt lat="50.29524" lon="4.22342">
        <ele>178.23642</ele>
        <time>2022-08-28T08:44:18Z</time>
      </trkpt>
      <trkpt lat="50.2953" lon="4.22347">
        <ele>178.530304</ele>
        <time>2022-08-28T08:44:20Z</time>
      </trkpt>
      <trkpt lat="50.29536" lon="4.22354">
        <ele>178.647842</ele>
        <time>2022-08-28T08:44:22Z</time>
      </trkpt>
      <trkpt lat="50.29542" lon="4.22362">
        <ele>178.813644</ele>
        <time>2022-08-28T08:44:24Z</time>
      </trkpt>
      <trkpt lat="50.29548" lon="4.2237">
        <ele>178.872406</ele>
        <time>2022-08-28T08:44:26Z</time>
      </trkpt>
      <trkpt lat="50.29554" lon="4.22378">
        <ele>179.019333</ele>
        <time>2022-08-28T08:44:28Z</time>
      </trkpt>
      <trkpt lat="50.29559" lon="4.22386">
        <ele>179.059235</ele>
        <time>2022-08-28T08:44:30Z</time>
      </trkpt>
      <trkpt lat="50.29565" lon="4.22393">
        <ele>179.094894</ele>
        <time>2022-08-28T08:44:32Z</time>
      </trkpt>
      <trkpt lat="50.2957" lon="4.224">
        <ele>179.663055</ele>
        <time>2022-08-28T08:44:34Z</time>
      </trkpt>
      <trkpt lat="50.29575" lon="4.22408">
        <ele>179.613403</ele>
        <time>2022-08-28T08:44:36Z</time>
      </trkpt>
      <trkpt lat="50.29582" lon="4.22416">
        <ele>179.628098</ele>
        <time>2022-08-28T08:44:38Z</time>
      </trkpt>
      <trkpt lat="50.29588" lon="4.22425">
        <ele>179.649857</ele>
        <time>2022-08-28T08:44:40Z</time>
      </trkpt>
      <trkpt lat="50.29594" lon="4.22433">
        <ele>179.618378</ele>
        <time>2022-08-28T08:44:42Z</time>
      </trkpt>
      <trkpt lat="50.296" lon="4.22441">
        <ele>179.574707</ele>
        <time>2022-08-28T08:44:44Z</time>
      </trkpt>
      <trkpt lat="50.29606" lon="4.2245">
        <ele>179.48967</ele>
        <time>2022-08-28T08:44:46Z</time>
      </trkpt>
      <trkpt lat="50.29612" lon="4.22457">
        <ele>179.37236</ele>
        <time>2022-08-28T08:44:48Z</time>
      </trkpt>
      <trkpt lat="50.29617" lon="4.22465">
        <ele>179.156158</ele>
        <time>2022-08-28T08:44:50Z</time>
      </trkpt>
      <trkpt lat="50.29623" lon="4.22472">
        <ele>178.958832</ele>
        <time>2022-08-28T08:44:52Z</time>
      </trkpt>
      <trkpt lat="50.29628" lon="4.2248">
        <ele>179.211212</ele>
        <time>2022-08-28T08:44:54Z</time>
      </trkpt>
      <trkpt lat="50.29633" lon="4.22488">
        <ele>178.992889</ele>
        <time>2022-08-28T08:44:56Z</time>
      </trkpt>
      <trkpt lat="50.29639" lon="4.22495">
        <ele>178.6633</ele>
        <time>2022-08-28T08:44:58Z</time>
      </trkpt>
      <trkpt lat="50.29644" lon="4.22503">
        <ele>178.961792</ele>
        <time>2022-08-28T08:45:00Z</time>
      </trkpt>
      <trkpt lat="50.2965" lon="4.22511">
        <ele>178.705734</ele>
        <time>2022-08-28T08:45:02Z</time>
      </trkpt>
      <trkpt lat="50.29656" lon="4.22519">
        <ele>178.604996</ele>
        <time>2022-08-28T08:45:04Z</time>
      </trkpt>
      <trkpt lat="50.29662" lon="4.22528">
        <ele>178.466461</ele>
        <time>2022-08-28T08:45:06Z</time>
      </trkpt>
      <trkpt lat="50.29669" lon="4.22537">
        <ele>178.292267</ele>
        <time>2022-08-28T08:45:08Z</time>
      </trkpt>
      <trkpt lat="50.29676" lon="4.22546">
        <ele>178.64537</ele>
        <time>2022-08-28T08:45:10Z</time>
      </trkpt>
      <trkpt lat="50.29683" lon="4.22557">
        <ele>178.460678</ele>
        <time>2022-08-28T08:45:12Z</time>
      </trkpt>
      <trkpt lat="50.29691" lon="4.22567">
        <ele>178.244537</ele>
        <time>2022-08-28T08:45:14Z</time>
      </trkpt>
      <trkpt lat="50.29698" lon="4.22578">
        <ele>178.024231</ele>
        <time>2022-08-28T08:45:16Z</time>
      </trkpt>
      <trkpt lat="50.29705" lon="4.22589">
        <ele>177.759827</ele>
        <time>2022-08-28T08:45:18Z</time>
      </trkpt>
      <trkpt lat="50.29713" lon="4.22599">
        <ele>177.453476</ele>
        <time>2022-08-28T08:45:20Z</time>
      </trkpt>
      <trkpt lat="50.2972" lon="4.22609">
        <ele>177.224747</ele>
        <time>2022-08-28T08:45:22Z</time>
      </trkpt>
      <trkpt lat="50.29727" lon="4.22619">
        <ele>177.029602</ele>
        <time>2022-08-28T08:45:24Z</time>
      </trkpt>
      <trkpt lat="50.29734" lon="4.2263">
        <ele>177.027496</ele>
        <time>2022-08-28T08:45:26Z</time>
      </trkpt>
      <trkpt lat="50.29742" lon="4.2264">
        <ele>176.813461</ele>
        <time>2022-08-28T08:45:28Z</time>
      </trkpt>
      <trkpt lat="50.2975" lon="4.2265">
        <ele>176.563782</ele>
        <time>2022-08-28T08:45:30Z</time>
      </trkpt>
      <trkpt lat="50.29758" lon="4.22661">
        <ele>176.307831</ele>
        <time>2022-08-28T08:45:32Z</time>
      </trkpt>
      <trkpt lat="50.29766" lon="4.22672">
        <ele>176.152557</ele>
        <time>2022-08-28T08:45:34Z</time>
      </trkpt>
      <trkpt lat="50.29775" lon="4.22682">
        <ele>175.486786</ele>
        <time>2022-08-28T08:45:36Z</time>
      </trkpt>
      <trkpt lat="50.29782" lon="4.22692">
        <ele>175.386078</ele>
        <time>2022-08-28T08:45:38Z</time>
      </trkpt>
      <trkpt lat="50.29791" lon="4.22703">
        <ele>174.670242</ele>
        <time>2022-08-28T08:45:40Z</time>
      </trkpt>
      <trkpt lat="50.29799" lon="4.22713">
        <ele>174.463013</ele>
        <time>2022-08-28T08:45:42Z</time>
      </trkpt>
      <trkpt lat="50.29807" lon="4.22724">
        <ele>174.288849</ele>
        <time>2022-08-28T08:45:44Z</time>
      </trkpt>
      <trkpt lat="50.29815" lon="4.22735">
        <ele>173.995148</ele>
        <time>2022-08-28T08:45:46Z</time>
      </trkpt>
      <trkpt lat="50.29823" lon="4.22746">
        <ele>173.795822</ele>
        <time>2022-08-28T08:45:48Z</time>
      </trkpt>
      <trkpt lat="50.29831" lon="4.22758">
        <ele>173.039871</ele>
        <time>2022-08-28T08:45:50Z</time>
      </trkpt>
      <trkpt lat="50.29838" lon="4.22769">
        <ele>172.918182</ele>
        <time>2022-08-28T08:45:52Z</time>
      </trkpt>
      <trkpt lat="50.29846" lon="4.22778">
        <ele>172.712616</ele>
        <time>2022-08-28T08:45:54Z</time>
      </trkpt>
      <trkpt lat="50.29854" lon="4.22789">
        <ele>172.681152</ele>
        <time>2022-08-28T08:45:56Z</time>
      </trkpt>
      <trkpt lat="50.29862" lon="4.228">
        <ele>172.45047</ele>
        <time>2022-08-28T08:45:58Z</time>
      </trkpt>
      <trkpt lat="50.2987" lon="4.2281">
        <ele>172.251221</ele>
        <time>2022-08-28T08:46:00Z</time>
      </trkpt>
      <trkpt lat="50.29877" lon="4.22821">
        <ele>172.165207</ele>
        <time>2022-08-28T08:46:02Z</time>
      </trkpt>
      <trkpt lat="50.29884" lon="4.22831">
        <ele>172.041458</ele>
        <time>2022-08-28T08:46:04Z</time>
      </trkpt>
      <trkpt lat="50.29892" lon="4.22841">
        <ele>171.827515</ele>
        <time>2022-08-28T08:46:06Z</time>
      </trkpt>
      <trkpt lat="50.299" lon="4.22852">
        <ele>171.631683</ele>
        <time>2022-08-28T08:46:08Z</time>
      </trkpt>
      <trkpt lat="50.29908" lon="4.22863">
        <ele>171.497437</ele>
        <time>2022-08-28T08:46:10Z</time>
      </trkpt>
      <trkpt lat="50.29916" lon="4.22874">
        <ele>171.403046</ele>
        <time>2022-08-28T08:46:12Z</time>
      </trkpt>
      <trkpt lat="50.29924" lon="4.22885">
        <ele>171.275101</ele>
        <time>2022-08-28T08:46:14Z</time>
      </trkpt>
      <trkpt lat="50.29932" lon="4.22895">
        <ele>171.161865</ele>
        <time>2022-08-28T08:46:16Z</time>
      </trkpt>
      <trkpt lat="50.2994" lon="4.22902">
        <ele>170.780182</ele>
        <time>2022-08-28T08:46:18Z</time>
      </trkpt>
      <trkpt lat="50.29948" lon="4.22909">
        <ele>170.528183</ele>
        <time>2022-08-28T08:46:20Z</time>
      </trkpt>
      <trkpt lat="50.29956" lon="4.22917">
        <ele>170.479462</ele>
        <time>2022-08-28T08:46:22Z</time>
      </trkpt>
      <trkpt lat="50.29964" lon="4.22924">
        <ele>170.376709</ele>
        <time>2022-08-28T08:46:24Z</time>
      </trkpt>
      <trkpt lat="50.29972" lon="4.22931">
        <ele>170.25087</ele>
        <time>2022-08-28T08:46:26Z</time>
      </trkpt>
      <trkpt lat="50.2998" lon="4.22938">
        <ele>170.007584</ele>
        <time>2022-08-28T08:46:28Z</time>
      </trkpt>
      <trkpt lat="50.29989" lon="4.22945">
        <ele>169.925797</ele>
        <time>2022-08-28T08:46:30Z</time>
      </trkpt>
      <trkpt lat="50.29996" lon="4.22951">
        <ele>169.600739</ele>
        <time>2022-08-28T08:46:32Z</time>
      </trkpt>
      <trkpt lat="50.30004" lon="4.22958">
        <ele>169.474915</ele>
        <time>2022-08-28T08:46:34Z</time>
      </trkpt>
      <trkpt lat="50.30011" lon="4.22966">
        <ele>169.275696</ele>
        <time>2022-08-28T08:46:36Z</time>
      </trkpt>
      <trkpt lat="50.30014" lon="4.22978">
        <ele>169.063873</ele>
        <time>2022-08-28T08:46:38Z</time>
      </trkpt>
      <trkpt lat="50.30013" lon="4.22992">
        <ele>169.043152</ele>
        <time>2022-08-28T08:46:40Z</time>
      </trkpt>
      <trkpt lat="50.3001" lon="4.23006">
        <ele>168.883759</ele>
        <time>2022-08-28T08:46:42Z</time>
      </trkpt>
      <trkpt lat="50.30007" lon="4.2302">
        <ele>168.783096</ele>
        <time>2022-08-28T08:46:44Z</time>
      </trkpt>
      <trkpt lat="50.30004" lon="4.23034">
        <ele>168.650986</ele>
        <time>2022-08-28T08:46:46Z</time>
      </trkpt>
      <trkpt lat="50.30001" lon="4.23048">
        <ele>168.562927</ele>
        <time>2022-08-28T08:46:48Z</time>
      </trkpt>
      <trkpt lat="50.29998" lon="4.23062">
        <ele>168.456757</ele>
        <time>2022-08-28T08:46:50Z</time>
      </trkpt>
      <trkpt lat="50.29995" lon="4.23076">
        <ele>168.324646</ele>
        <time>2022-08-28T08:46:52Z</time>
      </trkpt>
      <trkpt lat="50.29992" lon="4.2309">
        <ele>168.196747</ele>
        <time>2022-08-28T08:46:54Z</time>
      </trkpt>
      <trkpt lat="50.29989" lon="4.23105">
        <ele>167.951385</ele>
        <time>2022-08-28T08:46:56Z</time>
      </trkpt>
      <trkpt lat="50.29985" lon="4.23119">
        <ele>168.037323</ele>
        <time>2022-08-28T08:46:58Z</time>
      </trkpt>
      <trkpt lat="50.29981" lon="4.23132">
        <ele>167.906143</ele>
        <time>2022-08-28T08:47:00Z</time>
      </trkpt>
      <trkpt lat="50.29977" lon="4.23145">
        <ele>167.734772</ele>
        <time>2022-08-28T08:47:02Z</time>
      </trkpt>
      <trkpt lat="50.29975" lon="4.23159">
        <ele>167.705414</ele>
        <time>2022-08-28T08:47:04Z</time>
      </trkpt>
      <trkpt lat="50.29979" lon="4.23171">
        <ele>167.38855</ele>
        <time>2022-08-28T08:47:06Z</time>
      </trkpt>
      <trkpt lat="50.29985" lon="4.23181">
        <ele>167.103912</ele>
        <time>2022-08-28T08:47:08Z</time>
      </trkpt>
      <trkpt lat="50.29991" lon="4.23191">
        <ele>166.814606</ele>
        <time>2022-08-28T08:47:10Z</time>
      </trkpt>
      <trkpt lat="50.29998" lon="4.232">
        <ele>166.802032</ele>
        <time>2022-08-28T08:47:12Z</time>
      </trkpt>
      <trkpt lat="50.30004" lon="4.23209">
        <ele>166.793625</ele>
        <time>2022-08-28T08:47:14Z</time>
      </trkpt>
      <trkpt lat="50.30011" lon="4.23219">
        <ele>166.542023</ele>
        <time>2022-08-28T08:47:16Z</time>
      </trkpt>
      <trkpt lat="50.30017" lon="4.23228">
        <ele>166.544113</ele>
        <time>2022-08-28T08:47:18Z</time>
      </trkpt>
      <trkpt lat="50.30023" lon="4.23238">
        <ele>166.432785</ele>
        <time>2022-08-28T08:47:20Z</time>
      </trkpt>
      <trkpt lat="50.30029" lon="4.23247">
        <ele>166.355194</ele>
        <time>2022-08-28T08:47:22Z</time>
      </trkpt>
      <trkpt lat="50.30035" lon="4.23256">
        <ele>166.3573</ele>
        <time>2022-08-28T08:47:24Z</time>
      </trkpt>
      <trkpt lat="50.3004" lon="4.23266">
        <ele>166.315353</ele>
        <time>2022-08-28T08:47:26Z</time>
      </trkpt>
      <trkpt lat="50.30046" lon="4.23276">
        <ele>166.304886</ele>
        <time>2022-08-28T08:47:28Z</time>
      </trkpt>
      <trkpt lat="50.30052" lon="4.23285">
        <ele>166.250366</ele>
        <time>2022-08-28T08:47:30Z</time>
      </trkpt>
      <trkpt lat="50.30059" lon="4.23295">
        <ele>166.124588</ele>
        <time>2022-08-28T08:47:32Z</time>
      </trkpt>
      <trkpt lat="50.30065" lon="4.23306">
        <ele>165.988327</ele>
        <time>2022-08-28T08:47:34Z</time>
      </trkpt>
      <trkpt lat="50.30072" lon="4.23316">
        <ele>165.940109</ele>
        <time>2022-08-28T08:47:36Z</time>
      </trkpt>
      <trkpt lat="50.30078" lon="4.23327">
        <ele>165.950607</ele>
        <time>2022-08-28T08:47:38Z</time>
      </trkpt>
      <trkpt lat="50.30084" lon="4.23337">
        <ele>165.87973</ele>
        <time>2022-08-28T08:47:40Z</time>
      </trkpt>
      <trkpt lat="50.30091" lon="4.23348">
        <ele>165.828827</ele>
        <time>2022-08-28T08:47:42Z</time>
      </trkpt>
      <trkpt lat="50.30097" lon="4.23359">
        <ele>165.809982</ele>
        <time>2022-08-28T08:47:44Z</time>
      </trkpt>
      <trkpt lat="50.30104" lon="4.2337">
        <ele>165.667694</ele>
        <time>2022-08-28T08:47:46Z</time>
      </trkpt>
      <trkpt lat="50.30111" lon="4.23381">
        <ele>165.709167</ele>
        <time>2022-08-28T08:47:48Z</time>
      </trkpt>
      <trkpt lat="50.30118" lon="4.23393">
        <ele>166.044525</ele>
        <time>2022-08-28T08:47:50Z</time>
      </trkpt>
      <trkpt lat="50.30125" lon="4.23404">
        <ele>166.111969</ele>
        <time>2022-08-28T08:47:52Z</time>
      </trkpt>
      <trkpt lat="50.30131" lon="4.23414">
        <ele>165.993332</ele>
        <time>2022-08-28T08:47:54Z</time>
      </trkpt>
      <trkpt lat="50.30137" lon="4.23426">
        <ele>165.963593</ele>
        <time>2022-08-28T08:47:56Z</time>
      </trkpt>
      <trkpt lat="50.30143" lon="4.23437">
        <ele>166.013107</ele>
        <time>2022-08-28T08:47:58Z</time>
      </trkpt>
      <trkpt lat="50.3015" lon="4.23448">
        <ele>166.013199</ele>
        <time>2022-08-28T08:48:00Z</time>
      </trkpt>
      <trkpt lat="50.30156" lon="4.23458">
        <ele>165.983856</ele>
        <time>2022-08-28T08:48:02Z</time>
      </trkpt>
      <trkpt lat="50.30162" lon="4.23468">
        <ele>165.952408</ele>
        <time>2022-08-28T08:48:04Z</time>
      </trkpt>
      <trkpt lat="50.30168" lon="4.23479">
        <ele>165.874847</ele>
        <time>2022-08-28T08:48:06Z</time>
      </trkpt>
      <trkpt lat="50.30175" lon="4.23491">
        <ele>165.849686</ele>
        <time>2022-08-28T08:48:08Z</time>
      </trkpt>
      <trkpt lat="50.30181" lon="4.23503">
        <ele>165.709229</ele>
        <time>2022-08-28T08:48:10Z</time>
      </trkpt>
      <trkpt lat="50.30187" lon="4.23514">
        <ele>165.715515</ele>
        <time>2022-08-28T08:48:12Z</time>
      </trkpt>
      <trkpt lat="50.30194" lon="4.23526">
        <ele>165.621185</ele>
        <time>2022-08-28T08:48:14Z</time>
      </trkpt>
      <trkpt lat="50.302" lon="4.23538">
        <ele>165.575058</ele>
        <time>2022-08-28T08:48:16Z</time>
      </trkpt>
      <trkpt lat="50.30206" lon="4.23549">
        <ele>165.29837</ele>
        <time>2022-08-28T08:48:18Z</time>
      </trkpt>
      <trkpt lat="50.30212" lon="4.23563">
        <ele>165.103424</ele>
        <time>2022-08-28T08:48:20Z</time>
      </trkpt>
      <trkpt lat="50.30217" lon="4.23578">
        <ele>164.879883</ele>
        <time>2022-08-28T08:48:22Z</time>
      </trkpt>
      <trkpt lat="50.3022" lon="4.23593">
        <ele>164.590652</ele>
        <time>2022-08-28T08:48:24Z</time>
      </trkpt>
      <trkpt lat="50.30224" lon="4.2361">
        <ele>164.387314</ele>
        <time>2022-08-28T08:48:26Z</time>
      </trkpt>
      <trkpt lat="50.30227" lon="4.23627">
        <ele>164.396255</ele>
        <time>2022-08-28T08:48:28Z</time>
      </trkpt>
      <trkpt lat="50.3023" lon="4.23644">
        <ele>164.151016</ele>
        <time>2022-08-28T08:48:30Z</time>
      </trkpt>
      <trkpt lat="50.30233" lon="4.23661">
        <ele>163.94104</ele>
        <time>2022-08-28T08:48:32Z</time>
      </trkpt>
      <trkpt lat="50.30236" lon="4.23676">
        <ele>163.868912</ele>
        <time>2022-08-28T08:48:34Z</time>
      </trkpt>
      <trkpt lat="50.3024" lon="4.23691">
        <ele>163.594788</ele>
        <time>2022-08-28T08:48:36Z</time>
      </trkpt>
      <trkpt lat="50.30246" lon="4.23703">
        <ele>163.34201</ele>
        <time>2022-08-28T08:48:38Z</time>
      </trkpt>
      <trkpt lat="50.30254" lon="4.23713">
        <ele>163.052673</ele>
        <time>2022-08-28T08:48:40Z</time>
      </trkpt>
      <trkpt lat="50.30261" lon="4.23724">
        <ele>162.952072</ele>
        <time>2022-08-28T08:48:42Z</time>
      </trkpt>
      <trkpt lat="50.30265" lon="4.23735">
        <ele>162.667023</ele>
        <time>2022-08-28T08:48:44Z</time>
      </trkpt>
      <trkpt lat="50.30272" lon="4.23748">
        <ele>162.543365</ele>
        <time>2022-08-28T08:48:46Z</time>
      </trkpt>
      <trkpt lat="50.30277" lon="4.23761">
        <ele>162.27095</ele>
        <time>2022-08-28T08:48:48Z</time>
      </trkpt>
      <trkpt lat="50.30281" lon="4.23775">
        <ele>162.176636</ele>
        <time>2022-08-28T08:48:50Z</time>
      </trkpt>
      <trkpt lat="50.30286" lon="4.23789">
        <ele>162.107468</ele>
        <time>2022-08-28T08:48:52Z</time>
      </trkpt>
      <trkpt lat="50.3029" lon="4.23802">
        <ele>162.008957</ele>
        <time>2022-08-28T08:48:54Z</time>
      </trkpt>
      <trkpt lat="50.30296" lon="4.23814">
        <ele>161.868561</ele>
        <time>2022-08-28T08:48:56Z</time>
      </trkpt>
      <trkpt lat="50.30302" lon="4.23825">
        <ele>161.799408</ele>
        <time>2022-08-28T08:48:58Z</time>
      </trkpt>
      <trkpt lat="50.30308" lon="4.23836">
        <ele>161.753281</ele>
        <time>2022-08-28T08:49:00Z</time>
      </trkpt>
      <trkpt lat="50.30314" lon="4.23847">
        <ele>161.702988</ele>
        <time>2022-08-28T08:49:02Z</time>
      </trkpt>
      <trkpt lat="50.3032" lon="4.23858">
        <ele>161.707184</ele>
        <time>2022-08-28T08:49:04Z</time>
      </trkpt>
      <trkpt lat="50.30325" lon="4.23868">
        <ele>161.799393</ele>
        <time>2022-08-28T08:49:06Z</time>
      </trkpt>
      <trkpt lat="50.30331" lon="4.23879">
        <ele>161.698227</ele>
        <time>2022-08-28T08:49:08Z</time>
      </trkpt>
      <trkpt lat="50.30336" lon="4.23889">
        <ele>161.750046</ele>
        <time>2022-08-28T08:49:10Z</time>
      </trkpt>
      <trkpt lat="50.30341" lon="4.23899">
        <ele>161.791962</ele>
        <time>2022-08-28T08:49:12Z</time>
      </trkpt>
      <trkpt lat="50.30347" lon="4.23909">
        <ele>161.636856</ele>
        <time>2022-08-28T08:49:14Z</time>
      </trkpt>
      <trkpt lat="50.30353" lon="4.23918">
        <ele>161.736008</ele>
        <time>2022-08-28T08:49:16Z</time>
      </trkpt>
      <trkpt lat="50.30359" lon="4.23927">
        <ele>162.067078</ele>
        <time>2022-08-28T08:49:18Z</time>
      </trkpt>
      <trkpt lat="50.30365" lon="4.23935">
        <ele>162.037735</ele>
        <time>2022-08-28T08:49:20Z</time>
      </trkpt>
      <trkpt lat="50.30372" lon="4.23943">
        <ele>162.071259</ele>
        <time>2022-08-28T08:49:22Z</time>
      </trkpt>
      <trkpt lat="50.30379" lon="4.23951">
        <ele>162.169769</ele>
        <time>2022-08-28T08:49:24Z</time>
      </trkpt>
      <trkpt lat="50.30386" lon="4.23958">
        <ele>162.213776</ele>
        <time>2022-08-28T08:49:26Z</time>
      </trkpt>
      <trkpt lat="50.30393" lon="4.23966">
        <ele>162.266159</ele>
        <time>2022-08-28T08:49:28Z</time>
      </trkpt>
      <trkpt lat="50.30401" lon="4.23973">
        <ele>162.496658</ele>
        <time>2022-08-28T08:49:30Z</time>
      </trkpt>
      <trkpt lat="50.30407" lon="4.23981">
        <ele>162.570007</ele>
        <time>2022-08-28T08:49:32Z</time>
      </trkpt>
      <trkpt lat="50.30413" lon="4.23989">
        <ele>162.534378</ele>
        <time>2022-08-28T08:49:34Z</time>
      </trkpt>
      <trkpt lat="50.3042" lon="4.23997">
        <ele>162.599335</ele>
        <time>2022-08-28T08:49:36Z</time>
      </trkpt>
      <trkpt lat="50.30426" lon="4.24004">
        <ele>162.704117</ele>
        <time>2022-08-28T08:49:38Z</time>
      </trkpt>
      <trkpt lat="50.30432" lon="4.24011">
        <ele>162.662216</ele>
        <time>2022-08-28T08:49:40Z</time>
      </trkpt>
      <trkpt lat="50.30439" lon="4.24019">
        <ele>162.565842</ele>
        <time>2022-08-28T08:49:42Z</time>
      </trkpt>
      <trkpt lat="50.30446" lon="4.24027">
        <ele>162.686386</ele>
        <time>2022-08-28T08:49:44Z</time>
      </trkpt>
      <trkpt lat="50.30452" lon="4.24034">
        <ele>162.73941</ele>
        <time>2022-08-28T08:49:46Z</time>
      </trkpt>
      <trkpt lat="50.3046" lon="4.24039">
        <ele>162.714264</ele>
        <time>2022-08-28T08:49:48Z</time>
      </trkpt>
      <trkpt lat="50.30467" lon="4.24046">
        <ele>162.842682</ele>
        <time>2022-08-28T08:49:50Z</time>
      </trkpt>
      <trkpt lat="50.30473" lon="4.24051">
        <ele>162.840591</ele>
        <time>2022-08-28T08:49:52Z</time>
      </trkpt>
      <trkpt lat="50.30481" lon="4.24056">
        <ele>162.828018</ele>
        <time>2022-08-28T08:49:54Z</time>
      </trkpt>
      <trkpt lat="50.30487" lon="4.2406">
        <ele>162.886047</ele>
        <time>2022-08-28T08:49:56Z</time>
      </trkpt>
      <trkpt lat="50.30494" lon="4.24065">
        <ele>162.933594</ele>
        <time>2022-08-28T08:49:58Z</time>
      </trkpt>
      <trkpt lat="50.30502" lon="4.24069">
        <ele>162.927292</ele>
        <time>2022-08-28T08:50:00Z</time>
      </trkpt>
      <trkpt lat="50.30508" lon="4.24074">
        <ele>163.023712</ele>
        <time>2022-08-28T08:50:02Z</time>
      </trkpt>
      <trkpt lat="50.30516" lon="4.24079">
        <ele>163.14946</ele>
        <time>2022-08-28T08:50:04Z</time>
      </trkpt>
      <trkpt lat="50.30523" lon="4.24084">
        <ele>163.258453</ele>
        <time>2022-08-28T08:50:06Z</time>
      </trkpt>
      <trkpt lat="50.3053" lon="4.24088">
        <ele>163.333923</ele>
        <time>2022-08-28T08:50:08Z</time>
      </trkpt>
      <trkpt lat="50.30537" lon="4.24092">
        <ele>163.478546</ele>
        <time>2022-08-28T08:50:10Z</time>
      </trkpt>
      <trkpt lat="50.30544" lon="4.24097">
        <ele>163.440826</ele>
        <time>2022-08-28T08:50:12Z</time>
      </trkpt>
      <trkpt lat="50.3055" lon="4.24101">
        <ele>163.62738</ele>
        <time>2022-08-28T08:50:14Z</time>
      </trkpt>
      <trkpt lat="50.30555" lon="4.24102">
        <ele>163.732178</ele>
        <time>2022-08-28T08:50:16Z</time>
      </trkpt>
      <trkpt lat="50.30561" lon="4.24099">
        <ele>163.834885</ele>
        <time>2022-08-28T08:50:18Z</time>
      </trkpt>
      <trkpt lat="50.30567" lon="4.24092">
        <ele>164.036102</ele>
        <time>2022-08-28T08:50:20Z</time>
      </trkpt>
      <trkpt lat="50.30572" lon="4.24084">
        <ele>164.388229</ele>
        <time>2022-08-28T08:50:22Z</time>
      </trkpt>
      <trkpt lat="50.30578" lon="4.24076">
        <ele>164.72879</ele>
        <time>2022-08-28T08:50:24Z</time>
      </trkpt>
      <trkpt lat="50.30584" lon="4.24069">
        <ele>165.01535</ele>
        <time>2022-08-28T08:50:26Z</time>
      </trkpt>
      <trkpt lat="50.3059" lon="4.24062">
        <ele>165.292084</ele>
        <time>2022-08-28T08:50:28Z</time>
      </trkpt>
      <trkpt lat="50.30597" lon="4.24055">
        <ele>165.703003</ele>
        <time>2022-08-28T08:50:30Z</time>
      </trkpt>
      <trkpt lat="50.30603" lon="4.24049">
        <ele>165.944061</ele>
        <time>2022-08-28T08:50:32Z</time>
      </trkpt>
      <trkpt lat="50.30609" lon="4.24042">
        <ele>166.101273</ele>
        <time>2022-08-28T08:50:34Z</time>
      </trkpt>
      <trkpt lat="50.30616" lon="4.24035">
        <ele>166.461884</ele>
        <time>2022-08-28T08:50:36Z</time>
      </trkpt>
      <trkpt lat="50.30623" lon="4.24028">
        <ele>166.73027</ele>
        <time>2022-08-28T08:50:38Z</time>
      </trkpt>
      <trkpt lat="50.30629" lon="4.2402">
        <ele>167.089478</ele>
        <time>2022-08-28T08:50:40Z</time>
      </trkpt>
      <trkpt lat="50.30636" lon="4.24012">
        <ele>167.452209</ele>
        <time>2022-08-28T08:50:42Z</time>
      </trkpt>
      <trkpt lat="50.30644" lon="4.24004">
        <ele>167.854797</ele>
        <time>2022-08-28T08:50:44Z</time>
      </trkpt>
      <trkpt lat="50.30652" lon="4.23996">
        <ele>168.223907</ele>
        <time>2022-08-28T08:50:46Z</time>
      </trkpt>
      <trkpt lat="50.30658" lon="4.23989">
        <ele>168.672653</ele>
        <time>2022-08-28T08:50:48Z</time>
      </trkpt>
      <trkpt lat="50.30666" lon="4.2398">
        <ele>168.934784</ele>
        <time>2022-08-28T08:50:50Z</time>
      </trkpt>
      <trkpt lat="50.30673" lon="4.23971">
        <ele>169.352112</ele>
        <time>2022-08-28T08:50:52Z</time>
      </trkpt>
      <trkpt lat="50.30681" lon="4.23963">
        <ele>169.641464</ele>
        <time>2022-08-28T08:50:54Z</time>
      </trkpt>
      <trkpt lat="50.30688" lon="4.23954">
        <ele>169.966522</ele>
        <time>2022-08-28T08:50:56Z</time>
      </trkpt>
      <trkpt lat="50.30695" lon="4.23946">
        <ele>170.463593</ele>
        <time>2022-08-28T08:50:58Z</time>
      </trkpt>
      <trkpt lat="50.30703" lon="4.23938">
        <ele>170.885162</ele>
        <time>2022-08-28T08:51:00Z</time>
      </trkpt>
      <trkpt lat="50.30711" lon="4.23931">
        <ele>171.26059</ele>
        <time>2022-08-28T08:51:02Z</time>
      </trkpt>
      <trkpt lat="50.30718" lon="4.23922">
        <ele>171.636017</ele>
        <time>2022-08-28T08:51:04Z</time>
      </trkpt>
      <trkpt lat="50.30726" lon="4.23913">
        <ele>171.975815</ele>
        <time>2022-08-28T08:51:06Z</time>
      </trkpt>
      <trkpt lat="50.30734" lon="4.23904">
        <ele>172.317734</ele>
        <time>2022-08-28T08:51:08Z</time>
      </trkpt>
      <trkpt lat="50.30742" lon="4.23896">
        <ele>172.653381</ele>
        <time>2022-08-28T08:51:10Z</time>
      </trkpt>
      <trkpt lat="50.30751" lon="4.2389">
        <ele>173.007919</ele>
        <time>2022-08-28T08:51:12Z</time>
      </trkpt>
      <trkpt lat="50.30759" lon="4.23884">
        <ele>173.509293</ele>
        <time>2022-08-28T08:51:14Z</time>
      </trkpt>
      <trkpt lat="50.30766" lon="4.23876">
        <ele>174.04837</ele>
        <time>2022-08-28T08:51:16Z</time>
      </trkpt>
      <trkpt lat="50.30773" lon="4.2387">
        <ele>174.400864</ele>
        <time>2022-08-28T08:51:18Z</time>
      </trkpt>
      <trkpt lat="50.3078" lon="4.23866">
        <ele>174.774323</ele>
        <time>2022-08-28T08:51:20Z</time>
      </trkpt>
      <trkpt lat="50.30787" lon="4.23861">
        <ele>175.099121</ele>
        <time>2022-08-28T08:51:22Z</time>
      </trkpt>
      <trkpt lat="50.30794" lon="4.23855">
        <ele>175.405396</ele>
        <time>2022-08-28T08:51:24Z</time>
      </trkpt>
      <trkpt lat="50.30801" lon="4.23847">
        <ele>175.720169</ele>
        <time>2022-08-28T08:51:26Z</time>
      </trkpt>
      <trkpt lat="50.30809" lon="4.23841">
        <ele>176.112625</ele>
        <time>2022-08-28T08:51:28Z</time>
      </trkpt>
      <trkpt lat="50.30816" lon="4.2383">
        <ele>176.508484</ele>
        <time>2022-08-28T08:51:30Z</time>
      </trkpt>
      <trkpt lat="50.30824" lon="4.23823">
        <ele>176.873627</ele>
        <time>2022-08-28T08:51:32Z</time>
      </trkpt>
      <trkpt lat="50.30832" lon="4.23817">
        <ele>177.270279</ele>
        <time>2022-08-28T08:51:34Z</time>
      </trkpt>
      <trkpt lat="50.30841" lon="4.23811">
        <ele>177.490601</ele>
        <time>2022-08-28T08:51:36Z</time>
      </trkpt>
      <trkpt lat="50.3085" lon="4.23805">
        <ele>177.832687</ele>
        <time>2022-08-28T08:51:38Z</time>
      </trkpt>
      <trkpt lat="50.30858" lon="4.23796">
        <ele>178.082428</ele>
        <time>2022-08-28T08:51:40Z</time>
      </trkpt>
      <trkpt lat="50.30866" lon="4.23788">
        <ele>178.332413</ele>
        <time>2022-08-28T08:51:42Z</time>
      </trkpt>
      <trkpt lat="50.30873" lon="4.23783">
        <ele>178.64975</ele>
        <time>2022-08-28T08:51:44Z</time>
      </trkpt>
      <trkpt lat="50.30878" lon="4.23776">
        <ele>178.898712</ele>
        <time>2022-08-28T08:51:46Z</time>
      </trkpt>
      <trkpt lat="50.30885" lon="4.23767">
        <ele>179.17453</ele>
        <time>2022-08-28T08:51:48Z</time>
      </trkpt>
      <trkpt lat="50.30894" lon="4.2376">
        <ele>179.43338</ele>
        <time>2022-08-28T08:51:50Z</time>
      </trkpt>
      <trkpt lat="50.30903" lon="4.23753">
        <ele>179.714645</ele>
        <time>2022-08-28T08:51:52Z</time>
      </trkpt>
      <trkpt lat="50.30913" lon="4.23744">
        <ele>179.901474</ele>
        <time>2022-08-28T08:51:54Z</time>
      </trkpt>
      <trkpt lat="50.30923" lon="4.23736">
        <ele>180.037918</ele>
        <time>2022-08-28T08:51:56Z</time>
      </trkpt>
      <trkpt lat="50.30935" lon="4.23728">
        <ele>180.107193</ele>
        <time>2022-08-28T08:51:58Z</time>
      </trkpt>
      <trkpt lat="50.30946" lon="4.2372">
        <ele>180.279297</ele>
        <time>2022-08-28T08:52:00Z</time>
      </trkpt>
      <trkpt lat="50.30959" lon="4.23715">
        <ele>180.348969</ele>
        <time>2022-08-28T08:52:02Z</time>
      </trkpt>
      <trkpt lat="50.30973" lon="4.2371">
        <ele>180.416214</ele>
        <time>2022-08-28T08:52:04Z</time>
      </trkpt>
      <trkpt lat="50.30987" lon="4.23706">
        <ele>180.537964</ele>
        <time>2022-08-28T08:52:06Z</time>
      </trkpt>
      <trkpt lat="50.31001" lon="4.23701">
        <ele>180.661819</ele>
        <time>2022-08-28T08:52:08Z</time>
      </trkpt>
      <trkpt lat="50.31015" lon="4.23698">
        <ele>180.542145</ele>
        <time>2022-08-28T08:52:10Z</time>
      </trkpt>
      <trkpt lat="50.31028" lon="4.2369">
        <ele>180.51564</ele>
        <time>2022-08-28T08:52:12Z</time>
      </trkpt>
      <trkpt lat="50.31042" lon="4.23684">
        <ele>180.463165</ele>
        <time>2022-08-28T08:52:14Z</time>
      </trkpt>
      <trkpt lat="50.31054" lon="4.23671">
        <ele>180.431671</ele>
        <time>2022-08-28T08:52:16Z</time>
      </trkpt>
      <trkpt lat="50.31065" lon="4.23653">
        <ele>180.351898</ele>
        <time>2022-08-28T08:52:18Z</time>
      </trkpt>
      <trkpt lat="50.31076" lon="4.23636">
        <ele>180.402298</ele>
        <time>2022-08-28T08:52:20Z</time>
      </trkpt>
      <trkpt lat="50.31085" lon="4.23615">
        <ele>180.368729</ele>
        <time>2022-08-28T08:52:22Z</time>
      </trkpt>
      <trkpt lat="50.31096" lon="4.23596">
        <ele>180.232056</ele>
        <time>2022-08-28T08:52:24Z</time>
      </trkpt>
      <trkpt lat="50.31107" lon="4.23577">
        <ele>180.153961</ele>
        <time>2022-08-28T08:52:26Z</time>
      </trkpt>
      <trkpt lat="50.3112" lon="4.23558">
        <ele>179.967972</ele>
        <time>2022-08-28T08:52:28Z</time>
      </trkpt>
      <trkpt lat="50.31133" lon="4.23539">
        <ele>179.836945</ele>
        <time>2022-08-28T08:52:30Z</time>
      </trkpt>
      <trkpt lat="50.31146" lon="4.2352">
        <ele>180.166168</ele>
        <time>2022-08-28T08:52:32Z</time>
      </trkpt>
      <trkpt lat="50.3116" lon="4.23501">
        <ele>179.866013</ele>
        <time>2022-08-28T08:52:34Z</time>
      </trkpt>
      <trkpt lat="50.31174" lon="4.23482">
        <ele>179.071136</ele>
        <time>2022-08-28T08:52:36Z</time>
      </trkpt>
      <trkpt lat="50.31187" lon="4.23464">
        <ele>178.844482</ele>
        <time>2022-08-28T08:52:38Z</time>
      </trkpt>
      <trkpt lat="50.31201" lon="4.23446">
        <ele>178.546478</ele>
        <time>2022-08-28T08:52:40Z</time>
      </trkpt>
      <trkpt lat="50.31214" lon="4.2343">
        <ele>178.193939</ele>
        <time>2022-08-28T08:52:42Z</time>
      </trkpt>
      <trkpt lat="50.31227" lon="4.23414">
        <ele>177.816193</ele>
        <time>2022-08-28T08:52:44Z</time>
      </trkpt>
      <trkpt lat="50.31239" lon="4.23398">
        <ele>177.436371</ele>
        <time>2022-08-28T08:52:46Z</time>
      </trkpt>
      <trkpt lat="50.3125" lon="4.23384">
        <ele>176.922272</ele>
        <time>2022-08-28T08:52:48Z</time>
      </trkpt>
      <trkpt lat="50.31261" lon="4.2337">
        <ele>176.372482</ele>
        <time>2022-08-28T08:52:50Z</time>
      </trkpt>
      <trkpt lat="50.31271" lon="4.23357">
        <ele>176.022095</ele>
        <time>2022-08-28T08:52:52Z</time>
      </trkpt>
      <trkpt lat="50.31282" lon="4.23345">
        <ele>175.515259</ele>
        <time>2022-08-28T08:52:54Z</time>
      </trkpt>
      <trkpt lat="50.31292" lon="4.23334">
        <ele>174.894211</ele>
        <time>2022-08-28T08:52:56Z</time>
      </trkpt>
      <trkpt lat="50.313" lon="4.23322">
        <ele>174.369705</ele>
        <time>2022-08-28T08:52:58Z</time>
      </trkpt>
      <trkpt lat="50.31309" lon="4.2331">
        <ele>173.658493</ele>
        <time>2022-08-28T08:53:00Z</time>
      </trkpt>
      <trkpt lat="50.31318" lon="4.23298">
        <ele>173.102539</ele>
        <time>2022-08-28T08:53:02Z</time>
      </trkpt>
      <trkpt lat="50.31324" lon="4.23284">
        <ele>172.515137</ele>
        <time>2022-08-28T08:53:04Z</time>
      </trkpt>
      <trkpt lat="50.31331" lon="4.23268">
        <ele>172.238205</ele>
        <time>2022-08-28T08:53:06Z</time>
      </trkpt>
      <trkpt lat="50.31335" lon="4.23252">
        <ele>171.659256</ele>
        <time>2022-08-28T08:53:08Z</time>
      </trkpt>
      <trkpt lat="50.3134" lon="4.23235">
        <ele>171.101318</ele>
        <time>2022-08-28T08:53:10Z</time>
      </trkpt>
      <trkpt lat="50.31342" lon="4.23217">
        <ele>170.095901</ele>
        <time>2022-08-28T08:53:12Z</time>
      </trkpt>
      <trkpt lat="50.31345" lon="4.232">
        <ele>169.561035</ele>
        <time>2022-08-28T08:53:14Z</time>
      </trkpt>
      <trkpt lat="50.31347" lon="4.23183">
        <ele>169.005249</ele>
        <time>2022-08-28T08:53:16Z</time>
      </trkpt>
      <trkpt lat="50.31348" lon="4.23166">
        <ele>168.9841</ele>
        <time>2022-08-28T08:53:18Z</time>
      </trkpt>
      <trkpt lat="50.3135" lon="4.23149">
        <ele>168.319275</ele>
        <time>2022-08-28T08:53:20Z</time>
      </trkpt>
      <trkpt lat="50.31353" lon="4.23131">
        <ele>167.851669</ele>
        <time>2022-08-28T08:53:22Z</time>
      </trkpt>
      <trkpt lat="50.31355" lon="4.23115">
        <ele>167.329559</ele>
        <time>2022-08-28T08:53:24Z</time>
      </trkpt>
      <trkpt lat="50.31356" lon="4.23097">
        <ele>166.914413</ele>
        <time>2022-08-28T08:53:26Z</time>
      </trkpt>
      <trkpt lat="50.31358" lon="4.23081">
        <ele>166.553787</ele>
        <time>2022-08-28T08:53:28Z</time>
      </trkpt>
      <trkpt lat="50.31359" lon="4.23065">
        <ele>166.148651</ele>
        <time>2022-08-28T08:53:30Z</time>
      </trkpt>
      <trkpt lat="50.31361" lon="4.23049">
        <ele>165.628723</ele>
        <time>2022-08-28T08:53:32Z</time>
      </trkpt>
      <trkpt lat="50.31362" lon="4.23034">
        <ele>165.089066</ele>
        <time>2022-08-28T08:53:34Z</time>
      </trkpt>
      <trkpt lat="50.31364" lon="4.23019">
        <ele>164.686646</ele>
        <time>2022-08-28T08:53:36Z</time>
      </trkpt>
      <trkpt lat="50.31366" lon="4.23003">
        <ele>164.273636</ele>
        <time>2022-08-28T08:53:38Z</time>
      </trkpt>
      <trkpt lat="50.31369" lon="4.22988">
        <ele>164.114319</ele>
        <time>2022-08-28T08:53:40Z</time>
      </trkpt>
      <trkpt lat="50.3137" lon="4.22971">
        <ele>163.822998</ele>
        <time>2022-08-28T08:53:42Z</time>
      </trkpt>
      <trkpt lat="50.31373" lon="4.22955">
        <ele>163.407654</ele>
        <time>2022-08-28T08:53:44Z</time>
      </trkpt>
      <trkpt lat="50.31374" lon="4.2294">
        <ele>163.10524</ele>
        <time>2022-08-28T08:53:46Z</time>
      </trkpt>
      <trkpt lat="50.31376" lon="4.22924">
        <ele>162.629486</ele>
        <time>2022-08-28T08:53:48Z</time>
      </trkpt>
      <trkpt lat="50.31378" lon="4.22907">
        <ele>162.292099</ele>
        <time>2022-08-28T08:53:50Z</time>
      </trkpt>
      <trkpt lat="50.31379" lon="4.22891">
        <ele>161.87709</ele>
        <time>2022-08-28T08:53:52Z</time>
      </trkpt>
      <trkpt lat="50.31381" lon="4.22875">
        <ele>161.525009</ele>
        <time>2022-08-28T08:53:54Z</time>
      </trkpt>
      <trkpt lat="50.31383" lon="4.22858">
        <ele>161.137299</ele>
        <time>2022-08-28T08:53:56Z</time>
      </trkpt>
      <trkpt lat="50.31385" lon="4.22841">
        <ele>160.818787</ele>
        <time>2022-08-28T08:53:58Z</time>
      </trkpt>
      <trkpt lat="50.31386" lon="4.22823">
        <ele>160.590393</ele>
        <time>2022-08-28T08:54:00Z</time>
      </trkpt>
      <trkpt lat="50.31387" lon="4.22805">
        <ele>160.431122</ele>
        <time>2022-08-28T08:54:02Z</time>
      </trkpt>
      <trkpt lat="50.31389" lon="4.22788">
        <ele>160.181763</ele>
        <time>2022-08-28T08:54:04Z</time>
      </trkpt>
      <trkpt lat="50.3139" lon="4.22772">
        <ele>159.947113</ele>
        <time>2022-08-28T08:54:06Z</time>
      </trkpt>
      <trkpt lat="50.31392" lon="4.22755">
        <ele>159.647446</ele>
        <time>2022-08-28T08:54:08Z</time>
      </trkpt>
      <trkpt lat="50.31393" lon="4.22739">
        <ele>159.419067</ele>
        <time>2022-08-28T08:54:10Z</time>
      </trkpt>
      <trkpt lat="50.31394" lon="4.22723">
        <ele>159.10321</ele>
        <time>2022-08-28T08:54:12Z</time>
      </trkpt>
      <trkpt lat="50.31395" lon="4.22707">
        <ele>158.929337</ele>
        <time>2022-08-28T08:54:14Z</time>
      </trkpt>
      <trkpt lat="50.31397" lon="4.22691">
        <ele>158.24704</ele>
        <time>2022-08-28T08:54:16Z</time>
      </trkpt>
      <trkpt lat="50.31398" lon="4.22675">
        <ele>158.121353</ele>
        <time>2022-08-28T08:54:18Z</time>
      </trkpt>
      <trkpt lat="50.31399" lon="4.22659">
        <ele>157.890961</ele>
        <time>2022-08-28T08:54:20Z</time>
      </trkpt>
      <trkpt lat="50.314" lon="4.22642">
        <ele>157.729645</ele>
        <time>2022-08-28T08:54:22Z</time>
      </trkpt>
      <trkpt lat="50.31401" lon="4.22626">
        <ele>157.495026</ele>
        <time>2022-08-28T08:54:24Z</time>
      </trkpt>
      <trkpt lat="50.31405" lon="4.2261">
        <ele>157.308929</ele>
        <time>2022-08-28T08:54:26Z</time>
      </trkpt>
      <trkpt lat="50.3141" lon="4.22596">
        <ele>157.15451</ele>
        <time>2022-08-28T08:54:28Z</time>
      </trkpt>
      <trkpt lat="50.31416" lon="4.22584">
        <ele>157.095856</ele>
        <time>2022-08-28T08:54:30Z</time>
      </trkpt>
      <trkpt lat="50.31421" lon="4.22574">
        <ele>156.898972</ele>
        <time>2022-08-28T08:54:32Z</time>
      </trkpt>
      <trkpt lat="50.31426" lon="4.22565">
        <ele>156.838226</ele>
        <time>2022-08-28T08:54:34Z</time>
      </trkpt>
      <trkpt lat="50.3143" lon="4.22558">
        <ele>156.743973</ele>
        <time>2022-08-28T08:54:36Z</time>
      </trkpt>
      <trkpt lat="50.31435" lon="4.22557">
        <ele>156.626663</ele>
        <time>2022-08-28T08:54:38Z</time>
      </trkpt>
      <trkpt lat="50.31438" lon="4.22564">
        <ele>156.494705</ele>
        <time>2022-08-28T08:54:40Z</time>
      </trkpt>
      <trkpt lat="50.31439" lon="4.22577">
        <ele>156.341797</ele>
        <time>2022-08-28T08:54:42Z</time>
      </trkpt>
      <trkpt lat="50.31441" lon="4.22592">
        <ele>156.121857</ele>
        <time>2022-08-28T08:54:44Z</time>
      </trkpt>
      <trkpt lat="50.31444" lon="4.22606">
        <ele>155.966843</ele>
        <time>2022-08-28T08:54:46Z</time>
      </trkpt>
      <trkpt lat="50.31447" lon="4.22621">
        <ele>155.876801</ele>
        <time>2022-08-28T08:54:48Z</time>
      </trkpt>
      <trkpt lat="50.31451" lon="4.22635">
        <ele>155.698776</ele>
        <time>2022-08-28T08:54:50Z</time>
      </trkpt>
      <trkpt lat="50.31455" lon="4.22649">
        <ele>155.550049</ele>
        <time>2022-08-28T08:54:52Z</time>
      </trkpt>
      <trkpt lat="50.31459" lon="4.22663">
        <ele>155.409744</ele>
        <time>2022-08-28T08:54:54Z</time>
      </trkpt>
      <trkpt lat="50.31463" lon="4.22677">
        <ele>155.267334</ele>
        <time>2022-08-28T08:54:56Z</time>
      </trkpt>
      <trkpt lat="50.31468" lon="4.22691">
        <ele>155.698776</ele>
        <time>2022-08-28T08:54:58Z</time>
      </trkpt>
      <trkpt lat="50.31472" lon="4.22706">
        <ele>155.504028</ele>
        <time>2022-08-28T08:55:00Z</time>
      </trkpt>
      <trkpt lat="50.31477" lon="4.22721">
        <ele>155.424438</ele>
        <time>2022-08-28T08:55:02Z</time>
      </trkpt>
      <trkpt lat="50.31482" lon="4.22736">
        <ele>155.284103</ele>
        <time>2022-08-28T08:55:04Z</time>
      </trkpt>
      <trkpt lat="50.31487" lon="4.22753">
        <ele>155.212921</ele>
        <time>2022-08-28T08:55:06Z</time>
      </trkpt>
      <trkpt lat="50.31493" lon="4.22771">
        <ele>154.572586</ele>
        <time>2022-08-28T08:55:08Z</time>
      </trkpt>
      <trkpt lat="50.31498" lon="4.22789">
        <ele>154.455322</ele>
        <time>2022-08-28T08:55:10Z</time>
      </trkpt>
      <trkpt lat="50.31503" lon="4.22805">
        <ele>154.342651</ele>
        <time>2022-08-28T08:55:12Z</time>
      </trkpt>
      <trkpt lat="50.31508" lon="4.22821">
        <ele>154.170929</ele>
        <time>2022-08-28T08:55:14Z</time>
      </trkpt>
      <trkpt lat="50.31513" lon="4.22837">
        <ele>153.990845</ele>
        <time>2022-08-28T08:55:16Z</time>
      </trkpt>
      <trkpt lat="50.31518" lon="4.22852">
        <ele>153.842117</ele>
        <time>2022-08-28T08:55:18Z</time>
      </trkpt>
      <trkpt lat="50.31522" lon="4.22867">
        <ele>153.724838</ele>
        <time>2022-08-28T08:55:20Z</time>
      </trkpt>
      <trkpt lat="50.31527" lon="4.22883">
        <ele>153.595001</ele>
        <time>2022-08-28T08:55:22Z</time>
      </trkpt>
      <trkpt lat="50.31532" lon="4.22898">
        <ele>153.517548</ele>
        <time>2022-08-28T08:55:24Z</time>
      </trkpt>
      <trkpt lat="50.31537" lon="4.22913">
        <ele>153.431671</ele>
        <time>2022-08-28T08:55:26Z</time>
      </trkpt>
      <trkpt lat="50.31541" lon="4.22928">
        <ele>152.870987</ele>
        <time>2022-08-28T08:55:28Z</time>
      </trkpt>
      <trkpt lat="50.31546" lon="4.22943">
        <ele>152.850525</ele>
        <time>2022-08-28T08:55:30Z</time>
      </trkpt>
      <trkpt lat="50.31551" lon="4.22958">
        <ele>152.840057</ele>
        <time>2022-08-28T08:55:32Z</time>
      </trkpt>
      <trkpt lat="50.31555" lon="4.22972">
        <ele>152.793976</ele>
        <time>2022-08-28T08:55:34Z</time>
      </trkpt>
      <trkpt lat="50.3156" lon="4.22987">
        <ele>152.81073</ele>
        <time>2022-08-28T08:55:36Z</time>
      </trkpt>
      <trkpt lat="50.31564" lon="4.23002">
        <ele>153.305481</ele>
        <time>2022-08-28T08:55:38Z</time>
      </trkpt>
      <trkpt lat="50.31569" lon="4.23018">
        <ele>153.269379</ele>
        <time>2022-08-28T08:55:40Z</time>
      </trkpt>
      <trkpt lat="50.31574" lon="4.23033">
        <ele>153.292389</ele>
        <time>2022-08-28T08:55:42Z</time>
      </trkpt>
      <trkpt lat="50.31578" lon="4.23048">
        <ele>153.27565</ele>
        <time>2022-08-28T08:55:44Z</time>
      </trkpt>
      <trkpt lat="50.31583" lon="4.23064">
        <ele>153.206558</ele>
        <time>2022-08-28T08:55:46Z</time>
      </trkpt>
      <trkpt lat="50.31587" lon="4.23079">
        <ele>153.15213</ele>
        <time>2022-08-28T08:55:48Z</time>
      </trkpt>
      <trkpt lat="50.31592" lon="4.23095">
        <ele>153.555817</ele>
        <time>2022-08-28T08:55:50Z</time>
      </trkpt>
      <trkpt lat="50.31596" lon="4.2311">
        <ele>153.469543</ele>
        <time>2022-08-28T08:55:52Z</time>
      </trkpt>
      <trkpt lat="50.316" lon="4.23126">
        <ele>153.429764</ele>
        <time>2022-08-28T08:55:54Z</time>
      </trkpt>
      <trkpt lat="50.31605" lon="4.23141">
        <ele>153.444427</ele>
        <time>2022-08-28T08:55:56Z</time>
      </trkpt>
      <trkpt lat="50.31609" lon="4.23157">
        <ele>153.42778</ele>
        <time>2022-08-28T08:55:58Z</time>
      </trkpt>
      <trkpt lat="50.31614" lon="4.23172">
        <ele>153.411057</ele>
        <time>2022-08-28T08:56:00Z</time>
      </trkpt>
      <trkpt lat="50.31619" lon="4.23188">
        <ele>153.300095</ele>
        <time>2022-08-28T08:56:02Z</time>
      </trkpt>
      <trkpt lat="50.31623" lon="4.23204">
        <ele>153.247742</ele>
        <time>2022-08-28T08:56:04Z</time>
      </trkpt>
      <trkpt lat="50.31628" lon="4.23221">
        <ele>153.274963</ele>
        <time>2022-08-28T08:56:06Z</time>
      </trkpt>
      <trkpt lat="50.31632" lon="4.23237">
        <ele>153.289627</ele>
        <time>2022-08-28T08:56:08Z</time>
      </trkpt>
      <trkpt lat="50.31637" lon="4.23254">
        <ele>153.745132</ele>
        <time>2022-08-28T08:56:10Z</time>
      </trkpt>
      <trkpt lat="50.31641" lon="4.2327">
        <ele>153.642548</ele>
        <time>2022-08-28T08:56:12Z</time>
      </trkpt>
      <trkpt lat="50.31646" lon="4.23287">
        <ele>153.625778</ele>
        <time>2022-08-28T08:56:14Z</time>
      </trkpt>
      <trkpt lat="50.31651" lon="4.23304">
        <ele>153.581818</ele>
        <time>2022-08-28T08:56:16Z</time>
      </trkpt>
      <trkpt lat="50.31656" lon="4.2332">
        <ele>153.583908</ele>
        <time>2022-08-28T08:56:18Z</time>
      </trkpt>
      <trkpt lat="50.31661" lon="4.23336">
        <ele>152.915375</ele>
        <time>2022-08-28T08:56:20Z</time>
      </trkpt>
      <trkpt lat="50.31665" lon="4.23353">
        <ele>152.860947</ele>
        <time>2022-08-28T08:56:22Z</time>
      </trkpt>
      <trkpt lat="50.3167" lon="4.2337">
        <ele>152.796036</ele>
        <time>2022-08-28T08:56:24Z</time>
      </trkpt>
      <trkpt lat="50.31675" lon="4.23386">
        <ele>152.79184</ele>
        <time>2022-08-28T08:56:26Z</time>
      </trkpt>
      <trkpt lat="50.31679" lon="4.23403">
        <ele>152.758331</ele>
        <time>2022-08-28T08:56:28Z</time>
      </trkpt>
      <trkpt lat="50.31685" lon="4.2342">
        <ele>152.766708</ele>
        <time>2022-08-28T08:56:30Z</time>
      </trkpt>
      <trkpt lat="50.31689" lon="4.23437">
        <ele>152.87558</ele>
        <time>2022-08-28T08:56:32Z</time>
      </trkpt>
      <trkpt lat="50.31694" lon="4.23454">
        <ele>153.387054</ele>
        <time>2022-08-28T08:56:34Z</time>
      </trkpt>
      <trkpt lat="50.31698" lon="4.23471">
        <ele>153.382858</ele>
        <time>2022-08-28T08:56:36Z</time>
      </trkpt>
      <trkpt lat="50.31702" lon="4.23488">
        <ele>153.397507</ele>
        <time>2022-08-28T08:56:38Z</time>
      </trkpt>
      <trkpt lat="50.31707" lon="4.23505">
        <ele>153.336685</ele>
        <time>2022-08-28T08:56:40Z</time>
      </trkpt>
      <trkpt lat="50.31711" lon="4.23522">
        <ele>153.282242</ele>
        <time>2022-08-28T08:56:42Z</time>
      </trkpt>
      <trkpt lat="50.31715" lon="4.2354">
        <ele>153.275955</ele>
        <time>2022-08-28T08:56:44Z</time>
      </trkpt>
      <trkpt lat="50.31719" lon="4.23558">
        <ele>153.177551</ele>
        <time>2022-08-28T08:56:46Z</time>
      </trkpt>
      <trkpt lat="50.31723" lon="4.23575">
        <ele>153.11264</ele>
        <time>2022-08-28T08:56:48Z</time>
      </trkpt>
      <trkpt lat="50.31727" lon="4.23593">
        <ele>153.005875</ele>
        <time>2022-08-28T08:56:50Z</time>
      </trkpt>
      <trkpt lat="50.3173" lon="4.23612">
        <ele>153.007965</ele>
        <time>2022-08-28T08:56:52Z</time>
      </trkpt>
      <trkpt lat="50.31734" lon="4.2363">
        <ele>152.955612</ele>
        <time>2022-08-28T08:56:54Z</time>
      </trkpt>
      <trkpt lat="50.31737" lon="4.23649">
        <ele>152.951416</ele>
        <time>2022-08-28T08:56:56Z</time>
      </trkpt>
      <trkpt lat="50.3174" lon="4.23667">
        <ele>152.940094</ele>
        <time>2022-08-28T08:56:58Z</time>
      </trkpt>
      <trkpt lat="50.31743" lon="4.23687">
        <ele>152.995529</ele>
        <time>2022-08-28T08:57:00Z</time>
      </trkpt>
      <trkpt lat="50.31746" lon="4.23707">
        <ele>153.685028</ele>
        <time>2022-08-28T08:57:02Z</time>
      </trkpt>
      <trkpt lat="50.31749" lon="4.23727">
        <ele>153.710159</ele>
        <time>2022-08-28T08:57:04Z</time>
      </trkpt>
      <trkpt lat="50.31751" lon="4.23746">
        <ele>153.692276</ele>
        <time>2022-08-28T08:57:06Z</time>
      </trkpt>
      <trkpt lat="50.31754" lon="4.23766">
        <ele>153.658768</ele>
        <time>2022-08-28T08:57:08Z</time>
      </trkpt>
      <trkpt lat="50.31756" lon="4.23786">
        <ele>153.79068</ele>
        <time>2022-08-28T08:57:10Z</time>
      </trkpt>
      <trkpt lat="50.31758" lon="4.23804">
        <ele>153.929596</ele>
        <time>2022-08-28T08:57:12Z</time>
      </trkpt>
      <trkpt lat="50.3176" lon="4.23823">
        <ele>153.56842</ele>
        <time>2022-08-28T08:57:14Z</time>
      </trkpt>
      <trkpt lat="50.31762" lon="4.23842">
        <ele>153.761078</ele>
        <time>2022-08-28T08:57:16Z</time>
      </trkpt>
      <trkpt lat="50.31764" lon="4.23861">
        <ele>153.955841</ele>
        <time>2022-08-28T08:57:18Z</time>
      </trkpt>
      <trkpt lat="50.31766" lon="4.2388">
        <ele>154.223907</ele>
        <time>2022-08-28T08:57:20Z</time>
      </trkpt>
      <trkpt lat="50.31767" lon="4.23897">
        <ele>154.485672</ele>
        <time>2022-08-28T08:57:22Z</time>
      </trkpt>
      <trkpt lat="50.31768" lon="4.23914">
        <ele>154.759995</ele>
        <time>2022-08-28T08:57:24Z</time>
      </trkpt>
      <trkpt lat="50.31769" lon="4.2393">
        <ele>155.042191</ele>
        <time>2022-08-28T08:57:26Z</time>
      </trkpt>
      <trkpt lat="50.3177" lon="4.23946">
        <ele>155.349533</ele>
        <time>2022-08-28T08:57:28Z</time>
      </trkpt>
      <trkpt lat="50.3177" lon="4.23959">
        <ele>155.696991</ele>
        <time>2022-08-28T08:57:30Z</time>
      </trkpt>
      <trkpt lat="50.3177" lon="4.23974">
        <ele>156.01741</ele>
        <time>2022-08-28T08:57:32Z</time>
      </trkpt>
      <trkpt lat="50.3177" lon="4.2399">
        <ele>156.31691</ele>
        <time>2022-08-28T08:57:34Z</time>
      </trkpt>
      <trkpt lat="50.31773" lon="4.24011">
        <ele>156.765106</ele>
        <time>2022-08-28T08:57:36Z</time>
      </trkpt>
      <trkpt lat="50.31773" lon="4.24028">
        <ele>157.12326</ele>
        <time>2022-08-28T08:57:38Z</time>
      </trkpt>
      <trkpt lat="50.31775" lon="4.24046">
        <ele>157.513702</ele>
        <time>2022-08-28T08:57:40Z</time>
      </trkpt>
      <trkpt lat="50.31775" lon="4.24063">
        <ele>157.30069</ele>
        <time>2022-08-28T08:57:42Z</time>
      </trkpt>
      <trkpt lat="50.31776" lon="4.2408">
        <ele>157.598145</ele>
        <time>2022-08-28T08:57:44Z</time>
      </trkpt>
      <trkpt lat="50.31776" lon="4.24098">
        <ele>158.020279</ele>
        <time>2022-08-28T08:57:46Z</time>
      </trkpt>
      <trkpt lat="50.31777" lon="4.24115">
        <ele>158.376373</ele>
        <time>2022-08-28T08:57:48Z</time>
      </trkpt>
      <trkpt lat="50.31778" lon="4.24131">
        <ele>158.533478</ele>
        <time>2022-08-28T08:57:50Z</time>
      </trkpt>
      <trkpt lat="50.31778" lon="4.24148">
        <ele>158.869293</ele>
        <time>2022-08-28T08:57:52Z</time>
      </trkpt>
      <trkpt lat="50.31778" lon="4.24165">
        <ele>159.11998</ele>
        <time>2022-08-28T08:57:54Z</time>
      </trkpt>
      <trkpt lat="50.31776" lon="4.24181">
        <ele>159.348816</ele>
        <time>2022-08-28T08:57:56Z</time>
      </trkpt>
      <trkpt lat="50.31776" lon="4.24198">
        <ele>159.600204</ele>
        <time>2022-08-28T08:57:58Z</time>
      </trkpt>
      <trkpt lat="50.31777" lon="4.24215">
        <ele>159.751068</ele>
        <time>2022-08-28T08:58:00Z</time>
      </trkpt>
      <trkpt lat="50.31779" lon="4.24232">
        <ele>159.950104</ele>
        <time>2022-08-28T08:58:02Z</time>
      </trkpt>
      <trkpt lat="50.31781" lon="4.24248">
        <ele>160.207779</ele>
        <time>2022-08-28T08:58:04Z</time>
      </trkpt>
      <trkpt lat="50.31783" lon="4.24265">
        <ele>160.361252</ele>
        <time>2022-08-28T08:58:06Z</time>
      </trkpt>
      <trkpt lat="50.31784" lon="4.24282">
        <ele>160.514771</ele>
        <time>2022-08-28T08:58:08Z</time>
      </trkpt>
      <trkpt lat="50.31786" lon="4.24298">
        <ele>160.592468</ele>
        <time>2022-08-28T08:58:10Z</time>
      </trkpt>
      <trkpt lat="50.31789" lon="4.24315">
        <ele>160.63855</ele>
        <time>2022-08-28T08:58:12Z</time>
      </trkpt>
      <trkpt lat="50.31791" lon="4.24332">
        <ele>160.691879</ele>
        <time>2022-08-28T08:58:14Z</time>
      </trkpt>
      <trkpt lat="50.31792" lon="4.24349">
        <ele>160.675125</ele>
        <time>2022-08-28T08:58:16Z</time>
      </trkpt>
      <trkpt lat="50.31794" lon="4.24366">
        <ele>160.599396</ele>
        <time>2022-08-28T08:58:18Z</time>
      </trkpt>
      <trkpt lat="50.31796" lon="4.24383">
        <ele>160.473694</ele>
        <time>2022-08-28T08:58:20Z</time>
      </trkpt>
      <trkpt lat="50.31797" lon="4.24399">
        <ele>160.333328</ele>
        <time>2022-08-28T08:58:22Z</time>
      </trkpt>
      <trkpt lat="50.31799" lon="4.24416">
        <ele>160.22229</ele>
        <time>2022-08-28T08:58:24Z</time>
      </trkpt>
      <trkpt lat="50.31799" lon="4.24433">
        <ele>160.07283</ele>
        <time>2022-08-28T08:58:26Z</time>
      </trkpt>
      <trkpt lat="50.31798" lon="4.2445">
        <ele>160.007874</ele>
        <time>2022-08-28T08:58:28Z</time>
      </trkpt>
      <trkpt lat="50.31796" lon="4.24467">
        <ele>159.871689</ele>
        <time>2022-08-28T08:58:30Z</time>
      </trkpt>
      <trkpt lat="50.31793" lon="4.24484">
        <ele>159.7397</ele>
        <time>2022-08-28T08:58:32Z</time>
      </trkpt>
      <trkpt lat="50.31791" lon="4.24501">
        <ele>159.573517</ele>
        <time>2022-08-28T08:58:34Z</time>
      </trkpt>
      <trkpt lat="50.31788" lon="4.24518">
        <ele>159.38916</ele>
        <time>2022-08-28T08:58:36Z</time>
      </trkpt>
      <trkpt lat="50.31785" lon="4.24535">
        <ele>159.223663</ele>
        <time>2022-08-28T08:58:38Z</time>
      </trkpt>
      <trkpt lat="50.31783" lon="4.24552">
        <ele>159.085358</ele>
        <time>2022-08-28T08:58:40Z</time>
      </trkpt>
      <trkpt lat="50.3178" lon="4.24568">
        <ele>158.951141</ele>
        <time>2022-08-28T08:58:42Z</time>
      </trkpt>
      <trkpt lat="50.31777" lon="4.24585">
        <ele>158.794785</ele>
        <time>2022-08-28T08:58:44Z</time>
      </trkpt>
      <trkpt lat="50.31775" lon="4.24601">
        <ele>158.635544</ele>
        <time>2022-08-28T08:58:46Z</time>
      </trkpt>
      <trkpt lat="50.31772" lon="4.24618">
        <ele>158.530716</ele>
        <time>2022-08-28T08:58:48Z</time>
      </trkpt>
      <trkpt lat="50.31769" lon="4.24634">
        <ele>158.457382</ele>
        <time>2022-08-28T08:58:50Z</time>
      </trkpt>
      <trkpt lat="50.31767" lon="4.2465">
        <ele>158.402908</ele>
        <time>2022-08-28T08:58:52Z</time>
      </trkpt>
      <trkpt lat="50.31764" lon="4.24667">
        <ele>158.404053</ele>
        <time>2022-08-28T08:58:54Z</time>
      </trkpt>
      <trkpt lat="50.31761" lon="4.24683">
        <ele>158.406143</ele>
        <time>2022-08-28T08:58:56Z</time>
      </trkpt>
      <trkpt lat="50.31759" lon="4.247">
        <ele>158.421112</ele>
        <time>2022-08-28T08:58:58Z</time>
      </trkpt>
      <trkpt lat="50.31757" lon="4.24716">
        <ele>158.481857</ele>
        <time>2022-08-28T08:59:00Z</time>
      </trkpt>
      <trkpt lat="50.31754" lon="4.24732">
        <ele>158.59079</ele>
        <time>2022-08-28T08:59:02Z</time>
      </trkpt>
      <trkpt lat="50.31751" lon="4.24748">
        <ele>158.652145</ele>
        <time>2022-08-28T08:59:04Z</time>
      </trkpt>
      <trkpt lat="50.31749" lon="4.24765">
        <ele>158.706619</ele>
        <time>2022-08-28T08:59:06Z</time>
      </trkpt>
      <trkpt lat="50.31748" lon="4.24782">
        <ele>158.777206</ele>
        <time>2022-08-28T08:59:08Z</time>
      </trkpt>
      <trkpt lat="50.31747" lon="4.24799">
        <ele>158.83168</ele>
        <time>2022-08-28T08:59:10Z</time>
      </trkpt>
      <trkpt lat="50.31746" lon="4.24816">
        <ele>158.917572</ele>
        <time>2022-08-28T08:59:12Z</time>
      </trkpt>
      <trkpt lat="50.31746" lon="4.24832">
        <ele>159.022324</ele>
        <time>2022-08-28T08:59:14Z</time>
      </trkpt>
      <trkpt lat="50.31745" lon="4.24849">
        <ele>159.133362</ele>
        <time>2022-08-28T08:59:16Z</time>
      </trkpt>
      <trkpt lat="50.31744" lon="4.24865">
        <ele>159.196198</ele>
        <time>2022-08-28T08:59:18Z</time>
      </trkpt>
      <trkpt lat="50.31744" lon="4.24882">
        <ele>159.217163</ele>
        <time>2022-08-28T08:59:20Z</time>
      </trkpt>
      <trkpt lat="50.31743" lon="4.24898">
        <ele>159.259064</ele>
        <time>2022-08-28T08:59:22Z</time>
      </trkpt>
      <trkpt lat="50.31743" lon="4.24915">
        <ele>159.307404</ele>
        <time>2022-08-28T08:59:24Z</time>
      </trkpt>
      <trkpt lat="50.31742" lon="4.24932">
        <ele>159.377838</ele>
        <time>2022-08-28T08:59:26Z</time>
      </trkpt>
      <trkpt lat="50.31741" lon="4.24949">
        <ele>159.434418</ele>
        <time>2022-08-28T08:59:28Z</time>
      </trkpt>
      <trkpt lat="50.31741" lon="4.24966">
        <ele>159.493088</ele>
        <time>2022-08-28T08:59:30Z</time>
      </trkpt>
      <trkpt lat="50.3174" lon="4.24983">
        <ele>159.572723</ele>
        <time>2022-08-28T08:59:32Z</time>
      </trkpt>
      <trkpt lat="50.3174" lon="4.25">
        <ele>159.650238</ele>
        <time>2022-08-28T08:59:34Z</time>
      </trkpt>
      <trkpt lat="50.31739" lon="4.25016">
        <ele>159.704712</ele>
        <time>2022-08-28T08:59:36Z</time>
      </trkpt>
      <trkpt lat="50.31739" lon="4.25032">
        <ele>159.780136</ele>
        <time>2022-08-28T08:59:38Z</time>
      </trkpt>
      <trkpt lat="50.31739" lon="4.25048">
        <ele>159.861847</ele>
        <time>2022-08-28T08:59:40Z</time>
      </trkpt>
      <trkpt lat="50.31738" lon="4.25064">
        <ele>159.966614</ele>
        <time>2022-08-28T08:59:42Z</time>
      </trkpt>
      <trkpt lat="50.31738" lon="4.2508">
        <ele>160.054016</ele>
        <time>2022-08-28T08:59:44Z</time>
      </trkpt>
      <trkpt lat="50.31738" lon="4.25097">
        <ele>160.173447</ele>
        <time>2022-08-28T08:59:46Z</time>
      </trkpt>
      <trkpt lat="50.31737" lon="4.25113">
        <ele>160.300507</ele>
        <time>2022-08-28T08:59:48Z</time>
      </trkpt>
      <trkpt lat="50.31737" lon="4.2513">
        <ele>160.417847</ele>
        <time>2022-08-28T08:59:50Z</time>
      </trkpt>
      <trkpt lat="50.31736" lon="4.25147">
        <ele>160.537262</ele>
        <time>2022-08-28T08:59:52Z</time>
      </trkpt>
      <trkpt lat="50.31736" lon="4.25164">
        <ele>160.601151</ele>
        <time>2022-08-28T08:59:54Z</time>
      </trkpt>
      <trkpt lat="50.31736" lon="4.25181">
        <ele>160.67868</ele>
        <time>2022-08-28T08:59:56Z</time>
      </trkpt>
      <trkpt lat="50.31735" lon="4.25198">
        <ele>160.764572</ele>
        <time>2022-08-28T08:59:58Z</time>
      </trkpt>
      <trkpt lat="50.31735" lon="4.25215">
        <ele>160.884003</ele>
        <time>2022-08-28T09:00:00Z</time>
      </trkpt>
      <trkpt lat="50.31734" lon="4.25232">
        <ele>161.01181</ele>
        <time>2022-08-28T09:00:02Z</time>
      </trkpt>
      <trkpt lat="50.31734" lon="4.25249">
        <ele>161.05162</ele>
        <time>2022-08-28T09:00:04Z</time>
      </trkpt>
      <trkpt lat="50.31733" lon="4.25266">
        <ele>161.118668</ele>
        <time>2022-08-28T09:00:06Z</time>
      </trkpt>
      <trkpt lat="50.31733" lon="4.25283">
        <ele>161.204559</ele>
        <time>2022-08-28T09:00:08Z</time>
      </trkpt>
      <trkpt lat="50.31732" lon="4.253">
        <ele>161.30722</ele>
        <time>2022-08-28T09:00:10Z</time>
      </trkpt>
      <trkpt lat="50.31731" lon="4.25317">
        <ele>161.424561</ele>
        <time>2022-08-28T09:00:12Z</time>
      </trkpt>
      <trkpt lat="50.31731" lon="4.25334">
        <ele>161.48114</ele>
        <time>2022-08-28T09:00:14Z</time>
      </trkpt>
      <trkpt lat="50.3173" lon="4.2535">
        <ele>161.575439</ele>
        <time>2022-08-28T09:00:16Z</time>
      </trkpt>
      <trkpt lat="50.3173" lon="4.25367">
        <ele>161.642487</ele>
        <time>2022-08-28T09:00:18Z</time>
      </trkpt>
      <trkpt lat="50.31729" lon="4.25384">
        <ele>161.715836</ele>
        <time>2022-08-28T09:00:20Z</time>
      </trkpt>
      <trkpt lat="50.31728" lon="4.25401">
        <ele>161.766129</ele>
        <time>2022-08-28T09:00:22Z</time>
      </trkpt>
      <trkpt lat="50.31728" lon="4.25417">
        <ele>161.889771</ele>
        <time>2022-08-28T09:00:24Z</time>
      </trkpt>
      <trkpt lat="50.31728" lon="4.25433">
        <ele>161.954742</ele>
        <time>2022-08-28T09:00:26Z</time>
      </trkpt>
      <trkpt lat="50.31727" lon="4.25449">
        <ele>161.983871</ele>
        <time>2022-08-28T09:00:28Z</time>
      </trkpt>
      <trkpt lat="50.31727" lon="4.25465">
        <ele>162.046295</ele>
        <time>2022-08-28T09:00:30Z</time>
      </trkpt>
      <trkpt lat="50.31726" lon="4.2548">
        <ele>162.073547</ele>
        <time>2022-08-28T09:00:32Z</time>
      </trkpt>
      <trkpt lat="50.31726" lon="4.25494">
        <ele>162.137512</ele>
        <time>2022-08-28T09:00:34Z</time>
      </trkpt>
      <trkpt lat="50.31726" lon="4.25505">
        <ele>162.208771</ele>
        <time>2022-08-28T09:00:36Z</time>
      </trkpt>
      <trkpt lat="50.31725" lon="4.25516">
        <ele>162.28212</ele>
        <time>2022-08-28T09:00:38Z</time>
      </trkpt>
      <trkpt lat="50.31722" lon="4.25525">
        <ele>162.347076</ele>
        <time>2022-08-28T09:00:40Z</time>
      </trkpt>
      <trkpt lat="50.31722" lon="4.25534">
        <ele>162.393173</ele>
        <time>2022-08-28T09:00:42Z</time>
      </trkpt>
      <trkpt lat="50.31724" lon="4.25542">
        <ele>162.506348</ele>
        <time>2022-08-28T09:00:44Z</time>
      </trkpt>
      <trkpt lat="50.31731" lon="4.25548">
        <ele>162.636292</ele>
        <time>2022-08-28T09:00:46Z</time>
      </trkpt>
      <trkpt lat="50.31739" lon="4.25553">
        <ele>162.682404</ele>
        <time>2022-08-28T09:00:48Z</time>
      </trkpt>
      <trkpt lat="50.31744" lon="4.25563">
        <ele>162.816116</ele>
        <time>2022-08-28T09:00:50Z</time>
      </trkpt>
      <trkpt lat="50.31744" lon="4.25574">
        <ele>162.891571</ele>
        <time>2022-08-28T09:00:52Z</time>
      </trkpt>
      <trkpt lat="50.31743" lon="4.25587">
        <ele>162.979584</ele>
        <time>2022-08-28T09:00:54Z</time>
      </trkpt>
      <trkpt lat="50.31741" lon="4.256">
        <ele>163.021515</ele>
        <time>2022-08-28T09:00:56Z</time>
      </trkpt>
      <trkpt lat="50.3174" lon="4.25612">
        <ele>163.069702</ele>
        <time>2022-08-28T09:00:58Z</time>
      </trkpt>
      <trkpt lat="50.31739" lon="4.25625">
        <ele>163.078094</ele>
        <time>2022-08-28T09:01:00Z</time>
      </trkpt>
      <trkpt lat="50.31738" lon="4.25638">
        <ele>163.15564</ele>
        <time>2022-08-28T09:01:02Z</time>
      </trkpt>
      <trkpt lat="50.31738" lon="4.25653">
        <ele>163.193359</ele>
        <time>2022-08-28T09:01:04Z</time>
      </trkpt>
      <trkpt lat="50.31736" lon="4.25666">
        <ele>163.176605</ele>
        <time>2022-08-28T09:01:06Z</time>
      </trkpt>
      <trkpt lat="50.31735" lon="4.2568">
        <ele>163.233398</ele>
        <time>2022-08-28T09:01:08Z</time>
      </trkpt>
      <trkpt lat="50.31735" lon="4.25694">
        <ele>163.227554</ele>
        <time>2022-08-28T09:01:10Z</time>
      </trkpt>
      <trkpt lat="50.31733" lon="4.25707">
        <ele>163.271561</ele>
        <time>2022-08-28T09:01:12Z</time>
      </trkpt>
      <trkpt lat="50.31732" lon="4.2572">
        <ele>163.386856</ele>
        <time>2022-08-28T09:01:14Z</time>
      </trkpt>
      <trkpt lat="50.31732" lon="4.25732">
        <ele>163.414093</ele>
        <time>2022-08-28T09:01:16Z</time>
      </trkpt>
      <trkpt lat="50.31731" lon="4.25742">
        <ele>163.497925</ele>
        <time>2022-08-28T09:01:18Z</time>
      </trkpt>
      <trkpt lat="50.31733" lon="4.25748">
        <ele>163.558701</ele>
        <time>2022-08-28T09:01:20Z</time>
      </trkpt>
      <trkpt lat="50.31739" lon="4.2575">
        <ele>163.684479</ele>
        <time>2022-08-28T09:01:22Z</time>
      </trkpt>
      <trkpt lat="50.31745" lon="4.2575">
        <ele>163.720108</ele>
        <time>2022-08-28T09:01:24Z</time>
      </trkpt>
      <trkpt lat="50.31753" lon="4.25752">
        <ele>163.705429</ele>
        <time>2022-08-28T09:01:26Z</time>
      </trkpt>
      <trkpt lat="50.3176" lon="4.25752">
        <ele>163.795563</ele>
        <time>2022-08-28T09:01:28Z</time>
      </trkpt>
      <trkpt lat="50.31769" lon="4.25754">
        <ele>163.810349</ele>
        <time>2022-08-28T09:01:30Z</time>
      </trkpt>
      <trkpt lat="50.31777" lon="4.25755">
        <ele>163.791901</ele>
        <time>2022-08-28T09:01:32Z</time>
      </trkpt>
      <trkpt lat="50.31784" lon="4.25757">
        <ele>163.898804</ele>
        <time>2022-08-28T09:01:34Z</time>
      </trkpt>
      <trkpt lat="50.31793" lon="4.25758">
        <ele>163.982635</ele>
        <time>2022-08-28T09:01:36Z</time>
      </trkpt>
      <trkpt lat="50.31802" lon="4.25759">
        <ele>164.135956</ele>
        <time>2022-08-28T09:01:38Z</time>
      </trkpt>
      <trkpt lat="50.31811" lon="4.2576">
        <ele>164.328064</ele>
        <time>2022-08-28T09:01:40Z</time>
      </trkpt>
      <trkpt lat="50.31819" lon="4.25762">
        <ele>164.512115</ele>
        <time>2022-08-28T09:01:42Z</time>
      </trkpt>
      <trkpt lat="50.31828" lon="4.25763">
        <ele>164.662445</ele>
        <time>2022-08-28T09:01:44Z</time>
      </trkpt>
      <trkpt lat="50.31836" lon="4.25765">
        <ele>164.81868</ele>
        <time>2022-08-28T09:01:46Z</time>
      </trkpt>
      <trkpt lat="50.31845" lon="4.25767">
        <ele>164.948639</ele>
        <time>2022-08-28T09:01:48Z</time>
      </trkpt>
      <trkpt lat="50.31854" lon="4.25769">
        <ele>165.097458</ele>
        <time>2022-08-28T09:01:50Z</time>
      </trkpt>
      <trkpt lat="50.31862" lon="4.25771">
        <ele>165.336411</ele>
        <time>2022-08-28T09:01:52Z</time>
      </trkpt>
      <trkpt lat="50.3187" lon="4.25772">
        <ele>165.497833</ele>
        <time>2022-08-28T09:01:54Z</time>
      </trkpt>
      <trkpt lat="50.31879" lon="4.25774">
        <ele>165.680206</ele>
        <time>2022-08-28T09:01:56Z</time>
      </trkpt>
      <trkpt lat="50.31888" lon="4.25775">
        <ele>165.889862</ele>
        <time>2022-08-28T09:01:58Z</time>
      </trkpt>
      <trkpt lat="50.31897" lon="4.25776">
        <ele>166.141449</ele>
        <time>2022-08-28T09:02:00Z</time>
      </trkpt>
      <trkpt lat="50.31906" lon="4.25778">
        <ele>166.384659</ele>
        <time>2022-08-28T09:02:02Z</time>
      </trkpt>
      <trkpt lat="50.31915" lon="4.25781">
        <ele>166.422394</ele>
        <time>2022-08-28T09:02:04Z</time>
      </trkpt>
      <trkpt lat="50.31925" lon="4.25783">
        <ele>166.671875</ele>
        <time>2022-08-28T09:02:06Z</time>
      </trkpt>
      <trkpt lat="50.31934" lon="4.25785">
        <ele>166.814423</ele>
        <time>2022-08-28T09:02:08Z</time>
      </trkpt>
      <trkpt lat="50.31943" lon="4.25787">
        <ele>166.887802</ele>
        <time>2022-08-28T09:02:10Z</time>
      </trkpt>
      <trkpt lat="50.31951" lon="4.2579">
        <ele>167.063797</ele>
        <time>2022-08-28T09:02:12Z</time>
      </trkpt>
      <trkpt lat="50.31959" lon="4.25793">
        <ele>167.317474</ele>
        <time>2022-08-28T09:02:14Z</time>
      </trkpt>
      <trkpt lat="50.31968" lon="4.25798">
        <ele>167.510391</ele>
        <time>2022-08-28T09:02:16Z</time>
      </trkpt>
      <trkpt lat="50.31975" lon="4.25805">
        <ele>167.61702</ele>
        <time>2022-08-28T09:02:18Z</time>
      </trkpt>
      <trkpt lat="50.31983" lon="4.25813">
        <ele>167.747742</ele>
        <time>2022-08-28T09:02:20Z</time>
      </trkpt>
      <trkpt lat="50.31991" lon="4.25822">
        <ele>167.888641</ele>
        <time>2022-08-28T09:02:22Z</time>
      </trkpt>
      <trkpt lat="50.31999" lon="4.2583">
        <ele>167.924896</ele>
        <time>2022-08-28T09:02:24Z</time>
      </trkpt>
      <trkpt lat="50.32008" lon="4.25838">
        <ele>167.932159</ele>
        <time>2022-08-28T09:02:26Z</time>
      </trkpt>
      <trkpt lat="50.32016" lon="4.25846">
        <ele>168.078949</ele>
        <time>2022-08-28T09:02:28Z</time>
      </trkpt>
      <trkpt lat="50.32024" lon="4.25855">
        <ele>168.116684</ele>
        <time>2022-08-28T09:02:30Z</time>
      </trkpt>
      <trkpt lat="50.32031" lon="4.25867">
        <ele>168.202652</ele>
        <time>2022-08-28T09:02:32Z</time>
      </trkpt>
      <trkpt lat="50.32038" lon="4.25878">
        <ele>168.217316</ele>
        <time>2022-08-28T09:02:34Z</time>
      </trkpt>
      <trkpt lat="50.32045" lon="4.25888">
        <ele>168.250885</ele>
        <time>2022-08-28T09:02:36Z</time>
      </trkpt>
      <trkpt lat="50.32052" lon="4.25899">
        <ele>168.135559</ele>
        <time>2022-08-28T09:02:38Z</time>
      </trkpt>
      <trkpt lat="50.32058" lon="4.2591">
        <ele>168.133469</ele>
        <time>2022-08-28T09:02:40Z</time>
      </trkpt>
      <trkpt lat="50.32066" lon="4.25921">
        <ele>168.02652</ele>
        <time>2022-08-28T09:02:42Z</time>
      </trkpt>
      <trkpt lat="50.32072" lon="4.25928">
        <ele>168.076843</ele>
        <time>2022-08-28T09:02:44Z</time>
      </trkpt>
      <trkpt lat="50.32079" lon="4.25934">
        <ele>168.19426</ele>
        <time>2022-08-28T09:02:46Z</time>
      </trkpt>
      <trkpt lat="50.32084" lon="4.25945">
        <ele>168.248779</ele>
        <time>2022-08-28T09:02:48Z</time>
      </trkpt>
      <trkpt lat="50.3209" lon="4.25955">
        <ele>168.267654</ele>
        <time>2022-08-28T09:02:50Z</time>
      </trkpt>
      <trkpt lat="50.32095" lon="4.25961">
        <ele>168.317383</ele>
        <time>2022-08-28T09:02:52Z</time>
      </trkpt>
      <trkpt lat="50.32104" lon="4.25958">
        <ele>168.359329</ele>
        <time>2022-08-28T09:02:54Z</time>
      </trkpt>
      <trkpt lat="50.32111" lon="4.25952">
        <ele>168.43692</ele>
        <time>2022-08-28T09:02:56Z</time>
      </trkpt>
      <trkpt lat="50.32118" lon="4.25948">
        <ele>168.480957</ele>
        <time>2022-08-28T09:02:58Z</time>
      </trkpt>
      <trkpt lat="50.32125" lon="4.25943">
        <ele>168.487259</ele>
        <time>2022-08-28T09:03:00Z</time>
      </trkpt>
      <trkpt lat="50.32131" lon="4.25935">
        <ele>168.543869</ele>
        <time>2022-08-28T09:03:02Z</time>
      </trkpt>
      <trkpt lat="50.32137" lon="4.25928">
        <ele>168.604691</ele>
        <time>2022-08-28T09:03:04Z</time>
      </trkpt>
      <trkpt lat="50.32143" lon="4.25918">
        <ele>168.747284</ele>
        <time>2022-08-28T09:03:06Z</time>
      </trkpt>
      <trkpt lat="50.32149" lon="4.2591">
        <ele>168.908768</ele>
        <time>2022-08-28T09:03:08Z</time>
      </trkpt>
      <trkpt lat="50.32155" lon="4.25903">
        <ele>169.030396</ele>
        <time>2022-08-28T09:03:10Z</time>
      </trkpt>
      <trkpt lat="50.32161" lon="4.25896">
        <ele>169.196045</ele>
        <time>2022-08-28T09:03:12Z</time>
      </trkpt>
      <trkpt lat="50.32167" lon="4.2589">
        <ele>169.353348</ele>
        <time>2022-08-28T09:03:14Z</time>
      </trkpt>
      <trkpt lat="50.32173" lon="4.25883">
        <ele>169.514801</ele>
        <time>2022-08-28T09:03:16Z</time>
      </trkpt>
      <trkpt lat="50.32179" lon="4.25875">
        <ele>169.734985</ele>
        <time>2022-08-28T09:03:18Z</time>
      </trkpt>
      <trkpt lat="50.32185" lon="4.25867">
        <ele>169.888062</ele>
        <time>2022-08-28T09:03:20Z</time>
      </trkpt>
      <trkpt lat="50.32192" lon="4.25861">
        <ele>170.022263</ele>
        <time>2022-08-28T09:03:22Z</time>
      </trkpt>
      <trkpt lat="50.32199" lon="4.25857">
        <ele>170.220001</ele>
        <time>2022-08-28T09:03:24Z</time>
      </trkpt>
      <trkpt lat="50.32205" lon="4.2585">
        <ele>170.354202</ele>
        <time>2022-08-28T09:03:26Z</time>
      </trkpt>
      <trkpt lat="50.32212" lon="4.25843">
        <ele>170.440216</ele>
        <time>2022-08-28T09:03:28Z</time>
      </trkpt>
      <trkpt lat="50.3222" lon="4.25837">
        <ele>170.616394</ele>
        <time>2022-08-28T09:03:30Z</time>
      </trkpt>
      <trkpt lat="50.32229" lon="4.25838">
        <ele>170.675705</ele>
        <time>2022-08-28T09:03:32Z</time>
      </trkpt>
      <trkpt lat="50.32238" lon="4.25843">
        <ele>170.73024</ele>
        <time>2022-08-28T09:03:34Z</time>
      </trkpt>
      <trkpt lat="50.32248" lon="4.25847">
        <ele>170.711349</ele>
        <time>2022-08-28T09:03:36Z</time>
      </trkpt>
      <trkpt lat="50.32257" lon="4.25848">
        <ele>170.845566</ele>
        <time>2022-08-28T09:03:38Z</time>
      </trkpt>
      <trkpt lat="50.32266" lon="4.25849">
        <ele>170.899521</ele>
        <time>2022-08-28T09:03:40Z</time>
      </trkpt>
      <trkpt lat="50.32274" lon="4.25844">
        <ele>171.037949</ele>
        <time>2022-08-28T09:03:42Z</time>
      </trkpt>
      <trkpt lat="50.32281" lon="4.25831">
        <ele>171.159592</ele>
        <time>2022-08-28T09:03:44Z</time>
      </trkpt>
      <trkpt lat="50.32287" lon="4.25817">
        <ele>171.214127</ele>
        <time>2022-08-28T09:03:46Z</time>
      </trkpt>
      <trkpt lat="50.32293" lon="4.25804">
        <ele>171.258179</ele>
        <time>2022-08-28T09:03:48Z</time>
      </trkpt>
      <trkpt lat="50.323" lon="4.25791">
        <ele>171.358856</ele>
        <time>2022-08-28T09:03:50Z</time>
      </trkpt>
      <trkpt lat="50.32306" lon="4.25776">
        <ele>171.32576</ele>
        <time>2022-08-28T09:03:52Z</time>
      </trkpt>
      <trkpt lat="50.32314" lon="4.25763">
        <ele>171.338348</ele>
        <time>2022-08-28T09:03:54Z</time>
      </trkpt>
      <trkpt lat="50.3232" lon="4.25749">
        <ele>171.308975</ele>
        <time>2022-08-28T09:03:56Z</time>
      </trkpt>
      <trkpt lat="50.32327" lon="4.25734">
        <ele>171.321564</ele>
        <time>2022-08-28T09:03:58Z</time>
      </trkpt>
      <trkpt lat="50.32332" lon="4.2572">
        <ele>171.28801</ele>
        <time>2022-08-28T09:04:00Z</time>
      </trkpt>
      <trkpt lat="50.32336" lon="4.25705">
        <ele>171.275436</ele>
        <time>2022-08-28T09:04:02Z</time>
      </trkpt>
      <trkpt lat="50.3234" lon="4.25691">
        <ele>171.178375</ele>
        <time>2022-08-28T09:04:04Z</time>
      </trkpt>
      <trkpt lat="50.32345" lon="4.25676">
        <ele>171.107071</ele>
        <time>2022-08-28T09:04:06Z</time>
      </trkpt>
      <trkpt lat="50.32349" lon="4.25662">
        <ele>170.998016</ele>
        <time>2022-08-28T09:04:08Z</time>
      </trkpt>
      <trkpt lat="50.32353" lon="4.25648">
        <ele>170.909912</ele>
        <time>2022-08-28T09:04:10Z</time>
      </trkpt>
      <trkpt lat="50.32358" lon="4.25634">
        <ele>170.80545</ele>
        <time>2022-08-28T09:04:12Z</time>
      </trkpt>
      <trkpt lat="50.32365" lon="4.25623">
        <ele>170.891449</ele>
        <time>2022-08-28T09:04:14Z</time>
      </trkpt>
      <trkpt lat="50.32373" lon="4.25611">
        <ele>170.904022</ele>
        <time>2022-08-28T09:04:16Z</time>
      </trkpt>
      <trkpt lat="50.3238" lon="4.256">
        <ele>170.759308</ele>
        <time>2022-08-28T09:04:18Z</time>
      </trkpt>
      <trkpt lat="50.32387" lon="4.25588">
        <ele>170.728424</ele>
        <time>2022-08-28T09:04:20Z</time>
      </trkpt>
      <trkpt lat="50.32394" lon="4.25578">
        <ele>170.661316</ele>
        <time>2022-08-28T09:04:22Z</time>
      </trkpt>
      <trkpt lat="50.32402" lon="4.25568">
        <ele>170.598404</ele>
        <time>2022-08-28T09:04:24Z</time>
      </trkpt>
      <trkpt lat="50.3241" lon="4.25558">
        <ele>170.562729</ele>
        <time>2022-08-28T09:04:26Z</time>
      </trkpt>
      <trkpt lat="50.32417" lon="4.25547">
        <ele>170.520782</ele>
        <time>2022-08-28T09:04:28Z</time>
      </trkpt>
      <trkpt lat="50.32424" lon="4.25537">
        <ele>170.440247</ele>
        <time>2022-08-28T09:04:30Z</time>
      </trkpt>
      <trkpt lat="50.32431" lon="4.25527">
        <ele>170.394104</ele>
        <time>2022-08-28T09:04:32Z</time>
      </trkpt>
      <trkpt lat="50.32438" lon="4.25517">
        <ele>170.330429</ele>
        <time>2022-08-28T09:04:34Z</time>
      </trkpt>
      <trkpt lat="50.32444" lon="4.25506">
        <ele>170.225571</ele>
        <time>2022-08-28T09:04:36Z</time>
      </trkpt>
      <trkpt lat="50.32452" lon="4.25496">
        <ele>170.137482</ele>
        <time>2022-08-28T09:04:38Z</time>
      </trkpt>
      <trkpt lat="50.32457" lon="4.25485">
        <ele>170.00116</ele>
        <time>2022-08-28T09:04:40Z</time>
      </trkpt>
      <trkpt lat="50.32464" lon="4.25473">
        <ele>169.89003</ele>
        <time>2022-08-28T09:04:42Z</time>
      </trkpt>
      <trkpt lat="50.32469" lon="4.2546">
        <ele>169.923569</ele>
        <time>2022-08-28T09:04:44Z</time>
      </trkpt>
      <trkpt lat="50.32475" lon="4.25448">
        <ele>170.041031</ele>
        <time>2022-08-28T09:04:46Z</time>
      </trkpt>
      <trkpt lat="50.3248" lon="4.25437">
        <ele>170.061996</ele>
        <time>2022-08-28T09:04:48Z</time>
      </trkpt>
      <trkpt lat="50.32484" lon="4.25428">
        <ele>170.061996</ele>
        <time>2022-08-28T09:04:50Z</time>
      </trkpt>
      <trkpt lat="50.32488" lon="4.25423">
        <ele>170.055298</ele>
        <time>2022-08-28T09:04:52Z</time>
      </trkpt>
      <trkpt lat="50.32493" lon="4.2542">
        <ele>169.994476</ele>
        <time>2022-08-28T09:04:54Z</time>
      </trkpt>
      <trkpt lat="50.32497" lon="4.25418">
        <ele>169.921066</ele>
        <time>2022-08-28T09:04:56Z</time>
      </trkpt>
      <trkpt lat="50.32498" lon="4.25415">
        <ele>169.910583</ele>
        <time>2022-08-28T09:04:58Z</time>
      </trkpt>
      <trkpt lat="50.32499" lon="4.25415">
        <ele>169.761688</ele>
        <time>2022-08-28T09:05:02Z</time>
      </trkpt>
      <trkpt lat="50.32501" lon="4.25411">
        <ele>169.658936</ele>
        <time>2022-08-28T09:05:04Z</time>
      </trkpt>
      <trkpt lat="50.32501" lon="4.25408">
        <ele>169.432327</ele>
        <time>2022-08-28T09:05:06Z</time>
      </trkpt>
      <trkpt lat="50.32502" lon="4.25405">
        <ele>169.226837</ele>
        <time>2022-08-28T09:05:08Z</time>
      </trkpt>
      <trkpt lat="50.32504" lon="4.25404">
        <ele>168.981506</ele>
        <time>2022-08-28T09:05:10Z</time>
      </trkpt>
      <trkpt lat="50.32504" lon="4.25401">
        <ele>168.73703</ele>
        <time>2022-08-28T09:05:12Z</time>
      </trkpt>
      <trkpt lat="50.32502" lon="4.254">
        <ele>168.428833</ele>
        <time>2022-08-28T09:05:14Z</time>
      </trkpt>
      <trkpt lat="50.325" lon="4.25398">
        <ele>168.108353</ele>
        <time>2022-08-28T09:05:16Z</time>
      </trkpt>
      <trkpt lat="50.32499" lon="4.25398">
        <ele>167.835831</ele>
        <time>2022-08-28T09:05:18Z</time>
      </trkpt>
      <trkpt lat="50.325" lon="4.25403">
        <ele>159.800858</ele>
        <time>2022-08-28T09:10:37Z</time>
      </trkpt>
      <trkpt lat="50.32499" lon="4.25408">
        <ele>159.406952</ele>
        <time>2022-08-28T09:10:39Z</time>
      </trkpt>
      <trkpt lat="50.325" lon="4.25416">
        <ele>159.053757</ele>
        <time>2022-08-28T09:10:41Z</time>
      </trkpt>
      <trkpt lat="50.32505" lon="4.2542">
        <ele>158.708069</ele>
        <time>2022-08-28T09:10:43Z</time>
      </trkpt>
      <trkpt lat="50.32512" lon="4.25418">
        <ele>158.383331</ele>
        <time>2022-08-28T09:10:45Z</time>
      </trkpt>
      <trkpt lat="50.32518" lon="4.25423">
        <ele>158.23877</ele>
        <time>2022-08-28T09:10:47Z</time>
      </trkpt>
      <trkpt lat="50.32521" lon="4.25435">
        <ele>158.020859</ele>
        <time>2022-08-28T09:10:49Z</time>
      </trkpt>
      <trkpt lat="50.32523" lon="4.25447">
        <ele>157.786224</ele>
        <time>2022-08-28T09:10:51Z</time>
      </trkpt>
      <trkpt lat="50.32525" lon="4.25459">
        <ele>157.591385</ele>
        <time>2022-08-28T09:10:53Z</time>
      </trkpt>
      <trkpt lat="50.32526" lon="4.2547">
        <ele>157.399185</ele>
        <time>2022-08-28T09:10:55Z</time>
      </trkpt>
      <trkpt lat="50.32528" lon="4.25483">
        <ele>157.281876</ele>
        <time>2022-08-28T09:10:57Z</time>
      </trkpt>
      <trkpt lat="50.32529" lon="4.25495">
        <ele>157.195999</ele>
        <time>2022-08-28T09:10:59Z</time>
      </trkpt>
      <trkpt lat="50.3253" lon="4.25508">
        <ele>157.130295</ele>
        <time>2022-08-28T09:11:01Z</time>
      </trkpt>
      <trkpt lat="50.32529" lon="4.25522">
        <ele>157.086304</ele>
        <time>2022-08-28T09:11:03Z</time>
      </trkpt>
      <trkpt lat="50.32528" lon="4.25535">
        <ele>157.096771</ele>
        <time>2022-08-28T09:11:05Z</time>
      </trkpt>
      <trkpt lat="50.32528" lon="4.25548">
        <ele>157.130295</ele>
        <time>2022-08-28T09:11:07Z</time>
      </trkpt>
      <trkpt lat="50.32526" lon="4.25561">
        <ele>157.180573</ele>
        <time>2022-08-28T09:11:09Z</time>
      </trkpt>
      <trkpt lat="50.32526" lon="4.25575">
        <ele>157.274857</ele>
        <time>2022-08-28T09:11:11Z</time>
      </trkpt>
      <trkpt lat="50.32525" lon="4.25589">
        <ele>157.385864</ele>
        <time>2022-08-28T09:11:13Z</time>
      </trkpt>
      <trkpt lat="50.32525" lon="4.25604">
        <ele>157.484329</ele>
        <time>2022-08-28T09:11:15Z</time>
      </trkpt>
      <trkpt lat="50.32525" lon="4.25618">
        <ele>157.609772</ele>
        <time>2022-08-28T09:11:17Z</time>
      </trkpt>
      <trkpt lat="50.32525" lon="4.25633">
        <ele>157.758469</ele>
        <time>2022-08-28T09:11:19Z</time>
      </trkpt>
      <trkpt lat="50.32524" lon="4.25648">
        <ele>157.92485</ele>
        <time>2022-08-28T09:11:21Z</time>
      </trkpt>
      <trkpt lat="50.32524" lon="4.25664">
        <ele>158.117554</ele>
        <time>2022-08-28T09:11:23Z</time>
      </trkpt>
      <trkpt lat="50.32524" lon="4.2568">
        <ele>158.268387</ele>
        <time>2022-08-28T09:11:25Z</time>
      </trkpt>
      <trkpt lat="50.32523" lon="4.25696">
        <ele>158.367706</ele>
        <time>2022-08-28T09:11:27Z</time>
      </trkpt>
      <trkpt lat="50.32523" lon="4.25712">
        <ele>158.560745</ele>
        <time>2022-08-28T09:11:29Z</time>
      </trkpt>
      <trkpt lat="50.32523" lon="4.25727">
        <ele>158.731277</ele>
        <time>2022-08-28T09:11:31Z</time>
      </trkpt>
      <trkpt lat="50.32522" lon="4.25742">
        <ele>158.90976</ele>
        <time>2022-08-28T09:11:33Z</time>
      </trkpt>
      <trkpt lat="50.3252" lon="4.25756">
        <ele>159.12973</ele>
        <time>2022-08-28T09:11:35Z</time>
      </trkpt>
      <trkpt lat="50.32517" lon="4.2577">
        <ele>159.406281</ele>
        <time>2022-08-28T09:11:37Z</time>
      </trkpt>
      <trkpt lat="50.32513" lon="4.25783">
        <ele>159.6577</ele>
        <time>2022-08-28T09:11:39Z</time>
      </trkpt>
      <trkpt lat="50.32509" lon="4.25795">
        <ele>159.844177</ele>
        <time>2022-08-28T09:11:41Z</time>
      </trkpt>
      <trkpt lat="50.32506" lon="4.25808">
        <ele>160.084412</ele>
        <time>2022-08-28T09:11:43Z</time>
      </trkpt>
      <trkpt lat="50.32502" lon="4.25821">
        <ele>160.291855</ele>
        <time>2022-08-28T09:11:45Z</time>
      </trkpt>
      <trkpt lat="50.32499" lon="4.25834">
        <ele>160.511856</ele>
        <time>2022-08-28T09:11:47Z</time>
      </trkpt>
      <trkpt lat="50.32496" lon="4.25847">
        <ele>160.727676</ele>
        <time>2022-08-28T09:11:49Z</time>
      </trkpt>
      <trkpt lat="50.32493" lon="4.25859">
        <ele>160.941406</ele>
        <time>2022-08-28T09:11:51Z</time>
      </trkpt>
      <trkpt lat="50.32489" lon="4.25871">
        <ele>161.146759</ele>
        <time>2022-08-28T09:11:53Z</time>
      </trkpt>
      <trkpt lat="50.32486" lon="4.25884">
        <ele>161.343719</ele>
        <time>2022-08-28T09:11:55Z</time>
      </trkpt>
      <trkpt lat="50.32481" lon="4.25895">
        <ele>161.517639</ele>
        <time>2022-08-28T09:11:57Z</time>
      </trkpt>
      <trkpt lat="50.32475" lon="4.25905">
        <ele>161.716705</ele>
        <time>2022-08-28T09:11:59Z</time>
      </trkpt>
      <trkpt lat="50.32468" lon="4.25913">
        <ele>161.914902</ele>
        <time>2022-08-28T09:12:01Z</time>
      </trkpt>
      <trkpt lat="50.32462" lon="4.2592">
        <ele>162.084625</ele>
        <time>2022-08-28T09:12:03Z</time>
      </trkpt>
      <trkpt lat="50.32457" lon="4.25926">
        <ele>162.227142</ele>
        <time>2022-08-28T09:12:05Z</time>
      </trkpt>
      <trkpt lat="50.32452" lon="4.25932">
        <ele>162.323517</ele>
        <time>2022-08-28T09:12:07Z</time>
      </trkpt>
      <trkpt lat="50.32447" lon="4.25938">
        <ele>162.480392</ele>
        <time>2022-08-28T09:12:09Z</time>
      </trkpt>
      <trkpt lat="50.3244" lon="4.25944">
        <ele>162.776855</ele>
        <time>2022-08-28T09:12:11Z</time>
      </trkpt>
      <trkpt lat="50.32433" lon="4.25951">
        <ele>162.89003</ele>
        <time>2022-08-28T09:12:13Z</time>
      </trkpt>
      <trkpt lat="50.32426" lon="4.25959">
        <ele>163.057892</ele>
        <time>2022-08-28T09:12:15Z</time>
      </trkpt>
      <trkpt lat="50.32418" lon="4.25967">
        <ele>163.152206</ele>
        <time>2022-08-28T09:12:17Z</time>
      </trkpt>
      <trkpt lat="50.3241" lon="4.25975">
        <ele>163.208801</ele>
        <time>2022-08-28T09:12:19Z</time>
      </trkpt>
      <trkpt lat="50.32402" lon="4.25981">
        <ele>163.307297</ele>
        <time>2022-08-28T09:12:21Z</time>
      </trkpt>
      <trkpt lat="50.32394" lon="4.25988">
        <ele>163.368073</ele>
        <time>2022-08-28T09:12:23Z</time>
      </trkpt>
      <trkpt lat="50.32386" lon="4.25996">
        <ele>163.39679</ele>
        <time>2022-08-28T09:12:25Z</time>
      </trkpt>
      <trkpt lat="50.32377" lon="4.26004">
        <ele>163.424042</ele>
        <time>2022-08-28T09:12:27Z</time>
      </trkpt>
      <trkpt lat="50.32369" lon="4.26011">
        <ele>163.461761</ele>
        <time>2022-08-28T09:12:29Z</time>
      </trkpt>
      <trkpt lat="50.3236" lon="4.26019">
        <ele>163.451279</ele>
        <time>2022-08-28T09:12:31Z</time>
      </trkpt>
      <trkpt lat="50.32352" lon="4.26027">
        <ele>163.457565</ele>
        <time>2022-08-28T09:12:33Z</time>
      </trkpt>
      <trkpt lat="50.32344" lon="4.26035">
        <ele>163.486908</ele>
        <time>2022-08-28T09:12:35Z</time>
      </trkpt>
      <trkpt lat="50.32335" lon="4.26043">
        <ele>163.55658</ele>
        <time>2022-08-28T09:12:37Z</time>
      </trkpt>
      <trkpt lat="50.32327" lon="4.26051">
        <ele>163.570465</ele>
        <time>2022-08-28T09:12:39Z</time>
      </trkpt>
      <trkpt lat="50.32319" lon="4.2606">
        <ele>163.576752</ele>
        <time>2022-08-28T09:12:41Z</time>
      </trkpt>
      <trkpt lat="50.32311" lon="4.26068">
        <ele>163.564178</ele>
        <time>2022-08-28T09:12:43Z</time>
      </trkpt>
      <trkpt lat="50.32303" lon="4.26076">
        <ele>163.55545</ele>
        <time>2022-08-28T09:12:45Z</time>
      </trkpt>
      <trkpt lat="50.32294" lon="4.26084">
        <ele>163.559647</ele>
        <time>2022-08-28T09:12:47Z</time>
      </trkpt>
      <trkpt lat="50.32287" lon="4.26093">
        <ele>163.563293</ele>
        <time>2022-08-28T09:12:49Z</time>
      </trkpt>
      <trkpt lat="50.32278" lon="4.26101">
        <ele>163.468964</ele>
        <time>2022-08-28T09:12:51Z</time>
      </trkpt>
      <trkpt lat="50.32269" lon="4.26109">
        <ele>163.399811</ele>
        <time>2022-08-28T09:12:53Z</time>
      </trkpt>
      <trkpt lat="50.32262" lon="4.26118">
        <ele>163.336288</ele>
        <time>2022-08-28T09:12:55Z</time>
      </trkpt>
      <trkpt lat="50.32253" lon="4.26126">
        <ele>163.309052</ele>
        <time>2022-08-28T09:12:57Z</time>
      </trkpt>
      <trkpt lat="50.32245" lon="4.26134">
        <ele>163.323715</ele>
        <time>2022-08-28T09:12:59Z</time>
      </trkpt>
      <trkpt lat="50.32237" lon="4.26142">
        <ele>163.258743</ele>
        <time>2022-08-28T09:13:01Z</time>
      </trkpt>
      <trkpt lat="50.32229" lon="4.26151">
        <ele>163.256638</ele>
        <time>2022-08-28T09:13:03Z</time>
      </trkpt>
      <trkpt lat="50.3222" lon="4.26159">
        <ele>163.30275</ele>
        <time>2022-08-28T09:13:05Z</time>
      </trkpt>
      <trkpt lat="50.32212" lon="4.26167">
        <ele>163.371918</ele>
        <time>2022-08-28T09:13:07Z</time>
      </trkpt>
      <trkpt lat="50.32204" lon="4.26177">
        <ele>163.405457</ele>
        <time>2022-08-28T09:13:09Z</time>
      </trkpt>
      <trkpt lat="50.32196" lon="4.26187">
        <ele>163.476715</ele>
        <time>2022-08-28T09:13:11Z</time>
      </trkpt>
      <trkpt lat="50.32189" lon="4.26198">
        <ele>163.560562</ele>
        <time>2022-08-28T09:13:13Z</time>
      </trkpt>
      <trkpt lat="50.32182" lon="4.26208">
        <ele>163.621353</ele>
        <time>2022-08-28T09:13:15Z</time>
      </trkpt>
      <trkpt lat="50.32175" lon="4.26219">
        <ele>163.670532</ele>
        <time>2022-08-28T09:13:17Z</time>
      </trkpt>
      <trkpt lat="50.32167" lon="4.2623">
        <ele>163.736298</ele>
        <time>2022-08-28T09:13:19Z</time>
      </trkpt>
      <trkpt lat="50.3216" lon="4.26241">
        <ele>163.85051</ele>
        <time>2022-08-28T09:13:21Z</time>
      </trkpt>
      <trkpt lat="50.32152" lon="4.26252">
        <ele>163.986633</ele>
        <time>2022-08-28T09:13:23Z</time>
      </trkpt>
      <trkpt lat="50.32145" lon="4.26263">
        <ele>164.066284</ele>
        <time>2022-08-28T09:13:25Z</time>
      </trkpt>
      <trkpt lat="50.32138" lon="4.26275">
        <ele>164.161636</ele>
        <time>2022-08-28T09:13:27Z</time>
      </trkpt>
      <trkpt lat="50.3213" lon="4.26287">
        <ele>164.348175</ele>
        <time>2022-08-28T09:13:29Z</time>
      </trkpt>
      <trkpt lat="50.32123" lon="4.26299">
        <ele>164.486526</ele>
        <time>2022-08-28T09:13:31Z</time>
      </trkpt>
      <trkpt lat="50.32116" lon="4.26311">
        <ele>164.668884</ele>
        <time>2022-08-28T09:13:33Z</time>
      </trkpt>
      <trkpt lat="50.32109" lon="4.26323">
        <ele>164.796738</ele>
        <time>2022-08-28T09:13:35Z</time>
      </trkpt>
      <trkpt lat="50.32102" lon="4.26335">
        <ele>164.985382</ele>
        <time>2022-08-28T09:13:37Z</time>
      </trkpt>
      <trkpt lat="50.32095" lon="4.26348">
        <ele>165.081833</ele>
        <time>2022-08-28T09:13:39Z</time>
      </trkpt>
      <trkpt lat="50.32089" lon="4.2636">
        <ele>165.274689</ele>
        <time>2022-08-28T09:13:41Z</time>
      </trkpt>
      <trkpt lat="50.32082" lon="4.26373">
        <ele>165.413834</ele>
        <time>2022-08-28T09:13:43Z</time>
      </trkpt>
      <trkpt lat="50.32077" lon="4.26384">
        <ele>165.568939</ele>
        <time>2022-08-28T09:13:45Z</time>
      </trkpt>
      <trkpt lat="50.32074" lon="4.26394">
        <ele>165.640213</ele>
        <time>2022-08-28T09:13:47Z</time>
      </trkpt>
      <trkpt lat="50.32077" lon="4.26407">
        <ele>165.719879</ele>
        <time>2022-08-28T09:13:49Z</time>
      </trkpt>
      <trkpt lat="50.32082" lon="4.26418">
        <ele>165.736649</ele>
        <time>2022-08-28T09:13:51Z</time>
      </trkpt>
      <trkpt lat="50.3209" lon="4.26429">
        <ele>165.791138</ele>
        <time>2022-08-28T09:13:53Z</time>
      </trkpt>
      <trkpt lat="50.32099" lon="4.26439">
        <ele>165.79953</ele>
        <time>2022-08-28T09:13:55Z</time>
      </trkpt>
      <trkpt lat="50.32107" lon="4.26449">
        <ele>165.852554</ele>
        <time>2022-08-28T09:13:57Z</time>
      </trkpt>
      <trkpt lat="50.32116" lon="4.26459">
        <ele>165.865891</ele>
        <time>2022-08-28T09:13:59Z</time>
      </trkpt>
      <trkpt lat="50.32125" lon="4.2647">
        <ele>165.788345</ele>
        <time>2022-08-28T09:14:01Z</time>
      </trkpt>
      <trkpt lat="50.32134" lon="4.26481">
        <ele>165.829254</ele>
        <time>2022-08-28T09:14:03Z</time>
      </trkpt>
      <trkpt lat="50.32143" lon="4.26494">
        <ele>165.82309</ele>
        <time>2022-08-28T09:14:05Z</time>
      </trkpt>
      <trkpt lat="50.32152" lon="4.26507">
        <ele>165.778397</ele>
        <time>2022-08-28T09:14:07Z</time>
      </trkpt>
      <trkpt lat="50.3216" lon="4.2652">
        <ele>165.786789</ele>
        <time>2022-08-28T09:14:09Z</time>
      </trkpt>
      <trkpt lat="50.32169" lon="4.26533">
        <ele>165.738571</ele>
        <time>2022-08-28T09:14:11Z</time>
      </trkpt>
      <trkpt lat="50.32177" lon="4.26546">
        <ele>165.715515</ele>
        <time>2022-08-28T09:14:13Z</time>
      </trkpt>
      <trkpt lat="50.32185" lon="4.26559">
        <ele>165.728088</ele>
        <time>2022-08-28T09:14:15Z</time>
      </trkpt>
      <trkpt lat="50.32193" lon="4.26572">
        <ele>165.707123</ele>
        <time>2022-08-28T09:14:17Z</time>
      </trkpt>
      <trkpt lat="50.32201" lon="4.26584">
        <ele>165.705032</ele>
        <time>2022-08-28T09:14:19Z</time>
      </trkpt>
      <trkpt lat="50.32209" lon="4.26596">
        <ele>165.660736</ele>
        <time>2022-08-28T09:14:21Z</time>
      </trkpt>
      <trkpt lat="50.32217" lon="4.26609">
        <ele>165.597839</ele>
        <time>2022-08-28T09:14:23Z</time>
      </trkpt>
      <trkpt lat="50.32226" lon="4.26622">
        <ele>165.460785</ele>
        <time>2022-08-28T09:14:25Z</time>
      </trkpt>
      <trkpt lat="50.32234" lon="4.26635">
        <ele>165.4021</ele>
        <time>2022-08-28T09:14:27Z</time>
      </trkpt>
      <trkpt lat="50.32242" lon="4.26647">
        <ele>165.372742</ele>
        <time>2022-08-28T09:14:29Z</time>
      </trkpt>
      <trkpt lat="50.3225" lon="4.2666">
        <ele>165.481781</ele>
        <time>2022-08-28T09:14:31Z</time>
      </trkpt>
      <trkpt lat="50.32259" lon="4.26673">
        <ele>165.483871</ele>
        <time>2022-08-28T09:14:33Z</time>
      </trkpt>
      <trkpt lat="50.32267" lon="4.26685">
        <ele>165.479645</ele>
        <time>2022-08-28T09:14:35Z</time>
      </trkpt>
      <trkpt lat="50.32275" lon="4.26698">
        <ele>165.506897</ele>
        <time>2022-08-28T09:14:37Z</time>
      </trkpt>
      <trkpt lat="50.32284" lon="4.2671">
        <ele>165.407623</ele>
        <time>2022-08-28T09:14:39Z</time>
      </trkpt>
      <trkpt lat="50.32292" lon="4.26723">
        <ele>165.474701</ele>
        <time>2022-08-28T09:14:41Z</time>
      </trkpt>
      <trkpt lat="50.323" lon="4.26735">
        <ele>165.675949</ele>
        <time>2022-08-28T09:14:43Z</time>
      </trkpt>
      <trkpt lat="50.32308" lon="4.26748">
        <ele>165.585831</ele>
        <time>2022-08-28T09:14:45Z</time>
      </trkpt>
      <trkpt lat="50.32315" lon="4.26761">
        <ele>165.682251</ele>
        <time>2022-08-28T09:14:47Z</time>
      </trkpt>
      <trkpt lat="50.32323" lon="4.26774">
        <ele>165.701126</ele>
        <time>2022-08-28T09:14:49Z</time>
      </trkpt>
      <trkpt lat="50.3233" lon="4.26787">
        <ele>165.799652</ele>
        <time>2022-08-28T09:14:51Z</time>
      </trkpt>
      <trkpt lat="50.32338" lon="4.26801">
        <ele>165.852081</ele>
        <time>2022-08-28T09:14:53Z</time>
      </trkpt>
      <trkpt lat="50.32345" lon="4.26814">
        <ele>165.903046</ele>
        <time>2022-08-28T09:14:55Z</time>
      </trkpt>
      <trkpt lat="50.32352" lon="4.26827">
        <ele>165.894547</ele>
        <time>2022-08-28T09:14:57Z</time>
      </trkpt>
      <trkpt lat="50.3236" lon="4.26839">
        <ele>165.967926</ele>
        <time>2022-08-28T09:14:59Z</time>
      </trkpt>
      <trkpt lat="50.32368" lon="4.26851">
        <ele>165.967926</ele>
        <time>2022-08-28T09:15:01Z</time>
      </trkpt>
      <trkpt lat="50.32375" lon="4.26863">
        <ele>165.980774</ele>
        <time>2022-08-28T09:15:03Z</time>
      </trkpt>
      <trkpt lat="50.32383" lon="4.26875">
        <ele>166.098145</ele>
        <time>2022-08-28T09:15:05Z</time>
      </trkpt>
      <trkpt lat="50.32392" lon="4.26886">
        <ele>166.144257</ele>
        <time>2022-08-28T09:15:07Z</time>
      </trkpt>
      <trkpt lat="50.324" lon="4.26898">
        <ele>166.238602</ele>
        <time>2022-08-28T09:15:09Z</time>
      </trkpt>
      <trkpt lat="50.32409" lon="4.2691">
        <ele>166.194565</ele>
        <time>2022-08-28T09:15:11Z</time>
      </trkpt>
      <trkpt lat="50.32417" lon="4.26922">
        <ele>166.221146</ele>
        <time>2022-08-28T09:15:13Z</time>
      </trkpt>
      <trkpt lat="50.32426" lon="4.26933">
        <ele>166.193909</ele>
        <time>2022-08-28T09:15:15Z</time>
      </trkpt>
      <trkpt lat="50.32435" lon="4.26946">
        <ele>166.225357</ele>
        <time>2022-08-28T09:15:17Z</time>
      </trkpt>
      <trkpt lat="50.32444" lon="4.26958">
        <ele>166.287308</ele>
        <time>2022-08-28T09:15:19Z</time>
      </trkpt>
      <trkpt lat="50.32452" lon="4.2697">
        <ele>166.338318</ele>
        <time>2022-08-28T09:15:21Z</time>
      </trkpt>
      <trkpt lat="50.32461" lon="4.26983">
        <ele>166.281708</ele>
        <time>2022-08-28T09:15:23Z</time>
      </trkpt>
      <trkpt lat="50.3247" lon="4.26994">
        <ele>166.262817</ele>
        <time>2022-08-28T09:15:25Z</time>
      </trkpt>
      <trkpt lat="50.32478" lon="4.27005">
        <ele>166.109787</ele>
        <time>2022-08-28T09:15:27Z</time>
      </trkpt>
      <trkpt lat="50.32487" lon="4.27017">
        <ele>166.0289</ele>
        <time>2022-08-28T09:15:29Z</time>
      </trkpt>
      <trkpt lat="50.32496" lon="4.27029">
        <ele>165.953461</ele>
        <time>2022-08-28T09:15:31Z</time>
      </trkpt>
      <trkpt lat="50.32506" lon="4.27043">
        <ele>165.651596</ele>
        <time>2022-08-28T09:15:33Z</time>
      </trkpt>
      <trkpt lat="50.32517" lon="4.27058">
        <ele>165.506317</ele>
        <time>2022-08-28T09:15:35Z</time>
      </trkpt>
      <trkpt lat="50.32528" lon="4.27074">
        <ele>165.39743</ele>
        <time>2022-08-28T09:15:37Z</time>
      </trkpt>
      <trkpt lat="50.3254" lon="4.27091">
        <ele>165.300995</ele>
        <time>2022-08-28T09:15:39Z</time>
      </trkpt>
      <trkpt lat="50.32558" lon="4.27117">
        <ele>165.150085</ele>
        <time>2022-08-28T09:15:42Z</time>
      </trkpt>
      <trkpt lat="50.3257" lon="4.27134">
        <ele>165.007553</ele>
        <time>2022-08-28T09:15:44Z</time>
      </trkpt>
      <trkpt lat="50.32585" lon="4.27143">
        <ele>164.886322</ele>
        <time>2022-08-28T09:15:46Z</time>
      </trkpt>
      <trkpt lat="50.326" lon="4.27144">
        <ele>164.571976</ele>
        <time>2022-08-28T09:15:48Z</time>
      </trkpt>
      <trkpt lat="50.32616" lon="4.27143">
        <ele>164.125595</ele>
        <time>2022-08-28T09:15:50Z</time>
      </trkpt>
      <trkpt lat="50.3263" lon="4.27143">
        <ele>163.855209</ele>
        <time>2022-08-28T09:15:52Z</time>
      </trkpt>
      <trkpt lat="50.32644" lon="4.27146">
        <ele>163.621155</ele>
        <time>2022-08-28T09:15:54Z</time>
      </trkpt>
      <trkpt lat="50.32658" lon="4.27153">
        <ele>163.48703</ele>
        <time>2022-08-28T09:15:56Z</time>
      </trkpt>
      <trkpt lat="50.32672" lon="4.27166">
        <ele>163.222809</ele>
        <time>2022-08-28T09:15:58Z</time>
      </trkpt>
      <trkpt lat="50.32684" lon="4.27179">
        <ele>162.771103</ele>
        <time>2022-08-28T09:16:00Z</time>
      </trkpt>
      <trkpt lat="50.32696" lon="4.27192">
        <ele>162.269638</ele>
        <time>2022-08-28T09:16:02Z</time>
      </trkpt>
      <trkpt lat="50.32707" lon="4.27204">
        <ele>161.773026</ele>
        <time>2022-08-28T09:16:04Z</time>
      </trkpt>
      <trkpt lat="50.32717" lon="4.27215">
        <ele>161.50061</ele>
        <time>2022-08-28T09:16:06Z</time>
      </trkpt>
      <trkpt lat="50.32727" lon="4.27223">
        <ele>161.320404</ele>
        <time>2022-08-28T09:16:08Z</time>
      </trkpt>
      <trkpt lat="50.32737" lon="4.27231">
        <ele>161.036606</ele>
        <time>2022-08-28T09:16:10Z</time>
      </trkpt>
      <trkpt lat="50.32746" lon="4.27238">
        <ele>160.800415</ele>
        <time>2022-08-28T09:16:12Z</time>
      </trkpt>
      <trkpt lat="50.32755" lon="4.27245">
        <ele>160.58252</ele>
        <time>2022-08-28T09:16:14Z</time>
      </trkpt>
      <trkpt lat="50.32763" lon="4.27253">
        <ele>160.435822</ele>
        <time>2022-08-28T09:16:16Z</time>
      </trkpt>
      <trkpt lat="50.32771" lon="4.27261">
        <ele>160.10054</ele>
        <time>2022-08-28T09:16:18Z</time>
      </trkpt>
      <trkpt lat="50.32779" lon="4.2727">
        <ele>159.792465</ele>
        <time>2022-08-28T09:16:20Z</time>
      </trkpt>
      <trkpt lat="50.32786" lon="4.27279">
        <ele>159.618561</ele>
        <time>2022-08-28T09:16:22Z</time>
      </trkpt>
      <trkpt lat="50.32794" lon="4.27287">
        <ele>159.46788</ele>
        <time>2022-08-28T09:16:24Z</time>
      </trkpt>
      <trkpt lat="50.32802" lon="4.27296">
        <ele>159.224487</ele>
        <time>2022-08-28T09:16:26Z</time>
      </trkpt>
      <trkpt lat="50.32809" lon="4.27305">
        <ele>159.201385</ele>
        <time>2022-08-28T09:16:28Z</time>
      </trkpt>
      <trkpt lat="50.32816" lon="4.27313">
        <ele>159.182541</ele>
        <time>2022-08-28T09:16:30Z</time>
      </trkpt>
      <trkpt lat="50.32822" lon="4.27322">
        <ele>159.102936</ele>
        <time>2022-08-28T09:16:32Z</time>
      </trkpt>
      <trkpt lat="50.32829" lon="4.2733">
        <ele>158.838943</ele>
        <time>2022-08-28T09:16:34Z</time>
      </trkpt>
      <trkpt lat="50.32835" lon="4.27337">
        <ele>158.587509</ele>
        <time>2022-08-28T09:16:36Z</time>
      </trkpt>
      <trkpt lat="50.32842" lon="4.27344">
        <ele>158.342422</ele>
        <time>2022-08-28T09:16:38Z</time>
      </trkpt>
      <trkpt lat="50.32847" lon="4.27351">
        <ele>158.126801</ele>
        <time>2022-08-28T09:16:40Z</time>
      </trkpt>
      <trkpt lat="50.32853" lon="4.27358">
        <ele>158.138931</ele>
        <time>2022-08-28T09:16:42Z</time>
      </trkpt>
      <trkpt lat="50.32858" lon="4.27365">
        <ele>158.354752</ele>
        <time>2022-08-28T09:16:44Z</time>
      </trkpt>
      <trkpt lat="50.32856" lon="4.27374">
        <ele>158.319122</ele>
        <time>2022-08-28T09:16:46Z</time>
      </trkpt>
      <trkpt lat="50.32851" lon="4.2738">
        <ele>158.197617</ele>
        <time>2022-08-28T09:16:48Z</time>
      </trkpt>
      <trkpt lat="50.32844" lon="4.27386">
        <ele>158.07402</ele>
        <time>2022-08-28T09:16:50Z</time>
      </trkpt>
      <trkpt lat="50.32836" lon="4.27393">
        <ele>157.960266</ele>
        <time>2022-08-28T09:16:52Z</time>
      </trkpt>
      <trkpt lat="50.32828" lon="4.27399">
        <ele>157.878571</ele>
        <time>2022-08-28T09:16:54Z</time>
      </trkpt>
      <trkpt lat="50.3282" lon="4.27405">
        <ele>157.881851</ele>
        <time>2022-08-28T09:16:56Z</time>
      </trkpt>
      <trkpt lat="50.32813" lon="4.27413">
        <ele>157.80014</ele>
        <time>2022-08-28T09:16:58Z</time>
      </trkpt>
      <trkpt lat="50.32806" lon="4.2742">
        <ele>157.710068</ele>
        <time>2022-08-28T09:17:00Z</time>
      </trkpt>
      <trkpt lat="50.32798" lon="4.27427">
        <ele>157.586472</ele>
        <time>2022-08-28T09:17:02Z</time>
      </trkpt>
      <trkpt lat="50.3279" lon="4.27434">
        <ele>157.473343</ele>
        <time>2022-08-28T09:17:04Z</time>
      </trkpt>
      <trkpt lat="50.32782" lon="4.27441">
        <ele>157.420761</ele>
        <time>2022-08-28T09:17:06Z</time>
      </trkpt>
      <trkpt lat="50.32775" lon="4.27448">
        <ele>157.368378</ele>
        <time>2022-08-28T09:17:08Z</time>
      </trkpt>
      <trkpt lat="50.32767" lon="4.27455">
        <ele>157.251068</ele>
        <time>2022-08-28T09:17:10Z</time>
      </trkpt>
      <trkpt lat="50.32759" lon="4.27461">
        <ele>157.247559</ele>
        <time>2022-08-28T09:17:12Z</time>
      </trkpt>
      <trkpt lat="50.32751" lon="4.27468">
        <ele>157.289459</ele>
        <time>2022-08-28T09:17:14Z</time>
      </trkpt>
      <trkpt lat="50.32744" lon="4.27476">
        <ele>157.343918</ele>
        <time>2022-08-28T09:17:16Z</time>
      </trkpt>
      <trkpt lat="50.32735" lon="4.27482">
        <ele>157.454926</ele>
        <time>2022-08-28T09:17:18Z</time>
      </trkpt>
      <trkpt lat="50.32727" lon="4.27489">
        <ele>157.581146</ele>
        <time>2022-08-28T09:17:20Z</time>
      </trkpt>
      <trkpt lat="50.32719" lon="4.27496">
        <ele>157.635864</ele>
        <time>2022-08-28T09:17:22Z</time>
      </trkpt>
      <trkpt lat="50.32711" lon="4.27503">
        <ele>157.702789</ele>
        <time>2022-08-28T09:17:24Z</time>
      </trkpt>
      <trkpt lat="50.32702" lon="4.2751">
        <ele>157.803345</ele>
        <time>2022-08-28T09:17:26Z</time>
      </trkpt>
      <trkpt lat="50.32694" lon="4.27518">
        <ele>157.847336</ele>
        <time>2022-08-28T09:17:28Z</time>
      </trkpt>
      <trkpt lat="50.32686" lon="4.27525">
        <ele>157.966751</ele>
        <time>2022-08-28T09:17:30Z</time>
      </trkpt>
      <trkpt lat="50.32676" lon="4.27531">
        <ele>158.046341</ele>
        <time>2022-08-28T09:17:32Z</time>
      </trkpt>
      <trkpt lat="50.32668" lon="4.27539">
        <ele>158.182526</ele>
        <time>2022-08-28T09:17:34Z</time>
      </trkpt>
      <trkpt lat="50.32659" lon="4.27545">
        <ele>158.223221</ele>
        <time>2022-08-28T09:17:36Z</time>
      </trkpt>
      <trkpt lat="50.3265" lon="4.27553">
        <ele>158.296555</ele>
        <time>2022-08-28T09:17:38Z</time>
      </trkpt>
      <trkpt lat="50.32642" lon="4.2756">
        <ele>158.439011</ele>
        <time>2022-08-28T09:17:40Z</time>
      </trkpt>
      <trkpt lat="50.32633" lon="4.27568">
        <ele>158.577271</ele>
        <time>2022-08-28T09:17:42Z</time>
      </trkpt>
      <trkpt lat="50.32625" lon="4.27576">
        <ele>158.717636</ele>
        <time>2022-08-28T09:17:44Z</time>
      </trkpt>
      <trkpt lat="50.32616" lon="4.27584">
        <ele>158.822388</ele>
        <time>2022-08-28T09:17:46Z</time>
      </trkpt>
      <trkpt lat="50.32608" lon="4.27592">
        <ele>158.97113</ele>
        <time>2022-08-28T09:17:48Z</time>
      </trkpt>
      <trkpt lat="50.326" lon="4.276">
        <ele>159.132446</ele>
        <time>2022-08-28T09:17:50Z</time>
      </trkpt>
      <trkpt lat="50.32591" lon="4.27608">
        <ele>159.306488</ele>
        <time>2022-08-28T09:17:52Z</time>
      </trkpt>
      <trkpt lat="50.32582" lon="4.27616">
        <ele>159.534882</ele>
        <time>2022-08-28T09:17:54Z</time>
      </trkpt>
      <trkpt lat="50.32573" lon="4.27625">
        <ele>159.699966</ele>
        <time>2022-08-28T09:17:56Z</time>
      </trkpt>
      <trkpt lat="50.32565" lon="4.27633">
        <ele>159.827759</ele>
        <time>2022-08-28T09:17:58Z</time>
      </trkpt>
      <trkpt lat="50.32556" lon="4.2764">
        <ele>160.018951</ele>
        <time>2022-08-28T09:18:00Z</time>
      </trkpt>
      <trkpt lat="50.32547" lon="4.27649">
        <ele>160.304108</ele>
        <time>2022-08-28T09:18:02Z</time>
      </trkpt>
      <trkpt lat="50.32539" lon="4.27657">
        <ele>160.434021</ele>
        <time>2022-08-28T09:18:04Z</time>
      </trkpt>
      <trkpt lat="50.3253" lon="4.27665">
        <ele>160.622604</ele>
        <time>2022-08-28T09:18:06Z</time>
      </trkpt>
      <trkpt lat="50.32521" lon="4.27673">
        <ele>160.750412</ele>
        <time>2022-08-28T09:18:08Z</time>
      </trkpt>
      <trkpt lat="50.32514" lon="4.27682">
        <ele>161.012344</ele>
        <time>2022-08-28T09:18:10Z</time>
      </trkpt>
      <trkpt lat="50.32505" lon="4.2769">
        <ele>161.159027</ele>
        <time>2022-08-28T09:18:12Z</time>
      </trkpt>
      <trkpt lat="50.32496" lon="4.27698">
        <ele>161.311981</ele>
        <time>2022-08-28T09:18:14Z</time>
      </trkpt>
      <trkpt lat="50.32488" lon="4.27706">
        <ele>161.529907</ele>
        <time>2022-08-28T09:18:16Z</time>
      </trkpt>
      <trkpt lat="50.32479" lon="4.27714">
        <ele>161.806503</ele>
        <time>2022-08-28T09:18:18Z</time>
      </trkpt>
      <trkpt lat="50.32471" lon="4.27723">
        <ele>161.997192</ele>
        <time>2022-08-28T09:18:20Z</time>
      </trkpt>
      <trkpt lat="50.32462" lon="4.27731">
        <ele>162.160645</ele>
        <time>2022-08-28T09:18:22Z</time>
      </trkpt>
      <trkpt lat="50.32454" lon="4.27739">
        <ele>162.376495</ele>
        <time>2022-08-28T09:18:24Z</time>
      </trkpt>
      <trkpt lat="50.32446" lon="4.27748">
        <ele>162.578873</ele>
        <time>2022-08-28T09:18:26Z</time>
      </trkpt>
      <trkpt lat="50.32437" lon="4.27756">
        <ele>162.768188</ele>
        <time>2022-08-28T09:18:28Z</time>
      </trkpt>
      <trkpt lat="50.32429" lon="4.27764">
        <ele>162.960358</ele>
        <time>2022-08-28T09:18:30Z</time>
      </trkpt>
      <trkpt lat="50.3242" lon="4.27771">
        <ele>163.060379</ele>
        <time>2022-08-28T09:18:32Z</time>
      </trkpt>
      <trkpt lat="50.32412" lon="4.27779">
        <ele>163.232254</ele>
        <time>2022-08-28T09:18:34Z</time>
      </trkpt>
      <trkpt lat="50.32403" lon="4.27788">
        <ele>163.481689</ele>
        <time>2022-08-28T09:18:36Z</time>
      </trkpt>
      <trkpt lat="50.32396" lon="4.27795">
        <ele>163.677048</ele>
        <time>2022-08-28T09:18:38Z</time>
      </trkpt>
      <trkpt lat="50.32388" lon="4.27801">
        <ele>163.885544</ele>
        <time>2022-08-28T09:18:40Z</time>
      </trkpt>
      <trkpt lat="50.32381" lon="4.2781">
        <ele>164.021774</ele>
        <time>2022-08-28T09:18:42Z</time>
      </trkpt>
      <trkpt lat="50.32378" lon="4.27822">
        <ele>164.148727</ele>
        <time>2022-08-28T09:18:44Z</time>
      </trkpt>
      <trkpt lat="50.3238" lon="4.27837">
        <ele>164.324783</ele>
        <time>2022-08-28T09:18:46Z</time>
      </trkpt>
      <trkpt lat="50.32382" lon="4.27854">
        <ele>164.414841</ele>
        <time>2022-08-28T09:18:48Z</time>
      </trkpt>
      <trkpt lat="50.32385" lon="4.27872">
        <ele>164.643311</ele>
        <time>2022-08-28T09:18:50Z</time>
      </trkpt>
      <trkpt lat="50.32388" lon="4.27889">
        <ele>164.553299</ele>
        <time>2022-08-28T09:18:52Z</time>
      </trkpt>
      <trkpt lat="50.32391" lon="4.27906">
        <ele>164.75032</ele>
        <time>2022-08-28T09:18:54Z</time>
      </trkpt>
      <trkpt lat="50.32394" lon="4.27924">
        <ele>164.913849</ele>
        <time>2022-08-28T09:18:56Z</time>
      </trkpt>
      <trkpt lat="50.32397" lon="4.27942">
        <ele>165.077347</ele>
        <time>2022-08-28T09:18:58Z</time>
      </trkpt>
      <trkpt lat="50.32401" lon="4.27961">
        <ele>164.888763</ele>
        <time>2022-08-28T09:19:00Z</time>
      </trkpt>
      <trkpt lat="50.32404" lon="4.2798">
        <ele>165.152924</ele>
        <time>2022-08-28T09:19:02Z</time>
      </trkpt>
      <trkpt lat="50.32407" lon="4.27999">
        <ele>165.056519</ele>
        <time>2022-08-28T09:19:04Z</time>
      </trkpt>
      <trkpt lat="50.3241" lon="4.28014">
        <ele>165.141022</ele>
        <time>2022-08-28T09:19:06Z</time>
      </trkpt>
      <trkpt lat="50.32412" lon="4.28029">
        <ele>165.101349</ele>
        <time>2022-08-28T09:19:08Z</time>
      </trkpt>
      <trkpt lat="50.32415" lon="4.28043">
        <ele>165.150848</ele>
        <time>2022-08-28T09:19:10Z</time>
      </trkpt>
      <trkpt lat="50.32418" lon="4.28057">
        <ele>165.03627</ele>
        <time>2022-08-28T09:19:12Z</time>
      </trkpt>
      <trkpt lat="50.3242" lon="4.2807">
        <ele>165.180664</ele>
        <time>2022-08-28T09:19:14Z</time>
      </trkpt>
      <trkpt lat="50.32423" lon="4.28085">
        <ele>165.151016</ele>
        <time>2022-08-28T09:19:16Z</time>
      </trkpt>
      <trkpt lat="50.32425" lon="4.281">
        <ele>165.056671</ele>
        <time>2022-08-28T09:19:18Z</time>
      </trkpt>
      <trkpt lat="50.32427" lon="4.28114">
        <ele>165.044083</ele>
        <time>2022-08-28T09:19:20Z</time>
      </trkpt>
      <trkpt lat="50.3243" lon="4.28128">
        <ele>165.098587</ele>
        <time>2022-08-28T09:19:22Z</time>
      </trkpt>
      <trkpt lat="50.32432" lon="4.28142">
        <ele>164.952179</ele>
        <time>2022-08-28T09:19:24Z</time>
      </trkpt>
      <trkpt lat="50.32435" lon="4.28155">
        <ele>165.096085</ele>
        <time>2022-08-28T09:19:26Z</time>
      </trkpt>
      <trkpt lat="50.32438" lon="4.28169">
        <ele>164.982986</ele>
        <time>2022-08-28T09:19:28Z</time>
      </trkpt>
      <trkpt lat="50.32441" lon="4.28183">
        <ele>165.01442</ele>
        <time>2022-08-28T09:19:30Z</time>
      </trkpt>
      <trkpt lat="50.32443" lon="4.28198">
        <ele>165.318314</ele>
        <time>2022-08-28T09:19:32Z</time>
      </trkpt>
      <trkpt lat="50.32445" lon="4.28213">
        <ele>165.325073</ele>
        <time>2022-08-28T09:19:34Z</time>
      </trkpt>
      <trkpt lat="50.32448" lon="4.28227">
        <ele>165.331192</ele>
        <time>2022-08-28T09:19:36Z</time>
      </trkpt>
      <trkpt lat="50.3245" lon="4.28241">
        <ele>165.373123</ele>
        <time>2022-08-28T09:19:38Z</time>
      </trkpt>
      <trkpt lat="50.32452" lon="4.28256">
        <ele>165.293457</ele>
        <time>2022-08-28T09:19:40Z</time>
      </trkpt>
      <trkpt lat="50.32455" lon="4.2827">
        <ele>165.528046</ele>
        <time>2022-08-28T09:19:42Z</time>
      </trkpt>
      <trkpt lat="50.32457" lon="4.28286">
        <ele>165.230362</ele>
        <time>2022-08-28T09:19:44Z</time>
      </trkpt>
      <trkpt lat="50.3246" lon="4.28303">
        <ele>165.316254</ele>
        <time>2022-08-28T09:19:46Z</time>
      </trkpt>
      <trkpt lat="50.32463" lon="4.28321">
        <ele>165.433151</ele>
        <time>2022-08-28T09:19:48Z</time>
      </trkpt>
      <trkpt lat="50.32466" lon="4.28338">
        <ele>165.297684</ele>
        <time>2022-08-28T09:19:50Z</time>
      </trkpt>
      <trkpt lat="50.32468" lon="4.28355">
        <ele>165.423492</ele>
        <time>2022-08-28T09:19:52Z</time>
      </trkpt>
      <trkpt lat="50.3247" lon="4.28372">
        <ele>165.28096</ele>
        <time>2022-08-28T09:19:54Z</time>
      </trkpt>
      <trkpt lat="50.32473" lon="4.28387">
        <ele>164.968964</ele>
        <time>2022-08-28T09:19:56Z</time>
      </trkpt>
      <trkpt lat="50.32475" lon="4.28399">
        <ele>164.811768</ele>
        <time>2022-08-28T09:19:58Z</time>
      </trkpt>
      <trkpt lat="50.32478" lon="4.28412">
        <ele>164.560272</ele>
        <time>2022-08-28T09:20:00Z</time>
      </trkpt>
      <trkpt lat="50.32481" lon="4.28424">
        <ele>164.388397</ele>
        <time>2022-08-28T09:20:02Z</time>
      </trkpt>
      <trkpt lat="50.32484" lon="4.28436">
        <ele>164.233887</ele>
        <time>2022-08-28T09:20:04Z</time>
      </trkpt>
      <trkpt lat="50.32487" lon="4.28446">
        <ele>163.991592</ele>
        <time>2022-08-28T09:20:06Z</time>
      </trkpt>
      <trkpt lat="50.32491" lon="4.28455">
        <ele>163.639465</ele>
        <time>2022-08-28T09:20:08Z</time>
      </trkpt>
      <trkpt lat="50.32494" lon="4.28465">
        <ele>163.205673</ele>
        <time>2022-08-28T09:20:10Z</time>
      </trkpt>
      <trkpt lat="50.32501" lon="4.28472">
        <ele>163.025436</ele>
        <time>2022-08-28T09:20:12Z</time>
      </trkpt>
      <trkpt lat="50.32508" lon="4.28479">
        <ele>162.69635</ele>
        <time>2022-08-28T09:20:14Z</time>
      </trkpt>
      <trkpt lat="50.32517" lon="4.28486">
        <ele>162.088226</ele>
        <time>2022-08-28T09:20:16Z</time>
      </trkpt>
      <trkpt lat="50.32525" lon="4.28489">
        <ele>162.07814</ele>
        <time>2022-08-28T09:20:18Z</time>
      </trkpt>
      <trkpt lat="50.32533" lon="4.28493">
        <ele>161.550018</ele>
        <time>2022-08-28T09:20:20Z</time>
      </trkpt>
      <trkpt lat="50.32542" lon="4.28496">
        <ele>161.074783</ele>
        <time>2022-08-28T09:20:22Z</time>
      </trkpt>
      <trkpt lat="50.32551" lon="4.28501">
        <ele>160.622314</ele>
        <time>2022-08-28T09:20:24Z</time>
      </trkpt>
      <trkpt lat="50.3256" lon="4.28505">
        <ele>160.1091</ele>
        <time>2022-08-28T09:20:26Z</time>
      </trkpt>
      <trkpt lat="50.32569" lon="4.28509">
        <ele>159.392502</ele>
        <time>2022-08-28T09:20:28Z</time>
      </trkpt>
      <trkpt lat="50.3258" lon="4.28512">
        <ele>158.858246</ele>
        <time>2022-08-28T09:20:30Z</time>
      </trkpt>
      <trkpt lat="50.32591" lon="4.28516">
        <ele>158.303192</ele>
        <time>2022-08-28T09:20:32Z</time>
      </trkpt>
      <trkpt lat="50.32604" lon="4.28517">
        <ele>157.578461</ele>
        <time>2022-08-28T09:20:34Z</time>
      </trkpt>
      <trkpt lat="50.32617" lon="4.28517">
        <ele>156.943787</ele>
        <time>2022-08-28T09:20:36Z</time>
      </trkpt>
      <trkpt lat="50.32629" lon="4.28518">
        <ele>156.372101</ele>
        <time>2022-08-28T09:20:38Z</time>
      </trkpt>
      <trkpt lat="50.32639" lon="4.28517">
        <ele>155.725815</ele>
        <time>2022-08-28T09:20:40Z</time>
      </trkpt>
      <trkpt lat="50.32649" lon="4.28516">
        <ele>155.149109</ele>
        <time>2022-08-28T09:20:42Z</time>
      </trkpt>
      <trkpt lat="50.32659" lon="4.28514">
        <ele>154.437073</ele>
        <time>2022-08-28T09:20:44Z</time>
      </trkpt>
      <trkpt lat="50.32669" lon="4.28513">
        <ele>153.739777</ele>
        <time>2022-08-28T09:20:46Z</time>
      </trkpt>
      <trkpt lat="50.32682" lon="4.28512">
        <ele>153.202011</ele>
        <time>2022-08-28T09:20:48Z</time>
      </trkpt>
      <trkpt lat="50.32694" lon="4.28511">
        <ele>152.446381</ele>
        <time>2022-08-28T09:20:50Z</time>
      </trkpt>
      <trkpt lat="50.32706" lon="4.28511">
        <ele>151.843369</ele>
        <time>2022-08-28T09:20:52Z</time>
      </trkpt>
      <trkpt lat="50.32718" lon="4.28514">
        <ele>151.433044</ele>
        <time>2022-08-28T09:20:54Z</time>
      </trkpt>
      <trkpt lat="50.32729" lon="4.28518">
        <ele>150.735992</ele>
        <time>2022-08-28T09:20:56Z</time>
      </trkpt>
      <trkpt lat="50.32739" lon="4.28522">
        <ele>149.515045</ele>
        <time>2022-08-28T09:20:58Z</time>
      </trkpt>
      <trkpt lat="50.32746" lon="4.28526">
        <ele>148.920563</ele>
        <time>2022-08-28T09:21:00Z</time>
      </trkpt>
      <trkpt lat="50.32752" lon="4.2853">
        <ele>148.236221</ele>
        <time>2022-08-28T09:21:02Z</time>
      </trkpt>
      <trkpt lat="50.32758" lon="4.28534">
        <ele>147.587143</ele>
        <time>2022-08-28T09:21:04Z</time>
      </trkpt>
      <trkpt lat="50.32766" lon="4.28538">
        <ele>146.800156</ele>
        <time>2022-08-28T09:21:06Z</time>
      </trkpt>
      <trkpt lat="50.32775" lon="4.2854">
        <ele>146.373306</ele>
        <time>2022-08-28T09:21:08Z</time>
      </trkpt>
      <trkpt lat="50.32782" lon="4.2854">
        <ele>145.550964</ele>
        <time>2022-08-28T09:21:10Z</time>
      </trkpt>
      <trkpt lat="50.32789" lon="4.2854">
        <ele>145.111542</ele>
        <time>2022-08-28T09:21:12Z</time>
      </trkpt>
      <trkpt lat="50.32799" lon="4.28543">
        <ele>144.594757</ele>
        <time>2022-08-28T09:21:14Z</time>
      </trkpt>
      <trkpt lat="50.32808" lon="4.28545">
        <ele>144.156586</ele>
        <time>2022-08-28T09:21:16Z</time>
      </trkpt>
      <trkpt lat="50.32818" lon="4.28549">
        <ele>143.827118</ele>
        <time>2022-08-28T09:21:18Z</time>
      </trkpt>
      <trkpt lat="50.32829" lon="4.28554">
        <ele>143.438995</ele>
        <time>2022-08-28T09:21:20Z</time>
      </trkpt>
      <trkpt lat="50.3284" lon="4.28561">
        <ele>142.881699</ele>
        <time>2022-08-28T09:21:22Z</time>
      </trkpt>
      <trkpt lat="50.32851" lon="4.28568">
        <ele>142.405487</ele>
        <time>2022-08-28T09:21:24Z</time>
      </trkpt>
      <trkpt lat="50.32863" lon="4.28572">
        <ele>142.095856</ele>
        <time>2022-08-28T09:21:26Z</time>
      </trkpt>
      <trkpt lat="50.32876" lon="4.28575">
        <ele>141.700531</ele>
        <time>2022-08-28T09:21:28Z</time>
      </trkpt>
      <trkpt lat="50.32889" lon="4.28578">
        <ele>141.484741</ele>
        <time>2022-08-28T09:21:30Z</time>
      </trkpt>
      <trkpt lat="50.32901" lon="4.28583">
        <ele>141.170959</ele>
        <time>2022-08-28T09:21:32Z</time>
      </trkpt>
      <trkpt lat="50.32914" lon="4.2859">
        <ele>140.919998</ele>
        <time>2022-08-28T09:21:34Z</time>
      </trkpt>
      <trkpt lat="50.32928" lon="4.28597">
        <ele>140.81958</ele>
        <time>2022-08-28T09:21:36Z</time>
      </trkpt>
      <trkpt lat="50.32941" lon="4.28605">
        <ele>140.807022</ele>
        <time>2022-08-28T09:21:38Z</time>
      </trkpt>
      <trkpt lat="50.32954" lon="4.28615">
        <ele>140.612106</ele>
        <time>2022-08-28T09:21:40Z</time>
      </trkpt>
      <trkpt lat="50.32967" lon="4.28624">
        <ele>140.402313</ele>
        <time>2022-08-28T09:21:42Z</time>
      </trkpt>
      <trkpt lat="50.32979" lon="4.28634">
        <ele>140.214096</ele>
        <time>2022-08-28T09:21:44Z</time>
      </trkpt>
      <trkpt lat="50.32991" lon="4.28641">
        <ele>139.982025</ele>
        <time>2022-08-28T09:21:46Z</time>
      </trkpt>
      <trkpt lat="50.33002" lon="4.2865">
        <ele>139.931839</ele>
        <time>2022-08-28T09:21:48Z</time>
      </trkpt>
      <trkpt lat="50.33015" lon="4.28657">
        <ele>139.864914</ele>
        <time>2022-08-28T09:21:50Z</time>
      </trkpt>
      <trkpt lat="50.33028" lon="4.28661">
        <ele>139.762436</ele>
        <time>2022-08-28T09:21:52Z</time>
      </trkpt>
      <trkpt lat="50.33042" lon="4.28663">
        <ele>139.563782</ele>
        <time>2022-08-28T09:21:54Z</time>
      </trkpt>
      <trkpt lat="50.33056" lon="4.28661">
        <ele>139.29071</ele>
        <time>2022-08-28T09:21:56Z</time>
      </trkpt>
      <trkpt lat="50.3307" lon="4.28658">
        <ele>139.059586</ele>
        <time>2022-08-28T09:21:58Z</time>
      </trkpt>
      <trkpt lat="50.33083" lon="4.28656">
        <ele>138.783585</ele>
        <time>2022-08-28T09:22:00Z</time>
      </trkpt>
      <trkpt lat="50.33096" lon="4.28656">
        <ele>138.563019</ele>
        <time>2022-08-28T09:22:02Z</time>
      </trkpt>
      <trkpt lat="50.33109" lon="4.28655">
        <ele>138.383224</ele>
        <time>2022-08-28T09:22:04Z</time>
      </trkpt>
      <trkpt lat="50.3312" lon="4.28654">
        <ele>138.11174</ele>
        <time>2022-08-28T09:22:06Z</time>
      </trkpt>
      <trkpt lat="50.33133" lon="4.28654">
        <ele>137.965393</ele>
        <time>2022-08-28T09:22:08Z</time>
      </trkpt>
      <trkpt lat="50.33146" lon="4.28651">
        <ele>137.74379</ele>
        <time>2022-08-28T09:22:10Z</time>
      </trkpt>
      <trkpt lat="50.3316" lon="4.28647">
        <ele>137.354935</ele>
        <time>2022-08-28T09:22:12Z</time>
      </trkpt>
      <trkpt lat="50.33173" lon="4.28644">
        <ele>137.297379</ele>
        <time>2022-08-28T09:22:14Z</time>
      </trkpt>
      <trkpt lat="50.33186" lon="4.28644">
        <ele>136.93158</ele>
        <time>2022-08-28T09:22:16Z</time>
      </trkpt>
      <trkpt lat="50.33198" lon="4.28645">
        <ele>136.628754</ele>
        <time>2022-08-28T09:22:18Z</time>
      </trkpt>
      <trkpt lat="50.3321" lon="4.28648">
        <ele>136.323547</ele>
        <time>2022-08-28T09:22:20Z</time>
      </trkpt>
      <trkpt lat="50.33222" lon="4.28651">
        <ele>135.968643</ele>
        <time>2022-08-28T09:22:22Z</time>
      </trkpt>
      <trkpt lat="50.33233" lon="4.28657">
        <ele>135.580521</ele>
        <time>2022-08-28T09:22:24Z</time>
      </trkpt>
      <trkpt lat="50.33243" lon="4.28664">
        <ele>135.229355</ele>
        <time>2022-08-28T09:22:26Z</time>
      </trkpt>
      <trkpt lat="50.33252" lon="4.28674">
        <ele>134.890747</ele>
        <time>2022-08-28T09:22:28Z</time>
      </trkpt>
      <trkpt lat="50.3326" lon="4.28687">
        <ele>134.499374</ele>
        <time>2022-08-28T09:22:30Z</time>
      </trkpt>
      <trkpt lat="50.33267" lon="4.287">
        <ele>134.035416</ele>
        <time>2022-08-28T09:22:32Z</time>
      </trkpt>
      <trkpt lat="50.33274" lon="4.28716">
        <ele>133.554779</ele>
        <time>2022-08-28T09:22:34Z</time>
      </trkpt>
      <trkpt lat="50.33279" lon="4.28731">
        <ele>133.230972</ele>
        <time>2022-08-28T09:22:36Z</time>
      </trkpt>
      <trkpt lat="50.33284" lon="4.28746">
        <ele>132.827316</ele>
        <time>2022-08-28T09:22:38Z</time>
      </trkpt>
      <trkpt lat="50.33289" lon="4.28762">
        <ele>132.461624</ele>
        <time>2022-08-28T09:22:40Z</time>
      </trkpt>
      <trkpt lat="50.33294" lon="4.28777">
        <ele>132.039536</ele>
        <time>2022-08-28T09:22:42Z</time>
      </trkpt>
      <trkpt lat="50.33299" lon="4.2879">
        <ele>131.613251</ele>
        <time>2022-08-28T09:22:44Z</time>
      </trkpt>
      <trkpt lat="50.33304" lon="4.288">
        <ele>131.34787</ele>
        <time>2022-08-28T09:22:46Z</time>
      </trkpt>
      <trkpt lat="50.33309" lon="4.2881">
        <ele>130.917084</ele>
        <time>2022-08-28T09:22:48Z</time>
      </trkpt>
      <trkpt lat="50.33316" lon="4.28819">
        <ele>130.624542</ele>
        <time>2022-08-28T09:22:50Z</time>
      </trkpt>
      <trkpt lat="50.33325" lon="4.28827">
        <ele>130.474091</ele>
        <time>2022-08-28T09:22:52Z</time>
      </trkpt>
      <trkpt lat="50.33334" lon="4.28834">
        <ele>130.254684</ele>
        <time>2022-08-28T09:22:54Z</time>
      </trkpt>
      <trkpt lat="50.33342" lon="4.28844">
        <ele>130.05101</ele>
        <time>2022-08-28T09:22:56Z</time>
      </trkpt>
      <trkpt lat="50.3335" lon="4.28854">
        <ele>129.883865</ele>
        <time>2022-08-28T09:22:58Z</time>
      </trkpt>
      <trkpt lat="50.33356" lon="4.28862">
        <ele>129.68924</ele>
        <time>2022-08-28T09:23:00Z</time>
      </trkpt>
      <trkpt lat="50.33362" lon="4.28868">
        <ele>129.555923</ele>
        <time>2022-08-28T09:23:02Z</time>
      </trkpt>
      <trkpt lat="50.3337" lon="4.28873">
        <ele>129.361389</ele>
        <time>2022-08-28T09:23:04Z</time>
      </trkpt>
      <trkpt lat="50.33377" lon="4.28877">
        <ele>129.261108</ele>
        <time>2022-08-28T09:23:06Z</time>
      </trkpt>
      <trkpt lat="50.33386" lon="4.2888">
        <ele>129.219315</ele>
        <time>2022-08-28T09:23:08Z</time>
      </trkpt>
      <trkpt lat="50.33397" lon="4.28882">
        <ele>129.111191</ele>
        <time>2022-08-28T09:23:10Z</time>
      </trkpt>
      <trkpt lat="50.33408" lon="4.28884">
        <ele>129.067322</ele>
        <time>2022-08-28T09:23:12Z</time>
      </trkpt>
      <trkpt lat="50.3342" lon="4.28887">
        <ele>129.054779</ele>
        <time>2022-08-28T09:23:14Z</time>
      </trkpt>
      <trkpt lat="50.33431" lon="4.28889">
        <ele>129.049515</ele>
        <time>2022-08-28T09:23:16Z</time>
      </trkpt>
      <trkpt lat="50.33442" lon="4.28891">
        <ele>129.037323</ele>
        <time>2022-08-28T09:23:18Z</time>
      </trkpt>
      <trkpt lat="50.33453" lon="4.28893">
        <ele>129.037323</ele>
        <time>2022-08-28T09:23:20Z</time>
      </trkpt>
      <trkpt lat="50.33463" lon="4.28895">
        <ele>129.099701</ele>
        <time>2022-08-28T09:23:22Z</time>
      </trkpt>
      <trkpt lat="50.33474" lon="4.28896">
        <ele>129.222946</ele>
        <time>2022-08-28T09:23:24Z</time>
      </trkpt>
      <trkpt lat="50.33483" lon="4.28896">
        <ele>129.304413</ele>
        <time>2022-08-28T09:23:26Z</time>
      </trkpt>
      <trkpt lat="50.33493" lon="4.28899">
        <ele>129.312805</ele>
        <time>2022-08-28T09:23:28Z</time>
      </trkpt>
      <trkpt lat="50.33503" lon="4.28902">
        <ele>129.378662</ele>
        <time>2022-08-28T09:23:30Z</time>
      </trkpt>
      <trkpt lat="50.33513" lon="4.28906">
        <ele>129.487305</ele>
        <time>2022-08-28T09:23:32Z</time>
      </trkpt>
      <trkpt lat="50.33522" lon="4.28911">
        <ele>129.501404</ele>
        <time>2022-08-28T09:23:34Z</time>
      </trkpt>
      <trkpt lat="50.3353" lon="4.28917">
        <ele>129.530655</ele>
        <time>2022-08-28T09:23:36Z</time>
      </trkpt>
      <trkpt lat="50.3354" lon="4.28922">
        <ele>129.449188</ele>
        <time>2022-08-28T09:23:38Z</time>
      </trkpt>
      <trkpt lat="50.33548" lon="4.28928">
        <ele>129.50769</ele>
        <time>2022-08-28T09:23:40Z</time>
      </trkpt>
      <trkpt lat="50.33558" lon="4.28934">
        <ele>129.519836</ele>
        <time>2022-08-28T09:23:42Z</time>
      </trkpt>
      <trkpt lat="50.33571" lon="4.28939">
        <ele>129.503113</ele>
        <time>2022-08-28T09:23:44Z</time>
      </trkpt>
      <trkpt lat="50.33583" lon="4.28941">
        <ele>129.488235</ele>
        <time>2022-08-28T09:23:46Z</time>
      </trkpt>
      <trkpt lat="50.33593" lon="4.28948">
        <ele>129.354553</ele>
        <time>2022-08-28T09:23:48Z</time>
      </trkpt>
      <trkpt lat="50.33599" lon="4.2896">
        <ele>129.350372</ele>
        <time>2022-08-28T09:23:50Z</time>
      </trkpt>
      <trkpt lat="50.33601" lon="4.28969">
        <ele>129.271011</ele>
        <time>2022-08-28T09:23:52Z</time>
      </trkpt>
      <trkpt lat="50.33603" lon="4.28976">
        <ele>129.220886</ele>
        <time>2022-08-28T09:23:54Z</time>
      </trkpt>
      <trkpt lat="50.33606" lon="4.28986">
        <ele>129.077728</ele>
        <time>2022-08-28T09:23:56Z</time>
      </trkpt>
      <trkpt lat="50.33608" lon="4.28996">
        <ele>129.092361</ele>
        <time>2022-08-28T09:23:58Z</time>
      </trkpt>
      <trkpt lat="50.33609" lon="4.29008">
        <ele>128.962845</ele>
        <time>2022-08-28T09:24:00Z</time>
      </trkpt>
      <trkpt lat="50.33611" lon="4.29014">
        <ele>128.871872</ele>
        <time>2022-08-28T09:24:02Z</time>
      </trkpt>
      <trkpt lat="50.33612" lon="4.29019">
        <ele>128.721466</ele>
        <time>2022-08-28T09:24:04Z</time>
      </trkpt>
      <trkpt lat="50.33614" lon="4.29024">
        <ele>128.485443</ele>
        <time>2022-08-28T09:24:06Z</time>
      </trkpt>
      <trkpt lat="50.33616" lon="4.29029">
        <ele>128.362213</ele>
        <time>2022-08-28T09:24:08Z</time>
      </trkpt>
      <trkpt lat="50.33617" lon="4.29033">
        <ele>128.172089</ele>
        <time>2022-08-28T09:24:10Z</time>
      </trkpt>
      <trkpt lat="50.33617" lon="4.29038">
        <ele>127.970459</ele>
        <time>2022-08-28T09:24:12Z</time>
      </trkpt>
      <trkpt lat="50.33618" lon="4.29043">
        <ele>127.918747</ele>
        <time>2022-08-28T09:24:14Z</time>
      </trkpt>
      <trkpt lat="50.33619" lon="4.29049">
        <ele>127.876976</ele>
        <time>2022-08-28T09:24:16Z</time>
      </trkpt>
      <trkpt lat="50.3362" lon="4.29055">
        <ele>127.76001</ele>
        <time>2022-08-28T09:24:18Z</time>
      </trkpt>
      <trkpt lat="50.33618" lon="4.29058">
        <ele>127.653488</ele>
        <time>2022-08-28T09:24:20Z</time>
      </trkpt>
      <trkpt lat="50.33617" lon="4.29063">
        <ele>127.415359</ele>
        <time>2022-08-28T09:24:22Z</time>
      </trkpt>
      <trkpt lat="50.33616" lon="4.29068">
        <ele>127.325539</ele>
        <time>2022-08-28T09:24:24Z</time>
      </trkpt>
      <trkpt lat="50.33616" lon="4.29072">
        <ele>127.300461</ele>
        <time>2022-08-28T09:24:26Z</time>
      </trkpt>
      <trkpt lat="50.33615" lon="4.29075">
        <ele>127.267532</ele>
        <time>2022-08-28T09:24:28Z</time>
      </trkpt>
      <trkpt lat="50.33614" lon="4.29079">
        <ele>127.219482</ele>
        <time>2022-08-28T09:24:30Z</time>
      </trkpt>
      <trkpt lat="50.33614" lon="4.29084">
        <ele>127.192337</ele>
        <time>2022-08-28T09:24:32Z</time>
      </trkpt>
      <trkpt lat="50.33613" lon="4.29087">
        <ele>127.192772</ele>
        <time>2022-08-28T09:24:34Z</time>
      </trkpt>
      <trkpt lat="50.33611" lon="4.29089">
        <ele>127.178146</ele>
        <time>2022-08-28T09:24:36Z</time>
      </trkpt>
      <trkpt lat="50.33609" lon="4.29091">
        <ele>127.290932</ele>
        <time>2022-08-28T09:24:38Z</time>
      </trkpt>
      <trkpt lat="50.33606" lon="4.29093">
        <ele>127.276306</ele>
        <time>2022-08-28T09:24:40Z</time>
      </trkpt>
      <trkpt lat="50.33606" lon="4.29096">
        <ele>127.380089</ele>
        <time>2022-08-28T09:24:42Z</time>
      </trkpt>
      <trkpt lat="50.33604" lon="4.29099">
        <ele>127.453201</ele>
        <time>2022-08-28T09:24:44Z</time>
      </trkpt>
      <trkpt lat="50.33603" lon="4.29101">
        <ele>127.536743</ele>
        <time>2022-08-28T09:24:46Z</time>
      </trkpt>
      <trkpt lat="50.33602" lon="4.29104">
        <ele>127.79158</ele>
        <time>2022-08-28T09:24:48Z</time>
      </trkpt>
      <trkpt lat="50.336" lon="4.29108">
        <ele>128.025528</ele>
        <time>2022-08-28T09:24:50Z</time>
      </trkpt>
      <trkpt lat="50.33599" lon="4.29111">
        <ele>128.259491</ele>
        <time>2022-08-28T09:24:52Z</time>
      </trkpt>
      <trkpt lat="50.33598" lon="4.29114">
        <ele>128.443329</ele>
        <time>2022-08-28T09:24:54Z</time>
      </trkpt>
      <trkpt lat="50.33597" lon="4.29118">
        <ele>128.533173</ele>
        <time>2022-08-28T09:24:56Z</time>
      </trkpt>
      <trkpt lat="50.33597" lon="4.29121">
        <ele>128.702393</ele>
        <time>2022-08-28T09:24:58Z</time>
      </trkpt>
      <trkpt lat="50.33596" lon="4.29125">
        <ele>128.969772</ele>
        <time>2022-08-28T09:25:00Z</time>
      </trkpt>
      <trkpt lat="50.33595" lon="4.29128">
        <ele>129.260162</ele>
        <time>2022-08-28T09:25:02Z</time>
      </trkpt>
      <trkpt lat="50.33594" lon="4.29131">
        <ele>129.531403</ele>
        <time>2022-08-28T09:25:04Z</time>
      </trkpt>
      <trkpt lat="50.33593" lon="4.29134">
        <ele>129.767105</ele>
        <time>2022-08-28T09:25:06Z</time>
      </trkpt>
      <trkpt lat="50.33593" lon="4.29138">
        <ele>130.616058</ele>
        <time>2022-08-28T09:25:08Z</time>
      </trkpt>
      <trkpt lat="50.33592" lon="4.29142">
        <ele>130.910614</ele>
        <time>2022-08-28T09:25:10Z</time>
      </trkpt>
      <trkpt lat="50.33592" lon="4.29146">
        <ele>130.662384</ele>
        <time>2022-08-28T09:25:12Z</time>
      </trkpt>
      <trkpt lat="50.33591" lon="4.29152">
        <ele>130.912643</ele>
        <time>2022-08-28T09:25:14Z</time>
      </trkpt>
      <trkpt lat="50.3359" lon="4.29158">
        <ele>131.234406</ele>
        <time>2022-08-28T09:25:16Z</time>
      </trkpt>
      <trkpt lat="50.33585" lon="4.29178">
        <ele>131.56662</ele>
        <time>2022-08-28T09:25:18Z</time>
      </trkpt>
      <trkpt lat="50.33583" lon="4.29182">
        <ele>131.834076</ele>
        <time>2022-08-28T09:25:20Z</time>
      </trkpt>
      <trkpt lat="50.33583" lon="4.29186">
        <ele>132.172546</ele>
        <time>2022-08-28T09:25:22Z</time>
      </trkpt>
      <trkpt lat="50.33582" lon="4.2919">
        <ele>132.973495</ele>
        <time>2022-08-28T09:25:24Z</time>
      </trkpt>
      <trkpt lat="50.33581" lon="4.29193">
        <ele>133.349625</ele>
        <time>2022-08-28T09:25:26Z</time>
      </trkpt>
      <trkpt lat="50.3358" lon="4.29199">
        <ele>133.623367</ele>
        <time>2022-08-28T09:25:28Z</time>
      </trkpt>
      <trkpt lat="50.33579" lon="4.29205">
        <ele>133.769653</ele>
        <time>2022-08-28T09:25:30Z</time>
      </trkpt>
      <trkpt lat="50.33579" lon="4.29209">
        <ele>134.032303</ele>
        <time>2022-08-28T09:25:32Z</time>
      </trkpt>
      <trkpt lat="50.33578" lon="4.29212">
        <ele>134.316544</ele>
        <time>2022-08-28T09:25:34Z</time>
      </trkpt>
      <trkpt lat="50.33577" lon="4.29216">
        <ele>134.594513</ele>
        <time>2022-08-28T09:25:36Z</time>
      </trkpt>
      <trkpt lat="50.33577" lon="4.29221">
        <ele>134.916382</ele>
        <time>2022-08-28T09:25:38Z</time>
      </trkpt>
      <trkpt lat="50.33577" lon="4.29226">
        <ele>135.172516</ele>
        <time>2022-08-28T09:25:40Z</time>
      </trkpt>
      <trkpt lat="50.33576" lon="4.2923">
        <ele>135.509247</ele>
        <time>2022-08-28T09:25:42Z</time>
      </trkpt>
      <trkpt lat="50.33574" lon="4.29234">
        <ele>135.82695</ele>
        <time>2022-08-28T09:25:44Z</time>
      </trkpt>
      <trkpt lat="50.33574" lon="4.29238">
        <ele>136.184738</ele>
        <time>2022-08-28T09:25:46Z</time>
      </trkpt>
      <trkpt lat="50.33572" lon="4.29242">
        <ele>136.39621</ele>
        <time>2022-08-28T09:25:48Z</time>
      </trkpt>
      <trkpt lat="50.3357" lon="4.29245">
        <ele>136.193039</ele>
        <time>2022-08-28T09:25:50Z</time>
      </trkpt>
      <trkpt lat="50.33571" lon="4.29252">
        <ele>137.018829</ele>
        <time>2022-08-28T09:25:52Z</time>
      </trkpt>
      <trkpt lat="50.3357" lon="4.29255">
        <ele>137.351212</ele>
        <time>2022-08-28T09:25:54Z</time>
      </trkpt>
      <trkpt lat="50.3357" lon="4.29258">
        <ele>137.68779</ele>
        <time>2022-08-28T09:25:56Z</time>
      </trkpt>
      <trkpt lat="50.33569" lon="4.29262">
        <ele>138.003494</ele>
        <time>2022-08-28T09:25:58Z</time>
      </trkpt>
      <trkpt lat="50.33569" lon="4.29266">
        <ele>138.333817</ele>
        <time>2022-08-28T09:26:00Z</time>
      </trkpt>
      <trkpt lat="50.3357" lon="4.29269">
        <ele>138.724792</ele>
        <time>2022-08-28T09:26:02Z</time>
      </trkpt>
      <trkpt lat="50.33569" lon="4.29274">
        <ele>138.550934</ele>
        <time>2022-08-28T09:26:04Z</time>
      </trkpt>
      <trkpt lat="50.33568" lon="4.29279">
        <ele>138.709839</ele>
        <time>2022-08-28T09:26:06Z</time>
      </trkpt>
      <trkpt lat="50.33567" lon="4.29285">
        <ele>138.992111</ele>
        <time>2022-08-28T09:26:08Z</time>
      </trkpt>
      <trkpt lat="50.33566" lon="4.2929">
        <ele>139.349487</ele>
        <time>2022-08-28T09:26:10Z</time>
      </trkpt>
      <trkpt lat="50.33564" lon="4.29293">
        <ele>139.655441</ele>
        <time>2022-08-28T09:26:12Z</time>
      </trkpt>
      <trkpt lat="50.33563" lon="4.29296">
        <ele>139.948074</ele>
        <time>2022-08-28T09:26:14Z</time>
      </trkpt>
      <trkpt lat="50.33563" lon="4.29299">
        <ele>140.278473</ele>
        <time>2022-08-28T09:26:16Z</time>
      </trkpt>
      <trkpt lat="50.3356" lon="4.29304">
        <ele>140.939987</ele>
        <time>2022-08-28T09:26:20Z</time>
      </trkpt>
      <trkpt lat="50.33559" lon="4.29308">
        <ele>141.193756</ele>
        <time>2022-08-28T09:26:22Z</time>
      </trkpt>
      <trkpt lat="50.33558" lon="4.29312">
        <ele>141.544937</ele>
        <time>2022-08-28T09:26:24Z</time>
      </trkpt>
      <trkpt lat="50.33558" lon="4.29317">
        <ele>141.821014</ele>
        <time>2022-08-28T09:26:26Z</time>
      </trkpt>
      <trkpt lat="50.33558" lon="4.29322">
        <ele>142.182846</ele>
        <time>2022-08-28T09:26:28Z</time>
      </trkpt>
      <trkpt lat="50.33559" lon="4.29328">
        <ele>142.515396</ele>
        <time>2022-08-28T09:26:30Z</time>
      </trkpt>
      <trkpt lat="50.33559" lon="4.29334">
        <ele>142.861847</ele>
        <time>2022-08-28T09:26:32Z</time>
      </trkpt>
      <trkpt lat="50.33559" lon="4.29345">
        <ele>143.217468</ele>
        <time>2022-08-28T09:26:34Z</time>
      </trkpt>
      <trkpt lat="50.33558" lon="4.2935">
        <ele>143.524979</ele>
        <time>2022-08-28T09:26:36Z</time>
      </trkpt>
      <trkpt lat="50.33558" lon="4.29356">
        <ele>143.820831</ele>
        <time>2022-08-28T09:26:38Z</time>
      </trkpt>
      <trkpt lat="50.33558" lon="4.29361">
        <ele>144.166016</ele>
        <time>2022-08-28T09:26:40Z</time>
      </trkpt>
      <trkpt lat="50.33557" lon="4.29363">
        <ele>144.454727</ele>
        <time>2022-08-28T09:26:42Z</time>
      </trkpt>
      <trkpt lat="50.33556" lon="4.29369">
        <ele>144.758087</ele>
        <time>2022-08-28T09:26:44Z</time>
      </trkpt>
      <trkpt lat="50.33555" lon="4.29372">
        <ele>145.047195</ele>
        <time>2022-08-28T09:26:46Z</time>
      </trkpt>
      <trkpt lat="50.33553" lon="4.29376">
        <ele>145.373566</ele>
        <time>2022-08-28T09:26:48Z</time>
      </trkpt>
      <trkpt lat="50.33552" lon="4.29381">
        <ele>145.557861</ele>
        <time>2022-08-28T09:26:50Z</time>
      </trkpt>
      <trkpt lat="50.33553" lon="4.29384">
        <ele>145.825653</ele>
        <time>2022-08-28T09:26:52Z</time>
      </trkpt>
      <trkpt lat="50.33553" lon="4.29387">
        <ele>146.135468</ele>
        <time>2022-08-28T09:26:54Z</time>
      </trkpt>
      <trkpt lat="50.33553" lon="4.29391">
        <ele>146.432587</ele>
        <time>2022-08-28T09:26:56Z</time>
      </trkpt>
      <trkpt lat="50.33553" lon="4.29394">
        <ele>146.771011</ele>
        <time>2022-08-28T09:26:58Z</time>
      </trkpt>
      <trkpt lat="50.33552" lon="4.294">
        <ele>147.095306</ele>
        <time>2022-08-28T09:27:00Z</time>
      </trkpt>
      <trkpt lat="50.33551" lon="4.29404">
        <ele>147.369659</ele>
        <time>2022-08-28T09:27:02Z</time>
      </trkpt>
      <trkpt lat="50.3355" lon="4.29409">
        <ele>147.647964</ele>
        <time>2022-08-28T09:27:04Z</time>
      </trkpt>
      <trkpt lat="50.33548" lon="4.29413">
        <ele>147.920013</ele>
        <time>2022-08-28T09:27:06Z</time>
      </trkpt>
      <trkpt lat="50.33548" lon="4.29419">
        <ele>148.183701</ele>
        <time>2022-08-28T09:27:08Z</time>
      </trkpt>
      <trkpt lat="50.33548" lon="4.29424">
        <ele>148.489258</ele>
        <time>2022-08-28T09:27:10Z</time>
      </trkpt>
      <trkpt lat="50.33547" lon="4.29429">
        <ele>148.801102</ele>
        <time>2022-08-28T09:27:12Z</time>
      </trkpt>
      <trkpt lat="50.33546" lon="4.29434">
        <ele>149.026245</ele>
        <time>2022-08-28T09:27:14Z</time>
      </trkpt>
      <trkpt lat="50.33546" lon="4.29439">
        <ele>149.280273</ele>
        <time>2022-08-28T09:27:16Z</time>
      </trkpt>
      <trkpt lat="50.33545" lon="4.29449">
        <ele>149.579575</ele>
        <time>2022-08-28T09:27:18Z</time>
      </trkpt>
      <trkpt lat="50.33544" lon="4.29454">
        <ele>149.924042</ele>
        <time>2022-08-28T09:27:20Z</time>
      </trkpt>
      <trkpt lat="50.33545" lon="4.29458">
        <ele>150.235947</ele>
        <time>2022-08-28T09:27:22Z</time>
      </trkpt>
      <trkpt lat="50.33545" lon="4.29461">
        <ele>150.566681</ele>
        <time>2022-08-28T09:27:24Z</time>
      </trkpt>
      <trkpt lat="50.33544" lon="4.29465">
        <ele>150.884491</ele>
        <time>2022-08-28T09:27:26Z</time>
      </trkpt>
      <trkpt lat="50.33544" lon="4.29469">
        <ele>151.139862</ele>
        <time>2022-08-28T09:27:28Z</time>
      </trkpt>
      <trkpt lat="50.33544" lon="4.29474">
        <ele>151.259186</ele>
        <time>2022-08-28T09:27:30Z</time>
      </trkpt>
      <trkpt lat="50.33543" lon="4.29479">
        <ele>151.564117</ele>
        <time>2022-08-28T09:27:32Z</time>
      </trkpt>
      <trkpt lat="50.33543" lon="4.29483">
        <ele>151.882141</ele>
        <time>2022-08-28T09:27:34Z</time>
      </trkpt>
      <trkpt lat="50.33545" lon="4.29487">
        <ele>152.185699</ele>
        <time>2022-08-28T09:27:36Z</time>
      </trkpt>
      <trkpt lat="50.33544" lon="4.29491">
        <ele>152.432755</ele>
        <time>2022-08-28T09:27:38Z</time>
      </trkpt>
      <trkpt lat="50.33544" lon="4.29496">
        <ele>152.707047</ele>
        <time>2022-08-28T09:27:40Z</time>
      </trkpt>
      <trkpt lat="50.33543" lon="4.295">
        <ele>152.451996</ele>
        <time>2022-08-28T09:27:42Z</time>
      </trkpt>
      <trkpt lat="50.33543" lon="4.29504">
        <ele>152.713684</ele>
        <time>2022-08-28T09:27:44Z</time>
      </trkpt>
      <trkpt lat="50.33543" lon="4.29509">
        <ele>153.008911</ele>
        <time>2022-08-28T09:27:46Z</time>
      </trkpt>
      <trkpt lat="50.33543" lon="4.29514">
        <ele>153.3293</ele>
        <time>2022-08-28T09:27:48Z</time>
      </trkpt>
      <trkpt lat="50.33542" lon="4.29519">
        <ele>153.674805</ele>
        <time>2022-08-28T09:27:50Z</time>
      </trkpt>
      <trkpt lat="50.33541" lon="4.29523">
        <ele>153.953339</ele>
        <time>2022-08-28T09:27:52Z</time>
      </trkpt>
      <trkpt lat="50.33542" lon="4.29526">
        <ele>154.306061</ele>
        <time>2022-08-28T09:27:54Z</time>
      </trkpt>
      <trkpt lat="50.33542" lon="4.2953">
        <ele>154.613907</ele>
        <time>2022-08-28T09:27:56Z</time>
      </trkpt>
      <trkpt lat="50.33542" lon="4.29535">
        <ele>155.003448</ele>
        <time>2022-08-28T09:27:58Z</time>
      </trkpt>
      <trkpt lat="50.33542" lon="4.29539">
        <ele>155.290405</ele>
        <time>2022-08-28T09:28:00Z</time>
      </trkpt>
      <trkpt lat="50.3354" lon="4.29543">
        <ele>155.625534</ele>
        <time>2022-08-28T09:28:02Z</time>
      </trkpt>
      <trkpt lat="50.33539" lon="4.29548">
        <ele>155.979523</ele>
        <time>2022-08-28T09:28:04Z</time>
      </trkpt>
      <trkpt lat="50.33538" lon="4.29552">
        <ele>156.153366</ele>
        <time>2022-08-28T09:28:06Z</time>
      </trkpt>
      <trkpt lat="50.33534" lon="4.29559">
        <ele>158.772064</ele>
        <time>2022-08-28T09:28:46Z</time>
      </trkpt>
      <trkpt lat="50.33528" lon="4.29565">
        <ele>158.493469</ele>
        <time>2022-08-28T09:28:48Z</time>
      </trkpt>
      <trkpt lat="50.33522" lon="4.29569">
        <ele>158.179276</ele>
        <time>2022-08-28T09:28:50Z</time>
      </trkpt>
      <trkpt lat="50.33516" lon="4.29574">
        <ele>157.900742</ele>
        <time>2022-08-28T09:28:52Z</time>
      </trkpt>
      <trkpt lat="50.33509" lon="4.29583">
        <ele>157.55722</ele>
        <time>2022-08-28T09:28:54Z</time>
      </trkpt>
      <trkpt lat="50.33502" lon="4.29595">
        <ele>157.199066</ele>
        <time>2022-08-28T09:28:56Z</time>
      </trkpt>
      <trkpt lat="50.33495" lon="4.29609">
        <ele>156.817017</ele>
        <time>2022-08-28T09:28:58Z</time>
      </trkpt>
      <trkpt lat="50.33487" lon="4.29625">
        <ele>156.613861</ele>
        <time>2022-08-28T09:29:00Z</time>
      </trkpt>
      <trkpt lat="50.3348" lon="4.29643">
        <ele>156.271317</ele>
        <time>2022-08-28T09:29:02Z</time>
      </trkpt>
      <trkpt lat="50.33472" lon="4.29662">
        <ele>155.902924</ele>
        <time>2022-08-28T09:29:04Z</time>
      </trkpt>
      <trkpt lat="50.33467" lon="4.29681">
        <ele>155.572876</ele>
        <time>2022-08-28T09:29:06Z</time>
      </trkpt>
      <trkpt lat="50.33461" lon="4.29695">
        <ele>155.273361</ele>
        <time>2022-08-28T09:29:08Z</time>
      </trkpt>
      <trkpt lat="50.33456" lon="4.29707">
        <ele>155.009476</ele>
        <time>2022-08-28T09:29:10Z</time>
      </trkpt>
      <trkpt lat="50.33453" lon="4.29716">
        <ele>154.791656</ele>
        <time>2022-08-28T09:29:12Z</time>
      </trkpt>
      <trkpt lat="50.3345" lon="4.29725">
        <ele>154.58432</ele>
        <time>2022-08-28T09:29:14Z</time>
      </trkpt>
      <trkpt lat="50.33446" lon="4.29733">
        <ele>154.477509</ele>
        <time>2022-08-28T09:29:16Z</time>
      </trkpt>
      <trkpt lat="50.33442" lon="4.2974">
        <ele>154.311325</ele>
        <time>2022-08-28T09:29:18Z</time>
      </trkpt>
      <trkpt lat="50.33438" lon="4.29746">
        <ele>154.226181</ele>
        <time>2022-08-28T09:29:20Z</time>
      </trkpt>
      <trkpt lat="50.33433" lon="4.29751">
        <ele>154.198959</ele>
        <time>2022-08-28T09:29:22Z</time>
      </trkpt>
      <trkpt lat="50.3343" lon="4.29756">
        <ele>154.222</ele>
        <time>2022-08-28T09:29:24Z</time>
      </trkpt>
      <trkpt lat="50.33424" lon="4.29755">
        <ele>154.299484</ele>
        <time>2022-08-28T09:29:26Z</time>
      </trkpt>
      <trkpt lat="50.33421" lon="4.29749">
        <ele>154.439819</ele>
        <time>2022-08-28T09:29:28Z</time>
      </trkpt>
      <trkpt lat="50.33419" lon="4.29742">
        <ele>154.628326</ele>
        <time>2022-08-28T09:29:30Z</time>
      </trkpt>
      <trkpt lat="50.33417" lon="4.29735">
        <ele>154.841888</ele>
        <time>2022-08-28T09:29:32Z</time>
      </trkpt>
      <trkpt lat="50.33415" lon="4.29729">
        <ele>155.133026</ele>
        <time>2022-08-28T09:29:34Z</time>
      </trkpt>
      <trkpt lat="50.33413" lon="4.29722">
        <ele>155.537292</ele>
        <time>2022-08-28T09:29:36Z</time>
      </trkpt>
      <trkpt lat="50.3341" lon="4.29715">
        <ele>155.824997</ele>
        <time>2022-08-28T09:29:38Z</time>
      </trkpt>
      <trkpt lat="50.33407" lon="4.29707">
        <ele>156.25856</ele>
        <time>2022-08-28T09:29:40Z</time>
      </trkpt>
      <trkpt lat="50.33404" lon="4.297">
        <ele>156.440506</ele>
        <time>2022-08-28T09:29:42Z</time>
      </trkpt>
      <trkpt lat="50.33402" lon="4.29692">
        <ele>156.853134</ele>
        <time>2022-08-28T09:29:44Z</time>
      </trkpt>
      <trkpt lat="50.33397" lon="4.29687">
        <ele>157.261566</ele>
        <time>2022-08-28T09:29:46Z</time>
      </trkpt>
      <trkpt lat="50.33394" lon="4.29686">
        <ele>157.714035</ele>
        <time>2022-08-28T09:29:48Z</time>
      </trkpt>
      <trkpt lat="50.33389" lon="4.29687">
        <ele>158.116669</ele>
        <time>2022-08-28T09:29:50Z</time>
      </trkpt>
      <trkpt lat="50.33387" lon="4.29693">
        <ele>158.527252</ele>
        <time>2022-08-28T09:29:52Z</time>
      </trkpt>
      <trkpt lat="50.33388" lon="4.297">
        <ele>159.025818</ele>
        <time>2022-08-28T09:29:54Z</time>
      </trkpt>
      <trkpt lat="50.33388" lon="4.2971">
        <ele>159.453217</ele>
        <time>2022-08-28T09:29:56Z</time>
      </trkpt>
      <trkpt lat="50.33386" lon="4.29718">
        <ele>159.808472</ele>
        <time>2022-08-28T09:29:58Z</time>
      </trkpt>
      <trkpt lat="50.33385" lon="4.29728">
        <ele>160.272858</ele>
        <time>2022-08-28T09:30:00Z</time>
      </trkpt>
      <trkpt lat="50.33383" lon="4.2974">
        <ele>160.645782</ele>
        <time>2022-08-28T09:30:02Z</time>
      </trkpt>
      <trkpt lat="50.33382" lon="4.29751">
        <ele>161.012451</ele>
        <time>2022-08-28T09:30:04Z</time>
      </trkpt>
      <trkpt lat="50.3338" lon="4.29762">
        <ele>161.450409</ele>
        <time>2022-08-28T09:30:06Z</time>
      </trkpt>
      <trkpt lat="50.33378" lon="4.29775">
        <ele>161.836273</ele>
        <time>2022-08-28T09:30:08Z</time>
      </trkpt>
      <trkpt lat="50.33378" lon="4.29785">
        <ele>162.242844</ele>
        <time>2022-08-28T09:30:10Z</time>
      </trkpt>
      <trkpt lat="50.33376" lon="4.29797">
        <ele>162.673843</ele>
        <time>2022-08-28T09:30:12Z</time>
      </trkpt>
      <trkpt lat="50.33371" lon="4.29809">
        <ele>163.049744</ele>
        <time>2022-08-28T09:30:14Z</time>
      </trkpt>
      <trkpt lat="50.33366" lon="4.2982">
        <ele>163.261444</ele>
        <time>2022-08-28T09:30:16Z</time>
      </trkpt>
      <trkpt lat="50.3336" lon="4.2983">
        <ele>163.564331</ele>
        <time>2022-08-28T09:30:18Z</time>
      </trkpt>
      <trkpt lat="50.33355" lon="4.29838">
        <ele>163.97226</ele>
        <time>2022-08-28T09:30:20Z</time>
      </trkpt>
      <trkpt lat="50.33353" lon="4.29845">
        <ele>164.29715</ele>
        <time>2022-08-28T09:30:22Z</time>
      </trkpt>
      <trkpt lat="50.33355" lon="4.29849">
        <ele>164.643005</ele>
        <time>2022-08-28T09:30:24Z</time>
      </trkpt>
      <trkpt lat="50.33358" lon="4.29853">
        <ele>164.966827</ele>
        <time>2022-08-28T09:30:26Z</time>
      </trkpt>
      <trkpt lat="50.33358" lon="4.2986">
        <ele>165.291718</ele>
        <time>2022-08-28T09:30:28Z</time>
      </trkpt>
      <trkpt lat="50.33353" lon="4.29867">
        <ele>165.531464</ele>
        <time>2022-08-28T09:30:30Z</time>
      </trkpt>
      <trkpt lat="50.33349" lon="4.29875">
        <ele>165.816666</ele>
        <time>2022-08-28T09:30:32Z</time>
      </trkpt>
      <trkpt lat="50.33345" lon="4.29882">
        <ele>166.051437</ele>
        <time>2022-08-28T09:30:34Z</time>
      </trkpt>
      <trkpt lat="50.33341" lon="4.29889">
        <ele>166.242218</ele>
        <time>2022-08-28T09:30:36Z</time>
      </trkpt>
      <trkpt lat="50.33336" lon="4.29898">
        <ele>166.464035</ele>
        <time>2022-08-28T09:30:38Z</time>
      </trkpt>
      <trkpt lat="50.33332" lon="4.29906">
        <ele>166.72818</ele>
        <time>2022-08-28T09:30:40Z</time>
      </trkpt>
      <trkpt lat="50.33327" lon="4.29915">
        <ele>166.819977</ele>
        <time>2022-08-28T09:30:42Z</time>
      </trkpt>
      <trkpt lat="50.33323" lon="4.29923">
        <ele>167.004456</ele>
        <time>2022-08-28T09:30:44Z</time>
      </trkpt>
      <trkpt lat="50.33318" lon="4.29931">
        <ele>167.185944</ele>
        <time>2022-08-28T09:30:46Z</time>
      </trkpt>
      <trkpt lat="50.33314" lon="4.2994">
        <ele>167.259338</ele>
        <time>2022-08-28T09:30:48Z</time>
      </trkpt>
      <trkpt lat="50.3331" lon="4.29948">
        <ele>167.405792</ele>
        <time>2022-08-28T09:30:50Z</time>
      </trkpt>
      <trkpt lat="50.33305" lon="4.29956">
        <ele>167.479156</ele>
        <time>2022-08-28T09:30:52Z</time>
      </trkpt>
      <trkpt lat="50.33301" lon="4.29965">
        <ele>167.500885</ele>
        <time>2022-08-28T09:30:54Z</time>
      </trkpt>
      <trkpt lat="50.33296" lon="4.29973">
        <ele>167.569321</ele>
        <time>2022-08-28T09:30:56Z</time>
      </trkpt>
      <trkpt lat="50.33291" lon="4.29982">
        <ele>167.620667</ele>
        <time>2022-08-28T09:30:58Z</time>
      </trkpt>
      <trkpt lat="50.33287" lon="4.29991">
        <ele>167.675186</ele>
        <time>2022-08-28T09:31:00Z</time>
      </trkpt>
      <trkpt lat="50.33281" lon="4.3">
        <ele>167.74649</ele>
        <time>2022-08-28T09:31:02Z</time>
      </trkpt>
      <trkpt lat="50.33277" lon="4.30009">
        <ele>167.752777</ele>
        <time>2022-08-28T09:31:04Z</time>
      </trkpt>
      <trkpt lat="50.33273" lon="4.30019">
        <ele>167.803116</ele>
        <time>2022-08-28T09:31:06Z</time>
      </trkpt>
      <trkpt lat="50.33269" lon="4.30029">
        <ele>167.823044</ele>
        <time>2022-08-28T09:31:08Z</time>
      </trkpt>
      <trkpt lat="50.33266" lon="4.3004">
        <ele>167.97612</ele>
        <time>2022-08-28T09:31:10Z</time>
      </trkpt>
      <trkpt lat="50.33263" lon="4.3005">
        <ele>168.036453</ele>
        <time>2022-08-28T09:31:12Z</time>
      </trkpt>
      <trkpt lat="50.3326" lon="4.30061">
        <ele>168.103577</ele>
        <time>2022-08-28T09:31:14Z</time>
      </trkpt>
      <trkpt lat="50.33256" lon="4.30071">
        <ele>168.281815</ele>
        <time>2022-08-28T09:31:16Z</time>
      </trkpt>
      <trkpt lat="50.33253" lon="4.30081">
        <ele>168.393402</ele>
        <time>2022-08-28T09:31:18Z</time>
      </trkpt>
      <trkpt lat="50.3325" lon="4.3009">
        <ele>168.464188</ele>
        <time>2022-08-28T09:31:20Z</time>
      </trkpt>
      <trkpt lat="50.33246" lon="4.30099">
        <ele>168.638702</ele>
        <time>2022-08-28T09:31:22Z</time>
      </trkpt>
      <trkpt lat="50.33243" lon="4.30109">
        <ele>168.789673</ele>
        <time>2022-08-28T09:31:24Z</time>
      </trkpt>
      <trkpt lat="50.3324" lon="4.30118">
        <ele>169.012848</ele>
        <time>2022-08-28T09:31:26Z</time>
      </trkpt>
      <trkpt lat="50.33238" lon="4.30128">
        <ele>169.193207</ele>
        <time>2022-08-28T09:31:28Z</time>
      </trkpt>
      <trkpt lat="50.33238" lon="4.30138">
        <ele>169.264511</ele>
        <time>2022-08-28T09:31:30Z</time>
      </trkpt>
      <trkpt lat="50.33238" lon="4.30148">
        <ele>169.455353</ele>
        <time>2022-08-28T09:31:32Z</time>
      </trkpt>
      <trkpt lat="50.33238" lon="4.30159">
        <ele>169.744781</ele>
        <time>2022-08-28T09:31:34Z</time>
      </trkpt>
      <trkpt lat="50.33239" lon="4.3017">
        <ele>170.007233</ele>
        <time>2022-08-28T09:31:36Z</time>
      </trkpt>
      <trkpt lat="50.33239" lon="4.30181">
        <ele>170.284073</ele>
        <time>2022-08-28T09:31:38Z</time>
      </trkpt>
      <trkpt lat="50.3324" lon="4.30192">
        <ele>170.491714</ele>
        <time>2022-08-28T09:31:40Z</time>
      </trkpt>
      <trkpt lat="50.33241" lon="4.30203">
        <ele>170.80632</ele>
        <time>2022-08-28T09:31:42Z</time>
      </trkpt>
      <trkpt lat="50.33241" lon="4.30214">
        <ele>171.047562</ele>
        <time>2022-08-28T09:31:44Z</time>
      </trkpt>
      <trkpt lat="50.33241" lon="4.30225">
        <ele>171.504822</ele>
        <time>2022-08-28T09:31:46Z</time>
      </trkpt>
      <trkpt lat="50.33241" lon="4.30237">
        <ele>171.827835</ele>
        <time>2022-08-28T09:31:48Z</time>
      </trkpt>
      <trkpt lat="50.33239" lon="4.30248">
        <ele>172.119415</ele>
        <time>2022-08-28T09:31:50Z</time>
      </trkpt>
      <trkpt lat="50.33236" lon="4.30259">
        <ele>172.467606</ele>
        <time>2022-08-28T09:31:52Z</time>
      </trkpt>
      <trkpt lat="50.33233" lon="4.30269">
        <ele>172.854736</ele>
        <time>2022-08-28T09:31:54Z</time>
      </trkpt>
      <trkpt lat="50.3323" lon="4.3028">
        <ele>173.161011</ele>
        <time>2022-08-28T09:31:56Z</time>
      </trkpt>
      <trkpt lat="50.33227" lon="4.30291">
        <ele>173.439667</ele>
        <time>2022-08-28T09:31:58Z</time>
      </trkpt>
      <trkpt lat="50.33224" lon="4.30301">
        <ele>173.738068</ele>
        <time>2022-08-28T09:32:00Z</time>
      </trkpt>
      <trkpt lat="50.3322" lon="4.30311">
        <ele>174.045914</ele>
        <time>2022-08-28T09:32:02Z</time>
      </trkpt>
      <trkpt lat="50.33214" lon="4.3032">
        <ele>174.306061</ele>
        <time>2022-08-28T09:32:04Z</time>
      </trkpt>
      <trkpt lat="50.33208" lon="4.30329">
        <ele>175.103973</ele>
        <time>2022-08-28T09:32:06Z</time>
      </trkpt>
      <trkpt lat="50.33202" lon="4.30337">
        <ele>175.376709</ele>
        <time>2022-08-28T09:32:08Z</time>
      </trkpt>
      <trkpt lat="50.33196" lon="4.30346">
        <ele>175.563446</ele>
        <time>2022-08-28T09:32:10Z</time>
      </trkpt>
      <trkpt lat="50.33189" lon="4.30354">
        <ele>175.754333</ele>
        <time>2022-08-28T09:32:12Z</time>
      </trkpt>
      <trkpt lat="50.33182" lon="4.30362">
        <ele>176.394867</ele>
        <time>2022-08-28T09:32:14Z</time>
      </trkpt>
      <trkpt lat="50.33175" lon="4.30371">
        <ele>176.556168</ele>
        <time>2022-08-28T09:32:16Z</time>
      </trkpt>
      <trkpt lat="50.33168" lon="4.30379">
        <ele>176.739075</ele>
        <time>2022-08-28T09:32:18Z</time>
      </trkpt>
      <trkpt lat="50.33161" lon="4.30387">
        <ele>176.839661</ele>
        <time>2022-08-28T09:32:20Z</time>
      </trkpt>
      <trkpt lat="50.33155" lon="4.30396">
        <ele>176.900497</ele>
        <time>2022-08-28T09:32:22Z</time>
      </trkpt>
      <trkpt lat="50.33147" lon="4.30404">
        <ele>176.986542</ele>
        <time>2022-08-28T09:32:24Z</time>
      </trkpt>
      <trkpt lat="50.3314" lon="4.30413">
        <ele>177.066269</ele>
        <time>2022-08-28T09:32:26Z</time>
      </trkpt>
      <trkpt lat="50.33133" lon="4.30422">
        <ele>177.099838</ele>
        <time>2022-08-28T09:32:28Z</time>
      </trkpt>
      <trkpt lat="50.33125" lon="4.30432">
        <ele>177.034821</ele>
        <time>2022-08-28T09:32:30Z</time>
      </trkpt>
      <trkpt lat="50.33114" lon="4.30446">
        <ele>177.296356</ele>
        <time>2022-08-28T09:32:33Z</time>
      </trkpt>
      <trkpt lat="50.3311" lon="4.30451">
        <ele>177.279556</ele>
        <time>2022-08-28T09:32:34Z</time>
      </trkpt>
      <trkpt lat="50.33102" lon="4.30461">
        <ele>177.279114</ele>
        <time>2022-08-28T09:32:36Z</time>
      </trkpt>
      <trkpt lat="50.33094" lon="4.30471">
        <ele>177.310577</ele>
        <time>2022-08-28T09:32:38Z</time>
      </trkpt>
      <trkpt lat="50.33087" lon="4.3048">
        <ele>177.325256</ele>
        <time>2022-08-28T09:32:40Z</time>
      </trkpt>
      <trkpt lat="50.3308" lon="4.30489">
        <ele>177.290146</ele>
        <time>2022-08-28T09:32:42Z</time>
      </trkpt>
      <trkpt lat="50.33072" lon="4.30498">
        <ele>177.376923</ele>
        <time>2022-08-28T09:32:44Z</time>
      </trkpt>
      <trkpt lat="50.33065" lon="4.30508">
        <ele>176.885345</ele>
        <time>2022-08-28T09:32:46Z</time>
      </trkpt>
      <trkpt lat="50.33059" lon="4.30519">
        <ele>177.000763</ele>
        <time>2022-08-28T09:32:48Z</time>
      </trkpt>
      <trkpt lat="50.33053" lon="4.3053">
        <ele>176.577332</ele>
        <time>2022-08-28T09:32:50Z</time>
      </trkpt>
      <trkpt lat="50.33048" lon="4.30541">
        <ele>176.575226</ele>
        <time>2022-08-28T09:32:52Z</time>
      </trkpt>
      <trkpt lat="50.33044" lon="4.30553">
        <ele>176.762024</ele>
        <time>2022-08-28T09:32:54Z</time>
      </trkpt>
      <trkpt lat="50.33038" lon="4.30564">
        <ele>175.830185</ele>
        <time>2022-08-28T09:32:56Z</time>
      </trkpt>
      <trkpt lat="50.33033" lon="4.30576">
        <ele>175.960312</ele>
        <time>2022-08-28T09:32:58Z</time>
      </trkpt>
      <trkpt lat="50.33028" lon="4.30588">
        <ele>175.484039</ele>
        <time>2022-08-28T09:33:00Z</time>
      </trkpt>
      <trkpt lat="50.33023" lon="4.30599">
        <ele>175.06076</ele>
        <time>2022-08-28T09:33:02Z</time>
      </trkpt>
      <trkpt lat="50.33017" lon="4.30609">
        <ele>175.142609</ele>
        <time>2022-08-28T09:33:04Z</time>
      </trkpt>
      <trkpt lat="50.33013" lon="4.3062">
        <ele>175.259018</ele>
        <time>2022-08-28T09:33:06Z</time>
      </trkpt>
      <trkpt lat="50.33009" lon="4.30632">
        <ele>175.840881</ele>
        <time>2022-08-28T09:33:08Z</time>
      </trkpt>
      <trkpt lat="50.33004" lon="4.30642">
        <ele>175.9953</ele>
        <time>2022-08-28T09:33:10Z</time>
      </trkpt>
      <trkpt lat="50.32999" lon="4.30653">
        <ele>176.182037</ele>
        <time>2022-08-28T09:33:12Z</time>
      </trkpt>
      <trkpt lat="50.32994" lon="4.30664">
        <ele>176.243713</ele>
        <time>2022-08-28T09:33:14Z</time>
      </trkpt>
      <trkpt lat="50.32989" lon="4.30676">
        <ele>176.40863</ele>
        <time>2022-08-28T09:33:16Z</time>
      </trkpt>
      <trkpt lat="50.32983" lon="4.30687">
        <ele>176.817963</ele>
        <time>2022-08-28T09:33:18Z</time>
      </trkpt>
      <trkpt lat="50.32978" lon="4.30699">
        <ele>177.004745</ele>
        <time>2022-08-28T09:33:20Z</time>
      </trkpt>
      <trkpt lat="50.32974" lon="4.30713">
        <ele>177.185272</ele>
        <time>2022-08-28T09:33:22Z</time>
      </trkpt>
      <trkpt lat="50.32969" lon="4.30726">
        <ele>177.434311</ele>
        <time>2022-08-28T09:33:24Z</time>
      </trkpt>
      <trkpt lat="50.32964" lon="4.30737">
        <ele>177.543472</ele>
        <time>2022-08-28T09:33:26Z</time>
      </trkpt>
      <trkpt lat="50.32958" lon="4.30749">
        <ele>177.726089</ele>
        <time>2022-08-28T09:33:28Z</time>
      </trkpt>
      <trkpt lat="50.32953" lon="4.30761">
        <ele>177.587585</ele>
        <time>2022-08-28T09:33:30Z</time>
      </trkpt>
      <trkpt lat="50.32949" lon="4.30773">
        <ele>178.113861</ele>
        <time>2022-08-28T09:33:32Z</time>
      </trkpt>
      <trkpt lat="50.32943" lon="4.30785">
        <ele>178.290192</ele>
        <time>2022-08-28T09:33:34Z</time>
      </trkpt>
      <trkpt lat="50.32938" lon="4.30797">
        <ele>178.554657</ele>
        <time>2022-08-28T09:33:36Z</time>
      </trkpt>
      <trkpt lat="50.32933" lon="4.3081">
        <ele>179.186005</ele>
        <time>2022-08-28T09:33:38Z</time>
      </trkpt>
      <trkpt lat="50.3293" lon="4.30823">
        <ele>179.888596</ele>
        <time>2022-08-28T09:33:40Z</time>
      </trkpt>
      <trkpt lat="50.32925" lon="4.30836">
        <ele>180.637375</ele>
        <time>2022-08-28T09:33:42Z</time>
      </trkpt>
      <trkpt lat="50.32921" lon="4.3085">
        <ele>180.784332</ele>
        <time>2022-08-28T09:33:44Z</time>
      </trkpt>
      <trkpt lat="50.32916" lon="4.30864">
        <ele>180.930298</ele>
        <time>2022-08-28T09:33:46Z</time>
      </trkpt>
      <trkpt lat="50.32912" lon="4.30877">
        <ele>180.615143</ele>
        <time>2022-08-28T09:33:48Z</time>
      </trkpt>
      <trkpt lat="50.32908" lon="4.3089">
        <ele>180.847</ele>
        <time>2022-08-28T09:33:50Z</time>
      </trkpt>
      <trkpt lat="50.32903" lon="4.30904">
        <ele>181.113647</ele>
        <time>2022-08-28T09:33:52Z</time>
      </trkpt>
      <trkpt lat="50.329" lon="4.30916">
        <ele>181.296295</ele>
        <time>2022-08-28T09:33:54Z</time>
      </trkpt>
      <trkpt lat="50.32899" lon="4.30927">
        <ele>181.491547</ele>
        <time>2022-08-28T09:33:56Z</time>
      </trkpt>
      <trkpt lat="50.32896" lon="4.30941">
        <ele>181.581085</ele>
        <time>2022-08-28T09:33:58Z</time>
      </trkpt>
      <trkpt lat="50.32894" lon="4.30954">
        <ele>181.593658</ele>
        <time>2022-08-28T09:34:00Z</time>
      </trkpt>
      <trkpt lat="50.32894" lon="4.3097">
        <ele>181.12619</ele>
        <time>2022-08-28T09:34:02Z</time>
      </trkpt>
      <trkpt lat="50.32892" lon="4.30983">
        <ele>181.289993</ele>
        <time>2022-08-28T09:34:04Z</time>
      </trkpt>
      <trkpt lat="50.32891" lon="4.30996">
        <ele>181.319366</ele>
        <time>2022-08-28T09:34:06Z</time>
      </trkpt>
      <trkpt lat="50.32891" lon="4.31009">
        <ele>181.474731</ele>
        <time>2022-08-28T09:34:08Z</time>
      </trkpt>
      <trkpt lat="50.32891" lon="4.31021">
        <ele>181.548248</ele>
        <time>2022-08-28T09:34:10Z</time>
      </trkpt>
      <trkpt lat="50.32892" lon="4.31031">
        <ele>181.953339</ele>
        <time>2022-08-28T09:34:12Z</time>
      </trkpt>
      <trkpt lat="50.32892" lon="4.31039">
        <ele>182.133896</ele>
        <time>2022-08-28T09:34:14Z</time>
      </trkpt>
      <trkpt lat="50.3289" lon="4.31043">
        <ele>182.190598</ele>
        <time>2022-08-28T09:34:16Z</time>
      </trkpt>
      <trkpt lat="50.32887" lon="4.31045">
        <ele>182.23259</ele>
        <time>2022-08-28T09:34:18Z</time>
      </trkpt>
      <trkpt lat="50.3288" lon="4.31049">
        <ele>182.398468</ele>
        <time>2022-08-28T09:34:20Z</time>
      </trkpt>
      <trkpt lat="50.32874" lon="4.31048">
        <ele>182.415268</ele>
        <time>2022-08-28T09:34:22Z</time>
      </trkpt>
      <trkpt lat="50.32866" lon="4.31042">
        <ele>182.471954</ele>
        <time>2022-08-28T09:34:24Z</time>
      </trkpt>
      <trkpt lat="50.32861" lon="4.31036">
        <ele>182.694519</ele>
        <time>2022-08-28T09:34:26Z</time>
      </trkpt>
      <trkpt lat="50.32857" lon="4.31032">
        <ele>182.709213</ele>
        <time>2022-08-28T09:34:28Z</time>
      </trkpt>
      <trkpt lat="50.3285" lon="4.31031">
        <ele>182.660812</ele>
        <time>2022-08-28T09:34:30Z</time>
      </trkpt>
      <trkpt lat="50.32843" lon="4.3103">
        <ele>182.65451</ele>
        <time>2022-08-28T09:34:32Z</time>
      </trkpt>
      <trkpt lat="50.32837" lon="4.31026">
        <ele>182.488632</ele>
        <time>2022-08-28T09:34:34Z</time>
      </trkpt>
      <trkpt lat="50.3283" lon="4.3102">
        <ele>182.417252</ele>
        <time>2022-08-28T09:34:36Z</time>
      </trkpt>
      <trkpt lat="50.32821" lon="4.31012">
        <ele>182.42775</ele>
        <time>2022-08-28T09:34:38Z</time>
      </trkpt>
      <trkpt lat="50.32811" lon="4.31004">
        <ele>182.259796</ele>
        <time>2022-08-28T09:34:40Z</time>
      </trkpt>
      <trkpt lat="50.32804" lon="4.30994">
        <ele>182.142197</ele>
        <time>2022-08-28T09:34:42Z</time>
      </trkpt>
      <trkpt lat="50.32797" lon="4.30983">
        <ele>182.628555</ele>
        <time>2022-08-28T09:34:44Z</time>
      </trkpt>
      <trkpt lat="50.32794" lon="4.30972">
        <ele>182.538254</ele>
        <time>2022-08-28T09:34:46Z</time>
      </trkpt>
      <trkpt lat="50.32791" lon="4.30964">
        <ele>182.511703</ele>
        <time>2022-08-28T09:34:48Z</time>
      </trkpt>
      <trkpt lat="50.32784" lon="4.30958">
        <ele>182.360519</ele>
        <time>2022-08-28T09:34:50Z</time>
      </trkpt>
      <trkpt lat="50.32776" lon="4.30949">
        <ele>182.247131</ele>
        <time>2022-08-28T09:34:52Z</time>
      </trkpt>
      <trkpt lat="50.32768" lon="4.30938">
        <ele>182.035065</ele>
        <time>2022-08-28T09:34:54Z</time>
      </trkpt>
      <trkpt lat="50.32762" lon="4.30926">
        <ele>181.911194</ele>
        <time>2022-08-28T09:34:56Z</time>
      </trkpt>
      <trkpt lat="50.32754" lon="4.30918">
        <ele>181.730621</ele>
        <time>2022-08-28T09:34:58Z</time>
      </trkpt>
      <trkpt lat="50.32748" lon="4.30915">
        <ele>181.514374</ele>
        <time>2022-08-28T09:35:00Z</time>
      </trkpt>
      <trkpt lat="50.32742" lon="4.30911">
        <ele>181.351044</ele>
        <time>2022-08-28T09:35:02Z</time>
      </trkpt>
      <trkpt lat="50.32737" lon="4.3091">
        <ele>181.218781</ele>
        <time>2022-08-28T09:35:04Z</time>
      </trkpt>
      <trkpt lat="50.32731" lon="4.30902">
        <ele>181.062836</ele>
        <time>2022-08-28T09:35:06Z</time>
      </trkpt>
      <trkpt lat="50.32723" lon="4.30893">
        <ele>180.280121</ele>
        <time>2022-08-28T09:35:08Z</time>
      </trkpt>
      <trkpt lat="50.32717" lon="4.30882">
        <ele>179.723907</ele>
        <time>2022-08-28T09:35:10Z</time>
      </trkpt>
      <trkpt lat="50.3271" lon="4.30872">
        <ele>179.343964</ele>
        <time>2022-08-28T09:35:12Z</time>
      </trkpt>
      <trkpt lat="50.32707" lon="4.30863">
        <ele>179.617264</ele>
        <time>2022-08-28T09:35:14Z</time>
      </trkpt>
      <trkpt lat="50.327" lon="4.30857">
        <ele>179.302399</ele>
        <time>2022-08-28T09:35:16Z</time>
      </trkpt>
      <trkpt lat="50.32691" lon="4.30844">
        <ele>178.949783</ele>
        <time>2022-08-28T09:35:18Z</time>
      </trkpt>
      <trkpt lat="50.32684" lon="4.30832">
        <ele>178.710495</ele>
        <time>2022-08-28T09:35:20Z</time>
      </trkpt>
      <trkpt lat="50.32677" lon="4.30821">
        <ele>178.328583</ele>
        <time>2022-08-28T09:35:22Z</time>
      </trkpt>
      <trkpt lat="50.32674" lon="4.30813">
        <ele>177.9487</ele>
        <time>2022-08-28T09:35:24Z</time>
      </trkpt>
      <trkpt lat="50.32673" lon="4.30801">
        <ele>177.864746</ele>
        <time>2022-08-28T09:35:26Z</time>
      </trkpt>
      <trkpt lat="50.3267" lon="4.30793">
        <ele>177.570953</ele>
        <time>2022-08-28T09:35:28Z</time>
      </trkpt>
      <trkpt lat="50.32666" lon="4.30783">
        <ele>177.085464</ele>
        <time>2022-08-28T09:35:30Z</time>
      </trkpt>
      <trkpt lat="50.32661" lon="4.30772">
        <ele>176.397293</ele>
        <time>2022-08-28T09:35:32Z</time>
      </trkpt>
      <trkpt lat="50.32655" lon="4.30759">
        <ele>175.906281</ele>
        <time>2022-08-28T09:35:34Z</time>
      </trkpt>
      <trkpt lat="50.3265" lon="4.30744">
        <ele>175.388992</ele>
        <time>2022-08-28T09:35:36Z</time>
      </trkpt>
      <trkpt lat="50.32644" lon="4.30731">
        <ele>174.967133</ele>
        <time>2022-08-28T09:35:38Z</time>
      </trkpt>
      <trkpt lat="50.32639" lon="4.30719">
        <ele>174.58316</ele>
        <time>2022-08-28T09:35:40Z</time>
      </trkpt>
      <trkpt lat="50.32634" lon="4.30708">
        <ele>174.139282</ele>
        <time>2022-08-28T09:35:42Z</time>
      </trkpt>
      <trkpt lat="50.32628" lon="4.30699">
        <ele>173.563553</ele>
        <time>2022-08-28T09:35:44Z</time>
      </trkpt>
      <trkpt lat="50.32621" lon="4.3069">
        <ele>173.071091</ele>
        <time>2022-08-28T09:35:46Z</time>
      </trkpt>
      <trkpt lat="50.3262" lon="4.30679">
        <ele>172.475677</ele>
        <time>2022-08-28T09:35:48Z</time>
      </trkpt>
      <trkpt lat="50.32618" lon="4.30665">
        <ele>172.74295</ele>
        <time>2022-08-28T09:35:50Z</time>
      </trkpt>
      <trkpt lat="50.32613" lon="4.30651">
        <ele>172.338104</ele>
        <time>2022-08-28T09:35:52Z</time>
      </trkpt>
      <trkpt lat="50.32609" lon="4.30643">
        <ele>171.895584</ele>
        <time>2022-08-28T09:35:54Z</time>
      </trkpt>
      <trkpt lat="50.32607" lon="4.30633">
        <ele>170.869141</ele>
        <time>2022-08-28T09:35:56Z</time>
      </trkpt>
      <trkpt lat="50.32602" lon="4.30624">
        <ele>170.367874</ele>
        <time>2022-08-28T09:35:58Z</time>
      </trkpt>
      <trkpt lat="50.32595" lon="4.30621">
        <ele>169.80368</ele>
        <time>2022-08-28T09:36:00Z</time>
      </trkpt>
      <trkpt lat="50.32585" lon="4.30621">
        <ele>169.317184</ele>
        <time>2022-08-28T09:36:02Z</time>
      </trkpt>
      <trkpt lat="50.32575" lon="4.30623">
        <ele>169.105423</ele>
        <time>2022-08-28T09:36:04Z</time>
      </trkpt>
      <trkpt lat="50.32562" lon="4.30625">
        <ele>168.543457</ele>
        <time>2022-08-28T09:36:06Z</time>
      </trkpt>
      <trkpt lat="50.3255" lon="4.30629">
        <ele>167.864059</ele>
        <time>2022-08-28T09:36:08Z</time>
      </trkpt>
      <trkpt lat="50.32539" lon="4.30631">
        <ele>167.28537</ele>
        <time>2022-08-28T09:36:10Z</time>
      </trkpt>
      <trkpt lat="50.32528" lon="4.30633">
        <ele>167.028839</ele>
        <time>2022-08-28T09:36:12Z</time>
      </trkpt>
      <trkpt lat="50.32519" lon="4.30635">
        <ele>166.431366</ele>
        <time>2022-08-28T09:36:14Z</time>
      </trkpt>
      <trkpt lat="50.3251" lon="4.30637">
        <ele>166.018478</ele>
        <time>2022-08-28T09:36:16Z</time>
      </trkpt>
      <trkpt lat="50.32502" lon="4.30641">
        <ele>165.348877</ele>
        <time>2022-08-28T09:36:18Z</time>
      </trkpt>
      <trkpt lat="50.32493" lon="4.30643">
        <ele>164.552368</ele>
        <time>2022-08-28T09:36:20Z</time>
      </trkpt>
      <trkpt lat="50.32485" lon="4.30645">
        <ele>163.818756</ele>
        <time>2022-08-28T09:36:22Z</time>
      </trkpt>
      <trkpt lat="50.32477" lon="4.30648">
        <ele>163.123596</ele>
        <time>2022-08-28T09:36:24Z</time>
      </trkpt>
      <trkpt lat="50.32468" lon="4.30651">
        <ele>162.451569</ele>
        <time>2022-08-28T09:36:26Z</time>
      </trkpt>
      <trkpt lat="50.3246" lon="4.30654">
        <ele>161.814484</ele>
        <time>2022-08-28T09:36:28Z</time>
      </trkpt>
      <trkpt lat="50.32451" lon="4.30657">
        <ele>161.229889</ele>
        <time>2022-08-28T09:36:30Z</time>
      </trkpt>
      <trkpt lat="50.32444" lon="4.30659">
        <ele>160.527924</ele>
        <time>2022-08-28T09:36:32Z</time>
      </trkpt>
      <trkpt lat="50.32435" lon="4.30661">
        <ele>160.07663</ele>
        <time>2022-08-28T09:36:34Z</time>
      </trkpt>
      <trkpt lat="50.32427" lon="4.30664">
        <ele>159.445908</ele>
        <time>2022-08-28T09:36:36Z</time>
      </trkpt>
      <trkpt lat="50.3242" lon="4.30666">
        <ele>158.899063</ele>
        <time>2022-08-28T09:36:38Z</time>
      </trkpt>
      <trkpt lat="50.32414" lon="4.30671">
        <ele>158.339645</ele>
        <time>2022-08-28T09:36:40Z</time>
      </trkpt>
      <trkpt lat="50.3241" lon="4.30681">
        <ele>158.409912</ele>
        <time>2022-08-28T09:36:42Z</time>
      </trkpt>
      <trkpt lat="50.3241" lon="4.30691">
        <ele>158.139664</ele>
        <time>2022-08-28T09:36:44Z</time>
      </trkpt>
      <trkpt lat="50.32413" lon="4.307">
        <ele>157.724854</ele>
        <time>2022-08-28T09:36:46Z</time>
      </trkpt>
      <trkpt lat="50.32415" lon="4.30708">
        <ele>157.322662</ele>
        <time>2022-08-28T09:36:48Z</time>
      </trkpt>
      <trkpt lat="50.32419" lon="4.30716">
        <ele>156.97702</ele>
        <time>2022-08-28T09:36:50Z</time>
      </trkpt>
      <trkpt lat="50.32422" lon="4.30724">
        <ele>156.604935</ele>
        <time>2022-08-28T09:36:52Z</time>
      </trkpt>
      <trkpt lat="50.32426" lon="4.3073">
        <ele>156.305389</ele>
        <time>2022-08-28T09:36:54Z</time>
      </trkpt>
      <trkpt lat="50.3243" lon="4.30736">
        <ele>156.603256</ele>
        <time>2022-08-28T09:36:56Z</time>
      </trkpt>
      <trkpt lat="50.32435" lon="4.30741">
        <ele>156.37915</ele>
        <time>2022-08-28T09:36:58Z</time>
      </trkpt>
      <trkpt lat="50.32439" lon="4.30745">
        <ele>156.242996</ele>
        <time>2022-08-28T09:37:00Z</time>
      </trkpt>
      <trkpt lat="50.32445" lon="4.30748">
        <ele>156.242996</ele>
        <time>2022-08-28T09:37:02Z</time>
      </trkpt>
      <trkpt lat="50.32449" lon="4.30754">
        <ele>156.180176</ele>
        <time>2022-08-28T09:37:04Z</time>
      </trkpt>
      <trkpt lat="50.32454" lon="4.30758">
        <ele>156.123611</ele>
        <time>2022-08-28T09:37:06Z</time>
      </trkpt>
      <trkpt lat="50.32459" lon="4.30763">
        <ele>156.090088</ele>
        <time>2022-08-28T09:37:08Z</time>
      </trkpt>
      <trkpt lat="50.32464" lon="4.30768">
        <ele>156.641434</ele>
        <time>2022-08-28T09:37:10Z</time>
      </trkpt>
      <trkpt lat="50.32469" lon="4.30773">
        <ele>156.640137</ele>
        <time>2022-08-28T09:37:12Z</time>
      </trkpt>
      <trkpt lat="50.32474" lon="4.30779">
        <ele>156.582306</ele>
        <time>2022-08-28T09:37:14Z</time>
      </trkpt>
      <trkpt lat="50.3248" lon="4.30785">
        <ele>156.636749</ele>
        <time>2022-08-28T09:37:16Z</time>
      </trkpt>
      <trkpt lat="50.32485" lon="4.30791">
        <ele>157.179688</ele>
        <time>2022-08-28T09:37:18Z</time>
      </trkpt>
      <trkpt lat="50.3249" lon="4.30797">
        <ele>157.200638</ele>
        <time>2022-08-28T09:37:20Z</time>
      </trkpt>
      <trkpt lat="50.32495" lon="4.30803">
        <ele>157.255081</ele>
        <time>2022-08-28T09:37:22Z</time>
      </trkpt>
      <trkpt lat="50.32499" lon="4.30809">
        <ele>156.765778</ele>
        <time>2022-08-28T09:37:24Z</time>
      </trkpt>
      <trkpt lat="50.32502" lon="4.30816">
        <ele>156.832794</ele>
        <time>2022-08-28T09:37:26Z</time>
      </trkpt>
      <trkpt lat="50.32505" lon="4.30824">
        <ele>156.887238</ele>
        <time>2022-08-28T09:37:28Z</time>
      </trkpt>
      <trkpt lat="50.32507" lon="4.30832">
        <ele>156.973068</ele>
        <time>2022-08-28T09:37:30Z</time>
      </trkpt>
      <trkpt lat="50.32508" lon="4.30841">
        <ele>157.03801</ele>
        <time>2022-08-28T09:37:32Z</time>
      </trkpt>
      <trkpt lat="50.32508" lon="4.30849">
        <ele>157.172028</ele>
        <time>2022-08-28T09:37:34Z</time>
      </trkpt>
      <trkpt lat="50.32508" lon="4.30858">
        <ele>157.245346</ele>
        <time>2022-08-28T09:37:36Z</time>
      </trkpt>
      <trkpt lat="50.32507" lon="4.30866">
        <ele>156.854385</ele>
        <time>2022-08-28T09:37:38Z</time>
      </trkpt>
      <trkpt lat="50.32508" lon="4.30875">
        <ele>156.917923</ele>
        <time>2022-08-28T09:37:40Z</time>
      </trkpt>
      <trkpt lat="50.32507" lon="4.30883">
        <ele>157.045685</ele>
        <time>2022-08-28T09:37:42Z</time>
      </trkpt>
      <trkpt lat="50.32507" lon="4.30892">
        <ele>157.200668</ele>
        <time>2022-08-28T09:37:44Z</time>
      </trkpt>
      <trkpt lat="50.32508" lon="4.30899">
        <ele>157.313782</ele>
        <time>2022-08-28T09:37:46Z</time>
      </trkpt>
      <trkpt lat="50.32508" lon="4.30907">
        <ele>157.458328</ele>
        <time>2022-08-28T09:37:48Z</time>
      </trkpt>
      <trkpt lat="50.32508" lon="4.30915">
        <ele>157.619614</ele>
        <time>2022-08-28T09:37:50Z</time>
      </trkpt>
      <trkpt lat="50.32508" lon="4.30923">
        <ele>157.267288</ele>
        <time>2022-08-28T09:37:52Z</time>
      </trkpt>
      <trkpt lat="50.32509" lon="4.3093">
        <ele>157.508148</ele>
        <time>2022-08-28T09:37:54Z</time>
      </trkpt>
      <trkpt lat="50.3251" lon="4.30938">
        <ele>157.677094</ele>
        <time>2022-08-28T09:37:56Z</time>
      </trkpt>
      <trkpt lat="50.32511" lon="4.30946">
        <ele>157.886353</ele>
        <time>2022-08-28T09:37:58Z</time>
      </trkpt>
      <trkpt lat="50.32512" lon="4.30954">
        <ele>157.624115</ele>
        <time>2022-08-28T09:38:00Z</time>
      </trkpt>
      <trkpt lat="50.32513" lon="4.30961">
        <ele>157.847458</ele>
        <time>2022-08-28T09:38:02Z</time>
      </trkpt>
      <trkpt lat="50.32515" lon="4.30969">
        <ele>158.052765</ele>
        <time>2022-08-28T09:38:04Z</time>
      </trkpt>
      <trkpt lat="50.32516" lon="4.30977">
        <ele>158.302032</ele>
        <time>2022-08-28T09:38:06Z</time>
      </trkpt>
      <trkpt lat="50.32518" lon="4.30985">
        <ele>158.421448</ele>
        <time>2022-08-28T09:38:08Z</time>
      </trkpt>
      <trkpt lat="50.3252" lon="4.30993">
        <ele>158.670731</ele>
        <time>2022-08-28T09:38:10Z</time>
      </trkpt>
      <trkpt lat="50.32521" lon="4.31">
        <ele>158.890701</ele>
        <time>2022-08-28T09:38:12Z</time>
      </trkpt>
      <trkpt lat="50.32523" lon="4.31007">
        <ele>159.11557</ele>
        <time>2022-08-28T09:38:14Z</time>
      </trkpt>
      <trkpt lat="50.32525" lon="4.31014">
        <ele>159.375336</ele>
        <time>2022-08-28T09:38:16Z</time>
      </trkpt>
      <trkpt lat="50.32527" lon="4.31023">
        <ele>159.524078</ele>
        <time>2022-08-28T09:38:18Z</time>
      </trkpt>
      <trkpt lat="50.32529" lon="4.31031">
        <ele>159.721924</ele>
        <time>2022-08-28T09:38:20Z</time>
      </trkpt>
      <trkpt lat="50.32533" lon="4.3104">
        <ele>159.882538</ele>
        <time>2022-08-28T09:38:22Z</time>
      </trkpt>
      <trkpt lat="50.32536" lon="4.31047">
        <ele>160.058517</ele>
        <time>2022-08-28T09:38:24Z</time>
      </trkpt>
      <trkpt lat="50.32541" lon="4.31056">
        <ele>160.187073</ele>
        <time>2022-08-28T09:38:26Z</time>
      </trkpt>
      <trkpt lat="50.32543" lon="4.31064">
        <ele>160.352585</ele>
        <time>2022-08-28T09:38:28Z</time>
      </trkpt>
      <trkpt lat="50.32546" lon="4.31072">
        <ele>160.490875</ele>
        <time>2022-08-28T09:38:30Z</time>
      </trkpt>
      <trkpt lat="50.32549" lon="4.31077">
        <ele>160.624985</ele>
        <time>2022-08-28T09:38:32Z</time>
      </trkpt>
      <trkpt lat="50.32554" lon="4.3108">
        <ele>160.819855</ele>
        <time>2022-08-28T09:38:34Z</time>
      </trkpt>
      <trkpt lat="50.32558" lon="4.31083">
        <ele>161.009171</ele>
        <time>2022-08-28T09:38:36Z</time>
      </trkpt>
      <trkpt lat="50.32561" lon="4.31085">
        <ele>161.210556</ele>
        <time>2022-08-28T09:38:38Z</time>
      </trkpt>
      <trkpt lat="50.32565" lon="4.31087">
        <ele>161.348877</ele>
        <time>2022-08-28T09:38:40Z</time>
      </trkpt>
      <trkpt lat="50.32569" lon="4.31088">
        <ele>161.619995</ele>
        <time>2022-08-28T09:38:42Z</time>
      </trkpt>
      <trkpt lat="50.32573" lon="4.3109">
        <ele>161.82872</ele>
        <time>2022-08-28T09:38:44Z</time>
      </trkpt>
      <trkpt lat="50.32578" lon="4.31093">
        <ele>162.117783</ele>
        <time>2022-08-28T09:38:46Z</time>
      </trkpt>
      <trkpt lat="50.32582" lon="4.31097">
        <ele>162.359833</ele>
        <time>2022-08-28T09:38:48Z</time>
      </trkpt>
      <trkpt lat="50.32585" lon="4.31102">
        <ele>162.484787</ele>
        <time>2022-08-28T09:38:50Z</time>
      </trkpt>
      <trkpt lat="50.32589" lon="4.31106">
        <ele>162.815948</ele>
        <time>2022-08-28T09:38:52Z</time>
      </trkpt>
      <trkpt lat="50.32592" lon="4.31106">
        <ele>163.096832</ele>
        <time>2022-08-28T09:38:54Z</time>
      </trkpt>
      <trkpt lat="50.32594" lon="4.31105">
        <ele>166.74826</ele>
        <time>2022-08-28T09:39:12Z</time>
      </trkpt>
      <trkpt lat="50.32597" lon="4.31107">
        <ele>167.180161</ele>
        <time>2022-08-28T09:39:14Z</time>
      </trkpt>
      <trkpt lat="50.32602" lon="4.31111">
        <ele>167.587921</ele>
        <time>2022-08-28T09:39:16Z</time>
      </trkpt>
      <trkpt lat="50.32608" lon="4.31114">
        <ele>167.904526</ele>
        <time>2022-08-28T09:39:18Z</time>
      </trkpt>
      <trkpt lat="50.32613" lon="4.31119">
        <ele>168.294525</ele>
        <time>2022-08-28T09:39:20Z</time>
      </trkpt>
      <trkpt lat="50.32617" lon="4.31123">
        <ele>168.632095</ele>
        <time>2022-08-28T09:39:22Z</time>
      </trkpt>
      <trkpt lat="50.32622" lon="4.31127">
        <ele>169.004089</ele>
        <time>2022-08-28T09:39:24Z</time>
      </trkpt>
      <trkpt lat="50.32627" lon="4.3113">
        <ele>169.341827</ele>
        <time>2022-08-28T09:39:26Z</time>
      </trkpt>
      <trkpt lat="50.32633" lon="4.31135">
        <ele>169.503311</ele>
        <time>2022-08-28T09:39:28Z</time>
      </trkpt>
      <trkpt lat="50.32639" lon="4.31139">
        <ele>169.846176</ele>
        <time>2022-08-28T09:39:30Z</time>
      </trkpt>
      <trkpt lat="50.32643" lon="4.31143">
        <ele>170.16362</ele>
        <time>2022-08-28T09:39:32Z</time>
      </trkpt>
      <trkpt lat="50.32649" lon="4.31147">
        <ele>170.43515</ele>
        <time>2022-08-28T09:39:34Z</time>
      </trkpt>
      <trkpt lat="50.32654" lon="4.31152">
        <ele>170.762329</ele>
        <time>2022-08-28T09:39:36Z</time>
      </trkpt>
      <trkpt lat="50.32661" lon="4.31156">
        <ele>171.049652</ele>
        <time>2022-08-28T09:39:38Z</time>
      </trkpt>
      <trkpt lat="50.32667" lon="4.3116">
        <ele>171.326523</ele>
        <time>2022-08-28T09:39:40Z</time>
      </trkpt>
      <trkpt lat="50.32673" lon="4.31164">
        <ele>171.603378</ele>
        <time>2022-08-28T09:39:42Z</time>
      </trkpt>
      <trkpt lat="50.32679" lon="4.31167">
        <ele>171.827042</ele>
        <time>2022-08-28T09:39:44Z</time>
      </trkpt>
      <trkpt lat="50.32685" lon="4.31172">
        <ele>172.090744</ele>
        <time>2022-08-28T09:39:46Z</time>
      </trkpt>
      <trkpt lat="50.32691" lon="4.31174">
        <ele>172.320175</ele>
        <time>2022-08-28T09:39:48Z</time>
      </trkpt>
      <trkpt lat="50.32697" lon="4.31177">
        <ele>172.553238</ele>
        <time>2022-08-28T09:39:50Z</time>
      </trkpt>
      <trkpt lat="50.32703" lon="4.31178">
        <ele>172.809174</ele>
        <time>2022-08-28T09:39:52Z</time>
      </trkpt>
      <trkpt lat="50.32709" lon="4.31179">
        <ele>173.111282</ele>
        <time>2022-08-28T09:39:54Z</time>
      </trkpt>
      <trkpt lat="50.32714" lon="4.31178">
        <ele>173.431274</ele>
        <time>2022-08-28T09:39:56Z</time>
      </trkpt>
      <trkpt lat="50.32718" lon="4.31181">
        <ele>173.796341</ele>
        <time>2022-08-28T09:39:58Z</time>
      </trkpt>
      <trkpt lat="50.32719" lon="4.31187">
        <ele>174.190811</ele>
        <time>2022-08-28T09:40:00Z</time>
      </trkpt>
      <trkpt lat="50.32717" lon="4.31194">
        <ele>175.097855</ele>
        <time>2022-08-28T09:40:02Z</time>
      </trkpt>
      <trkpt lat="50.32717" lon="4.31202">
        <ele>175.452469</ele>
        <time>2022-08-28T09:40:04Z</time>
      </trkpt>
      <trkpt lat="50.3272" lon="4.31212">
        <ele>175.907822</ele>
        <time>2022-08-28T09:40:06Z</time>
      </trkpt>
      <trkpt lat="50.32722" lon="4.31222">
        <ele>176.293716</ele>
        <time>2022-08-28T09:40:08Z</time>
      </trkpt>
      <trkpt lat="50.32723" lon="4.31232">
        <ele>176.720505</ele>
        <time>2022-08-28T09:40:10Z</time>
      </trkpt>
      <trkpt lat="50.32723" lon="4.3124">
        <ele>177.16333</ele>
        <time>2022-08-28T09:40:12Z</time>
      </trkpt>
      <trkpt lat="50.32722" lon="4.31251">
        <ele>177.406784</ele>
        <time>2022-08-28T09:40:14Z</time>
      </trkpt>
      <trkpt lat="50.32719" lon="4.31262">
        <ele>177.857605</ele>
        <time>2022-08-28T09:40:16Z</time>
      </trkpt>
      <trkpt lat="50.32718" lon="4.31272">
        <ele>178.254745</ele>
        <time>2022-08-28T09:40:18Z</time>
      </trkpt>
      <trkpt lat="50.32715" lon="4.31283">
        <ele>178.701431</ele>
        <time>2022-08-28T09:40:20Z</time>
      </trkpt>
      <trkpt lat="50.32714" lon="4.31293">
        <ele>179.091461</ele>
        <time>2022-08-28T09:40:22Z</time>
      </trkpt>
      <trkpt lat="50.32712" lon="4.31302">
        <ele>179.54274</ele>
        <time>2022-08-28T09:40:24Z</time>
      </trkpt>
      <trkpt lat="50.32708" lon="4.31313">
        <ele>180.029984</ele>
        <time>2022-08-28T09:40:26Z</time>
      </trkpt>
      <trkpt lat="50.32702" lon="4.31325">
        <ele>180.486908</ele>
        <time>2022-08-28T09:40:28Z</time>
      </trkpt>
      <trkpt lat="50.327" lon="4.31339">
        <ele>180.922729</ele>
        <time>2022-08-28T09:40:30Z</time>
      </trkpt>
      <trkpt lat="50.32701" lon="4.31355">
        <ele>181.401154</ele>
        <time>2022-08-28T09:40:32Z</time>
      </trkpt>
      <trkpt lat="50.327" lon="4.31372">
        <ele>181.783234</ele>
        <time>2022-08-28T09:40:34Z</time>
      </trkpt>
      <trkpt lat="50.32696" lon="4.31389">
        <ele>182.266129</ele>
        <time>2022-08-28T09:40:36Z</time>
      </trkpt>
      <trkpt lat="50.32692" lon="4.31404">
        <ele>182.650345</ele>
        <time>2022-08-28T09:40:38Z</time>
      </trkpt>
      <trkpt lat="50.32684" lon="4.31417">
        <ele>182.860291</ele>
        <time>2022-08-28T09:40:40Z</time>
      </trkpt>
      <trkpt lat="50.32674" lon="4.31429">
        <ele>182.58493</ele>
        <time>2022-08-28T09:40:42Z</time>
      </trkpt>
      <trkpt lat="50.32665" lon="4.31444">
        <ele>182.788589</ele>
        <time>2022-08-28T09:40:44Z</time>
      </trkpt>
      <trkpt lat="50.32656" lon="4.31462">
        <ele>182.620712</ele>
        <time>2022-08-28T09:40:46Z</time>
      </trkpt>
      <trkpt lat="50.32651" lon="4.31484">
        <ele>182.545135</ele>
        <time>2022-08-28T09:40:48Z</time>
      </trkpt>
      <trkpt lat="50.32649" lon="4.31505">
        <ele>182.639862</ele>
        <time>2022-08-28T09:40:50Z</time>
      </trkpt>
      <trkpt lat="50.32648" lon="4.31524">
        <ele>182.5215</ele>
        <time>2022-08-28T09:40:52Z</time>
      </trkpt>
      <trkpt lat="50.32647" lon="4.31542">
        <ele>182.595001</ele>
        <time>2022-08-28T09:40:54Z</time>
      </trkpt>
      <trkpt lat="50.32646" lon="4.31562">
        <ele>182.485245</ele>
        <time>2022-08-28T09:40:56Z</time>
      </trkpt>
      <trkpt lat="50.32644" lon="4.31581">
        <ele>182.393646</ele>
        <time>2022-08-28T09:40:58Z</time>
      </trkpt>
      <trkpt lat="50.3264" lon="4.31599">
        <ele>182.133728</ele>
        <time>2022-08-28T09:41:00Z</time>
      </trkpt>
      <trkpt lat="50.3264" lon="4.3162">
        <ele>182.01442</ele>
        <time>2022-08-28T09:41:02Z</time>
      </trkpt>
      <trkpt lat="50.32639" lon="4.31642">
        <ele>182.036896</ele>
        <time>2022-08-28T09:41:04Z</time>
      </trkpt>
      <trkpt lat="50.32637" lon="4.31664">
        <ele>181.939285</ele>
        <time>2022-08-28T09:41:06Z</time>
      </trkpt>
      <trkpt lat="50.32637" lon="4.31687">
        <ele>181.865723</ele>
        <time>2022-08-28T09:41:08Z</time>
      </trkpt>
      <trkpt lat="50.32639" lon="4.31708">
        <ele>181.638992</ele>
        <time>2022-08-28T09:41:10Z</time>
      </trkpt>
      <trkpt lat="50.32642" lon="4.31727">
        <ele>181.471024</ele>
        <time>2022-08-28T09:41:12Z</time>
      </trkpt>
      <trkpt lat="50.32645" lon="4.31746">
        <ele>181.187576</ele>
        <time>2022-08-28T09:41:14Z</time>
      </trkpt>
      <trkpt lat="50.32649" lon="4.31762">
        <ele>180.977585</ele>
        <time>2022-08-28T09:41:16Z</time>
      </trkpt>
      <trkpt lat="50.32652" lon="4.31778">
        <ele>180.582855</ele>
        <time>2022-08-28T09:41:18Z</time>
      </trkpt>
      <trkpt lat="50.32654" lon="4.31796">
        <ele>180.35611</ele>
        <time>2022-08-28T09:41:20Z</time>
      </trkpt>
      <trkpt lat="50.32655" lon="4.31814">
        <ele>179.588425</ele>
        <time>2022-08-28T09:41:22Z</time>
      </trkpt>
      <trkpt lat="50.32655" lon="4.31832">
        <ele>179.334671</ele>
        <time>2022-08-28T09:41:24Z</time>
      </trkpt>
      <trkpt lat="50.32653" lon="4.31847">
        <ele>179.44841</ele>
        <time>2022-08-28T09:41:26Z</time>
      </trkpt>
      <trkpt lat="50.3265" lon="4.31863">
        <ele>179.506226</ele>
        <time>2022-08-28T09:41:28Z</time>
      </trkpt>
      <trkpt lat="50.32646" lon="4.31879">
        <ele>179.541901</ele>
        <time>2022-08-28T09:41:30Z</time>
      </trkpt>
      <trkpt lat="50.32641" lon="4.31894">
        <ele>179.432404</ele>
        <time>2022-08-28T09:41:32Z</time>
      </trkpt>
      <trkpt lat="50.32637" lon="4.31909">
        <ele>178.790237</ele>
        <time>2022-08-28T09:41:34Z</time>
      </trkpt>
      <trkpt lat="50.32632" lon="4.31926">
        <ele>178.634888</ele>
        <time>2022-08-28T09:41:36Z</time>
      </trkpt>
      <trkpt lat="50.32628" lon="4.31941">
        <ele>177.978607</ele>
        <time>2022-08-28T09:41:38Z</time>
      </trkpt>
      <trkpt lat="50.32625" lon="4.31954">
        <ele>177.616409</ele>
        <time>2022-08-28T09:41:40Z</time>
      </trkpt>
      <trkpt lat="50.32628" lon="4.31966">
        <ele>177.009796</ele>
        <time>2022-08-28T09:41:42Z</time>
      </trkpt>
      <trkpt lat="50.32632" lon="4.31977">
        <ele>176.536163</ele>
        <time>2022-08-28T09:41:44Z</time>
      </trkpt>
      <trkpt lat="50.32639" lon="4.3199">
        <ele>176.153595</ele>
        <time>2022-08-28T09:41:46Z</time>
      </trkpt>
      <trkpt lat="50.32646" lon="4.32001">
        <ele>175.570343</ele>
        <time>2022-08-28T09:41:48Z</time>
      </trkpt>
      <trkpt lat="50.32651" lon="4.32013">
        <ele>175.00589</ele>
        <time>2022-08-28T09:41:50Z</time>
      </trkpt>
      <trkpt lat="50.32656" lon="4.32024">
        <ele>174.747772</ele>
        <time>2022-08-28T09:41:52Z</time>
      </trkpt>
      <trkpt lat="50.32661" lon="4.32033">
        <ele>174.275635</ele>
        <time>2022-08-28T09:41:54Z</time>
      </trkpt>
      <trkpt lat="50.32666" lon="4.32042">
        <ele>173.826584</ele>
        <time>2022-08-28T09:41:56Z</time>
      </trkpt>
      <trkpt lat="50.32672" lon="4.32052">
        <ele>173.33345</ele>
        <time>2022-08-28T09:41:58Z</time>
      </trkpt>
      <trkpt lat="50.32677" lon="4.32062">
        <ele>172.983124</ele>
        <time>2022-08-28T09:42:00Z</time>
      </trkpt>
      <trkpt lat="50.32684" lon="4.32072">
        <ele>173.147461</ele>
        <time>2022-08-28T09:42:02Z</time>
      </trkpt>
      <trkpt lat="50.32689" lon="4.32082">
        <ele>172.851639</ele>
        <time>2022-08-28T09:42:04Z</time>
      </trkpt>
      <trkpt lat="50.32695" lon="4.32091">
        <ele>172.396027</ele>
        <time>2022-08-28T09:42:06Z</time>
      </trkpt>
      <trkpt lat="50.327" lon="4.321">
        <ele>171.854218</ele>
        <time>2022-08-28T09:42:08Z</time>
      </trkpt>
      <trkpt lat="50.32706" lon="4.32109">
        <ele>171.286575</ele>
        <time>2022-08-28T09:42:10Z</time>
      </trkpt>
      <trkpt lat="50.32712" lon="4.32119">
        <ele>170.808548</ele>
        <time>2022-08-28T09:42:12Z</time>
      </trkpt>
      <trkpt lat="50.32718" lon="4.3213">
        <ele>170.594604</ele>
        <time>2022-08-28T09:42:14Z</time>
      </trkpt>
      <trkpt lat="50.32724" lon="4.3214">
        <ele>170.403717</ele>
        <time>2022-08-28T09:42:16Z</time>
      </trkpt>
      <trkpt lat="50.3273" lon="4.3215">
        <ele>170.550217</ele>
        <time>2022-08-28T09:42:18Z</time>
      </trkpt>
      <trkpt lat="50.32736" lon="4.3216">
        <ele>170.25029</ele>
        <time>2022-08-28T09:42:20Z</time>
      </trkpt>
      <trkpt lat="50.32742" lon="4.32168">
        <ele>170.48703</ele>
        <time>2022-08-28T09:42:22Z</time>
      </trkpt>
      <trkpt lat="50.32747" lon="4.32177">
        <ele>170.116425</ele>
        <time>2022-08-28T09:42:24Z</time>
      </trkpt>
      <trkpt lat="50.32752" lon="4.32185">
        <ele>169.76622</ele>
        <time>2022-08-28T09:42:26Z</time>
      </trkpt>
      <trkpt lat="50.32756" lon="4.32192">
        <ele>169.388702</ele>
        <time>2022-08-28T09:42:28Z</time>
      </trkpt>
      <trkpt lat="50.3276" lon="4.32198">
        <ele>169.264999</ele>
        <time>2022-08-28T09:42:30Z</time>
      </trkpt>
      <trkpt lat="50.32763" lon="4.32206">
        <ele>168.981903</ele>
        <time>2022-08-28T09:42:32Z</time>
      </trkpt>
      <trkpt lat="50.32766" lon="4.32215">
        <ele>168.853973</ele>
        <time>2022-08-28T09:42:34Z</time>
      </trkpt>
      <trkpt lat="50.32769" lon="4.32222">
        <ele>168.642181</ele>
        <time>2022-08-28T09:42:36Z</time>
      </trkpt>
      <trkpt lat="50.32768" lon="4.32231">
        <ele>168.39682</ele>
        <time>2022-08-28T09:42:38Z</time>
      </trkpt>
      <trkpt lat="50.32767" lon="4.32242">
        <ele>168.203903</ele>
        <time>2022-08-28T09:42:40Z</time>
      </trkpt>
      <trkpt lat="50.32767" lon="4.3225">
        <ele>168.040222</ele>
        <time>2022-08-28T09:42:42Z</time>
      </trkpt>
      <trkpt lat="50.32764" lon="4.32257">
        <ele>167.804291</ele>
        <time>2022-08-28T09:42:44Z</time>
      </trkpt>
      <trkpt lat="50.32759" lon="4.32261">
        <ele>167.628143</ele>
        <time>2022-08-28T09:42:46Z</time>
      </trkpt>
      <trkpt lat="50.3275" lon="4.32268">
        <ele>167.433151</ele>
        <time>2022-08-28T09:42:48Z</time>
      </trkpt>
      <trkpt lat="50.32744" lon="4.32272">
        <ele>167.271698</ele>
        <time>2022-08-28T09:42:50Z</time>
      </trkpt>
      <trkpt lat="50.32736" lon="4.32279">
        <ele>167.106049</ele>
        <time>2022-08-28T09:42:52Z</time>
      </trkpt>
      <trkpt lat="50.32731" lon="4.32287">
        <ele>167.078796</ele>
        <time>2022-08-28T09:42:54Z</time>
      </trkpt>
      <trkpt lat="50.32725" lon="4.32297">
        <ele>167.136139</ele>
        <time>2022-08-28T09:42:56Z</time>
      </trkpt>
      <trkpt lat="50.32717" lon="4.32303">
        <ele>167.048889</ele>
        <time>2022-08-28T09:42:58Z</time>
      </trkpt>
      <trkpt lat="50.32708" lon="4.32311">
        <ele>166.960831</ele>
        <time>2022-08-28T09:43:00Z</time>
      </trkpt>
      <trkpt lat="50.32698" lon="4.32316">
        <ele>166.929413</ele>
        <time>2022-08-28T09:43:02Z</time>
      </trkpt>
      <trkpt lat="50.32694" lon="4.32325">
        <ele>166.973862</ele>
        <time>2022-08-28T09:43:04Z</time>
      </trkpt>
      <trkpt lat="50.32692" lon="4.32336">
        <ele>167.053314</ele>
        <time>2022-08-28T09:43:06Z</time>
      </trkpt>
      <trkpt lat="50.32689" lon="4.32347">
        <ele>167.166534</ele>
        <time>2022-08-28T09:43:08Z</time>
      </trkpt>
      <trkpt lat="50.32681" lon="4.32354">
        <ele>167.160233</ele>
        <time>2022-08-28T09:43:10Z</time>
      </trkpt>
      <trkpt lat="50.32673" lon="4.32364">
        <ele>167.290207</ele>
        <time>2022-08-28T09:43:12Z</time>
      </trkpt>
      <trkpt lat="50.32666" lon="4.32378">
        <ele>167.239899</ele>
        <time>2022-08-28T09:43:14Z</time>
      </trkpt>
      <trkpt lat="50.32662" lon="4.32394">
        <ele>167.235687</ele>
        <time>2022-08-28T09:43:16Z</time>
      </trkpt>
      <trkpt lat="50.32652" lon="4.32405">
        <ele>167.156006</ele>
        <time>2022-08-28T09:43:18Z</time>
      </trkpt>
      <trkpt lat="50.32645" lon="4.32417">
        <ele>167.088913</ele>
        <time>2022-08-28T09:43:20Z</time>
      </trkpt>
      <trkpt lat="50.32641" lon="4.32432">
        <ele>167.042801</ele>
        <time>2022-08-28T09:43:22Z</time>
      </trkpt>
      <trkpt lat="50.32639" lon="4.32448">
        <ele>166.885544</ele>
        <time>2022-08-28T09:43:24Z</time>
      </trkpt>
      <trkpt lat="50.32637" lon="4.32463">
        <ele>166.807983</ele>
        <time>2022-08-28T09:43:26Z</time>
      </trkpt>
      <trkpt lat="50.32634" lon="4.32477">
        <ele>166.621429</ele>
        <time>2022-08-28T09:43:28Z</time>
      </trkpt>
      <trkpt lat="50.32634" lon="4.3249">
        <ele>166.543854</ele>
        <time>2022-08-28T09:43:30Z</time>
      </trkpt>
      <trkpt lat="50.32638" lon="4.32502">
        <ele>166.340546</ele>
        <time>2022-08-28T09:43:32Z</time>
      </trkpt>
      <trkpt lat="50.32642" lon="4.32518">
        <ele>166.380371</ele>
        <time>2022-08-28T09:43:34Z</time>
      </trkpt>
      <trkpt lat="50.32645" lon="4.32531">
        <ele>166.226593</ele>
        <time>2022-08-28T09:43:36Z</time>
      </trkpt>
      <trkpt lat="50.32647" lon="4.32545">
        <ele>165.984726</ele>
        <time>2022-08-28T09:43:38Z</time>
      </trkpt>
      <trkpt lat="50.3265" lon="4.32558">
        <ele>165.923935</ele>
        <time>2022-08-28T09:43:40Z</time>
      </trkpt>
      <trkpt lat="50.3265" lon="4.32568">
        <ele>165.788437</ele>
        <time>2022-08-28T09:43:42Z</time>
      </trkpt>
      <trkpt lat="50.32656" lon="4.32577">
        <ele>165.616531</ele>
        <time>2022-08-28T09:43:44Z</time>
      </trkpt>
      <trkpt lat="50.32661" lon="4.32582">
        <ele>165.388229</ele>
        <time>2022-08-28T09:43:46Z</time>
      </trkpt>
      <trkpt lat="50.32664" lon="4.32588">
        <ele>165.184906</ele>
        <time>2022-08-28T09:43:48Z</time>
      </trkpt>
      <trkpt lat="50.32664" lon="4.326">
        <ele>164.966904</ele>
        <time>2022-08-28T09:43:50Z</time>
      </trkpt>
      <trkpt lat="50.3266" lon="4.32611">
        <ele>164.799194</ele>
        <time>2022-08-28T09:43:52Z</time>
      </trkpt>
      <trkpt lat="50.32659" lon="4.32623">
        <ele>164.545197</ele>
        <time>2022-08-28T09:43:54Z</time>
      </trkpt>
      <trkpt lat="50.32656" lon="4.32635">
        <ele>164.333389</ele>
        <time>2022-08-28T09:43:56Z</time>
      </trkpt>
      <trkpt lat="50.32652" lon="4.32647">
        <ele>164.09024</ele>
        <time>2022-08-28T09:43:58Z</time>
      </trkpt>
      <trkpt lat="50.32653" lon="4.32664">
        <ele>163.811508</ele>
        <time>2022-08-28T09:44:00Z</time>
      </trkpt>
      <trkpt lat="50.32654" lon="4.32677">
        <ele>163.570465</ele>
        <time>2022-08-28T09:44:02Z</time>
      </trkpt>
      <trkpt lat="50.3265" lon="4.3269">
        <ele>163.309052</ele>
        <time>2022-08-28T09:44:04Z</time>
      </trkpt>
      <trkpt lat="50.32647" lon="4.32695">
        <ele>162.942307</ele>
        <time>2022-08-28T09:44:06Z</time>
      </trkpt>
      <trkpt lat="50.32645" lon="4.32702">
        <ele>162.699249</ele>
        <time>2022-08-28T09:44:08Z</time>
      </trkpt>
      <trkpt lat="50.32644" lon="4.32704">
        <ele>162.437317</ele>
        <time>2022-08-28T09:44:10Z</time>
      </trkpt>
      <trkpt lat="50.32639" lon="4.32711">
        <ele>162.131363</ele>
        <time>2022-08-28T09:44:12Z</time>
      </trkpt>
      <trkpt lat="50.32636" lon="4.3272">
        <ele>161.898773</ele>
        <time>2022-08-28T09:44:14Z</time>
      </trkpt>
      <trkpt lat="50.32636" lon="4.32733">
        <ele>161.586548</ele>
        <time>2022-08-28T09:44:16Z</time>
      </trkpt>
      <trkpt lat="50.32635" lon="4.32741">
        <ele>161.555115</ele>
        <time>2022-08-28T09:44:18Z</time>
      </trkpt>
      <trkpt lat="50.32636" lon="4.32748">
        <ele>161.163239</ele>
        <time>2022-08-28T09:44:20Z</time>
      </trkpt>
      <trkpt lat="50.32637" lon="4.32756">
        <ele>160.811188</ele>
        <time>2022-08-28T09:44:22Z</time>
      </trkpt>
      <trkpt lat="50.32641" lon="4.32763">
        <ele>160.458359</ele>
        <time>2022-08-28T09:44:24Z</time>
      </trkpt>
      <trkpt lat="50.32644" lon="4.32772">
        <ele>159.978119</ele>
        <time>2022-08-28T09:44:26Z</time>
      </trkpt>
      <trkpt lat="50.32648" lon="4.32781">
        <ele>159.621933</ele>
        <time>2022-08-28T09:44:28Z</time>
      </trkpt>
      <trkpt lat="50.32653" lon="4.3279">
        <ele>159.362137</ele>
        <time>2022-08-28T09:44:30Z</time>
      </trkpt>
      <trkpt lat="50.32658" lon="4.32799">
        <ele>159.012238</ele>
        <time>2022-08-28T09:44:32Z</time>
      </trkpt>
      <trkpt lat="50.32663" lon="4.32808">
        <ele>158.654327</ele>
        <time>2022-08-28T09:44:34Z</time>
      </trkpt>
      <trkpt lat="50.32669" lon="4.32816">
        <ele>158.317108</ele>
        <time>2022-08-28T09:44:36Z</time>
      </trkpt>
      <trkpt lat="50.32675" lon="4.32821">
        <ele>158.053131</ele>
        <time>2022-08-28T09:44:38Z</time>
      </trkpt>
      <trkpt lat="50.32681" lon="4.32826">
        <ele>157.847824</ele>
        <time>2022-08-28T09:44:40Z</time>
      </trkpt>
      <trkpt lat="50.32689" lon="4.32832">
        <ele>157.634125</ele>
        <time>2022-08-28T09:44:42Z</time>
      </trkpt>
      <trkpt lat="50.32694" lon="4.32839">
        <ele>157.512634</ele>
        <time>2022-08-28T09:44:44Z</time>
      </trkpt>
      <trkpt lat="50.32699" lon="4.32849">
        <ele>157.354965</ele>
        <time>2022-08-28T09:44:46Z</time>
      </trkpt>
      <trkpt lat="50.32705" lon="4.32858">
        <ele>157.302597</ele>
        <time>2022-08-28T09:44:48Z</time>
      </trkpt>
      <trkpt lat="50.3271" lon="4.32865">
        <ele>157.220184</ele>
        <time>2022-08-28T09:44:50Z</time>
      </trkpt>
      <trkpt lat="50.32716" lon="4.32872">
        <ele>157.167816</ele>
        <time>2022-08-28T09:44:52Z</time>
      </trkpt>
      <trkpt lat="50.32722" lon="4.32879">
        <ele>156.989761</ele>
        <time>2022-08-28T09:44:54Z</time>
      </trkpt>
      <trkpt lat="50.32729" lon="4.32888">
        <ele>156.941589</ele>
        <time>2022-08-28T09:44:56Z</time>
      </trkpt>
      <trkpt lat="50.32736" lon="4.32899">
        <ele>156.822189</ele>
        <time>2022-08-28T09:44:58Z</time>
      </trkpt>
      <trkpt lat="50.3274" lon="4.32906">
        <ele>156.807526</ele>
        <time>2022-08-28T09:45:00Z</time>
      </trkpt>
      <trkpt lat="50.32745" lon="4.32915">
        <ele>156.738403</ele>
        <time>2022-08-28T09:45:02Z</time>
      </trkpt>
      <trkpt lat="50.3275" lon="4.32924">
        <ele>156.717453</ele>
        <time>2022-08-28T09:45:04Z</time>
      </trkpt>
      <trkpt lat="50.32755" lon="4.32932">
        <ele>156.776123</ele>
        <time>2022-08-28T09:45:06Z</time>
      </trkpt>
      <trkpt lat="50.32758" lon="4.3294">
        <ele>156.952057</ele>
        <time>2022-08-28T09:45:08Z</time>
      </trkpt>
      <trkpt lat="50.32762" lon="4.32948">
        <ele>157.12175</ele>
        <time>2022-08-28T09:45:10Z</time>
      </trkpt>
      <trkpt lat="50.32767" lon="4.32958">
        <ele>157.167282</ele>
        <time>2022-08-28T09:45:12Z</time>
      </trkpt>
      <trkpt lat="50.32771" lon="4.32969">
        <ele>157.307617</ele>
        <time>2022-08-28T09:45:14Z</time>
      </trkpt>
      <trkpt lat="50.32774" lon="4.32973">
        <ele>157.460541</ele>
        <time>2022-08-28T09:45:16Z</time>
      </trkpt>
      <trkpt lat="50.3278" lon="4.32982">
        <ele>157.630219</ele>
        <time>2022-08-28T09:45:18Z</time>
      </trkpt>
      <trkpt lat="50.32784" lon="4.32992">
        <ele>157.779938</ele>
        <time>2022-08-28T09:45:20Z</time>
      </trkpt>
      <trkpt lat="50.32789" lon="4.33002">
        <ele>157.940628</ele>
        <time>2022-08-28T09:45:22Z</time>
      </trkpt>
      <trkpt lat="50.32795" lon="4.33013">
        <ele>158.076004</ele>
        <time>2022-08-28T09:45:24Z</time>
      </trkpt>
      <trkpt lat="50.32803" lon="4.33024">
        <ele>158.222122</ele>
        <time>2022-08-28T09:45:26Z</time>
      </trkpt>
      <trkpt lat="50.32808" lon="4.33031">
        <ele>158.326859</ele>
        <time>2022-08-28T09:45:28Z</time>
      </trkpt>
      <trkpt lat="50.32814" lon="4.33038">
        <ele>158.409256</ele>
        <time>2022-08-28T09:45:30Z</time>
      </trkpt>
      <trkpt lat="50.32818" lon="4.33043">
        <ele>158.587326</ele>
        <time>2022-08-28T09:45:32Z</time>
      </trkpt>
      <trkpt lat="50.32823" lon="4.33051">
        <ele>158.765411</ele>
        <time>2022-08-28T09:45:34Z</time>
      </trkpt>
      <trkpt lat="50.32827" lon="4.3306">
        <ele>158.966507</ele>
        <time>2022-08-28T09:45:36Z</time>
      </trkpt>
      <trkpt lat="50.32831" lon="4.33069">
        <ele>159.06076</ele>
        <time>2022-08-28T09:45:38Z</time>
      </trkpt>
      <trkpt lat="50.32832" lon="4.33076">
        <ele>159.167603</ele>
        <time>2022-08-28T09:45:40Z</time>
      </trkpt>
      <trkpt lat="50.32836" lon="4.33083">
        <ele>159.291382</ele>
        <time>2022-08-28T09:45:42Z</time>
      </trkpt>
      <trkpt lat="50.32838" lon="4.33088">
        <ele>159.333282</ele>
        <time>2022-08-28T09:45:44Z</time>
      </trkpt>
      <trkpt lat="50.3284" lon="4.33094">
        <ele>159.406616</ele>
        <time>2022-08-28T09:45:46Z</time>
      </trkpt>
      <trkpt lat="50.32841" lon="4.33099">
        <ele>159.456894</ele>
        <time>2022-08-28T09:45:48Z</time>
      </trkpt>
      <trkpt lat="50.32842" lon="4.33105">
        <ele>159.496719</ele>
        <time>2022-08-28T09:45:50Z</time>
      </trkpt>
      <trkpt lat="50.32845" lon="4.33111">
        <ele>159.553848</ele>
        <time>2022-08-28T09:45:52Z</time>
      </trkpt>
      <trkpt lat="50.32845" lon="4.33117">
        <ele>159.669052</ele>
        <time>2022-08-28T09:45:54Z</time>
      </trkpt>
      <trkpt lat="50.32846" lon="4.3312">
        <ele>159.83876</ele>
        <time>2022-08-28T09:45:56Z</time>
      </trkpt>
      <trkpt lat="50.32846" lon="4.33122">
        <ele>159.914185</ele>
        <time>2022-08-28T09:45:58Z</time>
      </trkpt>
      <trkpt lat="50.32847" lon="4.33126">
        <ele>159.946732</ele>
        <time>2022-08-28T09:46:00Z</time>
      </trkpt>
      <trkpt lat="50.32847" lon="4.33129">
        <ele>160.029053</ele>
        <time>2022-08-28T09:46:02Z</time>
      </trkpt>
      <trkpt lat="50.32847" lon="4.33132">
        <ele>160.052917</ele>
        <time>2022-08-28T09:46:04Z</time>
      </trkpt>
      <trkpt lat="50.32849" lon="4.33135">
        <ele>160.12468</ele>
        <time>2022-08-28T09:46:06Z</time>
      </trkpt>
      <trkpt lat="50.32851" lon="4.33139">
        <ele>160.211548</ele>
        <time>2022-08-28T09:46:08Z</time>
      </trkpt>
      <trkpt lat="50.32853" lon="4.33142">
        <ele>160.400116</ele>
        <time>2022-08-28T09:46:10Z</time>
      </trkpt>
      <trkpt lat="50.32855" lon="4.33145">
        <ele>160.542618</ele>
        <time>2022-08-28T09:46:12Z</time>
      </trkpt>
      <trkpt lat="50.32857" lon="4.33148">
        <ele>160.693497</ele>
        <time>2022-08-28T09:46:14Z</time>
      </trkpt>
      <trkpt lat="50.32859" lon="4.33152">
        <ele>161.059189</ele>
        <time>2022-08-28T09:46:18Z</time>
      </trkpt>
      <trkpt lat="50.32861" lon="4.33154">
        <ele>161.342072</ele>
        <time>2022-08-28T09:46:20Z</time>
      </trkpt>
      <trkpt lat="50.32862" lon="4.33156">
        <ele>161.698334</ele>
        <time>2022-08-28T09:46:22Z</time>
      </trkpt>
      <trkpt lat="50.32864" lon="4.33159">
        <ele>161.922394</ele>
        <time>2022-08-28T09:46:24Z</time>
      </trkpt>
      <trkpt lat="50.32864" lon="4.33162">
        <ele>162.288406</ele>
        <time>2022-08-28T09:46:26Z</time>
      </trkpt>
      <trkpt lat="50.32865" lon="4.33166">
        <ele>162.531525</ele>
        <time>2022-08-28T09:46:28Z</time>
      </trkpt>
      <trkpt lat="50.32866" lon="4.33168">
        <ele>162.713852</ele>
        <time>2022-08-28T09:46:30Z</time>
      </trkpt>
      <trkpt lat="50.32866" lon="4.33172">
        <ele>162.975525</ele>
        <time>2022-08-28T09:46:32Z</time>
      </trkpt>
      <trkpt lat="50.32866" lon="4.33174">
        <ele>163.182755</ele>
        <time>2022-08-28T09:46:34Z</time>
      </trkpt>
      <trkpt lat="50.32866" lon="4.33178">
        <ele>165.147797</ele>
        <time>2022-08-28T09:46:48Z</time>
      </trkpt>
      <trkpt lat="50.32865" lon="4.33181">
        <ele>165.29776</ele>
        <time>2022-08-28T09:46:50Z</time>
      </trkpt>
      <trkpt lat="50.32863" lon="4.33185">
        <ele>165.444489</ele>
        <time>2022-08-28T09:46:52Z</time>
      </trkpt>
      <trkpt lat="50.32864" lon="4.3319">
        <ele>165.566055</ele>
        <time>2022-08-28T09:46:54Z</time>
      </trkpt>
      <trkpt lat="50.32863" lon="4.33194">
        <ele>165.726471</ele>
        <time>2022-08-28T09:46:56Z</time>
      </trkpt>
      <trkpt lat="50.32863" lon="4.332">
        <ele>165.876617</ele>
        <time>2022-08-28T09:46:58Z</time>
      </trkpt>
      <trkpt lat="50.32861" lon="4.33205">
        <ele>165.964508</ele>
        <time>2022-08-28T09:47:00Z</time>
      </trkpt>
      <trkpt lat="50.3286" lon="4.33209">
        <ele>166.081894</ele>
        <time>2022-08-28T09:47:02Z</time>
      </trkpt>
      <trkpt lat="50.32859" lon="4.33213">
        <ele>166.151947</ele>
        <time>2022-08-28T09:47:04Z</time>
      </trkpt>
      <trkpt lat="50.32859" lon="4.33219">
        <ele>166.290314</ele>
        <time>2022-08-28T09:47:06Z</time>
      </trkpt>
      <trkpt lat="50.32858" lon="4.33224">
        <ele>166.450348</ele>
        <time>2022-08-28T09:47:08Z</time>
      </trkpt>
      <trkpt lat="50.32857" lon="4.33229">
        <ele>166.588715</ele>
        <time>2022-08-28T09:47:10Z</time>
      </trkpt>
      <trkpt lat="50.32857" lon="4.33235">
        <ele>166.666595</ele>
        <time>2022-08-28T09:47:12Z</time>
      </trkpt>
      <trkpt lat="50.32858" lon="4.3324">
        <ele>166.817841</ele>
        <time>2022-08-28T09:47:14Z</time>
      </trkpt>
      <trkpt lat="50.32857" lon="4.33246">
        <ele>166.895432</ele>
        <time>2022-08-28T09:47:16Z</time>
      </trkpt>
      <trkpt lat="50.32856" lon="4.33251">
        <ele>167.025665</ele>
        <time>2022-08-28T09:47:18Z</time>
      </trkpt>
      <trkpt lat="50.32857" lon="4.33257">
        <ele>167.198273</ele>
        <time>2022-08-28T09:47:20Z</time>
      </trkpt>
      <trkpt lat="50.32857" lon="4.33262">
        <ele>167.374023</ele>
        <time>2022-08-28T09:47:22Z</time>
      </trkpt>
      <trkpt lat="50.32858" lon="4.33266">
        <ele>167.602615</ele>
        <time>2022-08-28T09:47:24Z</time>
      </trkpt>
      <trkpt lat="50.32859" lon="4.33271">
        <ele>167.808105</ele>
        <time>2022-08-28T09:47:26Z</time>
      </trkpt>
      <trkpt lat="50.32861" lon="4.33276">
        <ele>168.095413</ele>
        <time>2022-08-28T09:47:28Z</time>
      </trkpt>
      <trkpt lat="50.32862" lon="4.33281">
        <ele>168.384796</ele>
        <time>2022-08-28T09:47:30Z</time>
      </trkpt>
      <trkpt lat="50.32863" lon="4.33286">
        <ele>168.716995</ele>
        <time>2022-08-28T09:47:32Z</time>
      </trkpt>
      <trkpt lat="50.32864" lon="4.3329">
        <ele>169.111237</ele>
        <time>2022-08-28T09:47:34Z</time>
      </trkpt>
      <trkpt lat="50.32865" lon="4.33294">
        <ele>169.457428</ele>
        <time>2022-08-28T09:47:36Z</time>
      </trkpt>
      <trkpt lat="50.32866" lon="4.33298">
        <ele>169.85849</ele>
        <time>2022-08-28T09:47:38Z</time>
      </trkpt>
      <trkpt lat="50.32863" lon="4.33313">
        <ele>175.143524</ele>
        <time>2022-08-28T09:48:54Z</time>
      </trkpt>
      <trkpt lat="50.32861" lon="4.33319">
        <ele>175.097351</ele>
        <time>2022-08-28T09:48:56Z</time>
      </trkpt>
      <trkpt lat="50.32858" lon="4.33332">
        <ele>175.034409</ele>
        <time>2022-08-28T09:48:58Z</time>
      </trkpt>
      <trkpt lat="50.32859" lon="4.3334">
        <ele>175.019272</ele>
        <time>2022-08-28T09:49:00Z</time>
      </trkpt>
      <trkpt lat="50.32864" lon="4.33342">
        <ele>174.952621</ele>
        <time>2022-08-28T09:49:02Z</time>
      </trkpt>
      <trkpt lat="50.32871" lon="4.33345">
        <ele>174.99881</ele>
        <time>2022-08-28T09:49:04Z</time>
      </trkpt>
      <trkpt lat="50.32876" lon="4.33348">
        <ele>174.912781</ele>
        <time>2022-08-28T09:49:06Z</time>
      </trkpt>
      <trkpt lat="50.32882" lon="4.33353">
        <ele>175.452667</ele>
        <time>2022-08-28T09:49:08Z</time>
      </trkpt>
      <trkpt lat="50.32888" lon="4.33362">
        <ele>175.448456</ele>
        <time>2022-08-28T09:49:10Z</time>
      </trkpt>
      <trkpt lat="50.32893" lon="4.3337">
        <ele>175.473907</ele>
        <time>2022-08-28T09:49:12Z</time>
      </trkpt>
      <trkpt lat="50.329" lon="4.33376">
        <ele>175.513779</ele>
        <time>2022-08-28T09:49:14Z</time>
      </trkpt>
      <trkpt lat="50.32907" lon="4.33384">
        <ele>175.490692</ele>
        <time>2022-08-28T09:49:16Z</time>
      </trkpt>
      <trkpt lat="50.32914" lon="4.33392">
        <ele>175.482315</ele>
        <time>2022-08-28T09:49:18Z</time>
      </trkpt>
      <trkpt lat="50.3292" lon="4.33398">
        <ele>175.440338</ele>
        <time>2022-08-28T09:49:20Z</time>
      </trkpt>
      <trkpt lat="50.32927" lon="4.33404">
        <ele>175.394028</ele>
        <time>2022-08-28T09:49:22Z</time>
      </trkpt>
      <trkpt lat="50.32935" lon="4.3341">
        <ele>175.297516</ele>
        <time>2022-08-28T09:49:24Z</time>
      </trkpt>
      <trkpt lat="50.32942" lon="4.33416">
        <ele>175.171646</ele>
        <time>2022-08-28T09:49:26Z</time>
      </trkpt>
      <trkpt lat="50.32949" lon="4.33422">
        <ele>175.094009</ele>
        <time>2022-08-28T09:49:28Z</time>
      </trkpt>
      <trkpt lat="50.32956" lon="4.33428">
        <ele>175.022354</ele>
        <time>2022-08-28T09:49:30Z</time>
      </trkpt>
      <trkpt lat="50.32963" lon="4.33436">
        <ele>175.003967</ele>
        <time>2022-08-28T09:49:32Z</time>
      </trkpt>
      <trkpt lat="50.32969" lon="4.33444">
        <ele>174.896988</ele>
        <time>2022-08-28T09:49:34Z</time>
      </trkpt>
      <trkpt lat="50.32974" lon="4.33453">
        <ele>174.766937</ele>
        <time>2022-08-28T09:49:36Z</time>
      </trkpt>
      <trkpt lat="50.32979" lon="4.33463">
        <ele>174.670425</ele>
        <time>2022-08-28T09:49:38Z</time>
      </trkpt>
      <trkpt lat="50.32983" lon="4.33472">
        <ele>174.45018</ele>
        <time>2022-08-28T09:49:40Z</time>
      </trkpt>
      <trkpt lat="50.32985" lon="4.33482">
        <ele>174.299591</ele>
        <time>2022-08-28T09:49:42Z</time>
      </trkpt>
      <trkpt lat="50.32983" lon="4.33492">
        <ele>174.160629</ele>
        <time>2022-08-28T09:49:44Z</time>
      </trkpt>
      <trkpt lat="50.3298" lon="4.33502">
        <ele>173.957138</ele>
        <time>2022-08-28T09:49:46Z</time>
      </trkpt>
      <trkpt lat="50.32977" lon="4.33513">
        <ele>173.778839</ele>
        <time>2022-08-28T09:49:48Z</time>
      </trkpt>
      <trkpt lat="50.32974" lon="4.33523">
        <ele>172.99353</ele>
        <time>2022-08-28T09:49:50Z</time>
      </trkpt>
      <trkpt lat="50.3297" lon="4.33533">
        <ele>172.733398</ele>
        <time>2022-08-28T09:49:52Z</time>
      </trkpt>
      <trkpt lat="50.32967" lon="4.33544">
        <ele>172.424744</ele>
        <time>2022-08-28T09:49:54Z</time>
      </trkpt>
      <trkpt lat="50.32964" lon="4.33555">
        <ele>172.296692</ele>
        <time>2022-08-28T09:49:56Z</time>
      </trkpt>
      <trkpt lat="50.3296" lon="4.33566">
        <ele>172.118378</ele>
        <time>2022-08-28T09:49:58Z</time>
      </trkpt>
      <trkpt lat="50.32957" lon="4.33576">
        <ele>171.952637</ele>
        <time>2022-08-28T09:50:00Z</time>
      </trkpt>
      <trkpt lat="50.32954" lon="4.33586">
        <ele>171.774689</ele>
        <time>2022-08-28T09:50:02Z</time>
      </trkpt>
      <trkpt lat="50.3295" lon="4.33596">
        <ele>171.687912</ele>
        <time>2022-08-28T09:50:04Z</time>
      </trkpt>
      <trkpt lat="50.32948" lon="4.33606">
        <ele>171.543381</ele>
        <time>2022-08-28T09:50:06Z</time>
      </trkpt>
      <trkpt lat="50.32945" lon="4.33615">
        <ele>171.486755</ele>
        <time>2022-08-28T09:50:08Z</time>
      </trkpt>
      <trkpt lat="50.32946" lon="4.33621">
        <ele>171.291992</ele>
        <time>2022-08-28T09:50:10Z</time>
      </trkpt>
      <trkpt lat="50.32949" lon="4.33623">
        <ele>171.252136</ele>
        <time>2022-08-28T09:50:12Z</time>
      </trkpt>
      <trkpt lat="50.32953" lon="4.33627">
        <ele>171.115662</ele>
        <time>2022-08-28T09:50:14Z</time>
      </trkpt>
      <trkpt lat="50.32958" lon="4.33631">
        <ele>171.033844</ele>
        <time>2022-08-28T09:50:16Z</time>
      </trkpt>
      <trkpt lat="50.32964" lon="4.33635">
        <ele>171.035278</ele>
        <time>2022-08-28T09:50:18Z</time>
      </trkpt>
      <trkpt lat="50.3297" lon="4.33639">
        <ele>171.114975</ele>
        <time>2022-08-28T09:50:20Z</time>
      </trkpt>
      <trkpt lat="50.32977" lon="4.33642">
        <ele>171.104477</ele>
        <time>2022-08-28T09:50:22Z</time>
      </trkpt>
      <trkpt lat="50.32984" lon="4.33646">
        <ele>171.1716</ele>
        <time>2022-08-28T09:50:24Z</time>
      </trkpt>
      <trkpt lat="50.3299" lon="4.33649">
        <ele>171.29747</ele>
        <time>2022-08-28T09:50:26Z</time>
      </trkpt>
      <trkpt lat="50.32997" lon="4.33652">
        <ele>171.454788</ele>
        <time>2022-08-28T09:50:28Z</time>
      </trkpt>
      <trkpt lat="50.33004" lon="4.33655">
        <ele>171.633087</ele>
        <time>2022-08-28T09:50:30Z</time>
      </trkpt>
      <trkpt lat="50.3301" lon="4.3366">
        <ele>171.853363</ele>
        <time>2022-08-28T09:50:32Z</time>
      </trkpt>
      <trkpt lat="50.33016" lon="4.33665">
        <ele>172.033752</ele>
        <time>2022-08-28T09:50:34Z</time>
      </trkpt>
      <trkpt lat="50.33023" lon="4.3367">
        <ele>172.262436</ele>
        <time>2022-08-28T09:50:36Z</time>
      </trkpt>
      <trkpt lat="50.33029" lon="4.33676">
        <ele>172.515137</ele>
        <time>2022-08-28T09:50:38Z</time>
      </trkpt>
      <trkpt lat="50.33035" lon="4.33681">
        <ele>172.775177</ele>
        <time>2022-08-28T09:50:40Z</time>
      </trkpt>
      <trkpt lat="50.33042" lon="4.33687">
        <ele>173.051758</ele>
        <time>2022-08-28T09:50:42Z</time>
      </trkpt>
      <trkpt lat="50.33051" lon="4.33695">
        <ele>173.19104</ele>
        <time>2022-08-28T09:50:44Z</time>
      </trkpt>
      <trkpt lat="50.33058" lon="4.33702">
        <ele>174.065033</ele>
        <time>2022-08-28T09:50:46Z</time>
      </trkpt>
      <trkpt lat="50.33065" lon="4.33708">
        <ele>174.195709</ele>
        <time>2022-08-28T09:50:48Z</time>
      </trkpt>
      <trkpt lat="50.33072" lon="4.33714">
        <ele>174.484406</ele>
        <time>2022-08-28T09:50:50Z</time>
      </trkpt>
      <trkpt lat="50.33078" lon="4.3372">
        <ele>174.811798</ele>
        <time>2022-08-28T09:50:52Z</time>
      </trkpt>
      <trkpt lat="50.33085" lon="4.33726">
        <ele>175.64119</ele>
        <time>2022-08-28T09:50:54Z</time>
      </trkpt>
      <trkpt lat="50.33091" lon="4.33732">
        <ele>175.985764</ele>
        <time>2022-08-28T09:50:56Z</time>
      </trkpt>
      <trkpt lat="50.33098" lon="4.33739">
        <ele>176.331955</ele>
        <time>2022-08-28T09:50:58Z</time>
      </trkpt>
      <trkpt lat="50.33105" lon="4.33745">
        <ele>176.613739</ele>
        <time>2022-08-28T09:51:00Z</time>
      </trkpt>
      <trkpt lat="50.33111" lon="4.33752">
        <ele>176.865509</ele>
        <time>2022-08-28T09:51:02Z</time>
      </trkpt>
      <trkpt lat="50.33118" lon="4.3376">
        <ele>177.179733</ele>
        <time>2022-08-28T09:51:04Z</time>
      </trkpt>
      <trkpt lat="50.33123" lon="4.33767">
        <ele>177.372772</ele>
        <time>2022-08-28T09:51:06Z</time>
      </trkpt>
      <trkpt lat="50.3313" lon="4.33775">
        <ele>177.570023</ele>
        <time>2022-08-28T09:51:08Z</time>
      </trkpt>
      <trkpt lat="50.33135" lon="4.33783">
        <ele>177.79245</ele>
        <time>2022-08-28T09:51:10Z</time>
      </trkpt>
      <trkpt lat="50.33141" lon="4.33791">
        <ele>178.016998</ele>
        <time>2022-08-28T09:51:12Z</time>
      </trkpt>
      <trkpt lat="50.33146" lon="4.33799">
        <ele>178.15239</ele>
        <time>2022-08-28T09:51:14Z</time>
      </trkpt>
      <trkpt lat="50.33151" lon="4.33806">
        <ele>178.213226</ele>
        <time>2022-08-28T09:51:16Z</time>
      </trkpt>
      <trkpt lat="50.33157" lon="4.33814">
        <ele>178.292145</ele>
        <time>2022-08-28T09:51:18Z</time>
      </trkpt>
      <trkpt lat="50.33163" lon="4.33822">
        <ele>178.315338</ele>
        <time>2022-08-28T09:51:20Z</time>
      </trkpt>
      <trkpt lat="50.33169" lon="4.33829">
        <ele>178.32373</ele>
        <time>2022-08-28T09:51:22Z</time>
      </trkpt>
      <trkpt lat="50.33176" lon="4.33836">
        <ele>178.335495</ele>
        <time>2022-08-28T09:51:24Z</time>
      </trkpt>
      <trkpt lat="50.33183" lon="4.33843">
        <ele>177.893234</ele>
        <time>2022-08-28T09:51:26Z</time>
      </trkpt>
      <trkpt lat="50.33189" lon="4.3385">
        <ele>177.963547</ele>
        <time>2022-08-28T09:51:28Z</time>
      </trkpt>
      <trkpt lat="50.33197" lon="4.33858">
        <ele>178.094193</ele>
        <time>2022-08-28T09:51:30Z</time>
      </trkpt>
      <trkpt lat="50.33205" lon="4.33866">
        <ele>178.05632</ele>
        <time>2022-08-28T09:51:32Z</time>
      </trkpt>
      <trkpt lat="50.33213" lon="4.33874">
        <ele>177.01123</ele>
        <time>2022-08-28T09:51:34Z</time>
      </trkpt>
      <trkpt lat="50.33221" lon="4.33881">
        <ele>176.974701</ele>
        <time>2022-08-28T09:51:36Z</time>
      </trkpt>
      <trkpt lat="50.3323" lon="4.33889">
        <ele>177.096436</ele>
        <time>2022-08-28T09:51:38Z</time>
      </trkpt>
      <trkpt lat="50.33238" lon="4.33897">
        <ele>177.190887</ele>
        <time>2022-08-28T09:51:40Z</time>
      </trkpt>
      <trkpt lat="50.33246" lon="4.33904">
        <ele>177.291626</ele>
        <time>2022-08-28T09:51:42Z</time>
      </trkpt>
      <trkpt lat="50.33254" lon="4.3391">
        <ele>177.291656</ele>
        <time>2022-08-28T09:51:44Z</time>
      </trkpt>
      <trkpt lat="50.33262" lon="4.33917">
        <ele>177.231293</ele>
        <time>2022-08-28T09:51:46Z</time>
      </trkpt>
      <trkpt lat="50.33268" lon="4.33925">
        <ele>177.237595</ele>
        <time>2022-08-28T09:51:48Z</time>
      </trkpt>
      <trkpt lat="50.33275" lon="4.33932">
        <ele>177.201935</ele>
        <time>2022-08-28T09:51:50Z</time>
      </trkpt>
      <trkpt lat="50.33281" lon="4.33941">
        <ele>177.155746</ele>
        <time>2022-08-28T09:51:52Z</time>
      </trkpt>
      <trkpt lat="50.33287" lon="4.3395">
        <ele>177.15036</ele>
        <time>2022-08-28T09:51:54Z</time>
      </trkpt>
      <trkpt lat="50.33293" lon="4.33959">
        <ele>177.183929</ele>
        <time>2022-08-28T09:51:56Z</time>
      </trkpt>
      <trkpt lat="50.33299" lon="4.33968">
        <ele>177.263702</ele>
        <time>2022-08-28T09:51:58Z</time>
      </trkpt>
      <trkpt lat="50.33304" lon="4.33977">
        <ele>177.291977</ele>
        <time>2022-08-28T09:52:00Z</time>
      </trkpt>
      <trkpt lat="50.33309" lon="4.33984">
        <ele>177.325577</ele>
        <time>2022-08-28T09:52:02Z</time>
      </trkpt>
      <trkpt lat="50.33315" lon="4.33984">
        <ele>177.447296</ele>
        <time>2022-08-28T09:52:04Z</time>
      </trkpt>
      <trkpt lat="50.33322" lon="4.33978">
        <ele>178.080536</ele>
        <time>2022-08-28T09:52:06Z</time>
      </trkpt>
      <trkpt lat="50.33329" lon="4.33971">
        <ele>177.679214</ele>
        <time>2022-08-28T09:52:08Z</time>
      </trkpt>
      <trkpt lat="50.33336" lon="4.33963">
        <ele>177.725861</ele>
        <time>2022-08-28T09:52:10Z</time>
      </trkpt>
      <trkpt lat="50.33342" lon="4.33954">
        <ele>177.816391</ele>
        <time>2022-08-28T09:52:12Z</time>
      </trkpt>
      <trkpt lat="50.33349" lon="4.33944">
        <ele>177.940247</ele>
        <time>2022-08-28T09:52:14Z</time>
      </trkpt>
      <trkpt lat="50.33353" lon="4.33933">
        <ele>178.642792</ele>
        <time>2022-08-28T09:52:16Z</time>
      </trkpt>
      <trkpt lat="50.33353" lon="4.33918">
        <ele>178.865295</ele>
        <time>2022-08-28T09:52:18Z</time>
      </trkpt>
      <trkpt lat="50.33353" lon="4.33904">
        <ele>179.041656</ele>
        <time>2022-08-28T09:52:20Z</time>
      </trkpt>
      <trkpt lat="50.33353" lon="4.3389">
        <ele>179.236908</ele>
        <time>2022-08-28T09:52:22Z</time>
      </trkpt>
      <trkpt lat="50.33353" lon="4.33876">
        <ele>179.427948</ele>
        <time>2022-08-28T09:52:24Z</time>
      </trkpt>
      <trkpt lat="50.33352" lon="4.3386">
        <ele>179.833069</ele>
        <time>2022-08-28T09:52:26Z</time>
      </trkpt>
      <trkpt lat="50.33352" lon="4.33845">
        <ele>180.166885</ele>
        <time>2022-08-28T09:52:28Z</time>
      </trkpt>
      <trkpt lat="50.33353" lon="4.3383">
        <ele>180.523743</ele>
        <time>2022-08-28T09:52:30Z</time>
      </trkpt>
      <trkpt lat="50.33355" lon="4.33815">
        <ele>180.790375</ele>
        <time>2022-08-28T09:52:32Z</time>
      </trkpt>
      <trkpt lat="50.3336" lon="4.33801">
        <ele>181.080093</ele>
        <time>2022-08-28T09:52:34Z</time>
      </trkpt>
      <trkpt lat="50.33366" lon="4.33787">
        <ele>181.428696</ele>
        <time>2022-08-28T09:52:36Z</time>
      </trkpt>
      <trkpt lat="50.33372" lon="4.33774">
        <ele>181.745712</ele>
        <time>2022-08-28T09:52:38Z</time>
      </trkpt>
      <trkpt lat="50.33377" lon="4.33761">
        <ele>182.104721</ele>
        <time>2022-08-28T09:52:40Z</time>
      </trkpt>
      <trkpt lat="50.33383" lon="4.33748">
        <ele>182.412369</ele>
        <time>2022-08-28T09:52:42Z</time>
      </trkpt>
      <trkpt lat="50.33389" lon="4.33736">
        <ele>182.836517</ele>
        <time>2022-08-28T09:52:44Z</time>
      </trkpt>
      <trkpt lat="50.33396" lon="4.33725">
        <ele>183.3069</ele>
        <time>2022-08-28T09:52:46Z</time>
      </trkpt>
      <trkpt lat="50.33404" lon="4.33716">
        <ele>183.737396</ele>
        <time>2022-08-28T09:52:48Z</time>
      </trkpt>
      <trkpt lat="50.33412" lon="4.33707">
        <ele>184.119598</ele>
        <time>2022-08-28T09:52:50Z</time>
      </trkpt>
      <trkpt lat="50.3342" lon="4.337">
        <ele>184.426178</ele>
        <time>2022-08-28T09:52:52Z</time>
      </trkpt>
      <trkpt lat="50.33429" lon="4.33693">
        <ele>184.598373</ele>
        <time>2022-08-28T09:52:54Z</time>
      </trkpt>
      <trkpt lat="50.33437" lon="4.33686">
        <ele>184.900818</ele>
        <time>2022-08-28T09:52:56Z</time>
      </trkpt>
      <trkpt lat="50.33445" lon="4.3368">
        <ele>185.182236</ele>
        <time>2022-08-28T09:52:58Z</time>
      </trkpt>
      <trkpt lat="50.33452" lon="4.33673">
        <ele>185.450089</ele>
        <time>2022-08-28T09:53:00Z</time>
      </trkpt>
      <trkpt lat="50.33459" lon="4.33667">
        <ele>185.744888</ele>
        <time>2022-08-28T09:53:02Z</time>
      </trkpt>
      <trkpt lat="50.33466" lon="4.33661">
        <ele>186.068375</ele>
        <time>2022-08-28T09:53:04Z</time>
      </trkpt>
      <trkpt lat="50.33472" lon="4.33654">
        <ele>186.375031</ele>
        <time>2022-08-28T09:53:06Z</time>
      </trkpt>
      <trkpt lat="50.3348" lon="4.33649">
        <ele>186.654404</ele>
        <time>2022-08-28T09:53:08Z</time>
      </trkpt>
      <trkpt lat="50.33486" lon="4.33643">
        <ele>186.902298</ele>
        <time>2022-08-28T09:53:10Z</time>
      </trkpt>
      <trkpt lat="50.33493" lon="4.33637">
        <ele>187.227859</ele>
        <time>2022-08-28T09:53:12Z</time>
      </trkpt>
      <trkpt lat="50.335" lon="4.33631">
        <ele>187.578705</ele>
        <time>2022-08-28T09:53:14Z</time>
      </trkpt>
      <trkpt lat="50.33507" lon="4.33626">
        <ele>187.86441</ele>
        <time>2022-08-28T09:53:16Z</time>
      </trkpt>
      <trkpt lat="50.33514" lon="4.3362">
        <ele>188.137497</ele>
        <time>2022-08-28T09:53:18Z</time>
      </trkpt>
      <trkpt lat="50.33521" lon="4.33614">
        <ele>188.475754</ele>
        <time>2022-08-28T09:53:20Z</time>
      </trkpt>
      <trkpt lat="50.33527" lon="4.33608">
        <ele>188.816101</ele>
        <time>2022-08-28T09:53:22Z</time>
      </trkpt>
      <trkpt lat="50.33534" lon="4.33602">
        <ele>189.167007</ele>
        <time>2022-08-28T09:53:24Z</time>
      </trkpt>
      <trkpt lat="50.3354" lon="4.33596">
        <ele>189.400208</ele>
        <time>2022-08-28T09:53:26Z</time>
      </trkpt>
      <trkpt lat="50.33546" lon="4.33588">
        <ele>189.595352</ele>
        <time>2022-08-28T09:53:28Z</time>
      </trkpt>
      <trkpt lat="50.33551" lon="4.33579">
        <ele>189.794739</ele>
        <time>2022-08-28T09:53:30Z</time>
      </trkpt>
      <trkpt lat="50.33556" lon="4.33569">
        <ele>190.122543</ele>
        <time>2022-08-28T09:53:32Z</time>
      </trkpt>
      <trkpt lat="50.3356" lon="4.33558">
        <ele>190.338959</ele>
        <time>2022-08-28T09:53:34Z</time>
      </trkpt>
      <trkpt lat="50.33563" lon="4.33546">
        <ele>190.471344</ele>
        <time>2022-08-28T09:53:36Z</time>
      </trkpt>
      <trkpt lat="50.33566" lon="4.33533">
        <ele>190.656265</ele>
        <time>2022-08-28T09:53:38Z</time>
      </trkpt>
      <trkpt lat="50.33568" lon="4.3352">
        <ele>190.869492</ele>
        <time>2022-08-28T09:53:40Z</time>
      </trkpt>
      <trkpt lat="50.33571" lon="4.33507">
        <ele>191.041931</ele>
        <time>2022-08-28T09:53:42Z</time>
      </trkpt>
      <trkpt lat="50.33573" lon="4.33493">
        <ele>191.172211</ele>
        <time>2022-08-28T09:53:44Z</time>
      </trkpt>
      <trkpt lat="50.33576" lon="4.33478">
        <ele>191.235245</ele>
        <time>2022-08-28T09:53:46Z</time>
      </trkpt>
      <trkpt lat="50.33579" lon="4.33464">
        <ele>191.296173</ele>
        <time>2022-08-28T09:53:48Z</time>
      </trkpt>
      <trkpt lat="50.33582" lon="4.33448">
        <ele>191.321396</ele>
        <time>2022-08-28T09:53:50Z</time>
      </trkpt>
      <trkpt lat="50.33584" lon="4.33433">
        <ele>191.296173</ele>
        <time>2022-08-28T09:53:52Z</time>
      </trkpt>
      <trkpt lat="50.33587" lon="4.33416">
        <ele>191.136505</ele>
        <time>2022-08-28T09:53:54Z</time>
      </trkpt>
      <trkpt lat="50.3359" lon="4.33398">
        <ele>190.997833</ele>
        <time>2022-08-28T09:53:56Z</time>
      </trkpt>
      <trkpt lat="50.33593" lon="4.3338">
        <ele>190.760422</ele>
        <time>2022-08-28T09:53:58Z</time>
      </trkpt>
      <trkpt lat="50.33597" lon="4.33364">
        <ele>190.573456</ele>
        <time>2022-08-28T09:54:00Z</time>
      </trkpt>
      <trkpt lat="50.33604" lon="4.33351">
        <ele>190.277191</ele>
        <time>2022-08-28T09:54:02Z</time>
      </trkpt>
      <trkpt lat="50.33609" lon="4.3334">
        <ele>189.947342</ele>
        <time>2022-08-28T09:54:04Z</time>
      </trkpt>
      <trkpt lat="50.33615" lon="4.3333">
        <ele>189.686249</ele>
        <time>2022-08-28T09:54:06Z</time>
      </trkpt>
      <trkpt lat="50.3362" lon="4.3332">
        <ele>189.404694</ele>
        <time>2022-08-28T09:54:08Z</time>
      </trkpt>
      <trkpt lat="50.33625" lon="4.33311">
        <ele>189.157059</ele>
        <time>2022-08-28T09:54:10Z</time>
      </trkpt>
      <trkpt lat="50.3363" lon="4.33302">
        <ele>188.903015</ele>
        <time>2022-08-28T09:54:12Z</time>
      </trkpt>
      <trkpt lat="50.33635" lon="4.33294">
        <ele>188.741211</ele>
        <time>2022-08-28T09:54:14Z</time>
      </trkpt>
      <trkpt lat="50.33641" lon="4.33285">
        <ele>188.535294</ele>
        <time>2022-08-28T09:54:16Z</time>
      </trkpt>
      <trkpt lat="50.33646" lon="4.33276">
        <ele>188.390289</ele>
        <time>2022-08-28T09:54:18Z</time>
      </trkpt>
      <trkpt lat="50.33652" lon="4.33267">
        <ele>188.201187</ele>
        <time>2022-08-28T09:54:20Z</time>
      </trkpt>
      <trkpt lat="50.33658" lon="4.33258">
        <ele>188.049881</ele>
        <time>2022-08-28T09:54:22Z</time>
      </trkpt>
      <trkpt lat="50.33663" lon="4.33249">
        <ele>187.931335</ele>
        <time>2022-08-28T09:54:24Z</time>
      </trkpt>
      <trkpt lat="50.33669" lon="4.3324">
        <ele>187.84938</ele>
        <time>2022-08-28T09:54:26Z</time>
      </trkpt>
      <trkpt lat="50.33674" lon="4.33231">
        <ele>187.788437</ele>
        <time>2022-08-28T09:54:28Z</time>
      </trkpt>
      <trkpt lat="50.3368" lon="4.33222">
        <ele>187.834671</ele>
        <time>2022-08-28T09:54:30Z</time>
      </trkpt>
      <trkpt lat="50.33685" lon="4.33213">
        <ele>187.86618</ele>
        <time>2022-08-28T09:54:32Z</time>
      </trkpt>
      <trkpt lat="50.33691" lon="4.33204">
        <ele>188.006973</ele>
        <time>2022-08-28T09:54:34Z</time>
      </trkpt>
      <trkpt lat="50.33696" lon="4.33195">
        <ele>188.160355</ele>
        <time>2022-08-28T09:54:36Z</time>
      </trkpt>
      <trkpt lat="50.33702" lon="4.33185">
        <ele>188.408997</ele>
        <time>2022-08-28T09:54:38Z</time>
      </trkpt>
      <trkpt lat="50.33708" lon="4.33176">
        <ele>188.677917</ele>
        <time>2022-08-28T09:54:40Z</time>
      </trkpt>
      <trkpt lat="50.33714" lon="4.33168">
        <ele>189.047729</ele>
        <time>2022-08-28T09:54:42Z</time>
      </trkpt>
      <trkpt lat="50.3372" lon="4.3316">
        <ele>189.367096</ele>
        <time>2022-08-28T09:54:44Z</time>
      </trkpt>
      <trkpt lat="50.33727" lon="4.33152">
        <ele>189.579834</ele>
        <time>2022-08-28T09:54:46Z</time>
      </trkpt>
      <trkpt lat="50.33733" lon="4.33146">
        <ele>189.865601</ele>
        <time>2022-08-28T09:54:48Z</time>
      </trkpt>
      <trkpt lat="50.33739" lon="4.33139">
        <ele>190.182892</ele>
        <time>2022-08-28T09:54:50Z</time>
      </trkpt>
      <trkpt lat="50.33745" lon="4.33133">
        <ele>190.5065</ele>
        <time>2022-08-28T09:54:52Z</time>
      </trkpt>
      <trkpt lat="50.33751" lon="4.33126">
        <ele>190.741837</ele>
        <time>2022-08-28T09:54:54Z</time>
      </trkpt>
      <trkpt lat="50.33757" lon="4.3312">
        <ele>191.021317</ele>
        <time>2022-08-28T09:54:56Z</time>
      </trkpt>
      <trkpt lat="50.33762" lon="4.33114">
        <ele>191.269302</ele>
        <time>2022-08-28T09:54:58Z</time>
      </trkpt>
      <trkpt lat="50.33767" lon="4.3311">
        <ele>191.414291</ele>
        <time>2022-08-28T09:55:00Z</time>
      </trkpt>
      <trkpt lat="50.33771" lon="4.33106">
        <ele>191.672791</ele>
        <time>2022-08-28T09:55:02Z</time>
      </trkpt>
      <trkpt lat="50.33775" lon="4.33105">
        <ele>191.941803</ele>
        <time>2022-08-28T09:55:04Z</time>
      </trkpt>
      <trkpt lat="50.33777" lon="4.33103">
        <ele>192.204498</ele>
        <time>2022-08-28T09:55:06Z</time>
      </trkpt>
      <trkpt lat="50.33778" lon="4.331">
        <ele>193.051941</ele>
        <time>2022-08-28T09:55:14Z</time>
      </trkpt>
      <trkpt lat="50.33783" lon="4.33096">
        <ele>193.257904</ele>
        <time>2022-08-28T09:55:16Z</time>
      </trkpt>
      <trkpt lat="50.33788" lon="4.33089">
        <ele>193.402191</ele>
        <time>2022-08-28T09:55:18Z</time>
      </trkpt>
      <trkpt lat="50.33794" lon="4.3308">
        <ele>193.595642</ele>
        <time>2022-08-28T09:55:20Z</time>
      </trkpt>
      <trkpt lat="50.33796" lon="4.33069">
        <ele>193.751251</ele>
        <time>2022-08-28T09:55:22Z</time>
      </trkpt>
      <trkpt lat="50.33798" lon="4.33058">
        <ele>193.791183</ele>
        <time>2022-08-28T09:55:24Z</time>
      </trkpt>
      <trkpt lat="50.33801" lon="4.33047">
        <ele>193.982452</ele>
        <time>2022-08-28T09:55:26Z</time>
      </trkpt>
      <trkpt lat="50.33803" lon="4.33035">
        <ele>194.106476</ele>
        <time>2022-08-28T09:55:28Z</time>
      </trkpt>
      <trkpt lat="50.33805" lon="4.33022">
        <ele>194.28093</ele>
        <time>2022-08-28T09:55:30Z</time>
      </trkpt>
      <trkpt lat="50.33808" lon="4.33009">
        <ele>194.332321</ele>
        <time>2022-08-28T09:55:32Z</time>
      </trkpt>
      <trkpt lat="50.3381" lon="4.32996">
        <ele>194.431854</ele>
        <time>2022-08-28T09:55:34Z</time>
      </trkpt>
      <trkpt lat="50.33813" lon="4.32983">
        <ele>194.532761</ele>
        <time>2022-08-28T09:55:36Z</time>
      </trkpt>
      <trkpt lat="50.33816" lon="4.32971">
        <ele>194.585297</ele>
        <time>2022-08-28T09:55:38Z</time>
      </trkpt>
      <trkpt lat="50.33818" lon="4.32958">
        <ele>194.656784</ele>
        <time>2022-08-28T09:55:40Z</time>
      </trkpt>
      <trkpt lat="50.33821" lon="4.32946">
        <ele>194.740875</ele>
        <time>2022-08-28T09:55:42Z</time>
      </trkpt>
      <trkpt lat="50.33824" lon="4.32933">
        <ele>194.82077</ele>
        <time>2022-08-28T09:55:44Z</time>
      </trkpt>
      <trkpt lat="50.33827" lon="4.32917">
        <ele>194.951126</ele>
        <time>2022-08-28T09:55:46Z</time>
      </trkpt>
      <trkpt lat="50.33829" lon="4.32902">
        <ele>194.993164</ele>
        <time>2022-08-28T09:55:48Z</time>
      </trkpt>
      <trkpt lat="50.33832" lon="4.32885">
        <ele>195.082977</ele>
        <time>2022-08-28T09:55:50Z</time>
      </trkpt>
      <trkpt lat="50.33834" lon="4.32867">
        <ele>195.178055</ele>
        <time>2022-08-28T09:55:52Z</time>
      </trkpt>
      <trkpt lat="50.33836" lon="4.32849">
        <ele>195.367432</ele>
        <time>2022-08-28T09:55:54Z</time>
      </trkpt>
      <trkpt lat="50.33839" lon="4.32832">
        <ele>195.546173</ele>
        <time>2022-08-28T09:55:56Z</time>
      </trkpt>
      <trkpt lat="50.33842" lon="4.32815">
        <ele>195.682816</ele>
        <time>2022-08-28T09:55:58Z</time>
      </trkpt>
      <trkpt lat="50.33845" lon="4.32798">
        <ele>195.909821</ele>
        <time>2022-08-28T09:56:00Z</time>
      </trkpt>
      <trkpt lat="50.33848" lon="4.32781">
        <ele>195.995956</ele>
        <time>2022-08-28T09:56:02Z</time>
      </trkpt>
      <trkpt lat="50.33851" lon="4.32765">
        <ele>196.052719</ele>
        <time>2022-08-28T09:56:04Z</time>
      </trkpt>
      <trkpt lat="50.33854" lon="4.32748">
        <ele>196.172562</ele>
        <time>2022-08-28T09:56:06Z</time>
      </trkpt>
      <trkpt lat="50.33857" lon="4.32731">
        <ele>196.206207</ele>
        <time>2022-08-28T09:56:08Z</time>
      </trkpt>
      <trkpt lat="50.3386" lon="4.32714">
        <ele>196.151535</ele>
        <time>2022-08-28T09:56:10Z</time>
      </trkpt>
      <trkpt lat="50.33863" lon="4.32697">
        <ele>196.141022</ele>
        <time>2022-08-28T09:56:12Z</time>
      </trkpt>
      <trkpt lat="50.33866" lon="4.3268">
        <ele>196.125381</ele>
        <time>2022-08-28T09:56:14Z</time>
      </trkpt>
      <trkpt lat="50.33869" lon="4.32663">
        <ele>196.061584</ele>
        <time>2022-08-28T09:56:16Z</time>
      </trkpt>
      <trkpt lat="50.33872" lon="4.32647">
        <ele>195.931259</ele>
        <time>2022-08-28T09:56:18Z</time>
      </trkpt>
      <trkpt lat="50.33875" lon="4.32629">
        <ele>195.863983</ele>
        <time>2022-08-28T09:56:20Z</time>
      </trkpt>
      <trkpt lat="50.33878" lon="4.32612">
        <ele>195.67482</ele>
        <time>2022-08-28T09:56:22Z</time>
      </trkpt>
      <trkpt lat="50.33881" lon="4.32595">
        <ele>195.536072</ele>
        <time>2022-08-28T09:56:24Z</time>
      </trkpt>
      <trkpt lat="50.33884" lon="4.32578">
        <ele>195.454086</ele>
        <time>2022-08-28T09:56:26Z</time>
      </trkpt>
      <trkpt lat="50.33888" lon="4.32563">
        <ele>195.275696</ele>
        <time>2022-08-28T09:56:28Z</time>
      </trkpt>
      <trkpt lat="50.3389" lon="4.32548">
        <ele>195.108276</ele>
        <time>2022-08-28T09:56:30Z</time>
      </trkpt>
      <trkpt lat="50.33892" lon="4.32537">
        <ele>194.90387</ele>
        <time>2022-08-28T09:56:32Z</time>
      </trkpt>
      <trkpt lat="50.33895" lon="4.3253">
        <ele>194.634781</ele>
        <time>2022-08-28T09:56:34Z</time>
      </trkpt>
      <trkpt lat="50.33899" lon="4.32528">
        <ele>194.382477</ele>
        <time>2022-08-28T09:56:36Z</time>
      </trkpt>
      <trkpt lat="50.33905" lon="4.32527">
        <ele>194.048248</ele>
        <time>2022-08-28T09:56:38Z</time>
      </trkpt>
      <trkpt lat="50.33909" lon="4.32522">
        <ele>193.844299</ele>
        <time>2022-08-28T09:56:40Z</time>
      </trkpt>
      <trkpt lat="50.33913" lon="4.32517">
        <ele>193.674011</ele>
        <time>2022-08-28T09:56:42Z</time>
      </trkpt>
      <trkpt lat="50.33919" lon="4.32518">
        <ele>193.474289</ele>
        <time>2022-08-28T09:56:44Z</time>
      </trkpt>
      <trkpt lat="50.33924" lon="4.32518">
        <ele>193.314499</ele>
        <time>2022-08-28T09:56:46Z</time>
      </trkpt>
      <trkpt lat="50.33929" lon="4.32516">
        <ele>193.154724</ele>
        <time>2022-08-28T09:56:48Z</time>
      </trkpt>
      <trkpt lat="50.33934" lon="4.32513">
        <ele>193.058197</ele>
        <time>2022-08-28T09:56:50Z</time>
      </trkpt>
      <trkpt lat="50.33937" lon="4.32507">
        <ele>193.049789</ele>
        <time>2022-08-28T09:56:52Z</time>
      </trkpt>
      <trkpt lat="50.3394" lon="4.32501">
        <ele>192.977692</ele>
        <time>2022-08-28T09:56:54Z</time>
      </trkpt>
      <trkpt lat="50.33941" lon="4.32495">
        <ele>192.870483</ele>
        <time>2022-08-28T09:56:56Z</time>
      </trkpt>
      <trkpt lat="50.3394" lon="4.32491">
        <ele>192.790619</ele>
        <time>2022-08-28T09:56:58Z</time>
      </trkpt>
    </trkseg>
  </trk>
</gpx>